<?xml version="1.0" encoding="UTF-8" standalone="no" ?>
<gpx xmlns="http://www.topografix.com/GPX/1/1" xmlns:xsi="http://www.w3.org/2001/XMLSchema-instance" xsi:schemaLocation="http://www.topografix.com/GPX/1/1 http://www.topografix.com/GPX/1/1/gpx.xsd" version="1.1" creator="VisuGPX - https://www.visugpx.com">
  <metadata>
    <name>Sortie ASV VTT 2017-07-30</name>
    <desc><![CDATA[Sortie ASV VTT en Sologne. 13 aujourd'hui malgrès les vacances ... de 13 à 60 ans !]]></desc>
  </metadata>
  <trk>
    <name><![CDATA[Sortie ASV VTT 2017-07-30_1]]></name>
    <trkseg>
      <trkpt lat="47.80168" lon="2.13623">
        <ele>104</ele>
        <time>2017-07-30T06:30:24.340Z</time>
      </trkpt>
      <trkpt lat="47.80168" lon="2.13623">
        <ele>104</ele>
        <time>2017-07-30T06:30:25.317Z</time>
      </trkpt>
      <trkpt lat="47.80168" lon="2.13623">
        <ele>104</ele>
        <time>2017-07-30T06:30:26.334Z</time>
      </trkpt>
      <trkpt lat="47.80171" lon="2.13623">
        <ele>104</ele>
        <time>2017-07-30T06:30:27.327Z</time>
      </trkpt>
      <trkpt lat="47.80171" lon="2.13624">
        <ele>104</ele>
        <time>2017-07-30T06:30:28.318Z</time>
      </trkpt>
      <trkpt lat="47.80171" lon="2.13624">
        <ele>104</ele>
        <time>2017-07-30T06:30:29.325Z</time>
      </trkpt>
      <trkpt lat="47.80169" lon="2.13625">
        <ele>104</ele>
        <time>2017-07-30T06:30:30.315Z</time>
      </trkpt>
      <trkpt lat="47.80169" lon="2.13625">
        <ele>104</ele>
        <time>2017-07-30T06:30:31.342Z</time>
      </trkpt>
      <trkpt lat="47.80166" lon="2.13627">
        <ele>104</ele>
        <time>2017-07-30T06:30:32.318Z</time>
      </trkpt>
      <trkpt lat="47.80165" lon="2.13628">
        <ele>105</ele>
        <time>2017-07-30T06:30:33.350Z</time>
      </trkpt>
      <trkpt lat="47.80165" lon="2.13628">
        <ele>105</ele>
        <time>2017-07-30T06:30:34.345Z</time>
      </trkpt>
      <trkpt lat="47.80162" lon="2.13633">
        <ele>105</ele>
        <time>2017-07-30T06:30:35.339Z</time>
      </trkpt>
      <trkpt lat="47.80161" lon="2.13636">
        <ele>105</ele>
        <time>2017-07-30T06:30:36.344Z</time>
      </trkpt>
      <trkpt lat="47.80161" lon="2.13636">
        <ele>105</ele>
        <time>2017-07-30T06:30:37.339Z</time>
      </trkpt>
      <trkpt lat="47.80158" lon="2.13642">
        <ele>105</ele>
        <time>2017-07-30T06:30:38.311Z</time>
      </trkpt>
      <trkpt lat="47.80158" lon="2.13642">
        <ele>105</ele>
        <time>2017-07-30T06:30:39.342Z</time>
      </trkpt>
      <trkpt lat="47.80156" lon="2.13649">
        <ele>105</ele>
        <time>2017-07-30T06:30:40.338Z</time>
      </trkpt>
      <trkpt lat="47.80156" lon="2.13649">
        <ele>105</ele>
        <time>2017-07-30T06:30:41.330Z</time>
      </trkpt>
      <trkpt lat="47.80152" lon="2.13656">
        <ele>105</ele>
        <time>2017-07-30T06:30:42.320Z</time>
      </trkpt>
      <trkpt lat="47.8015" lon="2.13659">
        <ele>105</ele>
        <time>2017-07-30T06:30:43.312Z</time>
      </trkpt>
      <trkpt lat="47.80147" lon="2.13659">
        <ele>105</ele>
        <time>2017-07-30T06:30:44.347Z</time>
      </trkpt>
      <trkpt lat="47.80147" lon="2.13659">
        <ele>105</ele>
        <time>2017-07-30T06:30:45.340Z</time>
      </trkpt>
      <trkpt lat="47.80141" lon="2.13658">
        <ele>105</ele>
        <time>2017-07-30T06:30:46.346Z</time>
      </trkpt>
      <trkpt lat="47.80138" lon="2.13656">
        <ele>105</ele>
        <time>2017-07-30T06:30:47.322Z</time>
      </trkpt>
      <trkpt lat="47.80138" lon="2.13656">
        <ele>105</ele>
        <time>2017-07-30T06:30:48.326Z</time>
      </trkpt>
      <trkpt lat="47.80132" lon="2.13653">
        <ele>105</ele>
        <time>2017-07-30T06:30:49.321Z</time>
      </trkpt>
      <trkpt lat="47.80132" lon="2.13653">
        <ele>105</ele>
        <time>2017-07-30T06:30:50.315Z</time>
      </trkpt>
      <trkpt lat="47.80127" lon="2.13651">
        <ele>105</ele>
        <time>2017-07-30T06:30:51.349Z</time>
      </trkpt>
      <trkpt lat="47.80127" lon="2.13651">
        <ele>105</ele>
        <time>2017-07-30T06:30:52.343Z</time>
      </trkpt>
      <trkpt lat="47.80122" lon="2.13647">
        <ele>105</ele>
        <time>2017-07-30T06:30:53.344Z</time>
      </trkpt>
      <trkpt lat="47.80122" lon="2.13647">
        <ele>105</ele>
        <time>2017-07-30T06:30:54.339Z</time>
      </trkpt>
      <trkpt lat="47.80118" lon="2.13645">
        <ele>105</ele>
        <time>2017-07-30T06:30:55.338Z</time>
      </trkpt>
      <trkpt lat="47.80118" lon="2.13645">
        <ele>105</ele>
        <time>2017-07-30T06:30:56.340Z</time>
      </trkpt>
      <trkpt lat="47.80113" lon="2.13643">
        <ele>105</ele>
        <time>2017-07-30T06:30:57.343Z</time>
      </trkpt>
      <trkpt lat="47.80113" lon="2.13643">
        <ele>105</ele>
        <time>2017-07-30T06:30:58.316Z</time>
      </trkpt>
      <trkpt lat="47.80109" lon="2.13641">
        <ele>105</ele>
        <time>2017-07-30T06:30:59.313Z</time>
      </trkpt>
      <trkpt lat="47.80109" lon="2.13641">
        <ele>105</ele>
        <time>2017-07-30T06:31:00.343Z</time>
      </trkpt>
      <trkpt lat="47.80104" lon="2.13638">
        <ele>105</ele>
        <time>2017-07-30T06:31:01.339Z</time>
      </trkpt>
      <trkpt lat="47.80104" lon="2.13638">
        <ele>105</ele>
        <time>2017-07-30T06:31:02.333Z</time>
      </trkpt>
      <trkpt lat="47.801" lon="2.13636">
        <ele>105</ele>
        <time>2017-07-30T06:31:03.325Z</time>
      </trkpt>
      <trkpt lat="47.80098" lon="2.13635">
        <ele>106</ele>
        <time>2017-07-30T06:31:04.325Z</time>
      </trkpt>
      <trkpt lat="47.80098" lon="2.13635">
        <ele>106</ele>
        <time>2017-07-30T06:31:05.316Z</time>
      </trkpt>
      <trkpt lat="47.80094" lon="2.13633">
        <ele>106</ele>
        <time>2017-07-30T06:31:06.353Z</time>
      </trkpt>
      <trkpt lat="47.80092" lon="2.13633">
        <ele>106</ele>
        <time>2017-07-30T06:31:07.314Z</time>
      </trkpt>
      <trkpt lat="47.8009" lon="2.13632">
        <ele>106</ele>
        <time>2017-07-30T06:31:08.350Z</time>
      </trkpt>
      <trkpt lat="47.8009" lon="2.13632">
        <ele>106</ele>
        <time>2017-07-30T06:31:09.341Z</time>
      </trkpt>
      <trkpt lat="47.80086" lon="2.1363">
        <ele>105</ele>
        <time>2017-07-30T06:31:10.340Z</time>
      </trkpt>
      <trkpt lat="47.80086" lon="2.1363">
        <ele>105</ele>
        <time>2017-07-30T06:31:11.334Z</time>
      </trkpt>
      <trkpt lat="47.80083" lon="2.13626">
        <ele>105</ele>
        <time>2017-07-30T06:31:12.339Z</time>
      </trkpt>
      <trkpt lat="47.80083" lon="2.13626">
        <ele>105</ele>
        <time>2017-07-30T06:31:13.334Z</time>
      </trkpt>
      <trkpt lat="47.80083" lon="2.13618">
        <ele>105</ele>
        <time>2017-07-30T06:31:14.336Z</time>
      </trkpt>
      <trkpt lat="47.80083" lon="2.13618">
        <ele>105</ele>
        <time>2017-07-30T06:31:15.349Z</time>
      </trkpt>
      <trkpt lat="47.80083" lon="2.13609">
        <ele>106</ele>
        <time>2017-07-30T06:31:16.319Z</time>
      </trkpt>
      <trkpt lat="47.80083" lon="2.13605">
        <ele>106</ele>
        <time>2017-07-30T06:31:17.340Z</time>
      </trkpt>
      <trkpt lat="47.80083" lon="2.13605">
        <ele>106</ele>
        <time>2017-07-30T06:31:18.348Z</time>
      </trkpt>
      <trkpt lat="47.80083" lon="2.13597">
        <ele>106</ele>
        <time>2017-07-30T06:31:19.349Z</time>
      </trkpt>
      <trkpt lat="47.80083" lon="2.13597">
        <ele>106</ele>
        <time>2017-07-30T06:31:20.340Z</time>
      </trkpt>
      <trkpt lat="47.80082" lon="2.1359">
        <ele>106</ele>
        <time>2017-07-30T06:31:21.345Z</time>
      </trkpt>
      <trkpt lat="47.80082" lon="2.1359">
        <ele>106</ele>
        <time>2017-07-30T06:31:22.339Z</time>
      </trkpt>
      <trkpt lat="47.80082" lon="2.13582">
        <ele>107</ele>
        <time>2017-07-30T06:31:23.339Z</time>
      </trkpt>
      <trkpt lat="47.80082" lon="2.13578">
        <ele>107</ele>
        <time>2017-07-30T06:31:24.315Z</time>
      </trkpt>
      <trkpt lat="47.80082" lon="2.13578">
        <ele>107</ele>
        <time>2017-07-30T06:31:25.345Z</time>
      </trkpt>
      <trkpt lat="47.80083" lon="2.1357">
        <ele>107</ele>
        <time>2017-07-30T06:31:26.339Z</time>
      </trkpt>
      <trkpt lat="47.80083" lon="2.13566">
        <ele>107</ele>
        <time>2017-07-30T06:31:27.329Z</time>
      </trkpt>
      <trkpt lat="47.80083" lon="2.13566">
        <ele>107</ele>
        <time>2017-07-30T06:31:28.321Z</time>
      </trkpt>
      <trkpt lat="47.80084" lon="2.13557">
        <ele>107</ele>
        <time>2017-07-30T06:31:29.350Z</time>
      </trkpt>
      <trkpt lat="47.80084" lon="2.13557">
        <ele>107</ele>
        <time>2017-07-30T06:31:30.339Z</time>
      </trkpt>
      <trkpt lat="47.80086" lon="2.13549">
        <ele>107</ele>
        <time>2017-07-30T06:31:31.330Z</time>
      </trkpt>
      <trkpt lat="47.80086" lon="2.13545">
        <ele>107</ele>
        <time>2017-07-30T06:31:32.322Z</time>
      </trkpt>
      <trkpt lat="47.80086" lon="2.13545">
        <ele>107</ele>
        <time>2017-07-30T06:31:33.331Z</time>
      </trkpt>
      <trkpt lat="47.80087" lon="2.13537">
        <ele>108</ele>
        <time>2017-07-30T06:31:34.329Z</time>
      </trkpt>
      <trkpt lat="47.80087" lon="2.13537">
        <ele>108</ele>
        <time>2017-07-30T06:31:35.339Z</time>
      </trkpt>
      <trkpt lat="47.80085" lon="2.13528">
        <ele>108</ele>
        <time>2017-07-30T06:31:36.341Z</time>
      </trkpt>
      <trkpt lat="47.80083" lon="2.13523">
        <ele>108</ele>
        <time>2017-07-30T06:31:37.339Z</time>
      </trkpt>
      <trkpt lat="47.80083" lon="2.13523">
        <ele>108</ele>
        <time>2017-07-30T06:31:38.345Z</time>
      </trkpt>
      <trkpt lat="47.80078" lon="2.13515">
        <ele>107</ele>
        <time>2017-07-30T06:31:39.343Z</time>
      </trkpt>
      <trkpt lat="47.80078" lon="2.13515">
        <ele>107</ele>
        <time>2017-07-30T06:31:40.333Z</time>
      </trkpt>
      <trkpt lat="47.80073" lon="2.13507">
        <ele>107</ele>
        <time>2017-07-30T06:31:41.339Z</time>
      </trkpt>
      <trkpt lat="47.80073" lon="2.13507">
        <ele>107</ele>
        <time>2017-07-30T06:31:42.332Z</time>
      </trkpt>
      <trkpt lat="47.80068" lon="2.13499">
        <ele>108</ele>
        <time>2017-07-30T06:31:43.339Z</time>
      </trkpt>
      <trkpt lat="47.80068" lon="2.13499">
        <ele>108</ele>
        <time>2017-07-30T06:31:44.332Z</time>
      </trkpt>
      <trkpt lat="47.80062" lon="2.1349">
        <ele>109</ele>
        <time>2017-07-30T06:31:45.323Z</time>
      </trkpt>
      <trkpt lat="47.80062" lon="2.1349">
        <ele>109</ele>
        <time>2017-07-30T06:31:46.312Z</time>
      </trkpt>
      <trkpt lat="47.80057" lon="2.1348">
        <ele>109</ele>
        <time>2017-07-30T06:31:47.344Z</time>
      </trkpt>
      <trkpt lat="47.80057" lon="2.1348">
        <ele>109</ele>
        <time>2017-07-30T06:31:48.344Z</time>
      </trkpt>
      <trkpt lat="47.80053" lon="2.13469">
        <ele>109</ele>
        <time>2017-07-30T06:31:49.333Z</time>
      </trkpt>
      <trkpt lat="47.80051" lon="2.13464">
        <ele>109</ele>
        <time>2017-07-30T06:31:50.339Z</time>
      </trkpt>
      <trkpt lat="47.80051" lon="2.13464">
        <ele>109</ele>
        <time>2017-07-30T06:31:51.333Z</time>
      </trkpt>
      <trkpt lat="47.80047" lon="2.13453">
        <ele>111</ele>
        <time>2017-07-30T06:31:52.322Z</time>
      </trkpt>
      <trkpt lat="47.80045" lon="2.13448">
        <ele>111</ele>
        <time>2017-07-30T06:31:53.313Z</time>
      </trkpt>
      <trkpt lat="47.80045" lon="2.13448">
        <ele>111</ele>
        <time>2017-07-30T06:31:54.341Z</time>
      </trkpt>
      <trkpt lat="47.80041" lon="2.13437">
        <ele>111</ele>
        <time>2017-07-30T06:31:55.347Z</time>
      </trkpt>
      <trkpt lat="47.80039" lon="2.13432">
        <ele>111</ele>
        <time>2017-07-30T06:31:56.337Z</time>
      </trkpt>
      <trkpt lat="47.80037" lon="2.13426">
        <ele>112</ele>
        <time>2017-07-30T06:31:57.317Z</time>
      </trkpt>
      <trkpt lat="47.80037" lon="2.13426">
        <ele>112</ele>
        <time>2017-07-30T06:31:58.313Z</time>
      </trkpt>
      <trkpt lat="47.80032" lon="2.13415">
        <ele>112</ele>
        <time>2017-07-30T06:31:59.346Z</time>
      </trkpt>
      <trkpt lat="47.80032" lon="2.13415">
        <ele>112</ele>
        <time>2017-07-30T06:32:00.342Z</time>
      </trkpt>
      <trkpt lat="47.80029" lon="2.13404">
        <ele>113</ele>
        <time>2017-07-30T06:32:01.337Z</time>
      </trkpt>
      <trkpt lat="47.80029" lon="2.13404">
        <ele>113</ele>
        <time>2017-07-30T06:32:02.328Z</time>
      </trkpt>
      <trkpt lat="47.80026" lon="2.13392">
        <ele>113</ele>
        <time>2017-07-30T06:32:03.347Z</time>
      </trkpt>
      <trkpt lat="47.80026" lon="2.13392">
        <ele>113</ele>
        <time>2017-07-30T06:32:04.337Z</time>
      </trkpt>
      <trkpt lat="47.80022" lon="2.1338">
        <ele>113</ele>
        <time>2017-07-30T06:32:05.327Z</time>
      </trkpt>
      <trkpt lat="47.80022" lon="2.13375">
        <ele>114</ele>
        <time>2017-07-30T06:32:06.321Z</time>
      </trkpt>
      <trkpt lat="47.80022" lon="2.13375">
        <ele>114</ele>
        <time>2017-07-30T06:32:07.314Z</time>
      </trkpt>
      <trkpt lat="47.80019" lon="2.13364">
        <ele>115</ele>
        <time>2017-07-30T06:32:08.345Z</time>
      </trkpt>
      <trkpt lat="47.80018" lon="2.13359">
        <ele>115</ele>
        <time>2017-07-30T06:32:09.345Z</time>
      </trkpt>
      <trkpt lat="47.80018" lon="2.13359">
        <ele>115</ele>
        <time>2017-07-30T06:32:10.335Z</time>
      </trkpt>
      <trkpt lat="47.80016" lon="2.13348">
        <ele>115</ele>
        <time>2017-07-30T06:32:11.325Z</time>
      </trkpt>
      <trkpt lat="47.80016" lon="2.13348">
        <ele>115</ele>
        <time>2017-07-30T06:32:12.313Z</time>
      </trkpt>
      <trkpt lat="47.80014" lon="2.13337">
        <ele>115</ele>
        <time>2017-07-30T06:32:13.343Z</time>
      </trkpt>
      <trkpt lat="47.80014" lon="2.13337">
        <ele>115</ele>
        <time>2017-07-30T06:32:14.331Z</time>
      </trkpt>
      <trkpt lat="47.8001" lon="2.1333">
        <ele>115</ele>
        <time>2017-07-30T06:32:15.322Z</time>
      </trkpt>
      <trkpt lat="47.8001" lon="2.1333">
        <ele>115</ele>
        <time>2017-07-30T06:32:16.312Z</time>
      </trkpt>
      <trkpt lat="47.80002" lon="2.13327">
        <ele>115</ele>
        <time>2017-07-30T06:32:17.343Z</time>
      </trkpt>
      <trkpt lat="47.79999" lon="2.13325">
        <ele>115</ele>
        <time>2017-07-30T06:32:18.340Z</time>
      </trkpt>
      <trkpt lat="47.79999" lon="2.13325">
        <ele>115</ele>
        <time>2017-07-30T06:32:19.329Z</time>
      </trkpt>
      <trkpt lat="47.79992" lon="2.1332">
        <ele>115</ele>
        <time>2017-07-30T06:32:20.324Z</time>
      </trkpt>
      <trkpt lat="47.79989" lon="2.13316">
        <ele>115</ele>
        <time>2017-07-30T06:32:21.313Z</time>
      </trkpt>
      <trkpt lat="47.79989" lon="2.13316">
        <ele>115</ele>
        <time>2017-07-30T06:32:22.342Z</time>
      </trkpt>
      <trkpt lat="47.79984" lon="2.13307">
        <ele>115</ele>
        <time>2017-07-30T06:32:23.343Z</time>
      </trkpt>
      <trkpt lat="47.79984" lon="2.13307">
        <ele>115</ele>
        <time>2017-07-30T06:32:24.339Z</time>
      </trkpt>
      <trkpt lat="47.79979" lon="2.13298">
        <ele>115</ele>
        <time>2017-07-30T06:32:25.334Z</time>
      </trkpt>
      <trkpt lat="47.79977" lon="2.13294">
        <ele>115</ele>
        <time>2017-07-30T06:32:26.324Z</time>
      </trkpt>
      <trkpt lat="47.79977" lon="2.13294">
        <ele>115</ele>
        <time>2017-07-30T06:32:27.323Z</time>
      </trkpt>
      <trkpt lat="47.79972" lon="2.13286">
        <ele>116</ele>
        <time>2017-07-30T06:32:28.347Z</time>
      </trkpt>
      <trkpt lat="47.7997" lon="2.13282">
        <ele>116</ele>
        <time>2017-07-30T06:32:29.350Z</time>
      </trkpt>
      <trkpt lat="47.7997" lon="2.13282">
        <ele>116</ele>
        <time>2017-07-30T06:32:30.339Z</time>
      </trkpt>
      <trkpt lat="47.79966" lon="2.13274">
        <ele>116</ele>
        <time>2017-07-30T06:32:31.314Z</time>
      </trkpt>
      <trkpt lat="47.79964" lon="2.1327">
        <ele>117</ele>
        <time>2017-07-30T06:32:32.343Z</time>
      </trkpt>
      <trkpt lat="47.79962" lon="2.13266">
        <ele>117</ele>
        <time>2017-07-30T06:32:33.340Z</time>
      </trkpt>
      <trkpt lat="47.79962" lon="2.13266">
        <ele>117</ele>
        <time>2017-07-30T06:32:34.329Z</time>
      </trkpt>
      <trkpt lat="47.79958" lon="2.13259">
        <ele>117</ele>
        <time>2017-07-30T06:32:35.342Z</time>
      </trkpt>
      <trkpt lat="47.79958" lon="2.13259">
        <ele>117</ele>
        <time>2017-07-30T06:32:36.331Z</time>
      </trkpt>
      <trkpt lat="47.79953" lon="2.13251">
        <ele>118</ele>
        <time>2017-07-30T06:32:37.327Z</time>
      </trkpt>
      <trkpt lat="47.79951" lon="2.13247">
        <ele>118</ele>
        <time>2017-07-30T06:32:38.350Z</time>
      </trkpt>
      <trkpt lat="47.79949" lon="2.13244">
        <ele>118</ele>
        <time>2017-07-30T06:32:39.334Z</time>
      </trkpt>
      <trkpt lat="47.79947" lon="2.1324">
        <ele>118</ele>
        <time>2017-07-30T06:32:40.324Z</time>
      </trkpt>
      <trkpt lat="47.79947" lon="2.1324">
        <ele>118</ele>
        <time>2017-07-30T06:32:41.312Z</time>
      </trkpt>
      <trkpt lat="47.79943" lon="2.13233">
        <ele>119</ele>
        <time>2017-07-30T06:32:42.316Z</time>
      </trkpt>
      <trkpt lat="47.79943" lon="2.13233">
        <ele>119</ele>
        <time>2017-07-30T06:32:43.346Z</time>
      </trkpt>
      <trkpt lat="47.79939" lon="2.13226">
        <ele>119</ele>
        <time>2017-07-30T06:32:44.338Z</time>
      </trkpt>
      <trkpt lat="47.79937" lon="2.13222">
        <ele>120</ele>
        <time>2017-07-30T06:32:45.343Z</time>
      </trkpt>
      <trkpt lat="47.79937" lon="2.13222">
        <ele>120</ele>
        <time>2017-07-30T06:32:46.336Z</time>
      </trkpt>
      <trkpt lat="47.79933" lon="2.13214">
        <ele>120</ele>
        <time>2017-07-30T06:32:47.342Z</time>
      </trkpt>
      <trkpt lat="47.79933" lon="2.13214">
        <ele>120</ele>
        <time>2017-07-30T06:32:48.345Z</time>
      </trkpt>
      <trkpt lat="47.79929" lon="2.13206">
        <ele>120</ele>
        <time>2017-07-30T06:32:49.337Z</time>
      </trkpt>
      <trkpt lat="47.79927" lon="2.13202">
        <ele>120</ele>
        <time>2017-07-30T06:32:50.335Z</time>
      </trkpt>
      <trkpt lat="47.79925" lon="2.13199">
        <ele>121</ele>
        <time>2017-07-30T06:32:51.324Z</time>
      </trkpt>
      <trkpt lat="47.79925" lon="2.13199">
        <ele>121</ele>
        <time>2017-07-30T06:32:52.316Z</time>
      </trkpt>
      <trkpt lat="47.79921" lon="2.13191">
        <ele>121</ele>
        <time>2017-07-30T06:32:53.346Z</time>
      </trkpt>
      <trkpt lat="47.79919" lon="2.13187">
        <ele>121</ele>
        <time>2017-07-30T06:32:54.319Z</time>
      </trkpt>
      <trkpt lat="47.79917" lon="2.13184">
        <ele>122</ele>
        <time>2017-07-30T06:32:55.311Z</time>
      </trkpt>
      <trkpt lat="47.79914" lon="2.1318">
        <ele>122</ele>
        <time>2017-07-30T06:32:56.342Z</time>
      </trkpt>
      <trkpt lat="47.79914" lon="2.1318">
        <ele>122</ele>
        <time>2017-07-30T06:32:57.332Z</time>
      </trkpt>
      <trkpt lat="47.7991" lon="2.13172">
        <ele>122</ele>
        <time>2017-07-30T06:32:58.312Z</time>
      </trkpt>
      <trkpt lat="47.7991" lon="2.13172">
        <ele>122</ele>
        <time>2017-07-30T06:32:59.342Z</time>
      </trkpt>
      <trkpt lat="47.79906" lon="2.13164">
        <ele>123</ele>
        <time>2017-07-30T06:33:00.344Z</time>
      </trkpt>
      <trkpt lat="47.79906" lon="2.13164">
        <ele>123</ele>
        <time>2017-07-30T06:33:01.332Z</time>
      </trkpt>
      <trkpt lat="47.79902" lon="2.13156">
        <ele>123</ele>
        <time>2017-07-30T06:33:02.334Z</time>
      </trkpt>
      <trkpt lat="47.799" lon="2.13152">
        <ele>123</ele>
        <time>2017-07-30T06:33:03.332Z</time>
      </trkpt>
      <trkpt lat="47.799" lon="2.13152">
        <ele>123</ele>
        <time>2017-07-30T06:33:04.324Z</time>
      </trkpt>
      <trkpt lat="47.79895" lon="2.13144">
        <ele>123</ele>
        <time>2017-07-30T06:33:05.314Z</time>
      </trkpt>
      <trkpt lat="47.79895" lon="2.13144">
        <ele>123</ele>
        <time>2017-07-30T06:33:06.345Z</time>
      </trkpt>
      <trkpt lat="47.79891" lon="2.13136">
        <ele>124</ele>
        <time>2017-07-30T06:33:07.343Z</time>
      </trkpt>
      <trkpt lat="47.79891" lon="2.13136">
        <ele>124</ele>
        <time>2017-07-30T06:33:08.345Z</time>
      </trkpt>
      <trkpt lat="47.79886" lon="2.13128">
        <ele>124</ele>
        <time>2017-07-30T06:33:09.340Z</time>
      </trkpt>
      <trkpt lat="47.79884" lon="2.13124">
        <ele>124</ele>
        <time>2017-07-30T06:33:10.330Z</time>
      </trkpt>
      <trkpt lat="47.79884" lon="2.13124">
        <ele>124</ele>
        <time>2017-07-30T06:33:11.321Z</time>
      </trkpt>
      <trkpt lat="47.7988" lon="2.13116">
        <ele>124</ele>
        <time>2017-07-30T06:33:12.350Z</time>
      </trkpt>
      <trkpt lat="47.7988" lon="2.13116">
        <ele>124</ele>
        <time>2017-07-30T06:33:13.339Z</time>
      </trkpt>
      <trkpt lat="47.79876" lon="2.13108">
        <ele>125</ele>
        <time>2017-07-30T06:33:14.328Z</time>
      </trkpt>
      <trkpt lat="47.79876" lon="2.13108">
        <ele>125</ele>
        <time>2017-07-30T06:33:15.317Z</time>
      </trkpt>
      <trkpt lat="47.79871" lon="2.131">
        <ele>125</ele>
        <time>2017-07-30T06:33:16.347Z</time>
      </trkpt>
      <trkpt lat="47.79871" lon="2.131">
        <ele>125</ele>
        <time>2017-07-30T06:33:17.339Z</time>
      </trkpt>
      <trkpt lat="47.79867" lon="2.13092">
        <ele>125</ele>
        <time>2017-07-30T06:33:18.345Z</time>
      </trkpt>
      <trkpt lat="47.79867" lon="2.13092">
        <ele>125</ele>
        <time>2017-07-30T06:33:19.339Z</time>
      </trkpt>
      <trkpt lat="47.79863" lon="2.13084">
        <ele>125</ele>
        <time>2017-07-30T06:33:20.342Z</time>
      </trkpt>
      <trkpt lat="47.7986" lon="2.1308">
        <ele>125</ele>
        <time>2017-07-30T06:33:21.332Z</time>
      </trkpt>
      <trkpt lat="47.79858" lon="2.13076">
        <ele>126</ele>
        <time>2017-07-30T06:33:22.322Z</time>
      </trkpt>
      <trkpt lat="47.79858" lon="2.13076">
        <ele>126</ele>
        <time>2017-07-30T06:33:23.325Z</time>
      </trkpt>
      <trkpt lat="47.79854" lon="2.13068">
        <ele>126</ele>
        <time>2017-07-30T06:33:24.334Z</time>
      </trkpt>
      <trkpt lat="47.79854" lon="2.13068">
        <ele>126</ele>
        <time>2017-07-30T06:33:25.325Z</time>
      </trkpt>
      <trkpt lat="47.7985" lon="2.13059">
        <ele>126</ele>
        <time>2017-07-30T06:33:26.315Z</time>
      </trkpt>
      <trkpt lat="47.7985" lon="2.13059">
        <ele>126</ele>
        <time>2017-07-30T06:33:27.345Z</time>
      </trkpt>
      <trkpt lat="47.79845" lon="2.1305">
        <ele>126</ele>
        <time>2017-07-30T06:33:28.346Z</time>
      </trkpt>
      <trkpt lat="47.79845" lon="2.1305">
        <ele>126</ele>
        <time>2017-07-30T06:33:29.339Z</time>
      </trkpt>
      <trkpt lat="47.79841" lon="2.1304">
        <ele>126</ele>
        <time>2017-07-30T06:33:30.341Z</time>
      </trkpt>
      <trkpt lat="47.79841" lon="2.1304">
        <ele>126</ele>
        <time>2017-07-30T06:33:31.330Z</time>
      </trkpt>
      <trkpt lat="47.79836" lon="2.13031">
        <ele>126</ele>
        <time>2017-07-30T06:33:32.324Z</time>
      </trkpt>
      <trkpt lat="47.79836" lon="2.13031">
        <ele>126</ele>
        <time>2017-07-30T06:33:33.317Z</time>
      </trkpt>
      <trkpt lat="47.79831" lon="2.13021">
        <ele>126</ele>
        <time>2017-07-30T06:33:34.345Z</time>
      </trkpt>
      <trkpt lat="47.79829" lon="2.13015">
        <ele>126</ele>
        <time>2017-07-30T06:33:35.339Z</time>
      </trkpt>
      <trkpt lat="47.79829" lon="2.13015">
        <ele>126</ele>
        <time>2017-07-30T06:33:36.329Z</time>
      </trkpt>
      <trkpt lat="47.79823" lon="2.13005">
        <ele>126</ele>
        <time>2017-07-30T06:33:37.324Z</time>
      </trkpt>
      <trkpt lat="47.79823" lon="2.13005">
        <ele>126</ele>
        <time>2017-07-30T06:33:38.325Z</time>
      </trkpt>
      <trkpt lat="47.79818" lon="2.12994">
        <ele>126</ele>
        <time>2017-07-30T06:33:39.314Z</time>
      </trkpt>
      <trkpt lat="47.79818" lon="2.12994">
        <ele>126</ele>
        <time>2017-07-30T06:33:40.346Z</time>
      </trkpt>
      <trkpt lat="47.79812" lon="2.12983">
        <ele>126</ele>
        <time>2017-07-30T06:33:41.338Z</time>
      </trkpt>
      <trkpt lat="47.79812" lon="2.12983">
        <ele>126</ele>
        <time>2017-07-30T06:33:42.328Z</time>
      </trkpt>
      <trkpt lat="47.79807" lon="2.12971">
        <ele>126</ele>
        <time>2017-07-30T06:33:43.320Z</time>
      </trkpt>
      <trkpt lat="47.79807" lon="2.12971">
        <ele>126</ele>
        <time>2017-07-30T06:33:44.317Z</time>
      </trkpt>
      <trkpt lat="47.79802" lon="2.1296">
        <ele>126</ele>
        <time>2017-07-30T06:33:45.348Z</time>
      </trkpt>
      <trkpt lat="47.79802" lon="2.1296">
        <ele>126</ele>
        <time>2017-07-30T06:33:46.338Z</time>
      </trkpt>
      <trkpt lat="47.79796" lon="2.12949">
        <ele>125</ele>
        <time>2017-07-30T06:33:47.330Z</time>
      </trkpt>
      <trkpt lat="47.79796" lon="2.12949">
        <ele>125</ele>
        <time>2017-07-30T06:33:48.341Z</time>
      </trkpt>
      <trkpt lat="47.7979" lon="2.12937">
        <ele>125</ele>
        <time>2017-07-30T06:33:49.341Z</time>
      </trkpt>
      <trkpt lat="47.79787" lon="2.12931">
        <ele>125</ele>
        <time>2017-07-30T06:33:50.341Z</time>
      </trkpt>
      <trkpt lat="47.79784" lon="2.12925">
        <ele>125</ele>
        <time>2017-07-30T06:33:51.334Z</time>
      </trkpt>
      <trkpt lat="47.79784" lon="2.12925">
        <ele>125</ele>
        <time>2017-07-30T06:33:52.324Z</time>
      </trkpt>
      <trkpt lat="47.79779" lon="2.12914">
        <ele>125</ele>
        <time>2017-07-30T06:33:53.317Z</time>
      </trkpt>
      <trkpt lat="47.79779" lon="2.12914">
        <ele>125</ele>
        <time>2017-07-30T06:33:54.349Z</time>
      </trkpt>
      <trkpt lat="47.79773" lon="2.12902">
        <ele>125</ele>
        <time>2017-07-30T06:33:55.348Z</time>
      </trkpt>
      <trkpt lat="47.79773" lon="2.12902">
        <ele>125</ele>
        <time>2017-07-30T06:33:56.339Z</time>
      </trkpt>
      <trkpt lat="47.79768" lon="2.12891">
        <ele>125</ele>
        <time>2017-07-30T06:33:57.335Z</time>
      </trkpt>
      <trkpt lat="47.79768" lon="2.12891">
        <ele>125</ele>
        <time>2017-07-30T06:33:58.325Z</time>
      </trkpt>
      <trkpt lat="47.79762" lon="2.12879">
        <ele>124</ele>
        <time>2017-07-30T06:33:59.315Z</time>
      </trkpt>
      <trkpt lat="47.79759" lon="2.12873">
        <ele>124</ele>
        <time>2017-07-30T06:34:00.312Z</time>
      </trkpt>
      <trkpt lat="47.79759" lon="2.12873">
        <ele>124</ele>
        <time>2017-07-30T06:34:01.339Z</time>
      </trkpt>
      <trkpt lat="47.79754" lon="2.12861">
        <ele>124</ele>
        <time>2017-07-30T06:34:02.343Z</time>
      </trkpt>
      <trkpt lat="47.79751" lon="2.12855">
        <ele>124</ele>
        <time>2017-07-30T06:34:03.340Z</time>
      </trkpt>
      <trkpt lat="47.79751" lon="2.12855">
        <ele>124</ele>
        <time>2017-07-30T06:34:04.331Z</time>
      </trkpt>
      <trkpt lat="47.79744" lon="2.12842">
        <ele>123</ele>
        <time>2017-07-30T06:34:05.321Z</time>
      </trkpt>
      <trkpt lat="47.79744" lon="2.12842">
        <ele>123</ele>
        <time>2017-07-30T06:34:06.349Z</time>
      </trkpt>
      <trkpt lat="47.79739" lon="2.12829">
        <ele>123</ele>
        <time>2017-07-30T06:34:07.339Z</time>
      </trkpt>
      <trkpt lat="47.79739" lon="2.12829">
        <ele>123</ele>
        <time>2017-07-30T06:34:08.322Z</time>
      </trkpt>
      <trkpt lat="47.79733" lon="2.12816">
        <ele>123</ele>
        <time>2017-07-30T06:34:09.350Z</time>
      </trkpt>
      <trkpt lat="47.79733" lon="2.12816">
        <ele>123</ele>
        <time>2017-07-30T06:34:10.339Z</time>
      </trkpt>
      <trkpt lat="47.79727" lon="2.12804">
        <ele>122</ele>
        <time>2017-07-30T06:34:11.329Z</time>
      </trkpt>
      <trkpt lat="47.79727" lon="2.12804">
        <ele>122</ele>
        <time>2017-07-30T06:34:12.319Z</time>
      </trkpt>
      <trkpt lat="47.79721" lon="2.12792">
        <ele>122</ele>
        <time>2017-07-30T06:34:13.351Z</time>
      </trkpt>
      <trkpt lat="47.79721" lon="2.12792">
        <ele>122</ele>
        <time>2017-07-30T06:34:14.340Z</time>
      </trkpt>
      <trkpt lat="47.79715" lon="2.1278">
        <ele>122</ele>
        <time>2017-07-30T06:34:15.333Z</time>
      </trkpt>
      <trkpt lat="47.79712" lon="2.12774">
        <ele>122</ele>
        <time>2017-07-30T06:34:16.341Z</time>
      </trkpt>
      <trkpt lat="47.79712" lon="2.12774">
        <ele>122</ele>
        <time>2017-07-30T06:34:17.329Z</time>
      </trkpt>
      <trkpt lat="47.79706" lon="2.12761">
        <ele>122</ele>
        <time>2017-07-30T06:34:18.331Z</time>
      </trkpt>
      <trkpt lat="47.79706" lon="2.12761">
        <ele>122</ele>
        <time>2017-07-30T06:34:19.342Z</time>
      </trkpt>
      <trkpt lat="47.79699" lon="2.12748">
        <ele>121</ele>
        <time>2017-07-30T06:34:20.339Z</time>
      </trkpt>
      <trkpt lat="47.79699" lon="2.12748">
        <ele>121</ele>
        <time>2017-07-30T06:34:21.331Z</time>
      </trkpt>
      <trkpt lat="47.79693" lon="2.12735">
        <ele>121</ele>
        <time>2017-07-30T06:34:22.334Z</time>
      </trkpt>
      <trkpt lat="47.79693" lon="2.12735">
        <ele>121</ele>
        <time>2017-07-30T06:34:23.324Z</time>
      </trkpt>
      <trkpt lat="47.79687" lon="2.12723">
        <ele>121</ele>
        <time>2017-07-30T06:34:24.346Z</time>
      </trkpt>
      <trkpt lat="47.79687" lon="2.12723">
        <ele>121</ele>
        <time>2017-07-30T06:34:25.340Z</time>
      </trkpt>
      <trkpt lat="47.79681" lon="2.12712">
        <ele>121</ele>
        <time>2017-07-30T06:34:26.337Z</time>
      </trkpt>
      <trkpt lat="47.79678" lon="2.12706">
        <ele>121</ele>
        <time>2017-07-30T06:34:27.345Z</time>
      </trkpt>
      <trkpt lat="47.79678" lon="2.12706">
        <ele>121</ele>
        <time>2017-07-30T06:34:28.317Z</time>
      </trkpt>
      <trkpt lat="47.79672" lon="2.12694">
        <ele>121</ele>
        <time>2017-07-30T06:34:29.323Z</time>
      </trkpt>
      <trkpt lat="47.7967" lon="2.12688">
        <ele>121</ele>
        <time>2017-07-30T06:34:30.311Z</time>
      </trkpt>
      <trkpt lat="47.79667" lon="2.12682">
        <ele>121</ele>
        <time>2017-07-30T06:34:31.322Z</time>
      </trkpt>
      <trkpt lat="47.79664" lon="2.12676">
        <ele>121</ele>
        <time>2017-07-30T06:34:32.317Z</time>
      </trkpt>
      <trkpt lat="47.79664" lon="2.12676">
        <ele>121</ele>
        <time>2017-07-30T06:34:33.345Z</time>
      </trkpt>
      <trkpt lat="47.79659" lon="2.12664">
        <ele>121</ele>
        <time>2017-07-30T06:34:34.346Z</time>
      </trkpt>
      <trkpt lat="47.79659" lon="2.12664">
        <ele>121</ele>
        <time>2017-07-30T06:34:35.323Z</time>
      </trkpt>
      <trkpt lat="47.79654" lon="2.12652">
        <ele>121</ele>
        <time>2017-07-30T06:34:36.314Z</time>
      </trkpt>
      <trkpt lat="47.79654" lon="2.12652">
        <ele>121</ele>
        <time>2017-07-30T06:34:37.345Z</time>
      </trkpt>
      <trkpt lat="47.79648" lon="2.1264">
        <ele>121</ele>
        <time>2017-07-30T06:34:38.347Z</time>
      </trkpt>
      <trkpt lat="47.79645" lon="2.12634">
        <ele>121</ele>
        <time>2017-07-30T06:34:39.347Z</time>
      </trkpt>
      <trkpt lat="47.79645" lon="2.12634">
        <ele>121</ele>
        <time>2017-07-30T06:34:40.314Z</time>
      </trkpt>
      <trkpt lat="47.79639" lon="2.12622">
        <ele>121</ele>
        <time>2017-07-30T06:34:41.321Z</time>
      </trkpt>
      <trkpt lat="47.79639" lon="2.12622">
        <ele>121</ele>
        <time>2017-07-30T06:34:42.330Z</time>
      </trkpt>
      <trkpt lat="47.79633" lon="2.1261">
        <ele>121</ele>
        <time>2017-07-30T06:34:43.339Z</time>
      </trkpt>
      <trkpt lat="47.7963" lon="2.12604">
        <ele>121</ele>
        <time>2017-07-30T06:34:44.342Z</time>
      </trkpt>
      <trkpt lat="47.79627" lon="2.12597">
        <ele>121</ele>
        <time>2017-07-30T06:34:45.341Z</time>
      </trkpt>
      <trkpt lat="47.79624" lon="2.12591">
        <ele>121</ele>
        <time>2017-07-30T06:34:46.334Z</time>
      </trkpt>
      <trkpt lat="47.79621" lon="2.12585">
        <ele>121</ele>
        <time>2017-07-30T06:34:47.325Z</time>
      </trkpt>
      <trkpt lat="47.79621" lon="2.12585">
        <ele>121</ele>
        <time>2017-07-30T06:34:48.324Z</time>
      </trkpt>
      <trkpt lat="47.79615" lon="2.12572">
        <ele>121</ele>
        <time>2017-07-30T06:34:49.323Z</time>
      </trkpt>
      <trkpt lat="47.79615" lon="2.12572">
        <ele>121</ele>
        <time>2017-07-30T06:34:50.311Z</time>
      </trkpt>
      <trkpt lat="47.79609" lon="2.1256">
        <ele>121</ele>
        <time>2017-07-30T06:34:51.342Z</time>
      </trkpt>
      <trkpt lat="47.79609" lon="2.1256">
        <ele>121</ele>
        <time>2017-07-30T06:34:52.332Z</time>
      </trkpt>
      <trkpt lat="47.79603" lon="2.12548">
        <ele>121</ele>
        <time>2017-07-30T06:34:53.323Z</time>
      </trkpt>
      <trkpt lat="47.796" lon="2.12542">
        <ele>121</ele>
        <time>2017-07-30T06:34:54.311Z</time>
      </trkpt>
      <trkpt lat="47.796" lon="2.12542">
        <ele>121</ele>
        <time>2017-07-30T06:34:55.339Z</time>
      </trkpt>
      <trkpt lat="47.79595" lon="2.12529">
        <ele>121</ele>
        <time>2017-07-30T06:34:56.335Z</time>
      </trkpt>
      <trkpt lat="47.79592" lon="2.12523">
        <ele>121</ele>
        <time>2017-07-30T06:34:57.324Z</time>
      </trkpt>
      <trkpt lat="47.79592" lon="2.12523">
        <ele>121</ele>
        <time>2017-07-30T06:34:58.312Z</time>
      </trkpt>
      <trkpt lat="47.79587" lon="2.1251">
        <ele>122</ele>
        <time>2017-07-30T06:34:59.348Z</time>
      </trkpt>
      <trkpt lat="47.79587" lon="2.1251">
        <ele>122</ele>
        <time>2017-07-30T06:35:00.343Z</time>
      </trkpt>
      <trkpt lat="47.79582" lon="2.12497">
        <ele>122</ele>
        <time>2017-07-30T06:35:01.341Z</time>
      </trkpt>
      <trkpt lat="47.7958" lon="2.12491">
        <ele>122</ele>
        <time>2017-07-30T06:35:02.333Z</time>
      </trkpt>
      <trkpt lat="47.79578" lon="2.12484">
        <ele>122</ele>
        <time>2017-07-30T06:35:03.313Z</time>
      </trkpt>
      <trkpt lat="47.79578" lon="2.12484">
        <ele>122</ele>
        <time>2017-07-30T06:35:04.342Z</time>
      </trkpt>
      <trkpt lat="47.79574" lon="2.1247">
        <ele>122</ele>
        <time>2017-07-30T06:35:05.343Z</time>
      </trkpt>
      <trkpt lat="47.79574" lon="2.1247">
        <ele>122</ele>
        <time>2017-07-30T06:35:06.335Z</time>
      </trkpt>
      <trkpt lat="47.7957" lon="2.12455">
        <ele>122</ele>
        <time>2017-07-30T06:35:07.330Z</time>
      </trkpt>
      <trkpt lat="47.7957" lon="2.12455">
        <ele>122</ele>
        <time>2017-07-30T06:35:08.330Z</time>
      </trkpt>
      <trkpt lat="47.79565" lon="2.12441">
        <ele>122</ele>
        <time>2017-07-30T06:35:09.323Z</time>
      </trkpt>
      <trkpt lat="47.79565" lon="2.12441">
        <ele>122</ele>
        <time>2017-07-30T06:35:10.311Z</time>
      </trkpt>
      <trkpt lat="47.79562" lon="2.12427">
        <ele>122</ele>
        <time>2017-07-30T06:35:11.342Z</time>
      </trkpt>
      <trkpt lat="47.7956" lon="2.12421">
        <ele>122</ele>
        <time>2017-07-30T06:35:12.339Z</time>
      </trkpt>
      <trkpt lat="47.7956" lon="2.12421">
        <ele>122</ele>
        <time>2017-07-30T06:35:13.330Z</time>
      </trkpt>
      <trkpt lat="47.79556" lon="2.12408">
        <ele>122</ele>
        <time>2017-07-30T06:35:14.320Z</time>
      </trkpt>
      <trkpt lat="47.79554" lon="2.12402">
        <ele>122</ele>
        <time>2017-07-30T06:35:15.349Z</time>
      </trkpt>
      <trkpt lat="47.79554" lon="2.12402">
        <ele>122</ele>
        <time>2017-07-30T06:35:16.339Z</time>
      </trkpt>
      <trkpt lat="47.79551" lon="2.12389">
        <ele>122</ele>
        <time>2017-07-30T06:35:17.340Z</time>
      </trkpt>
      <trkpt lat="47.79551" lon="2.12389">
        <ele>122</ele>
        <time>2017-07-30T06:35:18.344Z</time>
      </trkpt>
      <trkpt lat="47.79547" lon="2.12375">
        <ele>122</ele>
        <time>2017-07-30T06:35:19.343Z</time>
      </trkpt>
      <trkpt lat="47.79547" lon="2.12375">
        <ele>122</ele>
        <time>2017-07-30T06:35:20.332Z</time>
      </trkpt>
      <trkpt lat="47.79543" lon="2.12361">
        <ele>122</ele>
        <time>2017-07-30T06:35:21.325Z</time>
      </trkpt>
      <trkpt lat="47.79543" lon="2.12361">
        <ele>122</ele>
        <time>2017-07-30T06:35:22.313Z</time>
      </trkpt>
      <trkpt lat="47.79538" lon="2.12346">
        <ele>122</ele>
        <time>2017-07-30T06:35:23.342Z</time>
      </trkpt>
      <trkpt lat="47.79536" lon="2.12338">
        <ele>122</ele>
        <time>2017-07-30T06:35:24.336Z</time>
      </trkpt>
      <trkpt lat="47.79534" lon="2.1233">
        <ele>122</ele>
        <time>2017-07-30T06:35:25.326Z</time>
      </trkpt>
      <trkpt lat="47.79534" lon="2.1233">
        <ele>122</ele>
        <time>2017-07-30T06:35:26.314Z</time>
      </trkpt>
      <trkpt lat="47.79529" lon="2.12314">
        <ele>122</ele>
        <time>2017-07-30T06:35:27.345Z</time>
      </trkpt>
      <trkpt lat="47.79527" lon="2.12306">
        <ele>122</ele>
        <time>2017-07-30T06:35:28.346Z</time>
      </trkpt>
      <trkpt lat="47.79527" lon="2.12306">
        <ele>122</ele>
        <time>2017-07-30T06:35:29.338Z</time>
      </trkpt>
      <trkpt lat="47.79522" lon="2.1229">
        <ele>122</ele>
        <time>2017-07-30T06:35:30.337Z</time>
      </trkpt>
      <trkpt lat="47.79522" lon="2.1229">
        <ele>122</ele>
        <time>2017-07-30T06:35:31.326Z</time>
      </trkpt>
      <trkpt lat="47.79518" lon="2.12274">
        <ele>122</ele>
        <time>2017-07-30T06:35:32.314Z</time>
      </trkpt>
      <trkpt lat="47.79516" lon="2.12266">
        <ele>122</ele>
        <time>2017-07-30T06:35:33.344Z</time>
      </trkpt>
      <trkpt lat="47.79516" lon="2.12266">
        <ele>122</ele>
        <time>2017-07-30T06:35:34.333Z</time>
      </trkpt>
      <trkpt lat="47.79512" lon="2.1225">
        <ele>123</ele>
        <time>2017-07-30T06:35:35.322Z</time>
      </trkpt>
      <trkpt lat="47.7951" lon="2.12243">
        <ele>123</ele>
        <time>2017-07-30T06:35:36.350Z</time>
      </trkpt>
      <trkpt lat="47.7951" lon="2.12243">
        <ele>123</ele>
        <time>2017-07-30T06:35:37.339Z</time>
      </trkpt>
      <trkpt lat="47.79506" lon="2.12227">
        <ele>123</ele>
        <time>2017-07-30T06:35:38.347Z</time>
      </trkpt>
      <trkpt lat="47.79506" lon="2.12227">
        <ele>123</ele>
        <time>2017-07-30T06:35:39.340Z</time>
      </trkpt>
      <trkpt lat="47.79502" lon="2.12212">
        <ele>124</ele>
        <time>2017-07-30T06:35:40.339Z</time>
      </trkpt>
      <trkpt lat="47.79502" lon="2.12212">
        <ele>124</ele>
        <time>2017-07-30T06:35:41.327Z</time>
      </trkpt>
      <trkpt lat="47.79499" lon="2.12197">
        <ele>124</ele>
        <time>2017-07-30T06:35:42.315Z</time>
      </trkpt>
      <trkpt lat="47.79499" lon="2.12197">
        <ele>124</ele>
        <time>2017-07-30T06:35:43.343Z</time>
      </trkpt>
      <trkpt lat="47.79494" lon="2.1218">
        <ele>125</ele>
        <time>2017-07-30T06:35:44.335Z</time>
      </trkpt>
      <trkpt lat="47.79492" lon="2.12172">
        <ele>125</ele>
        <time>2017-07-30T06:35:45.326Z</time>
      </trkpt>
      <trkpt lat="47.79492" lon="2.12172">
        <ele>125</ele>
        <time>2017-07-30T06:35:46.332Z</time>
      </trkpt>
      <trkpt lat="47.79488" lon="2.12156">
        <ele>126</ele>
        <time>2017-07-30T06:35:47.333Z</time>
      </trkpt>
      <trkpt lat="47.79485" lon="2.12149">
        <ele>126</ele>
        <time>2017-07-30T06:35:48.329Z</time>
      </trkpt>
      <trkpt lat="47.79485" lon="2.12149">
        <ele>126</ele>
        <time>2017-07-30T06:35:49.335Z</time>
      </trkpt>
      <trkpt lat="47.7948" lon="2.12132">
        <ele>126</ele>
        <time>2017-07-30T06:35:50.339Z</time>
      </trkpt>
      <trkpt lat="47.79477" lon="2.12124">
        <ele>126</ele>
        <time>2017-07-30T06:35:51.342Z</time>
      </trkpt>
      <trkpt lat="47.79477" lon="2.12124">
        <ele>126</ele>
        <time>2017-07-30T06:35:52.332Z</time>
      </trkpt>
      <trkpt lat="47.79472" lon="2.12107">
        <ele>127</ele>
        <time>2017-07-30T06:35:53.322Z</time>
      </trkpt>
      <trkpt lat="47.79472" lon="2.12107">
        <ele>127</ele>
        <time>2017-07-30T06:35:54.311Z</time>
      </trkpt>
      <trkpt lat="47.79467" lon="2.1209">
        <ele>127</ele>
        <time>2017-07-30T06:35:55.341Z</time>
      </trkpt>
      <trkpt lat="47.79467" lon="2.1209">
        <ele>127</ele>
        <time>2017-07-30T06:35:56.331Z</time>
      </trkpt>
      <trkpt lat="47.79463" lon="2.12072">
        <ele>126</ele>
        <time>2017-07-30T06:35:57.321Z</time>
      </trkpt>
      <trkpt lat="47.7946" lon="2.12063">
        <ele>126</ele>
        <time>2017-07-30T06:35:58.350Z</time>
      </trkpt>
      <trkpt lat="47.7946" lon="2.12063">
        <ele>126</ele>
        <time>2017-07-30T06:35:59.340Z</time>
      </trkpt>
      <trkpt lat="47.79455" lon="2.12045">
        <ele>127</ele>
        <time>2017-07-30T06:36:00.342Z</time>
      </trkpt>
      <trkpt lat="47.79455" lon="2.12045">
        <ele>127</ele>
        <time>2017-07-30T06:36:01.332Z</time>
      </trkpt>
      <trkpt lat="47.79451" lon="2.12026">
        <ele>127</ele>
        <time>2017-07-30T06:36:02.322Z</time>
      </trkpt>
      <trkpt lat="47.79451" lon="2.12026">
        <ele>127</ele>
        <time>2017-07-30T06:36:03.311Z</time>
      </trkpt>
      <trkpt lat="47.79446" lon="2.12008">
        <ele>127</ele>
        <time>2017-07-30T06:36:04.341Z</time>
      </trkpt>
      <trkpt lat="47.79443" lon="2.11998">
        <ele>127</ele>
        <time>2017-07-30T06:36:05.331Z</time>
      </trkpt>
      <trkpt lat="47.79443" lon="2.11998">
        <ele>127</ele>
        <time>2017-07-30T06:36:06.320Z</time>
      </trkpt>
      <trkpt lat="47.79437" lon="2.11979">
        <ele>128</ele>
        <time>2017-07-30T06:36:07.349Z</time>
      </trkpt>
      <trkpt lat="47.79433" lon="2.1197">
        <ele>128</ele>
        <time>2017-07-30T06:36:08.345Z</time>
      </trkpt>
      <trkpt lat="47.79433" lon="2.1197">
        <ele>128</ele>
        <time>2017-07-30T06:36:09.335Z</time>
      </trkpt>
      <trkpt lat="47.79425" lon="2.11952">
        <ele>128</ele>
        <time>2017-07-30T06:36:10.328Z</time>
      </trkpt>
      <trkpt lat="47.79422" lon="2.11943">
        <ele>128</ele>
        <time>2017-07-30T06:36:11.336Z</time>
      </trkpt>
      <trkpt lat="47.79419" lon="2.11934">
        <ele>128</ele>
        <time>2017-07-30T06:36:12.327Z</time>
      </trkpt>
      <trkpt lat="47.79419" lon="2.11934">
        <ele>128</ele>
        <time>2017-07-30T06:36:13.342Z</time>
      </trkpt>
      <trkpt lat="47.79412" lon="2.11916">
        <ele>128</ele>
        <time>2017-07-30T06:36:14.334Z</time>
      </trkpt>
      <trkpt lat="47.79409" lon="2.11907">
        <ele>128</ele>
        <time>2017-07-30T06:36:15.345Z</time>
      </trkpt>
      <trkpt lat="47.79409" lon="2.11907">
        <ele>128</ele>
        <time>2017-07-30T06:36:16.335Z</time>
      </trkpt>
      <trkpt lat="47.794" lon="2.11888">
        <ele>128</ele>
        <time>2017-07-30T06:36:17.332Z</time>
      </trkpt>
      <trkpt lat="47.794" lon="2.11888">
        <ele>128</ele>
        <time>2017-07-30T06:36:18.323Z</time>
      </trkpt>
      <trkpt lat="47.79394" lon="2.11871">
        <ele>128</ele>
        <time>2017-07-30T06:36:19.335Z</time>
      </trkpt>
      <trkpt lat="47.7939" lon="2.11863">
        <ele>128</ele>
        <time>2017-07-30T06:36:20.333Z</time>
      </trkpt>
      <trkpt lat="47.79387" lon="2.11854">
        <ele>128</ele>
        <time>2017-07-30T06:36:21.326Z</time>
      </trkpt>
      <trkpt lat="47.79387" lon="2.11854">
        <ele>128</ele>
        <time>2017-07-30T06:36:22.314Z</time>
      </trkpt>
      <trkpt lat="47.79381" lon="2.11835">
        <ele>128</ele>
        <time>2017-07-30T06:36:23.343Z</time>
      </trkpt>
      <trkpt lat="47.79381" lon="2.11835">
        <ele>128</ele>
        <time>2017-07-30T06:36:24.319Z</time>
      </trkpt>
      <trkpt lat="47.79374" lon="2.11818">
        <ele>127</ele>
        <time>2017-07-30T06:36:25.348Z</time>
      </trkpt>
      <trkpt lat="47.79374" lon="2.11818">
        <ele>127</ele>
        <time>2017-07-30T06:36:26.339Z</time>
      </trkpt>
      <trkpt lat="47.79367" lon="2.11802">
        <ele>127</ele>
        <time>2017-07-30T06:36:27.335Z</time>
      </trkpt>
      <trkpt lat="47.79367" lon="2.11802">
        <ele>127</ele>
        <time>2017-07-30T06:36:28.324Z</time>
      </trkpt>
      <trkpt lat="47.79359" lon="2.11785">
        <ele>127</ele>
        <time>2017-07-30T06:36:29.322Z</time>
      </trkpt>
      <trkpt lat="47.79359" lon="2.11785">
        <ele>127</ele>
        <time>2017-07-30T06:36:30.321Z</time>
      </trkpt>
      <trkpt lat="47.79354" lon="2.1177">
        <ele>127</ele>
        <time>2017-07-30T06:36:31.350Z</time>
      </trkpt>
      <trkpt lat="47.79354" lon="2.1177">
        <ele>127</ele>
        <time>2017-07-30T06:36:32.342Z</time>
      </trkpt>
      <trkpt lat="47.79348" lon="2.11757">
        <ele>127</ele>
        <time>2017-07-30T06:36:33.341Z</time>
      </trkpt>
      <trkpt lat="47.79345" lon="2.11751">
        <ele>126</ele>
        <time>2017-07-30T06:36:34.339Z</time>
      </trkpt>
      <trkpt lat="47.79345" lon="2.11751">
        <ele>126</ele>
        <time>2017-07-30T06:36:35.329Z</time>
      </trkpt>
      <trkpt lat="47.79338" lon="2.11735">
        <ele>126</ele>
        <time>2017-07-30T06:36:36.323Z</time>
      </trkpt>
      <trkpt lat="47.79335" lon="2.11727">
        <ele>126</ele>
        <time>2017-07-30T06:36:37.311Z</time>
      </trkpt>
      <trkpt lat="47.79335" lon="2.11727">
        <ele>126</ele>
        <time>2017-07-30T06:36:38.345Z</time>
      </trkpt>
      <trkpt lat="47.7933" lon="2.11711">
        <ele>127</ele>
        <time>2017-07-30T06:36:39.335Z</time>
      </trkpt>
      <trkpt lat="47.79327" lon="2.11704">
        <ele>127</ele>
        <time>2017-07-30T06:36:40.324Z</time>
      </trkpt>
      <trkpt lat="47.79327" lon="2.11704">
        <ele>127</ele>
        <time>2017-07-30T06:36:41.312Z</time>
      </trkpt>
      <trkpt lat="47.79321" lon="2.11688">
        <ele>127</ele>
        <time>2017-07-30T06:36:42.341Z</time>
      </trkpt>
      <trkpt lat="47.79321" lon="2.11688">
        <ele>127</ele>
        <time>2017-07-30T06:36:43.331Z</time>
      </trkpt>
      <trkpt lat="47.79315" lon="2.11671">
        <ele>127</ele>
        <time>2017-07-30T06:36:44.320Z</time>
      </trkpt>
      <trkpt lat="47.79312" lon="2.11663">
        <ele>127</ele>
        <time>2017-07-30T06:36:45.349Z</time>
      </trkpt>
      <trkpt lat="47.79312" lon="2.11663">
        <ele>127</ele>
        <time>2017-07-30T06:36:46.339Z</time>
      </trkpt>
      <trkpt lat="47.79307" lon="2.11648">
        <ele>127</ele>
        <time>2017-07-30T06:36:47.340Z</time>
      </trkpt>
      <trkpt lat="47.79307" lon="2.11648">
        <ele>127</ele>
        <time>2017-07-30T06:36:48.332Z</time>
      </trkpt>
      <trkpt lat="47.79301" lon="2.11632">
        <ele>127</ele>
        <time>2017-07-30T06:36:49.320Z</time>
      </trkpt>
      <trkpt lat="47.79298" lon="2.11624">
        <ele>126</ele>
        <time>2017-07-30T06:36:50.313Z</time>
      </trkpt>
      <trkpt lat="47.79295" lon="2.11616">
        <ele>126</ele>
        <time>2017-07-30T06:36:51.343Z</time>
      </trkpt>
      <trkpt lat="47.79295" lon="2.11616">
        <ele>126</ele>
        <time>2017-07-30T06:36:52.336Z</time>
      </trkpt>
      <trkpt lat="47.79288" lon="2.11601">
        <ele>127</ele>
        <time>2017-07-30T06:36:53.320Z</time>
      </trkpt>
      <trkpt lat="47.79288" lon="2.11601">
        <ele>127</ele>
        <time>2017-07-30T06:36:54.349Z</time>
      </trkpt>
      <trkpt lat="47.79283" lon="2.11586">
        <ele>127</ele>
        <time>2017-07-30T06:36:55.345Z</time>
      </trkpt>
      <trkpt lat="47.79283" lon="2.11586">
        <ele>127</ele>
        <time>2017-07-30T06:36:56.334Z</time>
      </trkpt>
      <trkpt lat="47.79277" lon="2.11571">
        <ele>126</ele>
        <time>2017-07-30T06:36:57.324Z</time>
      </trkpt>
      <trkpt lat="47.79274" lon="2.11563">
        <ele>126</ele>
        <time>2017-07-30T06:36:58.317Z</time>
      </trkpt>
      <trkpt lat="47.79274" lon="2.11563">
        <ele>126</ele>
        <time>2017-07-30T06:36:59.345Z</time>
      </trkpt>
      <trkpt lat="47.79266" lon="2.11543">
        <ele>127</ele>
        <time>2017-07-30T06:37:00.350Z</time>
      </trkpt>
      <trkpt lat="47.79266" lon="2.11543">
        <ele>127</ele>
        <time>2017-07-30T06:37:01.338Z</time>
      </trkpt>
      <trkpt lat="47.79259" lon="2.11527">
        <ele>129</ele>
        <time>2017-07-30T06:37:02.328Z</time>
      </trkpt>
      <trkpt lat="47.79259" lon="2.11527">
        <ele>129</ele>
        <time>2017-07-30T06:37:03.316Z</time>
      </trkpt>
      <trkpt lat="47.79251" lon="2.11513">
        <ele>130</ele>
        <time>2017-07-30T06:37:04.346Z</time>
      </trkpt>
      <trkpt lat="47.79251" lon="2.11513">
        <ele>130</ele>
        <time>2017-07-30T06:37:05.334Z</time>
      </trkpt>
      <trkpt lat="47.79245" lon="2.11499">
        <ele>130</ele>
        <time>2017-07-30T06:37:06.324Z</time>
      </trkpt>
      <trkpt lat="47.79245" lon="2.11499">
        <ele>130</ele>
        <time>2017-07-30T06:37:07.338Z</time>
      </trkpt>
      <trkpt lat="47.79239" lon="2.11485">
        <ele>130</ele>
        <time>2017-07-30T06:37:08.331Z</time>
      </trkpt>
      <trkpt lat="47.79236" lon="2.11477">
        <ele>130</ele>
        <time>2017-07-30T06:37:09.325Z</time>
      </trkpt>
      <trkpt lat="47.79236" lon="2.11477">
        <ele>130</ele>
        <time>2017-07-30T06:37:10.327Z</time>
      </trkpt>
      <trkpt lat="47.79229" lon="2.11463">
        <ele>130</ele>
        <time>2017-07-30T06:37:11.316Z</time>
      </trkpt>
      <trkpt lat="47.79226" lon="2.11455">
        <ele>130</ele>
        <time>2017-07-30T06:37:12.345Z</time>
      </trkpt>
      <trkpt lat="47.79226" lon="2.11455">
        <ele>130</ele>
        <time>2017-07-30T06:37:13.336Z</time>
      </trkpt>
      <trkpt lat="47.79221" lon="2.11441">
        <ele>130</ele>
        <time>2017-07-30T06:37:14.327Z</time>
      </trkpt>
      <trkpt lat="47.79221" lon="2.11441">
        <ele>130</ele>
        <time>2017-07-30T06:37:15.315Z</time>
      </trkpt>
      <trkpt lat="47.79215" lon="2.11426">
        <ele>130</ele>
        <time>2017-07-30T06:37:16.347Z</time>
      </trkpt>
      <trkpt lat="47.79215" lon="2.11426">
        <ele>130</ele>
        <time>2017-07-30T06:37:17.335Z</time>
      </trkpt>
      <trkpt lat="47.79209" lon="2.11412">
        <ele>130</ele>
        <time>2017-07-30T06:37:18.341Z</time>
      </trkpt>
      <trkpt lat="47.79209" lon="2.11412">
        <ele>130</ele>
        <time>2017-07-30T06:37:19.335Z</time>
      </trkpt>
      <trkpt lat="47.79204" lon="2.11398">
        <ele>130</ele>
        <time>2017-07-30T06:37:20.351Z</time>
      </trkpt>
      <trkpt lat="47.79204" lon="2.11398">
        <ele>130</ele>
        <time>2017-07-30T06:37:21.343Z</time>
      </trkpt>
      <trkpt lat="47.79199" lon="2.11384">
        <ele>130</ele>
        <time>2017-07-30T06:37:22.336Z</time>
      </trkpt>
      <trkpt lat="47.79197" lon="2.11377">
        <ele>130</ele>
        <time>2017-07-30T06:37:23.330Z</time>
      </trkpt>
      <trkpt lat="47.79197" lon="2.11377">
        <ele>130</ele>
        <time>2017-07-30T06:37:24.344Z</time>
      </trkpt>
      <trkpt lat="47.79192" lon="2.11362">
        <ele>130</ele>
        <time>2017-07-30T06:37:25.340Z</time>
      </trkpt>
      <trkpt lat="47.79189" lon="2.11355">
        <ele>130</ele>
        <time>2017-07-30T06:37:26.340Z</time>
      </trkpt>
      <trkpt lat="47.79187" lon="2.11348">
        <ele>130</ele>
        <time>2017-07-30T06:37:27.328Z</time>
      </trkpt>
      <trkpt lat="47.79187" lon="2.11348">
        <ele>130</ele>
        <time>2017-07-30T06:37:28.318Z</time>
      </trkpt>
      <trkpt lat="47.79182" lon="2.11333">
        <ele>130</ele>
        <time>2017-07-30T06:37:29.346Z</time>
      </trkpt>
      <trkpt lat="47.7918" lon="2.11325">
        <ele>130</ele>
        <time>2017-07-30T06:37:30.340Z</time>
      </trkpt>
      <trkpt lat="47.79178" lon="2.11318">
        <ele>130</ele>
        <time>2017-07-30T06:37:31.312Z</time>
      </trkpt>
      <trkpt lat="47.79178" lon="2.11318">
        <ele>130</ele>
        <time>2017-07-30T06:37:32.341Z</time>
      </trkpt>
      <trkpt lat="47.79174" lon="2.11302">
        <ele>130</ele>
        <time>2017-07-30T06:37:33.343Z</time>
      </trkpt>
      <trkpt lat="47.79174" lon="2.11302">
        <ele>130</ele>
        <time>2017-07-30T06:37:34.333Z</time>
      </trkpt>
      <trkpt lat="47.79172" lon="2.11287">
        <ele>130</ele>
        <time>2017-07-30T06:37:35.325Z</time>
      </trkpt>
      <trkpt lat="47.79172" lon="2.11287">
        <ele>130</ele>
        <time>2017-07-30T06:37:36.316Z</time>
      </trkpt>
      <trkpt lat="47.7917" lon="2.1127">
        <ele>130</ele>
        <time>2017-07-30T06:37:37.346Z</time>
      </trkpt>
      <trkpt lat="47.79169" lon="2.11262">
        <ele>130</ele>
        <time>2017-07-30T06:37:38.342Z</time>
      </trkpt>
      <trkpt lat="47.79169" lon="2.11254">
        <ele>130</ele>
        <time>2017-07-30T06:37:39.336Z</time>
      </trkpt>
      <trkpt lat="47.79169" lon="2.11254">
        <ele>130</ele>
        <time>2017-07-30T06:37:40.325Z</time>
      </trkpt>
      <trkpt lat="47.79167" lon="2.11236">
        <ele>130</ele>
        <time>2017-07-30T06:37:41.320Z</time>
      </trkpt>
      <trkpt lat="47.79167" lon="2.11236">
        <ele>130</ele>
        <time>2017-07-30T06:37:42.348Z</time>
      </trkpt>
      <trkpt lat="47.79166" lon="2.11218">
        <ele>129</ele>
        <time>2017-07-30T06:37:43.350Z</time>
      </trkpt>
      <trkpt lat="47.79166" lon="2.11218">
        <ele>129</ele>
        <time>2017-07-30T06:37:44.345Z</time>
      </trkpt>
      <trkpt lat="47.79165" lon="2.11201">
        <ele>130</ele>
        <time>2017-07-30T06:37:45.343Z</time>
      </trkpt>
      <trkpt lat="47.79165" lon="2.11201">
        <ele>130</ele>
        <time>2017-07-30T06:37:46.333Z</time>
      </trkpt>
      <trkpt lat="47.79164" lon="2.11183">
        <ele>130</ele>
        <time>2017-07-30T06:37:47.321Z</time>
      </trkpt>
      <trkpt lat="47.79164" lon="2.11183">
        <ele>130</ele>
        <time>2017-07-30T06:37:48.311Z</time>
      </trkpt>
      <trkpt lat="47.79162" lon="2.11166">
        <ele>130</ele>
        <time>2017-07-30T06:37:49.343Z</time>
      </trkpt>
      <trkpt lat="47.79162" lon="2.11166">
        <ele>130</ele>
        <time>2017-07-30T06:37:50.333Z</time>
      </trkpt>
      <trkpt lat="47.79161" lon="2.11149">
        <ele>129</ele>
        <time>2017-07-30T06:37:51.326Z</time>
      </trkpt>
      <trkpt lat="47.79161" lon="2.11149">
        <ele>129</ele>
        <time>2017-07-30T06:37:52.314Z</time>
      </trkpt>
      <trkpt lat="47.79159" lon="2.11131">
        <ele>129</ele>
        <time>2017-07-30T06:37:53.343Z</time>
      </trkpt>
      <trkpt lat="47.79159" lon="2.11131">
        <ele>129</ele>
        <time>2017-07-30T06:37:54.334Z</time>
      </trkpt>
      <trkpt lat="47.79157" lon="2.11114">
        <ele>129</ele>
        <time>2017-07-30T06:37:55.324Z</time>
      </trkpt>
      <trkpt lat="47.79157" lon="2.11105">
        <ele>129</ele>
        <time>2017-07-30T06:37:56.322Z</time>
      </trkpt>
      <trkpt lat="47.79157" lon="2.11105">
        <ele>129</ele>
        <time>2017-07-30T06:37:57.311Z</time>
      </trkpt>
      <trkpt lat="47.79156" lon="2.11088">
        <ele>129</ele>
        <time>2017-07-30T06:37:58.344Z</time>
      </trkpt>
      <trkpt lat="47.79155" lon="2.1108">
        <ele>129</ele>
        <time>2017-07-30T06:37:59.342Z</time>
      </trkpt>
      <trkpt lat="47.79154" lon="2.11071">
        <ele>129</ele>
        <time>2017-07-30T06:38:00.343Z</time>
      </trkpt>
      <trkpt lat="47.79154" lon="2.11071">
        <ele>129</ele>
        <time>2017-07-30T06:38:01.339Z</time>
      </trkpt>
      <trkpt lat="47.79153" lon="2.11054">
        <ele>129</ele>
        <time>2017-07-30T06:38:02.328Z</time>
      </trkpt>
      <trkpt lat="47.79153" lon="2.11054">
        <ele>129</ele>
        <time>2017-07-30T06:38:03.319Z</time>
      </trkpt>
      <trkpt lat="47.79152" lon="2.11037">
        <ele>129</ele>
        <time>2017-07-30T06:38:04.311Z</time>
      </trkpt>
      <trkpt lat="47.79151" lon="2.11028">
        <ele>128</ele>
        <time>2017-07-30T06:38:05.343Z</time>
      </trkpt>
      <trkpt lat="47.7915" lon="2.1102">
        <ele>128</ele>
        <time>2017-07-30T06:38:06.332Z</time>
      </trkpt>
      <trkpt lat="47.7915" lon="2.1102">
        <ele>128</ele>
        <time>2017-07-30T06:38:07.321Z</time>
      </trkpt>
      <trkpt lat="47.79149" lon="2.11003">
        <ele>128</ele>
        <time>2017-07-30T06:38:08.314Z</time>
      </trkpt>
      <trkpt lat="47.79148" lon="2.10994">
        <ele>128</ele>
        <time>2017-07-30T06:38:09.343Z</time>
      </trkpt>
      <trkpt lat="47.79148" lon="2.10994">
        <ele>128</ele>
        <time>2017-07-30T06:38:10.332Z</time>
      </trkpt>
      <trkpt lat="47.79147" lon="2.10976">
        <ele>128</ele>
        <time>2017-07-30T06:38:11.322Z</time>
      </trkpt>
      <trkpt lat="47.79146" lon="2.10968">
        <ele>128</ele>
        <time>2017-07-30T06:38:12.350Z</time>
      </trkpt>
      <trkpt lat="47.79146" lon="2.10968">
        <ele>128</ele>
        <time>2017-07-30T06:38:13.340Z</time>
      </trkpt>
      <trkpt lat="47.79144" lon="2.1095">
        <ele>128</ele>
        <time>2017-07-30T06:38:14.341Z</time>
      </trkpt>
      <trkpt lat="47.79142" lon="2.10941">
        <ele>128</ele>
        <time>2017-07-30T06:38:15.330Z</time>
      </trkpt>
      <trkpt lat="47.79142" lon="2.10941">
        <ele>128</ele>
        <time>2017-07-30T06:38:16.317Z</time>
      </trkpt>
      <trkpt lat="47.79139" lon="2.10923">
        <ele>128</ele>
        <time>2017-07-30T06:38:17.345Z</time>
      </trkpt>
      <trkpt lat="47.79139" lon="2.10923">
        <ele>128</ele>
        <time>2017-07-30T06:38:18.335Z</time>
      </trkpt>
      <trkpt lat="47.79135" lon="2.10906">
        <ele>127</ele>
        <time>2017-07-30T06:38:19.345Z</time>
      </trkpt>
      <trkpt lat="47.79134" lon="2.10896">
        <ele>127</ele>
        <time>2017-07-30T06:38:20.348Z</time>
      </trkpt>
      <trkpt lat="47.79131" lon="2.10887">
        <ele>127</ele>
        <time>2017-07-30T06:38:21.312Z</time>
      </trkpt>
      <trkpt lat="47.79131" lon="2.10887">
        <ele>127</ele>
        <time>2017-07-30T06:38:22.343Z</time>
      </trkpt>
      <trkpt lat="47.79127" lon="2.10869">
        <ele>127</ele>
        <time>2017-07-30T06:38:23.333Z</time>
      </trkpt>
      <trkpt lat="47.79125" lon="2.1086">
        <ele>127</ele>
        <time>2017-07-30T06:38:24.318Z</time>
      </trkpt>
      <trkpt lat="47.79125" lon="2.1086">
        <ele>127</ele>
        <time>2017-07-30T06:38:25.348Z</time>
      </trkpt>
      <trkpt lat="47.79121" lon="2.10842">
        <ele>127</ele>
        <time>2017-07-30T06:38:26.344Z</time>
      </trkpt>
      <trkpt lat="47.79119" lon="2.10834">
        <ele>127</ele>
        <time>2017-07-30T06:38:27.332Z</time>
      </trkpt>
      <trkpt lat="47.79119" lon="2.10834">
        <ele>127</ele>
        <time>2017-07-30T06:38:28.334Z</time>
      </trkpt>
      <trkpt lat="47.79114" lon="2.10816">
        <ele>127</ele>
        <time>2017-07-30T06:38:29.322Z</time>
      </trkpt>
      <trkpt lat="47.79112" lon="2.10806">
        <ele>127</ele>
        <time>2017-07-30T06:38:30.350Z</time>
      </trkpt>
      <trkpt lat="47.79112" lon="2.10806">
        <ele>127</ele>
        <time>2017-07-30T06:38:31.343Z</time>
      </trkpt>
      <trkpt lat="47.79108" lon="2.10788">
        <ele>126</ele>
        <time>2017-07-30T06:38:32.347Z</time>
      </trkpt>
      <trkpt lat="47.79106" lon="2.1078">
        <ele>126</ele>
        <time>2017-07-30T06:38:33.341Z</time>
      </trkpt>
      <trkpt lat="47.79104" lon="2.10771">
        <ele>126</ele>
        <time>2017-07-30T06:38:34.329Z</time>
      </trkpt>
      <trkpt lat="47.79104" lon="2.10771">
        <ele>126</ele>
        <time>2017-07-30T06:38:35.317Z</time>
      </trkpt>
      <trkpt lat="47.791" lon="2.10753">
        <ele>126</ele>
        <time>2017-07-30T06:38:36.348Z</time>
      </trkpt>
      <trkpt lat="47.791" lon="2.10753">
        <ele>126</ele>
        <time>2017-07-30T06:38:37.337Z</time>
      </trkpt>
      <trkpt lat="47.79096" lon="2.10736">
        <ele>126</ele>
        <time>2017-07-30T06:38:38.345Z</time>
      </trkpt>
      <trkpt lat="47.79094" lon="2.10727">
        <ele>126</ele>
        <time>2017-07-30T06:38:39.344Z</time>
      </trkpt>
      <trkpt lat="47.79094" lon="2.10727">
        <ele>126</ele>
        <time>2017-07-30T06:38:40.334Z</time>
      </trkpt>
      <trkpt lat="47.79089" lon="2.10709">
        <ele>126</ele>
        <time>2017-07-30T06:38:41.340Z</time>
      </trkpt>
      <trkpt lat="47.79087" lon="2.107">
        <ele>126</ele>
        <time>2017-07-30T06:38:42.322Z</time>
      </trkpt>
      <trkpt lat="47.79087" lon="2.107">
        <ele>126</ele>
        <time>2017-07-30T06:38:43.350Z</time>
      </trkpt>
      <trkpt lat="47.79083" lon="2.10682">
        <ele>126</ele>
        <time>2017-07-30T06:38:44.340Z</time>
      </trkpt>
      <trkpt lat="47.79081" lon="2.10674">
        <ele>126</ele>
        <time>2017-07-30T06:38:45.342Z</time>
      </trkpt>
      <trkpt lat="47.79079" lon="2.10665">
        <ele>126</ele>
        <time>2017-07-30T06:38:46.335Z</time>
      </trkpt>
      <trkpt lat="47.79079" lon="2.10665">
        <ele>126</ele>
        <time>2017-07-30T06:38:47.325Z</time>
      </trkpt>
      <trkpt lat="47.79075" lon="2.10647">
        <ele>125</ele>
        <time>2017-07-30T06:38:48.315Z</time>
      </trkpt>
      <trkpt lat="47.79072" lon="2.10638">
        <ele>125</ele>
        <time>2017-07-30T06:38:49.319Z</time>
      </trkpt>
      <trkpt lat="47.79072" lon="2.10638">
        <ele>125</ele>
        <time>2017-07-30T06:38:50.347Z</time>
      </trkpt>
      <trkpt lat="47.79068" lon="2.10621">
        <ele>125</ele>
        <time>2017-07-30T06:38:51.312Z</time>
      </trkpt>
      <trkpt lat="47.79068" lon="2.10621">
        <ele>125</ele>
        <time>2017-07-30T06:38:52.327Z</time>
      </trkpt>
      <trkpt lat="47.79064" lon="2.10604">
        <ele>125</ele>
        <time>2017-07-30T06:38:53.319Z</time>
      </trkpt>
      <trkpt lat="47.79064" lon="2.10604">
        <ele>125</ele>
        <time>2017-07-30T06:38:54.346Z</time>
      </trkpt>
      <trkpt lat="47.7906" lon="2.10587">
        <ele>125</ele>
        <time>2017-07-30T06:38:55.335Z</time>
      </trkpt>
      <trkpt lat="47.79058" lon="2.10578">
        <ele>125</ele>
        <time>2017-07-30T06:38:56.325Z</time>
      </trkpt>
      <trkpt lat="47.79058" lon="2.10578">
        <ele>125</ele>
        <time>2017-07-30T06:38:57.313Z</time>
      </trkpt>
      <trkpt lat="47.79054" lon="2.10561">
        <ele>125</ele>
        <time>2017-07-30T06:38:58.346Z</time>
      </trkpt>
      <trkpt lat="47.79054" lon="2.10561">
        <ele>125</ele>
        <time>2017-07-30T06:38:59.334Z</time>
      </trkpt>
      <trkpt lat="47.79049" lon="2.10543">
        <ele>124</ele>
        <time>2017-07-30T06:39:00.342Z</time>
      </trkpt>
      <trkpt lat="47.79047" lon="2.10533">
        <ele>124</ele>
        <time>2017-07-30T06:39:01.341Z</time>
      </trkpt>
      <trkpt lat="47.79047" lon="2.10533">
        <ele>124</ele>
        <time>2017-07-30T06:39:02.324Z</time>
      </trkpt>
      <trkpt lat="47.79043" lon="2.10514">
        <ele>124</ele>
        <time>2017-07-30T06:39:03.313Z</time>
      </trkpt>
      <trkpt lat="47.79043" lon="2.10514">
        <ele>124</ele>
        <time>2017-07-30T06:39:04.343Z</time>
      </trkpt>
      <trkpt lat="47.79038" lon="2.10495">
        <ele>124</ele>
        <time>2017-07-30T06:39:05.335Z</time>
      </trkpt>
      <trkpt lat="47.79038" lon="2.10495">
        <ele>124</ele>
        <time>2017-07-30T06:39:06.325Z</time>
      </trkpt>
      <trkpt lat="47.79033" lon="2.10476">
        <ele>123</ele>
        <time>2017-07-30T06:39:07.314Z</time>
      </trkpt>
      <trkpt lat="47.79031" lon="2.10467">
        <ele>123</ele>
        <time>2017-07-30T06:39:08.316Z</time>
      </trkpt>
      <trkpt lat="47.79031" lon="2.10467">
        <ele>123</ele>
        <time>2017-07-30T06:39:09.345Z</time>
      </trkpt>
      <trkpt lat="47.79026" lon="2.10448">
        <ele>123</ele>
        <time>2017-07-30T06:39:10.335Z</time>
      </trkpt>
      <trkpt lat="47.79024" lon="2.10438">
        <ele>123</ele>
        <time>2017-07-30T06:39:11.326Z</time>
      </trkpt>
      <trkpt lat="47.79024" lon="2.10438">
        <ele>123</ele>
        <time>2017-07-30T06:39:12.323Z</time>
      </trkpt>
      <trkpt lat="47.7902" lon="2.1042">
        <ele>123</ele>
        <time>2017-07-30T06:39:13.311Z</time>
      </trkpt>
      <trkpt lat="47.79017" lon="2.10411">
        <ele>123</ele>
        <time>2017-07-30T06:39:14.342Z</time>
      </trkpt>
      <trkpt lat="47.79015" lon="2.10402">
        <ele>123</ele>
        <time>2017-07-30T06:39:15.341Z</time>
      </trkpt>
      <trkpt lat="47.79015" lon="2.10402">
        <ele>123</ele>
        <time>2017-07-30T06:39:16.333Z</time>
      </trkpt>
      <trkpt lat="47.79011" lon="2.10384">
        <ele>123</ele>
        <time>2017-07-30T06:39:17.336Z</time>
      </trkpt>
      <trkpt lat="47.79008" lon="2.10375">
        <ele>123</ele>
        <time>2017-07-30T06:39:18.331Z</time>
      </trkpt>
      <trkpt lat="47.79008" lon="2.10375">
        <ele>123</ele>
        <time>2017-07-30T06:39:19.322Z</time>
      </trkpt>
      <trkpt lat="47.79003" lon="2.10358">
        <ele>123</ele>
        <time>2017-07-30T06:39:20.319Z</time>
      </trkpt>
      <trkpt lat="47.79001" lon="2.10349">
        <ele>123</ele>
        <time>2017-07-30T06:39:21.349Z</time>
      </trkpt>
      <trkpt lat="47.79001" lon="2.10349">
        <ele>123</ele>
        <time>2017-07-30T06:39:22.345Z</time>
      </trkpt>
      <trkpt lat="47.78996" lon="2.10332">
        <ele>123</ele>
        <time>2017-07-30T06:39:23.338Z</time>
      </trkpt>
      <trkpt lat="47.78993" lon="2.10324">
        <ele>123</ele>
        <time>2017-07-30T06:39:24.340Z</time>
      </trkpt>
      <trkpt lat="47.78993" lon="2.10324">
        <ele>123</ele>
        <time>2017-07-30T06:39:25.335Z</time>
      </trkpt>
      <trkpt lat="47.78988" lon="2.10307">
        <ele>122</ele>
        <time>2017-07-30T06:39:26.323Z</time>
      </trkpt>
      <trkpt lat="47.78985" lon="2.10298">
        <ele>122</ele>
        <time>2017-07-30T06:39:27.311Z</time>
      </trkpt>
      <trkpt lat="47.78985" lon="2.10298">
        <ele>122</ele>
        <time>2017-07-30T06:39:28.348Z</time>
      </trkpt>
      <trkpt lat="47.7898" lon="2.10281">
        <ele>122</ele>
        <time>2017-07-30T06:39:29.340Z</time>
      </trkpt>
      <trkpt lat="47.78977" lon="2.10272">
        <ele>122</ele>
        <time>2017-07-30T06:39:30.329Z</time>
      </trkpt>
      <trkpt lat="47.78977" lon="2.10272">
        <ele>122</ele>
        <time>2017-07-30T06:39:31.317Z</time>
      </trkpt>
      <trkpt lat="47.78972" lon="2.10255">
        <ele>122</ele>
        <time>2017-07-30T06:39:32.348Z</time>
      </trkpt>
      <trkpt lat="47.78972" lon="2.10255">
        <ele>122</ele>
        <time>2017-07-30T06:39:33.344Z</time>
      </trkpt>
      <trkpt lat="47.78966" lon="2.10237">
        <ele>122</ele>
        <time>2017-07-30T06:39:34.340Z</time>
      </trkpt>
      <trkpt lat="47.78966" lon="2.10237">
        <ele>122</ele>
        <time>2017-07-30T06:39:35.330Z</time>
      </trkpt>
      <trkpt lat="47.78961" lon="2.1022">
        <ele>122</ele>
        <time>2017-07-30T06:39:36.319Z</time>
      </trkpt>
      <trkpt lat="47.78961" lon="2.1022">
        <ele>122</ele>
        <time>2017-07-30T06:39:37.313Z</time>
      </trkpt>
      <trkpt lat="47.78955" lon="2.10202">
        <ele>121</ele>
        <time>2017-07-30T06:39:38.345Z</time>
      </trkpt>
      <trkpt lat="47.78953" lon="2.10193">
        <ele>121</ele>
        <time>2017-07-30T06:39:39.341Z</time>
      </trkpt>
      <trkpt lat="47.78953" lon="2.10193">
        <ele>121</ele>
        <time>2017-07-30T06:39:40.330Z</time>
      </trkpt>
      <trkpt lat="47.78947" lon="2.10175">
        <ele>121</ele>
        <time>2017-07-30T06:39:41.331Z</time>
      </trkpt>
      <trkpt lat="47.78947" lon="2.10175">
        <ele>121</ele>
        <time>2017-07-30T06:39:42.342Z</time>
      </trkpt>
      <trkpt lat="47.78941" lon="2.10158">
        <ele>121</ele>
        <time>2017-07-30T06:39:43.331Z</time>
      </trkpt>
      <trkpt lat="47.78941" lon="2.10158">
        <ele>121</ele>
        <time>2017-07-30T06:39:44.322Z</time>
      </trkpt>
      <trkpt lat="47.78936" lon="2.10141">
        <ele>121</ele>
        <time>2017-07-30T06:39:45.350Z</time>
      </trkpt>
      <trkpt lat="47.78936" lon="2.10141">
        <ele>121</ele>
        <time>2017-07-30T06:39:46.345Z</time>
      </trkpt>
      <trkpt lat="47.78931" lon="2.10124">
        <ele>121</ele>
        <time>2017-07-30T06:39:47.336Z</time>
      </trkpt>
      <trkpt lat="47.78928" lon="2.10115">
        <ele>121</ele>
        <time>2017-07-30T06:39:48.328Z</time>
      </trkpt>
      <trkpt lat="47.78928" lon="2.10115">
        <ele>121</ele>
        <time>2017-07-30T06:39:49.340Z</time>
      </trkpt>
      <trkpt lat="47.78923" lon="2.10098">
        <ele>121</ele>
        <time>2017-07-30T06:39:50.330Z</time>
      </trkpt>
      <trkpt lat="47.78923" lon="2.10098">
        <ele>121</ele>
        <time>2017-07-30T06:39:51.318Z</time>
      </trkpt>
      <trkpt lat="47.78917" lon="2.1008">
        <ele>121</ele>
        <time>2017-07-30T06:39:52.318Z</time>
      </trkpt>
      <trkpt lat="47.78914" lon="2.10071">
        <ele>120</ele>
        <time>2017-07-30T06:39:53.348Z</time>
      </trkpt>
      <trkpt lat="47.78914" lon="2.10071">
        <ele>120</ele>
        <time>2017-07-30T06:39:54.335Z</time>
      </trkpt>
      <trkpt lat="47.78909" lon="2.10052">
        <ele>120</ele>
        <time>2017-07-30T06:39:55.323Z</time>
      </trkpt>
      <trkpt lat="47.78909" lon="2.10052">
        <ele>120</ele>
        <time>2017-07-30T06:39:56.311Z</time>
      </trkpt>
      <trkpt lat="47.78902" lon="2.10034">
        <ele>120</ele>
        <time>2017-07-30T06:39:57.342Z</time>
      </trkpt>
      <trkpt lat="47.78902" lon="2.10034">
        <ele>120</ele>
        <time>2017-07-30T06:39:58.333Z</time>
      </trkpt>
      <trkpt lat="47.78896" lon="2.10014">
        <ele>120</ele>
        <time>2017-07-30T06:39:59.321Z</time>
      </trkpt>
      <trkpt lat="47.78893" lon="2.10005">
        <ele>119</ele>
        <time>2017-07-30T06:40:00.311Z</time>
      </trkpt>
      <trkpt lat="47.7889" lon="2.09995">
        <ele>119</ele>
        <time>2017-07-30T06:40:01.335Z</time>
      </trkpt>
      <trkpt lat="47.7889" lon="2.09995">
        <ele>119</ele>
        <time>2017-07-30T06:40:02.333Z</time>
      </trkpt>
      <trkpt lat="47.78884" lon="2.09975">
        <ele>119</ele>
        <time>2017-07-30T06:40:03.327Z</time>
      </trkpt>
      <trkpt lat="47.78884" lon="2.09975">
        <ele>119</ele>
        <time>2017-07-30T06:40:04.316Z</time>
      </trkpt>
      <trkpt lat="47.78878" lon="2.09955">
        <ele>118</ele>
        <time>2017-07-30T06:40:05.345Z</time>
      </trkpt>
      <trkpt lat="47.78874" lon="2.09944">
        <ele>118</ele>
        <time>2017-07-30T06:40:06.335Z</time>
      </trkpt>
      <trkpt lat="47.78874" lon="2.09944">
        <ele>118</ele>
        <time>2017-07-30T06:40:07.325Z</time>
      </trkpt>
      <trkpt lat="47.78868" lon="2.09924">
        <ele>118</ele>
        <time>2017-07-30T06:40:08.316Z</time>
      </trkpt>
      <trkpt lat="47.78868" lon="2.09924">
        <ele>118</ele>
        <time>2017-07-30T06:40:09.345Z</time>
      </trkpt>
      <trkpt lat="47.78863" lon="2.09906">
        <ele>118</ele>
        <time>2017-07-30T06:40:10.339Z</time>
      </trkpt>
      <trkpt lat="47.7886" lon="2.09897">
        <ele>118</ele>
        <time>2017-07-30T06:40:11.341Z</time>
      </trkpt>
      <trkpt lat="47.7886" lon="2.09897">
        <ele>118</ele>
        <time>2017-07-30T06:40:12.341Z</time>
      </trkpt>
      <trkpt lat="47.78855" lon="2.09879">
        <ele>119</ele>
        <time>2017-07-30T06:40:13.336Z</time>
      </trkpt>
      <trkpt lat="47.78853" lon="2.09871">
        <ele>119</ele>
        <time>2017-07-30T06:40:14.325Z</time>
      </trkpt>
      <trkpt lat="47.78851" lon="2.09863">
        <ele>121</ele>
        <time>2017-07-30T06:40:15.313Z</time>
      </trkpt>
      <trkpt lat="47.78851" lon="2.09863">
        <ele>121</ele>
        <time>2017-07-30T06:40:16.342Z</time>
      </trkpt>
      <trkpt lat="47.78845" lon="2.09845">
        <ele>121</ele>
        <time>2017-07-30T06:40:17.341Z</time>
      </trkpt>
      <trkpt lat="47.78842" lon="2.09836">
        <ele>122</ele>
        <time>2017-07-30T06:40:18.339Z</time>
      </trkpt>
      <trkpt lat="47.78842" lon="2.09836">
        <ele>122</ele>
        <time>2017-07-30T06:40:19.334Z</time>
      </trkpt>
      <trkpt lat="47.78836" lon="2.09819">
        <ele>122</ele>
        <time>2017-07-30T06:40:20.325Z</time>
      </trkpt>
      <trkpt lat="47.78834" lon="2.0981">
        <ele>123</ele>
        <time>2017-07-30T06:40:21.314Z</time>
      </trkpt>
      <trkpt lat="47.78834" lon="2.0981">
        <ele>123</ele>
        <time>2017-07-30T06:40:22.344Z</time>
      </trkpt>
      <trkpt lat="47.78828" lon="2.09792">
        <ele>123</ele>
        <time>2017-07-30T06:40:23.331Z</time>
      </trkpt>
      <trkpt lat="47.78825" lon="2.09783">
        <ele>122</ele>
        <time>2017-07-30T06:40:24.320Z</time>
      </trkpt>
      <trkpt lat="47.78825" lon="2.09783">
        <ele>122</ele>
        <time>2017-07-30T06:40:25.349Z</time>
      </trkpt>
      <trkpt lat="47.7882" lon="2.09764">
        <ele>123</ele>
        <time>2017-07-30T06:40:26.347Z</time>
      </trkpt>
      <trkpt lat="47.7882" lon="2.09764">
        <ele>123</ele>
        <time>2017-07-30T06:40:27.336Z</time>
      </trkpt>
      <trkpt lat="47.78814" lon="2.09746">
        <ele>123</ele>
        <time>2017-07-30T06:40:28.345Z</time>
      </trkpt>
      <trkpt lat="47.78811" lon="2.09737">
        <ele>124</ele>
        <time>2017-07-30T06:40:29.343Z</time>
      </trkpt>
      <trkpt lat="47.78811" lon="2.09737">
        <ele>124</ele>
        <time>2017-07-30T06:40:30.337Z</time>
      </trkpt>
      <trkpt lat="47.78806" lon="2.09719">
        <ele>125</ele>
        <time>2017-07-30T06:40:31.325Z</time>
      </trkpt>
      <trkpt lat="47.78806" lon="2.09719">
        <ele>125</ele>
        <time>2017-07-30T06:40:32.315Z</time>
      </trkpt>
      <trkpt lat="47.788" lon="2.09701">
        <ele>125</ele>
        <time>2017-07-30T06:40:33.350Z</time>
      </trkpt>
      <trkpt lat="47.788" lon="2.09701">
        <ele>125</ele>
        <time>2017-07-30T06:40:34.340Z</time>
      </trkpt>
      <trkpt lat="47.78794" lon="2.09682">
        <ele>125</ele>
        <time>2017-07-30T06:40:35.330Z</time>
      </trkpt>
      <trkpt lat="47.78794" lon="2.09682">
        <ele>125</ele>
        <time>2017-07-30T06:40:36.317Z</time>
      </trkpt>
      <trkpt lat="47.78788" lon="2.09664">
        <ele>126</ele>
        <time>2017-07-30T06:40:37.347Z</time>
      </trkpt>
      <trkpt lat="47.78788" lon="2.09664">
        <ele>126</ele>
        <time>2017-07-30T06:40:38.314Z</time>
      </trkpt>
      <trkpt lat="47.78783" lon="2.09645">
        <ele>126</ele>
        <time>2017-07-30T06:40:39.343Z</time>
      </trkpt>
      <trkpt lat="47.7878" lon="2.09636">
        <ele>126</ele>
        <time>2017-07-30T06:40:40.336Z</time>
      </trkpt>
      <trkpt lat="47.78777" lon="2.09627">
        <ele>126</ele>
        <time>2017-07-30T06:40:41.326Z</time>
      </trkpt>
      <trkpt lat="47.78777" lon="2.09627">
        <ele>126</ele>
        <time>2017-07-30T06:40:42.314Z</time>
      </trkpt>
      <trkpt lat="47.78772" lon="2.09609">
        <ele>126</ele>
        <time>2017-07-30T06:40:43.331Z</time>
      </trkpt>
      <trkpt lat="47.78769" lon="2.096">
        <ele>126</ele>
        <time>2017-07-30T06:40:44.340Z</time>
      </trkpt>
      <trkpt lat="47.78769" lon="2.096">
        <ele>126</ele>
        <time>2017-07-30T06:40:45.333Z</time>
      </trkpt>
      <trkpt lat="47.78764" lon="2.09583">
        <ele>126</ele>
        <time>2017-07-30T06:40:46.343Z</time>
      </trkpt>
      <trkpt lat="47.78764" lon="2.09583">
        <ele>126</ele>
        <time>2017-07-30T06:40:47.332Z</time>
      </trkpt>
      <trkpt lat="47.78758" lon="2.09565">
        <ele>126</ele>
        <time>2017-07-30T06:40:48.318Z</time>
      </trkpt>
      <trkpt lat="47.78758" lon="2.09565">
        <ele>126</ele>
        <time>2017-07-30T06:40:49.348Z</time>
      </trkpt>
      <trkpt lat="47.78753" lon="2.09548">
        <ele>126</ele>
        <time>2017-07-30T06:40:50.340Z</time>
      </trkpt>
      <trkpt lat="47.78751" lon="2.0954">
        <ele>126</ele>
        <time>2017-07-30T06:40:51.329Z</time>
      </trkpt>
      <trkpt lat="47.78751" lon="2.0954">
        <ele>126</ele>
        <time>2017-07-30T06:40:52.317Z</time>
      </trkpt>
      <trkpt lat="47.78746" lon="2.09523">
        <ele>126</ele>
        <time>2017-07-30T06:40:53.349Z</time>
      </trkpt>
      <trkpt lat="47.78746" lon="2.09523">
        <ele>126</ele>
        <time>2017-07-30T06:40:54.340Z</time>
      </trkpt>
      <trkpt lat="47.78741" lon="2.09506">
        <ele>126</ele>
        <time>2017-07-30T06:40:55.330Z</time>
      </trkpt>
      <trkpt lat="47.78741" lon="2.09506">
        <ele>126</ele>
        <time>2017-07-30T06:40:56.317Z</time>
      </trkpt>
      <trkpt lat="47.78735" lon="2.0949">
        <ele>126</ele>
        <time>2017-07-30T06:40:57.346Z</time>
      </trkpt>
      <trkpt lat="47.78735" lon="2.0949">
        <ele>126</ele>
        <time>2017-07-30T06:40:58.345Z</time>
      </trkpt>
      <trkpt lat="47.78731" lon="2.09473">
        <ele>126</ele>
        <time>2017-07-30T06:40:59.341Z</time>
      </trkpt>
      <trkpt lat="47.78728" lon="2.09465">
        <ele>126</ele>
        <time>2017-07-30T06:41:00.339Z</time>
      </trkpt>
      <trkpt lat="47.78728" lon="2.09465">
        <ele>126</ele>
        <time>2017-07-30T06:41:01.332Z</time>
      </trkpt>
      <trkpt lat="47.78723" lon="2.09449">
        <ele>126</ele>
        <time>2017-07-30T06:41:02.335Z</time>
      </trkpt>
      <trkpt lat="47.78721" lon="2.09441">
        <ele>126</ele>
        <time>2017-07-30T06:41:03.314Z</time>
      </trkpt>
      <trkpt lat="47.78721" lon="2.09441">
        <ele>126</ele>
        <time>2017-07-30T06:41:04.342Z</time>
      </trkpt>
      <trkpt lat="47.78716" lon="2.09424">
        <ele>126</ele>
        <time>2017-07-30T06:41:05.347Z</time>
      </trkpt>
      <trkpt lat="47.78716" lon="2.09424">
        <ele>126</ele>
        <time>2017-07-30T06:41:06.335Z</time>
      </trkpt>
      <trkpt lat="47.78711" lon="2.09408">
        <ele>126</ele>
        <time>2017-07-30T06:41:07.323Z</time>
      </trkpt>
      <trkpt lat="47.78711" lon="2.09408">
        <ele>126</ele>
        <time>2017-07-30T06:41:08.323Z</time>
      </trkpt>
      <trkpt lat="47.78707" lon="2.09391">
        <ele>126</ele>
        <time>2017-07-30T06:41:09.314Z</time>
      </trkpt>
      <trkpt lat="47.78707" lon="2.09391">
        <ele>126</ele>
        <time>2017-07-30T06:41:10.343Z</time>
      </trkpt>
      <trkpt lat="47.78702" lon="2.09375">
        <ele>126</ele>
        <time>2017-07-30T06:41:11.349Z</time>
      </trkpt>
      <trkpt lat="47.78702" lon="2.09375">
        <ele>126</ele>
        <time>2017-07-30T06:41:12.338Z</time>
      </trkpt>
      <trkpt lat="47.78698" lon="2.09359">
        <ele>126</ele>
        <time>2017-07-30T06:41:13.313Z</time>
      </trkpt>
      <trkpt lat="47.78695" lon="2.09351">
        <ele>126</ele>
        <time>2017-07-30T06:41:14.343Z</time>
      </trkpt>
      <trkpt lat="47.78693" lon="2.09343">
        <ele>126</ele>
        <time>2017-07-30T06:41:15.336Z</time>
      </trkpt>
      <trkpt lat="47.78693" lon="2.09343">
        <ele>126</ele>
        <time>2017-07-30T06:41:16.324Z</time>
      </trkpt>
      <trkpt lat="47.78689" lon="2.09328">
        <ele>126</ele>
        <time>2017-07-30T06:41:17.314Z</time>
      </trkpt>
      <trkpt lat="47.78689" lon="2.09328">
        <ele>126</ele>
        <time>2017-07-30T06:41:18.344Z</time>
      </trkpt>
      <trkpt lat="47.78684" lon="2.09312">
        <ele>126</ele>
        <time>2017-07-30T06:41:19.340Z</time>
      </trkpt>
      <trkpt lat="47.78684" lon="2.09312">
        <ele>126</ele>
        <time>2017-07-30T06:41:20.332Z</time>
      </trkpt>
      <trkpt lat="47.78679" lon="2.09295">
        <ele>126</ele>
        <time>2017-07-30T06:41:21.341Z</time>
      </trkpt>
      <trkpt lat="47.78679" lon="2.09295">
        <ele>126</ele>
        <time>2017-07-30T06:41:22.331Z</time>
      </trkpt>
      <trkpt lat="47.78674" lon="2.09279">
        <ele>126</ele>
        <time>2017-07-30T06:41:23.329Z</time>
      </trkpt>
      <trkpt lat="47.78672" lon="2.09271">
        <ele>126</ele>
        <time>2017-07-30T06:41:24.340Z</time>
      </trkpt>
      <trkpt lat="47.78672" lon="2.09271">
        <ele>126</ele>
        <time>2017-07-30T06:41:25.335Z</time>
      </trkpt>
      <trkpt lat="47.78667" lon="2.09256">
        <ele>126</ele>
        <time>2017-07-30T06:41:26.322Z</time>
      </trkpt>
      <trkpt lat="47.78665" lon="2.09249">
        <ele>126</ele>
        <time>2017-07-30T06:41:27.342Z</time>
      </trkpt>
      <trkpt lat="47.78665" lon="2.09249">
        <ele>126</ele>
        <time>2017-07-30T06:41:28.333Z</time>
      </trkpt>
      <trkpt lat="47.7866" lon="2.09235">
        <ele>126</ele>
        <time>2017-07-30T06:41:29.330Z</time>
      </trkpt>
      <trkpt lat="47.7866" lon="2.09235">
        <ele>126</ele>
        <time>2017-07-30T06:41:30.341Z</time>
      </trkpt>
      <trkpt lat="47.78656" lon="2.09222">
        <ele>126</ele>
        <time>2017-07-30T06:41:31.329Z</time>
      </trkpt>
      <trkpt lat="47.78656" lon="2.09222">
        <ele>126</ele>
        <time>2017-07-30T06:41:32.318Z</time>
      </trkpt>
      <trkpt lat="47.78651" lon="2.0921">
        <ele>126</ele>
        <time>2017-07-30T06:41:33.312Z</time>
      </trkpt>
      <trkpt lat="47.78651" lon="2.0921">
        <ele>126</ele>
        <time>2017-07-30T06:41:34.341Z</time>
      </trkpt>
      <trkpt lat="47.78646" lon="2.09198">
        <ele>126</ele>
        <time>2017-07-30T06:41:35.332Z</time>
      </trkpt>
      <trkpt lat="47.78644" lon="2.09192">
        <ele>126</ele>
        <time>2017-07-30T06:41:36.322Z</time>
      </trkpt>
      <trkpt lat="47.78644" lon="2.09192">
        <ele>126</ele>
        <time>2017-07-30T06:41:37.350Z</time>
      </trkpt>
      <trkpt lat="47.7864" lon="2.09181">
        <ele>126</ele>
        <time>2017-07-30T06:41:38.347Z</time>
      </trkpt>
      <trkpt lat="47.78637" lon="2.09175">
        <ele>126</ele>
        <time>2017-07-30T06:41:39.342Z</time>
      </trkpt>
      <trkpt lat="47.78635" lon="2.09169">
        <ele>126</ele>
        <time>2017-07-30T06:41:40.342Z</time>
      </trkpt>
      <trkpt lat="47.78635" lon="2.09169">
        <ele>126</ele>
        <time>2017-07-30T06:41:41.332Z</time>
      </trkpt>
      <trkpt lat="47.7863" lon="2.09158">
        <ele>126</ele>
        <time>2017-07-30T06:41:42.325Z</time>
      </trkpt>
      <trkpt lat="47.7863" lon="2.09158">
        <ele>126</ele>
        <time>2017-07-30T06:41:43.319Z</time>
      </trkpt>
      <trkpt lat="47.78625" lon="2.09148">
        <ele>126</ele>
        <time>2017-07-30T06:41:44.349Z</time>
      </trkpt>
      <trkpt lat="47.78623" lon="2.09142">
        <ele>125</ele>
        <time>2017-07-30T06:41:45.343Z</time>
      </trkpt>
      <trkpt lat="47.78623" lon="2.09142">
        <ele>125</ele>
        <time>2017-07-30T06:41:46.333Z</time>
      </trkpt>
      <trkpt lat="47.78618" lon="2.09132">
        <ele>126</ele>
        <time>2017-07-30T06:41:47.324Z</time>
      </trkpt>
      <trkpt lat="47.78618" lon="2.09132">
        <ele>126</ele>
        <time>2017-07-30T06:41:48.326Z</time>
      </trkpt>
      <trkpt lat="47.78614" lon="2.09123">
        <ele>125</ele>
        <time>2017-07-30T06:41:49.315Z</time>
      </trkpt>
      <trkpt lat="47.78611" lon="2.09119">
        <ele>125</ele>
        <time>2017-07-30T06:41:50.347Z</time>
      </trkpt>
      <trkpt lat="47.78609" lon="2.09114">
        <ele>125</ele>
        <time>2017-07-30T06:41:51.344Z</time>
      </trkpt>
      <trkpt lat="47.78608" lon="2.0911">
        <ele>125</ele>
        <time>2017-07-30T06:41:52.335Z</time>
      </trkpt>
      <trkpt lat="47.78606" lon="2.09105">
        <ele>125</ele>
        <time>2017-07-30T06:41:53.332Z</time>
      </trkpt>
      <trkpt lat="47.78606" lon="2.09105">
        <ele>125</ele>
        <time>2017-07-30T06:41:54.333Z</time>
      </trkpt>
      <trkpt lat="47.78602" lon="2.09095">
        <ele>125</ele>
        <time>2017-07-30T06:41:55.322Z</time>
      </trkpt>
      <trkpt lat="47.786" lon="2.0909">
        <ele>125</ele>
        <time>2017-07-30T06:41:56.312Z</time>
      </trkpt>
      <trkpt lat="47.78598" lon="2.09084">
        <ele>125</ele>
        <time>2017-07-30T06:41:57.341Z</time>
      </trkpt>
      <trkpt lat="47.78598" lon="2.09084">
        <ele>125</ele>
        <time>2017-07-30T06:41:58.347Z</time>
      </trkpt>
      <trkpt lat="47.78594" lon="2.09074">
        <ele>125</ele>
        <time>2017-07-30T06:41:59.339Z</time>
      </trkpt>
      <trkpt lat="47.78592" lon="2.09069">
        <ele>125</ele>
        <time>2017-07-30T06:42:00.341Z</time>
      </trkpt>
      <trkpt lat="47.7859" lon="2.09064">
        <ele>125</ele>
        <time>2017-07-30T06:42:01.330Z</time>
      </trkpt>
      <trkpt lat="47.7859" lon="2.09064">
        <ele>125</ele>
        <time>2017-07-30T06:42:02.318Z</time>
      </trkpt>
      <trkpt lat="47.78585" lon="2.09056">
        <ele>125</ele>
        <time>2017-07-30T06:42:03.311Z</time>
      </trkpt>
      <trkpt lat="47.78584" lon="2.09051">
        <ele>125</ele>
        <time>2017-07-30T06:42:04.341Z</time>
      </trkpt>
      <trkpt lat="47.78582" lon="2.09047">
        <ele>125</ele>
        <time>2017-07-30T06:42:05.333Z</time>
      </trkpt>
      <trkpt lat="47.78582" lon="2.09047">
        <ele>125</ele>
        <time>2017-07-30T06:42:06.322Z</time>
      </trkpt>
      <trkpt lat="47.78579" lon="2.09039">
        <ele>125</ele>
        <time>2017-07-30T06:42:07.313Z</time>
      </trkpt>
      <trkpt lat="47.78579" lon="2.09039">
        <ele>125</ele>
        <time>2017-07-30T06:42:08.320Z</time>
      </trkpt>
      <trkpt lat="47.78575" lon="2.09032">
        <ele>125</ele>
        <time>2017-07-30T06:42:09.329Z</time>
      </trkpt>
      <trkpt lat="47.78575" lon="2.09032">
        <ele>125</ele>
        <time>2017-07-30T06:42:10.335Z</time>
      </trkpt>
      <trkpt lat="47.78571" lon="2.09025">
        <ele>124</ele>
        <time>2017-07-30T06:42:11.324Z</time>
      </trkpt>
      <trkpt lat="47.78571" lon="2.09025">
        <ele>124</ele>
        <time>2017-07-30T06:42:12.313Z</time>
      </trkpt>
      <trkpt lat="47.78568" lon="2.09017">
        <ele>124</ele>
        <time>2017-07-30T06:42:13.345Z</time>
      </trkpt>
      <trkpt lat="47.78566" lon="2.09013">
        <ele>124</ele>
        <time>2017-07-30T06:42:14.341Z</time>
      </trkpt>
      <trkpt lat="47.78566" lon="2.09013">
        <ele>124</ele>
        <time>2017-07-30T06:42:15.333Z</time>
      </trkpt>
      <trkpt lat="47.78564" lon="2.09007">
        <ele>124</ele>
        <time>2017-07-30T06:42:16.321Z</time>
      </trkpt>
      <trkpt lat="47.78562" lon="2.09004">
        <ele>124</ele>
        <time>2017-07-30T06:42:17.311Z</time>
      </trkpt>
      <trkpt lat="47.78562" lon="2.09004">
        <ele>124</ele>
        <time>2017-07-30T06:42:18.346Z</time>
      </trkpt>
      <trkpt lat="47.78561" lon="2.08999">
        <ele>124</ele>
        <time>2017-07-30T06:42:19.342Z</time>
      </trkpt>
      <trkpt lat="47.78561" lon="2.08999">
        <ele>124</ele>
        <time>2017-07-30T06:42:20.332Z</time>
      </trkpt>
      <trkpt lat="47.78559" lon="2.08994">
        <ele>124</ele>
        <time>2017-07-30T06:42:21.342Z</time>
      </trkpt>
      <trkpt lat="47.78559" lon="2.08994">
        <ele>124</ele>
        <time>2017-07-30T06:42:22.334Z</time>
      </trkpt>
      <trkpt lat="47.78558" lon="2.0899">
        <ele>124</ele>
        <time>2017-07-30T06:42:23.324Z</time>
      </trkpt>
      <trkpt lat="47.78558" lon="2.0899">
        <ele>124</ele>
        <time>2017-07-30T06:42:24.341Z</time>
      </trkpt>
      <trkpt lat="47.78558" lon="2.0899">
        <ele>124</ele>
        <time>2017-07-30T06:42:25.331Z</time>
      </trkpt>
      <trkpt lat="47.78558" lon="2.0899">
        <ele>124</ele>
        <time>2017-07-30T06:42:26.325Z</time>
      </trkpt>
      <trkpt lat="47.78558" lon="2.0899">
        <ele>124</ele>
        <time>2017-07-30T06:42:27.315Z</time>
      </trkpt>
      <trkpt lat="47.78555" lon="2.08983">
        <ele>124</ele>
        <time>2017-07-30T06:42:28.350Z</time>
      </trkpt>
      <trkpt lat="47.78555" lon="2.08983">
        <ele>124</ele>
        <time>2017-07-30T06:42:29.331Z</time>
      </trkpt>
      <trkpt lat="47.78551" lon="2.08975">
        <ele>124</ele>
        <time>2017-07-30T06:42:30.324Z</time>
      </trkpt>
      <trkpt lat="47.78551" lon="2.08975">
        <ele>124</ele>
        <time>2017-07-30T06:42:31.313Z</time>
      </trkpt>
      <trkpt lat="47.78548" lon="2.08964">
        <ele>124</ele>
        <time>2017-07-30T06:42:32.342Z</time>
      </trkpt>
      <trkpt lat="47.78547" lon="2.08958">
        <ele>124</ele>
        <time>2017-07-30T06:42:33.339Z</time>
      </trkpt>
      <trkpt lat="47.78547" lon="2.08958">
        <ele>124</ele>
        <time>2017-07-30T06:42:34.330Z</time>
      </trkpt>
      <trkpt lat="47.78544" lon="2.08946">
        <ele>124</ele>
        <time>2017-07-30T06:42:35.326Z</time>
      </trkpt>
      <trkpt lat="47.78544" lon="2.08946">
        <ele>124</ele>
        <time>2017-07-30T06:42:36.320Z</time>
      </trkpt>
      <trkpt lat="47.78541" lon="2.08932">
        <ele>124</ele>
        <time>2017-07-30T06:42:37.326Z</time>
      </trkpt>
      <trkpt lat="47.78539" lon="2.08925">
        <ele>124</ele>
        <time>2017-07-30T06:42:38.314Z</time>
      </trkpt>
      <trkpt lat="47.78537" lon="2.08918">
        <ele>124</ele>
        <time>2017-07-30T06:42:39.344Z</time>
      </trkpt>
      <trkpt lat="47.78537" lon="2.08918">
        <ele>124</ele>
        <time>2017-07-30T06:42:40.331Z</time>
      </trkpt>
      <trkpt lat="47.78535" lon="2.08906">
        <ele>124</ele>
        <time>2017-07-30T06:42:41.331Z</time>
      </trkpt>
      <trkpt lat="47.78533" lon="2.08899">
        <ele>124</ele>
        <time>2017-07-30T06:42:42.337Z</time>
      </trkpt>
      <trkpt lat="47.78533" lon="2.08899">
        <ele>124</ele>
        <time>2017-07-30T06:42:43.317Z</time>
      </trkpt>
      <trkpt lat="47.78531" lon="2.08886">
        <ele>124</ele>
        <time>2017-07-30T06:42:44.345Z</time>
      </trkpt>
      <trkpt lat="47.78529" lon="2.08879">
        <ele>124</ele>
        <time>2017-07-30T06:42:45.347Z</time>
      </trkpt>
      <trkpt lat="47.78529" lon="2.08879">
        <ele>124</ele>
        <time>2017-07-30T06:42:46.337Z</time>
      </trkpt>
      <trkpt lat="47.78527" lon="2.08867">
        <ele>124</ele>
        <time>2017-07-30T06:42:47.344Z</time>
      </trkpt>
      <trkpt lat="47.78527" lon="2.08867">
        <ele>124</ele>
        <time>2017-07-30T06:42:48.331Z</time>
      </trkpt>
      <trkpt lat="47.78524" lon="2.08854">
        <ele>124</ele>
        <time>2017-07-30T06:42:49.321Z</time>
      </trkpt>
      <trkpt lat="47.78524" lon="2.08854">
        <ele>124</ele>
        <time>2017-07-30T06:42:50.325Z</time>
      </trkpt>
      <trkpt lat="47.78521" lon="2.08841">
        <ele>124</ele>
        <time>2017-07-30T06:42:51.314Z</time>
      </trkpt>
      <trkpt lat="47.78521" lon="2.08841">
        <ele>124</ele>
        <time>2017-07-30T06:42:52.342Z</time>
      </trkpt>
      <trkpt lat="47.78519" lon="2.08829">
        <ele>125</ele>
        <time>2017-07-30T06:42:53.320Z</time>
      </trkpt>
      <trkpt lat="47.78519" lon="2.08829">
        <ele>125</ele>
        <time>2017-07-30T06:42:54.350Z</time>
      </trkpt>
      <trkpt lat="47.78517" lon="2.08816">
        <ele>125</ele>
        <time>2017-07-30T06:42:55.345Z</time>
      </trkpt>
      <trkpt lat="47.78515" lon="2.0881">
        <ele>125</ele>
        <time>2017-07-30T06:42:56.338Z</time>
      </trkpt>
      <trkpt lat="47.78515" lon="2.0881">
        <ele>125</ele>
        <time>2017-07-30T06:42:57.339Z</time>
      </trkpt>
      <trkpt lat="47.78513" lon="2.08797">
        <ele>125</ele>
        <time>2017-07-30T06:42:58.345Z</time>
      </trkpt>
      <trkpt lat="47.78513" lon="2.08797">
        <ele>125</ele>
        <time>2017-07-30T06:42:59.334Z</time>
      </trkpt>
      <trkpt lat="47.7851" lon="2.08785">
        <ele>125</ele>
        <time>2017-07-30T06:43:00.348Z</time>
      </trkpt>
      <trkpt lat="47.7851" lon="2.08785">
        <ele>125</ele>
        <time>2017-07-30T06:43:01.335Z</time>
      </trkpt>
      <trkpt lat="47.78507" lon="2.08772">
        <ele>125</ele>
        <time>2017-07-30T06:43:02.331Z</time>
      </trkpt>
      <trkpt lat="47.78506" lon="2.08765">
        <ele>125</ele>
        <time>2017-07-30T06:43:03.321Z</time>
      </trkpt>
      <trkpt lat="47.78506" lon="2.08765">
        <ele>125</ele>
        <time>2017-07-30T06:43:04.349Z</time>
      </trkpt>
      <trkpt lat="47.78503" lon="2.08753">
        <ele>125</ele>
        <time>2017-07-30T06:43:05.346Z</time>
      </trkpt>
      <trkpt lat="47.78503" lon="2.08753">
        <ele>125</ele>
        <time>2017-07-30T06:43:06.333Z</time>
      </trkpt>
      <trkpt lat="47.785" lon="2.08741">
        <ele>124</ele>
        <time>2017-07-30T06:43:07.331Z</time>
      </trkpt>
      <trkpt lat="47.785" lon="2.08741">
        <ele>124</ele>
        <time>2017-07-30T06:43:08.322Z</time>
      </trkpt>
      <trkpt lat="47.78498" lon="2.08729">
        <ele>125</ele>
        <time>2017-07-30T06:43:09.350Z</time>
      </trkpt>
      <trkpt lat="47.78498" lon="2.08729">
        <ele>125</ele>
        <time>2017-07-30T06:43:10.341Z</time>
      </trkpt>
      <trkpt lat="47.78495" lon="2.08717">
        <ele>125</ele>
        <time>2017-07-30T06:43:11.338Z</time>
      </trkpt>
      <trkpt lat="47.78495" lon="2.08717">
        <ele>125</ele>
        <time>2017-07-30T06:43:12.332Z</time>
      </trkpt>
      <trkpt lat="47.78493" lon="2.08705">
        <ele>125</ele>
        <time>2017-07-30T06:43:13.341Z</time>
      </trkpt>
      <trkpt lat="47.78493" lon="2.08705">
        <ele>125</ele>
        <time>2017-07-30T06:43:14.331Z</time>
      </trkpt>
      <trkpt lat="47.7849" lon="2.08693">
        <ele>125</ele>
        <time>2017-07-30T06:43:15.319Z</time>
      </trkpt>
      <trkpt lat="47.7849" lon="2.08693">
        <ele>125</ele>
        <time>2017-07-30T06:43:16.348Z</time>
      </trkpt>
      <trkpt lat="47.78487" lon="2.08682">
        <ele>124</ele>
        <time>2017-07-30T06:43:17.320Z</time>
      </trkpt>
      <trkpt lat="47.78487" lon="2.08682">
        <ele>124</ele>
        <time>2017-07-30T06:43:18.348Z</time>
      </trkpt>
      <trkpt lat="47.78484" lon="2.08671">
        <ele>125</ele>
        <time>2017-07-30T06:43:19.313Z</time>
      </trkpt>
      <trkpt lat="47.78484" lon="2.08671">
        <ele>125</ele>
        <time>2017-07-30T06:43:20.350Z</time>
      </trkpt>
      <trkpt lat="47.78482" lon="2.0866">
        <ele>125</ele>
        <time>2017-07-30T06:43:21.346Z</time>
      </trkpt>
      <trkpt lat="47.78482" lon="2.0866">
        <ele>125</ele>
        <time>2017-07-30T06:43:22.339Z</time>
      </trkpt>
      <trkpt lat="47.78479" lon="2.08649">
        <ele>125</ele>
        <time>2017-07-30T06:43:23.331Z</time>
      </trkpt>
      <trkpt lat="47.78479" lon="2.08649">
        <ele>125</ele>
        <time>2017-07-30T06:43:24.319Z</time>
      </trkpt>
      <trkpt lat="47.78476" lon="2.08637">
        <ele>125</ele>
        <time>2017-07-30T06:43:25.347Z</time>
      </trkpt>
      <trkpt lat="47.78476" lon="2.08637">
        <ele>125</ele>
        <time>2017-07-30T06:43:26.337Z</time>
      </trkpt>
      <trkpt lat="47.78474" lon="2.08626">
        <ele>126</ele>
        <time>2017-07-30T06:43:27.347Z</time>
      </trkpt>
      <trkpt lat="47.78474" lon="2.08626">
        <ele>126</ele>
        <time>2017-07-30T06:43:28.337Z</time>
      </trkpt>
      <trkpt lat="47.78471" lon="2.08614">
        <ele>126</ele>
        <time>2017-07-30T06:43:29.325Z</time>
      </trkpt>
      <trkpt lat="47.78471" lon="2.08614">
        <ele>126</ele>
        <time>2017-07-30T06:43:30.320Z</time>
      </trkpt>
      <trkpt lat="47.78468" lon="2.08601">
        <ele>125</ele>
        <time>2017-07-30T06:43:31.348Z</time>
      </trkpt>
      <trkpt lat="47.78468" lon="2.08601">
        <ele>125</ele>
        <time>2017-07-30T06:43:32.337Z</time>
      </trkpt>
      <trkpt lat="47.78465" lon="2.08589">
        <ele>125</ele>
        <time>2017-07-30T06:43:33.325Z</time>
      </trkpt>
      <trkpt lat="47.78465" lon="2.08589">
        <ele>125</ele>
        <time>2017-07-30T06:43:34.313Z</time>
      </trkpt>
      <trkpt lat="47.78462" lon="2.08576">
        <ele>125</ele>
        <time>2017-07-30T06:43:35.342Z</time>
      </trkpt>
      <trkpt lat="47.78462" lon="2.08576">
        <ele>125</ele>
        <time>2017-07-30T06:43:36.330Z</time>
      </trkpt>
      <trkpt lat="47.78459" lon="2.08563">
        <ele>125</ele>
        <time>2017-07-30T06:43:37.313Z</time>
      </trkpt>
      <trkpt lat="47.78458" lon="2.08556">
        <ele>125</ele>
        <time>2017-07-30T06:43:38.341Z</time>
      </trkpt>
      <trkpt lat="47.78456" lon="2.08549">
        <ele>125</ele>
        <time>2017-07-30T06:43:39.343Z</time>
      </trkpt>
      <trkpt lat="47.78456" lon="2.08549">
        <ele>125</ele>
        <time>2017-07-30T06:43:40.345Z</time>
      </trkpt>
      <trkpt lat="47.78453" lon="2.08536">
        <ele>125</ele>
        <time>2017-07-30T06:43:41.342Z</time>
      </trkpt>
      <trkpt lat="47.78453" lon="2.08536">
        <ele>125</ele>
        <time>2017-07-30T06:43:42.336Z</time>
      </trkpt>
      <trkpt lat="47.7845" lon="2.08522">
        <ele>125</ele>
        <time>2017-07-30T06:43:43.329Z</time>
      </trkpt>
      <trkpt lat="47.7845" lon="2.08522">
        <ele>125</ele>
        <time>2017-07-30T06:43:44.321Z</time>
      </trkpt>
      <trkpt lat="47.78446" lon="2.0851">
        <ele>124</ele>
        <time>2017-07-30T06:43:45.313Z</time>
      </trkpt>
      <trkpt lat="47.78446" lon="2.0851">
        <ele>124</ele>
        <time>2017-07-30T06:43:46.341Z</time>
      </trkpt>
      <trkpt lat="47.78443" lon="2.08496">
        <ele>124</ele>
        <time>2017-07-30T06:43:47.345Z</time>
      </trkpt>
      <trkpt lat="47.78442" lon="2.0849">
        <ele>124</ele>
        <time>2017-07-30T06:43:48.343Z</time>
      </trkpt>
      <trkpt lat="47.78442" lon="2.0849">
        <ele>124</ele>
        <time>2017-07-30T06:43:49.331Z</time>
      </trkpt>
      <trkpt lat="47.78439" lon="2.08476">
        <ele>125</ele>
        <time>2017-07-30T06:43:50.330Z</time>
      </trkpt>
      <trkpt lat="47.78438" lon="2.08469">
        <ele>125</ele>
        <time>2017-07-30T06:43:51.319Z</time>
      </trkpt>
      <trkpt lat="47.78436" lon="2.08462">
        <ele>125</ele>
        <time>2017-07-30T06:43:52.348Z</time>
      </trkpt>
      <trkpt lat="47.78436" lon="2.08462">
        <ele>125</ele>
        <time>2017-07-30T06:43:53.336Z</time>
      </trkpt>
      <trkpt lat="47.78433" lon="2.08448">
        <ele>125</ele>
        <time>2017-07-30T06:43:54.344Z</time>
      </trkpt>
      <trkpt lat="47.78433" lon="2.08448">
        <ele>125</ele>
        <time>2017-07-30T06:43:55.333Z</time>
      </trkpt>
      <trkpt lat="47.7843" lon="2.08435">
        <ele>125</ele>
        <time>2017-07-30T06:43:56.323Z</time>
      </trkpt>
      <trkpt lat="47.7843" lon="2.08435">
        <ele>125</ele>
        <time>2017-07-30T06:43:57.312Z</time>
      </trkpt>
      <trkpt lat="47.78427" lon="2.08421">
        <ele>125</ele>
        <time>2017-07-30T06:43:58.333Z</time>
      </trkpt>
      <trkpt lat="47.78426" lon="2.08415">
        <ele>125</ele>
        <time>2017-07-30T06:43:59.323Z</time>
      </trkpt>
      <trkpt lat="47.78426" lon="2.08415">
        <ele>125</ele>
        <time>2017-07-30T06:44:00.320Z</time>
      </trkpt>
      <trkpt lat="47.78422" lon="2.08402">
        <ele>126</ele>
        <time>2017-07-30T06:44:01.339Z</time>
      </trkpt>
      <trkpt lat="47.78422" lon="2.08402">
        <ele>126</ele>
        <time>2017-07-30T06:44:02.330Z</time>
      </trkpt>
      <trkpt lat="47.7842" lon="2.0839">
        <ele>126</ele>
        <time>2017-07-30T06:44:03.319Z</time>
      </trkpt>
      <trkpt lat="47.78418" lon="2.08384">
        <ele>126</ele>
        <time>2017-07-30T06:44:04.348Z</time>
      </trkpt>
      <trkpt lat="47.78418" lon="2.08384">
        <ele>126</ele>
        <time>2017-07-30T06:44:05.337Z</time>
      </trkpt>
      <trkpt lat="47.78416" lon="2.08373">
        <ele>126</ele>
        <time>2017-07-30T06:44:06.325Z</time>
      </trkpt>
      <trkpt lat="47.78415" lon="2.08367">
        <ele>125</ele>
        <time>2017-07-30T06:44:07.320Z</time>
      </trkpt>
      <trkpt lat="47.78415" lon="2.08367">
        <ele>125</ele>
        <time>2017-07-30T06:44:08.350Z</time>
      </trkpt>
      <trkpt lat="47.78412" lon="2.08356">
        <ele>125</ele>
        <time>2017-07-30T06:44:09.348Z</time>
      </trkpt>
      <trkpt lat="47.78412" lon="2.08356">
        <ele>125</ele>
        <time>2017-07-30T06:44:10.341Z</time>
      </trkpt>
      <trkpt lat="47.78409" lon="2.08344">
        <ele>125</ele>
        <time>2017-07-30T06:44:11.313Z</time>
      </trkpt>
      <trkpt lat="47.78409" lon="2.08344">
        <ele>125</ele>
        <time>2017-07-30T06:44:12.341Z</time>
      </trkpt>
      <trkpt lat="47.78406" lon="2.08331">
        <ele>125</ele>
        <time>2017-07-30T06:44:13.332Z</time>
      </trkpt>
      <trkpt lat="47.78404" lon="2.08325">
        <ele>125</ele>
        <time>2017-07-30T06:44:14.321Z</time>
      </trkpt>
      <trkpt lat="47.78403" lon="2.08319">
        <ele>125</ele>
        <time>2017-07-30T06:44:15.349Z</time>
      </trkpt>
      <trkpt lat="47.78403" lon="2.08319">
        <ele>125</ele>
        <time>2017-07-30T06:44:16.342Z</time>
      </trkpt>
      <trkpt lat="47.784" lon="2.08306">
        <ele>125</ele>
        <time>2017-07-30T06:44:17.337Z</time>
      </trkpt>
      <trkpt lat="47.78398" lon="2.083">
        <ele>125</ele>
        <time>2017-07-30T06:44:18.333Z</time>
      </trkpt>
      <trkpt lat="47.78397" lon="2.08293">
        <ele>126</ele>
        <time>2017-07-30T06:44:19.341Z</time>
      </trkpt>
      <trkpt lat="47.78397" lon="2.08293">
        <ele>126</ele>
        <time>2017-07-30T06:44:20.331Z</time>
      </trkpt>
      <trkpt lat="47.78394" lon="2.0828">
        <ele>125</ele>
        <time>2017-07-30T06:44:21.321Z</time>
      </trkpt>
      <trkpt lat="47.78394" lon="2.0828">
        <ele>125</ele>
        <time>2017-07-30T06:44:22.312Z</time>
      </trkpt>
      <trkpt lat="47.78391" lon="2.08267">
        <ele>125</ele>
        <time>2017-07-30T06:44:23.341Z</time>
      </trkpt>
      <trkpt lat="47.78391" lon="2.08267">
        <ele>125</ele>
        <time>2017-07-30T06:44:24.329Z</time>
      </trkpt>
      <trkpt lat="47.7839" lon="2.08254">
        <ele>125</ele>
        <time>2017-07-30T06:44:25.319Z</time>
      </trkpt>
      <trkpt lat="47.7839" lon="2.08247">
        <ele>125</ele>
        <time>2017-07-30T06:44:26.350Z</time>
      </trkpt>
      <trkpt lat="47.7839" lon="2.08247">
        <ele>125</ele>
        <time>2017-07-30T06:44:27.338Z</time>
      </trkpt>
      <trkpt lat="47.78391" lon="2.08233">
        <ele>125</ele>
        <time>2017-07-30T06:44:28.345Z</time>
      </trkpt>
      <trkpt lat="47.78391" lon="2.08233">
        <ele>125</ele>
        <time>2017-07-30T06:44:29.341Z</time>
      </trkpt>
      <trkpt lat="47.78392" lon="2.08219">
        <ele>126</ele>
        <time>2017-07-30T06:44:30.339Z</time>
      </trkpt>
      <trkpt lat="47.78393" lon="2.08212">
        <ele>126</ele>
        <time>2017-07-30T06:44:31.332Z</time>
      </trkpt>
      <trkpt lat="47.78394" lon="2.08206">
        <ele>126</ele>
        <time>2017-07-30T06:44:32.322Z</time>
      </trkpt>
      <trkpt lat="47.78394" lon="2.08206">
        <ele>126</ele>
        <time>2017-07-30T06:44:33.351Z</time>
      </trkpt>
      <trkpt lat="47.78396" lon="2.08191">
        <ele>126</ele>
        <time>2017-07-30T06:44:34.313Z</time>
      </trkpt>
      <trkpt lat="47.78396" lon="2.08191">
        <ele>126</ele>
        <time>2017-07-30T06:44:35.341Z</time>
      </trkpt>
      <trkpt lat="47.78398" lon="2.08177">
        <ele>126</ele>
        <time>2017-07-30T06:44:36.342Z</time>
      </trkpt>
      <trkpt lat="47.78398" lon="2.08177">
        <ele>126</ele>
        <time>2017-07-30T06:44:37.331Z</time>
      </trkpt>
      <trkpt lat="47.78399" lon="2.08162">
        <ele>126</ele>
        <time>2017-07-30T06:44:38.328Z</time>
      </trkpt>
      <trkpt lat="47.784" lon="2.08154">
        <ele>126</ele>
        <time>2017-07-30T06:44:39.327Z</time>
      </trkpt>
      <trkpt lat="47.784" lon="2.08154">
        <ele>126</ele>
        <time>2017-07-30T06:44:40.344Z</time>
      </trkpt>
      <trkpt lat="47.78402" lon="2.0814">
        <ele>126</ele>
        <time>2017-07-30T06:44:41.341Z</time>
      </trkpt>
      <trkpt lat="47.78402" lon="2.0814">
        <ele>126</ele>
        <time>2017-07-30T06:44:42.336Z</time>
      </trkpt>
      <trkpt lat="47.78403" lon="2.08126">
        <ele>126</ele>
        <time>2017-07-30T06:44:43.333Z</time>
      </trkpt>
      <trkpt lat="47.78403" lon="2.08126">
        <ele>126</ele>
        <time>2017-07-30T06:44:44.340Z</time>
      </trkpt>
      <trkpt lat="47.78405" lon="2.08111">
        <ele>127</ele>
        <time>2017-07-30T06:44:45.338Z</time>
      </trkpt>
      <trkpt lat="47.78405" lon="2.08111">
        <ele>127</ele>
        <time>2017-07-30T06:44:46.327Z</time>
      </trkpt>
      <trkpt lat="47.78407" lon="2.08095">
        <ele>126</ele>
        <time>2017-07-30T06:44:47.321Z</time>
      </trkpt>
      <trkpt lat="47.78407" lon="2.08095">
        <ele>126</ele>
        <time>2017-07-30T06:44:48.321Z</time>
      </trkpt>
      <trkpt lat="47.78409" lon="2.0808">
        <ele>126</ele>
        <time>2017-07-30T06:44:49.350Z</time>
      </trkpt>
      <trkpt lat="47.78409" lon="2.0808">
        <ele>126</ele>
        <time>2017-07-30T06:44:50.341Z</time>
      </trkpt>
      <trkpt lat="47.78411" lon="2.08065">
        <ele>126</ele>
        <time>2017-07-30T06:44:51.337Z</time>
      </trkpt>
      <trkpt lat="47.78411" lon="2.08065">
        <ele>126</ele>
        <time>2017-07-30T06:44:52.326Z</time>
      </trkpt>
      <trkpt lat="47.78413" lon="2.0805">
        <ele>126</ele>
        <time>2017-07-30T06:44:53.314Z</time>
      </trkpt>
      <trkpt lat="47.78413" lon="2.0805">
        <ele>126</ele>
        <time>2017-07-30T06:44:54.343Z</time>
      </trkpt>
      <trkpt lat="47.78415" lon="2.08035">
        <ele>126</ele>
        <time>2017-07-30T06:44:55.343Z</time>
      </trkpt>
      <trkpt lat="47.78415" lon="2.08035">
        <ele>126</ele>
        <time>2017-07-30T06:44:56.331Z</time>
      </trkpt>
      <trkpt lat="47.78417" lon="2.08021">
        <ele>126</ele>
        <time>2017-07-30T06:44:57.321Z</time>
      </trkpt>
      <trkpt lat="47.78417" lon="2.08021">
        <ele>126</ele>
        <time>2017-07-30T06:44:58.316Z</time>
      </trkpt>
      <trkpt lat="47.78418" lon="2.08006">
        <ele>126</ele>
        <time>2017-07-30T06:44:59.347Z</time>
      </trkpt>
      <trkpt lat="47.78418" lon="2.08006">
        <ele>126</ele>
        <time>2017-07-30T06:45:00.346Z</time>
      </trkpt>
      <trkpt lat="47.7842" lon="2.07991">
        <ele>126</ele>
        <time>2017-07-30T06:45:01.343Z</time>
      </trkpt>
      <trkpt lat="47.7842" lon="2.07991">
        <ele>126</ele>
        <time>2017-07-30T06:45:02.331Z</time>
      </trkpt>
      <trkpt lat="47.78422" lon="2.07976">
        <ele>126</ele>
        <time>2017-07-30T06:45:03.323Z</time>
      </trkpt>
      <trkpt lat="47.78422" lon="2.07976">
        <ele>126</ele>
        <time>2017-07-30T06:45:04.311Z</time>
      </trkpt>
      <trkpt lat="47.78424" lon="2.07962">
        <ele>126</ele>
        <time>2017-07-30T06:45:05.341Z</time>
      </trkpt>
      <trkpt lat="47.78424" lon="2.07962">
        <ele>126</ele>
        <time>2017-07-30T06:45:06.330Z</time>
      </trkpt>
      <trkpt lat="47.78426" lon="2.07948">
        <ele>126</ele>
        <time>2017-07-30T06:45:07.321Z</time>
      </trkpt>
      <trkpt lat="47.78426" lon="2.07948">
        <ele>126</ele>
        <time>2017-07-30T06:45:08.317Z</time>
      </trkpt>
      <trkpt lat="47.78428" lon="2.07933">
        <ele>126</ele>
        <time>2017-07-30T06:45:09.350Z</time>
      </trkpt>
      <trkpt lat="47.78428" lon="2.07933">
        <ele>126</ele>
        <time>2017-07-30T06:45:10.340Z</time>
      </trkpt>
      <trkpt lat="47.78429" lon="2.07919">
        <ele>126</ele>
        <time>2017-07-30T06:45:11.332Z</time>
      </trkpt>
      <trkpt lat="47.7843" lon="2.07912">
        <ele>126</ele>
        <time>2017-07-30T06:45:12.321Z</time>
      </trkpt>
      <trkpt lat="47.7843" lon="2.07912">
        <ele>126</ele>
        <time>2017-07-30T06:45:13.350Z</time>
      </trkpt>
      <trkpt lat="47.78432" lon="2.07898">
        <ele>126</ele>
        <time>2017-07-30T06:45:14.313Z</time>
      </trkpt>
      <trkpt lat="47.78433" lon="2.07891">
        <ele>126</ele>
        <time>2017-07-30T06:45:15.342Z</time>
      </trkpt>
      <trkpt lat="47.78433" lon="2.07891">
        <ele>126</ele>
        <time>2017-07-30T06:45:16.331Z</time>
      </trkpt>
      <trkpt lat="47.78435" lon="2.07876">
        <ele>126</ele>
        <time>2017-07-30T06:45:17.329Z</time>
      </trkpt>
      <trkpt lat="47.78435" lon="2.07876">
        <ele>126</ele>
        <time>2017-07-30T06:45:18.328Z</time>
      </trkpt>
      <trkpt lat="47.78437" lon="2.07862">
        <ele>126</ele>
        <time>2017-07-30T06:45:19.313Z</time>
      </trkpt>
      <trkpt lat="47.78437" lon="2.07862">
        <ele>126</ele>
        <time>2017-07-30T06:45:20.350Z</time>
      </trkpt>
      <trkpt lat="47.78439" lon="2.07848">
        <ele>126</ele>
        <time>2017-07-30T06:45:21.319Z</time>
      </trkpt>
      <trkpt lat="47.78439" lon="2.07848">
        <ele>126</ele>
        <time>2017-07-30T06:45:22.350Z</time>
      </trkpt>
      <trkpt lat="47.78441" lon="2.07833">
        <ele>125</ele>
        <time>2017-07-30T06:45:23.341Z</time>
      </trkpt>
      <trkpt lat="47.78441" lon="2.07833">
        <ele>125</ele>
        <time>2017-07-30T06:45:24.350Z</time>
      </trkpt>
      <trkpt lat="47.78443" lon="2.07818">
        <ele>125</ele>
        <time>2017-07-30T06:45:25.314Z</time>
      </trkpt>
      <trkpt lat="47.78444" lon="2.07811">
        <ele>125</ele>
        <time>2017-07-30T06:45:26.341Z</time>
      </trkpt>
      <trkpt lat="47.78445" lon="2.07804">
        <ele>125</ele>
        <time>2017-07-30T06:45:27.333Z</time>
      </trkpt>
      <trkpt lat="47.78445" lon="2.07804">
        <ele>125</ele>
        <time>2017-07-30T06:45:28.341Z</time>
      </trkpt>
      <trkpt lat="47.78447" lon="2.07789">
        <ele>125</ele>
        <time>2017-07-30T06:45:29.317Z</time>
      </trkpt>
      <trkpt lat="47.78447" lon="2.07789">
        <ele>125</ele>
        <time>2017-07-30T06:45:30.350Z</time>
      </trkpt>
      <trkpt lat="47.78449" lon="2.07773">
        <ele>125</ele>
        <time>2017-07-30T06:45:31.340Z</time>
      </trkpt>
      <trkpt lat="47.7845" lon="2.07766">
        <ele>125</ele>
        <time>2017-07-30T06:45:32.337Z</time>
      </trkpt>
      <trkpt lat="47.78451" lon="2.07758">
        <ele>125</ele>
        <time>2017-07-30T06:45:33.358Z</time>
      </trkpt>
      <trkpt lat="47.78451" lon="2.07758">
        <ele>125</ele>
        <time>2017-07-30T06:45:34.329Z</time>
      </trkpt>
      <trkpt lat="47.78453" lon="2.07743">
        <ele>124</ele>
        <time>2017-07-30T06:45:35.318Z</time>
      </trkpt>
      <trkpt lat="47.78454" lon="2.07736">
        <ele>124</ele>
        <time>2017-07-30T06:45:36.349Z</time>
      </trkpt>
      <trkpt lat="47.78454" lon="2.07736">
        <ele>124</ele>
        <time>2017-07-30T06:45:37.338Z</time>
      </trkpt>
      <trkpt lat="47.78456" lon="2.07722">
        <ele>124</ele>
        <time>2017-07-30T06:45:38.341Z</time>
      </trkpt>
      <trkpt lat="47.78456" lon="2.07722">
        <ele>124</ele>
        <time>2017-07-30T06:45:39.322Z</time>
      </trkpt>
      <trkpt lat="47.78458" lon="2.07706">
        <ele>124</ele>
        <time>2017-07-30T06:45:40.316Z</time>
      </trkpt>
      <trkpt lat="47.78458" lon="2.07706">
        <ele>124</ele>
        <time>2017-07-30T06:45:41.345Z</time>
      </trkpt>
      <trkpt lat="47.7846" lon="2.07691">
        <ele>124</ele>
        <time>2017-07-30T06:45:42.348Z</time>
      </trkpt>
      <trkpt lat="47.7846" lon="2.07691">
        <ele>124</ele>
        <time>2017-07-30T06:45:43.332Z</time>
      </trkpt>
      <trkpt lat="47.78462" lon="2.07676">
        <ele>124</ele>
        <time>2017-07-30T06:45:44.321Z</time>
      </trkpt>
      <trkpt lat="47.78463" lon="2.07669">
        <ele>124</ele>
        <time>2017-07-30T06:45:45.349Z</time>
      </trkpt>
      <trkpt lat="47.78463" lon="2.07669">
        <ele>124</ele>
        <time>2017-07-30T06:45:46.337Z</time>
      </trkpt>
      <trkpt lat="47.78465" lon="2.07654">
        <ele>124</ele>
        <time>2017-07-30T06:45:47.327Z</time>
      </trkpt>
      <trkpt lat="47.78467" lon="2.07646">
        <ele>124</ele>
        <time>2017-07-30T06:45:48.341Z</time>
      </trkpt>
      <trkpt lat="47.78467" lon="2.07646">
        <ele>124</ele>
        <time>2017-07-30T06:45:49.330Z</time>
      </trkpt>
      <trkpt lat="47.78469" lon="2.07631">
        <ele>123</ele>
        <time>2017-07-30T06:45:50.321Z</time>
      </trkpt>
      <trkpt lat="47.78469" lon="2.07631">
        <ele>123</ele>
        <time>2017-07-30T06:45:51.349Z</time>
      </trkpt>
      <trkpt lat="47.78473" lon="2.07616">
        <ele>123</ele>
        <time>2017-07-30T06:45:52.350Z</time>
      </trkpt>
      <trkpt lat="47.78474" lon="2.07609">
        <ele>123</ele>
        <time>2017-07-30T06:45:53.315Z</time>
      </trkpt>
      <trkpt lat="47.78474" lon="2.07609">
        <ele>123</ele>
        <time>2017-07-30T06:45:54.343Z</time>
      </trkpt>
      <trkpt lat="47.78478" lon="2.07594">
        <ele>123</ele>
        <time>2017-07-30T06:45:55.340Z</time>
      </trkpt>
      <trkpt lat="47.78478" lon="2.07594">
        <ele>123</ele>
        <time>2017-07-30T06:45:56.331Z</time>
      </trkpt>
      <trkpt lat="47.78481" lon="2.07579">
        <ele>123</ele>
        <time>2017-07-30T06:45:57.331Z</time>
      </trkpt>
      <trkpt lat="47.78481" lon="2.07579">
        <ele>123</ele>
        <time>2017-07-30T06:45:58.325Z</time>
      </trkpt>
      <trkpt lat="47.78485" lon="2.07564">
        <ele>123</ele>
        <time>2017-07-30T06:45:59.319Z</time>
      </trkpt>
      <trkpt lat="47.78487" lon="2.07557">
        <ele>122</ele>
        <time>2017-07-30T06:46:00.320Z</time>
      </trkpt>
      <trkpt lat="47.78487" lon="2.07557">
        <ele>122</ele>
        <time>2017-07-30T06:46:01.348Z</time>
      </trkpt>
      <trkpt lat="47.78491" lon="2.07541">
        <ele>123</ele>
        <time>2017-07-30T06:46:02.345Z</time>
      </trkpt>
      <trkpt lat="47.78493" lon="2.07534">
        <ele>123</ele>
        <time>2017-07-30T06:46:03.345Z</time>
      </trkpt>
      <trkpt lat="47.78493" lon="2.07534">
        <ele>123</ele>
        <time>2017-07-30T06:46:04.340Z</time>
      </trkpt>
      <trkpt lat="47.78496" lon="2.07518">
        <ele>123</ele>
        <time>2017-07-30T06:46:05.335Z</time>
      </trkpt>
      <trkpt lat="47.78498" lon="2.0751">
        <ele>123</ele>
        <time>2017-07-30T06:46:06.324Z</time>
      </trkpt>
      <trkpt lat="47.78498" lon="2.0751">
        <ele>123</ele>
        <time>2017-07-30T06:46:07.312Z</time>
      </trkpt>
      <trkpt lat="47.78502" lon="2.07495">
        <ele>122</ele>
        <time>2017-07-30T06:46:08.341Z</time>
      </trkpt>
      <trkpt lat="47.78504" lon="2.07487">
        <ele>122</ele>
        <time>2017-07-30T06:46:09.346Z</time>
      </trkpt>
      <trkpt lat="47.78504" lon="2.07487">
        <ele>122</ele>
        <time>2017-07-30T06:46:10.338Z</time>
      </trkpt>
      <trkpt lat="47.78508" lon="2.07472">
        <ele>122</ele>
        <time>2017-07-30T06:46:11.338Z</time>
      </trkpt>
      <trkpt lat="47.78508" lon="2.07472">
        <ele>122</ele>
        <time>2017-07-30T06:46:12.328Z</time>
      </trkpt>
      <trkpt lat="47.78512" lon="2.07457">
        <ele>122</ele>
        <time>2017-07-30T06:46:13.340Z</time>
      </trkpt>
      <trkpt lat="47.78512" lon="2.07457">
        <ele>122</ele>
        <time>2017-07-30T06:46:14.328Z</time>
      </trkpt>
      <trkpt lat="47.78517" lon="2.07443">
        <ele>122</ele>
        <time>2017-07-30T06:46:15.316Z</time>
      </trkpt>
      <trkpt lat="47.78517" lon="2.07443">
        <ele>122</ele>
        <time>2017-07-30T06:46:16.350Z</time>
      </trkpt>
      <trkpt lat="47.78523" lon="2.0743">
        <ele>122</ele>
        <time>2017-07-30T06:46:17.319Z</time>
      </trkpt>
      <trkpt lat="47.78527" lon="2.07424">
        <ele>122</ele>
        <time>2017-07-30T06:46:18.348Z</time>
      </trkpt>
      <trkpt lat="47.78531" lon="2.07419">
        <ele>122</ele>
        <time>2017-07-30T06:46:19.316Z</time>
      </trkpt>
      <trkpt lat="47.78531" lon="2.07419">
        <ele>122</ele>
        <time>2017-07-30T06:46:20.348Z</time>
      </trkpt>
      <trkpt lat="47.78539" lon="2.07409">
        <ele>122</ele>
        <time>2017-07-30T06:46:21.341Z</time>
      </trkpt>
      <trkpt lat="47.78539" lon="2.07409">
        <ele>122</ele>
        <time>2017-07-30T06:46:22.331Z</time>
      </trkpt>
      <trkpt lat="47.78549" lon="2.07401">
        <ele>122</ele>
        <time>2017-07-30T06:46:23.339Z</time>
      </trkpt>
      <trkpt lat="47.78554" lon="2.07397">
        <ele>122</ele>
        <time>2017-07-30T06:46:24.325Z</time>
      </trkpt>
      <trkpt lat="47.78554" lon="2.07397">
        <ele>122</ele>
        <time>2017-07-30T06:46:25.315Z</time>
      </trkpt>
      <trkpt lat="47.78562" lon="2.07387">
        <ele>122</ele>
        <time>2017-07-30T06:46:26.344Z</time>
      </trkpt>
      <trkpt lat="47.78566" lon="2.0738">
        <ele>122</ele>
        <time>2017-07-30T06:46:27.338Z</time>
      </trkpt>
      <trkpt lat="47.78566" lon="2.0738">
        <ele>122</ele>
        <time>2017-07-30T06:46:28.327Z</time>
      </trkpt>
      <trkpt lat="47.78573" lon="2.07365">
        <ele>122</ele>
        <time>2017-07-30T06:46:29.325Z</time>
      </trkpt>
      <trkpt lat="47.78576" lon="2.07357">
        <ele>122</ele>
        <time>2017-07-30T06:46:30.320Z</time>
      </trkpt>
      <trkpt lat="47.78576" lon="2.07357">
        <ele>122</ele>
        <time>2017-07-30T06:46:31.348Z</time>
      </trkpt>
      <trkpt lat="47.78579" lon="2.07342">
        <ele>122</ele>
        <time>2017-07-30T06:46:32.350Z</time>
      </trkpt>
      <trkpt lat="47.78579" lon="2.07342">
        <ele>122</ele>
        <time>2017-07-30T06:46:33.338Z</time>
      </trkpt>
      <trkpt lat="47.78584" lon="2.07329">
        <ele>122</ele>
        <time>2017-07-30T06:46:34.341Z</time>
      </trkpt>
      <trkpt lat="47.78584" lon="2.07329">
        <ele>122</ele>
        <time>2017-07-30T06:46:35.331Z</time>
      </trkpt>
      <trkpt lat="47.78587" lon="2.07315">
        <ele>123</ele>
        <time>2017-07-30T06:46:36.337Z</time>
      </trkpt>
      <trkpt lat="47.78587" lon="2.07315">
        <ele>123</ele>
        <time>2017-07-30T06:46:37.329Z</time>
      </trkpt>
      <trkpt lat="47.78587" lon="2.073">
        <ele>123</ele>
        <time>2017-07-30T06:46:38.320Z</time>
      </trkpt>
      <trkpt lat="47.78587" lon="2.07292">
        <ele>123</ele>
        <time>2017-07-30T06:46:39.315Z</time>
      </trkpt>
      <trkpt lat="47.78587" lon="2.07292">
        <ele>123</ele>
        <time>2017-07-30T06:46:40.350Z</time>
      </trkpt>
      <trkpt lat="47.78586" lon="2.07276">
        <ele>124</ele>
        <time>2017-07-30T06:46:41.317Z</time>
      </trkpt>
      <trkpt lat="47.78585" lon="2.07269">
        <ele>123</ele>
        <time>2017-07-30T06:46:42.330Z</time>
      </trkpt>
      <trkpt lat="47.78585" lon="2.07269">
        <ele>123</ele>
        <time>2017-07-30T06:46:43.322Z</time>
      </trkpt>
      <trkpt lat="47.78583" lon="2.07254">
        <ele>123</ele>
        <time>2017-07-30T06:46:44.311Z</time>
      </trkpt>
      <trkpt lat="47.78583" lon="2.07254">
        <ele>123</ele>
        <time>2017-07-30T06:46:45.341Z</time>
      </trkpt>
      <trkpt lat="47.78582" lon="2.07239">
        <ele>123</ele>
        <time>2017-07-30T06:46:46.338Z</time>
      </trkpt>
      <trkpt lat="47.78582" lon="2.07239">
        <ele>123</ele>
        <time>2017-07-30T06:46:47.329Z</time>
      </trkpt>
      <trkpt lat="47.78583" lon="2.07222">
        <ele>123</ele>
        <time>2017-07-30T06:46:48.341Z</time>
      </trkpt>
      <trkpt lat="47.78583" lon="2.07222">
        <ele>123</ele>
        <time>2017-07-30T06:46:49.335Z</time>
      </trkpt>
      <trkpt lat="47.78585" lon="2.07206">
        <ele>123</ele>
        <time>2017-07-30T06:46:50.327Z</time>
      </trkpt>
      <trkpt lat="47.78586" lon="2.07197">
        <ele>123</ele>
        <time>2017-07-30T06:46:51.332Z</time>
      </trkpt>
      <trkpt lat="47.78587" lon="2.07189">
        <ele>123</ele>
        <time>2017-07-30T06:46:52.322Z</time>
      </trkpt>
      <trkpt lat="47.78588" lon="2.0718">
        <ele>123</ele>
        <time>2017-07-30T06:46:53.322Z</time>
      </trkpt>
      <trkpt lat="47.78588" lon="2.0718">
        <ele>123</ele>
        <time>2017-07-30T06:46:54.350Z</time>
      </trkpt>
      <trkpt lat="47.78591" lon="2.07164">
        <ele>123</ele>
        <time>2017-07-30T06:46:55.345Z</time>
      </trkpt>
      <trkpt lat="47.78591" lon="2.07164">
        <ele>123</ele>
        <time>2017-07-30T06:46:56.334Z</time>
      </trkpt>
      <trkpt lat="47.78592" lon="2.07148">
        <ele>123</ele>
        <time>2017-07-30T06:46:57.323Z</time>
      </trkpt>
      <trkpt lat="47.78592" lon="2.07148">
        <ele>123</ele>
        <time>2017-07-30T06:46:58.311Z</time>
      </trkpt>
      <trkpt lat="47.78595" lon="2.07132">
        <ele>123</ele>
        <time>2017-07-30T06:46:59.345Z</time>
      </trkpt>
      <trkpt lat="47.78596" lon="2.07124">
        <ele>123</ele>
        <time>2017-07-30T06:47:00.346Z</time>
      </trkpt>
      <trkpt lat="47.78596" lon="2.07124">
        <ele>123</ele>
        <time>2017-07-30T06:47:01.337Z</time>
      </trkpt>
      <trkpt lat="47.78598" lon="2.07108">
        <ele>122</ele>
        <time>2017-07-30T06:47:02.338Z</time>
      </trkpt>
      <trkpt lat="47.78598" lon="2.07108">
        <ele>122</ele>
        <time>2017-07-30T06:47:03.330Z</time>
      </trkpt>
      <trkpt lat="47.786" lon="2.07092">
        <ele>122</ele>
        <time>2017-07-30T06:47:04.323Z</time>
      </trkpt>
      <trkpt lat="47.786" lon="2.07092">
        <ele>122</ele>
        <time>2017-07-30T06:47:05.311Z</time>
      </trkpt>
      <trkpt lat="47.78602" lon="2.07075">
        <ele>122</ele>
        <time>2017-07-30T06:47:06.343Z</time>
      </trkpt>
      <trkpt lat="47.78602" lon="2.07075">
        <ele>122</ele>
        <time>2017-07-30T06:47:07.338Z</time>
      </trkpt>
      <trkpt lat="47.78604" lon="2.07059">
        <ele>123</ele>
        <time>2017-07-30T06:47:08.333Z</time>
      </trkpt>
      <trkpt lat="47.78604" lon="2.07059">
        <ele>123</ele>
        <time>2017-07-30T06:47:09.345Z</time>
      </trkpt>
      <trkpt lat="47.78607" lon="2.07042">
        <ele>123</ele>
        <time>2017-07-30T06:47:10.338Z</time>
      </trkpt>
      <trkpt lat="47.78608" lon="2.07034">
        <ele>123</ele>
        <time>2017-07-30T06:47:11.327Z</time>
      </trkpt>
      <trkpt lat="47.78608" lon="2.07034">
        <ele>123</ele>
        <time>2017-07-30T06:47:12.315Z</time>
      </trkpt>
      <trkpt lat="47.7861" lon="2.07017">
        <ele>123</ele>
        <time>2017-07-30T06:47:13.344Z</time>
      </trkpt>
      <trkpt lat="47.7861" lon="2.07017">
        <ele>123</ele>
        <time>2017-07-30T06:47:14.334Z</time>
      </trkpt>
      <trkpt lat="47.78613" lon="2.07001">
        <ele>123</ele>
        <time>2017-07-30T06:47:15.325Z</time>
      </trkpt>
      <trkpt lat="47.78613" lon="2.07001">
        <ele>123</ele>
        <time>2017-07-30T06:47:16.314Z</time>
      </trkpt>
      <trkpt lat="47.78616" lon="2.06985">
        <ele>124</ele>
        <time>2017-07-30T06:47:17.343Z</time>
      </trkpt>
      <trkpt lat="47.78616" lon="2.06985">
        <ele>124</ele>
        <time>2017-07-30T06:47:18.331Z</time>
      </trkpt>
      <trkpt lat="47.78619" lon="2.06968">
        <ele>124</ele>
        <time>2017-07-30T06:47:19.322Z</time>
      </trkpt>
      <trkpt lat="47.78619" lon="2.06968">
        <ele>124</ele>
        <time>2017-07-30T06:47:20.320Z</time>
      </trkpt>
      <trkpt lat="47.78622" lon="2.06951">
        <ele>125</ele>
        <time>2017-07-30T06:47:21.314Z</time>
      </trkpt>
      <trkpt lat="47.78623" lon="2.06943">
        <ele>125</ele>
        <time>2017-07-30T06:47:22.342Z</time>
      </trkpt>
      <trkpt lat="47.78624" lon="2.06934">
        <ele>125</ele>
        <time>2017-07-30T06:47:23.333Z</time>
      </trkpt>
      <trkpt lat="47.78624" lon="2.06934">
        <ele>125</ele>
        <time>2017-07-30T06:47:24.340Z</time>
      </trkpt>
      <trkpt lat="47.78627" lon="2.06917">
        <ele>125</ele>
        <time>2017-07-30T06:47:25.316Z</time>
      </trkpt>
      <trkpt lat="47.78627" lon="2.06917">
        <ele>125</ele>
        <time>2017-07-30T06:47:26.311Z</time>
      </trkpt>
      <trkpt lat="47.78629" lon="2.06901">
        <ele>126</ele>
        <time>2017-07-30T06:47:27.341Z</time>
      </trkpt>
      <trkpt lat="47.7863" lon="2.06893">
        <ele>126</ele>
        <time>2017-07-30T06:47:28.338Z</time>
      </trkpt>
      <trkpt lat="47.7863" lon="2.06893">
        <ele>126</ele>
        <time>2017-07-30T06:47:29.329Z</time>
      </trkpt>
      <trkpt lat="47.78633" lon="2.06876">
        <ele>126</ele>
        <time>2017-07-30T06:47:30.326Z</time>
      </trkpt>
      <trkpt lat="47.78633" lon="2.06876">
        <ele>126</ele>
        <time>2017-07-30T06:47:31.320Z</time>
      </trkpt>
      <trkpt lat="47.78636" lon="2.06859">
        <ele>127</ele>
        <time>2017-07-30T06:47:32.319Z</time>
      </trkpt>
      <trkpt lat="47.78637" lon="2.06851">
        <ele>127</ele>
        <time>2017-07-30T06:47:33.311Z</time>
      </trkpt>
      <trkpt lat="47.78637" lon="2.06851">
        <ele>127</ele>
        <time>2017-07-30T06:47:34.339Z</time>
      </trkpt>
      <trkpt lat="47.7864" lon="2.06833">
        <ele>127</ele>
        <time>2017-07-30T06:47:35.341Z</time>
      </trkpt>
      <trkpt lat="47.7864" lon="2.06833">
        <ele>127</ele>
        <time>2017-07-30T06:47:36.330Z</time>
      </trkpt>
      <trkpt lat="47.78642" lon="2.06817">
        <ele>127</ele>
        <time>2017-07-30T06:47:37.320Z</time>
      </trkpt>
      <trkpt lat="47.78642" lon="2.06817">
        <ele>127</ele>
        <time>2017-07-30T06:47:38.348Z</time>
      </trkpt>
      <trkpt lat="47.78644" lon="2.06803">
        <ele>128</ele>
        <time>2017-07-30T06:47:39.344Z</time>
      </trkpt>
      <trkpt lat="47.78644" lon="2.06803">
        <ele>128</ele>
        <time>2017-07-30T06:47:40.342Z</time>
      </trkpt>
      <trkpt lat="47.78646" lon="2.06788">
        <ele>128</ele>
        <time>2017-07-30T06:47:41.333Z</time>
      </trkpt>
      <trkpt lat="47.78647" lon="2.0678">
        <ele>128</ele>
        <time>2017-07-30T06:47:42.336Z</time>
      </trkpt>
      <trkpt lat="47.78649" lon="2.06773">
        <ele>128</ele>
        <time>2017-07-30T06:47:43.325Z</time>
      </trkpt>
      <trkpt lat="47.78649" lon="2.06773">
        <ele>128</ele>
        <time>2017-07-30T06:47:44.313Z</time>
      </trkpt>
      <trkpt lat="47.78651" lon="2.06759">
        <ele>128</ele>
        <time>2017-07-30T06:47:45.343Z</time>
      </trkpt>
      <trkpt lat="47.78651" lon="2.06759">
        <ele>128</ele>
        <time>2017-07-30T06:47:46.332Z</time>
      </trkpt>
      <trkpt lat="47.78654" lon="2.06745">
        <ele>127</ele>
        <time>2017-07-30T06:47:47.320Z</time>
      </trkpt>
      <trkpt lat="47.78654" lon="2.06745">
        <ele>127</ele>
        <time>2017-07-30T06:47:48.348Z</time>
      </trkpt>
      <trkpt lat="47.78657" lon="2.06731">
        <ele>127</ele>
        <time>2017-07-30T06:47:49.345Z</time>
      </trkpt>
      <trkpt lat="47.78657" lon="2.06731">
        <ele>127</ele>
        <time>2017-07-30T06:47:50.329Z</time>
      </trkpt>
      <trkpt lat="47.78659" lon="2.06718">
        <ele>127</ele>
        <time>2017-07-30T06:47:51.324Z</time>
      </trkpt>
      <trkpt lat="47.78659" lon="2.06718">
        <ele>127</ele>
        <time>2017-07-30T06:47:52.312Z</time>
      </trkpt>
      <trkpt lat="47.78661" lon="2.06705">
        <ele>127</ele>
        <time>2017-07-30T06:47:53.342Z</time>
      </trkpt>
      <trkpt lat="47.78661" lon="2.06705">
        <ele>127</ele>
        <time>2017-07-30T06:47:54.330Z</time>
      </trkpt>
      <trkpt lat="47.78663" lon="2.06693">
        <ele>126</ele>
        <time>2017-07-30T06:47:55.322Z</time>
      </trkpt>
      <trkpt lat="47.78663" lon="2.06693">
        <ele>126</ele>
        <time>2017-07-30T06:47:56.312Z</time>
      </trkpt>
      <trkpt lat="47.78665" lon="2.0668">
        <ele>126</ele>
        <time>2017-07-30T06:47:57.346Z</time>
      </trkpt>
      <trkpt lat="47.78665" lon="2.0668">
        <ele>126</ele>
        <time>2017-07-30T06:47:58.334Z</time>
      </trkpt>
      <trkpt lat="47.78667" lon="2.06667">
        <ele>127</ele>
        <time>2017-07-30T06:47:59.323Z</time>
      </trkpt>
      <trkpt lat="47.78667" lon="2.06667">
        <ele>127</ele>
        <time>2017-07-30T06:48:00.331Z</time>
      </trkpt>
      <trkpt lat="47.78669" lon="2.06655">
        <ele>126</ele>
        <time>2017-07-30T06:48:01.323Z</time>
      </trkpt>
      <trkpt lat="47.78669" lon="2.06655">
        <ele>126</ele>
        <time>2017-07-30T06:48:02.313Z</time>
      </trkpt>
      <trkpt lat="47.78671" lon="2.06643">
        <ele>126</ele>
        <time>2017-07-30T06:48:03.342Z</time>
      </trkpt>
      <trkpt lat="47.78672" lon="2.06638">
        <ele>126</ele>
        <time>2017-07-30T06:48:04.331Z</time>
      </trkpt>
      <trkpt lat="47.78673" lon="2.06633">
        <ele>126</ele>
        <time>2017-07-30T06:48:05.324Z</time>
      </trkpt>
      <trkpt lat="47.78673" lon="2.06633">
        <ele>126</ele>
        <time>2017-07-30T06:48:06.313Z</time>
      </trkpt>
      <trkpt lat="47.78675" lon="2.06623">
        <ele>126</ele>
        <time>2017-07-30T06:48:07.341Z</time>
      </trkpt>
      <trkpt lat="47.78675" lon="2.06619">
        <ele>126</ele>
        <time>2017-07-30T06:48:08.332Z</time>
      </trkpt>
      <trkpt lat="47.78675" lon="2.06617">
        <ele>126</ele>
        <time>2017-07-30T06:48:09.324Z</time>
      </trkpt>
      <trkpt lat="47.78675" lon="2.06617">
        <ele>126</ele>
        <time>2017-07-30T06:48:10.339Z</time>
      </trkpt>
      <trkpt lat="47.78675" lon="2.06616">
        <ele>126</ele>
        <time>2017-07-30T06:48:11.327Z</time>
      </trkpt>
      <trkpt lat="47.78675" lon="2.06616">
        <ele>126</ele>
        <time>2017-07-30T06:48:12.342Z</time>
      </trkpt>
      <trkpt lat="47.78678" lon="2.06607">
        <ele>123</ele>
        <time>2017-07-30T06:48:13.348Z</time>
      </trkpt>
      <trkpt lat="47.78678" lon="2.06603">
        <ele>123</ele>
        <time>2017-07-30T06:48:14.337Z</time>
      </trkpt>
      <trkpt lat="47.78677" lon="2.06598">
        <ele>123</ele>
        <time>2017-07-30T06:48:15.341Z</time>
      </trkpt>
      <trkpt lat="47.78677" lon="2.06598">
        <ele>123</ele>
        <time>2017-07-30T06:48:16.341Z</time>
      </trkpt>
      <trkpt lat="47.78671" lon="2.06589">
        <ele>123</ele>
        <time>2017-07-30T06:48:17.332Z</time>
      </trkpt>
      <trkpt lat="47.78668" lon="2.06586">
        <ele>123</ele>
        <time>2017-07-30T06:48:18.324Z</time>
      </trkpt>
      <trkpt lat="47.78668" lon="2.06586">
        <ele>123</ele>
        <time>2017-07-30T06:48:19.315Z</time>
      </trkpt>
      <trkpt lat="47.78662" lon="2.06579">
        <ele>123</ele>
        <time>2017-07-30T06:48:20.343Z</time>
      </trkpt>
      <trkpt lat="47.78662" lon="2.06579">
        <ele>123</ele>
        <time>2017-07-30T06:48:21.332Z</time>
      </trkpt>
      <trkpt lat="47.78654" lon="2.0657">
        <ele>123</ele>
        <time>2017-07-30T06:48:22.320Z</time>
      </trkpt>
      <trkpt lat="47.78651" lon="2.06566">
        <ele>123</ele>
        <time>2017-07-30T06:48:23.327Z</time>
      </trkpt>
      <trkpt lat="47.78651" lon="2.06566">
        <ele>123</ele>
        <time>2017-07-30T06:48:24.331Z</time>
      </trkpt>
      <trkpt lat="47.78643" lon="2.06557">
        <ele>123</ele>
        <time>2017-07-30T06:48:25.341Z</time>
      </trkpt>
      <trkpt lat="47.78643" lon="2.06557">
        <ele>123</ele>
        <time>2017-07-30T06:48:26.339Z</time>
      </trkpt>
      <trkpt lat="47.78636" lon="2.06548">
        <ele>122</ele>
        <time>2017-07-30T06:48:27.336Z</time>
      </trkpt>
      <trkpt lat="47.78636" lon="2.06548">
        <ele>122</ele>
        <time>2017-07-30T06:48:28.329Z</time>
      </trkpt>
      <trkpt lat="47.78629" lon="2.06539">
        <ele>122</ele>
        <time>2017-07-30T06:48:29.335Z</time>
      </trkpt>
      <trkpt lat="47.78629" lon="2.06539">
        <ele>122</ele>
        <time>2017-07-30T06:48:30.342Z</time>
      </trkpt>
      <trkpt lat="47.78622" lon="2.0653">
        <ele>123</ele>
        <time>2017-07-30T06:48:31.348Z</time>
      </trkpt>
      <trkpt lat="47.78622" lon="2.0653">
        <ele>123</ele>
        <time>2017-07-30T06:48:32.314Z</time>
      </trkpt>
      <trkpt lat="47.78615" lon="2.0652">
        <ele>123</ele>
        <time>2017-07-30T06:48:33.344Z</time>
      </trkpt>
      <trkpt lat="47.78615" lon="2.0652">
        <ele>123</ele>
        <time>2017-07-30T06:48:34.333Z</time>
      </trkpt>
      <trkpt lat="47.78607" lon="2.06508">
        <ele>123</ele>
        <time>2017-07-30T06:48:35.337Z</time>
      </trkpt>
      <trkpt lat="47.78607" lon="2.06508">
        <ele>123</ele>
        <time>2017-07-30T06:48:36.331Z</time>
      </trkpt>
      <trkpt lat="47.786" lon="2.06495">
        <ele>123</ele>
        <time>2017-07-30T06:48:37.333Z</time>
      </trkpt>
      <trkpt lat="47.78597" lon="2.06489">
        <ele>123</ele>
        <time>2017-07-30T06:48:38.329Z</time>
      </trkpt>
      <trkpt lat="47.78593" lon="2.06482">
        <ele>123</ele>
        <time>2017-07-30T06:48:39.330Z</time>
      </trkpt>
      <trkpt lat="47.78593" lon="2.06482">
        <ele>123</ele>
        <time>2017-07-30T06:48:40.322Z</time>
      </trkpt>
      <trkpt lat="47.78586" lon="2.06468">
        <ele>123</ele>
        <time>2017-07-30T06:48:41.313Z</time>
      </trkpt>
      <trkpt lat="47.78586" lon="2.06468">
        <ele>123</ele>
        <time>2017-07-30T06:48:42.342Z</time>
      </trkpt>
      <trkpt lat="47.7858" lon="2.06454">
        <ele>123</ele>
        <time>2017-07-30T06:48:43.334Z</time>
      </trkpt>
      <trkpt lat="47.78576" lon="2.06446">
        <ele>123</ele>
        <time>2017-07-30T06:48:44.336Z</time>
      </trkpt>
      <trkpt lat="47.78576" lon="2.06446">
        <ele>123</ele>
        <time>2017-07-30T06:48:45.324Z</time>
      </trkpt>
      <trkpt lat="47.7857" lon="2.06429">
        <ele>122</ele>
        <time>2017-07-30T06:48:46.312Z</time>
      </trkpt>
      <trkpt lat="47.78567" lon="2.0642">
        <ele>121</ele>
        <time>2017-07-30T06:48:47.343Z</time>
      </trkpt>
      <trkpt lat="47.78567" lon="2.0642">
        <ele>121</ele>
        <time>2017-07-30T06:48:48.332Z</time>
      </trkpt>
      <trkpt lat="47.78562" lon="2.06401">
        <ele>120</ele>
        <time>2017-07-30T06:48:49.330Z</time>
      </trkpt>
      <trkpt lat="47.78562" lon="2.06401">
        <ele>120</ele>
        <time>2017-07-30T06:48:50.321Z</time>
      </trkpt>
      <trkpt lat="47.78557" lon="2.06383">
        <ele>120</ele>
        <time>2017-07-30T06:48:51.312Z</time>
      </trkpt>
      <trkpt lat="47.78557" lon="2.06383">
        <ele>120</ele>
        <time>2017-07-30T06:48:52.340Z</time>
      </trkpt>
      <trkpt lat="47.78552" lon="2.06364">
        <ele>120</ele>
        <time>2017-07-30T06:48:53.336Z</time>
      </trkpt>
      <trkpt lat="47.78552" lon="2.06364">
        <ele>120</ele>
        <time>2017-07-30T06:48:54.324Z</time>
      </trkpt>
      <trkpt lat="47.78548" lon="2.06347">
        <ele>120</ele>
        <time>2017-07-30T06:48:55.313Z</time>
      </trkpt>
      <trkpt lat="47.78548" lon="2.06347">
        <ele>120</ele>
        <time>2017-07-30T06:48:56.316Z</time>
      </trkpt>
      <trkpt lat="47.78544" lon="2.0633">
        <ele>120</ele>
        <time>2017-07-30T06:48:57.348Z</time>
      </trkpt>
      <trkpt lat="47.78544" lon="2.0633">
        <ele>120</ele>
        <time>2017-07-30T06:48:58.337Z</time>
      </trkpt>
      <trkpt lat="47.7854" lon="2.06313">
        <ele>119</ele>
        <time>2017-07-30T06:48:59.340Z</time>
      </trkpt>
      <trkpt lat="47.7854" lon="2.06313">
        <ele>119</ele>
        <time>2017-07-30T06:49:00.329Z</time>
      </trkpt>
      <trkpt lat="47.78537" lon="2.06297">
        <ele>120</ele>
        <time>2017-07-30T06:49:01.332Z</time>
      </trkpt>
      <trkpt lat="47.78537" lon="2.06297">
        <ele>120</ele>
        <time>2017-07-30T06:49:02.321Z</time>
      </trkpt>
      <trkpt lat="47.78533" lon="2.0628">
        <ele>119</ele>
        <time>2017-07-30T06:49:03.312Z</time>
      </trkpt>
      <trkpt lat="47.78533" lon="2.0628">
        <ele>119</ele>
        <time>2017-07-30T06:49:04.341Z</time>
      </trkpt>
      <trkpt lat="47.78529" lon="2.06265">
        <ele>119</ele>
        <time>2017-07-30T06:49:05.322Z</time>
      </trkpt>
      <trkpt lat="47.78527" lon="2.06257">
        <ele>120</ele>
        <time>2017-07-30T06:49:06.312Z</time>
      </trkpt>
      <trkpt lat="47.78527" lon="2.06257">
        <ele>120</ele>
        <time>2017-07-30T06:49:07.349Z</time>
      </trkpt>
      <trkpt lat="47.78524" lon="2.06242">
        <ele>120</ele>
        <time>2017-07-30T06:49:08.343Z</time>
      </trkpt>
      <trkpt lat="47.78522" lon="2.06234">
        <ele>120</ele>
        <time>2017-07-30T06:49:09.330Z</time>
      </trkpt>
      <trkpt lat="47.7852" lon="2.06226">
        <ele>120</ele>
        <time>2017-07-30T06:49:10.327Z</time>
      </trkpt>
      <trkpt lat="47.78518" lon="2.06219">
        <ele>121</ele>
        <time>2017-07-30T06:49:11.318Z</time>
      </trkpt>
      <trkpt lat="47.78518" lon="2.06219">
        <ele>121</ele>
        <time>2017-07-30T06:49:12.346Z</time>
      </trkpt>
      <trkpt lat="47.78514" lon="2.06203">
        <ele>121</ele>
        <time>2017-07-30T06:49:13.334Z</time>
      </trkpt>
      <trkpt lat="47.78512" lon="2.06195">
        <ele>121</ele>
        <time>2017-07-30T06:49:14.335Z</time>
      </trkpt>
      <trkpt lat="47.7851" lon="2.06187">
        <ele>121</ele>
        <time>2017-07-30T06:49:15.335Z</time>
      </trkpt>
      <trkpt lat="47.78508" lon="2.06178">
        <ele>121</ele>
        <time>2017-07-30T06:49:16.333Z</time>
      </trkpt>
      <trkpt lat="47.78508" lon="2.06178">
        <ele>121</ele>
        <time>2017-07-30T06:49:17.332Z</time>
      </trkpt>
      <trkpt lat="47.78504" lon="2.06162">
        <ele>121</ele>
        <time>2017-07-30T06:49:18.335Z</time>
      </trkpt>
      <trkpt lat="47.78504" lon="2.06162">
        <ele>121</ele>
        <time>2017-07-30T06:49:19.346Z</time>
      </trkpt>
      <trkpt lat="47.785" lon="2.06145">
        <ele>121</ele>
        <time>2017-07-30T06:49:20.337Z</time>
      </trkpt>
      <trkpt lat="47.78498" lon="2.06136">
        <ele>121</ele>
        <time>2017-07-30T06:49:21.333Z</time>
      </trkpt>
      <trkpt lat="47.78498" lon="2.06136">
        <ele>121</ele>
        <time>2017-07-30T06:49:22.323Z</time>
      </trkpt>
      <trkpt lat="47.78494" lon="2.06119">
        <ele>121</ele>
        <time>2017-07-30T06:49:23.312Z</time>
      </trkpt>
      <trkpt lat="47.78494" lon="2.06119">
        <ele>121</ele>
        <time>2017-07-30T06:49:24.341Z</time>
      </trkpt>
      <trkpt lat="47.7849" lon="2.06101">
        <ele>121</ele>
        <time>2017-07-30T06:49:25.331Z</time>
      </trkpt>
      <trkpt lat="47.78488" lon="2.06093">
        <ele>121</ele>
        <time>2017-07-30T06:49:26.324Z</time>
      </trkpt>
      <trkpt lat="47.78487" lon="2.06085">
        <ele>121</ele>
        <time>2017-07-30T06:49:27.320Z</time>
      </trkpt>
      <trkpt lat="47.78487" lon="2.06085">
        <ele>121</ele>
        <time>2017-07-30T06:49:28.311Z</time>
      </trkpt>
      <trkpt lat="47.78483" lon="2.06068">
        <ele>121</ele>
        <time>2017-07-30T06:49:29.339Z</time>
      </trkpt>
      <trkpt lat="47.78481" lon="2.0606">
        <ele>121</ele>
        <time>2017-07-30T06:49:30.329Z</time>
      </trkpt>
      <trkpt lat="47.78479" lon="2.06052">
        <ele>121</ele>
        <time>2017-07-30T06:49:31.338Z</time>
      </trkpt>
      <trkpt lat="47.78477" lon="2.06044">
        <ele>121</ele>
        <time>2017-07-30T06:49:32.337Z</time>
      </trkpt>
      <trkpt lat="47.78477" lon="2.06044">
        <ele>121</ele>
        <time>2017-07-30T06:49:33.330Z</time>
      </trkpt>
      <trkpt lat="47.78473" lon="2.06027">
        <ele>121</ele>
        <time>2017-07-30T06:49:34.331Z</time>
      </trkpt>
      <trkpt lat="47.78471" lon="2.06019">
        <ele>120</ele>
        <time>2017-07-30T06:49:35.323Z</time>
      </trkpt>
      <trkpt lat="47.78469" lon="2.06011">
        <ele>120</ele>
        <time>2017-07-30T06:49:36.317Z</time>
      </trkpt>
      <trkpt lat="47.78469" lon="2.06011">
        <ele>120</ele>
        <time>2017-07-30T06:49:37.349Z</time>
      </trkpt>
      <trkpt lat="47.78465" lon="2.05994">
        <ele>120</ele>
        <time>2017-07-30T06:49:38.337Z</time>
      </trkpt>
      <trkpt lat="47.78463" lon="2.05985">
        <ele>120</ele>
        <time>2017-07-30T06:49:39.343Z</time>
      </trkpt>
      <trkpt lat="47.78463" lon="2.05985">
        <ele>120</ele>
        <time>2017-07-30T06:49:40.332Z</time>
      </trkpt>
      <trkpt lat="47.78459" lon="2.05967">
        <ele>119</ele>
        <time>2017-07-30T06:49:41.335Z</time>
      </trkpt>
      <trkpt lat="47.78459" lon="2.05967">
        <ele>119</ele>
        <time>2017-07-30T06:49:42.323Z</time>
      </trkpt>
      <trkpt lat="47.78455" lon="2.05948">
        <ele>119</ele>
        <time>2017-07-30T06:49:43.312Z</time>
      </trkpt>
      <trkpt lat="47.78455" lon="2.05948">
        <ele>119</ele>
        <time>2017-07-30T06:49:44.340Z</time>
      </trkpt>
      <trkpt lat="47.78451" lon="2.0593">
        <ele>119</ele>
        <time>2017-07-30T06:49:45.337Z</time>
      </trkpt>
      <trkpt lat="47.78451" lon="2.0593">
        <ele>119</ele>
        <time>2017-07-30T06:49:46.333Z</time>
      </trkpt>
      <trkpt lat="47.78446" lon="2.05912">
        <ele>118</ele>
        <time>2017-07-30T06:49:47.332Z</time>
      </trkpt>
      <trkpt lat="47.78446" lon="2.05912">
        <ele>118</ele>
        <time>2017-07-30T06:49:48.318Z</time>
      </trkpt>
      <trkpt lat="47.78442" lon="2.05893">
        <ele>118</ele>
        <time>2017-07-30T06:49:49.347Z</time>
      </trkpt>
      <trkpt lat="47.78442" lon="2.05893">
        <ele>118</ele>
        <time>2017-07-30T06:49:50.335Z</time>
      </trkpt>
      <trkpt lat="47.78437" lon="2.05875">
        <ele>117</ele>
        <time>2017-07-30T06:49:51.331Z</time>
      </trkpt>
      <trkpt lat="47.78435" lon="2.05866">
        <ele>117</ele>
        <time>2017-07-30T06:49:52.319Z</time>
      </trkpt>
      <trkpt lat="47.78435" lon="2.05866">
        <ele>117</ele>
        <time>2017-07-30T06:49:53.314Z</time>
      </trkpt>
      <trkpt lat="47.78431" lon="2.05849">
        <ele>117</ele>
        <time>2017-07-30T06:49:54.348Z</time>
      </trkpt>
      <trkpt lat="47.78431" lon="2.05849">
        <ele>117</ele>
        <time>2017-07-30T06:49:55.336Z</time>
      </trkpt>
      <trkpt lat="47.78426" lon="2.05832">
        <ele>117</ele>
        <time>2017-07-30T06:49:56.332Z</time>
      </trkpt>
      <trkpt lat="47.78424" lon="2.05824">
        <ele>117</ele>
        <time>2017-07-30T06:49:57.330Z</time>
      </trkpt>
      <trkpt lat="47.78424" lon="2.05824">
        <ele>117</ele>
        <time>2017-07-30T06:49:58.312Z</time>
      </trkpt>
      <trkpt lat="47.7842" lon="2.05808">
        <ele>118</ele>
        <time>2017-07-30T06:49:59.340Z</time>
      </trkpt>
      <trkpt lat="47.7842" lon="2.05808">
        <ele>118</ele>
        <time>2017-07-30T06:50:00.327Z</time>
      </trkpt>
      <trkpt lat="47.78416" lon="2.05791">
        <ele>118</ele>
        <time>2017-07-30T06:50:01.316Z</time>
      </trkpt>
      <trkpt lat="47.78416" lon="2.05791">
        <ele>118</ele>
        <time>2017-07-30T06:50:02.344Z</time>
      </trkpt>
      <trkpt lat="47.78413" lon="2.05775">
        <ele>118</ele>
        <time>2017-07-30T06:50:03.317Z</time>
      </trkpt>
      <trkpt lat="47.78413" lon="2.05775">
        <ele>118</ele>
        <time>2017-07-30T06:50:04.347Z</time>
      </trkpt>
      <trkpt lat="47.7841" lon="2.0576">
        <ele>119</ele>
        <time>2017-07-30T06:50:05.343Z</time>
      </trkpt>
      <trkpt lat="47.7841" lon="2.0576">
        <ele>119</ele>
        <time>2017-07-30T06:50:06.346Z</time>
      </trkpt>
      <trkpt lat="47.78406" lon="2.05744">
        <ele>119</ele>
        <time>2017-07-30T06:50:07.339Z</time>
      </trkpt>
      <trkpt lat="47.78404" lon="2.05736">
        <ele>120</ele>
        <time>2017-07-30T06:50:08.317Z</time>
      </trkpt>
      <trkpt lat="47.78404" lon="2.05736">
        <ele>120</ele>
        <time>2017-07-30T06:50:09.346Z</time>
      </trkpt>
      <trkpt lat="47.784" lon="2.0572">
        <ele>120</ele>
        <time>2017-07-30T06:50:10.342Z</time>
      </trkpt>
      <trkpt lat="47.78399" lon="2.05712">
        <ele>120</ele>
        <time>2017-07-30T06:50:11.344Z</time>
      </trkpt>
      <trkpt lat="47.78399" lon="2.05712">
        <ele>120</ele>
        <time>2017-07-30T06:50:12.332Z</time>
      </trkpt>
      <trkpt lat="47.78399" lon="2.05697">
        <ele>120</ele>
        <time>2017-07-30T06:50:13.330Z</time>
      </trkpt>
      <trkpt lat="47.78399" lon="2.05697">
        <ele>120</ele>
        <time>2017-07-30T06:50:14.320Z</time>
      </trkpt>
      <trkpt lat="47.78406" lon="2.05683">
        <ele>120</ele>
        <time>2017-07-30T06:50:15.348Z</time>
      </trkpt>
      <trkpt lat="47.7841" lon="2.05677">
        <ele>120</ele>
        <time>2017-07-30T06:50:16.341Z</time>
      </trkpt>
      <trkpt lat="47.7841" lon="2.05677">
        <ele>120</ele>
        <time>2017-07-30T06:50:17.329Z</time>
      </trkpt>
      <trkpt lat="47.78416" lon="2.05662">
        <ele>119</ele>
        <time>2017-07-30T06:50:18.335Z</time>
      </trkpt>
      <trkpt lat="47.78416" lon="2.05662">
        <ele>119</ele>
        <time>2017-07-30T06:50:19.323Z</time>
      </trkpt>
      <trkpt lat="47.78424" lon="2.05648">
        <ele>119</ele>
        <time>2017-07-30T06:50:20.311Z</time>
      </trkpt>
      <trkpt lat="47.78428" lon="2.0564">
        <ele>119</ele>
        <time>2017-07-30T06:50:21.343Z</time>
      </trkpt>
      <trkpt lat="47.78428" lon="2.0564">
        <ele>119</ele>
        <time>2017-07-30T06:50:22.331Z</time>
      </trkpt>
      <trkpt lat="47.78435" lon="2.05625">
        <ele>119</ele>
        <time>2017-07-30T06:50:23.335Z</time>
      </trkpt>
      <trkpt lat="47.78435" lon="2.05625">
        <ele>119</ele>
        <time>2017-07-30T06:50:24.348Z</time>
      </trkpt>
      <trkpt lat="47.78443" lon="2.0561">
        <ele>118</ele>
        <time>2017-07-30T06:50:25.338Z</time>
      </trkpt>
      <trkpt lat="47.78446" lon="2.05602">
        <ele>118</ele>
        <time>2017-07-30T06:50:26.338Z</time>
      </trkpt>
      <trkpt lat="47.7845" lon="2.05594">
        <ele>118</ele>
        <time>2017-07-30T06:50:27.334Z</time>
      </trkpt>
      <trkpt lat="47.7845" lon="2.05594">
        <ele>118</ele>
        <time>2017-07-30T06:50:28.336Z</time>
      </trkpt>
      <trkpt lat="47.78457" lon="2.05578">
        <ele>118</ele>
        <time>2017-07-30T06:50:29.325Z</time>
      </trkpt>
      <trkpt lat="47.78461" lon="2.0557">
        <ele>118</ele>
        <time>2017-07-30T06:50:30.315Z</time>
      </trkpt>
      <trkpt lat="47.78461" lon="2.0557">
        <ele>118</ele>
        <time>2017-07-30T06:50:31.343Z</time>
      </trkpt>
      <trkpt lat="47.78469" lon="2.05556">
        <ele>118</ele>
        <time>2017-07-30T06:50:32.336Z</time>
      </trkpt>
      <trkpt lat="47.78472" lon="2.05549">
        <ele>118</ele>
        <time>2017-07-30T06:50:33.331Z</time>
      </trkpt>
      <trkpt lat="47.78472" lon="2.05549">
        <ele>118</ele>
        <time>2017-07-30T06:50:34.322Z</time>
      </trkpt>
      <trkpt lat="47.7848" lon="2.05534">
        <ele>118</ele>
        <time>2017-07-30T06:50:35.314Z</time>
      </trkpt>
      <trkpt lat="47.7848" lon="2.05534">
        <ele>118</ele>
        <time>2017-07-30T06:50:36.311Z</time>
      </trkpt>
      <trkpt lat="47.78487" lon="2.05519">
        <ele>118</ele>
        <time>2017-07-30T06:50:37.338Z</time>
      </trkpt>
      <trkpt lat="47.78487" lon="2.05519">
        <ele>118</ele>
        <time>2017-07-30T06:50:38.334Z</time>
      </trkpt>
      <trkpt lat="47.78493" lon="2.05504">
        <ele>117</ele>
        <time>2017-07-30T06:50:39.330Z</time>
      </trkpt>
      <trkpt lat="47.78497" lon="2.05497">
        <ele>117</ele>
        <time>2017-07-30T06:50:40.329Z</time>
      </trkpt>
      <trkpt lat="47.78497" lon="2.05497">
        <ele>117</ele>
        <time>2017-07-30T06:50:41.321Z</time>
      </trkpt>
      <trkpt lat="47.78504" lon="2.05482">
        <ele>116</ele>
        <time>2017-07-30T06:50:42.350Z</time>
      </trkpt>
      <trkpt lat="47.78507" lon="2.05474">
        <ele>116</ele>
        <time>2017-07-30T06:50:43.339Z</time>
      </trkpt>
      <trkpt lat="47.7851" lon="2.05466">
        <ele>116</ele>
        <time>2017-07-30T06:50:44.345Z</time>
      </trkpt>
      <trkpt lat="47.78513" lon="2.05458">
        <ele>116</ele>
        <time>2017-07-30T06:50:45.315Z</time>
      </trkpt>
      <trkpt lat="47.78513" lon="2.05458">
        <ele>116</ele>
        <time>2017-07-30T06:50:46.317Z</time>
      </trkpt>
      <trkpt lat="47.78519" lon="2.05442">
        <ele>116</ele>
        <time>2017-07-30T06:50:47.326Z</time>
      </trkpt>
      <trkpt lat="47.78522" lon="2.05433">
        <ele>116</ele>
        <time>2017-07-30T06:50:48.321Z</time>
      </trkpt>
      <trkpt lat="47.78524" lon="2.05424">
        <ele>116</ele>
        <time>2017-07-30T06:50:49.324Z</time>
      </trkpt>
      <trkpt lat="47.78526" lon="2.05416">
        <ele>115</ele>
        <time>2017-07-30T06:50:50.314Z</time>
      </trkpt>
      <trkpt lat="47.78526" lon="2.05416">
        <ele>115</ele>
        <time>2017-07-30T06:50:51.343Z</time>
      </trkpt>
      <trkpt lat="47.78532" lon="2.05399">
        <ele>115</ele>
        <time>2017-07-30T06:50:52.332Z</time>
      </trkpt>
      <trkpt lat="47.78535" lon="2.05391">
        <ele>115</ele>
        <time>2017-07-30T06:50:53.342Z</time>
      </trkpt>
      <trkpt lat="47.78535" lon="2.05391">
        <ele>115</ele>
        <time>2017-07-30T06:50:54.330Z</time>
      </trkpt>
      <trkpt lat="47.78541" lon="2.05374">
        <ele>115</ele>
        <time>2017-07-30T06:50:55.329Z</time>
      </trkpt>
      <trkpt lat="47.78541" lon="2.05374">
        <ele>115</ele>
        <time>2017-07-30T06:50:56.336Z</time>
      </trkpt>
      <trkpt lat="47.78545" lon="2.05358">
        <ele>115</ele>
        <time>2017-07-30T06:50:57.336Z</time>
      </trkpt>
      <trkpt lat="47.78545" lon="2.05358">
        <ele>115</ele>
        <time>2017-07-30T06:50:58.337Z</time>
      </trkpt>
      <trkpt lat="47.78547" lon="2.05342">
        <ele>115</ele>
        <time>2017-07-30T06:50:59.343Z</time>
      </trkpt>
      <trkpt lat="47.78547" lon="2.05342">
        <ele>115</ele>
        <time>2017-07-30T06:51:00.350Z</time>
      </trkpt>
      <trkpt lat="47.78546" lon="2.05325">
        <ele>115</ele>
        <time>2017-07-30T06:51:01.317Z</time>
      </trkpt>
      <trkpt lat="47.78546" lon="2.05325">
        <ele>115</ele>
        <time>2017-07-30T06:51:02.339Z</time>
      </trkpt>
      <trkpt lat="47.78547" lon="2.05309">
        <ele>116</ele>
        <time>2017-07-30T06:51:03.344Z</time>
      </trkpt>
      <trkpt lat="47.78547" lon="2.05309">
        <ele>116</ele>
        <time>2017-07-30T06:51:04.332Z</time>
      </trkpt>
      <trkpt lat="47.78551" lon="2.05295">
        <ele>116</ele>
        <time>2017-07-30T06:51:05.332Z</time>
      </trkpt>
      <trkpt lat="47.78551" lon="2.05295">
        <ele>116</ele>
        <time>2017-07-30T06:51:06.322Z</time>
      </trkpt>
      <trkpt lat="47.78555" lon="2.05281">
        <ele>117</ele>
        <time>2017-07-30T06:51:07.350Z</time>
      </trkpt>
      <trkpt lat="47.78555" lon="2.05281">
        <ele>117</ele>
        <time>2017-07-30T06:51:08.338Z</time>
      </trkpt>
      <trkpt lat="47.7856" lon="2.05267">
        <ele>117</ele>
        <time>2017-07-30T06:51:09.336Z</time>
      </trkpt>
      <trkpt lat="47.7856" lon="2.05267">
        <ele>117</ele>
        <time>2017-07-30T06:51:10.324Z</time>
      </trkpt>
      <trkpt lat="47.78564" lon="2.05254">
        <ele>117</ele>
        <time>2017-07-30T06:51:11.313Z</time>
      </trkpt>
      <trkpt lat="47.78564" lon="2.05254">
        <ele>117</ele>
        <time>2017-07-30T06:51:12.341Z</time>
      </trkpt>
      <trkpt lat="47.78568" lon="2.05242">
        <ele>117</ele>
        <time>2017-07-30T06:51:13.336Z</time>
      </trkpt>
      <trkpt lat="47.78568" lon="2.05242">
        <ele>117</ele>
        <time>2017-07-30T06:51:14.324Z</time>
      </trkpt>
      <trkpt lat="47.78572" lon="2.0523">
        <ele>117</ele>
        <time>2017-07-30T06:51:15.313Z</time>
      </trkpt>
      <trkpt lat="47.78574" lon="2.05224">
        <ele>117</ele>
        <time>2017-07-30T06:51:16.341Z</time>
      </trkpt>
      <trkpt lat="47.78574" lon="2.05224">
        <ele>117</ele>
        <time>2017-07-30T06:51:17.329Z</time>
      </trkpt>
      <trkpt lat="47.78577" lon="2.05213">
        <ele>118</ele>
        <time>2017-07-30T06:51:18.335Z</time>
      </trkpt>
      <trkpt lat="47.78577" lon="2.05213">
        <ele>118</ele>
        <time>2017-07-30T06:51:19.321Z</time>
      </trkpt>
      <trkpt lat="47.78581" lon="2.05201">
        <ele>118</ele>
        <time>2017-07-30T06:51:20.314Z</time>
      </trkpt>
      <trkpt lat="47.78581" lon="2.05201">
        <ele>118</ele>
        <time>2017-07-30T06:51:21.343Z</time>
      </trkpt>
      <trkpt lat="47.78585" lon="2.05188">
        <ele>119</ele>
        <time>2017-07-30T06:51:22.334Z</time>
      </trkpt>
      <trkpt lat="47.78585" lon="2.05188">
        <ele>119</ele>
        <time>2017-07-30T06:51:23.322Z</time>
      </trkpt>
      <trkpt lat="47.7859" lon="2.05175">
        <ele>120</ele>
        <time>2017-07-30T06:51:24.316Z</time>
      </trkpt>
      <trkpt lat="47.78592" lon="2.05169">
        <ele>120</ele>
        <time>2017-07-30T06:51:25.347Z</time>
      </trkpt>
      <trkpt lat="47.78592" lon="2.05169">
        <ele>120</ele>
        <time>2017-07-30T06:51:26.336Z</time>
      </trkpt>
      <trkpt lat="47.78596" lon="2.05156">
        <ele>120</ele>
        <time>2017-07-30T06:51:27.339Z</time>
      </trkpt>
      <trkpt lat="47.78596" lon="2.05156">
        <ele>120</ele>
        <time>2017-07-30T06:51:28.329Z</time>
      </trkpt>
      <trkpt lat="47.786" lon="2.05142">
        <ele>120</ele>
        <time>2017-07-30T06:51:29.318Z</time>
      </trkpt>
      <trkpt lat="47.78602" lon="2.05136">
        <ele>120</ele>
        <time>2017-07-30T06:51:30.346Z</time>
      </trkpt>
      <trkpt lat="47.78604" lon="2.0513">
        <ele>121</ele>
        <time>2017-07-30T06:51:31.348Z</time>
      </trkpt>
      <trkpt lat="47.78604" lon="2.0513">
        <ele>121</ele>
        <time>2017-07-30T06:51:32.340Z</time>
      </trkpt>
      <trkpt lat="47.78607" lon="2.05116">
        <ele>121</ele>
        <time>2017-07-30T06:51:33.339Z</time>
      </trkpt>
      <trkpt lat="47.78607" lon="2.05116">
        <ele>121</ele>
        <time>2017-07-30T06:51:34.327Z</time>
      </trkpt>
      <trkpt lat="47.78612" lon="2.05102">
        <ele>120</ele>
        <time>2017-07-30T06:51:35.316Z</time>
      </trkpt>
      <trkpt lat="47.78612" lon="2.05102">
        <ele>120</ele>
        <time>2017-07-30T06:51:36.345Z</time>
      </trkpt>
      <trkpt lat="47.78616" lon="2.05088">
        <ele>121</ele>
        <time>2017-07-30T06:51:37.333Z</time>
      </trkpt>
      <trkpt lat="47.78618" lon="2.05082">
        <ele>120</ele>
        <time>2017-07-30T06:51:38.330Z</time>
      </trkpt>
      <trkpt lat="47.78621" lon="2.05076">
        <ele>120</ele>
        <time>2017-07-30T06:51:39.345Z</time>
      </trkpt>
      <trkpt lat="47.78621" lon="2.05076">
        <ele>120</ele>
        <time>2017-07-30T06:51:40.332Z</time>
      </trkpt>
      <trkpt lat="47.78625" lon="2.05062">
        <ele>120</ele>
        <time>2017-07-30T06:51:41.334Z</time>
      </trkpt>
      <trkpt lat="47.78625" lon="2.05062">
        <ele>120</ele>
        <time>2017-07-30T06:51:42.323Z</time>
      </trkpt>
      <trkpt lat="47.78628" lon="2.05047">
        <ele>121</ele>
        <time>2017-07-30T06:51:43.335Z</time>
      </trkpt>
      <trkpt lat="47.78629" lon="2.05039">
        <ele>121</ele>
        <time>2017-07-30T06:51:44.325Z</time>
      </trkpt>
      <trkpt lat="47.78631" lon="2.05032">
        <ele>121</ele>
        <time>2017-07-30T06:51:45.315Z</time>
      </trkpt>
      <trkpt lat="47.78631" lon="2.05032">
        <ele>121</ele>
        <time>2017-07-30T06:51:46.344Z</time>
      </trkpt>
      <trkpt lat="47.78633" lon="2.05017">
        <ele>121</ele>
        <time>2017-07-30T06:51:47.342Z</time>
      </trkpt>
      <trkpt lat="47.78633" lon="2.05017">
        <ele>121</ele>
        <time>2017-07-30T06:51:48.331Z</time>
      </trkpt>
      <trkpt lat="47.78636" lon="2.05001">
        <ele>121</ele>
        <time>2017-07-30T06:51:49.322Z</time>
      </trkpt>
      <trkpt lat="47.78636" lon="2.05001">
        <ele>121</ele>
        <time>2017-07-30T06:51:50.314Z</time>
      </trkpt>
      <trkpt lat="47.78638" lon="2.04986">
        <ele>121</ele>
        <time>2017-07-30T06:51:51.343Z</time>
      </trkpt>
      <trkpt lat="47.78638" lon="2.04986">
        <ele>121</ele>
        <time>2017-07-30T06:51:52.332Z</time>
      </trkpt>
      <trkpt lat="47.78641" lon="2.0497">
        <ele>121</ele>
        <time>2017-07-30T06:51:53.329Z</time>
      </trkpt>
      <trkpt lat="47.78642" lon="2.04963">
        <ele>121</ele>
        <time>2017-07-30T06:51:54.325Z</time>
      </trkpt>
      <trkpt lat="47.78642" lon="2.04963">
        <ele>121</ele>
        <time>2017-07-30T06:51:55.313Z</time>
      </trkpt>
      <trkpt lat="47.78644" lon="2.04948">
        <ele>120</ele>
        <time>2017-07-30T06:51:56.341Z</time>
      </trkpt>
      <trkpt lat="47.78645" lon="2.04941">
        <ele>120</ele>
        <time>2017-07-30T06:51:57.334Z</time>
      </trkpt>
      <trkpt lat="47.78645" lon="2.04941">
        <ele>120</ele>
        <time>2017-07-30T06:51:58.324Z</time>
      </trkpt>
      <trkpt lat="47.78647" lon="2.04926">
        <ele>119</ele>
        <time>2017-07-30T06:51:59.319Z</time>
      </trkpt>
      <trkpt lat="47.78647" lon="2.04926">
        <ele>119</ele>
        <time>2017-07-30T06:52:00.347Z</time>
      </trkpt>
      <trkpt lat="47.78649" lon="2.0491">
        <ele>118</ele>
        <time>2017-07-30T06:52:01.336Z</time>
      </trkpt>
      <trkpt lat="47.78651" lon="2.04902">
        <ele>117</ele>
        <time>2017-07-30T06:52:02.334Z</time>
      </trkpt>
      <trkpt lat="47.78652" lon="2.04895">
        <ele>117</ele>
        <time>2017-07-30T06:52:03.331Z</time>
      </trkpt>
      <trkpt lat="47.78652" lon="2.04895">
        <ele>117</ele>
        <time>2017-07-30T06:52:04.320Z</time>
      </trkpt>
      <trkpt lat="47.78654" lon="2.04879">
        <ele>117</ele>
        <time>2017-07-30T06:52:05.311Z</time>
      </trkpt>
      <trkpt lat="47.78656" lon="2.04872">
        <ele>117</ele>
        <time>2017-07-30T06:52:06.334Z</time>
      </trkpt>
      <trkpt lat="47.78657" lon="2.04864">
        <ele>117</ele>
        <time>2017-07-30T06:52:07.324Z</time>
      </trkpt>
      <trkpt lat="47.78657" lon="2.04864">
        <ele>117</ele>
        <time>2017-07-30T06:52:08.343Z</time>
      </trkpt>
      <trkpt lat="47.78661" lon="2.04849">
        <ele>118</ele>
        <time>2017-07-30T06:52:09.332Z</time>
      </trkpt>
      <trkpt lat="47.78662" lon="2.04842">
        <ele>118</ele>
        <time>2017-07-30T06:52:10.332Z</time>
      </trkpt>
      <trkpt lat="47.78663" lon="2.04834">
        <ele>118</ele>
        <time>2017-07-30T06:52:11.330Z</time>
      </trkpt>
      <trkpt lat="47.78663" lon="2.04834">
        <ele>118</ele>
        <time>2017-07-30T06:52:12.319Z</time>
      </trkpt>
      <trkpt lat="47.78665" lon="2.04817">
        <ele>118</ele>
        <time>2017-07-30T06:52:13.347Z</time>
      </trkpt>
      <trkpt lat="47.78665" lon="2.04817">
        <ele>118</ele>
        <time>2017-07-30T06:52:14.336Z</time>
      </trkpt>
      <trkpt lat="47.78667" lon="2.04801">
        <ele>118</ele>
        <time>2017-07-30T06:52:15.331Z</time>
      </trkpt>
      <trkpt lat="47.78668" lon="2.04793">
        <ele>118</ele>
        <time>2017-07-30T06:52:16.319Z</time>
      </trkpt>
      <trkpt lat="47.78668" lon="2.04793">
        <ele>118</ele>
        <time>2017-07-30T06:52:17.311Z</time>
      </trkpt>
      <trkpt lat="47.78671" lon="2.04777">
        <ele>118</ele>
        <time>2017-07-30T06:52:18.342Z</time>
      </trkpt>
      <trkpt lat="47.78671" lon="2.04777">
        <ele>118</ele>
        <time>2017-07-30T06:52:19.330Z</time>
      </trkpt>
      <trkpt lat="47.78673" lon="2.04762">
        <ele>118</ele>
        <time>2017-07-30T06:52:20.328Z</time>
      </trkpt>
      <trkpt lat="47.78673" lon="2.04762">
        <ele>118</ele>
        <time>2017-07-30T06:52:21.320Z</time>
      </trkpt>
      <trkpt lat="47.78675" lon="2.04747">
        <ele>117</ele>
        <time>2017-07-30T06:52:22.347Z</time>
      </trkpt>
      <trkpt lat="47.78675" lon="2.04747">
        <ele>117</ele>
        <time>2017-07-30T06:52:23.335Z</time>
      </trkpt>
      <trkpt lat="47.78677" lon="2.04731">
        <ele>117</ele>
        <time>2017-07-30T06:52:24.342Z</time>
      </trkpt>
      <trkpt lat="47.78677" lon="2.04731">
        <ele>117</ele>
        <time>2017-07-30T06:52:25.337Z</time>
      </trkpt>
      <trkpt lat="47.78679" lon="2.04715">
        <ele>117</ele>
        <time>2017-07-30T06:52:26.333Z</time>
      </trkpt>
      <trkpt lat="47.7868" lon="2.04708">
        <ele>117</ele>
        <time>2017-07-30T06:52:27.327Z</time>
      </trkpt>
      <trkpt lat="47.78682" lon="2.047">
        <ele>117</ele>
        <time>2017-07-30T06:52:28.317Z</time>
      </trkpt>
      <trkpt lat="47.78683" lon="2.04692">
        <ele>117</ele>
        <time>2017-07-30T06:52:29.347Z</time>
      </trkpt>
      <trkpt lat="47.78683" lon="2.04692">
        <ele>117</ele>
        <time>2017-07-30T06:52:30.337Z</time>
      </trkpt>
      <trkpt lat="47.78686" lon="2.04676">
        <ele>118</ele>
        <time>2017-07-30T06:52:31.329Z</time>
      </trkpt>
      <trkpt lat="47.78687" lon="2.04667">
        <ele>118</ele>
        <time>2017-07-30T06:52:32.324Z</time>
      </trkpt>
      <trkpt lat="47.78688" lon="2.04659">
        <ele>118</ele>
        <time>2017-07-30T06:52:33.316Z</time>
      </trkpt>
      <trkpt lat="47.78688" lon="2.04659">
        <ele>118</ele>
        <time>2017-07-30T06:52:34.344Z</time>
      </trkpt>
      <trkpt lat="47.78691" lon="2.04643">
        <ele>118</ele>
        <time>2017-07-30T06:52:35.337Z</time>
      </trkpt>
      <trkpt lat="47.78691" lon="2.04643">
        <ele>118</ele>
        <time>2017-07-30T06:52:36.325Z</time>
      </trkpt>
      <trkpt lat="47.78694" lon="2.04628">
        <ele>118</ele>
        <time>2017-07-30T06:52:37.314Z</time>
      </trkpt>
      <trkpt lat="47.78694" lon="2.04628">
        <ele>118</ele>
        <time>2017-07-30T06:52:38.342Z</time>
      </trkpt>
      <trkpt lat="47.78696" lon="2.04613">
        <ele>119</ele>
        <time>2017-07-30T06:52:39.342Z</time>
      </trkpt>
      <trkpt lat="47.78696" lon="2.04613">
        <ele>119</ele>
        <time>2017-07-30T06:52:40.330Z</time>
      </trkpt>
      <trkpt lat="47.78699" lon="2.04596">
        <ele>119</ele>
        <time>2017-07-30T06:52:41.325Z</time>
      </trkpt>
      <trkpt lat="47.78699" lon="2.04596">
        <ele>119</ele>
        <time>2017-07-30T06:52:42.329Z</time>
      </trkpt>
      <trkpt lat="47.78701" lon="2.0458">
        <ele>119</ele>
        <time>2017-07-30T06:52:43.330Z</time>
      </trkpt>
      <trkpt lat="47.78701" lon="2.0458">
        <ele>119</ele>
        <time>2017-07-30T06:52:44.318Z</time>
      </trkpt>
      <trkpt lat="47.78704" lon="2.04564">
        <ele>118</ele>
        <time>2017-07-30T06:52:45.346Z</time>
      </trkpt>
      <trkpt lat="47.78704" lon="2.04564">
        <ele>118</ele>
        <time>2017-07-30T06:52:46.341Z</time>
      </trkpt>
      <trkpt lat="47.78705" lon="2.04548">
        <ele>118</ele>
        <time>2017-07-30T06:52:47.336Z</time>
      </trkpt>
      <trkpt lat="47.78705" lon="2.04548">
        <ele>118</ele>
        <time>2017-07-30T06:52:48.324Z</time>
      </trkpt>
      <trkpt lat="47.78708" lon="2.04531">
        <ele>118</ele>
        <time>2017-07-30T06:52:49.321Z</time>
      </trkpt>
      <trkpt lat="47.7871" lon="2.04523">
        <ele>118</ele>
        <time>2017-07-30T06:52:50.314Z</time>
      </trkpt>
      <trkpt lat="47.7871" lon="2.04523">
        <ele>118</ele>
        <time>2017-07-30T06:52:51.345Z</time>
      </trkpt>
      <trkpt lat="47.78712" lon="2.04507">
        <ele>118</ele>
        <time>2017-07-30T06:52:52.336Z</time>
      </trkpt>
      <trkpt lat="47.78713" lon="2.04499">
        <ele>118</ele>
        <time>2017-07-30T06:52:53.334Z</time>
      </trkpt>
      <trkpt lat="47.78713" lon="2.04499">
        <ele>118</ele>
        <time>2017-07-30T06:52:54.323Z</time>
      </trkpt>
      <trkpt lat="47.78715" lon="2.04483">
        <ele>118</ele>
        <time>2017-07-30T06:52:55.311Z</time>
      </trkpt>
      <trkpt lat="47.78716" lon="2.04474">
        <ele>118</ele>
        <time>2017-07-30T06:52:56.340Z</time>
      </trkpt>
      <trkpt lat="47.78718" lon="2.04467">
        <ele>118</ele>
        <time>2017-07-30T06:52:57.340Z</time>
      </trkpt>
      <trkpt lat="47.78718" lon="2.04467">
        <ele>118</ele>
        <time>2017-07-30T06:52:58.330Z</time>
      </trkpt>
      <trkpt lat="47.78721" lon="2.04452">
        <ele>119</ele>
        <time>2017-07-30T06:52:59.332Z</time>
      </trkpt>
      <trkpt lat="47.78721" lon="2.04452">
        <ele>119</ele>
        <time>2017-07-30T06:53:00.320Z</time>
      </trkpt>
      <trkpt lat="47.78724" lon="2.04436">
        <ele>119</ele>
        <time>2017-07-30T06:53:01.324Z</time>
      </trkpt>
      <trkpt lat="47.78725" lon="2.04427">
        <ele>119</ele>
        <time>2017-07-30T06:53:02.314Z</time>
      </trkpt>
      <trkpt lat="47.78725" lon="2.04427">
        <ele>119</ele>
        <time>2017-07-30T06:53:03.342Z</time>
      </trkpt>
      <trkpt lat="47.78728" lon="2.04413">
        <ele>119</ele>
        <time>2017-07-30T06:53:04.313Z</time>
      </trkpt>
      <trkpt lat="47.78729" lon="2.04406">
        <ele>119</ele>
        <time>2017-07-30T06:53:05.341Z</time>
      </trkpt>
      <trkpt lat="47.78729" lon="2.04406">
        <ele>119</ele>
        <time>2017-07-30T06:53:06.336Z</time>
      </trkpt>
      <trkpt lat="47.78731" lon="2.04391">
        <ele>119</ele>
        <time>2017-07-30T06:53:07.345Z</time>
      </trkpt>
      <trkpt lat="47.78731" lon="2.04391">
        <ele>119</ele>
        <time>2017-07-30T06:53:08.333Z</time>
      </trkpt>
      <trkpt lat="47.78733" lon="2.04377">
        <ele>120</ele>
        <time>2017-07-30T06:53:09.333Z</time>
      </trkpt>
      <trkpt lat="47.78733" lon="2.04377">
        <ele>120</ele>
        <time>2017-07-30T06:53:10.313Z</time>
      </trkpt>
      <trkpt lat="47.78735" lon="2.04362">
        <ele>120</ele>
        <time>2017-07-30T06:53:11.344Z</time>
      </trkpt>
      <trkpt lat="47.78735" lon="2.04362">
        <ele>120</ele>
        <time>2017-07-30T06:53:12.333Z</time>
      </trkpt>
      <trkpt lat="47.78737" lon="2.0435">
        <ele>120</ele>
        <time>2017-07-30T06:53:13.327Z</time>
      </trkpt>
      <trkpt lat="47.78737" lon="2.0435">
        <ele>120</ele>
        <time>2017-07-30T06:53:14.328Z</time>
      </trkpt>
      <trkpt lat="47.7874" lon="2.04336">
        <ele>118</ele>
        <time>2017-07-30T06:53:15.316Z</time>
      </trkpt>
      <trkpt lat="47.7874" lon="2.04336">
        <ele>118</ele>
        <time>2017-07-30T06:53:16.311Z</time>
      </trkpt>
      <trkpt lat="47.78742" lon="2.04322">
        <ele>117</ele>
        <time>2017-07-30T06:53:17.342Z</time>
      </trkpt>
      <trkpt lat="47.78742" lon="2.04322">
        <ele>117</ele>
        <time>2017-07-30T06:53:18.330Z</time>
      </trkpt>
      <trkpt lat="47.78744" lon="2.0431">
        <ele>117</ele>
        <time>2017-07-30T06:53:19.328Z</time>
      </trkpt>
      <trkpt lat="47.78744" lon="2.04303">
        <ele>117</ele>
        <time>2017-07-30T06:53:20.341Z</time>
      </trkpt>
      <trkpt lat="47.78744" lon="2.04303">
        <ele>117</ele>
        <time>2017-07-30T06:53:21.331Z</time>
      </trkpt>
      <trkpt lat="47.78746" lon="2.04292">
        <ele>117</ele>
        <time>2017-07-30T06:53:22.324Z</time>
      </trkpt>
      <trkpt lat="47.78747" lon="2.04285">
        <ele>117</ele>
        <time>2017-07-30T06:53:23.314Z</time>
      </trkpt>
      <trkpt lat="47.78747" lon="2.04285">
        <ele>117</ele>
        <time>2017-07-30T06:53:24.331Z</time>
      </trkpt>
      <trkpt lat="47.78749" lon="2.04273">
        <ele>117</ele>
        <time>2017-07-30T06:53:25.332Z</time>
      </trkpt>
      <trkpt lat="47.7875" lon="2.04267">
        <ele>117</ele>
        <time>2017-07-30T06:53:26.335Z</time>
      </trkpt>
      <trkpt lat="47.78751" lon="2.04261">
        <ele>117</ele>
        <time>2017-07-30T06:53:27.339Z</time>
      </trkpt>
      <trkpt lat="47.78751" lon="2.04261">
        <ele>117</ele>
        <time>2017-07-30T06:53:28.330Z</time>
      </trkpt>
      <trkpt lat="47.78753" lon="2.0425">
        <ele>117</ele>
        <time>2017-07-30T06:53:29.332Z</time>
      </trkpt>
      <trkpt lat="47.78753" lon="2.0425">
        <ele>117</ele>
        <time>2017-07-30T06:53:30.320Z</time>
      </trkpt>
      <trkpt lat="47.78755" lon="2.04237">
        <ele>116</ele>
        <time>2017-07-30T06:53:31.311Z</time>
      </trkpt>
      <trkpt lat="47.78756" lon="2.04232">
        <ele>116</ele>
        <time>2017-07-30T06:53:32.340Z</time>
      </trkpt>
      <trkpt lat="47.78756" lon="2.04232">
        <ele>116</ele>
        <time>2017-07-30T06:53:33.331Z</time>
      </trkpt>
      <trkpt lat="47.78757" lon="2.04219">
        <ele>116</ele>
        <time>2017-07-30T06:53:34.324Z</time>
      </trkpt>
      <trkpt lat="47.78758" lon="2.04213">
        <ele>116</ele>
        <time>2017-07-30T06:53:35.312Z</time>
      </trkpt>
      <trkpt lat="47.78758" lon="2.04213">
        <ele>116</ele>
        <time>2017-07-30T06:53:36.340Z</time>
      </trkpt>
      <trkpt lat="47.7876" lon="2.042">
        <ele>116</ele>
        <time>2017-07-30T06:53:37.330Z</time>
      </trkpt>
      <trkpt lat="47.78761" lon="2.04194">
        <ele>116</ele>
        <time>2017-07-30T06:53:38.323Z</time>
      </trkpt>
      <trkpt lat="47.78762" lon="2.04188">
        <ele>116</ele>
        <time>2017-07-30T06:53:39.324Z</time>
      </trkpt>
      <trkpt lat="47.78763" lon="2.04181">
        <ele>116</ele>
        <time>2017-07-30T06:53:40.330Z</time>
      </trkpt>
      <trkpt lat="47.78763" lon="2.04181">
        <ele>116</ele>
        <time>2017-07-30T06:53:41.319Z</time>
      </trkpt>
      <trkpt lat="47.78765" lon="2.04169">
        <ele>116</ele>
        <time>2017-07-30T06:53:42.332Z</time>
      </trkpt>
      <trkpt lat="47.78765" lon="2.04169">
        <ele>116</ele>
        <time>2017-07-30T06:53:43.320Z</time>
      </trkpt>
      <trkpt lat="47.78767" lon="2.04156">
        <ele>117</ele>
        <time>2017-07-30T06:53:44.350Z</time>
      </trkpt>
      <trkpt lat="47.78768" lon="2.0415">
        <ele>117</ele>
        <time>2017-07-30T06:53:45.349Z</time>
      </trkpt>
      <trkpt lat="47.78768" lon="2.0415">
        <ele>117</ele>
        <time>2017-07-30T06:53:46.337Z</time>
      </trkpt>
      <trkpt lat="47.7877" lon="2.04137">
        <ele>117</ele>
        <time>2017-07-30T06:53:47.325Z</time>
      </trkpt>
      <trkpt lat="47.78771" lon="2.0413">
        <ele>117</ele>
        <time>2017-07-30T06:53:48.329Z</time>
      </trkpt>
      <trkpt lat="47.78772" lon="2.04124">
        <ele>116</ele>
        <time>2017-07-30T06:53:49.351Z</time>
      </trkpt>
      <trkpt lat="47.78772" lon="2.04124">
        <ele>116</ele>
        <time>2017-07-30T06:53:50.342Z</time>
      </trkpt>
      <trkpt lat="47.78775" lon="2.04112">
        <ele>116</ele>
        <time>2017-07-30T06:53:51.344Z</time>
      </trkpt>
      <trkpt lat="47.78775" lon="2.04112">
        <ele>116</ele>
        <time>2017-07-30T06:53:52.333Z</time>
      </trkpt>
      <trkpt lat="47.78777" lon="2.041">
        <ele>116</ele>
        <time>2017-07-30T06:53:53.338Z</time>
      </trkpt>
      <trkpt lat="47.78777" lon="2.041">
        <ele>116</ele>
        <time>2017-07-30T06:53:54.335Z</time>
      </trkpt>
      <trkpt lat="47.78779" lon="2.04087">
        <ele>117</ele>
        <time>2017-07-30T06:53:55.341Z</time>
      </trkpt>
      <trkpt lat="47.78779" lon="2.04087">
        <ele>117</ele>
        <time>2017-07-30T06:53:56.347Z</time>
      </trkpt>
      <trkpt lat="47.7878" lon="2.04075">
        <ele>117</ele>
        <time>2017-07-30T06:53:57.337Z</time>
      </trkpt>
      <trkpt lat="47.78781" lon="2.04069">
        <ele>116</ele>
        <time>2017-07-30T06:53:58.328Z</time>
      </trkpt>
      <trkpt lat="47.78782" lon="2.04062">
        <ele>117</ele>
        <time>2017-07-30T06:53:59.318Z</time>
      </trkpt>
      <trkpt lat="47.78782" lon="2.04062">
        <ele>117</ele>
        <time>2017-07-30T06:54:00.346Z</time>
      </trkpt>
      <trkpt lat="47.78783" lon="2.0405">
        <ele>116</ele>
        <time>2017-07-30T06:54:01.345Z</time>
      </trkpt>
      <trkpt lat="47.78785" lon="2.04044">
        <ele>116</ele>
        <time>2017-07-30T06:54:02.336Z</time>
      </trkpt>
      <trkpt lat="47.78786" lon="2.04038">
        <ele>117</ele>
        <time>2017-07-30T06:54:03.347Z</time>
      </trkpt>
      <trkpt lat="47.78787" lon="2.04032">
        <ele>117</ele>
        <time>2017-07-30T06:54:04.312Z</time>
      </trkpt>
      <trkpt lat="47.78787" lon="2.04032">
        <ele>117</ele>
        <time>2017-07-30T06:54:05.340Z</time>
      </trkpt>
      <trkpt lat="47.78788" lon="2.04021">
        <ele>117</ele>
        <time>2017-07-30T06:54:06.338Z</time>
      </trkpt>
      <trkpt lat="47.78788" lon="2.04021">
        <ele>117</ele>
        <time>2017-07-30T06:54:07.330Z</time>
      </trkpt>
      <trkpt lat="47.78791" lon="2.0401">
        <ele>118</ele>
        <time>2017-07-30T06:54:08.330Z</time>
      </trkpt>
      <trkpt lat="47.78791" lon="2.0401">
        <ele>118</ele>
        <time>2017-07-30T06:54:09.324Z</time>
      </trkpt>
      <trkpt lat="47.78792" lon="2.04">
        <ele>117</ele>
        <time>2017-07-30T06:54:10.312Z</time>
      </trkpt>
      <trkpt lat="47.78793" lon="2.03995">
        <ele>118</ele>
        <time>2017-07-30T06:54:11.343Z</time>
      </trkpt>
      <trkpt lat="47.78793" lon="2.03995">
        <ele>118</ele>
        <time>2017-07-30T06:54:12.330Z</time>
      </trkpt>
      <trkpt lat="47.78794" lon="2.03985">
        <ele>118</ele>
        <time>2017-07-30T06:54:13.330Z</time>
      </trkpt>
      <trkpt lat="47.78794" lon="2.03985">
        <ele>118</ele>
        <time>2017-07-30T06:54:14.321Z</time>
      </trkpt>
      <trkpt lat="47.78796" lon="2.03976">
        <ele>118</ele>
        <time>2017-07-30T06:54:15.312Z</time>
      </trkpt>
      <trkpt lat="47.78796" lon="2.03976">
        <ele>118</ele>
        <time>2017-07-30T06:54:16.340Z</time>
      </trkpt>
      <trkpt lat="47.78797" lon="2.03967">
        <ele>117</ele>
        <time>2017-07-30T06:54:17.335Z</time>
      </trkpt>
      <trkpt lat="47.78797" lon="2.03967">
        <ele>117</ele>
        <time>2017-07-30T06:54:18.340Z</time>
      </trkpt>
      <trkpt lat="47.78798" lon="2.03958">
        <ele>116</ele>
        <time>2017-07-30T06:54:19.336Z</time>
      </trkpt>
      <trkpt lat="47.78798" lon="2.03958">
        <ele>116</ele>
        <time>2017-07-30T06:54:20.325Z</time>
      </trkpt>
      <trkpt lat="47.78799" lon="2.0395">
        <ele>116</ele>
        <time>2017-07-30T06:54:21.314Z</time>
      </trkpt>
      <trkpt lat="47.788" lon="2.03946">
        <ele>116</ele>
        <time>2017-07-30T06:54:22.343Z</time>
      </trkpt>
      <trkpt lat="47.788" lon="2.03946">
        <ele>116</ele>
        <time>2017-07-30T06:54:23.332Z</time>
      </trkpt>
      <trkpt lat="47.78801" lon="2.03938">
        <ele>116</ele>
        <time>2017-07-30T06:54:24.343Z</time>
      </trkpt>
      <trkpt lat="47.78801" lon="2.03934">
        <ele>117</ele>
        <time>2017-07-30T06:54:25.336Z</time>
      </trkpt>
      <trkpt lat="47.78801" lon="2.03934">
        <ele>117</ele>
        <time>2017-07-30T06:54:26.332Z</time>
      </trkpt>
      <trkpt lat="47.78802" lon="2.03925">
        <ele>117</ele>
        <time>2017-07-30T06:54:27.332Z</time>
      </trkpt>
      <trkpt lat="47.78802" lon="2.03925">
        <ele>117</ele>
        <time>2017-07-30T06:54:28.322Z</time>
      </trkpt>
      <trkpt lat="47.78804" lon="2.03916">
        <ele>117</ele>
        <time>2017-07-30T06:54:29.315Z</time>
      </trkpt>
      <trkpt lat="47.78804" lon="2.03916">
        <ele>117</ele>
        <time>2017-07-30T06:54:30.344Z</time>
      </trkpt>
      <trkpt lat="47.78805" lon="2.03907">
        <ele>118</ele>
        <time>2017-07-30T06:54:31.314Z</time>
      </trkpt>
      <trkpt lat="47.78805" lon="2.03907">
        <ele>118</ele>
        <time>2017-07-30T06:54:32.342Z</time>
      </trkpt>
      <trkpt lat="47.78805" lon="2.03898">
        <ele>117</ele>
        <time>2017-07-30T06:54:33.337Z</time>
      </trkpt>
      <trkpt lat="47.78805" lon="2.03898">
        <ele>117</ele>
        <time>2017-07-30T06:54:34.331Z</time>
      </trkpt>
      <trkpt lat="47.78806" lon="2.03894">
        <ele>117</ele>
        <time>2017-07-30T06:54:35.319Z</time>
      </trkpt>
      <trkpt lat="47.78806" lon="2.03894">
        <ele>117</ele>
        <time>2017-07-30T06:54:36.347Z</time>
      </trkpt>
      <trkpt lat="47.78806" lon="2.03894">
        <ele>116</ele>
        <time>2017-07-30T06:54:37.334Z</time>
      </trkpt>
      <trkpt lat="47.78806" lon="2.03894">
        <ele>116</ele>
        <time>2017-07-30T06:54:38.331Z</time>
      </trkpt>
      <trkpt lat="47.78806" lon="2.03887">
        <ele>118</ele>
        <time>2017-07-30T06:54:39.350Z</time>
      </trkpt>
      <trkpt lat="47.78804" lon="2.03884">
        <ele>118</ele>
        <time>2017-07-30T06:54:40.314Z</time>
      </trkpt>
      <trkpt lat="47.78804" lon="2.03884">
        <ele>118</ele>
        <time>2017-07-30T06:54:41.342Z</time>
      </trkpt>
      <trkpt lat="47.78797" lon="2.03881">
        <ele>118</ele>
        <time>2017-07-30T06:54:42.335Z</time>
      </trkpt>
      <trkpt lat="47.78792" lon="2.0388">
        <ele>118</ele>
        <time>2017-07-30T06:54:43.342Z</time>
      </trkpt>
      <trkpt lat="47.78792" lon="2.0388">
        <ele>118</ele>
        <time>2017-07-30T06:54:44.344Z</time>
      </trkpt>
      <trkpt lat="47.78783" lon="2.03878">
        <ele>119</ele>
        <time>2017-07-30T06:54:45.340Z</time>
      </trkpt>
      <trkpt lat="47.78783" lon="2.03878">
        <ele>119</ele>
        <time>2017-07-30T06:54:46.333Z</time>
      </trkpt>
      <trkpt lat="47.78774" lon="2.03876">
        <ele>119</ele>
        <time>2017-07-30T06:54:47.340Z</time>
      </trkpt>
      <trkpt lat="47.78774" lon="2.03876">
        <ele>119</ele>
        <time>2017-07-30T06:54:48.336Z</time>
      </trkpt>
      <trkpt lat="47.78765" lon="2.03874">
        <ele>119</ele>
        <time>2017-07-30T06:54:49.340Z</time>
      </trkpt>
      <trkpt lat="47.7876" lon="2.03874">
        <ele>119</ele>
        <time>2017-07-30T06:54:50.339Z</time>
      </trkpt>
      <trkpt lat="47.7876" lon="2.03874">
        <ele>119</ele>
        <time>2017-07-30T06:54:51.330Z</time>
      </trkpt>
      <trkpt lat="47.78751" lon="2.03872">
        <ele>120</ele>
        <time>2017-07-30T06:54:52.333Z</time>
      </trkpt>
      <trkpt lat="47.78751" lon="2.03872">
        <ele>120</ele>
        <time>2017-07-30T06:54:53.333Z</time>
      </trkpt>
      <trkpt lat="47.78743" lon="2.03871">
        <ele>120</ele>
        <time>2017-07-30T06:54:54.335Z</time>
      </trkpt>
      <trkpt lat="47.78738" lon="2.0387">
        <ele>120</ele>
        <time>2017-07-30T06:54:55.346Z</time>
      </trkpt>
      <trkpt lat="47.78738" lon="2.0387">
        <ele>120</ele>
        <time>2017-07-30T06:54:56.316Z</time>
      </trkpt>
      <trkpt lat="47.7873" lon="2.03869">
        <ele>120</ele>
        <time>2017-07-30T06:54:57.346Z</time>
      </trkpt>
      <trkpt lat="47.7873" lon="2.03869">
        <ele>120</ele>
        <time>2017-07-30T06:54:58.340Z</time>
      </trkpt>
      <trkpt lat="47.78722" lon="2.03867">
        <ele>121</ele>
        <time>2017-07-30T06:54:59.336Z</time>
      </trkpt>
      <trkpt lat="47.78722" lon="2.03867">
        <ele>121</ele>
        <time>2017-07-30T06:55:00.330Z</time>
      </trkpt>
      <trkpt lat="47.78714" lon="2.03866">
        <ele>121</ele>
        <time>2017-07-30T06:55:01.337Z</time>
      </trkpt>
      <trkpt lat="47.78714" lon="2.03866">
        <ele>121</ele>
        <time>2017-07-30T06:55:02.333Z</time>
      </trkpt>
      <trkpt lat="47.78707" lon="2.03864">
        <ele>121</ele>
        <time>2017-07-30T06:55:03.337Z</time>
      </trkpt>
      <trkpt lat="47.78707" lon="2.03864">
        <ele>121</ele>
        <time>2017-07-30T06:55:04.336Z</time>
      </trkpt>
      <trkpt lat="47.78699" lon="2.03863">
        <ele>121</ele>
        <time>2017-07-30T06:55:05.335Z</time>
      </trkpt>
      <trkpt lat="47.78699" lon="2.03863">
        <ele>121</ele>
        <time>2017-07-30T06:55:06.333Z</time>
      </trkpt>
      <trkpt lat="47.78691" lon="2.03862">
        <ele>121</ele>
        <time>2017-07-30T06:55:07.338Z</time>
      </trkpt>
      <trkpt lat="47.78691" lon="2.03862">
        <ele>121</ele>
        <time>2017-07-30T06:55:08.333Z</time>
      </trkpt>
      <trkpt lat="47.78683" lon="2.03861">
        <ele>121</ele>
        <time>2017-07-30T06:55:09.337Z</time>
      </trkpt>
      <trkpt lat="47.78683" lon="2.03861">
        <ele>121</ele>
        <time>2017-07-30T06:55:10.345Z</time>
      </trkpt>
      <trkpt lat="47.78676" lon="2.03859">
        <ele>121</ele>
        <time>2017-07-30T06:55:11.345Z</time>
      </trkpt>
      <trkpt lat="47.78672" lon="2.03858">
        <ele>121</ele>
        <time>2017-07-30T06:55:12.337Z</time>
      </trkpt>
      <trkpt lat="47.78668" lon="2.03857">
        <ele>121</ele>
        <time>2017-07-30T06:55:13.337Z</time>
      </trkpt>
      <trkpt lat="47.78668" lon="2.03857">
        <ele>121</ele>
        <time>2017-07-30T06:55:14.331Z</time>
      </trkpt>
      <trkpt lat="47.78659" lon="2.03855">
        <ele>121</ele>
        <time>2017-07-30T06:55:15.337Z</time>
      </trkpt>
      <trkpt lat="47.78659" lon="2.03855">
        <ele>121</ele>
        <time>2017-07-30T06:55:16.332Z</time>
      </trkpt>
      <trkpt lat="47.78651" lon="2.03853">
        <ele>121</ele>
        <time>2017-07-30T06:55:17.334Z</time>
      </trkpt>
      <trkpt lat="47.78646" lon="2.03852">
        <ele>121</ele>
        <time>2017-07-30T06:55:18.336Z</time>
      </trkpt>
      <trkpt lat="47.78646" lon="2.03852">
        <ele>121</ele>
        <time>2017-07-30T06:55:19.333Z</time>
      </trkpt>
      <trkpt lat="47.78638" lon="2.03851">
        <ele>121</ele>
        <time>2017-07-30T06:55:20.344Z</time>
      </trkpt>
      <trkpt lat="47.78634" lon="2.0385">
        <ele>121</ele>
        <time>2017-07-30T06:55:21.315Z</time>
      </trkpt>
      <trkpt lat="47.78634" lon="2.0385">
        <ele>121</ele>
        <time>2017-07-30T06:55:22.318Z</time>
      </trkpt>
      <trkpt lat="47.78626" lon="2.03848">
        <ele>121</ele>
        <time>2017-07-30T06:55:23.349Z</time>
      </trkpt>
      <trkpt lat="47.78626" lon="2.03848">
        <ele>121</ele>
        <time>2017-07-30T06:55:24.345Z</time>
      </trkpt>
      <trkpt lat="47.78618" lon="2.03846">
        <ele>121</ele>
        <time>2017-07-30T06:55:25.349Z</time>
      </trkpt>
      <trkpt lat="47.78618" lon="2.03846">
        <ele>121</ele>
        <time>2017-07-30T06:55:26.346Z</time>
      </trkpt>
      <trkpt lat="47.78609" lon="2.03844">
        <ele>121</ele>
        <time>2017-07-30T06:55:27.342Z</time>
      </trkpt>
      <trkpt lat="47.78609" lon="2.03844">
        <ele>121</ele>
        <time>2017-07-30T06:55:28.341Z</time>
      </trkpt>
      <trkpt lat="47.786" lon="2.03842">
        <ele>121</ele>
        <time>2017-07-30T06:55:29.337Z</time>
      </trkpt>
      <trkpt lat="47.786" lon="2.03842">
        <ele>121</ele>
        <time>2017-07-30T06:55:30.345Z</time>
      </trkpt>
      <trkpt lat="47.78591" lon="2.0384">
        <ele>121</ele>
        <time>2017-07-30T06:55:31.339Z</time>
      </trkpt>
      <trkpt lat="47.78587" lon="2.03839">
        <ele>121</ele>
        <time>2017-07-30T06:55:32.333Z</time>
      </trkpt>
      <trkpt lat="47.78587" lon="2.03839">
        <ele>121</ele>
        <time>2017-07-30T06:55:33.331Z</time>
      </trkpt>
      <trkpt lat="47.78578" lon="2.03837">
        <ele>121</ele>
        <time>2017-07-30T06:55:34.339Z</time>
      </trkpt>
      <trkpt lat="47.78573" lon="2.03836">
        <ele>121</ele>
        <time>2017-07-30T06:55:35.339Z</time>
      </trkpt>
      <trkpt lat="47.78573" lon="2.03836">
        <ele>121</ele>
        <time>2017-07-30T06:55:36.334Z</time>
      </trkpt>
      <trkpt lat="47.78564" lon="2.03834">
        <ele>120</ele>
        <time>2017-07-30T06:55:37.339Z</time>
      </trkpt>
      <trkpt lat="47.7856" lon="2.03833">
        <ele>120</ele>
        <time>2017-07-30T06:55:38.340Z</time>
      </trkpt>
      <trkpt lat="47.78555" lon="2.03832">
        <ele>120</ele>
        <time>2017-07-30T06:55:39.340Z</time>
      </trkpt>
      <trkpt lat="47.78555" lon="2.03832">
        <ele>120</ele>
        <time>2017-07-30T06:55:40.340Z</time>
      </trkpt>
      <trkpt lat="47.78546" lon="2.0383">
        <ele>120</ele>
        <time>2017-07-30T06:55:41.338Z</time>
      </trkpt>
      <trkpt lat="47.78546" lon="2.0383">
        <ele>120</ele>
        <time>2017-07-30T06:55:42.336Z</time>
      </trkpt>
      <trkpt lat="47.78538" lon="2.03828">
        <ele>120</ele>
        <time>2017-07-30T06:55:43.340Z</time>
      </trkpt>
      <trkpt lat="47.78538" lon="2.03828">
        <ele>120</ele>
        <time>2017-07-30T06:55:44.337Z</time>
      </trkpt>
      <trkpt lat="47.78529" lon="2.03826">
        <ele>120</ele>
        <time>2017-07-30T06:55:45.337Z</time>
      </trkpt>
      <trkpt lat="47.78529" lon="2.03826">
        <ele>120</ele>
        <time>2017-07-30T06:55:46.333Z</time>
      </trkpt>
      <trkpt lat="47.7852" lon="2.03823">
        <ele>120</ele>
        <time>2017-07-30T06:55:47.335Z</time>
      </trkpt>
      <trkpt lat="47.7852" lon="2.03823">
        <ele>120</ele>
        <time>2017-07-30T06:55:48.333Z</time>
      </trkpt>
      <trkpt lat="47.78511" lon="2.03821">
        <ele>119</ele>
        <time>2017-07-30T06:55:49.335Z</time>
      </trkpt>
      <trkpt lat="47.78511" lon="2.03821">
        <ele>119</ele>
        <time>2017-07-30T06:55:50.333Z</time>
      </trkpt>
      <trkpt lat="47.78502" lon="2.03819">
        <ele>119</ele>
        <time>2017-07-30T06:55:51.334Z</time>
      </trkpt>
      <trkpt lat="47.78502" lon="2.03819">
        <ele>119</ele>
        <time>2017-07-30T06:55:52.333Z</time>
      </trkpt>
      <trkpt lat="47.78492" lon="2.03817">
        <ele>119</ele>
        <time>2017-07-30T06:55:53.335Z</time>
      </trkpt>
      <trkpt lat="47.78492" lon="2.03817">
        <ele>119</ele>
        <time>2017-07-30T06:55:54.333Z</time>
      </trkpt>
      <trkpt lat="47.78483" lon="2.03815">
        <ele>119</ele>
        <time>2017-07-30T06:55:55.337Z</time>
      </trkpt>
      <trkpt lat="47.78483" lon="2.03815">
        <ele>119</ele>
        <time>2017-07-30T06:55:56.336Z</time>
      </trkpt>
      <trkpt lat="47.78474" lon="2.03813">
        <ele>119</ele>
        <time>2017-07-30T06:55:57.337Z</time>
      </trkpt>
      <trkpt lat="47.78469" lon="2.03812">
        <ele>119</ele>
        <time>2017-07-30T06:55:58.334Z</time>
      </trkpt>
      <trkpt lat="47.78469" lon="2.03812">
        <ele>119</ele>
        <time>2017-07-30T06:55:59.333Z</time>
      </trkpt>
      <trkpt lat="47.7846" lon="2.03812">
        <ele>119</ele>
        <time>2017-07-30T06:56:00.348Z</time>
      </trkpt>
      <trkpt lat="47.78455" lon="2.03812">
        <ele>119</ele>
        <time>2017-07-30T06:56:01.311Z</time>
      </trkpt>
      <trkpt lat="47.78455" lon="2.03812">
        <ele>119</ele>
        <time>2017-07-30T06:56:02.340Z</time>
      </trkpt>
      <trkpt lat="47.78446" lon="2.03813">
        <ele>119</ele>
        <time>2017-07-30T06:56:03.337Z</time>
      </trkpt>
      <trkpt lat="47.78446" lon="2.03813">
        <ele>119</ele>
        <time>2017-07-30T06:56:04.331Z</time>
      </trkpt>
      <trkpt lat="47.78436" lon="2.03815">
        <ele>120</ele>
        <time>2017-07-30T06:56:05.336Z</time>
      </trkpt>
      <trkpt lat="47.78436" lon="2.03815">
        <ele>120</ele>
        <time>2017-07-30T06:56:06.333Z</time>
      </trkpt>
      <trkpt lat="47.78427" lon="2.03817">
        <ele>120</ele>
        <time>2017-07-30T06:56:07.337Z</time>
      </trkpt>
      <trkpt lat="47.78427" lon="2.03817">
        <ele>120</ele>
        <time>2017-07-30T06:56:08.333Z</time>
      </trkpt>
      <trkpt lat="47.78417" lon="2.0382">
        <ele>120</ele>
        <time>2017-07-30T06:56:09.336Z</time>
      </trkpt>
      <trkpt lat="47.78417" lon="2.0382">
        <ele>120</ele>
        <time>2017-07-30T06:56:10.345Z</time>
      </trkpt>
      <trkpt lat="47.78407" lon="2.03822">
        <ele>120</ele>
        <time>2017-07-30T06:56:11.337Z</time>
      </trkpt>
      <trkpt lat="47.78403" lon="2.03823">
        <ele>120</ele>
        <time>2017-07-30T06:56:12.337Z</time>
      </trkpt>
      <trkpt lat="47.78398" lon="2.03823">
        <ele>120</ele>
        <time>2017-07-30T06:56:13.337Z</time>
      </trkpt>
      <trkpt lat="47.78398" lon="2.03823">
        <ele>120</ele>
        <time>2017-07-30T06:56:14.332Z</time>
      </trkpt>
      <trkpt lat="47.78388" lon="2.03822">
        <ele>120</ele>
        <time>2017-07-30T06:56:15.316Z</time>
      </trkpt>
      <trkpt lat="47.78388" lon="2.03822">
        <ele>120</ele>
        <time>2017-07-30T06:56:16.315Z</time>
      </trkpt>
      <trkpt lat="47.78378" lon="2.03818">
        <ele>121</ele>
        <time>2017-07-30T06:56:17.345Z</time>
      </trkpt>
      <trkpt lat="47.78373" lon="2.03816">
        <ele>121</ele>
        <time>2017-07-30T06:56:18.337Z</time>
      </trkpt>
      <trkpt lat="47.78373" lon="2.03816">
        <ele>121</ele>
        <time>2017-07-30T06:56:19.334Z</time>
      </trkpt>
      <trkpt lat="47.78363" lon="2.03809">
        <ele>121</ele>
        <time>2017-07-30T06:56:20.348Z</time>
      </trkpt>
      <trkpt lat="47.78363" lon="2.03809">
        <ele>121</ele>
        <time>2017-07-30T06:56:21.342Z</time>
      </trkpt>
      <trkpt lat="47.78354" lon="2.03801">
        <ele>121</ele>
        <time>2017-07-30T06:56:22.336Z</time>
      </trkpt>
      <trkpt lat="47.78354" lon="2.03801">
        <ele>121</ele>
        <time>2017-07-30T06:56:23.332Z</time>
      </trkpt>
      <trkpt lat="47.78345" lon="2.03793">
        <ele>121</ele>
        <time>2017-07-30T06:56:24.342Z</time>
      </trkpt>
      <trkpt lat="47.7834" lon="2.0379">
        <ele>121</ele>
        <time>2017-07-30T06:56:25.341Z</time>
      </trkpt>
      <trkpt lat="47.78336" lon="2.03785">
        <ele>121</ele>
        <time>2017-07-30T06:56:26.341Z</time>
      </trkpt>
      <trkpt lat="47.78332" lon="2.03781">
        <ele>121</ele>
        <time>2017-07-30T06:56:27.341Z</time>
      </trkpt>
      <trkpt lat="47.78332" lon="2.03781">
        <ele>121</ele>
        <time>2017-07-30T06:56:28.334Z</time>
      </trkpt>
      <trkpt lat="47.78323" lon="2.03773">
        <ele>121</ele>
        <time>2017-07-30T06:56:29.336Z</time>
      </trkpt>
      <trkpt lat="47.78323" lon="2.03773">
        <ele>121</ele>
        <time>2017-07-30T06:56:30.345Z</time>
      </trkpt>
      <trkpt lat="47.78315" lon="2.03764">
        <ele>121</ele>
        <time>2017-07-30T06:56:31.338Z</time>
      </trkpt>
      <trkpt lat="47.78315" lon="2.03764">
        <ele>121</ele>
        <time>2017-07-30T06:56:32.330Z</time>
      </trkpt>
      <trkpt lat="47.78307" lon="2.03756">
        <ele>121</ele>
        <time>2017-07-30T06:56:33.336Z</time>
      </trkpt>
      <trkpt lat="47.78307" lon="2.03756">
        <ele>121</ele>
        <time>2017-07-30T06:56:34.333Z</time>
      </trkpt>
      <trkpt lat="47.78299" lon="2.03748">
        <ele>121</ele>
        <time>2017-07-30T06:56:35.337Z</time>
      </trkpt>
      <trkpt lat="47.78299" lon="2.03748">
        <ele>121</ele>
        <time>2017-07-30T06:56:36.333Z</time>
      </trkpt>
      <trkpt lat="47.78291" lon="2.0374">
        <ele>120</ele>
        <time>2017-07-30T06:56:37.337Z</time>
      </trkpt>
      <trkpt lat="47.78291" lon="2.0374">
        <ele>120</ele>
        <time>2017-07-30T06:56:38.333Z</time>
      </trkpt>
      <trkpt lat="47.78283" lon="2.03732">
        <ele>120</ele>
        <time>2017-07-30T06:56:39.337Z</time>
      </trkpt>
      <trkpt lat="47.78283" lon="2.03732">
        <ele>120</ele>
        <time>2017-07-30T06:56:40.344Z</time>
      </trkpt>
      <trkpt lat="47.78276" lon="2.03723">
        <ele>120</ele>
        <time>2017-07-30T06:56:41.336Z</time>
      </trkpt>
      <trkpt lat="47.78272" lon="2.03719">
        <ele>120</ele>
        <time>2017-07-30T06:56:42.336Z</time>
      </trkpt>
      <trkpt lat="47.78272" lon="2.03719">
        <ele>120</ele>
        <time>2017-07-30T06:56:43.333Z</time>
      </trkpt>
      <trkpt lat="47.78264" lon="2.03711">
        <ele>120</ele>
        <time>2017-07-30T06:56:44.335Z</time>
      </trkpt>
      <trkpt lat="47.78264" lon="2.03711">
        <ele>120</ele>
        <time>2017-07-30T06:56:45.331Z</time>
      </trkpt>
      <trkpt lat="47.78256" lon="2.03703">
        <ele>120</ele>
        <time>2017-07-30T06:56:46.336Z</time>
      </trkpt>
      <trkpt lat="47.78252" lon="2.03699">
        <ele>120</ele>
        <time>2017-07-30T06:56:47.316Z</time>
      </trkpt>
      <trkpt lat="47.78248" lon="2.03695">
        <ele>120</ele>
        <time>2017-07-30T06:56:48.338Z</time>
      </trkpt>
      <trkpt lat="47.78248" lon="2.03695">
        <ele>120</ele>
        <time>2017-07-30T06:56:49.333Z</time>
      </trkpt>
      <trkpt lat="47.7824" lon="2.03687">
        <ele>120</ele>
        <time>2017-07-30T06:56:50.349Z</time>
      </trkpt>
      <trkpt lat="47.78236" lon="2.03682">
        <ele>120</ele>
        <time>2017-07-30T06:56:51.347Z</time>
      </trkpt>
      <trkpt lat="47.78236" lon="2.03682">
        <ele>120</ele>
        <time>2017-07-30T06:56:52.340Z</time>
      </trkpt>
      <trkpt lat="47.78228" lon="2.03674">
        <ele>120</ele>
        <time>2017-07-30T06:56:53.341Z</time>
      </trkpt>
      <trkpt lat="47.78228" lon="2.03674">
        <ele>120</ele>
        <time>2017-07-30T06:56:54.333Z</time>
      </trkpt>
      <trkpt lat="47.78221" lon="2.03666">
        <ele>120</ele>
        <time>2017-07-30T06:56:55.334Z</time>
      </trkpt>
      <trkpt lat="47.78221" lon="2.03666">
        <ele>120</ele>
        <time>2017-07-30T06:56:56.333Z</time>
      </trkpt>
      <trkpt lat="47.78213" lon="2.03659">
        <ele>120</ele>
        <time>2017-07-30T06:56:57.345Z</time>
      </trkpt>
      <trkpt lat="47.78209" lon="2.03655">
        <ele>120</ele>
        <time>2017-07-30T06:56:58.337Z</time>
      </trkpt>
      <trkpt lat="47.78209" lon="2.03655">
        <ele>120</ele>
        <time>2017-07-30T06:56:59.333Z</time>
      </trkpt>
      <trkpt lat="47.78201" lon="2.03648">
        <ele>120</ele>
        <time>2017-07-30T06:57:00.346Z</time>
      </trkpt>
      <trkpt lat="47.78197" lon="2.03645">
        <ele>120</ele>
        <time>2017-07-30T06:57:01.342Z</time>
      </trkpt>
      <trkpt lat="47.78193" lon="2.03643">
        <ele>120</ele>
        <time>2017-07-30T06:57:02.336Z</time>
      </trkpt>
      <trkpt lat="47.78193" lon="2.03643">
        <ele>120</ele>
        <time>2017-07-30T06:57:03.336Z</time>
      </trkpt>
      <trkpt lat="47.78185" lon="2.03638">
        <ele>121</ele>
        <time>2017-07-30T06:57:04.337Z</time>
      </trkpt>
      <trkpt lat="47.78185" lon="2.03638">
        <ele>121</ele>
        <time>2017-07-30T06:57:05.333Z</time>
      </trkpt>
      <trkpt lat="47.78177" lon="2.03634">
        <ele>121</ele>
        <time>2017-07-30T06:57:06.337Z</time>
      </trkpt>
      <trkpt lat="47.78177" lon="2.03634">
        <ele>121</ele>
        <time>2017-07-30T06:57:07.334Z</time>
      </trkpt>
      <trkpt lat="47.78169" lon="2.0363">
        <ele>121</ele>
        <time>2017-07-30T06:57:08.337Z</time>
      </trkpt>
      <trkpt lat="47.78165" lon="2.03629">
        <ele>121</ele>
        <time>2017-07-30T06:57:09.337Z</time>
      </trkpt>
      <trkpt lat="47.78165" lon="2.03629">
        <ele>121</ele>
        <time>2017-07-30T06:57:10.339Z</time>
      </trkpt>
      <trkpt lat="47.78156" lon="2.03626">
        <ele>121</ele>
        <time>2017-07-30T06:57:11.339Z</time>
      </trkpt>
      <trkpt lat="47.78156" lon="2.03626">
        <ele>121</ele>
        <time>2017-07-30T06:57:12.336Z</time>
      </trkpt>
      <trkpt lat="47.78148" lon="2.03623">
        <ele>121</ele>
        <time>2017-07-30T06:57:13.344Z</time>
      </trkpt>
      <trkpt lat="47.78148" lon="2.03623">
        <ele>121</ele>
        <time>2017-07-30T06:57:14.336Z</time>
      </trkpt>
      <trkpt lat="47.7814" lon="2.03619">
        <ele>121</ele>
        <time>2017-07-30T06:57:15.342Z</time>
      </trkpt>
      <trkpt lat="47.7814" lon="2.03619">
        <ele>121</ele>
        <time>2017-07-30T06:57:16.336Z</time>
      </trkpt>
      <trkpt lat="47.78131" lon="2.03616">
        <ele>120</ele>
        <time>2017-07-30T06:57:17.340Z</time>
      </trkpt>
      <trkpt lat="47.78127" lon="2.03614">
        <ele>120</ele>
        <time>2017-07-30T06:57:18.311Z</time>
      </trkpt>
      <trkpt lat="47.78123" lon="2.03612">
        <ele>120</ele>
        <time>2017-07-30T06:57:19.341Z</time>
      </trkpt>
      <trkpt lat="47.78123" lon="2.03612">
        <ele>120</ele>
        <time>2017-07-30T06:57:20.324Z</time>
      </trkpt>
      <trkpt lat="47.78115" lon="2.03609">
        <ele>120</ele>
        <time>2017-07-30T06:57:21.339Z</time>
      </trkpt>
      <trkpt lat="47.78115" lon="2.03609">
        <ele>120</ele>
        <time>2017-07-30T06:57:22.335Z</time>
      </trkpt>
      <trkpt lat="47.78106" lon="2.03606">
        <ele>120</ele>
        <time>2017-07-30T06:57:23.337Z</time>
      </trkpt>
      <trkpt lat="47.78106" lon="2.03606">
        <ele>120</ele>
        <time>2017-07-30T06:57:24.335Z</time>
      </trkpt>
      <trkpt lat="47.78098" lon="2.03603">
        <ele>120</ele>
        <time>2017-07-30T06:57:25.342Z</time>
      </trkpt>
      <trkpt lat="47.78098" lon="2.03603">
        <ele>120</ele>
        <time>2017-07-30T06:57:26.348Z</time>
      </trkpt>
      <trkpt lat="47.78089" lon="2.036">
        <ele>120</ele>
        <time>2017-07-30T06:57:27.345Z</time>
      </trkpt>
      <trkpt lat="47.78089" lon="2.036">
        <ele>120</ele>
        <time>2017-07-30T06:57:28.334Z</time>
      </trkpt>
      <trkpt lat="47.7808" lon="2.03596">
        <ele>121</ele>
        <time>2017-07-30T06:57:29.337Z</time>
      </trkpt>
      <trkpt lat="47.78076" lon="2.03594">
        <ele>121</ele>
        <time>2017-07-30T06:57:30.337Z</time>
      </trkpt>
      <trkpt lat="47.78076" lon="2.03594">
        <ele>121</ele>
        <time>2017-07-30T06:57:31.334Z</time>
      </trkpt>
      <trkpt lat="47.78068" lon="2.03591">
        <ele>122</ele>
        <time>2017-07-30T06:57:32.336Z</time>
      </trkpt>
      <trkpt lat="47.78063" lon="2.0359">
        <ele>121</ele>
        <time>2017-07-30T06:57:33.337Z</time>
      </trkpt>
      <trkpt lat="47.78063" lon="2.0359">
        <ele>121</ele>
        <time>2017-07-30T06:57:34.329Z</time>
      </trkpt>
      <trkpt lat="47.78055" lon="2.03587">
        <ele>122</ele>
        <time>2017-07-30T06:57:35.337Z</time>
      </trkpt>
      <trkpt lat="47.78051" lon="2.03585">
        <ele>122</ele>
        <time>2017-07-30T06:57:36.337Z</time>
      </trkpt>
      <trkpt lat="47.78051" lon="2.03585">
        <ele>122</ele>
        <time>2017-07-30T06:57:37.334Z</time>
      </trkpt>
      <trkpt lat="47.78042" lon="2.03581">
        <ele>123</ele>
        <time>2017-07-30T06:57:38.334Z</time>
      </trkpt>
      <trkpt lat="47.78042" lon="2.03581">
        <ele>123</ele>
        <time>2017-07-30T06:57:39.328Z</time>
      </trkpt>
      <trkpt lat="47.78034" lon="2.03578">
        <ele>123</ele>
        <time>2017-07-30T06:57:40.346Z</time>
      </trkpt>
      <trkpt lat="47.78034" lon="2.03578">
        <ele>123</ele>
        <time>2017-07-30T06:57:41.340Z</time>
      </trkpt>
      <trkpt lat="47.78025" lon="2.03574">
        <ele>123</ele>
        <time>2017-07-30T06:57:42.333Z</time>
      </trkpt>
      <trkpt lat="47.78021" lon="2.03573">
        <ele>123</ele>
        <time>2017-07-30T06:57:43.336Z</time>
      </trkpt>
      <trkpt lat="47.78021" lon="2.03573">
        <ele>123</ele>
        <time>2017-07-30T06:57:44.333Z</time>
      </trkpt>
      <trkpt lat="47.78012" lon="2.0357">
        <ele>124</ele>
        <time>2017-07-30T06:57:45.336Z</time>
      </trkpt>
      <trkpt lat="47.78012" lon="2.0357">
        <ele>124</ele>
        <time>2017-07-30T06:57:46.331Z</time>
      </trkpt>
      <trkpt lat="47.78004" lon="2.03567">
        <ele>124</ele>
        <time>2017-07-30T06:57:47.328Z</time>
      </trkpt>
      <trkpt lat="47.78" lon="2.03565">
        <ele>124</ele>
        <time>2017-07-30T06:57:48.337Z</time>
      </trkpt>
      <trkpt lat="47.78" lon="2.03565">
        <ele>124</ele>
        <time>2017-07-30T06:57:49.334Z</time>
      </trkpt>
      <trkpt lat="47.77992" lon="2.03562">
        <ele>124</ele>
        <time>2017-07-30T06:57:50.347Z</time>
      </trkpt>
      <trkpt lat="47.77988" lon="2.0356">
        <ele>124</ele>
        <time>2017-07-30T06:57:51.343Z</time>
      </trkpt>
      <trkpt lat="47.77988" lon="2.0356">
        <ele>124</ele>
        <time>2017-07-30T06:57:52.334Z</time>
      </trkpt>
      <trkpt lat="47.77979" lon="2.03557">
        <ele>124</ele>
        <time>2017-07-30T06:57:53.335Z</time>
      </trkpt>
      <trkpt lat="47.77975" lon="2.03555">
        <ele>124</ele>
        <time>2017-07-30T06:57:54.337Z</time>
      </trkpt>
      <trkpt lat="47.77971" lon="2.03553">
        <ele>124</ele>
        <time>2017-07-30T06:57:55.337Z</time>
      </trkpt>
      <trkpt lat="47.77971" lon="2.03553">
        <ele>124</ele>
        <time>2017-07-30T06:57:56.331Z</time>
      </trkpt>
      <trkpt lat="47.77962" lon="2.0355">
        <ele>123</ele>
        <time>2017-07-30T06:57:57.342Z</time>
      </trkpt>
      <trkpt lat="47.77958" lon="2.03549">
        <ele>123</ele>
        <time>2017-07-30T06:57:58.337Z</time>
      </trkpt>
      <trkpt lat="47.77958" lon="2.03549">
        <ele>123</ele>
        <time>2017-07-30T06:57:59.334Z</time>
      </trkpt>
      <trkpt lat="47.7795" lon="2.03545">
        <ele>123</ele>
        <time>2017-07-30T06:58:00.350Z</time>
      </trkpt>
      <trkpt lat="47.77946" lon="2.03544">
        <ele>123</ele>
        <time>2017-07-30T06:58:01.343Z</time>
      </trkpt>
      <trkpt lat="47.77946" lon="2.03544">
        <ele>123</ele>
        <time>2017-07-30T06:58:02.335Z</time>
      </trkpt>
      <trkpt lat="47.77938" lon="2.03541">
        <ele>123</ele>
        <time>2017-07-30T06:58:03.341Z</time>
      </trkpt>
      <trkpt lat="47.77934" lon="2.03539">
        <ele>123</ele>
        <time>2017-07-30T06:58:04.340Z</time>
      </trkpt>
      <trkpt lat="47.77934" lon="2.03539">
        <ele>123</ele>
        <time>2017-07-30T06:58:05.337Z</time>
      </trkpt>
      <trkpt lat="47.77925" lon="2.03536">
        <ele>124</ele>
        <time>2017-07-30T06:58:06.341Z</time>
      </trkpt>
      <trkpt lat="47.77921" lon="2.03534">
        <ele>124</ele>
        <time>2017-07-30T06:58:07.341Z</time>
      </trkpt>
      <trkpt lat="47.77921" lon="2.03534">
        <ele>124</ele>
        <time>2017-07-30T06:58:08.335Z</time>
      </trkpt>
      <trkpt lat="47.77913" lon="2.03532">
        <ele>124</ele>
        <time>2017-07-30T06:58:09.341Z</time>
      </trkpt>
      <trkpt lat="47.77913" lon="2.03532">
        <ele>124</ele>
        <time>2017-07-30T06:58:10.345Z</time>
      </trkpt>
      <trkpt lat="47.77905" lon="2.03528">
        <ele>124</ele>
        <time>2017-07-30T06:58:11.340Z</time>
      </trkpt>
      <trkpt lat="47.77905" lon="2.03528">
        <ele>124</ele>
        <time>2017-07-30T06:58:12.331Z</time>
      </trkpt>
      <trkpt lat="47.77896" lon="2.03526">
        <ele>123</ele>
        <time>2017-07-30T06:58:13.337Z</time>
      </trkpt>
      <trkpt lat="47.77896" lon="2.03526">
        <ele>123</ele>
        <time>2017-07-30T06:58:14.334Z</time>
      </trkpt>
      <trkpt lat="47.77888" lon="2.03522">
        <ele>123</ele>
        <time>2017-07-30T06:58:15.336Z</time>
      </trkpt>
      <trkpt lat="47.77884" lon="2.03521">
        <ele>123</ele>
        <time>2017-07-30T06:58:16.337Z</time>
      </trkpt>
      <trkpt lat="47.77884" lon="2.03521">
        <ele>123</ele>
        <time>2017-07-30T06:58:17.331Z</time>
      </trkpt>
      <trkpt lat="47.77876" lon="2.03517">
        <ele>123</ele>
        <time>2017-07-30T06:58:18.346Z</time>
      </trkpt>
      <trkpt lat="47.77872" lon="2.03516">
        <ele>123</ele>
        <time>2017-07-30T06:58:19.342Z</time>
      </trkpt>
      <trkpt lat="47.77872" lon="2.03516">
        <ele>123</ele>
        <time>2017-07-30T06:58:20.344Z</time>
      </trkpt>
      <trkpt lat="47.77863" lon="2.03512">
        <ele>124</ele>
        <time>2017-07-30T06:58:21.335Z</time>
      </trkpt>
      <trkpt lat="47.77859" lon="2.0351">
        <ele>124</ele>
        <time>2017-07-30T06:58:22.340Z</time>
      </trkpt>
      <trkpt lat="47.77859" lon="2.0351">
        <ele>124</ele>
        <time>2017-07-30T06:58:23.345Z</time>
      </trkpt>
      <trkpt lat="47.77851" lon="2.03506">
        <ele>124</ele>
        <time>2017-07-30T06:58:24.337Z</time>
      </trkpt>
      <trkpt lat="47.77847" lon="2.03504">
        <ele>124</ele>
        <time>2017-07-30T06:58:25.337Z</time>
      </trkpt>
      <trkpt lat="47.77847" lon="2.03504">
        <ele>124</ele>
        <time>2017-07-30T06:58:26.334Z</time>
      </trkpt>
      <trkpt lat="47.77839" lon="2.03501">
        <ele>125</ele>
        <time>2017-07-30T06:58:27.337Z</time>
      </trkpt>
      <trkpt lat="47.77839" lon="2.03501">
        <ele>125</ele>
        <time>2017-07-30T06:58:28.334Z</time>
      </trkpt>
      <trkpt lat="47.7783" lon="2.03498">
        <ele>126</ele>
        <time>2017-07-30T06:58:29.336Z</time>
      </trkpt>
      <trkpt lat="47.7783" lon="2.03498">
        <ele>126</ele>
        <time>2017-07-30T06:58:30.345Z</time>
      </trkpt>
      <trkpt lat="47.77822" lon="2.03494">
        <ele>126</ele>
        <time>2017-07-30T06:58:31.340Z</time>
      </trkpt>
      <trkpt lat="47.77822" lon="2.03494">
        <ele>126</ele>
        <time>2017-07-30T06:58:32.331Z</time>
      </trkpt>
      <trkpt lat="47.77814" lon="2.03491">
        <ele>126</ele>
        <time>2017-07-30T06:58:33.337Z</time>
      </trkpt>
      <trkpt lat="47.77814" lon="2.03491">
        <ele>126</ele>
        <time>2017-07-30T06:58:34.336Z</time>
      </trkpt>
      <trkpt lat="47.77806" lon="2.03488">
        <ele>126</ele>
        <time>2017-07-30T06:58:35.333Z</time>
      </trkpt>
      <trkpt lat="47.77802" lon="2.03486">
        <ele>126</ele>
        <time>2017-07-30T06:58:36.335Z</time>
      </trkpt>
      <trkpt lat="47.77798" lon="2.03484">
        <ele>126</ele>
        <time>2017-07-30T06:58:37.337Z</time>
      </trkpt>
      <trkpt lat="47.77798" lon="2.03484">
        <ele>126</ele>
        <time>2017-07-30T06:58:38.334Z</time>
      </trkpt>
      <trkpt lat="47.77789" lon="2.03481">
        <ele>126</ele>
        <time>2017-07-30T06:58:39.337Z</time>
      </trkpt>
      <trkpt lat="47.77789" lon="2.03481">
        <ele>126</ele>
        <time>2017-07-30T06:58:40.340Z</time>
      </trkpt>
      <trkpt lat="47.7778" lon="2.03477">
        <ele>125</ele>
        <time>2017-07-30T06:58:41.337Z</time>
      </trkpt>
      <trkpt lat="47.77776" lon="2.03476">
        <ele>125</ele>
        <time>2017-07-30T06:58:42.337Z</time>
      </trkpt>
      <trkpt lat="47.77772" lon="2.03473">
        <ele>125</ele>
        <time>2017-07-30T06:58:43.335Z</time>
      </trkpt>
      <trkpt lat="47.77772" lon="2.03473">
        <ele>125</ele>
        <time>2017-07-30T06:58:44.332Z</time>
      </trkpt>
      <trkpt lat="47.77763" lon="2.0347">
        <ele>126</ele>
        <time>2017-07-30T06:58:45.336Z</time>
      </trkpt>
      <trkpt lat="47.77758" lon="2.03468">
        <ele>127</ele>
        <time>2017-07-30T06:58:46.334Z</time>
      </trkpt>
      <trkpt lat="47.77758" lon="2.03468">
        <ele>127</ele>
        <time>2017-07-30T06:58:47.333Z</time>
      </trkpt>
      <trkpt lat="47.77749" lon="2.03464">
        <ele>127</ele>
        <time>2017-07-30T06:58:48.337Z</time>
      </trkpt>
      <trkpt lat="47.77745" lon="2.03462">
        <ele>126</ele>
        <time>2017-07-30T06:58:49.335Z</time>
      </trkpt>
      <trkpt lat="47.77745" lon="2.03462">
        <ele>126</ele>
        <time>2017-07-30T06:58:50.342Z</time>
      </trkpt>
      <trkpt lat="47.77737" lon="2.03458">
        <ele>126</ele>
        <time>2017-07-30T06:58:51.339Z</time>
      </trkpt>
      <trkpt lat="47.77737" lon="2.03458">
        <ele>126</ele>
        <time>2017-07-30T06:58:52.331Z</time>
      </trkpt>
      <trkpt lat="47.77728" lon="2.03454">
        <ele>127</ele>
        <time>2017-07-30T06:58:53.341Z</time>
      </trkpt>
      <trkpt lat="47.77728" lon="2.03454">
        <ele>127</ele>
        <time>2017-07-30T06:58:54.335Z</time>
      </trkpt>
      <trkpt lat="47.77719" lon="2.03451">
        <ele>127</ele>
        <time>2017-07-30T06:58:55.340Z</time>
      </trkpt>
      <trkpt lat="47.77715" lon="2.03449">
        <ele>127</ele>
        <time>2017-07-30T06:58:56.341Z</time>
      </trkpt>
      <trkpt lat="47.77715" lon="2.03449">
        <ele>127</ele>
        <time>2017-07-30T06:58:57.336Z</time>
      </trkpt>
      <trkpt lat="47.77706" lon="2.03446">
        <ele>127</ele>
        <time>2017-07-30T06:58:58.339Z</time>
      </trkpt>
      <trkpt lat="47.77702" lon="2.03444">
        <ele>127</ele>
        <time>2017-07-30T06:58:59.338Z</time>
      </trkpt>
      <trkpt lat="47.77702" lon="2.03444">
        <ele>127</ele>
        <time>2017-07-30T06:59:00.341Z</time>
      </trkpt>
      <trkpt lat="47.77694" lon="2.03441">
        <ele>127</ele>
        <time>2017-07-30T06:59:01.337Z</time>
      </trkpt>
      <trkpt lat="47.77694" lon="2.03441">
        <ele>127</ele>
        <time>2017-07-30T06:59:02.334Z</time>
      </trkpt>
      <trkpt lat="47.77685" lon="2.03437">
        <ele>127</ele>
        <time>2017-07-30T06:59:03.337Z</time>
      </trkpt>
      <trkpt lat="47.77685" lon="2.03437">
        <ele>127</ele>
        <time>2017-07-30T06:59:04.332Z</time>
      </trkpt>
      <trkpt lat="47.77677" lon="2.03434">
        <ele>127</ele>
        <time>2017-07-30T06:59:05.337Z</time>
      </trkpt>
      <trkpt lat="47.77677" lon="2.03434">
        <ele>127</ele>
        <time>2017-07-30T06:59:06.333Z</time>
      </trkpt>
      <trkpt lat="47.77668" lon="2.03431">
        <ele>127</ele>
        <time>2017-07-30T06:59:07.335Z</time>
      </trkpt>
      <trkpt lat="47.77668" lon="2.03431">
        <ele>127</ele>
        <time>2017-07-30T06:59:08.333Z</time>
      </trkpt>
      <trkpt lat="47.7766" lon="2.03427">
        <ele>127</ele>
        <time>2017-07-30T06:59:09.338Z</time>
      </trkpt>
      <trkpt lat="47.7766" lon="2.03427">
        <ele>127</ele>
        <time>2017-07-30T06:59:10.345Z</time>
      </trkpt>
      <trkpt lat="47.77651" lon="2.03423">
        <ele>127</ele>
        <time>2017-07-30T06:59:11.334Z</time>
      </trkpt>
      <trkpt lat="47.77647" lon="2.03421">
        <ele>127</ele>
        <time>2017-07-30T06:59:12.337Z</time>
      </trkpt>
      <trkpt lat="47.77642" lon="2.03419">
        <ele>127</ele>
        <time>2017-07-30T06:59:13.344Z</time>
      </trkpt>
      <trkpt lat="47.77642" lon="2.03419">
        <ele>127</ele>
        <time>2017-07-30T06:59:14.333Z</time>
      </trkpt>
      <trkpt lat="47.77634" lon="2.03416">
        <ele>127</ele>
        <time>2017-07-30T06:59:15.337Z</time>
      </trkpt>
      <trkpt lat="47.77634" lon="2.03416">
        <ele>127</ele>
        <time>2017-07-30T06:59:16.332Z</time>
      </trkpt>
      <trkpt lat="47.77625" lon="2.03413">
        <ele>127</ele>
        <time>2017-07-30T06:59:17.337Z</time>
      </trkpt>
      <trkpt lat="47.77625" lon="2.03413">
        <ele>127</ele>
        <time>2017-07-30T06:59:18.331Z</time>
      </trkpt>
      <trkpt lat="47.77617" lon="2.0341">
        <ele>126</ele>
        <time>2017-07-30T06:59:19.335Z</time>
      </trkpt>
      <trkpt lat="47.77617" lon="2.0341">
        <ele>126</ele>
        <time>2017-07-30T06:59:20.346Z</time>
      </trkpt>
      <trkpt lat="47.77608" lon="2.03406">
        <ele>127</ele>
        <time>2017-07-30T06:59:21.344Z</time>
      </trkpt>
      <trkpt lat="47.77608" lon="2.03406">
        <ele>127</ele>
        <time>2017-07-30T06:59:22.333Z</time>
      </trkpt>
      <trkpt lat="47.776" lon="2.03403">
        <ele>126</ele>
        <time>2017-07-30T06:59:23.335Z</time>
      </trkpt>
      <trkpt lat="47.77595" lon="2.03402">
        <ele>126</ele>
        <time>2017-07-30T06:59:24.338Z</time>
      </trkpt>
      <trkpt lat="47.77595" lon="2.03402">
        <ele>126</ele>
        <time>2017-07-30T06:59:25.336Z</time>
      </trkpt>
      <trkpt lat="47.77586" lon="2.034">
        <ele>127</ele>
        <time>2017-07-30T06:59:26.335Z</time>
      </trkpt>
      <trkpt lat="47.77586" lon="2.034">
        <ele>127</ele>
        <time>2017-07-30T06:59:27.332Z</time>
      </trkpt>
      <trkpt lat="47.77577" lon="2.03399">
        <ele>126</ele>
        <time>2017-07-30T06:59:28.335Z</time>
      </trkpt>
      <trkpt lat="47.77572" lon="2.03399">
        <ele>126</ele>
        <time>2017-07-30T06:59:29.335Z</time>
      </trkpt>
      <trkpt lat="47.77572" lon="2.03399">
        <ele>126</ele>
        <time>2017-07-30T06:59:30.345Z</time>
      </trkpt>
      <trkpt lat="47.77563" lon="2.034">
        <ele>127</ele>
        <time>2017-07-30T06:59:31.338Z</time>
      </trkpt>
      <trkpt lat="47.77563" lon="2.034">
        <ele>127</ele>
        <time>2017-07-30T06:59:32.334Z</time>
      </trkpt>
      <trkpt lat="47.77553" lon="2.03401">
        <ele>127</ele>
        <time>2017-07-30T06:59:33.346Z</time>
      </trkpt>
      <trkpt lat="47.77553" lon="2.03401">
        <ele>127</ele>
        <time>2017-07-30T06:59:34.338Z</time>
      </trkpt>
      <trkpt lat="47.77543" lon="2.03403">
        <ele>127</ele>
        <time>2017-07-30T06:59:35.336Z</time>
      </trkpt>
      <trkpt lat="47.77543" lon="2.03403">
        <ele>127</ele>
        <time>2017-07-30T06:59:36.334Z</time>
      </trkpt>
      <trkpt lat="47.77534" lon="2.03405">
        <ele>126</ele>
        <time>2017-07-30T06:59:37.341Z</time>
      </trkpt>
      <trkpt lat="47.77534" lon="2.03405">
        <ele>126</ele>
        <time>2017-07-30T06:59:38.331Z</time>
      </trkpt>
      <trkpt lat="47.77524" lon="2.03407">
        <ele>126</ele>
        <time>2017-07-30T06:59:39.341Z</time>
      </trkpt>
      <trkpt lat="47.77524" lon="2.03407">
        <ele>126</ele>
        <time>2017-07-30T06:59:40.345Z</time>
      </trkpt>
      <trkpt lat="47.77514" lon="2.03409">
        <ele>126</ele>
        <time>2017-07-30T06:59:41.340Z</time>
      </trkpt>
      <trkpt lat="47.77509" lon="2.0341">
        <ele>126</ele>
        <time>2017-07-30T06:59:42.342Z</time>
      </trkpt>
      <trkpt lat="47.77509" lon="2.0341">
        <ele>126</ele>
        <time>2017-07-30T06:59:43.337Z</time>
      </trkpt>
      <trkpt lat="47.77499" lon="2.03411">
        <ele>126</ele>
        <time>2017-07-30T06:59:44.342Z</time>
      </trkpt>
      <trkpt lat="47.77494" lon="2.03412">
        <ele>126</ele>
        <time>2017-07-30T06:59:45.342Z</time>
      </trkpt>
      <trkpt lat="47.77494" lon="2.03412">
        <ele>126</ele>
        <time>2017-07-30T06:59:46.335Z</time>
      </trkpt>
      <trkpt lat="47.77484" lon="2.03412">
        <ele>126</ele>
        <time>2017-07-30T06:59:47.337Z</time>
      </trkpt>
      <trkpt lat="47.77484" lon="2.03412">
        <ele>126</ele>
        <time>2017-07-30T06:59:48.338Z</time>
      </trkpt>
      <trkpt lat="47.77473" lon="2.03411">
        <ele>126</ele>
        <time>2017-07-30T06:59:49.339Z</time>
      </trkpt>
      <trkpt lat="47.77473" lon="2.03411">
        <ele>126</ele>
        <time>2017-07-30T06:59:50.332Z</time>
      </trkpt>
      <trkpt lat="47.77463" lon="2.0341">
        <ele>126</ele>
        <time>2017-07-30T06:59:51.339Z</time>
      </trkpt>
      <trkpt lat="47.77463" lon="2.0341">
        <ele>126</ele>
        <time>2017-07-30T06:59:52.334Z</time>
      </trkpt>
      <trkpt lat="47.77452" lon="2.03409">
        <ele>126</ele>
        <time>2017-07-30T06:59:53.336Z</time>
      </trkpt>
      <trkpt lat="47.77447" lon="2.03408">
        <ele>126</ele>
        <time>2017-07-30T06:59:54.333Z</time>
      </trkpt>
      <trkpt lat="47.77442" lon="2.03407">
        <ele>126</ele>
        <time>2017-07-30T06:59:55.338Z</time>
      </trkpt>
      <trkpt lat="47.77442" lon="2.03407">
        <ele>126</ele>
        <time>2017-07-30T06:59:56.334Z</time>
      </trkpt>
      <trkpt lat="47.77431" lon="2.03406">
        <ele>126</ele>
        <time>2017-07-30T06:59:57.337Z</time>
      </trkpt>
      <trkpt lat="47.77431" lon="2.03406">
        <ele>126</ele>
        <time>2017-07-30T06:59:58.334Z</time>
      </trkpt>
      <trkpt lat="47.7742" lon="2.03404">
        <ele>126</ele>
        <time>2017-07-30T06:59:59.336Z</time>
      </trkpt>
      <trkpt lat="47.7742" lon="2.03404">
        <ele>126</ele>
        <time>2017-07-30T07:00:00.346Z</time>
      </trkpt>
      <trkpt lat="47.7741" lon="2.03403">
        <ele>126</ele>
        <time>2017-07-30T07:00:01.337Z</time>
      </trkpt>
      <trkpt lat="47.7741" lon="2.03403">
        <ele>126</ele>
        <time>2017-07-30T07:00:02.332Z</time>
      </trkpt>
      <trkpt lat="47.77399" lon="2.03402">
        <ele>125</ele>
        <time>2017-07-30T07:00:03.337Z</time>
      </trkpt>
      <trkpt lat="47.77399" lon="2.03402">
        <ele>125</ele>
        <time>2017-07-30T07:00:04.334Z</time>
      </trkpt>
      <trkpt lat="47.77389" lon="2.034">
        <ele>125</ele>
        <time>2017-07-30T07:00:05.337Z</time>
      </trkpt>
      <trkpt lat="47.77384" lon="2.034">
        <ele>125</ele>
        <time>2017-07-30T07:00:06.337Z</time>
      </trkpt>
      <trkpt lat="47.77379" lon="2.03399">
        <ele>125</ele>
        <time>2017-07-30T07:00:07.335Z</time>
      </trkpt>
      <trkpt lat="47.77379" lon="2.03399">
        <ele>125</ele>
        <time>2017-07-30T07:00:08.334Z</time>
      </trkpt>
      <trkpt lat="47.77369" lon="2.03398">
        <ele>125</ele>
        <time>2017-07-30T07:00:09.337Z</time>
      </trkpt>
      <trkpt lat="47.77369" lon="2.03398">
        <ele>125</ele>
        <time>2017-07-30T07:00:10.331Z</time>
      </trkpt>
      <trkpt lat="47.77358" lon="2.03396">
        <ele>125</ele>
        <time>2017-07-30T07:00:11.334Z</time>
      </trkpt>
      <trkpt lat="47.77358" lon="2.03396">
        <ele>125</ele>
        <time>2017-07-30T07:00:12.334Z</time>
      </trkpt>
      <trkpt lat="47.77348" lon="2.03395">
        <ele>125</ele>
        <time>2017-07-30T07:00:13.347Z</time>
      </trkpt>
      <trkpt lat="47.77348" lon="2.03395">
        <ele>125</ele>
        <time>2017-07-30T07:00:14.315Z</time>
      </trkpt>
      <trkpt lat="47.77337" lon="2.03394">
        <ele>125</ele>
        <time>2017-07-30T07:00:15.347Z</time>
      </trkpt>
      <trkpt lat="47.77337" lon="2.03394">
        <ele>125</ele>
        <time>2017-07-30T07:00:16.340Z</time>
      </trkpt>
      <trkpt lat="47.77327" lon="2.03393">
        <ele>125</ele>
        <time>2017-07-30T07:00:17.337Z</time>
      </trkpt>
      <trkpt lat="47.77327" lon="2.03393">
        <ele>125</ele>
        <time>2017-07-30T07:00:18.334Z</time>
      </trkpt>
      <trkpt lat="47.77316" lon="2.03391">
        <ele>124</ele>
        <time>2017-07-30T07:00:19.338Z</time>
      </trkpt>
      <trkpt lat="47.77316" lon="2.03391">
        <ele>124</ele>
        <time>2017-07-30T07:00:20.341Z</time>
      </trkpt>
      <trkpt lat="47.77305" lon="2.0339">
        <ele>124</ele>
        <time>2017-07-30T07:00:21.347Z</time>
      </trkpt>
      <trkpt lat="47.77305" lon="2.0339">
        <ele>124</ele>
        <time>2017-07-30T07:00:22.340Z</time>
      </trkpt>
      <trkpt lat="47.77293" lon="2.03389">
        <ele>124</ele>
        <time>2017-07-30T07:00:23.337Z</time>
      </trkpt>
      <trkpt lat="47.77288" lon="2.03388">
        <ele>124</ele>
        <time>2017-07-30T07:00:24.337Z</time>
      </trkpt>
      <trkpt lat="47.77283" lon="2.03388">
        <ele>124</ele>
        <time>2017-07-30T07:00:25.349Z</time>
      </trkpt>
      <trkpt lat="47.77277" lon="2.03387">
        <ele>124</ele>
        <time>2017-07-30T07:00:26.315Z</time>
      </trkpt>
      <trkpt lat="47.77277" lon="2.03387">
        <ele>124</ele>
        <time>2017-07-30T07:00:27.344Z</time>
      </trkpt>
      <trkpt lat="47.77267" lon="2.03385">
        <ele>123</ele>
        <time>2017-07-30T07:00:28.342Z</time>
      </trkpt>
      <trkpt lat="47.77267" lon="2.03385">
        <ele>123</ele>
        <time>2017-07-30T07:00:29.338Z</time>
      </trkpt>
      <trkpt lat="47.77257" lon="2.03384">
        <ele>123</ele>
        <time>2017-07-30T07:00:30.342Z</time>
      </trkpt>
      <trkpt lat="47.77257" lon="2.03384">
        <ele>123</ele>
        <time>2017-07-30T07:00:31.336Z</time>
      </trkpt>
      <trkpt lat="47.77247" lon="2.03383">
        <ele>123</ele>
        <time>2017-07-30T07:00:32.312Z</time>
      </trkpt>
      <trkpt lat="47.77247" lon="2.03383">
        <ele>123</ele>
        <time>2017-07-30T07:00:33.341Z</time>
      </trkpt>
      <trkpt lat="47.77238" lon="2.03381">
        <ele>123</ele>
        <time>2017-07-30T07:00:34.339Z</time>
      </trkpt>
      <trkpt lat="47.77238" lon="2.03381">
        <ele>123</ele>
        <time>2017-07-30T07:00:35.334Z</time>
      </trkpt>
      <trkpt lat="47.77228" lon="2.03381">
        <ele>123</ele>
        <time>2017-07-30T07:00:36.343Z</time>
      </trkpt>
      <trkpt lat="47.77228" lon="2.03381">
        <ele>123</ele>
        <time>2017-07-30T07:00:37.349Z</time>
      </trkpt>
      <trkpt lat="47.7722" lon="2.0338">
        <ele>122</ele>
        <time>2017-07-30T07:00:38.344Z</time>
      </trkpt>
      <trkpt lat="47.7722" lon="2.0338">
        <ele>122</ele>
        <time>2017-07-30T07:00:39.343Z</time>
      </trkpt>
      <trkpt lat="47.77214" lon="2.03379">
        <ele>122</ele>
        <time>2017-07-30T07:00:40.346Z</time>
      </trkpt>
      <trkpt lat="47.77212" lon="2.03377">
        <ele>122</ele>
        <time>2017-07-30T07:00:41.343Z</time>
      </trkpt>
      <trkpt lat="47.77212" lon="2.03377">
        <ele>122</ele>
        <time>2017-07-30T07:00:42.332Z</time>
      </trkpt>
      <trkpt lat="47.77211" lon="2.0337">
        <ele>122</ele>
        <time>2017-07-30T07:00:43.338Z</time>
      </trkpt>
      <trkpt lat="47.77211" lon="2.0337">
        <ele>122</ele>
        <time>2017-07-30T07:00:44.333Z</time>
      </trkpt>
      <trkpt lat="47.77213" lon="2.03364">
        <ele>122</ele>
        <time>2017-07-30T07:00:45.338Z</time>
      </trkpt>
      <trkpt lat="47.77213" lon="2.03364">
        <ele>122</ele>
        <time>2017-07-30T07:00:46.333Z</time>
      </trkpt>
      <trkpt lat="47.77216" lon="2.03357">
        <ele>121</ele>
        <time>2017-07-30T07:00:47.338Z</time>
      </trkpt>
      <trkpt lat="47.77216" lon="2.03357">
        <ele>121</ele>
        <time>2017-07-30T07:00:48.336Z</time>
      </trkpt>
      <trkpt lat="47.7722" lon="2.0335">
        <ele>122</ele>
        <time>2017-07-30T07:00:49.338Z</time>
      </trkpt>
      <trkpt lat="47.7722" lon="2.0335">
        <ele>122</ele>
        <time>2017-07-30T07:00:50.345Z</time>
      </trkpt>
      <trkpt lat="47.77223" lon="2.03342">
        <ele>121</ele>
        <time>2017-07-30T07:00:51.337Z</time>
      </trkpt>
      <trkpt lat="47.77223" lon="2.03342">
        <ele>121</ele>
        <time>2017-07-30T07:00:52.334Z</time>
      </trkpt>
      <trkpt lat="47.77227" lon="2.03336">
        <ele>121</ele>
        <time>2017-07-30T07:00:53.337Z</time>
      </trkpt>
      <trkpt lat="47.77227" lon="2.03336">
        <ele>121</ele>
        <time>2017-07-30T07:00:54.331Z</time>
      </trkpt>
      <trkpt lat="47.77231" lon="2.03327">
        <ele>121</ele>
        <time>2017-07-30T07:00:55.338Z</time>
      </trkpt>
      <trkpt lat="47.77231" lon="2.03327">
        <ele>121</ele>
        <time>2017-07-30T07:00:56.329Z</time>
      </trkpt>
      <trkpt lat="47.77235" lon="2.03319">
        <ele>121</ele>
        <time>2017-07-30T07:00:57.337Z</time>
      </trkpt>
      <trkpt lat="47.77235" lon="2.03319">
        <ele>121</ele>
        <time>2017-07-30T07:00:58.334Z</time>
      </trkpt>
      <trkpt lat="47.77239" lon="2.03311">
        <ele>121</ele>
        <time>2017-07-30T07:00:59.337Z</time>
      </trkpt>
      <trkpt lat="47.77239" lon="2.03311">
        <ele>121</ele>
        <time>2017-07-30T07:01:00.346Z</time>
      </trkpt>
      <trkpt lat="47.77244" lon="2.03303">
        <ele>121</ele>
        <time>2017-07-30T07:01:01.338Z</time>
      </trkpt>
      <trkpt lat="47.77244" lon="2.03303">
        <ele>121</ele>
        <time>2017-07-30T07:01:02.340Z</time>
      </trkpt>
      <trkpt lat="47.77249" lon="2.03295">
        <ele>121</ele>
        <time>2017-07-30T07:01:03.337Z</time>
      </trkpt>
      <trkpt lat="47.77249" lon="2.03295">
        <ele>121</ele>
        <time>2017-07-30T07:01:04.331Z</time>
      </trkpt>
      <trkpt lat="47.77254" lon="2.03286">
        <ele>121</ele>
        <time>2017-07-30T07:01:05.337Z</time>
      </trkpt>
      <trkpt lat="47.77254" lon="2.03286">
        <ele>121</ele>
        <time>2017-07-30T07:01:06.332Z</time>
      </trkpt>
      <trkpt lat="47.77259" lon="2.03278">
        <ele>121</ele>
        <time>2017-07-30T07:01:07.338Z</time>
      </trkpt>
      <trkpt lat="47.77261" lon="2.03273">
        <ele>121</ele>
        <time>2017-07-30T07:01:08.338Z</time>
      </trkpt>
      <trkpt lat="47.77261" lon="2.03273">
        <ele>121</ele>
        <time>2017-07-30T07:01:09.331Z</time>
      </trkpt>
      <trkpt lat="47.77266" lon="2.03264">
        <ele>121</ele>
        <time>2017-07-30T07:01:10.347Z</time>
      </trkpt>
      <trkpt lat="47.77269" lon="2.0326">
        <ele>121</ele>
        <time>2017-07-30T07:01:11.342Z</time>
      </trkpt>
      <trkpt lat="47.77271" lon="2.03255">
        <ele>121</ele>
        <time>2017-07-30T07:01:12.341Z</time>
      </trkpt>
      <trkpt lat="47.77274" lon="2.0325">
        <ele>121</ele>
        <time>2017-07-30T07:01:13.342Z</time>
      </trkpt>
      <trkpt lat="47.77274" lon="2.0325">
        <ele>121</ele>
        <time>2017-07-30T07:01:14.336Z</time>
      </trkpt>
      <trkpt lat="47.77279" lon="2.03241">
        <ele>121</ele>
        <time>2017-07-30T07:01:15.340Z</time>
      </trkpt>
      <trkpt lat="47.77282" lon="2.03236">
        <ele>121</ele>
        <time>2017-07-30T07:01:16.339Z</time>
      </trkpt>
      <trkpt lat="47.77282" lon="2.03236">
        <ele>121</ele>
        <time>2017-07-30T07:01:17.339Z</time>
      </trkpt>
      <trkpt lat="47.77288" lon="2.03227">
        <ele>121</ele>
        <time>2017-07-30T07:01:18.339Z</time>
      </trkpt>
      <trkpt lat="47.77288" lon="2.03227">
        <ele>121</ele>
        <time>2017-07-30T07:01:19.334Z</time>
      </trkpt>
      <trkpt lat="47.77294" lon="2.03216">
        <ele>121</ele>
        <time>2017-07-30T07:01:20.344Z</time>
      </trkpt>
      <trkpt lat="47.77294" lon="2.03216">
        <ele>121</ele>
        <time>2017-07-30T07:01:21.334Z</time>
      </trkpt>
      <trkpt lat="47.77299" lon="2.03206">
        <ele>121</ele>
        <time>2017-07-30T07:01:22.337Z</time>
      </trkpt>
      <trkpt lat="47.77299" lon="2.03206">
        <ele>121</ele>
        <time>2017-07-30T07:01:23.334Z</time>
      </trkpt>
      <trkpt lat="47.77304" lon="2.03195">
        <ele>121</ele>
        <time>2017-07-30T07:01:24.337Z</time>
      </trkpt>
      <trkpt lat="47.77306" lon="2.03189">
        <ele>121</ele>
        <time>2017-07-30T07:01:25.338Z</time>
      </trkpt>
      <trkpt lat="47.77306" lon="2.03189">
        <ele>121</ele>
        <time>2017-07-30T07:01:26.329Z</time>
      </trkpt>
      <trkpt lat="47.77311" lon="2.03178">
        <ele>120</ele>
        <time>2017-07-30T07:01:27.337Z</time>
      </trkpt>
      <trkpt lat="47.77311" lon="2.03178">
        <ele>120</ele>
        <time>2017-07-30T07:01:28.334Z</time>
      </trkpt>
      <trkpt lat="47.77316" lon="2.03167">
        <ele>120</ele>
        <time>2017-07-30T07:01:29.340Z</time>
      </trkpt>
      <trkpt lat="47.77318" lon="2.03161">
        <ele>120</ele>
        <time>2017-07-30T07:01:30.315Z</time>
      </trkpt>
      <trkpt lat="47.7732" lon="2.03155">
        <ele>120</ele>
        <time>2017-07-30T07:01:31.347Z</time>
      </trkpt>
      <trkpt lat="47.7732" lon="2.03155">
        <ele>120</ele>
        <time>2017-07-30T07:01:32.340Z</time>
      </trkpt>
      <trkpt lat="47.77325" lon="2.03143">
        <ele>120</ele>
        <time>2017-07-30T07:01:33.334Z</time>
      </trkpt>
      <trkpt lat="47.77325" lon="2.03143">
        <ele>120</ele>
        <time>2017-07-30T07:01:34.344Z</time>
      </trkpt>
      <trkpt lat="47.7733" lon="2.03131">
        <ele>120</ele>
        <time>2017-07-30T07:01:35.337Z</time>
      </trkpt>
      <trkpt lat="47.7733" lon="2.03131">
        <ele>120</ele>
        <time>2017-07-30T07:01:36.332Z</time>
      </trkpt>
      <trkpt lat="47.77335" lon="2.0312">
        <ele>121</ele>
        <time>2017-07-30T07:01:37.338Z</time>
      </trkpt>
      <trkpt lat="47.77335" lon="2.0312">
        <ele>121</ele>
        <time>2017-07-30T07:01:38.334Z</time>
      </trkpt>
      <trkpt lat="47.7734" lon="2.03107">
        <ele>121</ele>
        <time>2017-07-30T07:01:39.338Z</time>
      </trkpt>
      <trkpt lat="47.7734" lon="2.03107">
        <ele>121</ele>
        <time>2017-07-30T07:01:40.346Z</time>
      </trkpt>
      <trkpt lat="47.77345" lon="2.03095">
        <ele>121</ele>
        <time>2017-07-30T07:01:41.347Z</time>
      </trkpt>
      <trkpt lat="47.77347" lon="2.03089">
        <ele>121</ele>
        <time>2017-07-30T07:01:42.338Z</time>
      </trkpt>
      <trkpt lat="47.77347" lon="2.03089">
        <ele>121</ele>
        <time>2017-07-30T07:01:43.330Z</time>
      </trkpt>
      <trkpt lat="47.77352" lon="2.03077">
        <ele>121</ele>
        <time>2017-07-30T07:01:44.337Z</time>
      </trkpt>
      <trkpt lat="47.77354" lon="2.03071">
        <ele>121</ele>
        <time>2017-07-30T07:01:45.324Z</time>
      </trkpt>
      <trkpt lat="47.77354" lon="2.03071">
        <ele>121</ele>
        <time>2017-07-30T07:01:46.317Z</time>
      </trkpt>
      <trkpt lat="47.77359" lon="2.03059">
        <ele>121</ele>
        <time>2017-07-30T07:01:47.347Z</time>
      </trkpt>
      <trkpt lat="47.77362" lon="2.03052">
        <ele>121</ele>
        <time>2017-07-30T07:01:48.340Z</time>
      </trkpt>
      <trkpt lat="47.77364" lon="2.03046">
        <ele>121</ele>
        <time>2017-07-30T07:01:49.338Z</time>
      </trkpt>
      <trkpt lat="47.77364" lon="2.03046">
        <ele>121</ele>
        <time>2017-07-30T07:01:50.346Z</time>
      </trkpt>
      <trkpt lat="47.77369" lon="2.03034">
        <ele>120</ele>
        <time>2017-07-30T07:01:51.338Z</time>
      </trkpt>
      <trkpt lat="47.77369" lon="2.03034">
        <ele>120</ele>
        <time>2017-07-30T07:01:52.331Z</time>
      </trkpt>
      <trkpt lat="47.77374" lon="2.03021">
        <ele>120</ele>
        <time>2017-07-30T07:01:53.337Z</time>
      </trkpt>
      <trkpt lat="47.77377" lon="2.03015">
        <ele>120</ele>
        <time>2017-07-30T07:01:54.338Z</time>
      </trkpt>
      <trkpt lat="47.77379" lon="2.03008">
        <ele>120</ele>
        <time>2017-07-30T07:01:55.348Z</time>
      </trkpt>
      <trkpt lat="47.77382" lon="2.03002">
        <ele>120</ele>
        <time>2017-07-30T07:01:56.342Z</time>
      </trkpt>
      <trkpt lat="47.77382" lon="2.03002">
        <ele>120</ele>
        <time>2017-07-30T07:01:57.338Z</time>
      </trkpt>
      <trkpt lat="47.77387" lon="2.02989">
        <ele>120</ele>
        <time>2017-07-30T07:01:58.340Z</time>
      </trkpt>
      <trkpt lat="47.77389" lon="2.02983">
        <ele>120</ele>
        <time>2017-07-30T07:01:59.340Z</time>
      </trkpt>
      <trkpt lat="47.77389" lon="2.02983">
        <ele>120</ele>
        <time>2017-07-30T07:02:00.343Z</time>
      </trkpt>
      <trkpt lat="47.77395" lon="2.0297">
        <ele>120</ele>
        <time>2017-07-30T07:02:01.342Z</time>
      </trkpt>
      <trkpt lat="47.77395" lon="2.0297">
        <ele>120</ele>
        <time>2017-07-30T07:02:02.339Z</time>
      </trkpt>
      <trkpt lat="47.774" lon="2.02957">
        <ele>120</ele>
        <time>2017-07-30T07:02:03.340Z</time>
      </trkpt>
      <trkpt lat="47.774" lon="2.02957">
        <ele>120</ele>
        <time>2017-07-30T07:02:04.333Z</time>
      </trkpt>
      <trkpt lat="47.77405" lon="2.02944">
        <ele>120</ele>
        <time>2017-07-30T07:02:05.337Z</time>
      </trkpt>
      <trkpt lat="47.77405" lon="2.02944">
        <ele>120</ele>
        <time>2017-07-30T07:02:06.332Z</time>
      </trkpt>
      <trkpt lat="47.7741" lon="2.02932">
        <ele>120</ele>
        <time>2017-07-30T07:02:07.338Z</time>
      </trkpt>
      <trkpt lat="47.7741" lon="2.02932">
        <ele>120</ele>
        <time>2017-07-30T07:02:08.334Z</time>
      </trkpt>
      <trkpt lat="47.77415" lon="2.02919">
        <ele>120</ele>
        <time>2017-07-30T07:02:09.338Z</time>
      </trkpt>
      <trkpt lat="47.77415" lon="2.02919">
        <ele>120</ele>
        <time>2017-07-30T07:02:10.338Z</time>
      </trkpt>
      <trkpt lat="47.7742" lon="2.02907">
        <ele>120</ele>
        <time>2017-07-30T07:02:11.338Z</time>
      </trkpt>
      <trkpt lat="47.77423" lon="2.02901">
        <ele>120</ele>
        <time>2017-07-30T07:02:12.337Z</time>
      </trkpt>
      <trkpt lat="47.77426" lon="2.02895">
        <ele>120</ele>
        <time>2017-07-30T07:02:13.337Z</time>
      </trkpt>
      <trkpt lat="47.77426" lon="2.02895">
        <ele>120</ele>
        <time>2017-07-30T07:02:14.334Z</time>
      </trkpt>
      <trkpt lat="47.77431" lon="2.02883">
        <ele>120</ele>
        <time>2017-07-30T07:02:15.334Z</time>
      </trkpt>
      <trkpt lat="47.77431" lon="2.02883">
        <ele>120</ele>
        <time>2017-07-30T07:02:16.332Z</time>
      </trkpt>
      <trkpt lat="47.77436" lon="2.02871">
        <ele>120</ele>
        <time>2017-07-30T07:02:17.337Z</time>
      </trkpt>
      <trkpt lat="47.77436" lon="2.02871">
        <ele>120</ele>
        <time>2017-07-30T07:02:18.335Z</time>
      </trkpt>
      <trkpt lat="47.77442" lon="2.02858">
        <ele>120</ele>
        <time>2017-07-30T07:02:19.339Z</time>
      </trkpt>
      <trkpt lat="47.77442" lon="2.02858">
        <ele>120</ele>
        <time>2017-07-30T07:02:20.344Z</time>
      </trkpt>
      <trkpt lat="47.77448" lon="2.02847">
        <ele>120</ele>
        <time>2017-07-30T07:02:21.338Z</time>
      </trkpt>
      <trkpt lat="47.77448" lon="2.02847">
        <ele>120</ele>
        <time>2017-07-30T07:02:22.334Z</time>
      </trkpt>
      <trkpt lat="47.77453" lon="2.02835">
        <ele>120</ele>
        <time>2017-07-30T07:02:23.337Z</time>
      </trkpt>
      <trkpt lat="47.77456" lon="2.02829">
        <ele>120</ele>
        <time>2017-07-30T07:02:24.337Z</time>
      </trkpt>
      <trkpt lat="47.77459" lon="2.02823">
        <ele>120</ele>
        <time>2017-07-30T07:02:25.338Z</time>
      </trkpt>
      <trkpt lat="47.77459" lon="2.02823">
        <ele>120</ele>
        <time>2017-07-30T07:02:26.329Z</time>
      </trkpt>
      <trkpt lat="47.77465" lon="2.02811">
        <ele>120</ele>
        <time>2017-07-30T07:02:27.337Z</time>
      </trkpt>
      <trkpt lat="47.77468" lon="2.02805">
        <ele>120</ele>
        <time>2017-07-30T07:02:28.337Z</time>
      </trkpt>
      <trkpt lat="47.77468" lon="2.02805">
        <ele>120</ele>
        <time>2017-07-30T07:02:29.333Z</time>
      </trkpt>
      <trkpt lat="47.77474" lon="2.02793">
        <ele>120</ele>
        <time>2017-07-30T07:02:30.346Z</time>
      </trkpt>
      <trkpt lat="47.77477" lon="2.02787">
        <ele>120</ele>
        <time>2017-07-30T07:02:31.349Z</time>
      </trkpt>
      <trkpt lat="47.77477" lon="2.02787">
        <ele>120</ele>
        <time>2017-07-30T07:02:32.342Z</time>
      </trkpt>
      <trkpt lat="47.77484" lon="2.02775">
        <ele>120</ele>
        <time>2017-07-30T07:02:33.335Z</time>
      </trkpt>
      <trkpt lat="47.77484" lon="2.02775">
        <ele>120</ele>
        <time>2017-07-30T07:02:34.333Z</time>
      </trkpt>
      <trkpt lat="47.7749" lon="2.02763">
        <ele>119</ele>
        <time>2017-07-30T07:02:35.334Z</time>
      </trkpt>
      <trkpt lat="47.77493" lon="2.02758">
        <ele>120</ele>
        <time>2017-07-30T07:02:36.339Z</time>
      </trkpt>
      <trkpt lat="47.77493" lon="2.02758">
        <ele>120</ele>
        <time>2017-07-30T07:02:37.333Z</time>
      </trkpt>
      <trkpt lat="47.77499" lon="2.02746">
        <ele>119</ele>
        <time>2017-07-30T07:02:38.336Z</time>
      </trkpt>
      <trkpt lat="47.77503" lon="2.0274">
        <ele>119</ele>
        <time>2017-07-30T07:02:39.338Z</time>
      </trkpt>
      <trkpt lat="47.77503" lon="2.0274">
        <ele>119</ele>
        <time>2017-07-30T07:02:40.331Z</time>
      </trkpt>
      <trkpt lat="47.77509" lon="2.02729">
        <ele>119</ele>
        <time>2017-07-30T07:02:41.338Z</time>
      </trkpt>
      <trkpt lat="47.77512" lon="2.02723">
        <ele>119</ele>
        <time>2017-07-30T07:02:42.341Z</time>
      </trkpt>
      <trkpt lat="47.77515" lon="2.02717">
        <ele>119</ele>
        <time>2017-07-30T07:02:43.341Z</time>
      </trkpt>
      <trkpt lat="47.77515" lon="2.02717">
        <ele>119</ele>
        <time>2017-07-30T07:02:44.336Z</time>
      </trkpt>
      <trkpt lat="47.77521" lon="2.02706">
        <ele>119</ele>
        <time>2017-07-30T07:02:45.342Z</time>
      </trkpt>
      <trkpt lat="47.77521" lon="2.02706">
        <ele>119</ele>
        <time>2017-07-30T07:02:46.337Z</time>
      </trkpt>
      <trkpt lat="47.77527" lon="2.02695">
        <ele>119</ele>
        <time>2017-07-30T07:02:47.340Z</time>
      </trkpt>
      <trkpt lat="47.77527" lon="2.02695">
        <ele>119</ele>
        <time>2017-07-30T07:02:48.344Z</time>
      </trkpt>
      <trkpt lat="47.77534" lon="2.02683">
        <ele>118</ele>
        <time>2017-07-30T07:02:49.342Z</time>
      </trkpt>
      <trkpt lat="47.77534" lon="2.02683">
        <ele>118</ele>
        <time>2017-07-30T07:02:50.347Z</time>
      </trkpt>
      <trkpt lat="47.7754" lon="2.0267">
        <ele>119</ele>
        <time>2017-07-30T07:02:51.341Z</time>
      </trkpt>
      <trkpt lat="47.7754" lon="2.0267">
        <ele>119</ele>
        <time>2017-07-30T07:02:52.336Z</time>
      </trkpt>
      <trkpt lat="47.77546" lon="2.02658">
        <ele>118</ele>
        <time>2017-07-30T07:02:53.337Z</time>
      </trkpt>
      <trkpt lat="47.77546" lon="2.02658">
        <ele>118</ele>
        <time>2017-07-30T07:02:54.333Z</time>
      </trkpt>
      <trkpt lat="47.77553" lon="2.02647">
        <ele>119</ele>
        <time>2017-07-30T07:02:55.340Z</time>
      </trkpt>
      <trkpt lat="47.77553" lon="2.02647">
        <ele>119</ele>
        <time>2017-07-30T07:02:56.331Z</time>
      </trkpt>
      <trkpt lat="47.77559" lon="2.02635">
        <ele>118</ele>
        <time>2017-07-30T07:02:57.338Z</time>
      </trkpt>
      <trkpt lat="47.77559" lon="2.02635">
        <ele>118</ele>
        <time>2017-07-30T07:02:58.336Z</time>
      </trkpt>
      <trkpt lat="47.77566" lon="2.02624">
        <ele>118</ele>
        <time>2017-07-30T07:02:59.338Z</time>
      </trkpt>
      <trkpt lat="47.77566" lon="2.02624">
        <ele>118</ele>
        <time>2017-07-30T07:03:00.344Z</time>
      </trkpt>
      <trkpt lat="47.77572" lon="2.02612">
        <ele>118</ele>
        <time>2017-07-30T07:03:01.348Z</time>
      </trkpt>
      <trkpt lat="47.77572" lon="2.02612">
        <ele>118</ele>
        <time>2017-07-30T07:03:02.348Z</time>
      </trkpt>
      <trkpt lat="47.77578" lon="2.02601">
        <ele>118</ele>
        <time>2017-07-30T07:03:03.342Z</time>
      </trkpt>
      <trkpt lat="47.77578" lon="2.02601">
        <ele>118</ele>
        <time>2017-07-30T07:03:04.334Z</time>
      </trkpt>
      <trkpt lat="47.77584" lon="2.02589">
        <ele>118</ele>
        <time>2017-07-30T07:03:05.337Z</time>
      </trkpt>
      <trkpt lat="47.77587" lon="2.02584">
        <ele>118</ele>
        <time>2017-07-30T07:03:06.334Z</time>
      </trkpt>
      <trkpt lat="47.7759" lon="2.02578">
        <ele>118</ele>
        <time>2017-07-30T07:03:07.339Z</time>
      </trkpt>
      <trkpt lat="47.7759" lon="2.02578">
        <ele>118</ele>
        <time>2017-07-30T07:03:08.335Z</time>
      </trkpt>
      <trkpt lat="47.77596" lon="2.02566">
        <ele>118</ele>
        <time>2017-07-30T07:03:09.338Z</time>
      </trkpt>
      <trkpt lat="47.77596" lon="2.02566">
        <ele>118</ele>
        <time>2017-07-30T07:03:10.342Z</time>
      </trkpt>
      <trkpt lat="47.77602" lon="2.02555">
        <ele>118</ele>
        <time>2017-07-30T07:03:11.337Z</time>
      </trkpt>
      <trkpt lat="47.77605" lon="2.02549">
        <ele>118</ele>
        <time>2017-07-30T07:03:12.338Z</time>
      </trkpt>
      <trkpt lat="47.77608" lon="2.02543">
        <ele>118</ele>
        <time>2017-07-30T07:03:13.345Z</time>
      </trkpt>
      <trkpt lat="47.77611" lon="2.02537">
        <ele>118</ele>
        <time>2017-07-30T07:03:14.338Z</time>
      </trkpt>
      <trkpt lat="47.77615" lon="2.02532">
        <ele>118</ele>
        <time>2017-07-30T07:03:15.343Z</time>
      </trkpt>
      <trkpt lat="47.77615" lon="2.02532">
        <ele>118</ele>
        <time>2017-07-30T07:03:16.334Z</time>
      </trkpt>
      <trkpt lat="47.77621" lon="2.0252">
        <ele>118</ele>
        <time>2017-07-30T07:03:17.334Z</time>
      </trkpt>
      <trkpt lat="47.77621" lon="2.0252">
        <ele>118</ele>
        <time>2017-07-30T07:03:18.332Z</time>
      </trkpt>
      <trkpt lat="47.77627" lon="2.02509">
        <ele>118</ele>
        <time>2017-07-30T07:03:19.338Z</time>
      </trkpt>
      <trkpt lat="47.77627" lon="2.02509">
        <ele>118</ele>
        <time>2017-07-30T07:03:20.336Z</time>
      </trkpt>
      <trkpt lat="47.77633" lon="2.02498">
        <ele>118</ele>
        <time>2017-07-30T07:03:21.338Z</time>
      </trkpt>
      <trkpt lat="47.77633" lon="2.02498">
        <ele>118</ele>
        <time>2017-07-30T07:03:22.332Z</time>
      </trkpt>
      <trkpt lat="47.77639" lon="2.02486">
        <ele>118</ele>
        <time>2017-07-30T07:03:23.337Z</time>
      </trkpt>
      <trkpt lat="47.77639" lon="2.02486">
        <ele>118</ele>
        <time>2017-07-30T07:03:24.332Z</time>
      </trkpt>
      <trkpt lat="47.77645" lon="2.02475">
        <ele>117</ele>
        <time>2017-07-30T07:03:25.350Z</time>
      </trkpt>
      <trkpt lat="47.77645" lon="2.02475">
        <ele>117</ele>
        <time>2017-07-30T07:03:26.319Z</time>
      </trkpt>
      <trkpt lat="47.77651" lon="2.02463">
        <ele>117</ele>
        <time>2017-07-30T07:03:27.349Z</time>
      </trkpt>
      <trkpt lat="47.77651" lon="2.02463">
        <ele>117</ele>
        <time>2017-07-30T07:03:28.342Z</time>
      </trkpt>
      <trkpt lat="47.77658" lon="2.02451">
        <ele>117</ele>
        <time>2017-07-30T07:03:29.340Z</time>
      </trkpt>
      <trkpt lat="47.77658" lon="2.02451">
        <ele>117</ele>
        <time>2017-07-30T07:03:30.338Z</time>
      </trkpt>
      <trkpt lat="47.77664" lon="2.0244">
        <ele>117</ele>
        <time>2017-07-30T07:03:31.335Z</time>
      </trkpt>
      <trkpt lat="47.77667" lon="2.02434">
        <ele>117</ele>
        <time>2017-07-30T07:03:32.341Z</time>
      </trkpt>
      <trkpt lat="47.77667" lon="2.02434">
        <ele>117</ele>
        <time>2017-07-30T07:03:33.339Z</time>
      </trkpt>
      <trkpt lat="47.77673" lon="2.02422">
        <ele>117</ele>
        <time>2017-07-30T07:03:34.342Z</time>
      </trkpt>
      <trkpt lat="47.77673" lon="2.02422">
        <ele>117</ele>
        <time>2017-07-30T07:03:35.338Z</time>
      </trkpt>
      <trkpt lat="47.77679" lon="2.02411">
        <ele>117</ele>
        <time>2017-07-30T07:03:36.342Z</time>
      </trkpt>
      <trkpt lat="47.77683" lon="2.02405">
        <ele>117</ele>
        <time>2017-07-30T07:03:37.342Z</time>
      </trkpt>
      <trkpt lat="47.77683" lon="2.02405">
        <ele>117</ele>
        <time>2017-07-30T07:03:38.337Z</time>
      </trkpt>
      <trkpt lat="47.77689" lon="2.02394">
        <ele>117</ele>
        <time>2017-07-30T07:03:39.342Z</time>
      </trkpt>
      <trkpt lat="47.77692" lon="2.02388">
        <ele>117</ele>
        <time>2017-07-30T07:03:40.339Z</time>
      </trkpt>
      <trkpt lat="47.77692" lon="2.02388">
        <ele>117</ele>
        <time>2017-07-30T07:03:41.336Z</time>
      </trkpt>
      <trkpt lat="47.77695" lon="2.02374">
        <ele>117</ele>
        <time>2017-07-30T07:03:42.342Z</time>
      </trkpt>
      <trkpt lat="47.77695" lon="2.02374">
        <ele>117</ele>
        <time>2017-07-30T07:03:43.333Z</time>
      </trkpt>
      <trkpt lat="47.77693" lon="2.0236">
        <ele>119</ele>
        <time>2017-07-30T07:03:44.334Z</time>
      </trkpt>
      <trkpt lat="47.77691" lon="2.02353">
        <ele>119</ele>
        <time>2017-07-30T07:03:45.337Z</time>
      </trkpt>
      <trkpt lat="47.77691" lon="2.02353">
        <ele>119</ele>
        <time>2017-07-30T07:03:46.333Z</time>
      </trkpt>
      <trkpt lat="47.77687" lon="2.02339">
        <ele>119</ele>
        <time>2017-07-30T07:03:47.312Z</time>
      </trkpt>
      <trkpt lat="47.77685" lon="2.02332">
        <ele>119</ele>
        <time>2017-07-30T07:03:48.314Z</time>
      </trkpt>
      <trkpt lat="47.77682" lon="2.02325">
        <ele>119</ele>
        <time>2017-07-30T07:03:49.346Z</time>
      </trkpt>
      <trkpt lat="47.77682" lon="2.02325">
        <ele>119</ele>
        <time>2017-07-30T07:03:50.347Z</time>
      </trkpt>
      <trkpt lat="47.77678" lon="2.02311">
        <ele>119</ele>
        <time>2017-07-30T07:03:51.335Z</time>
      </trkpt>
      <trkpt lat="47.77676" lon="2.02304">
        <ele>119</ele>
        <time>2017-07-30T07:03:52.337Z</time>
      </trkpt>
      <trkpt lat="47.77676" lon="2.02304">
        <ele>119</ele>
        <time>2017-07-30T07:03:53.334Z</time>
      </trkpt>
      <trkpt lat="47.77673" lon="2.02291">
        <ele>119</ele>
        <time>2017-07-30T07:03:54.337Z</time>
      </trkpt>
      <trkpt lat="47.77671" lon="2.02284">
        <ele>118</ele>
        <time>2017-07-30T07:03:55.338Z</time>
      </trkpt>
      <trkpt lat="47.77671" lon="2.02284">
        <ele>118</ele>
        <time>2017-07-30T07:03:56.333Z</time>
      </trkpt>
      <trkpt lat="47.77668" lon="2.02269">
        <ele>118</ele>
        <time>2017-07-30T07:03:57.338Z</time>
      </trkpt>
      <trkpt lat="47.77668" lon="2.02269">
        <ele>118</ele>
        <time>2017-07-30T07:03:58.334Z</time>
      </trkpt>
      <trkpt lat="47.77667" lon="2.02253">
        <ele>119</ele>
        <time>2017-07-30T07:03:59.335Z</time>
      </trkpt>
      <trkpt lat="47.77667" lon="2.02253">
        <ele>119</ele>
        <time>2017-07-30T07:04:00.332Z</time>
      </trkpt>
      <trkpt lat="47.77668" lon="2.02237">
        <ele>119</ele>
        <time>2017-07-30T07:04:01.339Z</time>
      </trkpt>
      <trkpt lat="47.77668" lon="2.02237">
        <ele>119</ele>
        <time>2017-07-30T07:04:02.334Z</time>
      </trkpt>
      <trkpt lat="47.7767" lon="2.02223">
        <ele>119</ele>
        <time>2017-07-30T07:04:03.335Z</time>
      </trkpt>
      <trkpt lat="47.7767" lon="2.02223">
        <ele>119</ele>
        <time>2017-07-30T07:04:04.335Z</time>
      </trkpt>
      <trkpt lat="47.77673" lon="2.02208">
        <ele>119</ele>
        <time>2017-07-30T07:04:05.338Z</time>
      </trkpt>
      <trkpt lat="47.77674" lon="2.02201">
        <ele>119</ele>
        <time>2017-07-30T07:04:06.337Z</time>
      </trkpt>
      <trkpt lat="47.77676" lon="2.02193">
        <ele>119</ele>
        <time>2017-07-30T07:04:07.336Z</time>
      </trkpt>
      <trkpt lat="47.77676" lon="2.02193">
        <ele>119</ele>
        <time>2017-07-30T07:04:08.335Z</time>
      </trkpt>
      <trkpt lat="47.77679" lon="2.02179">
        <ele>119</ele>
        <time>2017-07-30T07:04:09.338Z</time>
      </trkpt>
      <trkpt lat="47.77679" lon="2.02179">
        <ele>119</ele>
        <time>2017-07-30T07:04:10.336Z</time>
      </trkpt>
      <trkpt lat="47.77682" lon="2.02165">
        <ele>119</ele>
        <time>2017-07-30T07:04:11.339Z</time>
      </trkpt>
      <trkpt lat="47.77682" lon="2.02165">
        <ele>119</ele>
        <time>2017-07-30T07:04:12.334Z</time>
      </trkpt>
      <trkpt lat="47.77684" lon="2.0215">
        <ele>119</ele>
        <time>2017-07-30T07:04:13.338Z</time>
      </trkpt>
      <trkpt lat="47.77684" lon="2.0215">
        <ele>119</ele>
        <time>2017-07-30T07:04:14.332Z</time>
      </trkpt>
      <trkpt lat="47.77688" lon="2.02134">
        <ele>120</ele>
        <time>2017-07-30T07:04:15.338Z</time>
      </trkpt>
      <trkpt lat="47.77688" lon="2.02134">
        <ele>120</ele>
        <time>2017-07-30T07:04:16.322Z</time>
      </trkpt>
      <trkpt lat="47.77691" lon="2.02117">
        <ele>120</ele>
        <time>2017-07-30T07:04:17.311Z</time>
      </trkpt>
      <trkpt lat="47.77691" lon="2.02117">
        <ele>120</ele>
        <time>2017-07-30T07:04:18.342Z</time>
      </trkpt>
      <trkpt lat="47.77694" lon="2.02098">
        <ele>120</ele>
        <time>2017-07-30T07:04:19.337Z</time>
      </trkpt>
      <trkpt lat="47.77694" lon="2.02098">
        <ele>120</ele>
        <time>2017-07-30T07:04:20.335Z</time>
      </trkpt>
      <trkpt lat="47.77698" lon="2.02078">
        <ele>120</ele>
        <time>2017-07-30T07:04:21.343Z</time>
      </trkpt>
      <trkpt lat="47.77698" lon="2.02078">
        <ele>120</ele>
        <time>2017-07-30T07:04:22.334Z</time>
      </trkpt>
      <trkpt lat="47.77702" lon="2.02059">
        <ele>120</ele>
        <time>2017-07-30T07:04:23.340Z</time>
      </trkpt>
      <trkpt lat="47.77702" lon="2.02059">
        <ele>120</ele>
        <time>2017-07-30T07:04:24.336Z</time>
      </trkpt>
      <trkpt lat="47.77705" lon="2.02039">
        <ele>120</ele>
        <time>2017-07-30T07:04:25.339Z</time>
      </trkpt>
      <trkpt lat="47.77707" lon="2.02029">
        <ele>120</ele>
        <time>2017-07-30T07:04:26.342Z</time>
      </trkpt>
      <trkpt lat="47.77707" lon="2.02029">
        <ele>120</ele>
        <time>2017-07-30T07:04:27.338Z</time>
      </trkpt>
      <trkpt lat="47.77711" lon="2.02009">
        <ele>120</ele>
        <time>2017-07-30T07:04:28.343Z</time>
      </trkpt>
      <trkpt lat="47.77711" lon="2.02009">
        <ele>120</ele>
        <time>2017-07-30T07:04:29.333Z</time>
      </trkpt>
      <trkpt lat="47.77715" lon="2.01989">
        <ele>120</ele>
        <time>2017-07-30T07:04:30.341Z</time>
      </trkpt>
      <trkpt lat="47.77715" lon="2.01989">
        <ele>120</ele>
        <time>2017-07-30T07:04:31.341Z</time>
      </trkpt>
      <trkpt lat="47.77719" lon="2.01968">
        <ele>120</ele>
        <time>2017-07-30T07:04:32.337Z</time>
      </trkpt>
      <trkpt lat="47.77719" lon="2.01968">
        <ele>120</ele>
        <time>2017-07-30T07:04:33.332Z</time>
      </trkpt>
      <trkpt lat="47.77723" lon="2.01946">
        <ele>120</ele>
        <time>2017-07-30T07:04:34.336Z</time>
      </trkpt>
      <trkpt lat="47.77723" lon="2.01946">
        <ele>120</ele>
        <time>2017-07-30T07:04:35.320Z</time>
      </trkpt>
      <trkpt lat="47.77727" lon="2.01923">
        <ele>120</ele>
        <time>2017-07-30T07:04:36.351Z</time>
      </trkpt>
      <trkpt lat="47.77727" lon="2.01923">
        <ele>120</ele>
        <time>2017-07-30T07:04:37.320Z</time>
      </trkpt>
      <trkpt lat="47.77731" lon="2.01901">
        <ele>120</ele>
        <time>2017-07-30T07:04:38.317Z</time>
      </trkpt>
      <trkpt lat="47.77733" lon="2.0189">
        <ele>120</ele>
        <time>2017-07-30T07:04:39.347Z</time>
      </trkpt>
      <trkpt lat="47.77733" lon="2.0189">
        <ele>120</ele>
        <time>2017-07-30T07:04:40.346Z</time>
      </trkpt>
      <trkpt lat="47.77737" lon="2.01869">
        <ele>119</ele>
        <time>2017-07-30T07:04:41.339Z</time>
      </trkpt>
      <trkpt lat="47.77737" lon="2.01869">
        <ele>119</ele>
        <time>2017-07-30T07:04:42.336Z</time>
      </trkpt>
      <trkpt lat="47.77741" lon="2.01849">
        <ele>119</ele>
        <time>2017-07-30T07:04:43.336Z</time>
      </trkpt>
      <trkpt lat="47.77741" lon="2.01849">
        <ele>119</ele>
        <time>2017-07-30T07:04:44.331Z</time>
      </trkpt>
      <trkpt lat="47.77744" lon="2.0183">
        <ele>119</ele>
        <time>2017-07-30T07:04:45.337Z</time>
      </trkpt>
      <trkpt lat="47.77744" lon="2.0183">
        <ele>119</ele>
        <time>2017-07-30T07:04:46.335Z</time>
      </trkpt>
      <trkpt lat="47.77749" lon="2.01813">
        <ele>119</ele>
        <time>2017-07-30T07:04:47.335Z</time>
      </trkpt>
      <trkpt lat="47.77749" lon="2.01813">
        <ele>119</ele>
        <time>2017-07-30T07:04:48.336Z</time>
      </trkpt>
      <trkpt lat="47.77761" lon="2.01805">
        <ele>119</ele>
        <time>2017-07-30T07:04:49.340Z</time>
      </trkpt>
      <trkpt lat="47.77761" lon="2.01805">
        <ele>119</ele>
        <time>2017-07-30T07:04:50.346Z</time>
      </trkpt>
      <trkpt lat="47.77776" lon="2.01804">
        <ele>119</ele>
        <time>2017-07-30T07:04:51.331Z</time>
      </trkpt>
      <trkpt lat="47.77785" lon="2.01804">
        <ele>119</ele>
        <time>2017-07-30T07:04:52.337Z</time>
      </trkpt>
      <trkpt lat="47.77785" lon="2.01804">
        <ele>119</ele>
        <time>2017-07-30T07:04:53.334Z</time>
      </trkpt>
      <trkpt lat="47.77802" lon="2.01806">
        <ele>119</ele>
        <time>2017-07-30T07:04:54.336Z</time>
      </trkpt>
      <trkpt lat="47.77811" lon="2.01806">
        <ele>119</ele>
        <time>2017-07-30T07:04:55.340Z</time>
      </trkpt>
      <trkpt lat="47.77811" lon="2.01806">
        <ele>119</ele>
        <time>2017-07-30T07:04:56.331Z</time>
      </trkpt>
      <trkpt lat="47.77829" lon="2.01807">
        <ele>119</ele>
        <time>2017-07-30T07:04:57.338Z</time>
      </trkpt>
      <trkpt lat="47.77829" lon="2.01807">
        <ele>119</ele>
        <time>2017-07-30T07:04:58.334Z</time>
      </trkpt>
      <trkpt lat="47.77845" lon="2.01807">
        <ele>119</ele>
        <time>2017-07-30T07:04:59.337Z</time>
      </trkpt>
      <trkpt lat="47.77845" lon="2.01807">
        <ele>119</ele>
        <time>2017-07-30T07:05:00.344Z</time>
      </trkpt>
      <trkpt lat="47.77861" lon="2.01807">
        <ele>119</ele>
        <time>2017-07-30T07:05:01.332Z</time>
      </trkpt>
      <trkpt lat="47.77869" lon="2.01807">
        <ele>119</ele>
        <time>2017-07-30T07:05:02.338Z</time>
      </trkpt>
      <trkpt lat="47.77876" lon="2.01807">
        <ele>119</ele>
        <time>2017-07-30T07:05:03.335Z</time>
      </trkpt>
      <trkpt lat="47.77876" lon="2.01807">
        <ele>119</ele>
        <time>2017-07-30T07:05:04.333Z</time>
      </trkpt>
      <trkpt lat="47.77892" lon="2.01808">
        <ele>119</ele>
        <time>2017-07-30T07:05:05.338Z</time>
      </trkpt>
      <trkpt lat="47.779" lon="2.01808">
        <ele>119</ele>
        <time>2017-07-30T07:05:06.311Z</time>
      </trkpt>
      <trkpt lat="47.77908" lon="2.01809">
        <ele>118</ele>
        <time>2017-07-30T07:05:07.341Z</time>
      </trkpt>
      <trkpt lat="47.77908" lon="2.01809">
        <ele>118</ele>
        <time>2017-07-30T07:05:08.334Z</time>
      </trkpt>
      <trkpt lat="47.77923" lon="2.01809">
        <ele>118</ele>
        <time>2017-07-30T07:05:09.338Z</time>
      </trkpt>
      <trkpt lat="47.77923" lon="2.01809">
        <ele>118</ele>
        <time>2017-07-30T07:05:10.346Z</time>
      </trkpt>
      <trkpt lat="47.77936" lon="2.0181">
        <ele>118</ele>
        <time>2017-07-30T07:05:11.343Z</time>
      </trkpt>
      <trkpt lat="47.77942" lon="2.01811">
        <ele>118</ele>
        <time>2017-07-30T07:05:12.342Z</time>
      </trkpt>
      <trkpt lat="47.77948" lon="2.01811">
        <ele>118</ele>
        <time>2017-07-30T07:05:13.342Z</time>
      </trkpt>
      <trkpt lat="47.77948" lon="2.01811">
        <ele>118</ele>
        <time>2017-07-30T07:05:14.336Z</time>
      </trkpt>
      <trkpt lat="47.77959" lon="2.01812">
        <ele>118</ele>
        <time>2017-07-30T07:05:15.346Z</time>
      </trkpt>
      <trkpt lat="47.77959" lon="2.01812">
        <ele>118</ele>
        <time>2017-07-30T07:05:16.338Z</time>
      </trkpt>
      <trkpt lat="47.7797" lon="2.01812">
        <ele>118</ele>
        <time>2017-07-30T07:05:17.340Z</time>
      </trkpt>
      <trkpt lat="47.77976" lon="2.01812">
        <ele>118</ele>
        <time>2017-07-30T07:05:18.337Z</time>
      </trkpt>
      <trkpt lat="47.77981" lon="2.01812">
        <ele>118</ele>
        <time>2017-07-30T07:05:19.341Z</time>
      </trkpt>
      <trkpt lat="47.77987" lon="2.01813">
        <ele>118</ele>
        <time>2017-07-30T07:05:20.341Z</time>
      </trkpt>
      <trkpt lat="47.77992" lon="2.01813">
        <ele>118</ele>
        <time>2017-07-30T07:05:21.341Z</time>
      </trkpt>
      <trkpt lat="47.77992" lon="2.01813">
        <ele>118</ele>
        <time>2017-07-30T07:05:22.332Z</time>
      </trkpt>
      <trkpt lat="47.78003" lon="2.01813">
        <ele>118</ele>
        <time>2017-07-30T07:05:23.337Z</time>
      </trkpt>
      <trkpt lat="47.78003" lon="2.01813">
        <ele>118</ele>
        <time>2017-07-30T07:05:24.329Z</time>
      </trkpt>
      <trkpt lat="47.78014" lon="2.01814">
        <ele>118</ele>
        <time>2017-07-30T07:05:25.319Z</time>
      </trkpt>
      <trkpt lat="47.7802" lon="2.01814">
        <ele>118</ele>
        <time>2017-07-30T07:05:26.348Z</time>
      </trkpt>
      <trkpt lat="47.78025" lon="2.01814">
        <ele>118</ele>
        <time>2017-07-30T07:05:27.344Z</time>
      </trkpt>
      <trkpt lat="47.78025" lon="2.01814">
        <ele>118</ele>
        <time>2017-07-30T07:05:28.335Z</time>
      </trkpt>
      <trkpt lat="47.78036" lon="2.01814">
        <ele>118</ele>
        <time>2017-07-30T07:05:29.337Z</time>
      </trkpt>
      <trkpt lat="47.78036" lon="2.01814">
        <ele>118</ele>
        <time>2017-07-30T07:05:30.340Z</time>
      </trkpt>
      <trkpt lat="47.78047" lon="2.01815">
        <ele>118</ele>
        <time>2017-07-30T07:05:31.340Z</time>
      </trkpt>
      <trkpt lat="47.78052" lon="2.01815">
        <ele>118</ele>
        <time>2017-07-30T07:05:32.338Z</time>
      </trkpt>
      <trkpt lat="47.78057" lon="2.01815">
        <ele>118</ele>
        <time>2017-07-30T07:05:33.335Z</time>
      </trkpt>
      <trkpt lat="47.78057" lon="2.01815">
        <ele>118</ele>
        <time>2017-07-30T07:05:34.334Z</time>
      </trkpt>
      <trkpt lat="47.78068" lon="2.01816">
        <ele>118</ele>
        <time>2017-07-30T07:05:35.336Z</time>
      </trkpt>
      <trkpt lat="47.78068" lon="2.01816">
        <ele>118</ele>
        <time>2017-07-30T07:05:36.329Z</time>
      </trkpt>
      <trkpt lat="47.78079" lon="2.01816">
        <ele>118</ele>
        <time>2017-07-30T07:05:37.340Z</time>
      </trkpt>
      <trkpt lat="47.78079" lon="2.01816">
        <ele>118</ele>
        <time>2017-07-30T07:05:38.333Z</time>
      </trkpt>
      <trkpt lat="47.78089" lon="2.01816">
        <ele>118</ele>
        <time>2017-07-30T07:05:39.347Z</time>
      </trkpt>
      <trkpt lat="47.78089" lon="2.01816">
        <ele>118</ele>
        <time>2017-07-30T07:05:40.343Z</time>
      </trkpt>
      <trkpt lat="47.78099" lon="2.01815">
        <ele>118</ele>
        <time>2017-07-30T07:05:41.337Z</time>
      </trkpt>
      <trkpt lat="47.78103" lon="2.01813">
        <ele>118</ele>
        <time>2017-07-30T07:05:42.339Z</time>
      </trkpt>
      <trkpt lat="47.78107" lon="2.01809">
        <ele>118</ele>
        <time>2017-07-30T07:05:43.340Z</time>
      </trkpt>
      <trkpt lat="47.78107" lon="2.01809">
        <ele>118</ele>
        <time>2017-07-30T07:05:44.345Z</time>
      </trkpt>
      <trkpt lat="47.78112" lon="2.01797">
        <ele>119</ele>
        <time>2017-07-30T07:05:45.338Z</time>
      </trkpt>
      <trkpt lat="47.78112" lon="2.01797">
        <ele>119</ele>
        <time>2017-07-30T07:05:46.335Z</time>
      </trkpt>
      <trkpt lat="47.78113" lon="2.01782">
        <ele>119</ele>
        <time>2017-07-30T07:05:47.339Z</time>
      </trkpt>
      <trkpt lat="47.78113" lon="2.01782">
        <ele>119</ele>
        <time>2017-07-30T07:05:48.334Z</time>
      </trkpt>
      <trkpt lat="47.78115" lon="2.01768">
        <ele>119</ele>
        <time>2017-07-30T07:05:49.340Z</time>
      </trkpt>
      <trkpt lat="47.78115" lon="2.01768">
        <ele>119</ele>
        <time>2017-07-30T07:05:50.332Z</time>
      </trkpt>
      <trkpt lat="47.78116" lon="2.01754">
        <ele>119</ele>
        <time>2017-07-30T07:05:51.338Z</time>
      </trkpt>
      <trkpt lat="47.78117" lon="2.01747">
        <ele>119</ele>
        <time>2017-07-30T07:05:52.340Z</time>
      </trkpt>
      <trkpt lat="47.78117" lon="2.01747">
        <ele>119</ele>
        <time>2017-07-30T07:05:53.332Z</time>
      </trkpt>
      <trkpt lat="47.78118" lon="2.01733">
        <ele>119</ele>
        <time>2017-07-30T07:05:54.335Z</time>
      </trkpt>
      <trkpt lat="47.78118" lon="2.01733">
        <ele>119</ele>
        <time>2017-07-30T07:05:55.337Z</time>
      </trkpt>
      <trkpt lat="47.78119" lon="2.01719">
        <ele>118</ele>
        <time>2017-07-30T07:05:56.337Z</time>
      </trkpt>
      <trkpt lat="47.78119" lon="2.01719">
        <ele>118</ele>
        <time>2017-07-30T07:05:57.333Z</time>
      </trkpt>
      <trkpt lat="47.7812" lon="2.01704">
        <ele>118</ele>
        <time>2017-07-30T07:05:58.337Z</time>
      </trkpt>
      <trkpt lat="47.78121" lon="2.01696">
        <ele>118</ele>
        <time>2017-07-30T07:05:59.341Z</time>
      </trkpt>
      <trkpt lat="47.78122" lon="2.01689">
        <ele>118</ele>
        <time>2017-07-30T07:06:00.349Z</time>
      </trkpt>
      <trkpt lat="47.78122" lon="2.01681">
        <ele>118</ele>
        <time>2017-07-30T07:06:01.342Z</time>
      </trkpt>
      <trkpt lat="47.78123" lon="2.01673">
        <ele>118</ele>
        <time>2017-07-30T07:06:02.343Z</time>
      </trkpt>
      <trkpt lat="47.78123" lon="2.01673">
        <ele>118</ele>
        <time>2017-07-30T07:06:03.336Z</time>
      </trkpt>
      <trkpt lat="47.78125" lon="2.01658">
        <ele>117</ele>
        <time>2017-07-30T07:06:04.343Z</time>
      </trkpt>
      <trkpt lat="47.78125" lon="2.01658">
        <ele>117</ele>
        <time>2017-07-30T07:06:05.333Z</time>
      </trkpt>
      <trkpt lat="47.78127" lon="2.01642">
        <ele>117</ele>
        <time>2017-07-30T07:06:06.341Z</time>
      </trkpt>
      <trkpt lat="47.78127" lon="2.01642">
        <ele>117</ele>
        <time>2017-07-30T07:06:07.336Z</time>
      </trkpt>
      <trkpt lat="47.78128" lon="2.01627">
        <ele>117</ele>
        <time>2017-07-30T07:06:08.343Z</time>
      </trkpt>
      <trkpt lat="47.78128" lon="2.01627">
        <ele>117</ele>
        <time>2017-07-30T07:06:09.326Z</time>
      </trkpt>
      <trkpt lat="47.78129" lon="2.01611">
        <ele>117</ele>
        <time>2017-07-30T07:06:10.346Z</time>
      </trkpt>
      <trkpt lat="47.78129" lon="2.01611">
        <ele>117</ele>
        <time>2017-07-30T07:06:11.339Z</time>
      </trkpt>
      <trkpt lat="47.78131" lon="2.01595">
        <ele>117</ele>
        <time>2017-07-30T07:06:12.337Z</time>
      </trkpt>
      <trkpt lat="47.78132" lon="2.01587">
        <ele>117</ele>
        <time>2017-07-30T07:06:13.340Z</time>
      </trkpt>
      <trkpt lat="47.78132" lon="2.01587">
        <ele>117</ele>
        <time>2017-07-30T07:06:14.332Z</time>
      </trkpt>
      <trkpt lat="47.78134" lon="2.01572">
        <ele>117</ele>
        <time>2017-07-30T07:06:15.338Z</time>
      </trkpt>
      <trkpt lat="47.78134" lon="2.01572">
        <ele>117</ele>
        <time>2017-07-30T07:06:16.337Z</time>
      </trkpt>
      <trkpt lat="47.78135" lon="2.01556">
        <ele>117</ele>
        <time>2017-07-30T07:06:17.336Z</time>
      </trkpt>
      <trkpt lat="47.78135" lon="2.01556">
        <ele>117</ele>
        <time>2017-07-30T07:06:18.333Z</time>
      </trkpt>
      <trkpt lat="47.78137" lon="2.0154">
        <ele>116</ele>
        <time>2017-07-30T07:06:19.339Z</time>
      </trkpt>
      <trkpt lat="47.78138" lon="2.01533">
        <ele>116</ele>
        <time>2017-07-30T07:06:20.346Z</time>
      </trkpt>
      <trkpt lat="47.78138" lon="2.01533">
        <ele>116</ele>
        <time>2017-07-30T07:06:21.336Z</time>
      </trkpt>
      <trkpt lat="47.7814" lon="2.01518">
        <ele>116</ele>
        <time>2017-07-30T07:06:22.339Z</time>
      </trkpt>
      <trkpt lat="47.78141" lon="2.0151">
        <ele>116</ele>
        <time>2017-07-30T07:06:23.339Z</time>
      </trkpt>
      <trkpt lat="47.78141" lon="2.0151">
        <ele>116</ele>
        <time>2017-07-30T07:06:24.347Z</time>
      </trkpt>
      <trkpt lat="47.78142" lon="2.01495">
        <ele>116</ele>
        <time>2017-07-30T07:06:25.340Z</time>
      </trkpt>
      <trkpt lat="47.78142" lon="2.01495">
        <ele>116</ele>
        <time>2017-07-30T07:06:26.334Z</time>
      </trkpt>
      <trkpt lat="47.78144" lon="2.01481">
        <ele>117</ele>
        <time>2017-07-30T07:06:27.339Z</time>
      </trkpt>
      <trkpt lat="47.78144" lon="2.01481">
        <ele>117</ele>
        <time>2017-07-30T07:06:28.335Z</time>
      </trkpt>
      <trkpt lat="47.78146" lon="2.01466">
        <ele>117</ele>
        <time>2017-07-30T07:06:29.337Z</time>
      </trkpt>
      <trkpt lat="47.78146" lon="2.01466">
        <ele>117</ele>
        <time>2017-07-30T07:06:30.346Z</time>
      </trkpt>
      <trkpt lat="47.78148" lon="2.01451">
        <ele>117</ele>
        <time>2017-07-30T07:06:31.340Z</time>
      </trkpt>
      <trkpt lat="47.78148" lon="2.01451">
        <ele>117</ele>
        <time>2017-07-30T07:06:32.332Z</time>
      </trkpt>
      <trkpt lat="47.78149" lon="2.01435">
        <ele>117</ele>
        <time>2017-07-30T07:06:33.338Z</time>
      </trkpt>
      <trkpt lat="47.78149" lon="2.01435">
        <ele>117</ele>
        <time>2017-07-30T07:06:34.334Z</time>
      </trkpt>
      <trkpt lat="47.78151" lon="2.0142">
        <ele>118</ele>
        <time>2017-07-30T07:06:35.338Z</time>
      </trkpt>
      <trkpt lat="47.78151" lon="2.0142">
        <ele>118</ele>
        <time>2017-07-30T07:06:36.334Z</time>
      </trkpt>
      <trkpt lat="47.78153" lon="2.01405">
        <ele>118</ele>
        <time>2017-07-30T07:06:37.340Z</time>
      </trkpt>
      <trkpt lat="47.78153" lon="2.01405">
        <ele>118</ele>
        <time>2017-07-30T07:06:38.332Z</time>
      </trkpt>
      <trkpt lat="47.78155" lon="2.0139">
        <ele>118</ele>
        <time>2017-07-30T07:06:39.337Z</time>
      </trkpt>
      <trkpt lat="47.78155" lon="2.0139">
        <ele>118</ele>
        <time>2017-07-30T07:06:40.342Z</time>
      </trkpt>
      <trkpt lat="47.78157" lon="2.01375">
        <ele>118</ele>
        <time>2017-07-30T07:06:41.341Z</time>
      </trkpt>
      <trkpt lat="47.78158" lon="2.01367">
        <ele>118</ele>
        <time>2017-07-30T07:06:42.313Z</time>
      </trkpt>
      <trkpt lat="47.78159" lon="2.01359">
        <ele>118</ele>
        <time>2017-07-30T07:06:43.343Z</time>
      </trkpt>
      <trkpt lat="47.78159" lon="2.01359">
        <ele>118</ele>
        <time>2017-07-30T07:06:44.335Z</time>
      </trkpt>
      <trkpt lat="47.78161" lon="2.01344">
        <ele>118</ele>
        <time>2017-07-30T07:06:45.339Z</time>
      </trkpt>
      <trkpt lat="47.78161" lon="2.01336">
        <ele>118</ele>
        <time>2017-07-30T07:06:46.337Z</time>
      </trkpt>
      <trkpt lat="47.78162" lon="2.01328">
        <ele>118</ele>
        <time>2017-07-30T07:06:47.338Z</time>
      </trkpt>
      <trkpt lat="47.78163" lon="2.01321">
        <ele>118</ele>
        <time>2017-07-30T07:06:48.341Z</time>
      </trkpt>
      <trkpt lat="47.78164" lon="2.01313">
        <ele>118</ele>
        <time>2017-07-30T07:06:49.343Z</time>
      </trkpt>
      <trkpt lat="47.78164" lon="2.01313">
        <ele>118</ele>
        <time>2017-07-30T07:06:50.338Z</time>
      </trkpt>
      <trkpt lat="47.78165" lon="2.01298">
        <ele>118</ele>
        <time>2017-07-30T07:06:51.343Z</time>
      </trkpt>
      <trkpt lat="47.78165" lon="2.01298">
        <ele>118</ele>
        <time>2017-07-30T07:06:52.343Z</time>
      </trkpt>
      <trkpt lat="47.78167" lon="2.01283">
        <ele>118</ele>
        <time>2017-07-30T07:06:53.340Z</time>
      </trkpt>
      <trkpt lat="47.78167" lon="2.01283">
        <ele>118</ele>
        <time>2017-07-30T07:06:54.336Z</time>
      </trkpt>
      <trkpt lat="47.78169" lon="2.01267">
        <ele>118</ele>
        <time>2017-07-30T07:06:55.343Z</time>
      </trkpt>
      <trkpt lat="47.78169" lon="2.01259">
        <ele>118</ele>
        <time>2017-07-30T07:06:56.339Z</time>
      </trkpt>
      <trkpt lat="47.78169" lon="2.01259">
        <ele>118</ele>
        <time>2017-07-30T07:06:57.334Z</time>
      </trkpt>
      <trkpt lat="47.78171" lon="2.01243">
        <ele>117</ele>
        <time>2017-07-30T07:06:58.337Z</time>
      </trkpt>
      <trkpt lat="47.78171" lon="2.01243">
        <ele>117</ele>
        <time>2017-07-30T07:06:59.335Z</time>
      </trkpt>
      <trkpt lat="47.78173" lon="2.01226">
        <ele>117</ele>
        <time>2017-07-30T07:07:00.347Z</time>
      </trkpt>
      <trkpt lat="47.78174" lon="2.01218">
        <ele>116</ele>
        <time>2017-07-30T07:07:01.340Z</time>
      </trkpt>
      <trkpt lat="47.78174" lon="2.01218">
        <ele>116</ele>
        <time>2017-07-30T07:07:02.338Z</time>
      </trkpt>
      <trkpt lat="47.78176" lon="2.012">
        <ele>116</ele>
        <time>2017-07-30T07:07:03.339Z</time>
      </trkpt>
      <trkpt lat="47.78176" lon="2.012">
        <ele>116</ele>
        <time>2017-07-30T07:07:04.334Z</time>
      </trkpt>
      <trkpt lat="47.78178" lon="2.01183">
        <ele>116</ele>
        <time>2017-07-30T07:07:05.338Z</time>
      </trkpt>
      <trkpt lat="47.78178" lon="2.01183">
        <ele>116</ele>
        <time>2017-07-30T07:07:06.334Z</time>
      </trkpt>
      <trkpt lat="47.7818" lon="2.01166">
        <ele>116</ele>
        <time>2017-07-30T07:07:07.340Z</time>
      </trkpt>
      <trkpt lat="47.7818" lon="2.01166">
        <ele>116</ele>
        <time>2017-07-30T07:07:08.336Z</time>
      </trkpt>
      <trkpt lat="47.78182" lon="2.0115">
        <ele>116</ele>
        <time>2017-07-30T07:07:09.335Z</time>
      </trkpt>
      <trkpt lat="47.78182" lon="2.0115">
        <ele>116</ele>
        <time>2017-07-30T07:07:10.344Z</time>
      </trkpt>
      <trkpt lat="47.78184" lon="2.01134">
        <ele>116</ele>
        <time>2017-07-30T07:07:11.337Z</time>
      </trkpt>
      <trkpt lat="47.78185" lon="2.01126">
        <ele>116</ele>
        <time>2017-07-30T07:07:12.336Z</time>
      </trkpt>
      <trkpt lat="47.78186" lon="2.01118">
        <ele>116</ele>
        <time>2017-07-30T07:07:13.340Z</time>
      </trkpt>
      <trkpt lat="47.78186" lon="2.01118">
        <ele>116</ele>
        <time>2017-07-30T07:07:14.333Z</time>
      </trkpt>
      <trkpt lat="47.78188" lon="2.01103">
        <ele>116</ele>
        <time>2017-07-30T07:07:15.337Z</time>
      </trkpt>
      <trkpt lat="47.7819" lon="2.01095">
        <ele>116</ele>
        <time>2017-07-30T07:07:16.336Z</time>
      </trkpt>
      <trkpt lat="47.7819" lon="2.01095">
        <ele>116</ele>
        <time>2017-07-30T07:07:17.332Z</time>
      </trkpt>
      <trkpt lat="47.78191" lon="2.01079">
        <ele>116</ele>
        <time>2017-07-30T07:07:18.336Z</time>
      </trkpt>
      <trkpt lat="47.78192" lon="2.01071">
        <ele>116</ele>
        <time>2017-07-30T07:07:19.338Z</time>
      </trkpt>
      <trkpt lat="47.78192" lon="2.01071">
        <ele>116</ele>
        <time>2017-07-30T07:07:20.335Z</time>
      </trkpt>
      <trkpt lat="47.78194" lon="2.01056">
        <ele>116</ele>
        <time>2017-07-30T07:07:21.339Z</time>
      </trkpt>
      <trkpt lat="47.78194" lon="2.01056">
        <ele>116</ele>
        <time>2017-07-30T07:07:22.335Z</time>
      </trkpt>
      <trkpt lat="47.78196" lon="2.01042">
        <ele>116</ele>
        <time>2017-07-30T07:07:23.337Z</time>
      </trkpt>
      <trkpt lat="47.78196" lon="2.01042">
        <ele>116</ele>
        <time>2017-07-30T07:07:24.342Z</time>
      </trkpt>
      <trkpt lat="47.78197" lon="2.01028">
        <ele>116</ele>
        <time>2017-07-30T07:07:25.339Z</time>
      </trkpt>
      <trkpt lat="47.78197" lon="2.01028">
        <ele>116</ele>
        <time>2017-07-30T07:07:26.333Z</time>
      </trkpt>
      <trkpt lat="47.78199" lon="2.01014">
        <ele>116</ele>
        <time>2017-07-30T07:07:27.340Z</time>
      </trkpt>
      <trkpt lat="47.78199" lon="2.01014">
        <ele>116</ele>
        <time>2017-07-30T07:07:28.335Z</time>
      </trkpt>
      <trkpt lat="47.782" lon="2.00999">
        <ele>117</ele>
        <time>2017-07-30T07:07:29.335Z</time>
      </trkpt>
      <trkpt lat="47.782" lon="2.00999">
        <ele>117</ele>
        <time>2017-07-30T07:07:30.346Z</time>
      </trkpt>
      <trkpt lat="47.78201" lon="2.00986">
        <ele>117</ele>
        <time>2017-07-30T07:07:31.336Z</time>
      </trkpt>
      <trkpt lat="47.78201" lon="2.00986">
        <ele>117</ele>
        <time>2017-07-30T07:07:32.330Z</time>
      </trkpt>
      <trkpt lat="47.78203" lon="2.00971">
        <ele>117</ele>
        <time>2017-07-30T07:07:33.339Z</time>
      </trkpt>
      <trkpt lat="47.78203" lon="2.00971">
        <ele>117</ele>
        <time>2017-07-30T07:07:34.333Z</time>
      </trkpt>
      <trkpt lat="47.78205" lon="2.00957">
        <ele>117</ele>
        <time>2017-07-30T07:07:35.340Z</time>
      </trkpt>
      <trkpt lat="47.78205" lon="2.00957">
        <ele>117</ele>
        <time>2017-07-30T07:07:36.335Z</time>
      </trkpt>
      <trkpt lat="47.78206" lon="2.00943">
        <ele>117</ele>
        <time>2017-07-30T07:07:37.344Z</time>
      </trkpt>
      <trkpt lat="47.78206" lon="2.00943">
        <ele>117</ele>
        <time>2017-07-30T07:07:38.335Z</time>
      </trkpt>
      <trkpt lat="47.78208" lon="2.00929">
        <ele>117</ele>
        <time>2017-07-30T07:07:39.341Z</time>
      </trkpt>
      <trkpt lat="47.78208" lon="2.00929">
        <ele>117</ele>
        <time>2017-07-30T07:07:40.343Z</time>
      </trkpt>
      <trkpt lat="47.7821" lon="2.00915">
        <ele>117</ele>
        <time>2017-07-30T07:07:41.340Z</time>
      </trkpt>
      <trkpt lat="47.78211" lon="2.00908">
        <ele>117</ele>
        <time>2017-07-30T07:07:42.342Z</time>
      </trkpt>
      <trkpt lat="47.78211" lon="2.00908">
        <ele>117</ele>
        <time>2017-07-30T07:07:43.338Z</time>
      </trkpt>
      <trkpt lat="47.78213" lon="2.00895">
        <ele>117</ele>
        <time>2017-07-30T07:07:44.345Z</time>
      </trkpt>
      <trkpt lat="47.78213" lon="2.00895">
        <ele>117</ele>
        <time>2017-07-30T07:07:45.335Z</time>
      </trkpt>
      <trkpt lat="47.78214" lon="2.00883">
        <ele>117</ele>
        <time>2017-07-30T07:07:46.337Z</time>
      </trkpt>
      <trkpt lat="47.78214" lon="2.00883">
        <ele>117</ele>
        <time>2017-07-30T07:07:47.335Z</time>
      </trkpt>
      <trkpt lat="47.78214" lon="2.00872">
        <ele>117</ele>
        <time>2017-07-30T07:07:48.336Z</time>
      </trkpt>
      <trkpt lat="47.78215" lon="2.00867">
        <ele>117</ele>
        <time>2017-07-30T07:07:49.345Z</time>
      </trkpt>
      <trkpt lat="47.78215" lon="2.00867">
        <ele>117</ele>
        <time>2017-07-30T07:07:50.347Z</time>
      </trkpt>
      <trkpt lat="47.78217" lon="2.00858">
        <ele>117</ele>
        <time>2017-07-30T07:07:51.343Z</time>
      </trkpt>
      <trkpt lat="47.78217" lon="2.00858">
        <ele>117</ele>
        <time>2017-07-30T07:07:52.335Z</time>
      </trkpt>
      <trkpt lat="47.78218" lon="2.00851">
        <ele>117</ele>
        <time>2017-07-30T07:07:53.340Z</time>
      </trkpt>
      <trkpt lat="47.78218" lon="2.00851">
        <ele>117</ele>
        <time>2017-07-30T07:07:54.333Z</time>
      </trkpt>
      <trkpt lat="47.78219" lon="2.00846">
        <ele>117</ele>
        <time>2017-07-30T07:07:55.340Z</time>
      </trkpt>
      <trkpt lat="47.78219" lon="2.00846">
        <ele>117</ele>
        <time>2017-07-30T07:07:56.316Z</time>
      </trkpt>
      <trkpt lat="47.78219" lon="2.00844">
        <ele>117</ele>
        <time>2017-07-30T07:07:57.345Z</time>
      </trkpt>
      <trkpt lat="47.78219" lon="2.00844">
        <ele>117</ele>
        <time>2017-07-30T07:07:58.326Z</time>
      </trkpt>
      <trkpt lat="47.7822" lon="2.00843">
        <ele>117</ele>
        <time>2017-07-30T07:07:59.320Z</time>
      </trkpt>
      <trkpt lat="47.78221" lon="2.00841">
        <ele>117</ele>
        <time>2017-07-30T07:08:00.319Z</time>
      </trkpt>
      <trkpt lat="47.78223" lon="2.00839">
        <ele>117</ele>
        <time>2017-07-30T07:08:01.319Z</time>
      </trkpt>
      <trkpt lat="47.78223" lon="2.00839">
        <ele>117</ele>
        <time>2017-07-30T07:08:02.361Z</time>
      </trkpt>
      <trkpt lat="47.78227" lon="2.00833">
        <ele>116</ele>
        <time>2017-07-30T07:08:03.312Z</time>
      </trkpt>
      <trkpt lat="47.78229" lon="2.0083">
        <ele>116</ele>
        <time>2017-07-30T07:08:04.321Z</time>
      </trkpt>
      <trkpt lat="47.78229" lon="2.0083">
        <ele>116</ele>
        <time>2017-07-30T07:08:05.311Z</time>
      </trkpt>
      <trkpt lat="47.78236" lon="2.00823">
        <ele>116</ele>
        <time>2017-07-30T07:08:06.315Z</time>
      </trkpt>
      <trkpt lat="47.78239" lon="2.00819">
        <ele>116</ele>
        <time>2017-07-30T07:08:07.319Z</time>
      </trkpt>
      <trkpt lat="47.78239" lon="2.00819">
        <ele>116</ele>
        <time>2017-07-30T07:08:08.319Z</time>
      </trkpt>
      <trkpt lat="47.78247" lon="2.0081">
        <ele>115</ele>
        <time>2017-07-30T07:08:09.315Z</time>
      </trkpt>
      <trkpt lat="47.78247" lon="2.0081">
        <ele>115</ele>
        <time>2017-07-30T07:08:10.348Z</time>
      </trkpt>
      <trkpt lat="47.78256" lon="2.00801">
        <ele>115</ele>
        <time>2017-07-30T07:08:11.313Z</time>
      </trkpt>
      <trkpt lat="47.78256" lon="2.00801">
        <ele>115</ele>
        <time>2017-07-30T07:08:12.314Z</time>
      </trkpt>
      <trkpt lat="47.78265" lon="2.0079">
        <ele>115</ele>
        <time>2017-07-30T07:08:13.315Z</time>
      </trkpt>
      <trkpt lat="47.78265" lon="2.0079">
        <ele>115</ele>
        <time>2017-07-30T07:08:14.350Z</time>
      </trkpt>
      <trkpt lat="47.78274" lon="2.0078">
        <ele>115</ele>
        <time>2017-07-30T07:08:15.320Z</time>
      </trkpt>
      <trkpt lat="47.78274" lon="2.0078">
        <ele>115</ele>
        <time>2017-07-30T07:08:16.313Z</time>
      </trkpt>
      <trkpt lat="47.78283" lon="2.00769">
        <ele>115</ele>
        <time>2017-07-30T07:08:17.311Z</time>
      </trkpt>
      <trkpt lat="47.78288" lon="2.00764">
        <ele>114</ele>
        <time>2017-07-30T07:08:18.313Z</time>
      </trkpt>
      <trkpt lat="47.78288" lon="2.00764">
        <ele>114</ele>
        <time>2017-07-30T07:08:19.349Z</time>
      </trkpt>
      <trkpt lat="47.78298" lon="2.00753">
        <ele>114</ele>
        <time>2017-07-30T07:08:20.350Z</time>
      </trkpt>
      <trkpt lat="47.78303" lon="2.00747">
        <ele>114</ele>
        <time>2017-07-30T07:08:21.312Z</time>
      </trkpt>
      <trkpt lat="47.78303" lon="2.00747">
        <ele>114</ele>
        <time>2017-07-30T07:08:22.342Z</time>
      </trkpt>
      <trkpt lat="47.78313" lon="2.00736">
        <ele>113</ele>
        <time>2017-07-30T07:08:23.351Z</time>
      </trkpt>
      <trkpt lat="47.78318" lon="2.0073">
        <ele>113</ele>
        <time>2017-07-30T07:08:24.312Z</time>
      </trkpt>
      <trkpt lat="47.78318" lon="2.0073">
        <ele>113</ele>
        <time>2017-07-30T07:08:25.317Z</time>
      </trkpt>
      <trkpt lat="47.78328" lon="2.00719">
        <ele>113</ele>
        <time>2017-07-30T07:08:26.312Z</time>
      </trkpt>
      <trkpt lat="47.78333" lon="2.00713">
        <ele>113</ele>
        <time>2017-07-30T07:08:27.311Z</time>
      </trkpt>
      <trkpt lat="47.78333" lon="2.00713">
        <ele>113</ele>
        <time>2017-07-30T07:08:28.318Z</time>
      </trkpt>
      <trkpt lat="47.78343" lon="2.00702">
        <ele>113</ele>
        <time>2017-07-30T07:08:29.320Z</time>
      </trkpt>
      <trkpt lat="47.78348" lon="2.00696">
        <ele>113</ele>
        <time>2017-07-30T07:08:30.317Z</time>
      </trkpt>
      <trkpt lat="47.78353" lon="2.00691">
        <ele>113</ele>
        <time>2017-07-30T07:08:31.312Z</time>
      </trkpt>
      <trkpt lat="47.78353" lon="2.00691">
        <ele>113</ele>
        <time>2017-07-30T07:08:32.351Z</time>
      </trkpt>
      <trkpt lat="47.78363" lon="2.0068">
        <ele>113</ele>
        <time>2017-07-30T07:08:33.312Z</time>
      </trkpt>
      <trkpt lat="47.78363" lon="2.0068">
        <ele>113</ele>
        <time>2017-07-30T07:08:34.349Z</time>
      </trkpt>
      <trkpt lat="47.78372" lon="2.00668">
        <ele>113</ele>
        <time>2017-07-30T07:08:35.312Z</time>
      </trkpt>
      <trkpt lat="47.78372" lon="2.00668">
        <ele>113</ele>
        <time>2017-07-30T07:08:36.349Z</time>
      </trkpt>
      <trkpt lat="47.78382" lon="2.00657">
        <ele>113</ele>
        <time>2017-07-30T07:08:37.312Z</time>
      </trkpt>
      <trkpt lat="47.78382" lon="2.00657">
        <ele>113</ele>
        <time>2017-07-30T07:08:38.318Z</time>
      </trkpt>
      <trkpt lat="47.78391" lon="2.00646">
        <ele>113</ele>
        <time>2017-07-30T07:08:39.311Z</time>
      </trkpt>
      <trkpt lat="47.78391" lon="2.00646">
        <ele>113</ele>
        <time>2017-07-30T07:08:40.349Z</time>
      </trkpt>
      <trkpt lat="47.784" lon="2.00636">
        <ele>113</ele>
        <time>2017-07-30T07:08:41.350Z</time>
      </trkpt>
      <trkpt lat="47.784" lon="2.00636">
        <ele>113</ele>
        <time>2017-07-30T07:08:42.349Z</time>
      </trkpt>
      <trkpt lat="47.78408" lon="2.00627">
        <ele>113</ele>
        <time>2017-07-30T07:08:43.312Z</time>
      </trkpt>
      <trkpt lat="47.78408" lon="2.00627">
        <ele>113</ele>
        <time>2017-07-30T07:08:44.344Z</time>
      </trkpt>
      <trkpt lat="47.78415" lon="2.00619">
        <ele>113</ele>
        <time>2017-07-30T07:08:45.311Z</time>
      </trkpt>
      <trkpt lat="47.78415" lon="2.00619">
        <ele>113</ele>
        <time>2017-07-30T07:08:46.345Z</time>
      </trkpt>
      <trkpt lat="47.78421" lon="2.00611">
        <ele>113</ele>
        <time>2017-07-30T07:08:47.350Z</time>
      </trkpt>
      <trkpt lat="47.78424" lon="2.00607">
        <ele>112</ele>
        <time>2017-07-30T07:08:48.317Z</time>
      </trkpt>
      <trkpt lat="47.78424" lon="2.00607">
        <ele>112</ele>
        <time>2017-07-30T07:08:49.328Z</time>
      </trkpt>
      <trkpt lat="47.78431" lon="2.00598">
        <ele>112</ele>
        <time>2017-07-30T07:08:50.323Z</time>
      </trkpt>
      <trkpt lat="47.78434" lon="2.00593">
        <ele>112</ele>
        <time>2017-07-30T07:08:51.319Z</time>
      </trkpt>
      <trkpt lat="47.78434" lon="2.00593">
        <ele>112</ele>
        <time>2017-07-30T07:08:52.313Z</time>
      </trkpt>
      <trkpt lat="47.78437" lon="2.00581">
        <ele>112</ele>
        <time>2017-07-30T07:08:53.312Z</time>
      </trkpt>
      <trkpt lat="47.78435" lon="2.00575">
        <ele>113</ele>
        <time>2017-07-30T07:08:54.311Z</time>
      </trkpt>
      <trkpt lat="47.78432" lon="2.00571">
        <ele>113</ele>
        <time>2017-07-30T07:08:55.314Z</time>
      </trkpt>
      <trkpt lat="47.78432" lon="2.00571">
        <ele>113</ele>
        <time>2017-07-30T07:08:56.350Z</time>
      </trkpt>
      <trkpt lat="47.78423" lon="2.00567">
        <ele>113</ele>
        <time>2017-07-30T07:08:57.314Z</time>
      </trkpt>
      <trkpt lat="47.78423" lon="2.00567">
        <ele>113</ele>
        <time>2017-07-30T07:08:58.312Z</time>
      </trkpt>
      <trkpt lat="47.78414" lon="2.00564">
        <ele>113</ele>
        <time>2017-07-30T07:08:59.313Z</time>
      </trkpt>
      <trkpt lat="47.78414" lon="2.00564">
        <ele>113</ele>
        <time>2017-07-30T07:09:00.348Z</time>
      </trkpt>
      <trkpt lat="47.78404" lon="2.00561">
        <ele>114</ele>
        <time>2017-07-30T07:09:01.316Z</time>
      </trkpt>
      <trkpt lat="47.78404" lon="2.00561">
        <ele>114</ele>
        <time>2017-07-30T07:09:02.311Z</time>
      </trkpt>
      <trkpt lat="47.78395" lon="2.00558">
        <ele>114</ele>
        <time>2017-07-30T07:09:03.314Z</time>
      </trkpt>
      <trkpt lat="47.78395" lon="2.00558">
        <ele>114</ele>
        <time>2017-07-30T07:09:04.349Z</time>
      </trkpt>
      <trkpt lat="47.78387" lon="2.00555">
        <ele>114</ele>
        <time>2017-07-30T07:09:05.314Z</time>
      </trkpt>
      <trkpt lat="47.78382" lon="2.00554">
        <ele>114</ele>
        <time>2017-07-30T07:09:06.313Z</time>
      </trkpt>
      <trkpt lat="47.78382" lon="2.00554">
        <ele>114</ele>
        <time>2017-07-30T07:09:07.349Z</time>
      </trkpt>
      <trkpt lat="47.78373" lon="2.0055">
        <ele>115</ele>
        <time>2017-07-30T07:09:08.319Z</time>
      </trkpt>
      <trkpt lat="47.78369" lon="2.00548">
        <ele>115</ele>
        <time>2017-07-30T07:09:09.350Z</time>
      </trkpt>
      <trkpt lat="47.78369" lon="2.00548">
        <ele>115</ele>
        <time>2017-07-30T07:09:10.345Z</time>
      </trkpt>
      <trkpt lat="47.78359" lon="2.00543">
        <ele>116</ele>
        <time>2017-07-30T07:09:11.350Z</time>
      </trkpt>
      <trkpt lat="47.78359" lon="2.00543">
        <ele>116</ele>
        <time>2017-07-30T07:09:12.350Z</time>
      </trkpt>
      <trkpt lat="47.7835" lon="2.0054">
        <ele>116</ele>
        <time>2017-07-30T07:09:13.312Z</time>
      </trkpt>
      <trkpt lat="47.78345" lon="2.00539">
        <ele>117</ele>
        <time>2017-07-30T07:09:14.351Z</time>
      </trkpt>
      <trkpt lat="47.7834" lon="2.00537">
        <ele>117</ele>
        <time>2017-07-30T07:09:15.312Z</time>
      </trkpt>
      <trkpt lat="47.7834" lon="2.00537">
        <ele>117</ele>
        <time>2017-07-30T07:09:16.349Z</time>
      </trkpt>
      <trkpt lat="47.7833" lon="2.00534">
        <ele>118</ele>
        <time>2017-07-30T07:09:17.350Z</time>
      </trkpt>
      <trkpt lat="47.7833" lon="2.00534">
        <ele>118</ele>
        <time>2017-07-30T07:09:18.318Z</time>
      </trkpt>
      <trkpt lat="47.7832" lon="2.00531">
        <ele>118</ele>
        <time>2017-07-30T07:09:19.313Z</time>
      </trkpt>
      <trkpt lat="47.7832" lon="2.00531">
        <ele>118</ele>
        <time>2017-07-30T07:09:20.351Z</time>
      </trkpt>
      <trkpt lat="47.7831" lon="2.00526">
        <ele>118</ele>
        <time>2017-07-30T07:09:21.313Z</time>
      </trkpt>
      <trkpt lat="47.7831" lon="2.00526">
        <ele>118</ele>
        <time>2017-07-30T07:09:22.325Z</time>
      </trkpt>
      <trkpt lat="47.78301" lon="2.00522">
        <ele>119</ele>
        <time>2017-07-30T07:09:23.341Z</time>
      </trkpt>
      <trkpt lat="47.78296" lon="2.0052">
        <ele>119</ele>
        <time>2017-07-30T07:09:24.311Z</time>
      </trkpt>
      <trkpt lat="47.78291" lon="2.00518">
        <ele>119</ele>
        <time>2017-07-30T07:09:25.312Z</time>
      </trkpt>
      <trkpt lat="47.78291" lon="2.00518">
        <ele>119</ele>
        <time>2017-07-30T07:09:26.351Z</time>
      </trkpt>
      <trkpt lat="47.7828" lon="2.00513">
        <ele>120</ele>
        <time>2017-07-30T07:09:27.312Z</time>
      </trkpt>
      <trkpt lat="47.7828" lon="2.00513">
        <ele>120</ele>
        <time>2017-07-30T07:09:28.350Z</time>
      </trkpt>
      <trkpt lat="47.7827" lon="2.00509">
        <ele>120</ele>
        <time>2017-07-30T07:09:29.312Z</time>
      </trkpt>
      <trkpt lat="47.7827" lon="2.00509">
        <ele>120</ele>
        <time>2017-07-30T07:09:30.349Z</time>
      </trkpt>
      <trkpt lat="47.7826" lon="2.00506">
        <ele>120</ele>
        <time>2017-07-30T07:09:31.311Z</time>
      </trkpt>
      <trkpt lat="47.7826" lon="2.00506">
        <ele>120</ele>
        <time>2017-07-30T07:09:32.345Z</time>
      </trkpt>
      <trkpt lat="47.78251" lon="2.00502">
        <ele>119</ele>
        <time>2017-07-30T07:09:33.312Z</time>
      </trkpt>
      <trkpt lat="47.78246" lon="2.00501">
        <ele>119</ele>
        <time>2017-07-30T07:09:34.328Z</time>
      </trkpt>
      <trkpt lat="47.78246" lon="2.00501">
        <ele>119</ele>
        <time>2017-07-30T07:09:35.321Z</time>
      </trkpt>
      <trkpt lat="47.78236" lon="2.00497">
        <ele>119</ele>
        <time>2017-07-30T07:09:36.315Z</time>
      </trkpt>
      <trkpt lat="47.78231" lon="2.00496">
        <ele>119</ele>
        <time>2017-07-30T07:09:37.311Z</time>
      </trkpt>
      <trkpt lat="47.78231" lon="2.00496">
        <ele>119</ele>
        <time>2017-07-30T07:09:38.351Z</time>
      </trkpt>
      <trkpt lat="47.78221" lon="2.00492">
        <ele>119</ele>
        <time>2017-07-30T07:09:39.351Z</time>
      </trkpt>
      <trkpt lat="47.78217" lon="2.0049">
        <ele>119</ele>
        <time>2017-07-30T07:09:40.312Z</time>
      </trkpt>
      <trkpt lat="47.78217" lon="2.0049">
        <ele>119</ele>
        <time>2017-07-30T07:09:41.350Z</time>
      </trkpt>
      <trkpt lat="47.78207" lon="2.00487">
        <ele>119</ele>
        <time>2017-07-30T07:09:42.315Z</time>
      </trkpt>
      <trkpt lat="47.78203" lon="2.00485">
        <ele>119</ele>
        <time>2017-07-30T07:09:43.350Z</time>
      </trkpt>
      <trkpt lat="47.78203" lon="2.00485">
        <ele>119</ele>
        <time>2017-07-30T07:09:44.351Z</time>
      </trkpt>
      <trkpt lat="47.78193" lon="2.00481">
        <ele>119</ele>
        <time>2017-07-30T07:09:45.312Z</time>
      </trkpt>
      <trkpt lat="47.78193" lon="2.00481">
        <ele>119</ele>
        <time>2017-07-30T07:09:46.349Z</time>
      </trkpt>
      <trkpt lat="47.78184" lon="2.00478">
        <ele>119</ele>
        <time>2017-07-30T07:09:47.317Z</time>
      </trkpt>
      <trkpt lat="47.78184" lon="2.00478">
        <ele>119</ele>
        <time>2017-07-30T07:09:48.311Z</time>
      </trkpt>
      <trkpt lat="47.78174" lon="2.00474">
        <ele>119</ele>
        <time>2017-07-30T07:09:49.315Z</time>
      </trkpt>
      <trkpt lat="47.78169" lon="2.00472">
        <ele>120</ele>
        <time>2017-07-30T07:09:50.314Z</time>
      </trkpt>
      <trkpt lat="47.78165" lon="2.0047">
        <ele>120</ele>
        <time>2017-07-30T07:09:51.315Z</time>
      </trkpt>
      <trkpt lat="47.78165" lon="2.0047">
        <ele>120</ele>
        <time>2017-07-30T07:09:52.311Z</time>
      </trkpt>
      <trkpt lat="47.78155" lon="2.00467">
        <ele>120</ele>
        <time>2017-07-30T07:09:53.314Z</time>
      </trkpt>
      <trkpt lat="47.78151" lon="2.00465">
        <ele>120</ele>
        <time>2017-07-30T07:09:54.314Z</time>
      </trkpt>
      <trkpt lat="47.78146" lon="2.00463">
        <ele>120</ele>
        <time>2017-07-30T07:09:55.316Z</time>
      </trkpt>
      <trkpt lat="47.78146" lon="2.00463">
        <ele>120</ele>
        <time>2017-07-30T07:09:56.351Z</time>
      </trkpt>
      <trkpt lat="47.78137" lon="2.0046">
        <ele>119</ele>
        <time>2017-07-30T07:09:57.311Z</time>
      </trkpt>
      <trkpt lat="47.78137" lon="2.0046">
        <ele>119</ele>
        <time>2017-07-30T07:09:58.316Z</time>
      </trkpt>
      <trkpt lat="47.78128" lon="2.00456">
        <ele>119</ele>
        <time>2017-07-30T07:09:59.350Z</time>
      </trkpt>
      <trkpt lat="47.78124" lon="2.00455">
        <ele>119</ele>
        <time>2017-07-30T07:10:00.311Z</time>
      </trkpt>
      <trkpt lat="47.78124" lon="2.00455">
        <ele>119</ele>
        <time>2017-07-30T07:10:01.350Z</time>
      </trkpt>
      <trkpt lat="47.78115" lon="2.00451">
        <ele>119</ele>
        <time>2017-07-30T07:10:02.351Z</time>
      </trkpt>
      <trkpt lat="47.78115" lon="2.00451">
        <ele>119</ele>
        <time>2017-07-30T07:10:03.341Z</time>
      </trkpt>
      <trkpt lat="47.78106" lon="2.00448">
        <ele>119</ele>
        <time>2017-07-30T07:10:04.350Z</time>
      </trkpt>
      <trkpt lat="47.78106" lon="2.00448">
        <ele>119</ele>
        <time>2017-07-30T07:10:05.350Z</time>
      </trkpt>
      <trkpt lat="47.78098" lon="2.00444">
        <ele>119</ele>
        <time>2017-07-30T07:10:06.350Z</time>
      </trkpt>
      <trkpt lat="47.78094" lon="2.00443">
        <ele>119</ele>
        <time>2017-07-30T07:10:07.351Z</time>
      </trkpt>
      <trkpt lat="47.78094" lon="2.00443">
        <ele>119</ele>
        <time>2017-07-30T07:10:08.342Z</time>
      </trkpt>
      <trkpt lat="47.78085" lon="2.0044">
        <ele>119</ele>
        <time>2017-07-30T07:10:09.351Z</time>
      </trkpt>
      <trkpt lat="47.7808" lon="2.00438">
        <ele>119</ele>
        <time>2017-07-30T07:10:10.351Z</time>
      </trkpt>
      <trkpt lat="47.78076" lon="2.00437">
        <ele>119</ele>
        <time>2017-07-30T07:10:11.311Z</time>
      </trkpt>
      <trkpt lat="47.78076" lon="2.00437">
        <ele>119</ele>
        <time>2017-07-30T07:10:12.350Z</time>
      </trkpt>
      <trkpt lat="47.78068" lon="2.00434">
        <ele>119</ele>
        <time>2017-07-30T07:10:13.323Z</time>
      </trkpt>
      <trkpt lat="47.78065" lon="2.00432">
        <ele>119</ele>
        <time>2017-07-30T07:10:14.328Z</time>
      </trkpt>
      <trkpt lat="47.78065" lon="2.00432">
        <ele>119</ele>
        <time>2017-07-30T07:10:15.322Z</time>
      </trkpt>
      <trkpt lat="47.78062" lon="2.00422">
        <ele>119</ele>
        <time>2017-07-30T07:10:16.317Z</time>
      </trkpt>
      <trkpt lat="47.78063" lon="2.00417">
        <ele>119</ele>
        <time>2017-07-30T07:10:17.313Z</time>
      </trkpt>
      <trkpt lat="47.78063" lon="2.00417">
        <ele>119</ele>
        <time>2017-07-30T07:10:18.345Z</time>
      </trkpt>
      <trkpt lat="47.78065" lon="2.00406">
        <ele>119</ele>
        <time>2017-07-30T07:10:19.313Z</time>
      </trkpt>
      <trkpt lat="47.78065" lon="2.00406">
        <ele>119</ele>
        <time>2017-07-30T07:10:20.351Z</time>
      </trkpt>
      <trkpt lat="47.78068" lon="2.00395">
        <ele>119</ele>
        <time>2017-07-30T07:10:21.350Z</time>
      </trkpt>
      <trkpt lat="47.78068" lon="2.00395">
        <ele>119</ele>
        <time>2017-07-30T07:10:22.350Z</time>
      </trkpt>
      <trkpt lat="47.78072" lon="2.00383">
        <ele>118</ele>
        <time>2017-07-30T07:10:23.351Z</time>
      </trkpt>
      <trkpt lat="47.78073" lon="2.00378">
        <ele>118</ele>
        <time>2017-07-30T07:10:24.312Z</time>
      </trkpt>
      <trkpt lat="47.78074" lon="2.00372">
        <ele>119</ele>
        <time>2017-07-30T07:10:25.331Z</time>
      </trkpt>
      <trkpt lat="47.78074" lon="2.00372">
        <ele>119</ele>
        <time>2017-07-30T07:10:26.311Z</time>
      </trkpt>
      <trkpt lat="47.78077" lon="2.0036">
        <ele>119</ele>
        <time>2017-07-30T07:10:27.319Z</time>
      </trkpt>
      <trkpt lat="47.78077" lon="2.0036">
        <ele>119</ele>
        <time>2017-07-30T07:10:28.325Z</time>
      </trkpt>
      <trkpt lat="47.7808" lon="2.00347">
        <ele>118</ele>
        <time>2017-07-30T07:10:29.326Z</time>
      </trkpt>
      <trkpt lat="47.78081" lon="2.00341">
        <ele>118</ele>
        <time>2017-07-30T07:10:30.313Z</time>
      </trkpt>
      <trkpt lat="47.78081" lon="2.00341">
        <ele>118</ele>
        <time>2017-07-30T07:10:31.321Z</time>
      </trkpt>
      <trkpt lat="47.78084" lon="2.00328">
        <ele>118</ele>
        <time>2017-07-30T07:10:32.332Z</time>
      </trkpt>
      <trkpt lat="47.78086" lon="2.00322">
        <ele>118</ele>
        <time>2017-07-30T07:10:33.312Z</time>
      </trkpt>
      <trkpt lat="47.78086" lon="2.00322">
        <ele>118</ele>
        <time>2017-07-30T07:10:34.315Z</time>
      </trkpt>
      <trkpt lat="47.78089" lon="2.00309">
        <ele>118</ele>
        <time>2017-07-30T07:10:35.322Z</time>
      </trkpt>
      <trkpt lat="47.78089" lon="2.00309">
        <ele>118</ele>
        <time>2017-07-30T07:10:36.324Z</time>
      </trkpt>
      <trkpt lat="47.78092" lon="2.00296">
        <ele>118</ele>
        <time>2017-07-30T07:10:37.326Z</time>
      </trkpt>
      <trkpt lat="47.78092" lon="2.00296">
        <ele>118</ele>
        <time>2017-07-30T07:10:38.333Z</time>
      </trkpt>
      <trkpt lat="47.78095" lon="2.00283">
        <ele>118</ele>
        <time>2017-07-30T07:10:39.317Z</time>
      </trkpt>
      <trkpt lat="47.78095" lon="2.00283">
        <ele>118</ele>
        <time>2017-07-30T07:10:40.316Z</time>
      </trkpt>
      <trkpt lat="47.78098" lon="2.0027">
        <ele>118</ele>
        <time>2017-07-30T07:10:41.319Z</time>
      </trkpt>
      <trkpt lat="47.78098" lon="2.0027">
        <ele>118</ele>
        <time>2017-07-30T07:10:42.314Z</time>
      </trkpt>
      <trkpt lat="47.78101" lon="2.00257">
        <ele>118</ele>
        <time>2017-07-30T07:10:43.321Z</time>
      </trkpt>
      <trkpt lat="47.78103" lon="2.00251">
        <ele>118</ele>
        <time>2017-07-30T07:10:44.317Z</time>
      </trkpt>
      <trkpt lat="47.78103" lon="2.00251">
        <ele>118</ele>
        <time>2017-07-30T07:10:45.316Z</time>
      </trkpt>
      <trkpt lat="47.78106" lon="2.00239">
        <ele>118</ele>
        <time>2017-07-30T07:10:46.313Z</time>
      </trkpt>
      <trkpt lat="47.78106" lon="2.00239">
        <ele>118</ele>
        <time>2017-07-30T07:10:47.312Z</time>
      </trkpt>
      <trkpt lat="47.78111" lon="2.00228">
        <ele>118</ele>
        <time>2017-07-30T07:10:48.320Z</time>
      </trkpt>
      <trkpt lat="47.78113" lon="2.00222">
        <ele>118</ele>
        <time>2017-07-30T07:10:49.351Z</time>
      </trkpt>
      <trkpt lat="47.78113" lon="2.00222">
        <ele>118</ele>
        <time>2017-07-30T07:10:50.352Z</time>
      </trkpt>
      <trkpt lat="47.78118" lon="2.0021">
        <ele>118</ele>
        <time>2017-07-30T07:10:51.312Z</time>
      </trkpt>
      <trkpt lat="47.78118" lon="2.0021">
        <ele>118</ele>
        <time>2017-07-30T07:10:52.350Z</time>
      </trkpt>
      <trkpt lat="47.78124" lon="2.00199">
        <ele>118</ele>
        <time>2017-07-30T07:10:53.313Z</time>
      </trkpt>
      <trkpt lat="47.78124" lon="2.00199">
        <ele>118</ele>
        <time>2017-07-30T07:10:54.319Z</time>
      </trkpt>
      <trkpt lat="47.78129" lon="2.00187">
        <ele>118</ele>
        <time>2017-07-30T07:10:55.324Z</time>
      </trkpt>
      <trkpt lat="47.78129" lon="2.00187">
        <ele>118</ele>
        <time>2017-07-30T07:10:56.322Z</time>
      </trkpt>
      <trkpt lat="47.78133" lon="2.00175">
        <ele>118</ele>
        <time>2017-07-30T07:10:57.321Z</time>
      </trkpt>
      <trkpt lat="47.78136" lon="2.00169">
        <ele>118</ele>
        <time>2017-07-30T07:10:58.321Z</time>
      </trkpt>
      <trkpt lat="47.78136" lon="2.00169">
        <ele>118</ele>
        <time>2017-07-30T07:10:59.325Z</time>
      </trkpt>
      <trkpt lat="47.78141" lon="2.00157">
        <ele>118</ele>
        <time>2017-07-30T07:11:00.329Z</time>
      </trkpt>
      <trkpt lat="47.78143" lon="2.0015">
        <ele>118</ele>
        <time>2017-07-30T07:11:01.312Z</time>
      </trkpt>
      <trkpt lat="47.78143" lon="2.0015">
        <ele>118</ele>
        <time>2017-07-30T07:11:02.352Z</time>
      </trkpt>
      <trkpt lat="47.78148" lon="2.00138">
        <ele>118</ele>
        <time>2017-07-30T07:11:03.312Z</time>
      </trkpt>
      <trkpt lat="47.78148" lon="2.00138">
        <ele>118</ele>
        <time>2017-07-30T07:11:04.345Z</time>
      </trkpt>
      <trkpt lat="47.78153" lon="2.00127">
        <ele>118</ele>
        <time>2017-07-30T07:11:05.317Z</time>
      </trkpt>
      <trkpt lat="47.78153" lon="2.00127">
        <ele>118</ele>
        <time>2017-07-30T07:11:06.320Z</time>
      </trkpt>
      <trkpt lat="47.78159" lon="2.00115">
        <ele>118</ele>
        <time>2017-07-30T07:11:07.321Z</time>
      </trkpt>
      <trkpt lat="47.78159" lon="2.00115">
        <ele>118</ele>
        <time>2017-07-30T07:11:08.322Z</time>
      </trkpt>
      <trkpt lat="47.78165" lon="2.00103">
        <ele>118</ele>
        <time>2017-07-30T07:11:09.322Z</time>
      </trkpt>
      <trkpt lat="47.78165" lon="2.00103">
        <ele>118</ele>
        <time>2017-07-30T07:11:10.325Z</time>
      </trkpt>
      <trkpt lat="47.78171" lon="2.00091">
        <ele>119</ele>
        <time>2017-07-30T07:11:11.325Z</time>
      </trkpt>
      <trkpt lat="47.78171" lon="2.00091">
        <ele>119</ele>
        <time>2017-07-30T07:11:12.327Z</time>
      </trkpt>
      <trkpt lat="47.78176" lon="2.00078">
        <ele>119</ele>
        <time>2017-07-30T07:11:13.315Z</time>
      </trkpt>
      <trkpt lat="47.78176" lon="2.00078">
        <ele>119</ele>
        <time>2017-07-30T07:11:14.351Z</time>
      </trkpt>
      <trkpt lat="47.78181" lon="2.00065">
        <ele>119</ele>
        <time>2017-07-30T07:11:15.320Z</time>
      </trkpt>
      <trkpt lat="47.78181" lon="2.00065">
        <ele>119</ele>
        <time>2017-07-30T07:11:16.320Z</time>
      </trkpt>
      <trkpt lat="47.78186" lon="2.00052">
        <ele>119</ele>
        <time>2017-07-30T07:11:17.320Z</time>
      </trkpt>
      <trkpt lat="47.78186" lon="2.00052">
        <ele>119</ele>
        <time>2017-07-30T07:11:18.320Z</time>
      </trkpt>
      <trkpt lat="47.78191" lon="2.00038">
        <ele>119</ele>
        <time>2017-07-30T07:11:19.315Z</time>
      </trkpt>
      <trkpt lat="47.78191" lon="2.00038">
        <ele>119</ele>
        <time>2017-07-30T07:11:20.351Z</time>
      </trkpt>
      <trkpt lat="47.78197" lon="2.00026">
        <ele>119</ele>
        <time>2017-07-30T07:11:21.315Z</time>
      </trkpt>
      <trkpt lat="47.78197" lon="2.00026">
        <ele>119</ele>
        <time>2017-07-30T07:11:22.351Z</time>
      </trkpt>
      <trkpt lat="47.78202" lon="2.00014">
        <ele>119</ele>
        <time>2017-07-30T07:11:23.319Z</time>
      </trkpt>
      <trkpt lat="47.78202" lon="2.00014">
        <ele>119</ele>
        <time>2017-07-30T07:11:24.317Z</time>
      </trkpt>
      <trkpt lat="47.78207" lon="2.00002">
        <ele>119</ele>
        <time>2017-07-30T07:11:25.345Z</time>
      </trkpt>
      <trkpt lat="47.78207" lon="2.00002">
        <ele>119</ele>
        <time>2017-07-30T07:11:26.312Z</time>
      </trkpt>
      <trkpt lat="47.78212" lon="1.99991">
        <ele>120</ele>
        <time>2017-07-30T07:11:27.320Z</time>
      </trkpt>
      <trkpt lat="47.78214" lon="1.99985">
        <ele>120</ele>
        <time>2017-07-30T07:11:28.317Z</time>
      </trkpt>
      <trkpt lat="47.78217" lon="1.99979">
        <ele>120</ele>
        <time>2017-07-30T07:11:29.319Z</time>
      </trkpt>
      <trkpt lat="47.78217" lon="1.99979">
        <ele>120</ele>
        <time>2017-07-30T07:11:30.324Z</time>
      </trkpt>
      <trkpt lat="47.78222" lon="1.99967">
        <ele>120</ele>
        <time>2017-07-30T07:11:31.323Z</time>
      </trkpt>
      <trkpt lat="47.78222" lon="1.99967">
        <ele>120</ele>
        <time>2017-07-30T07:11:32.319Z</time>
      </trkpt>
      <trkpt lat="47.78226" lon="1.99954">
        <ele>120</ele>
        <time>2017-07-30T07:11:33.317Z</time>
      </trkpt>
      <trkpt lat="47.78226" lon="1.99954">
        <ele>120</ele>
        <time>2017-07-30T07:11:34.312Z</time>
      </trkpt>
      <trkpt lat="47.78231" lon="1.99942">
        <ele>121</ele>
        <time>2017-07-30T07:11:35.351Z</time>
      </trkpt>
      <trkpt lat="47.78231" lon="1.99942">
        <ele>121</ele>
        <time>2017-07-30T07:11:36.352Z</time>
      </trkpt>
      <trkpt lat="47.78236" lon="1.9993">
        <ele>121</ele>
        <time>2017-07-30T07:11:37.312Z</time>
      </trkpt>
      <trkpt lat="47.78236" lon="1.9993">
        <ele>121</ele>
        <time>2017-07-30T07:11:38.352Z</time>
      </trkpt>
      <trkpt lat="47.78241" lon="1.99918">
        <ele>121</ele>
        <time>2017-07-30T07:11:39.311Z</time>
      </trkpt>
      <trkpt lat="47.78241" lon="1.99918">
        <ele>121</ele>
        <time>2017-07-30T07:11:40.350Z</time>
      </trkpt>
      <trkpt lat="47.78246" lon="1.99906">
        <ele>121</ele>
        <time>2017-07-30T07:11:41.352Z</time>
      </trkpt>
      <trkpt lat="47.78246" lon="1.99906">
        <ele>121</ele>
        <time>2017-07-30T07:11:42.351Z</time>
      </trkpt>
      <trkpt lat="47.78251" lon="1.99894">
        <ele>121</ele>
        <time>2017-07-30T07:11:43.312Z</time>
      </trkpt>
      <trkpt lat="47.78251" lon="1.99894">
        <ele>121</ele>
        <time>2017-07-30T07:11:44.351Z</time>
      </trkpt>
      <trkpt lat="47.78256" lon="1.99882">
        <ele>122</ele>
        <time>2017-07-30T07:11:45.311Z</time>
      </trkpt>
      <trkpt lat="47.78256" lon="1.99882">
        <ele>122</ele>
        <time>2017-07-30T07:11:46.353Z</time>
      </trkpt>
      <trkpt lat="47.7826" lon="1.9987">
        <ele>122</ele>
        <time>2017-07-30T07:11:47.312Z</time>
      </trkpt>
      <trkpt lat="47.7826" lon="1.9987">
        <ele>122</ele>
        <time>2017-07-30T07:11:48.351Z</time>
      </trkpt>
      <trkpt lat="47.78266" lon="1.99857">
        <ele>123</ele>
        <time>2017-07-30T07:11:49.321Z</time>
      </trkpt>
      <trkpt lat="47.78266" lon="1.99857">
        <ele>123</ele>
        <time>2017-07-30T07:11:50.318Z</time>
      </trkpt>
      <trkpt lat="47.78269" lon="1.99842">
        <ele>123</ele>
        <time>2017-07-30T07:11:51.316Z</time>
      </trkpt>
      <trkpt lat="47.78269" lon="1.99842">
        <ele>123</ele>
        <time>2017-07-30T07:11:52.350Z</time>
      </trkpt>
      <trkpt lat="47.78274" lon="1.99829">
        <ele>124</ele>
        <time>2017-07-30T07:11:53.311Z</time>
      </trkpt>
      <trkpt lat="47.78274" lon="1.99829">
        <ele>124</ele>
        <time>2017-07-30T07:11:54.313Z</time>
      </trkpt>
      <trkpt lat="47.78279" lon="1.99817">
        <ele>124</ele>
        <time>2017-07-30T07:11:55.312Z</time>
      </trkpt>
      <trkpt lat="47.78279" lon="1.99817">
        <ele>124</ele>
        <time>2017-07-30T07:11:56.353Z</time>
      </trkpt>
      <trkpt lat="47.78284" lon="1.99803">
        <ele>124</ele>
        <time>2017-07-30T07:11:57.311Z</time>
      </trkpt>
      <trkpt lat="47.78284" lon="1.99803">
        <ele>124</ele>
        <time>2017-07-30T07:11:58.351Z</time>
      </trkpt>
      <trkpt lat="47.7829" lon="1.99791">
        <ele>124</ele>
        <time>2017-07-30T07:11:59.351Z</time>
      </trkpt>
      <trkpt lat="47.7829" lon="1.99791">
        <ele>124</ele>
        <time>2017-07-30T07:12:00.346Z</time>
      </trkpt>
      <trkpt lat="47.78295" lon="1.9978">
        <ele>124</ele>
        <time>2017-07-30T07:12:01.312Z</time>
      </trkpt>
      <trkpt lat="47.78295" lon="1.9978">
        <ele>124</ele>
        <time>2017-07-30T07:12:02.346Z</time>
      </trkpt>
      <trkpt lat="47.78299" lon="1.9977">
        <ele>124</ele>
        <time>2017-07-30T07:12:03.312Z</time>
      </trkpt>
      <trkpt lat="47.78299" lon="1.9977">
        <ele>124</ele>
        <time>2017-07-30T07:12:04.351Z</time>
      </trkpt>
      <trkpt lat="47.78303" lon="1.9976">
        <ele>125</ele>
        <time>2017-07-30T07:12:05.311Z</time>
      </trkpt>
      <trkpt lat="47.78303" lon="1.9976">
        <ele>125</ele>
        <time>2017-07-30T07:12:06.345Z</time>
      </trkpt>
      <trkpt lat="47.78307" lon="1.9975">
        <ele>125</ele>
        <time>2017-07-30T07:12:07.312Z</time>
      </trkpt>
      <trkpt lat="47.78307" lon="1.9975">
        <ele>125</ele>
        <time>2017-07-30T07:12:08.317Z</time>
      </trkpt>
      <trkpt lat="47.78313" lon="1.99738">
        <ele>125</ele>
        <time>2017-07-30T07:12:09.312Z</time>
      </trkpt>
      <trkpt lat="47.78313" lon="1.99738">
        <ele>125</ele>
        <time>2017-07-30T07:12:10.350Z</time>
      </trkpt>
      <trkpt lat="47.78318" lon="1.99727">
        <ele>125</ele>
        <time>2017-07-30T07:12:11.351Z</time>
      </trkpt>
      <trkpt lat="47.78321" lon="1.99721">
        <ele>126</ele>
        <time>2017-07-30T07:12:12.312Z</time>
      </trkpt>
      <trkpt lat="47.78321" lon="1.99721">
        <ele>126</ele>
        <time>2017-07-30T07:12:13.351Z</time>
      </trkpt>
      <trkpt lat="47.78326" lon="1.99711">
        <ele>126</ele>
        <time>2017-07-30T07:12:14.352Z</time>
      </trkpt>
      <trkpt lat="47.78328" lon="1.99705">
        <ele>127</ele>
        <time>2017-07-30T07:12:15.320Z</time>
      </trkpt>
      <trkpt lat="47.78328" lon="1.99705">
        <ele>127</ele>
        <time>2017-07-30T07:12:16.313Z</time>
      </trkpt>
      <trkpt lat="47.78334" lon="1.99695">
        <ele>127</ele>
        <time>2017-07-30T07:12:17.316Z</time>
      </trkpt>
      <trkpt lat="47.78334" lon="1.99695">
        <ele>127</ele>
        <time>2017-07-30T07:12:18.318Z</time>
      </trkpt>
      <trkpt lat="47.78338" lon="1.99685">
        <ele>127</ele>
        <time>2017-07-30T07:12:19.319Z</time>
      </trkpt>
      <trkpt lat="47.78338" lon="1.99685">
        <ele>127</ele>
        <time>2017-07-30T07:12:20.314Z</time>
      </trkpt>
      <trkpt lat="47.78344" lon="1.99669">
        <ele>127</ele>
        <time>2017-07-30T07:12:21.315Z</time>
      </trkpt>
      <trkpt lat="47.78344" lon="1.99669">
        <ele>127</ele>
        <time>2017-07-30T07:12:22.349Z</time>
      </trkpt>
      <trkpt lat="47.78347" lon="1.99656">
        <ele>128</ele>
        <time>2017-07-30T07:12:23.315Z</time>
      </trkpt>
      <trkpt lat="47.78347" lon="1.99656">
        <ele>128</ele>
        <time>2017-07-30T07:12:24.321Z</time>
      </trkpt>
      <trkpt lat="47.78352" lon="1.99644">
        <ele>127</ele>
        <time>2017-07-30T07:12:25.317Z</time>
      </trkpt>
      <trkpt lat="47.78352" lon="1.99644">
        <ele>127</ele>
        <time>2017-07-30T07:12:26.351Z</time>
      </trkpt>
      <trkpt lat="47.78357" lon="1.99631">
        <ele>126</ele>
        <time>2017-07-30T07:12:27.313Z</time>
      </trkpt>
      <trkpt lat="47.78357" lon="1.99631">
        <ele>126</ele>
        <time>2017-07-30T07:12:28.316Z</time>
      </trkpt>
      <trkpt lat="47.78363" lon="1.9962">
        <ele>125</ele>
        <time>2017-07-30T07:12:29.313Z</time>
      </trkpt>
      <trkpt lat="47.78363" lon="1.9962">
        <ele>125</ele>
        <time>2017-07-30T07:12:30.351Z</time>
      </trkpt>
      <trkpt lat="47.78368" lon="1.99609">
        <ele>125</ele>
        <time>2017-07-30T07:12:31.314Z</time>
      </trkpt>
      <trkpt lat="47.78368" lon="1.99609">
        <ele>125</ele>
        <time>2017-07-30T07:12:32.360Z</time>
      </trkpt>
      <trkpt lat="47.78373" lon="1.99599">
        <ele>124</ele>
        <time>2017-07-30T07:12:33.328Z</time>
      </trkpt>
      <trkpt lat="47.78373" lon="1.99599">
        <ele>124</ele>
        <time>2017-07-30T07:12:34.337Z</time>
      </trkpt>
      <trkpt lat="47.78377" lon="1.99588">
        <ele>124</ele>
        <time>2017-07-30T07:12:35.351Z</time>
      </trkpt>
      <trkpt lat="47.78379" lon="1.99583">
        <ele>124</ele>
        <time>2017-07-30T07:12:36.351Z</time>
      </trkpt>
      <trkpt lat="47.78382" lon="1.99577">
        <ele>124</ele>
        <time>2017-07-30T07:12:37.312Z</time>
      </trkpt>
      <trkpt lat="47.78385" lon="1.99571">
        <ele>124</ele>
        <time>2017-07-30T07:12:38.324Z</time>
      </trkpt>
      <trkpt lat="47.78385" lon="1.99571">
        <ele>124</ele>
        <time>2017-07-30T07:12:39.320Z</time>
      </trkpt>
      <trkpt lat="47.78391" lon="1.9956">
        <ele>124</ele>
        <time>2017-07-30T07:12:40.315Z</time>
      </trkpt>
      <trkpt lat="47.78391" lon="1.9956">
        <ele>124</ele>
        <time>2017-07-30T07:12:41.351Z</time>
      </trkpt>
      <trkpt lat="47.78396" lon="1.99547">
        <ele>123</ele>
        <time>2017-07-30T07:12:42.351Z</time>
      </trkpt>
      <trkpt lat="47.78396" lon="1.99547">
        <ele>123</ele>
        <time>2017-07-30T07:12:43.350Z</time>
      </trkpt>
      <trkpt lat="47.78401" lon="1.99536">
        <ele>123</ele>
        <time>2017-07-30T07:12:44.311Z</time>
      </trkpt>
      <trkpt lat="47.78404" lon="1.9953">
        <ele>123</ele>
        <time>2017-07-30T07:12:45.311Z</time>
      </trkpt>
      <trkpt lat="47.78404" lon="1.9953">
        <ele>123</ele>
        <time>2017-07-30T07:12:46.345Z</time>
      </trkpt>
      <trkpt lat="47.7841" lon="1.99519">
        <ele>122</ele>
        <time>2017-07-30T07:12:47.351Z</time>
      </trkpt>
      <trkpt lat="47.7841" lon="1.99519">
        <ele>122</ele>
        <time>2017-07-30T07:12:48.345Z</time>
      </trkpt>
      <trkpt lat="47.78416" lon="1.99509">
        <ele>122</ele>
        <time>2017-07-30T07:12:49.312Z</time>
      </trkpt>
      <trkpt lat="47.78416" lon="1.99509">
        <ele>122</ele>
        <time>2017-07-30T07:12:50.345Z</time>
      </trkpt>
      <trkpt lat="47.78422" lon="1.99499">
        <ele>121</ele>
        <time>2017-07-30T07:12:51.311Z</time>
      </trkpt>
      <trkpt lat="47.78422" lon="1.99499">
        <ele>121</ele>
        <time>2017-07-30T07:12:52.312Z</time>
      </trkpt>
      <trkpt lat="47.78429" lon="1.99489">
        <ele>121</ele>
        <time>2017-07-30T07:12:53.351Z</time>
      </trkpt>
      <trkpt lat="47.78429" lon="1.99489">
        <ele>121</ele>
        <time>2017-07-30T07:12:54.345Z</time>
      </trkpt>
      <trkpt lat="47.78436" lon="1.99478">
        <ele>120</ele>
        <time>2017-07-30T07:12:55.311Z</time>
      </trkpt>
      <trkpt lat="47.7844" lon="1.99473">
        <ele>120</ele>
        <time>2017-07-30T07:12:56.315Z</time>
      </trkpt>
      <trkpt lat="47.7844" lon="1.99473">
        <ele>120</ele>
        <time>2017-07-30T07:12:57.311Z</time>
      </trkpt>
      <trkpt lat="47.78448" lon="1.99463">
        <ele>119</ele>
        <time>2017-07-30T07:12:58.332Z</time>
      </trkpt>
      <trkpt lat="47.78448" lon="1.99463">
        <ele>119</ele>
        <time>2017-07-30T07:12:59.345Z</time>
      </trkpt>
      <trkpt lat="47.78454" lon="1.99452">
        <ele>119</ele>
        <time>2017-07-30T07:13:00.351Z</time>
      </trkpt>
      <trkpt lat="47.78458" lon="1.99447">
        <ele>119</ele>
        <time>2017-07-30T07:13:01.313Z</time>
      </trkpt>
      <trkpt lat="47.78458" lon="1.99447">
        <ele>119</ele>
        <time>2017-07-30T07:13:02.345Z</time>
      </trkpt>
      <trkpt lat="47.78466" lon="1.99437">
        <ele>118</ele>
        <time>2017-07-30T07:13:03.312Z</time>
      </trkpt>
      <trkpt lat="47.78466" lon="1.99437">
        <ele>118</ele>
        <time>2017-07-30T07:13:04.350Z</time>
      </trkpt>
      <trkpt lat="47.78474" lon="1.99426">
        <ele>117</ele>
        <time>2017-07-30T07:13:05.350Z</time>
      </trkpt>
      <trkpt lat="47.78478" lon="1.99421">
        <ele>117</ele>
        <time>2017-07-30T07:13:06.315Z</time>
      </trkpt>
      <trkpt lat="47.78481" lon="1.99416">
        <ele>116</ele>
        <time>2017-07-30T07:13:07.317Z</time>
      </trkpt>
      <trkpt lat="47.78481" lon="1.99416">
        <ele>116</ele>
        <time>2017-07-30T07:13:08.317Z</time>
      </trkpt>
      <trkpt lat="47.78489" lon="1.99405">
        <ele>116</ele>
        <time>2017-07-30T07:13:09.319Z</time>
      </trkpt>
      <trkpt lat="47.78489" lon="1.99405">
        <ele>116</ele>
        <time>2017-07-30T07:13:10.311Z</time>
      </trkpt>
      <trkpt lat="47.78496" lon="1.99393">
        <ele>116</ele>
        <time>2017-07-30T07:13:11.314Z</time>
      </trkpt>
      <trkpt lat="47.785" lon="1.99388">
        <ele>116</ele>
        <time>2017-07-30T07:13:12.315Z</time>
      </trkpt>
      <trkpt lat="47.78504" lon="1.99382">
        <ele>115</ele>
        <time>2017-07-30T07:13:13.319Z</time>
      </trkpt>
      <trkpt lat="47.78504" lon="1.99382">
        <ele>115</ele>
        <time>2017-07-30T07:13:14.311Z</time>
      </trkpt>
      <trkpt lat="47.78511" lon="1.99372">
        <ele>115</ele>
        <time>2017-07-30T07:13:15.352Z</time>
      </trkpt>
      <trkpt lat="47.78514" lon="1.99367">
        <ele>115</ele>
        <time>2017-07-30T07:13:16.312Z</time>
      </trkpt>
      <trkpt lat="47.78517" lon="1.99362">
        <ele>115</ele>
        <time>2017-07-30T07:13:17.311Z</time>
      </trkpt>
      <trkpt lat="47.78517" lon="1.99362">
        <ele>115</ele>
        <time>2017-07-30T07:13:18.345Z</time>
      </trkpt>
      <trkpt lat="47.78525" lon="1.99354">
        <ele>115</ele>
        <time>2017-07-30T07:13:19.312Z</time>
      </trkpt>
      <trkpt lat="47.78525" lon="1.99354">
        <ele>115</ele>
        <time>2017-07-30T07:13:20.345Z</time>
      </trkpt>
      <trkpt lat="47.78532" lon="1.99345">
        <ele>114</ele>
        <time>2017-07-30T07:13:21.311Z</time>
      </trkpt>
      <trkpt lat="47.78532" lon="1.99345">
        <ele>114</ele>
        <time>2017-07-30T07:13:22.351Z</time>
      </trkpt>
      <trkpt lat="47.78539" lon="1.99335">
        <ele>114</ele>
        <time>2017-07-30T07:13:23.352Z</time>
      </trkpt>
      <trkpt lat="47.78539" lon="1.99335">
        <ele>114</ele>
        <time>2017-07-30T07:13:24.348Z</time>
      </trkpt>
      <trkpt lat="47.78546" lon="1.99326">
        <ele>114</ele>
        <time>2017-07-30T07:13:25.332Z</time>
      </trkpt>
      <trkpt lat="47.78546" lon="1.99326">
        <ele>114</ele>
        <time>2017-07-30T07:13:26.341Z</time>
      </trkpt>
      <trkpt lat="47.78552" lon="1.99318">
        <ele>114</ele>
        <time>2017-07-30T07:13:27.351Z</time>
      </trkpt>
      <trkpt lat="47.78556" lon="1.99313">
        <ele>114</ele>
        <time>2017-07-30T07:13:28.319Z</time>
      </trkpt>
      <trkpt lat="47.78556" lon="1.99313">
        <ele>114</ele>
        <time>2017-07-30T07:13:29.350Z</time>
      </trkpt>
      <trkpt lat="47.78562" lon="1.99303">
        <ele>114</ele>
        <time>2017-07-30T07:13:30.351Z</time>
      </trkpt>
      <trkpt lat="47.78566" lon="1.99299">
        <ele>114</ele>
        <time>2017-07-30T07:13:31.312Z</time>
      </trkpt>
      <trkpt lat="47.78566" lon="1.99299">
        <ele>114</ele>
        <time>2017-07-30T07:13:32.351Z</time>
      </trkpt>
      <trkpt lat="47.78573" lon="1.99289">
        <ele>114</ele>
        <time>2017-07-30T07:13:33.316Z</time>
      </trkpt>
      <trkpt lat="47.78576" lon="1.99285">
        <ele>115</ele>
        <time>2017-07-30T07:13:34.312Z</time>
      </trkpt>
      <trkpt lat="47.78576" lon="1.99285">
        <ele>115</ele>
        <time>2017-07-30T07:13:35.341Z</time>
      </trkpt>
      <trkpt lat="47.78582" lon="1.99275">
        <ele>116</ele>
        <time>2017-07-30T07:13:36.351Z</time>
      </trkpt>
      <trkpt lat="47.78586" lon="1.9927">
        <ele>116</ele>
        <time>2017-07-30T07:13:37.312Z</time>
      </trkpt>
      <trkpt lat="47.78589" lon="1.99266">
        <ele>117</ele>
        <time>2017-07-30T07:13:38.315Z</time>
      </trkpt>
      <trkpt lat="47.78589" lon="1.99266">
        <ele>117</ele>
        <time>2017-07-30T07:13:39.350Z</time>
      </trkpt>
      <trkpt lat="47.78595" lon="1.99256">
        <ele>118</ele>
        <time>2017-07-30T07:13:40.351Z</time>
      </trkpt>
      <trkpt lat="47.78595" lon="1.99256">
        <ele>118</ele>
        <time>2017-07-30T07:13:41.345Z</time>
      </trkpt>
      <trkpt lat="47.78601" lon="1.99247">
        <ele>120</ele>
        <time>2017-07-30T07:13:42.351Z</time>
      </trkpt>
      <trkpt lat="47.78604" lon="1.99243">
        <ele>120</ele>
        <time>2017-07-30T07:13:43.312Z</time>
      </trkpt>
      <trkpt lat="47.78604" lon="1.99243">
        <ele>120</ele>
        <time>2017-07-30T07:13:44.346Z</time>
      </trkpt>
      <trkpt lat="47.78611" lon="1.99233">
        <ele>122</ele>
        <time>2017-07-30T07:13:45.344Z</time>
      </trkpt>
      <trkpt lat="47.78611" lon="1.99233">
        <ele>122</ele>
        <time>2017-07-30T07:13:46.345Z</time>
      </trkpt>
      <trkpt lat="47.78617" lon="1.99224">
        <ele>122</ele>
        <time>2017-07-30T07:13:47.352Z</time>
      </trkpt>
      <trkpt lat="47.78617" lon="1.99224">
        <ele>122</ele>
        <time>2017-07-30T07:13:48.346Z</time>
      </trkpt>
      <trkpt lat="47.78624" lon="1.99214">
        <ele>122</ele>
        <time>2017-07-30T07:13:49.338Z</time>
      </trkpt>
      <trkpt lat="47.78624" lon="1.99214">
        <ele>122</ele>
        <time>2017-07-30T07:13:50.345Z</time>
      </trkpt>
      <trkpt lat="47.78631" lon="1.99204">
        <ele>122</ele>
        <time>2017-07-30T07:13:51.311Z</time>
      </trkpt>
      <trkpt lat="47.78631" lon="1.99204">
        <ele>122</ele>
        <time>2017-07-30T07:13:52.346Z</time>
      </trkpt>
      <trkpt lat="47.78637" lon="1.99195">
        <ele>122</ele>
        <time>2017-07-30T07:13:53.311Z</time>
      </trkpt>
      <trkpt lat="47.78637" lon="1.99195">
        <ele>122</ele>
        <time>2017-07-30T07:13:54.345Z</time>
      </trkpt>
      <trkpt lat="47.78645" lon="1.99184">
        <ele>121</ele>
        <time>2017-07-30T07:13:55.329Z</time>
      </trkpt>
      <trkpt lat="47.78648" lon="1.99178">
        <ele>120</ele>
        <time>2017-07-30T07:13:56.323Z</time>
      </trkpt>
      <trkpt lat="47.78652" lon="1.99173">
        <ele>120</ele>
        <time>2017-07-30T07:13:57.316Z</time>
      </trkpt>
      <trkpt lat="47.78652" lon="1.99173">
        <ele>120</ele>
        <time>2017-07-30T07:13:58.318Z</time>
      </trkpt>
      <trkpt lat="47.78659" lon="1.99163">
        <ele>120</ele>
        <time>2017-07-30T07:13:59.311Z</time>
      </trkpt>
      <trkpt lat="47.78663" lon="1.99158">
        <ele>119</ele>
        <time>2017-07-30T07:14:00.315Z</time>
      </trkpt>
      <trkpt lat="47.78663" lon="1.99158">
        <ele>119</ele>
        <time>2017-07-30T07:14:01.314Z</time>
      </trkpt>
      <trkpt lat="47.7867" lon="1.99147">
        <ele>118</ele>
        <time>2017-07-30T07:14:02.314Z</time>
      </trkpt>
      <trkpt lat="47.7867" lon="1.99147">
        <ele>118</ele>
        <time>2017-07-30T07:14:03.350Z</time>
      </trkpt>
      <trkpt lat="47.78679" lon="1.99135">
        <ele>118</ele>
        <time>2017-07-30T07:14:04.312Z</time>
      </trkpt>
      <trkpt lat="47.78679" lon="1.99135">
        <ele>118</ele>
        <time>2017-07-30T07:14:05.345Z</time>
      </trkpt>
      <trkpt lat="47.78687" lon="1.99124">
        <ele>118</ele>
        <time>2017-07-30T07:14:06.314Z</time>
      </trkpt>
      <trkpt lat="47.78687" lon="1.99124">
        <ele>118</ele>
        <time>2017-07-30T07:14:07.350Z</time>
      </trkpt>
      <trkpt lat="47.78695" lon="1.99114">
        <ele>118</ele>
        <time>2017-07-30T07:14:08.317Z</time>
      </trkpt>
      <trkpt lat="47.78699" lon="1.9911">
        <ele>118</ele>
        <time>2017-07-30T07:14:09.311Z</time>
      </trkpt>
      <trkpt lat="47.78699" lon="1.9911">
        <ele>118</ele>
        <time>2017-07-30T07:14:10.345Z</time>
      </trkpt>
      <trkpt lat="47.78706" lon="1.99099">
        <ele>118</ele>
        <time>2017-07-30T07:14:11.351Z</time>
      </trkpt>
      <trkpt lat="47.78706" lon="1.99099">
        <ele>118</ele>
        <time>2017-07-30T07:14:12.345Z</time>
      </trkpt>
      <trkpt lat="47.78714" lon="1.9909">
        <ele>119</ele>
        <time>2017-07-30T07:14:13.313Z</time>
      </trkpt>
      <trkpt lat="47.78714" lon="1.9909">
        <ele>119</ele>
        <time>2017-07-30T07:14:14.344Z</time>
      </trkpt>
      <trkpt lat="47.78721" lon="1.99081">
        <ele>119</ele>
        <time>2017-07-30T07:14:15.320Z</time>
      </trkpt>
      <trkpt lat="47.78721" lon="1.99081">
        <ele>119</ele>
        <time>2017-07-30T07:14:16.330Z</time>
      </trkpt>
      <trkpt lat="47.78726" lon="1.99072">
        <ele>119</ele>
        <time>2017-07-30T07:14:17.323Z</time>
      </trkpt>
      <trkpt lat="47.78726" lon="1.99066">
        <ele>119</ele>
        <time>2017-07-30T07:14:18.319Z</time>
      </trkpt>
      <trkpt lat="47.78726" lon="1.99066">
        <ele>119</ele>
        <time>2017-07-30T07:14:19.315Z</time>
      </trkpt>
      <trkpt lat="47.78724" lon="1.99057">
        <ele>119</ele>
        <time>2017-07-30T07:14:20.352Z</time>
      </trkpt>
      <trkpt lat="47.78722" lon="1.99053">
        <ele>119</ele>
        <time>2017-07-30T07:14:21.311Z</time>
      </trkpt>
      <trkpt lat="47.78722" lon="1.99053">
        <ele>119</ele>
        <time>2017-07-30T07:14:22.345Z</time>
      </trkpt>
      <trkpt lat="47.78716" lon="1.99042">
        <ele>120</ele>
        <time>2017-07-30T07:14:23.351Z</time>
      </trkpt>
      <trkpt lat="47.78713" lon="1.99037">
        <ele>120</ele>
        <time>2017-07-30T07:14:24.324Z</time>
      </trkpt>
      <trkpt lat="47.78713" lon="1.99037">
        <ele>120</ele>
        <time>2017-07-30T07:14:25.350Z</time>
      </trkpt>
      <trkpt lat="47.78709" lon="1.99026">
        <ele>120</ele>
        <time>2017-07-30T07:14:26.352Z</time>
      </trkpt>
      <trkpt lat="47.78708" lon="1.99021">
        <ele>120</ele>
        <time>2017-07-30T07:14:27.311Z</time>
      </trkpt>
      <trkpt lat="47.78708" lon="1.99021">
        <ele>120</ele>
        <time>2017-07-30T07:14:28.318Z</time>
      </trkpt>
      <trkpt lat="47.78703" lon="1.9901">
        <ele>120</ele>
        <time>2017-07-30T07:14:29.351Z</time>
      </trkpt>
      <trkpt lat="47.78703" lon="1.9901">
        <ele>120</ele>
        <time>2017-07-30T07:14:30.345Z</time>
      </trkpt>
      <trkpt lat="47.78699" lon="1.98999">
        <ele>120</ele>
        <time>2017-07-30T07:14:31.312Z</time>
      </trkpt>
      <trkpt lat="47.78699" lon="1.98999">
        <ele>120</ele>
        <time>2017-07-30T07:14:32.346Z</time>
      </trkpt>
      <trkpt lat="47.78694" lon="1.98987">
        <ele>120</ele>
        <time>2017-07-30T07:14:33.322Z</time>
      </trkpt>
      <trkpt lat="47.78694" lon="1.98987">
        <ele>120</ele>
        <time>2017-07-30T07:14:34.327Z</time>
      </trkpt>
      <trkpt lat="47.7869" lon="1.98977">
        <ele>120</ele>
        <time>2017-07-30T07:14:35.321Z</time>
      </trkpt>
      <trkpt lat="47.7869" lon="1.98977">
        <ele>120</ele>
        <time>2017-07-30T07:14:36.313Z</time>
      </trkpt>
      <trkpt lat="47.78684" lon="1.98966">
        <ele>120</ele>
        <time>2017-07-30T07:14:37.318Z</time>
      </trkpt>
      <trkpt lat="47.78682" lon="1.9896">
        <ele>120</ele>
        <time>2017-07-30T07:14:38.316Z</time>
      </trkpt>
      <trkpt lat="47.78679" lon="1.98954">
        <ele>120</ele>
        <time>2017-07-30T07:14:39.315Z</time>
      </trkpt>
      <trkpt lat="47.78679" lon="1.98954">
        <ele>120</ele>
        <time>2017-07-30T07:14:40.349Z</time>
      </trkpt>
      <trkpt lat="47.78675" lon="1.98944">
        <ele>120</ele>
        <time>2017-07-30T07:14:41.314Z</time>
      </trkpt>
      <trkpt lat="47.78675" lon="1.98944">
        <ele>120</ele>
        <time>2017-07-30T07:14:42.349Z</time>
      </trkpt>
      <trkpt lat="47.7867" lon="1.98933">
        <ele>119</ele>
        <time>2017-07-30T07:14:43.317Z</time>
      </trkpt>
      <trkpt lat="47.7867" lon="1.98933">
        <ele>119</ele>
        <time>2017-07-30T07:14:44.313Z</time>
      </trkpt>
      <trkpt lat="47.78665" lon="1.98921">
        <ele>119</ele>
        <time>2017-07-30T07:14:45.315Z</time>
      </trkpt>
      <trkpt lat="47.78665" lon="1.98921">
        <ele>119</ele>
        <time>2017-07-30T07:14:46.322Z</time>
      </trkpt>
      <trkpt lat="47.78661" lon="1.98911">
        <ele>119</ele>
        <time>2017-07-30T07:14:47.324Z</time>
      </trkpt>
      <trkpt lat="47.78658" lon="1.98905">
        <ele>119</ele>
        <time>2017-07-30T07:14:48.320Z</time>
      </trkpt>
      <trkpt lat="47.78658" lon="1.98905">
        <ele>119</ele>
        <time>2017-07-30T07:14:49.317Z</time>
      </trkpt>
      <trkpt lat="47.78652" lon="1.98893">
        <ele>118</ele>
        <time>2017-07-30T07:14:50.352Z</time>
      </trkpt>
      <trkpt lat="47.78649" lon="1.98887">
        <ele>118</ele>
        <time>2017-07-30T07:14:51.351Z</time>
      </trkpt>
      <trkpt lat="47.78649" lon="1.98887">
        <ele>118</ele>
        <time>2017-07-30T07:14:52.351Z</time>
      </trkpt>
      <trkpt lat="47.78642" lon="1.98875">
        <ele>117</ele>
        <time>2017-07-30T07:14:53.312Z</time>
      </trkpt>
      <trkpt lat="47.78642" lon="1.98875">
        <ele>117</ele>
        <time>2017-07-30T07:14:54.350Z</time>
      </trkpt>
      <trkpt lat="47.78636" lon="1.98861">
        <ele>116</ele>
        <time>2017-07-30T07:14:55.312Z</time>
      </trkpt>
      <trkpt lat="47.78636" lon="1.98861">
        <ele>116</ele>
        <time>2017-07-30T07:14:56.352Z</time>
      </trkpt>
      <trkpt lat="47.78629" lon="1.98847">
        <ele>116</ele>
        <time>2017-07-30T07:14:57.311Z</time>
      </trkpt>
      <trkpt lat="47.78629" lon="1.98847">
        <ele>116</ele>
        <time>2017-07-30T07:14:58.318Z</time>
      </trkpt>
      <trkpt lat="47.78623" lon="1.98831">
        <ele>116</ele>
        <time>2017-07-30T07:14:59.351Z</time>
      </trkpt>
      <trkpt lat="47.78623" lon="1.98831">
        <ele>116</ele>
        <time>2017-07-30T07:15:00.346Z</time>
      </trkpt>
      <trkpt lat="47.78616" lon="1.98817">
        <ele>115</ele>
        <time>2017-07-30T07:15:01.313Z</time>
      </trkpt>
      <trkpt lat="47.78616" lon="1.98817">
        <ele>115</ele>
        <time>2017-07-30T07:15:02.345Z</time>
      </trkpt>
      <trkpt lat="47.78609" lon="1.98803">
        <ele>115</ele>
        <time>2017-07-30T07:15:03.311Z</time>
      </trkpt>
      <trkpt lat="47.78609" lon="1.98803">
        <ele>115</ele>
        <time>2017-07-30T07:15:04.345Z</time>
      </trkpt>
      <trkpt lat="47.78603" lon="1.98789">
        <ele>116</ele>
        <time>2017-07-30T07:15:05.351Z</time>
      </trkpt>
      <trkpt lat="47.78603" lon="1.98789">
        <ele>116</ele>
        <time>2017-07-30T07:15:06.351Z</time>
      </trkpt>
      <trkpt lat="47.78597" lon="1.98774">
        <ele>116</ele>
        <time>2017-07-30T07:15:07.312Z</time>
      </trkpt>
      <trkpt lat="47.78597" lon="1.98774">
        <ele>116</ele>
        <time>2017-07-30T07:15:08.317Z</time>
      </trkpt>
      <trkpt lat="47.78592" lon="1.98758">
        <ele>116</ele>
        <time>2017-07-30T07:15:09.311Z</time>
      </trkpt>
      <trkpt lat="47.78592" lon="1.98758">
        <ele>116</ele>
        <time>2017-07-30T07:15:10.350Z</time>
      </trkpt>
      <trkpt lat="47.78588" lon="1.98742">
        <ele>116</ele>
        <time>2017-07-30T07:15:11.351Z</time>
      </trkpt>
      <trkpt lat="47.78588" lon="1.98742">
        <ele>116</ele>
        <time>2017-07-30T07:15:12.345Z</time>
      </trkpt>
      <trkpt lat="47.78585" lon="1.98726">
        <ele>116</ele>
        <time>2017-07-30T07:15:13.343Z</time>
      </trkpt>
      <trkpt lat="47.78585" lon="1.98726">
        <ele>116</ele>
        <time>2017-07-30T07:15:14.352Z</time>
      </trkpt>
      <trkpt lat="47.78584" lon="1.9871">
        <ele>116</ele>
        <time>2017-07-30T07:15:15.312Z</time>
      </trkpt>
      <trkpt lat="47.78584" lon="1.9871">
        <ele>116</ele>
        <time>2017-07-30T07:15:16.351Z</time>
      </trkpt>
      <trkpt lat="47.78584" lon="1.98695">
        <ele>116</ele>
        <time>2017-07-30T07:15:17.351Z</time>
      </trkpt>
      <trkpt lat="47.78584" lon="1.98695">
        <ele>116</ele>
        <time>2017-07-30T07:15:18.345Z</time>
      </trkpt>
      <trkpt lat="47.78584" lon="1.98679">
        <ele>115</ele>
        <time>2017-07-30T07:15:19.312Z</time>
      </trkpt>
      <trkpt lat="47.78584" lon="1.98679">
        <ele>115</ele>
        <time>2017-07-30T07:15:20.345Z</time>
      </trkpt>
      <trkpt lat="47.78585" lon="1.98663">
        <ele>115</ele>
        <time>2017-07-30T07:15:21.311Z</time>
      </trkpt>
      <trkpt lat="47.78585" lon="1.98663">
        <ele>115</ele>
        <time>2017-07-30T07:15:22.345Z</time>
      </trkpt>
      <trkpt lat="47.78585" lon="1.98649">
        <ele>115</ele>
        <time>2017-07-30T07:15:23.351Z</time>
      </trkpt>
      <trkpt lat="47.78585" lon="1.9864">
        <ele>115</ele>
        <time>2017-07-30T07:15:24.412Z</time>
      </trkpt>
      <trkpt lat="47.78585" lon="1.98633">
        <ele>115</ele>
        <time>2017-07-30T07:15:25.313Z</time>
      </trkpt>
      <trkpt lat="47.78585" lon="1.98633">
        <ele>115</ele>
        <time>2017-07-30T07:15:26.345Z</time>
      </trkpt>
      <trkpt lat="47.78584" lon="1.98618">
        <ele>115</ele>
        <time>2017-07-30T07:15:27.312Z</time>
      </trkpt>
      <trkpt lat="47.78584" lon="1.98618">
        <ele>115</ele>
        <time>2017-07-30T07:15:28.351Z</time>
      </trkpt>
      <trkpt lat="47.78583" lon="1.98603">
        <ele>114</ele>
        <time>2017-07-30T07:15:29.351Z</time>
      </trkpt>
      <trkpt lat="47.78582" lon="1.98594">
        <ele>114</ele>
        <time>2017-07-30T07:15:30.315Z</time>
      </trkpt>
      <trkpt lat="47.78582" lon="1.98594">
        <ele>114</ele>
        <time>2017-07-30T07:15:31.314Z</time>
      </trkpt>
      <trkpt lat="47.78579" lon="1.98578">
        <ele>114</ele>
        <time>2017-07-30T07:15:32.320Z</time>
      </trkpt>
      <trkpt lat="47.78579" lon="1.98578">
        <ele>114</ele>
        <time>2017-07-30T07:15:33.313Z</time>
      </trkpt>
      <trkpt lat="47.78575" lon="1.98561">
        <ele>115</ele>
        <time>2017-07-30T07:15:34.316Z</time>
      </trkpt>
      <trkpt lat="47.78575" lon="1.98561">
        <ele>115</ele>
        <time>2017-07-30T07:15:35.349Z</time>
      </trkpt>
      <trkpt lat="47.7857" lon="1.98547">
        <ele>114</ele>
        <time>2017-07-30T07:15:36.327Z</time>
      </trkpt>
      <trkpt lat="47.7857" lon="1.98547">
        <ele>114</ele>
        <time>2017-07-30T07:15:37.340Z</time>
      </trkpt>
      <trkpt lat="47.78564" lon="1.98534">
        <ele>114</ele>
        <time>2017-07-30T07:15:38.347Z</time>
      </trkpt>
      <trkpt lat="47.78561" lon="1.98527">
        <ele>114</ele>
        <time>2017-07-30T07:15:39.319Z</time>
      </trkpt>
      <trkpt lat="47.78561" lon="1.98527">
        <ele>114</ele>
        <time>2017-07-30T07:15:40.351Z</time>
      </trkpt>
      <trkpt lat="47.78553" lon="1.98512">
        <ele>114</ele>
        <time>2017-07-30T07:15:41.351Z</time>
      </trkpt>
      <trkpt lat="47.78553" lon="1.98512">
        <ele>114</ele>
        <time>2017-07-30T07:15:42.345Z</time>
      </trkpt>
      <trkpt lat="47.78544" lon="1.98497">
        <ele>113</ele>
        <time>2017-07-30T07:15:43.313Z</time>
      </trkpt>
      <trkpt lat="47.78544" lon="1.98497">
        <ele>113</ele>
        <time>2017-07-30T07:15:44.345Z</time>
      </trkpt>
      <trkpt lat="47.78534" lon="1.98483">
        <ele>113</ele>
        <time>2017-07-30T07:15:45.312Z</time>
      </trkpt>
      <trkpt lat="47.78534" lon="1.98483">
        <ele>113</ele>
        <time>2017-07-30T07:15:46.315Z</time>
      </trkpt>
      <trkpt lat="47.78523" lon="1.98469">
        <ele>113</ele>
        <time>2017-07-30T07:15:47.312Z</time>
      </trkpt>
      <trkpt lat="47.78523" lon="1.98469">
        <ele>113</ele>
        <time>2017-07-30T07:15:48.351Z</time>
      </trkpt>
      <trkpt lat="47.78512" lon="1.98455">
        <ele>113</ele>
        <time>2017-07-30T07:15:49.313Z</time>
      </trkpt>
      <trkpt lat="47.78512" lon="1.98455">
        <ele>113</ele>
        <time>2017-07-30T07:15:50.346Z</time>
      </trkpt>
      <trkpt lat="47.78504" lon="1.98443">
        <ele>113</ele>
        <time>2017-07-30T07:15:51.351Z</time>
      </trkpt>
      <trkpt lat="47.78504" lon="1.98443">
        <ele>113</ele>
        <time>2017-07-30T07:15:52.345Z</time>
      </trkpt>
      <trkpt lat="47.78495" lon="1.98431">
        <ele>112</ele>
        <time>2017-07-30T07:15:53.313Z</time>
      </trkpt>
      <trkpt lat="47.78495" lon="1.98431">
        <ele>112</ele>
        <time>2017-07-30T07:15:54.345Z</time>
      </trkpt>
      <trkpt lat="47.78488" lon="1.98421">
        <ele>112</ele>
        <time>2017-07-30T07:15:55.312Z</time>
      </trkpt>
      <trkpt lat="47.78488" lon="1.98421">
        <ele>112</ele>
        <time>2017-07-30T07:15:56.345Z</time>
      </trkpt>
      <trkpt lat="47.78479" lon="1.98411">
        <ele>112</ele>
        <time>2017-07-30T07:15:57.311Z</time>
      </trkpt>
      <trkpt lat="47.78479" lon="1.98411">
        <ele>112</ele>
        <time>2017-07-30T07:15:58.346Z</time>
      </trkpt>
      <trkpt lat="47.7847" lon="1.984">
        <ele>112</ele>
        <time>2017-07-30T07:15:59.351Z</time>
      </trkpt>
      <trkpt lat="47.7847" lon="1.984">
        <ele>112</ele>
        <time>2017-07-30T07:16:00.345Z</time>
      </trkpt>
      <trkpt lat="47.78462" lon="1.98389">
        <ele>112</ele>
        <time>2017-07-30T07:16:01.313Z</time>
      </trkpt>
      <trkpt lat="47.78462" lon="1.98389">
        <ele>112</ele>
        <time>2017-07-30T07:16:02.352Z</time>
      </trkpt>
      <trkpt lat="47.78453" lon="1.98379">
        <ele>111</ele>
        <time>2017-07-30T07:16:03.312Z</time>
      </trkpt>
      <trkpt lat="47.78453" lon="1.98379">
        <ele>111</ele>
        <time>2017-07-30T07:16:04.351Z</time>
      </trkpt>
      <trkpt lat="47.78444" lon="1.98367">
        <ele>111</ele>
        <time>2017-07-30T07:16:05.311Z</time>
      </trkpt>
      <trkpt lat="47.78444" lon="1.98367">
        <ele>111</ele>
        <time>2017-07-30T07:16:06.345Z</time>
      </trkpt>
      <trkpt lat="47.78435" lon="1.98357">
        <ele>111</ele>
        <time>2017-07-30T07:16:07.312Z</time>
      </trkpt>
      <trkpt lat="47.78435" lon="1.98357">
        <ele>111</ele>
        <time>2017-07-30T07:16:08.346Z</time>
      </trkpt>
      <trkpt lat="47.78426" lon="1.98345">
        <ele>111</ele>
        <time>2017-07-30T07:16:09.351Z</time>
      </trkpt>
      <trkpt lat="47.78426" lon="1.98345">
        <ele>111</ele>
        <time>2017-07-30T07:16:10.345Z</time>
      </trkpt>
      <trkpt lat="47.78416" lon="1.98334">
        <ele>111</ele>
        <time>2017-07-30T07:16:11.351Z</time>
      </trkpt>
      <trkpt lat="47.78416" lon="1.98334">
        <ele>111</ele>
        <time>2017-07-30T07:16:12.346Z</time>
      </trkpt>
      <trkpt lat="47.78408" lon="1.98322">
        <ele>112</ele>
        <time>2017-07-30T07:16:13.313Z</time>
      </trkpt>
      <trkpt lat="47.78408" lon="1.98322">
        <ele>112</ele>
        <time>2017-07-30T07:16:14.346Z</time>
      </trkpt>
      <trkpt lat="47.78398" lon="1.98311">
        <ele>112</ele>
        <time>2017-07-30T07:16:15.311Z</time>
      </trkpt>
      <trkpt lat="47.78398" lon="1.98311">
        <ele>112</ele>
        <time>2017-07-30T07:16:16.346Z</time>
      </trkpt>
      <trkpt lat="47.78388" lon="1.983">
        <ele>112</ele>
        <time>2017-07-30T07:16:17.351Z</time>
      </trkpt>
      <trkpt lat="47.78384" lon="1.98295">
        <ele>112</ele>
        <time>2017-07-30T07:16:18.316Z</time>
      </trkpt>
      <trkpt lat="47.78384" lon="1.98295">
        <ele>112</ele>
        <time>2017-07-30T07:16:19.315Z</time>
      </trkpt>
      <trkpt lat="47.78376" lon="1.98285">
        <ele>111</ele>
        <time>2017-07-30T07:16:20.315Z</time>
      </trkpt>
      <trkpt lat="47.78372" lon="1.9828">
        <ele>111</ele>
        <time>2017-07-30T07:16:21.314Z</time>
      </trkpt>
      <trkpt lat="47.78372" lon="1.9828">
        <ele>111</ele>
        <time>2017-07-30T07:16:22.350Z</time>
      </trkpt>
      <trkpt lat="47.78363" lon="1.9827">
        <ele>111</ele>
        <time>2017-07-30T07:16:23.312Z</time>
      </trkpt>
      <trkpt lat="47.78363" lon="1.9827">
        <ele>111</ele>
        <time>2017-07-30T07:16:24.318Z</time>
      </trkpt>
      <trkpt lat="47.78354" lon="1.9826">
        <ele>111</ele>
        <time>2017-07-30T07:16:25.324Z</time>
      </trkpt>
      <trkpt lat="47.78354" lon="1.9826">
        <ele>111</ele>
        <time>2017-07-30T07:16:26.331Z</time>
      </trkpt>
      <trkpt lat="47.78344" lon="1.9825">
        <ele>111</ele>
        <time>2017-07-30T07:16:27.337Z</time>
      </trkpt>
      <trkpt lat="47.78344" lon="1.9825">
        <ele>111</ele>
        <time>2017-07-30T07:16:28.329Z</time>
      </trkpt>
      <trkpt lat="47.78333" lon="1.98241">
        <ele>111</ele>
        <time>2017-07-30T07:16:29.325Z</time>
      </trkpt>
      <trkpt lat="47.78333" lon="1.98241">
        <ele>111</ele>
        <time>2017-07-30T07:16:30.318Z</time>
      </trkpt>
      <trkpt lat="47.78322" lon="1.98231">
        <ele>111</ele>
        <time>2017-07-30T07:16:31.313Z</time>
      </trkpt>
      <trkpt lat="47.78322" lon="1.98231">
        <ele>111</ele>
        <time>2017-07-30T07:16:32.346Z</time>
      </trkpt>
      <trkpt lat="47.78312" lon="1.98223">
        <ele>110</ele>
        <time>2017-07-30T07:16:33.312Z</time>
      </trkpt>
      <trkpt lat="47.78312" lon="1.98223">
        <ele>110</ele>
        <time>2017-07-30T07:16:34.351Z</time>
      </trkpt>
      <trkpt lat="47.78302" lon="1.98214">
        <ele>111</ele>
        <time>2017-07-30T07:16:35.351Z</time>
      </trkpt>
      <trkpt lat="47.78297" lon="1.9821">
        <ele>110</ele>
        <time>2017-07-30T07:16:36.351Z</time>
      </trkpt>
      <trkpt lat="47.78297" lon="1.9821">
        <ele>110</ele>
        <time>2017-07-30T07:16:37.351Z</time>
      </trkpt>
      <trkpt lat="47.78288" lon="1.98202">
        <ele>111</ele>
        <time>2017-07-30T07:16:38.319Z</time>
      </trkpt>
      <trkpt lat="47.78283" lon="1.98198">
        <ele>111</ele>
        <time>2017-07-30T07:16:39.311Z</time>
      </trkpt>
      <trkpt lat="47.78283" lon="1.98198">
        <ele>111</ele>
        <time>2017-07-30T07:16:40.351Z</time>
      </trkpt>
      <trkpt lat="47.78273" lon="1.98189">
        <ele>111</ele>
        <time>2017-07-30T07:16:41.351Z</time>
      </trkpt>
      <trkpt lat="47.78268" lon="1.98185">
        <ele>111</ele>
        <time>2017-07-30T07:16:42.312Z</time>
      </trkpt>
      <trkpt lat="47.78263" lon="1.9818">
        <ele>111</ele>
        <time>2017-07-30T07:16:43.324Z</time>
      </trkpt>
      <trkpt lat="47.78263" lon="1.9818">
        <ele>111</ele>
        <time>2017-07-30T07:16:44.317Z</time>
      </trkpt>
      <trkpt lat="47.78255" lon="1.98169">
        <ele>111</ele>
        <time>2017-07-30T07:16:45.311Z</time>
      </trkpt>
      <trkpt lat="47.78255" lon="1.98169">
        <ele>111</ele>
        <time>2017-07-30T07:16:46.351Z</time>
      </trkpt>
      <trkpt lat="47.78247" lon="1.98158">
        <ele>113</ele>
        <time>2017-07-30T07:16:47.351Z</time>
      </trkpt>
      <trkpt lat="47.78242" lon="1.98153">
        <ele>113</ele>
        <time>2017-07-30T07:16:48.329Z</time>
      </trkpt>
      <trkpt lat="47.78238" lon="1.98146">
        <ele>115</ele>
        <time>2017-07-30T07:16:49.322Z</time>
      </trkpt>
      <trkpt lat="47.78238" lon="1.98146">
        <ele>115</ele>
        <time>2017-07-30T07:16:50.323Z</time>
      </trkpt>
      <trkpt lat="47.7823" lon="1.98133">
        <ele>116</ele>
        <time>2017-07-30T07:16:51.319Z</time>
      </trkpt>
      <trkpt lat="47.7823" lon="1.98133">
        <ele>116</ele>
        <time>2017-07-30T07:16:52.351Z</time>
      </trkpt>
      <trkpt lat="47.78222" lon="1.98121">
        <ele>116</ele>
        <time>2017-07-30T07:16:53.312Z</time>
      </trkpt>
      <trkpt lat="47.78222" lon="1.98121">
        <ele>116</ele>
        <time>2017-07-30T07:16:54.345Z</time>
      </trkpt>
      <trkpt lat="47.78217" lon="1.98108">
        <ele>116</ele>
        <time>2017-07-30T07:16:55.313Z</time>
      </trkpt>
      <trkpt lat="47.78217" lon="1.98108">
        <ele>116</ele>
        <time>2017-07-30T07:16:56.345Z</time>
      </trkpt>
      <trkpt lat="47.78214" lon="1.98095">
        <ele>116</ele>
        <time>2017-07-30T07:16:57.312Z</time>
      </trkpt>
      <trkpt lat="47.78214" lon="1.98095">
        <ele>116</ele>
        <time>2017-07-30T07:16:58.346Z</time>
      </trkpt>
      <trkpt lat="47.78209" lon="1.98082">
        <ele>116</ele>
        <time>2017-07-30T07:16:59.351Z</time>
      </trkpt>
      <trkpt lat="47.78209" lon="1.98082">
        <ele>116</ele>
        <time>2017-07-30T07:17:00.345Z</time>
      </trkpt>
      <trkpt lat="47.78203" lon="1.98068">
        <ele>116</ele>
        <time>2017-07-30T07:17:01.312Z</time>
      </trkpt>
      <trkpt lat="47.78203" lon="1.98068">
        <ele>116</ele>
        <time>2017-07-30T07:17:02.346Z</time>
      </trkpt>
      <trkpt lat="47.78199" lon="1.98054">
        <ele>117</ele>
        <time>2017-07-30T07:17:03.312Z</time>
      </trkpt>
      <trkpt lat="47.78199" lon="1.98054">
        <ele>117</ele>
        <time>2017-07-30T07:17:04.351Z</time>
      </trkpt>
      <trkpt lat="47.78196" lon="1.98043">
        <ele>117</ele>
        <time>2017-07-30T07:17:05.312Z</time>
      </trkpt>
      <trkpt lat="47.78196" lon="1.98043">
        <ele>117</ele>
        <time>2017-07-30T07:17:06.349Z</time>
      </trkpt>
      <trkpt lat="47.78195" lon="1.98033">
        <ele>117</ele>
        <time>2017-07-30T07:17:07.314Z</time>
      </trkpt>
      <trkpt lat="47.78195" lon="1.98033">
        <ele>117</ele>
        <time>2017-07-30T07:17:08.318Z</time>
      </trkpt>
      <trkpt lat="47.78193" lon="1.98025">
        <ele>117</ele>
        <time>2017-07-30T07:17:09.315Z</time>
      </trkpt>
      <trkpt lat="47.78193" lon="1.98025">
        <ele>117</ele>
        <time>2017-07-30T07:17:10.349Z</time>
      </trkpt>
      <trkpt lat="47.78191" lon="1.98018">
        <ele>117</ele>
        <time>2017-07-30T07:17:11.314Z</time>
      </trkpt>
      <trkpt lat="47.78191" lon="1.98018">
        <ele>117</ele>
        <time>2017-07-30T07:17:12.350Z</time>
      </trkpt>
      <trkpt lat="47.7819" lon="1.98014">
        <ele>117</ele>
        <time>2017-07-30T07:17:13.317Z</time>
      </trkpt>
      <trkpt lat="47.7819" lon="1.98014">
        <ele>117</ele>
        <time>2017-07-30T07:17:14.311Z</time>
      </trkpt>
      <trkpt lat="47.78188" lon="1.98012">
        <ele>117</ele>
        <time>2017-07-30T07:17:15.311Z</time>
      </trkpt>
      <trkpt lat="47.78188" lon="1.98012">
        <ele>117</ele>
        <time>2017-07-30T07:17:16.336Z</time>
      </trkpt>
      <trkpt lat="47.78187" lon="1.98011">
        <ele>116</ele>
        <time>2017-07-30T07:17:17.330Z</time>
      </trkpt>
      <trkpt lat="47.78187" lon="1.9801">
        <ele>116</ele>
        <time>2017-07-30T07:17:18.345Z</time>
      </trkpt>
      <trkpt lat="47.78175" lon="1.97991">
        <ele>117</ele>
        <time>2017-07-30T07:17:19.339Z</time>
      </trkpt>
      <trkpt lat="47.78175" lon="1.97988">
        <ele>117</ele>
        <time>2017-07-30T07:17:20.328Z</time>
      </trkpt>
      <trkpt lat="47.78175" lon="1.97988">
        <ele>117</ele>
        <time>2017-07-30T07:17:21.330Z</time>
      </trkpt>
      <trkpt lat="47.78174" lon="1.9798">
        <ele>117</ele>
        <time>2017-07-30T07:17:22.338Z</time>
      </trkpt>
      <trkpt lat="47.78173" lon="1.97976">
        <ele>117</ele>
        <time>2017-07-30T07:17:23.328Z</time>
      </trkpt>
      <trkpt lat="47.78172" lon="1.97971">
        <ele>117</ele>
        <time>2017-07-30T07:17:24.386Z</time>
      </trkpt>
      <trkpt lat="47.78172" lon="1.97971">
        <ele>117</ele>
        <time>2017-07-30T07:17:25.329Z</time>
      </trkpt>
      <trkpt lat="47.78169" lon="1.9796">
        <ele>117</ele>
        <time>2017-07-30T07:17:26.328Z</time>
      </trkpt>
      <trkpt lat="47.78169" lon="1.9796">
        <ele>117</ele>
        <time>2017-07-30T07:17:27.326Z</time>
      </trkpt>
      <trkpt lat="47.78167" lon="1.97949">
        <ele>117</ele>
        <time>2017-07-30T07:17:28.328Z</time>
      </trkpt>
      <trkpt lat="47.78167" lon="1.97949">
        <ele>117</ele>
        <time>2017-07-30T07:17:29.326Z</time>
      </trkpt>
      <trkpt lat="47.78164" lon="1.97938">
        <ele>117</ele>
        <time>2017-07-30T07:17:30.327Z</time>
      </trkpt>
      <trkpt lat="47.78163" lon="1.97932">
        <ele>117</ele>
        <time>2017-07-30T07:17:31.328Z</time>
      </trkpt>
      <trkpt lat="47.78163" lon="1.97932">
        <ele>117</ele>
        <time>2017-07-30T07:17:32.327Z</time>
      </trkpt>
      <trkpt lat="47.7816" lon="1.97921">
        <ele>117</ele>
        <time>2017-07-30T07:17:33.327Z</time>
      </trkpt>
      <trkpt lat="47.7816" lon="1.97921">
        <ele>117</ele>
        <time>2017-07-30T07:17:34.321Z</time>
      </trkpt>
      <trkpt lat="47.78157" lon="1.97911">
        <ele>117</ele>
        <time>2017-07-30T07:17:35.328Z</time>
      </trkpt>
      <trkpt lat="47.78155" lon="1.97906">
        <ele>117</ele>
        <time>2017-07-30T07:17:36.328Z</time>
      </trkpt>
      <trkpt lat="47.78155" lon="1.97906">
        <ele>117</ele>
        <time>2017-07-30T07:17:37.326Z</time>
      </trkpt>
      <trkpt lat="47.7815" lon="1.97895">
        <ele>117</ele>
        <time>2017-07-30T07:17:38.328Z</time>
      </trkpt>
      <trkpt lat="47.78148" lon="1.9789">
        <ele>116</ele>
        <time>2017-07-30T07:17:39.327Z</time>
      </trkpt>
      <trkpt lat="47.78148" lon="1.9789">
        <ele>116</ele>
        <time>2017-07-30T07:17:40.328Z</time>
      </trkpt>
      <trkpt lat="47.78142" lon="1.97879">
        <ele>116</ele>
        <time>2017-07-30T07:17:41.327Z</time>
      </trkpt>
      <trkpt lat="47.78142" lon="1.97879">
        <ele>116</ele>
        <time>2017-07-30T07:17:42.318Z</time>
      </trkpt>
      <trkpt lat="47.78137" lon="1.97867">
        <ele>116</ele>
        <time>2017-07-30T07:17:43.328Z</time>
      </trkpt>
      <trkpt lat="47.78137" lon="1.97867">
        <ele>116</ele>
        <time>2017-07-30T07:17:44.321Z</time>
      </trkpt>
      <trkpt lat="47.78132" lon="1.97856">
        <ele>116</ele>
        <time>2017-07-30T07:17:45.327Z</time>
      </trkpt>
      <trkpt lat="47.78132" lon="1.97856">
        <ele>116</ele>
        <time>2017-07-30T07:17:46.321Z</time>
      </trkpt>
      <trkpt lat="47.78129" lon="1.97845">
        <ele>116</ele>
        <time>2017-07-30T07:17:47.328Z</time>
      </trkpt>
      <trkpt lat="47.78129" lon="1.97845">
        <ele>116</ele>
        <time>2017-07-30T07:17:48.321Z</time>
      </trkpt>
      <trkpt lat="47.78126" lon="1.97833">
        <ele>117</ele>
        <time>2017-07-30T07:17:49.328Z</time>
      </trkpt>
      <trkpt lat="47.78124" lon="1.97828">
        <ele>116</ele>
        <time>2017-07-30T07:17:50.320Z</time>
      </trkpt>
      <trkpt lat="47.78121" lon="1.97822">
        <ele>116</ele>
        <time>2017-07-30T07:17:51.329Z</time>
      </trkpt>
      <trkpt lat="47.78121" lon="1.97822">
        <ele>116</ele>
        <time>2017-07-30T07:17:52.326Z</time>
      </trkpt>
      <trkpt lat="47.78115" lon="1.97808">
        <ele>116</ele>
        <time>2017-07-30T07:17:53.327Z</time>
      </trkpt>
      <trkpt lat="47.78113" lon="1.97801">
        <ele>116</ele>
        <time>2017-07-30T07:17:54.328Z</time>
      </trkpt>
      <trkpt lat="47.78113" lon="1.97801">
        <ele>116</ele>
        <time>2017-07-30T07:17:55.326Z</time>
      </trkpt>
      <trkpt lat="47.78109" lon="1.97788">
        <ele>115</ele>
        <time>2017-07-30T07:17:56.328Z</time>
      </trkpt>
      <trkpt lat="47.78106" lon="1.97781">
        <ele>115</ele>
        <time>2017-07-30T07:17:57.328Z</time>
      </trkpt>
      <trkpt lat="47.78106" lon="1.97781">
        <ele>115</ele>
        <time>2017-07-30T07:17:58.322Z</time>
      </trkpt>
      <trkpt lat="47.78103" lon="1.97768">
        <ele>115</ele>
        <time>2017-07-30T07:17:59.330Z</time>
      </trkpt>
      <trkpt lat="47.781" lon="1.97762">
        <ele>115</ele>
        <time>2017-07-30T07:18:00.330Z</time>
      </trkpt>
      <trkpt lat="47.78098" lon="1.97756">
        <ele>115</ele>
        <time>2017-07-30T07:18:01.334Z</time>
      </trkpt>
      <trkpt lat="47.78098" lon="1.97756">
        <ele>115</ele>
        <time>2017-07-30T07:18:02.332Z</time>
      </trkpt>
      <trkpt lat="47.78093" lon="1.97743">
        <ele>116</ele>
        <time>2017-07-30T07:18:03.334Z</time>
      </trkpt>
      <trkpt lat="47.78093" lon="1.97743">
        <ele>116</ele>
        <time>2017-07-30T07:18:04.325Z</time>
      </trkpt>
      <trkpt lat="47.7809" lon="1.97729">
        <ele>117</ele>
        <time>2017-07-30T07:18:05.331Z</time>
      </trkpt>
      <trkpt lat="47.7809" lon="1.97729">
        <ele>117</ele>
        <time>2017-07-30T07:18:06.325Z</time>
      </trkpt>
      <trkpt lat="47.78087" lon="1.97715">
        <ele>117</ele>
        <time>2017-07-30T07:18:07.328Z</time>
      </trkpt>
      <trkpt lat="47.78087" lon="1.97715">
        <ele>117</ele>
        <time>2017-07-30T07:18:08.321Z</time>
      </trkpt>
      <trkpt lat="47.78083" lon="1.97701">
        <ele>117</ele>
        <time>2017-07-30T07:18:09.327Z</time>
      </trkpt>
      <trkpt lat="47.78083" lon="1.97701">
        <ele>117</ele>
        <time>2017-07-30T07:18:10.321Z</time>
      </trkpt>
      <trkpt lat="47.7808" lon="1.97689">
        <ele>117</ele>
        <time>2017-07-30T07:18:11.327Z</time>
      </trkpt>
      <trkpt lat="47.7808" lon="1.97689">
        <ele>117</ele>
        <time>2017-07-30T07:18:12.322Z</time>
      </trkpt>
      <trkpt lat="47.78077" lon="1.97676">
        <ele>117</ele>
        <time>2017-07-30T07:18:13.328Z</time>
      </trkpt>
      <trkpt lat="47.78077" lon="1.97676">
        <ele>117</ele>
        <time>2017-07-30T07:18:14.322Z</time>
      </trkpt>
      <trkpt lat="47.78074" lon="1.97664">
        <ele>117</ele>
        <time>2017-07-30T07:18:15.327Z</time>
      </trkpt>
      <trkpt lat="47.78074" lon="1.97664">
        <ele>117</ele>
        <time>2017-07-30T07:18:16.333Z</time>
      </trkpt>
      <trkpt lat="47.7807" lon="1.97651">
        <ele>117</ele>
        <time>2017-07-30T07:18:17.327Z</time>
      </trkpt>
      <trkpt lat="47.78068" lon="1.97645">
        <ele>117</ele>
        <time>2017-07-30T07:18:18.328Z</time>
      </trkpt>
      <trkpt lat="47.78068" lon="1.97645">
        <ele>117</ele>
        <time>2017-07-30T07:18:19.326Z</time>
      </trkpt>
      <trkpt lat="47.78064" lon="1.97631">
        <ele>117</ele>
        <time>2017-07-30T07:18:20.327Z</time>
      </trkpt>
      <trkpt lat="47.78062" lon="1.97625">
        <ele>117</ele>
        <time>2017-07-30T07:18:21.328Z</time>
      </trkpt>
      <trkpt lat="47.78062" lon="1.97625">
        <ele>117</ele>
        <time>2017-07-30T07:18:22.343Z</time>
      </trkpt>
      <trkpt lat="47.78059" lon="1.97612">
        <ele>118</ele>
        <time>2017-07-30T07:18:23.332Z</time>
      </trkpt>
      <trkpt lat="47.78056" lon="1.97604">
        <ele>118</ele>
        <time>2017-07-30T07:18:24.390Z</time>
      </trkpt>
      <trkpt lat="47.78056" lon="1.97604">
        <ele>118</ele>
        <time>2017-07-30T07:18:25.326Z</time>
      </trkpt>
      <trkpt lat="47.78051" lon="1.97591">
        <ele>119</ele>
        <time>2017-07-30T07:18:26.328Z</time>
      </trkpt>
      <trkpt lat="47.78048" lon="1.97586">
        <ele>120</ele>
        <time>2017-07-30T07:18:27.329Z</time>
      </trkpt>
      <trkpt lat="47.78048" lon="1.97586">
        <ele>120</ele>
        <time>2017-07-30T07:18:28.326Z</time>
      </trkpt>
      <trkpt lat="47.78042" lon="1.97574">
        <ele>120</ele>
        <time>2017-07-30T07:18:29.328Z</time>
      </trkpt>
      <trkpt lat="47.78042" lon="1.97574">
        <ele>120</ele>
        <time>2017-07-30T07:18:30.326Z</time>
      </trkpt>
      <trkpt lat="47.78036" lon="1.97563">
        <ele>121</ele>
        <time>2017-07-30T07:18:31.329Z</time>
      </trkpt>
      <trkpt lat="47.78036" lon="1.97563">
        <ele>121</ele>
        <time>2017-07-30T07:18:32.340Z</time>
      </trkpt>
      <trkpt lat="47.78029" lon="1.97552">
        <ele>121</ele>
        <time>2017-07-30T07:18:33.328Z</time>
      </trkpt>
      <trkpt lat="47.78025" lon="1.97546">
        <ele>120</ele>
        <time>2017-07-30T07:18:34.329Z</time>
      </trkpt>
      <trkpt lat="47.78025" lon="1.97546">
        <ele>120</ele>
        <time>2017-07-30T07:18:35.326Z</time>
      </trkpt>
      <trkpt lat="47.78019" lon="1.97534">
        <ele>120</ele>
        <time>2017-07-30T07:18:36.335Z</time>
      </trkpt>
      <trkpt lat="47.78015" lon="1.97529">
        <ele>120</ele>
        <time>2017-07-30T07:18:37.341Z</time>
      </trkpt>
      <trkpt lat="47.78015" lon="1.97529">
        <ele>120</ele>
        <time>2017-07-30T07:18:38.347Z</time>
      </trkpt>
      <trkpt lat="47.78009" lon="1.97517">
        <ele>119</ele>
        <time>2017-07-30T07:18:39.337Z</time>
      </trkpt>
      <trkpt lat="47.78006" lon="1.9751">
        <ele>118</ele>
        <time>2017-07-30T07:18:40.328Z</time>
      </trkpt>
      <trkpt lat="47.78006" lon="1.9751">
        <ele>118</ele>
        <time>2017-07-30T07:18:41.321Z</time>
      </trkpt>
      <trkpt lat="47.78001" lon="1.97498">
        <ele>118</ele>
        <time>2017-07-30T07:18:42.332Z</time>
      </trkpt>
      <trkpt lat="47.78001" lon="1.97498">
        <ele>118</ele>
        <time>2017-07-30T07:18:43.327Z</time>
      </trkpt>
      <trkpt lat="47.77996" lon="1.97486">
        <ele>117</ele>
        <time>2017-07-30T07:18:44.329Z</time>
      </trkpt>
      <trkpt lat="47.77996" lon="1.97486">
        <ele>117</ele>
        <time>2017-07-30T07:18:45.326Z</time>
      </trkpt>
      <trkpt lat="47.77991" lon="1.97472">
        <ele>116</ele>
        <time>2017-07-30T07:18:46.327Z</time>
      </trkpt>
      <trkpt lat="47.77991" lon="1.97472">
        <ele>116</ele>
        <time>2017-07-30T07:18:47.326Z</time>
      </trkpt>
      <trkpt lat="47.77985" lon="1.97458">
        <ele>115</ele>
        <time>2017-07-30T07:18:48.328Z</time>
      </trkpt>
      <trkpt lat="47.77983" lon="1.97451">
        <ele>115</ele>
        <time>2017-07-30T07:18:49.332Z</time>
      </trkpt>
      <trkpt lat="47.7798" lon="1.97445">
        <ele>114</ele>
        <time>2017-07-30T07:18:50.329Z</time>
      </trkpt>
      <trkpt lat="47.77977" lon="1.97438">
        <ele>114</ele>
        <time>2017-07-30T07:18:51.331Z</time>
      </trkpt>
      <trkpt lat="47.77977" lon="1.97438">
        <ele>114</ele>
        <time>2017-07-30T07:18:52.334Z</time>
      </trkpt>
      <trkpt lat="47.77969" lon="1.97424">
        <ele>113</ele>
        <time>2017-07-30T07:18:53.329Z</time>
      </trkpt>
      <trkpt lat="47.77969" lon="1.97424">
        <ele>113</ele>
        <time>2017-07-30T07:18:54.325Z</time>
      </trkpt>
      <trkpt lat="47.77961" lon="1.97411">
        <ele>113</ele>
        <time>2017-07-30T07:18:55.332Z</time>
      </trkpt>
      <trkpt lat="47.77961" lon="1.97411">
        <ele>113</ele>
        <time>2017-07-30T07:18:56.321Z</time>
      </trkpt>
      <trkpt lat="47.77954" lon="1.97399">
        <ele>112</ele>
        <time>2017-07-30T07:18:57.329Z</time>
      </trkpt>
      <trkpt lat="47.77954" lon="1.97399">
        <ele>112</ele>
        <time>2017-07-30T07:18:58.326Z</time>
      </trkpt>
      <trkpt lat="47.77948" lon="1.97387">
        <ele>111</ele>
        <time>2017-07-30T07:18:59.327Z</time>
      </trkpt>
      <trkpt lat="47.77948" lon="1.97387">
        <ele>111</ele>
        <time>2017-07-30T07:19:00.321Z</time>
      </trkpt>
      <trkpt lat="47.77942" lon="1.97375">
        <ele>110</ele>
        <time>2017-07-30T07:19:01.328Z</time>
      </trkpt>
      <trkpt lat="47.77939" lon="1.97369">
        <ele>110</ele>
        <time>2017-07-30T07:19:02.333Z</time>
      </trkpt>
      <trkpt lat="47.77939" lon="1.97369">
        <ele>110</ele>
        <time>2017-07-30T07:19:03.326Z</time>
      </trkpt>
      <trkpt lat="47.77935" lon="1.97357">
        <ele>109</ele>
        <time>2017-07-30T07:19:04.328Z</time>
      </trkpt>
      <trkpt lat="47.77933" lon="1.97352">
        <ele>109</ele>
        <time>2017-07-30T07:19:05.326Z</time>
      </trkpt>
      <trkpt lat="47.77933" lon="1.97352">
        <ele>109</ele>
        <time>2017-07-30T07:19:06.328Z</time>
      </trkpt>
      <trkpt lat="47.77928" lon="1.9734">
        <ele>108</ele>
        <time>2017-07-30T07:19:07.330Z</time>
      </trkpt>
      <trkpt lat="47.77928" lon="1.9734">
        <ele>108</ele>
        <time>2017-07-30T07:19:08.326Z</time>
      </trkpt>
      <trkpt lat="47.77924" lon="1.97327">
        <ele>108</ele>
        <time>2017-07-30T07:19:09.328Z</time>
      </trkpt>
      <trkpt lat="47.77924" lon="1.97327">
        <ele>108</ele>
        <time>2017-07-30T07:19:10.326Z</time>
      </trkpt>
      <trkpt lat="47.77918" lon="1.97313">
        <ele>108</ele>
        <time>2017-07-30T07:19:11.327Z</time>
      </trkpt>
      <trkpt lat="47.77915" lon="1.97306">
        <ele>108</ele>
        <time>2017-07-30T07:19:12.334Z</time>
      </trkpt>
      <trkpt lat="47.77915" lon="1.97306">
        <ele>108</ele>
        <time>2017-07-30T07:19:13.327Z</time>
      </trkpt>
      <trkpt lat="47.77909" lon="1.97293">
        <ele>108</ele>
        <time>2017-07-30T07:19:14.327Z</time>
      </trkpt>
      <trkpt lat="47.77906" lon="1.97286">
        <ele>108</ele>
        <time>2017-07-30T07:19:15.328Z</time>
      </trkpt>
      <trkpt lat="47.77906" lon="1.97286">
        <ele>108</ele>
        <time>2017-07-30T07:19:16.321Z</time>
      </trkpt>
      <trkpt lat="47.77901" lon="1.97272">
        <ele>109</ele>
        <time>2017-07-30T07:19:17.327Z</time>
      </trkpt>
      <trkpt lat="47.77901" lon="1.97272">
        <ele>109</ele>
        <time>2017-07-30T07:19:18.321Z</time>
      </trkpt>
      <trkpt lat="47.77896" lon="1.97258">
        <ele>110</ele>
        <time>2017-07-30T07:19:19.329Z</time>
      </trkpt>
      <trkpt lat="47.77896" lon="1.97258">
        <ele>110</ele>
        <time>2017-07-30T07:19:20.326Z</time>
      </trkpt>
      <trkpt lat="47.77892" lon="1.97245">
        <ele>111</ele>
        <time>2017-07-30T07:19:21.328Z</time>
      </trkpt>
      <trkpt lat="47.77892" lon="1.97245">
        <ele>111</ele>
        <time>2017-07-30T07:19:22.321Z</time>
      </trkpt>
      <trkpt lat="47.77889" lon="1.97231">
        <ele>112</ele>
        <time>2017-07-30T07:19:23.327Z</time>
      </trkpt>
      <trkpt lat="47.77889" lon="1.97231">
        <ele>112</ele>
        <time>2017-07-30T07:19:24.324Z</time>
      </trkpt>
      <trkpt lat="47.77886" lon="1.97218">
        <ele>113</ele>
        <time>2017-07-30T07:19:25.327Z</time>
      </trkpt>
      <trkpt lat="47.77884" lon="1.97212">
        <ele>114</ele>
        <time>2017-07-30T07:19:26.333Z</time>
      </trkpt>
      <trkpt lat="47.77884" lon="1.97212">
        <ele>114</ele>
        <time>2017-07-30T07:19:27.339Z</time>
      </trkpt>
      <trkpt lat="47.77881" lon="1.97198">
        <ele>115</ele>
        <time>2017-07-30T07:19:28.314Z</time>
      </trkpt>
      <trkpt lat="47.77879" lon="1.97192">
        <ele>115</ele>
        <time>2017-07-30T07:19:29.327Z</time>
      </trkpt>
      <trkpt lat="47.77879" lon="1.97192">
        <ele>115</ele>
        <time>2017-07-30T07:19:30.326Z</time>
      </trkpt>
      <trkpt lat="47.77875" lon="1.97177">
        <ele>116</ele>
        <time>2017-07-30T07:19:31.329Z</time>
      </trkpt>
      <trkpt lat="47.77875" lon="1.97177">
        <ele>116</ele>
        <time>2017-07-30T07:19:32.332Z</time>
      </trkpt>
      <trkpt lat="47.77871" lon="1.97163">
        <ele>117</ele>
        <time>2017-07-30T07:19:33.326Z</time>
      </trkpt>
      <trkpt lat="47.7787" lon="1.97156">
        <ele>117</ele>
        <time>2017-07-30T07:19:34.329Z</time>
      </trkpt>
      <trkpt lat="47.7787" lon="1.97156">
        <ele>117</ele>
        <time>2017-07-30T07:19:35.321Z</time>
      </trkpt>
      <trkpt lat="47.77867" lon="1.97142">
        <ele>116</ele>
        <time>2017-07-30T07:19:36.328Z</time>
      </trkpt>
      <trkpt lat="47.77867" lon="1.97142">
        <ele>116</ele>
        <time>2017-07-30T07:19:37.327Z</time>
      </trkpt>
      <trkpt lat="47.77864" lon="1.97128">
        <ele>116</ele>
        <time>2017-07-30T07:19:38.327Z</time>
      </trkpt>
      <trkpt lat="47.77862" lon="1.97121">
        <ele>116</ele>
        <time>2017-07-30T07:19:39.328Z</time>
      </trkpt>
      <trkpt lat="47.77861" lon="1.97114">
        <ele>116</ele>
        <time>2017-07-30T07:19:40.331Z</time>
      </trkpt>
      <trkpt lat="47.77861" lon="1.97114">
        <ele>116</ele>
        <time>2017-07-30T07:19:41.328Z</time>
      </trkpt>
      <trkpt lat="47.77858" lon="1.971">
        <ele>116</ele>
        <time>2017-07-30T07:19:42.335Z</time>
      </trkpt>
      <trkpt lat="47.77857" lon="1.97093">
        <ele>116</ele>
        <time>2017-07-30T07:19:43.311Z</time>
      </trkpt>
      <trkpt lat="47.77857" lon="1.97093">
        <ele>116</ele>
        <time>2017-07-30T07:19:44.340Z</time>
      </trkpt>
      <trkpt lat="47.77855" lon="1.97078">
        <ele>116</ele>
        <time>2017-07-30T07:19:45.331Z</time>
      </trkpt>
      <trkpt lat="47.77855" lon="1.97078">
        <ele>116</ele>
        <time>2017-07-30T07:19:46.326Z</time>
      </trkpt>
      <trkpt lat="47.77853" lon="1.97063">
        <ele>116</ele>
        <time>2017-07-30T07:19:47.331Z</time>
      </trkpt>
      <trkpt lat="47.77853" lon="1.97063">
        <ele>116</ele>
        <time>2017-07-30T07:19:48.321Z</time>
      </trkpt>
      <trkpt lat="47.7785" lon="1.97047">
        <ele>117</ele>
        <time>2017-07-30T07:19:49.329Z</time>
      </trkpt>
      <trkpt lat="47.7785" lon="1.97047">
        <ele>117</ele>
        <time>2017-07-30T07:19:50.345Z</time>
      </trkpt>
      <trkpt lat="47.77848" lon="1.97031">
        <ele>119</ele>
        <time>2017-07-30T07:19:51.336Z</time>
      </trkpt>
      <trkpt lat="47.77848" lon="1.97031">
        <ele>119</ele>
        <time>2017-07-30T07:19:52.333Z</time>
      </trkpt>
      <trkpt lat="47.77846" lon="1.97015">
        <ele>120</ele>
        <time>2017-07-30T07:19:53.327Z</time>
      </trkpt>
      <trkpt lat="47.77845" lon="1.97008">
        <ele>120</ele>
        <time>2017-07-30T07:19:54.329Z</time>
      </trkpt>
      <trkpt lat="47.77843" lon="1.96999">
        <ele>120</ele>
        <time>2017-07-30T07:19:55.328Z</time>
      </trkpt>
      <trkpt lat="47.77843" lon="1.96999">
        <ele>120</ele>
        <time>2017-07-30T07:19:56.326Z</time>
      </trkpt>
      <trkpt lat="47.77841" lon="1.96984">
        <ele>120</ele>
        <time>2017-07-30T07:19:57.329Z</time>
      </trkpt>
      <trkpt lat="47.7784" lon="1.96976">
        <ele>120</ele>
        <time>2017-07-30T07:19:58.328Z</time>
      </trkpt>
      <trkpt lat="47.7784" lon="1.96976">
        <ele>120</ele>
        <time>2017-07-30T07:19:59.321Z</time>
      </trkpt>
      <trkpt lat="47.77837" lon="1.9696">
        <ele>120</ele>
        <time>2017-07-30T07:20:00.327Z</time>
      </trkpt>
      <trkpt lat="47.77836" lon="1.96952">
        <ele>119</ele>
        <time>2017-07-30T07:20:01.328Z</time>
      </trkpt>
      <trkpt lat="47.77836" lon="1.96952">
        <ele>119</ele>
        <time>2017-07-30T07:20:02.327Z</time>
      </trkpt>
      <trkpt lat="47.77833" lon="1.96936">
        <ele>119</ele>
        <time>2017-07-30T07:20:03.328Z</time>
      </trkpt>
      <trkpt lat="47.77833" lon="1.96936">
        <ele>119</ele>
        <time>2017-07-30T07:20:04.326Z</time>
      </trkpt>
      <trkpt lat="47.77831" lon="1.9692">
        <ele>119</ele>
        <time>2017-07-30T07:20:05.327Z</time>
      </trkpt>
      <trkpt lat="47.7783" lon="1.96912">
        <ele>120</ele>
        <time>2017-07-30T07:20:06.327Z</time>
      </trkpt>
      <trkpt lat="47.77829" lon="1.96904">
        <ele>120</ele>
        <time>2017-07-30T07:20:07.329Z</time>
      </trkpt>
      <trkpt lat="47.77829" lon="1.96904">
        <ele>120</ele>
        <time>2017-07-30T07:20:08.321Z</time>
      </trkpt>
      <trkpt lat="47.77827" lon="1.96888">
        <ele>120</ele>
        <time>2017-07-30T07:20:09.329Z</time>
      </trkpt>
      <trkpt lat="47.77827" lon="1.96888">
        <ele>120</ele>
        <time>2017-07-30T07:20:10.321Z</time>
      </trkpt>
      <trkpt lat="47.77825" lon="1.96873">
        <ele>120</ele>
        <time>2017-07-30T07:20:11.329Z</time>
      </trkpt>
      <trkpt lat="47.77825" lon="1.96873">
        <ele>120</ele>
        <time>2017-07-30T07:20:12.322Z</time>
      </trkpt>
      <trkpt lat="47.77823" lon="1.96857">
        <ele>120</ele>
        <time>2017-07-30T07:20:13.328Z</time>
      </trkpt>
      <trkpt lat="47.77823" lon="1.96857">
        <ele>120</ele>
        <time>2017-07-30T07:20:14.321Z</time>
      </trkpt>
      <trkpt lat="47.7782" lon="1.96842">
        <ele>119</ele>
        <time>2017-07-30T07:20:15.328Z</time>
      </trkpt>
      <trkpt lat="47.7782" lon="1.96842">
        <ele>119</ele>
        <time>2017-07-30T07:20:16.343Z</time>
      </trkpt>
      <trkpt lat="47.77814" lon="1.96831">
        <ele>119</ele>
        <time>2017-07-30T07:20:17.334Z</time>
      </trkpt>
      <trkpt lat="47.77814" lon="1.96831">
        <ele>119</ele>
        <time>2017-07-30T07:20:18.327Z</time>
      </trkpt>
      <trkpt lat="47.77806" lon="1.96825">
        <ele>120</ele>
        <time>2017-07-30T07:20:19.328Z</time>
      </trkpt>
      <trkpt lat="47.77806" lon="1.96825">
        <ele>120</ele>
        <time>2017-07-30T07:20:20.326Z</time>
      </trkpt>
      <trkpt lat="47.77797" lon="1.96821">
        <ele>120</ele>
        <time>2017-07-30T07:20:21.328Z</time>
      </trkpt>
      <trkpt lat="47.77797" lon="1.96821">
        <ele>120</ele>
        <time>2017-07-30T07:20:22.332Z</time>
      </trkpt>
      <trkpt lat="47.77787" lon="1.96817">
        <ele>120</ele>
        <time>2017-07-30T07:20:23.327Z</time>
      </trkpt>
      <trkpt lat="47.77783" lon="1.96815">
        <ele>119</ele>
        <time>2017-07-30T07:20:24.393Z</time>
      </trkpt>
      <trkpt lat="47.77783" lon="1.96815">
        <ele>119</ele>
        <time>2017-07-30T07:20:25.321Z</time>
      </trkpt>
      <trkpt lat="47.77773" lon="1.96812">
        <ele>119</ele>
        <time>2017-07-30T07:20:26.329Z</time>
      </trkpt>
      <trkpt lat="47.77768" lon="1.9681">
        <ele>119</ele>
        <time>2017-07-30T07:20:27.328Z</time>
      </trkpt>
      <trkpt lat="47.77768" lon="1.9681">
        <ele>119</ele>
        <time>2017-07-30T07:20:28.327Z</time>
      </trkpt>
      <trkpt lat="47.77758" lon="1.96806">
        <ele>120</ele>
        <time>2017-07-30T07:20:29.332Z</time>
      </trkpt>
      <trkpt lat="47.77758" lon="1.96806">
        <ele>120</ele>
        <time>2017-07-30T07:20:30.326Z</time>
      </trkpt>
      <trkpt lat="47.77748" lon="1.96802">
        <ele>120</ele>
        <time>2017-07-30T07:20:31.334Z</time>
      </trkpt>
      <trkpt lat="47.77748" lon="1.96802">
        <ele>120</ele>
        <time>2017-07-30T07:20:32.333Z</time>
      </trkpt>
      <trkpt lat="47.77737" lon="1.96799">
        <ele>120</ele>
        <time>2017-07-30T07:20:33.331Z</time>
      </trkpt>
      <trkpt lat="47.77737" lon="1.96799">
        <ele>120</ele>
        <time>2017-07-30T07:20:34.334Z</time>
      </trkpt>
      <trkpt lat="47.77727" lon="1.96796">
        <ele>120</ele>
        <time>2017-07-30T07:20:35.331Z</time>
      </trkpt>
      <trkpt lat="47.77722" lon="1.96794">
        <ele>120</ele>
        <time>2017-07-30T07:20:36.334Z</time>
      </trkpt>
      <trkpt lat="47.77717" lon="1.96792">
        <ele>120</ele>
        <time>2017-07-30T07:20:37.334Z</time>
      </trkpt>
      <trkpt lat="47.77717" lon="1.96792">
        <ele>120</ele>
        <time>2017-07-30T07:20:38.327Z</time>
      </trkpt>
      <trkpt lat="47.77707" lon="1.9679">
        <ele>120</ele>
        <time>2017-07-30T07:20:39.328Z</time>
      </trkpt>
      <trkpt lat="47.77707" lon="1.9679">
        <ele>120</ele>
        <time>2017-07-30T07:20:40.321Z</time>
      </trkpt>
      <trkpt lat="47.77697" lon="1.96786">
        <ele>120</ele>
        <time>2017-07-30T07:20:41.328Z</time>
      </trkpt>
      <trkpt lat="47.77697" lon="1.96786">
        <ele>120</ele>
        <time>2017-07-30T07:20:42.327Z</time>
      </trkpt>
      <trkpt lat="47.77686" lon="1.96782">
        <ele>120</ele>
        <time>2017-07-30T07:20:43.328Z</time>
      </trkpt>
      <trkpt lat="47.77686" lon="1.96782">
        <ele>120</ele>
        <time>2017-07-30T07:20:44.322Z</time>
      </trkpt>
      <trkpt lat="47.77675" lon="1.96779">
        <ele>121</ele>
        <time>2017-07-30T07:20:45.328Z</time>
      </trkpt>
      <trkpt lat="47.77675" lon="1.96779">
        <ele>121</ele>
        <time>2017-07-30T07:20:46.327Z</time>
      </trkpt>
      <trkpt lat="47.77665" lon="1.96774">
        <ele>121</ele>
        <time>2017-07-30T07:20:47.327Z</time>
      </trkpt>
      <trkpt lat="47.77665" lon="1.96774">
        <ele>121</ele>
        <time>2017-07-30T07:20:48.322Z</time>
      </trkpt>
      <trkpt lat="47.77654" lon="1.96771">
        <ele>121</ele>
        <time>2017-07-30T07:20:49.328Z</time>
      </trkpt>
      <trkpt lat="47.77654" lon="1.96771">
        <ele>121</ele>
        <time>2017-07-30T07:20:50.342Z</time>
      </trkpt>
      <trkpt lat="47.77643" lon="1.96767">
        <ele>120</ele>
        <time>2017-07-30T07:20:51.330Z</time>
      </trkpt>
      <trkpt lat="47.77643" lon="1.96767">
        <ele>120</ele>
        <time>2017-07-30T07:20:52.327Z</time>
      </trkpt>
      <trkpt lat="47.77632" lon="1.96764">
        <ele>121</ele>
        <time>2017-07-30T07:20:53.329Z</time>
      </trkpt>
      <trkpt lat="47.77632" lon="1.96764">
        <ele>121</ele>
        <time>2017-07-30T07:20:54.322Z</time>
      </trkpt>
      <trkpt lat="47.77621" lon="1.9676">
        <ele>121</ele>
        <time>2017-07-30T07:20:55.328Z</time>
      </trkpt>
      <trkpt lat="47.77621" lon="1.9676">
        <ele>121</ele>
        <time>2017-07-30T07:20:56.321Z</time>
      </trkpt>
      <trkpt lat="47.7761" lon="1.96757">
        <ele>120</ele>
        <time>2017-07-30T07:20:57.334Z</time>
      </trkpt>
      <trkpt lat="47.7761" lon="1.96757">
        <ele>120</ele>
        <time>2017-07-30T07:20:58.327Z</time>
      </trkpt>
      <trkpt lat="47.77598" lon="1.96752">
        <ele>120</ele>
        <time>2017-07-30T07:20:59.328Z</time>
      </trkpt>
      <trkpt lat="47.77598" lon="1.96752">
        <ele>120</ele>
        <time>2017-07-30T07:21:00.327Z</time>
      </trkpt>
      <trkpt lat="47.77586" lon="1.96747">
        <ele>120</ele>
        <time>2017-07-30T07:21:01.328Z</time>
      </trkpt>
      <trkpt lat="47.77586" lon="1.96747">
        <ele>120</ele>
        <time>2017-07-30T07:21:02.322Z</time>
      </trkpt>
      <trkpt lat="47.77575" lon="1.96743">
        <ele>120</ele>
        <time>2017-07-30T07:21:03.328Z</time>
      </trkpt>
      <trkpt lat="47.77575" lon="1.96743">
        <ele>120</ele>
        <time>2017-07-30T07:21:04.322Z</time>
      </trkpt>
      <trkpt lat="47.77564" lon="1.96739">
        <ele>120</ele>
        <time>2017-07-30T07:21:05.328Z</time>
      </trkpt>
      <trkpt lat="47.77558" lon="1.96736">
        <ele>120</ele>
        <time>2017-07-30T07:21:06.329Z</time>
      </trkpt>
      <trkpt lat="47.77558" lon="1.96736">
        <ele>120</ele>
        <time>2017-07-30T07:21:07.328Z</time>
      </trkpt>
      <trkpt lat="47.77547" lon="1.96732">
        <ele>120</ele>
        <time>2017-07-30T07:21:08.328Z</time>
      </trkpt>
      <trkpt lat="47.77541" lon="1.9673">
        <ele>120</ele>
        <time>2017-07-30T07:21:09.328Z</time>
      </trkpt>
      <trkpt lat="47.77535" lon="1.96728">
        <ele>119</ele>
        <time>2017-07-30T07:21:10.328Z</time>
      </trkpt>
      <trkpt lat="47.77535" lon="1.96728">
        <ele>119</ele>
        <time>2017-07-30T07:21:11.327Z</time>
      </trkpt>
      <trkpt lat="47.77524" lon="1.96724">
        <ele>120</ele>
        <time>2017-07-30T07:21:12.334Z</time>
      </trkpt>
      <trkpt lat="47.77524" lon="1.96724">
        <ele>120</ele>
        <time>2017-07-30T07:21:13.328Z</time>
      </trkpt>
      <trkpt lat="47.77513" lon="1.96719">
        <ele>119</ele>
        <time>2017-07-30T07:21:14.327Z</time>
      </trkpt>
      <trkpt lat="47.77507" lon="1.96717">
        <ele>119</ele>
        <time>2017-07-30T07:21:15.328Z</time>
      </trkpt>
      <trkpt lat="47.77507" lon="1.96717">
        <ele>119</ele>
        <time>2017-07-30T07:21:16.313Z</time>
      </trkpt>
      <trkpt lat="47.77496" lon="1.96712">
        <ele>119</ele>
        <time>2017-07-30T07:21:17.348Z</time>
      </trkpt>
      <trkpt lat="47.77496" lon="1.96712">
        <ele>119</ele>
        <time>2017-07-30T07:21:18.337Z</time>
      </trkpt>
      <trkpt lat="47.77484" lon="1.96708">
        <ele>119</ele>
        <time>2017-07-30T07:21:19.328Z</time>
      </trkpt>
      <trkpt lat="47.77484" lon="1.96708">
        <ele>119</ele>
        <time>2017-07-30T07:21:20.326Z</time>
      </trkpt>
      <trkpt lat="47.77472" lon="1.96704">
        <ele>118</ele>
        <time>2017-07-30T07:21:21.338Z</time>
      </trkpt>
      <trkpt lat="47.77472" lon="1.96704">
        <ele>118</ele>
        <time>2017-07-30T07:21:22.333Z</time>
      </trkpt>
      <trkpt lat="47.77459" lon="1.96699">
        <ele>118</ele>
        <time>2017-07-30T07:21:23.337Z</time>
      </trkpt>
      <trkpt lat="47.77459" lon="1.96699">
        <ele>118</ele>
        <time>2017-07-30T07:21:24.350Z</time>
      </trkpt>
      <trkpt lat="47.77445" lon="1.96694">
        <ele>118</ele>
        <time>2017-07-30T07:21:25.322Z</time>
      </trkpt>
      <trkpt lat="47.77445" lon="1.96694">
        <ele>118</ele>
        <time>2017-07-30T07:21:26.329Z</time>
      </trkpt>
      <trkpt lat="47.7743" lon="1.96689">
        <ele>118</ele>
        <time>2017-07-30T07:21:27.335Z</time>
      </trkpt>
      <trkpt lat="47.7743" lon="1.96689">
        <ele>118</ele>
        <time>2017-07-30T07:21:28.327Z</time>
      </trkpt>
      <trkpt lat="47.77415" lon="1.96683">
        <ele>119</ele>
        <time>2017-07-30T07:21:29.328Z</time>
      </trkpt>
      <trkpt lat="47.77415" lon="1.96683">
        <ele>119</ele>
        <time>2017-07-30T07:21:30.327Z</time>
      </trkpt>
      <trkpt lat="47.77402" lon="1.96678">
        <ele>120</ele>
        <time>2017-07-30T07:21:31.329Z</time>
      </trkpt>
      <trkpt lat="47.77396" lon="1.96676">
        <ele>120</ele>
        <time>2017-07-30T07:21:32.335Z</time>
      </trkpt>
      <trkpt lat="47.77396" lon="1.96676">
        <ele>120</ele>
        <time>2017-07-30T07:21:33.327Z</time>
      </trkpt>
      <trkpt lat="47.77384" lon="1.96671">
        <ele>121</ele>
        <time>2017-07-30T07:21:34.328Z</time>
      </trkpt>
      <trkpt lat="47.77384" lon="1.96671">
        <ele>121</ele>
        <time>2017-07-30T07:21:35.322Z</time>
      </trkpt>
      <trkpt lat="47.77372" lon="1.96667">
        <ele>121</ele>
        <time>2017-07-30T07:21:36.328Z</time>
      </trkpt>
      <trkpt lat="47.77366" lon="1.96664">
        <ele>121</ele>
        <time>2017-07-30T07:21:37.334Z</time>
      </trkpt>
      <trkpt lat="47.77366" lon="1.96664">
        <ele>121</ele>
        <time>2017-07-30T07:21:38.327Z</time>
      </trkpt>
      <trkpt lat="47.77355" lon="1.9666">
        <ele>121</ele>
        <time>2017-07-30T07:21:39.331Z</time>
      </trkpt>
      <trkpt lat="47.77355" lon="1.9666">
        <ele>121</ele>
        <time>2017-07-30T07:21:40.327Z</time>
      </trkpt>
      <trkpt lat="47.77342" lon="1.96655">
        <ele>121</ele>
        <time>2017-07-30T07:21:41.327Z</time>
      </trkpt>
      <trkpt lat="47.77342" lon="1.96655">
        <ele>121</ele>
        <time>2017-07-30T07:21:42.333Z</time>
      </trkpt>
      <trkpt lat="47.77331" lon="1.96651">
        <ele>121</ele>
        <time>2017-07-30T07:21:43.331Z</time>
      </trkpt>
      <trkpt lat="47.77331" lon="1.96651">
        <ele>121</ele>
        <time>2017-07-30T07:21:44.326Z</time>
      </trkpt>
      <trkpt lat="47.7732" lon="1.96647">
        <ele>121</ele>
        <time>2017-07-30T07:21:45.327Z</time>
      </trkpt>
      <trkpt lat="47.7732" lon="1.96647">
        <ele>121</ele>
        <time>2017-07-30T07:21:46.322Z</time>
      </trkpt>
      <trkpt lat="47.77309" lon="1.96643">
        <ele>122</ele>
        <time>2017-07-30T07:21:47.329Z</time>
      </trkpt>
      <trkpt lat="47.77309" lon="1.96643">
        <ele>122</ele>
        <time>2017-07-30T07:21:48.322Z</time>
      </trkpt>
      <trkpt lat="47.77297" lon="1.96639">
        <ele>122</ele>
        <time>2017-07-30T07:21:49.334Z</time>
      </trkpt>
      <trkpt lat="47.77297" lon="1.96639">
        <ele>122</ele>
        <time>2017-07-30T07:21:50.327Z</time>
      </trkpt>
      <trkpt lat="47.77286" lon="1.96634">
        <ele>122</ele>
        <time>2017-07-30T07:21:51.329Z</time>
      </trkpt>
      <trkpt lat="47.77286" lon="1.96634">
        <ele>122</ele>
        <time>2017-07-30T07:21:52.327Z</time>
      </trkpt>
      <trkpt lat="47.77275" lon="1.9663">
        <ele>122</ele>
        <time>2017-07-30T07:21:53.328Z</time>
      </trkpt>
      <trkpt lat="47.77275" lon="1.9663">
        <ele>122</ele>
        <time>2017-07-30T07:21:54.327Z</time>
      </trkpt>
      <trkpt lat="47.77265" lon="1.96626">
        <ele>122</ele>
        <time>2017-07-30T07:21:55.329Z</time>
      </trkpt>
      <trkpt lat="47.77259" lon="1.96624">
        <ele>122</ele>
        <time>2017-07-30T07:21:56.329Z</time>
      </trkpt>
      <trkpt lat="47.77254" lon="1.96622">
        <ele>122</ele>
        <time>2017-07-30T07:21:57.329Z</time>
      </trkpt>
      <trkpt lat="47.77254" lon="1.96622">
        <ele>122</ele>
        <time>2017-07-30T07:21:58.327Z</time>
      </trkpt>
      <trkpt lat="47.77244" lon="1.96618">
        <ele>122</ele>
        <time>2017-07-30T07:21:59.327Z</time>
      </trkpt>
      <trkpt lat="47.77239" lon="1.96616">
        <ele>122</ele>
        <time>2017-07-30T07:22:00.329Z</time>
      </trkpt>
      <trkpt lat="47.77239" lon="1.96616">
        <ele>122</ele>
        <time>2017-07-30T07:22:01.328Z</time>
      </trkpt>
      <trkpt lat="47.77229" lon="1.96611">
        <ele>122</ele>
        <time>2017-07-30T07:22:02.334Z</time>
      </trkpt>
      <trkpt lat="47.77229" lon="1.96611">
        <ele>122</ele>
        <time>2017-07-30T07:22:03.327Z</time>
      </trkpt>
      <trkpt lat="47.77218" lon="1.96607">
        <ele>122</ele>
        <time>2017-07-30T07:22:04.329Z</time>
      </trkpt>
      <trkpt lat="47.77218" lon="1.96607">
        <ele>122</ele>
        <time>2017-07-30T07:22:05.327Z</time>
      </trkpt>
      <trkpt lat="47.77206" lon="1.96603">
        <ele>122</ele>
        <time>2017-07-30T07:22:06.328Z</time>
      </trkpt>
      <trkpt lat="47.77201" lon="1.96601">
        <ele>122</ele>
        <time>2017-07-30T07:22:07.332Z</time>
      </trkpt>
      <trkpt lat="47.77201" lon="1.96601">
        <ele>122</ele>
        <time>2017-07-30T07:22:08.322Z</time>
      </trkpt>
      <trkpt lat="47.7719" lon="1.96597">
        <ele>122</ele>
        <time>2017-07-30T07:22:09.330Z</time>
      </trkpt>
      <trkpt lat="47.7719" lon="1.96597">
        <ele>122</ele>
        <time>2017-07-30T07:22:10.322Z</time>
      </trkpt>
      <trkpt lat="47.77179" lon="1.96593">
        <ele>122</ele>
        <time>2017-07-30T07:22:11.331Z</time>
      </trkpt>
      <trkpt lat="47.77179" lon="1.96593">
        <ele>122</ele>
        <time>2017-07-30T07:22:12.333Z</time>
      </trkpt>
      <trkpt lat="47.77168" lon="1.96589">
        <ele>122</ele>
        <time>2017-07-30T07:22:13.334Z</time>
      </trkpt>
      <trkpt lat="47.77168" lon="1.96589">
        <ele>122</ele>
        <time>2017-07-30T07:22:14.326Z</time>
      </trkpt>
      <trkpt lat="47.77158" lon="1.96585">
        <ele>122</ele>
        <time>2017-07-30T07:22:15.332Z</time>
      </trkpt>
      <trkpt lat="47.77158" lon="1.96585">
        <ele>122</ele>
        <time>2017-07-30T07:22:16.326Z</time>
      </trkpt>
      <trkpt lat="47.77147" lon="1.96581">
        <ele>122</ele>
        <time>2017-07-30T07:22:17.331Z</time>
      </trkpt>
      <trkpt lat="47.77141" lon="1.96579">
        <ele>122</ele>
        <time>2017-07-30T07:22:18.332Z</time>
      </trkpt>
      <trkpt lat="47.77141" lon="1.96579">
        <ele>122</ele>
        <time>2017-07-30T07:22:19.331Z</time>
      </trkpt>
      <trkpt lat="47.77129" lon="1.96574">
        <ele>122</ele>
        <time>2017-07-30T07:22:20.331Z</time>
      </trkpt>
      <trkpt lat="47.77129" lon="1.96574">
        <ele>122</ele>
        <time>2017-07-30T07:22:21.327Z</time>
      </trkpt>
      <trkpt lat="47.77117" lon="1.9657">
        <ele>122</ele>
        <time>2017-07-30T07:22:22.334Z</time>
      </trkpt>
      <trkpt lat="47.77117" lon="1.9657">
        <ele>122</ele>
        <time>2017-07-30T07:22:23.327Z</time>
      </trkpt>
      <trkpt lat="47.77105" lon="1.96565">
        <ele>121</ele>
        <time>2017-07-30T07:22:24.330Z</time>
      </trkpt>
      <trkpt lat="47.77099" lon="1.96563">
        <ele>121</ele>
        <time>2017-07-30T07:22:25.328Z</time>
      </trkpt>
      <trkpt lat="47.77099" lon="1.96563">
        <ele>121</ele>
        <time>2017-07-30T07:22:26.327Z</time>
      </trkpt>
      <trkpt lat="47.77088" lon="1.96559">
        <ele>122</ele>
        <time>2017-07-30T07:22:27.329Z</time>
      </trkpt>
      <trkpt lat="47.77088" lon="1.96559">
        <ele>122</ele>
        <time>2017-07-30T07:22:28.331Z</time>
      </trkpt>
      <trkpt lat="47.77077" lon="1.96554">
        <ele>122</ele>
        <time>2017-07-30T07:22:29.328Z</time>
      </trkpt>
      <trkpt lat="47.77077" lon="1.96554">
        <ele>122</ele>
        <time>2017-07-30T07:22:30.327Z</time>
      </trkpt>
      <trkpt lat="47.77065" lon="1.9655">
        <ele>122</ele>
        <time>2017-07-30T07:22:31.329Z</time>
      </trkpt>
      <trkpt lat="47.77065" lon="1.9655">
        <ele>122</ele>
        <time>2017-07-30T07:22:32.327Z</time>
      </trkpt>
      <trkpt lat="47.77053" lon="1.96545">
        <ele>122</ele>
        <time>2017-07-30T07:22:33.328Z</time>
      </trkpt>
      <trkpt lat="47.77047" lon="1.96543">
        <ele>122</ele>
        <time>2017-07-30T07:22:34.329Z</time>
      </trkpt>
      <trkpt lat="47.77047" lon="1.96543">
        <ele>122</ele>
        <time>2017-07-30T07:22:35.322Z</time>
      </trkpt>
      <trkpt lat="47.77035" lon="1.96539">
        <ele>122</ele>
        <time>2017-07-30T07:22:36.328Z</time>
      </trkpt>
      <trkpt lat="47.77029" lon="1.96536">
        <ele>122</ele>
        <time>2017-07-30T07:22:37.329Z</time>
      </trkpt>
      <trkpt lat="47.77029" lon="1.96536">
        <ele>122</ele>
        <time>2017-07-30T07:22:38.327Z</time>
      </trkpt>
      <trkpt lat="47.77017" lon="1.96532">
        <ele>122</ele>
        <time>2017-07-30T07:22:39.328Z</time>
      </trkpt>
      <trkpt lat="47.77011" lon="1.9653">
        <ele>122</ele>
        <time>2017-07-30T07:22:40.329Z</time>
      </trkpt>
      <trkpt lat="47.77011" lon="1.9653">
        <ele>122</ele>
        <time>2017-07-30T07:22:41.327Z</time>
      </trkpt>
      <trkpt lat="47.77" lon="1.96525">
        <ele>122</ele>
        <time>2017-07-30T07:22:42.334Z</time>
      </trkpt>
      <trkpt lat="47.77" lon="1.96525">
        <ele>122</ele>
        <time>2017-07-30T07:22:43.328Z</time>
      </trkpt>
      <trkpt lat="47.76987" lon="1.96521">
        <ele>122</ele>
        <time>2017-07-30T07:22:44.333Z</time>
      </trkpt>
      <trkpt lat="47.76987" lon="1.96521">
        <ele>122</ele>
        <time>2017-07-30T07:22:45.327Z</time>
      </trkpt>
      <trkpt lat="47.76975" lon="1.96517">
        <ele>122</ele>
        <time>2017-07-30T07:22:46.328Z</time>
      </trkpt>
      <trkpt lat="47.76975" lon="1.96517">
        <ele>122</ele>
        <time>2017-07-30T07:22:47.327Z</time>
      </trkpt>
      <trkpt lat="47.76963" lon="1.96512">
        <ele>122</ele>
        <time>2017-07-30T07:22:48.328Z</time>
      </trkpt>
      <trkpt lat="47.76957" lon="1.9651">
        <ele>122</ele>
        <time>2017-07-30T07:22:49.334Z</time>
      </trkpt>
      <trkpt lat="47.76957" lon="1.9651">
        <ele>122</ele>
        <time>2017-07-30T07:22:50.327Z</time>
      </trkpt>
      <trkpt lat="47.76946" lon="1.96507">
        <ele>122</ele>
        <time>2017-07-30T07:22:51.329Z</time>
      </trkpt>
      <trkpt lat="47.76946" lon="1.96507">
        <ele>122</ele>
        <time>2017-07-30T07:22:52.327Z</time>
      </trkpt>
      <trkpt lat="47.76934" lon="1.96503">
        <ele>122</ele>
        <time>2017-07-30T07:22:53.328Z</time>
      </trkpt>
      <trkpt lat="47.76934" lon="1.96503">
        <ele>122</ele>
        <time>2017-07-30T07:22:54.327Z</time>
      </trkpt>
      <trkpt lat="47.76921" lon="1.96498">
        <ele>122</ele>
        <time>2017-07-30T07:22:55.329Z</time>
      </trkpt>
      <trkpt lat="47.76915" lon="1.96496">
        <ele>122</ele>
        <time>2017-07-30T07:22:56.330Z</time>
      </trkpt>
      <trkpt lat="47.76915" lon="1.96496">
        <ele>122</ele>
        <time>2017-07-30T07:22:57.328Z</time>
      </trkpt>
      <trkpt lat="47.76903" lon="1.96492">
        <ele>122</ele>
        <time>2017-07-30T07:22:58.329Z</time>
      </trkpt>
      <trkpt lat="47.76903" lon="1.96492">
        <ele>122</ele>
        <time>2017-07-30T07:22:59.323Z</time>
      </trkpt>
      <trkpt lat="47.76891" lon="1.96487">
        <ele>122</ele>
        <time>2017-07-30T07:23:00.329Z</time>
      </trkpt>
      <trkpt lat="47.76885" lon="1.96485">
        <ele>123</ele>
        <time>2017-07-30T07:23:01.334Z</time>
      </trkpt>
      <trkpt lat="47.76885" lon="1.96485">
        <ele>123</ele>
        <time>2017-07-30T07:23:02.331Z</time>
      </trkpt>
      <trkpt lat="47.76873" lon="1.9648">
        <ele>123</ele>
        <time>2017-07-30T07:23:03.329Z</time>
      </trkpt>
      <trkpt lat="47.76873" lon="1.9648">
        <ele>123</ele>
        <time>2017-07-30T07:23:04.326Z</time>
      </trkpt>
      <trkpt lat="47.76861" lon="1.96476">
        <ele>123</ele>
        <time>2017-07-30T07:23:05.329Z</time>
      </trkpt>
      <trkpt lat="47.76861" lon="1.96476">
        <ele>123</ele>
        <time>2017-07-30T07:23:06.328Z</time>
      </trkpt>
      <trkpt lat="47.76849" lon="1.96472">
        <ele>124</ele>
        <time>2017-07-30T07:23:07.340Z</time>
      </trkpt>
      <trkpt lat="47.76849" lon="1.96472">
        <ele>124</ele>
        <time>2017-07-30T07:23:08.329Z</time>
      </trkpt>
      <trkpt lat="47.76837" lon="1.96468">
        <ele>124</ele>
        <time>2017-07-30T07:23:09.330Z</time>
      </trkpt>
      <trkpt lat="47.76837" lon="1.96468">
        <ele>124</ele>
        <time>2017-07-30T07:23:10.327Z</time>
      </trkpt>
      <trkpt lat="47.76825" lon="1.96463">
        <ele>125</ele>
        <time>2017-07-30T07:23:11.329Z</time>
      </trkpt>
      <trkpt lat="47.76825" lon="1.96463">
        <ele>125</ele>
        <time>2017-07-30T07:23:12.327Z</time>
      </trkpt>
      <trkpt lat="47.76812" lon="1.96459">
        <ele>125</ele>
        <time>2017-07-30T07:23:13.329Z</time>
      </trkpt>
      <trkpt lat="47.76812" lon="1.96459">
        <ele>125</ele>
        <time>2017-07-30T07:23:14.323Z</time>
      </trkpt>
      <trkpt lat="47.768" lon="1.96455">
        <ele>125</ele>
        <time>2017-07-30T07:23:15.330Z</time>
      </trkpt>
      <trkpt lat="47.76794" lon="1.96452">
        <ele>125</ele>
        <time>2017-07-30T07:23:16.345Z</time>
      </trkpt>
      <trkpt lat="47.76794" lon="1.96452">
        <ele>125</ele>
        <time>2017-07-30T07:23:17.335Z</time>
      </trkpt>
      <trkpt lat="47.76783" lon="1.96448">
        <ele>125</ele>
        <time>2017-07-30T07:23:18.329Z</time>
      </trkpt>
      <trkpt lat="47.76777" lon="1.96446">
        <ele>125</ele>
        <time>2017-07-30T07:23:19.329Z</time>
      </trkpt>
      <trkpt lat="47.76777" lon="1.96446">
        <ele>125</ele>
        <time>2017-07-30T07:23:20.327Z</time>
      </trkpt>
      <trkpt lat="47.76765" lon="1.96441">
        <ele>125</ele>
        <time>2017-07-30T07:23:21.329Z</time>
      </trkpt>
      <trkpt lat="47.76765" lon="1.96441">
        <ele>125</ele>
        <time>2017-07-30T07:23:22.326Z</time>
      </trkpt>
      <trkpt lat="47.76753" lon="1.96436">
        <ele>125</ele>
        <time>2017-07-30T07:23:23.329Z</time>
      </trkpt>
      <trkpt lat="47.76753" lon="1.96436">
        <ele>125</ele>
        <time>2017-07-30T07:23:24.328Z</time>
      </trkpt>
      <trkpt lat="47.76741" lon="1.96431">
        <ele>125</ele>
        <time>2017-07-30T07:23:25.329Z</time>
      </trkpt>
      <trkpt lat="47.76734" lon="1.96429">
        <ele>125</ele>
        <time>2017-07-30T07:23:26.330Z</time>
      </trkpt>
      <trkpt lat="47.76734" lon="1.96429">
        <ele>125</ele>
        <time>2017-07-30T07:23:27.327Z</time>
      </trkpt>
      <trkpt lat="47.76722" lon="1.96425">
        <ele>125</ele>
        <time>2017-07-30T07:23:28.327Z</time>
      </trkpt>
      <trkpt lat="47.76722" lon="1.96425">
        <ele>125</ele>
        <time>2017-07-30T07:23:29.327Z</time>
      </trkpt>
      <trkpt lat="47.7671" lon="1.9642">
        <ele>125</ele>
        <time>2017-07-30T07:23:30.328Z</time>
      </trkpt>
      <trkpt lat="47.76704" lon="1.96418">
        <ele>126</ele>
        <time>2017-07-30T07:23:31.329Z</time>
      </trkpt>
      <trkpt lat="47.76704" lon="1.96418">
        <ele>126</ele>
        <time>2017-07-30T07:23:32.326Z</time>
      </trkpt>
      <trkpt lat="47.76692" lon="1.96413">
        <ele>126</ele>
        <time>2017-07-30T07:23:33.329Z</time>
      </trkpt>
      <trkpt lat="47.76686" lon="1.96411">
        <ele>126</ele>
        <time>2017-07-30T07:23:34.329Z</time>
      </trkpt>
      <trkpt lat="47.76686" lon="1.96411">
        <ele>126</ele>
        <time>2017-07-30T07:23:35.327Z</time>
      </trkpt>
      <trkpt lat="47.76675" lon="1.96407">
        <ele>126</ele>
        <time>2017-07-30T07:23:36.328Z</time>
      </trkpt>
      <trkpt lat="47.76669" lon="1.96405">
        <ele>126</ele>
        <time>2017-07-30T07:23:37.330Z</time>
      </trkpt>
      <trkpt lat="47.76669" lon="1.96405">
        <ele>126</ele>
        <time>2017-07-30T07:23:38.327Z</time>
      </trkpt>
      <trkpt lat="47.7666" lon="1.96401">
        <ele>126</ele>
        <time>2017-07-30T07:23:39.329Z</time>
      </trkpt>
      <trkpt lat="47.76656" lon="1.96399">
        <ele>126</ele>
        <time>2017-07-30T07:23:40.329Z</time>
      </trkpt>
      <trkpt lat="47.76652" lon="1.96398">
        <ele>126</ele>
        <time>2017-07-30T07:23:41.329Z</time>
      </trkpt>
      <trkpt lat="47.76652" lon="1.96398">
        <ele>126</ele>
        <time>2017-07-30T07:23:42.327Z</time>
      </trkpt>
      <trkpt lat="47.76645" lon="1.96393">
        <ele>125</ele>
        <time>2017-07-30T07:23:43.329Z</time>
      </trkpt>
      <trkpt lat="47.76643" lon="1.96392">
        <ele>126</ele>
        <time>2017-07-30T07:23:44.329Z</time>
      </trkpt>
      <trkpt lat="47.76643" lon="1.96392">
        <ele>126</ele>
        <time>2017-07-30T07:23:45.327Z</time>
      </trkpt>
      <trkpt lat="47.76637" lon="1.96391">
        <ele>126</ele>
        <time>2017-07-30T07:23:46.328Z</time>
      </trkpt>
      <trkpt lat="47.76635" lon="1.9639">
        <ele>126</ele>
        <time>2017-07-30T07:23:47.328Z</time>
      </trkpt>
      <trkpt lat="47.76635" lon="1.9639">
        <ele>126</ele>
        <time>2017-07-30T07:23:48.334Z</time>
      </trkpt>
      <trkpt lat="47.7663" lon="1.96389">
        <ele>126</ele>
        <time>2017-07-30T07:23:49.334Z</time>
      </trkpt>
      <trkpt lat="47.7663" lon="1.96389">
        <ele>126</ele>
        <time>2017-07-30T07:23:50.327Z</time>
      </trkpt>
      <trkpt lat="47.76626" lon="1.96388">
        <ele>126</ele>
        <time>2017-07-30T07:23:51.332Z</time>
      </trkpt>
      <trkpt lat="47.76626" lon="1.96388">
        <ele>126</ele>
        <time>2017-07-30T07:23:52.333Z</time>
      </trkpt>
      <trkpt lat="47.76621" lon="1.96388">
        <ele>125</ele>
        <time>2017-07-30T07:23:53.343Z</time>
      </trkpt>
      <trkpt lat="47.76619" lon="1.96387">
        <ele>125</ele>
        <time>2017-07-30T07:23:54.335Z</time>
      </trkpt>
      <trkpt lat="47.76618" lon="1.96387">
        <ele>125</ele>
        <time>2017-07-30T07:23:55.334Z</time>
      </trkpt>
      <trkpt lat="47.76618" lon="1.96387">
        <ele>125</ele>
        <time>2017-07-30T07:23:56.330Z</time>
      </trkpt>
      <trkpt lat="47.76618" lon="1.96387">
        <ele>125</ele>
        <time>2017-07-30T07:23:57.331Z</time>
      </trkpt>
      <trkpt lat="47.76618" lon="1.96387">
        <ele>125</ele>
        <time>2017-07-30T07:23:58.342Z</time>
      </trkpt>
      <trkpt lat="47.76612" lon="1.96379">
        <ele>121</ele>
        <time>2017-07-30T07:23:59.336Z</time>
      </trkpt>
      <trkpt lat="47.76612" lon="1.96379">
        <ele>121</ele>
        <time>2017-07-30T07:24:00.320Z</time>
      </trkpt>
      <trkpt lat="47.76612" lon="1.96379">
        <ele>121</ele>
        <time>2017-07-30T07:24:01.330Z</time>
      </trkpt>
      <trkpt lat="47.76605" lon="1.96377">
        <ele>120</ele>
        <time>2017-07-30T07:24:02.320Z</time>
      </trkpt>
      <trkpt lat="47.76598" lon="1.96374">
        <ele>121</ele>
        <time>2017-07-30T07:24:03.344Z</time>
      </trkpt>
      <trkpt lat="47.76598" lon="1.96374">
        <ele>121</ele>
        <time>2017-07-30T07:24:04.327Z</time>
      </trkpt>
      <trkpt lat="47.76598" lon="1.96374">
        <ele>121</ele>
        <time>2017-07-30T07:24:05.325Z</time>
      </trkpt>
      <trkpt lat="47.7659" lon="1.96371">
        <ele>120</ele>
        <time>2017-07-30T07:24:06.348Z</time>
      </trkpt>
      <trkpt lat="47.76582" lon="1.96368">
        <ele>120</ele>
        <time>2017-07-30T07:24:07.337Z</time>
      </trkpt>
      <trkpt lat="47.76582" lon="1.96368">
        <ele>120</ele>
        <time>2017-07-30T07:24:08.321Z</time>
      </trkpt>
      <trkpt lat="47.76582" lon="1.96368">
        <ele>120</ele>
        <time>2017-07-30T07:24:09.323Z</time>
      </trkpt>
      <trkpt lat="47.76568" lon="1.96363">
        <ele>120</ele>
        <time>2017-07-30T07:24:10.335Z</time>
      </trkpt>
      <trkpt lat="47.76568" lon="1.96363">
        <ele>120</ele>
        <time>2017-07-30T07:24:11.332Z</time>
      </trkpt>
      <trkpt lat="47.76568" lon="1.96363">
        <ele>120</ele>
        <time>2017-07-30T07:24:12.323Z</time>
      </trkpt>
      <trkpt lat="47.76558" lon="1.9636">
        <ele>120</ele>
        <time>2017-07-30T07:24:13.328Z</time>
      </trkpt>
      <trkpt lat="47.76554" lon="1.96358">
        <ele>120</ele>
        <time>2017-07-30T07:24:14.333Z</time>
      </trkpt>
      <trkpt lat="47.76554" lon="1.96358">
        <ele>120</ele>
        <time>2017-07-30T07:24:15.328Z</time>
      </trkpt>
      <trkpt lat="47.7654" lon="1.96354">
        <ele>121</ele>
        <time>2017-07-30T07:24:16.336Z</time>
      </trkpt>
      <trkpt lat="47.7654" lon="1.96354">
        <ele>121</ele>
        <time>2017-07-30T07:24:17.320Z</time>
      </trkpt>
      <trkpt lat="47.7654" lon="1.96354">
        <ele>121</ele>
        <time>2017-07-30T07:24:18.324Z</time>
      </trkpt>
      <trkpt lat="47.76531" lon="1.96351">
        <ele>121</ele>
        <time>2017-07-30T07:24:19.335Z</time>
      </trkpt>
      <trkpt lat="47.76531" lon="1.96351">
        <ele>121</ele>
        <time>2017-07-30T07:24:20.328Z</time>
      </trkpt>
      <trkpt lat="47.76516" lon="1.96346">
        <ele>122</ele>
        <time>2017-07-30T07:24:21.343Z</time>
      </trkpt>
      <trkpt lat="47.76516" lon="1.96346">
        <ele>122</ele>
        <time>2017-07-30T07:24:22.326Z</time>
      </trkpt>
      <trkpt lat="47.76516" lon="1.96346">
        <ele>122</ele>
        <time>2017-07-30T07:24:23.323Z</time>
      </trkpt>
      <trkpt lat="47.76506" lon="1.96342">
        <ele>122</ele>
        <time>2017-07-30T07:24:24.327Z</time>
      </trkpt>
      <trkpt lat="47.76506" lon="1.96342">
        <ele>122</ele>
        <time>2017-07-30T07:24:25.320Z</time>
      </trkpt>
      <trkpt lat="47.76497" lon="1.96338">
        <ele>122</ele>
        <time>2017-07-30T07:24:26.329Z</time>
      </trkpt>
      <trkpt lat="47.76492" lon="1.96336">
        <ele>122</ele>
        <time>2017-07-30T07:24:27.333Z</time>
      </trkpt>
      <trkpt lat="47.76492" lon="1.96336">
        <ele>122</ele>
        <time>2017-07-30T07:24:28.328Z</time>
      </trkpt>
      <trkpt lat="47.76482" lon="1.96332">
        <ele>122</ele>
        <time>2017-07-30T07:24:29.313Z</time>
      </trkpt>
      <trkpt lat="47.76477" lon="1.9633">
        <ele>122</ele>
        <time>2017-07-30T07:24:30.336Z</time>
      </trkpt>
      <trkpt lat="47.76468" lon="1.96327">
        <ele>122</ele>
        <time>2017-07-30T07:24:31.344Z</time>
      </trkpt>
      <trkpt lat="47.76468" lon="1.96327">
        <ele>122</ele>
        <time>2017-07-30T07:24:32.326Z</time>
      </trkpt>
      <trkpt lat="47.76468" lon="1.96327">
        <ele>122</ele>
        <time>2017-07-30T07:24:33.323Z</time>
      </trkpt>
      <trkpt lat="47.76454" lon="1.96322">
        <ele>122</ele>
        <time>2017-07-30T07:24:34.334Z</time>
      </trkpt>
      <trkpt lat="47.76454" lon="1.96322">
        <ele>122</ele>
        <time>2017-07-30T07:24:35.321Z</time>
      </trkpt>
      <trkpt lat="47.76449" lon="1.9632">
        <ele>122</ele>
        <time>2017-07-30T07:24:36.326Z</time>
      </trkpt>
      <trkpt lat="47.76444" lon="1.96318">
        <ele>122</ele>
        <time>2017-07-30T07:24:37.327Z</time>
      </trkpt>
      <trkpt lat="47.76439" lon="1.96316">
        <ele>122</ele>
        <time>2017-07-30T07:24:38.324Z</time>
      </trkpt>
      <trkpt lat="47.76439" lon="1.96316">
        <ele>122</ele>
        <time>2017-07-30T07:24:39.326Z</time>
      </trkpt>
      <trkpt lat="47.7643" lon="1.96313">
        <ele>122</ele>
        <time>2017-07-30T07:24:40.337Z</time>
      </trkpt>
      <trkpt lat="47.7643" lon="1.96313">
        <ele>122</ele>
        <time>2017-07-30T07:24:41.328Z</time>
      </trkpt>
      <trkpt lat="47.7642" lon="1.96309">
        <ele>122</ele>
        <time>2017-07-30T07:24:42.338Z</time>
      </trkpt>
      <trkpt lat="47.7642" lon="1.96309">
        <ele>122</ele>
        <time>2017-07-30T07:24:43.329Z</time>
      </trkpt>
      <trkpt lat="47.7641" lon="1.96306">
        <ele>122</ele>
        <time>2017-07-30T07:24:44.333Z</time>
      </trkpt>
      <trkpt lat="47.7641" lon="1.96306">
        <ele>122</ele>
        <time>2017-07-30T07:24:45.344Z</time>
      </trkpt>
      <trkpt lat="47.764" lon="1.96302">
        <ele>122</ele>
        <time>2017-07-30T07:24:46.322Z</time>
      </trkpt>
      <trkpt lat="47.76389" lon="1.96298">
        <ele>121</ele>
        <time>2017-07-30T07:24:47.337Z</time>
      </trkpt>
      <trkpt lat="47.76389" lon="1.96298">
        <ele>121</ele>
        <time>2017-07-30T07:24:48.321Z</time>
      </trkpt>
      <trkpt lat="47.76389" lon="1.96298">
        <ele>121</ele>
        <time>2017-07-30T07:24:49.324Z</time>
      </trkpt>
      <trkpt lat="47.76374" lon="1.96292">
        <ele>121</ele>
        <time>2017-07-30T07:24:50.335Z</time>
      </trkpt>
      <trkpt lat="47.76374" lon="1.96292">
        <ele>121</ele>
        <time>2017-07-30T07:24:51.320Z</time>
      </trkpt>
      <trkpt lat="47.76374" lon="1.96292">
        <ele>121</ele>
        <time>2017-07-30T07:24:52.321Z</time>
      </trkpt>
      <trkpt lat="47.76364" lon="1.96288">
        <ele>122</ele>
        <time>2017-07-30T07:24:53.336Z</time>
      </trkpt>
      <trkpt lat="47.76354" lon="1.96285">
        <ele>122</ele>
        <time>2017-07-30T07:24:54.339Z</time>
      </trkpt>
      <trkpt lat="47.76354" lon="1.96285">
        <ele>122</ele>
        <time>2017-07-30T07:24:55.325Z</time>
      </trkpt>
      <trkpt lat="47.76349" lon="1.96283">
        <ele>122</ele>
        <time>2017-07-30T07:24:56.343Z</time>
      </trkpt>
      <trkpt lat="47.76339" lon="1.96279">
        <ele>122</ele>
        <time>2017-07-30T07:24:57.332Z</time>
      </trkpt>
      <trkpt lat="47.76339" lon="1.96279">
        <ele>122</ele>
        <time>2017-07-30T07:24:58.324Z</time>
      </trkpt>
      <trkpt lat="47.76334" lon="1.96277">
        <ele>122</ele>
        <time>2017-07-30T07:24:59.335Z</time>
      </trkpt>
      <trkpt lat="47.76324" lon="1.96274">
        <ele>122</ele>
        <time>2017-07-30T07:25:00.337Z</time>
      </trkpt>
      <trkpt lat="47.76324" lon="1.96274">
        <ele>122</ele>
        <time>2017-07-30T07:25:01.321Z</time>
      </trkpt>
      <trkpt lat="47.76324" lon="1.96274">
        <ele>122</ele>
        <time>2017-07-30T07:25:02.324Z</time>
      </trkpt>
      <trkpt lat="47.76314" lon="1.9627">
        <ele>122</ele>
        <time>2017-07-30T07:25:03.335Z</time>
      </trkpt>
      <trkpt lat="47.76314" lon="1.9627">
        <ele>122</ele>
        <time>2017-07-30T07:25:04.328Z</time>
      </trkpt>
      <trkpt lat="47.76299" lon="1.96264">
        <ele>122</ele>
        <time>2017-07-30T07:25:05.338Z</time>
      </trkpt>
      <trkpt lat="47.76299" lon="1.96264">
        <ele>122</ele>
        <time>2017-07-30T07:25:06.330Z</time>
      </trkpt>
      <trkpt lat="47.76299" lon="1.96264">
        <ele>122</ele>
        <time>2017-07-30T07:25:07.324Z</time>
      </trkpt>
      <trkpt lat="47.7629" lon="1.9626">
        <ele>122</ele>
        <time>2017-07-30T07:25:08.335Z</time>
      </trkpt>
      <trkpt lat="47.7629" lon="1.9626">
        <ele>122</ele>
        <time>2017-07-30T07:25:09.328Z</time>
      </trkpt>
      <trkpt lat="47.76275" lon="1.96256">
        <ele>122</ele>
        <time>2017-07-30T07:25:10.332Z</time>
      </trkpt>
      <trkpt lat="47.76271" lon="1.96254">
        <ele>122</ele>
        <time>2017-07-30T07:25:11.333Z</time>
      </trkpt>
      <trkpt lat="47.76271" lon="1.96254">
        <ele>122</ele>
        <time>2017-07-30T07:25:12.320Z</time>
      </trkpt>
      <trkpt lat="47.76271" lon="1.96254">
        <ele>122</ele>
        <time>2017-07-30T07:25:13.358Z</time>
      </trkpt>
      <trkpt lat="47.76261" lon="1.9625">
        <ele>122</ele>
        <time>2017-07-30T07:25:14.339Z</time>
      </trkpt>
      <trkpt lat="47.76261" lon="1.9625">
        <ele>122</ele>
        <time>2017-07-30T07:25:15.329Z</time>
      </trkpt>
      <trkpt lat="47.76251" lon="1.96247">
        <ele>122</ele>
        <time>2017-07-30T07:25:16.340Z</time>
      </trkpt>
      <trkpt lat="47.76241" lon="1.96243">
        <ele>122</ele>
        <time>2017-07-30T07:25:17.335Z</time>
      </trkpt>
      <trkpt lat="47.76241" lon="1.96243">
        <ele>122</ele>
        <time>2017-07-30T07:25:18.321Z</time>
      </trkpt>
      <trkpt lat="47.76241" lon="1.96243">
        <ele>122</ele>
        <time>2017-07-30T07:25:19.323Z</time>
      </trkpt>
      <trkpt lat="47.76232" lon="1.9624">
        <ele>122</ele>
        <time>2017-07-30T07:25:20.335Z</time>
      </trkpt>
      <trkpt lat="47.76223" lon="1.96236">
        <ele>122</ele>
        <time>2017-07-30T07:25:21.335Z</time>
      </trkpt>
      <trkpt lat="47.76223" lon="1.96236">
        <ele>122</ele>
        <time>2017-07-30T07:25:22.326Z</time>
      </trkpt>
      <trkpt lat="47.76218" lon="1.96235">
        <ele>122</ele>
        <time>2017-07-30T07:25:23.328Z</time>
      </trkpt>
      <trkpt lat="47.76213" lon="1.96233">
        <ele>122</ele>
        <time>2017-07-30T07:25:24.325Z</time>
      </trkpt>
      <trkpt lat="47.76203" lon="1.96229">
        <ele>121</ele>
        <time>2017-07-30T07:25:25.336Z</time>
      </trkpt>
      <trkpt lat="47.76203" lon="1.96229">
        <ele>121</ele>
        <time>2017-07-30T07:25:26.327Z</time>
      </trkpt>
      <trkpt lat="47.76203" lon="1.96229">
        <ele>121</ele>
        <time>2017-07-30T07:25:27.326Z</time>
      </trkpt>
      <trkpt lat="47.76193" lon="1.96226">
        <ele>121</ele>
        <time>2017-07-30T07:25:28.337Z</time>
      </trkpt>
      <trkpt lat="47.76193" lon="1.96226">
        <ele>121</ele>
        <time>2017-07-30T07:25:29.328Z</time>
      </trkpt>
      <trkpt lat="47.76184" lon="1.96223">
        <ele>121</ele>
        <time>2017-07-30T07:25:30.338Z</time>
      </trkpt>
      <trkpt lat="47.76184" lon="1.96223">
        <ele>121</ele>
        <time>2017-07-30T07:25:31.327Z</time>
      </trkpt>
      <trkpt lat="47.76175" lon="1.96219">
        <ele>121</ele>
        <time>2017-07-30T07:25:32.337Z</time>
      </trkpt>
      <trkpt lat="47.76175" lon="1.96219">
        <ele>121</ele>
        <time>2017-07-30T07:25:33.329Z</time>
      </trkpt>
      <trkpt lat="47.76166" lon="1.96215">
        <ele>121</ele>
        <time>2017-07-30T07:25:34.338Z</time>
      </trkpt>
      <trkpt lat="47.76156" lon="1.96212">
        <ele>120</ele>
        <time>2017-07-30T07:25:35.335Z</time>
      </trkpt>
      <trkpt lat="47.76156" lon="1.96212">
        <ele>120</ele>
        <time>2017-07-30T07:25:36.325Z</time>
      </trkpt>
      <trkpt lat="47.76156" lon="1.96212">
        <ele>120</ele>
        <time>2017-07-30T07:25:37.356Z</time>
      </trkpt>
      <trkpt lat="47.76146" lon="1.96208">
        <ele>120</ele>
        <time>2017-07-30T07:25:38.337Z</time>
      </trkpt>
      <trkpt lat="47.76146" lon="1.96208">
        <ele>120</ele>
        <time>2017-07-30T07:25:39.328Z</time>
      </trkpt>
      <trkpt lat="47.76131" lon="1.96204">
        <ele>120</ele>
        <time>2017-07-30T07:25:40.338Z</time>
      </trkpt>
      <trkpt lat="47.76127" lon="1.96202">
        <ele>120</ele>
        <time>2017-07-30T07:25:41.338Z</time>
      </trkpt>
      <trkpt lat="47.76127" lon="1.96202">
        <ele>120</ele>
        <time>2017-07-30T07:25:42.327Z</time>
      </trkpt>
      <trkpt lat="47.76127" lon="1.96202">
        <ele>120</ele>
        <time>2017-07-30T07:25:43.324Z</time>
      </trkpt>
      <trkpt lat="47.76118" lon="1.96198">
        <ele>120</ele>
        <time>2017-07-30T07:25:44.321Z</time>
      </trkpt>
      <trkpt lat="47.76118" lon="1.96198">
        <ele>120</ele>
        <time>2017-07-30T07:25:45.324Z</time>
      </trkpt>
      <trkpt lat="47.76109" lon="1.96195">
        <ele>120</ele>
        <time>2017-07-30T07:25:46.339Z</time>
      </trkpt>
      <trkpt lat="47.76109" lon="1.96195">
        <ele>120</ele>
        <time>2017-07-30T07:25:47.329Z</time>
      </trkpt>
      <trkpt lat="47.76097" lon="1.96189">
        <ele>120</ele>
        <time>2017-07-30T07:25:48.329Z</time>
      </trkpt>
      <trkpt lat="47.76097" lon="1.96189">
        <ele>120</ele>
        <time>2017-07-30T07:25:49.325Z</time>
      </trkpt>
      <trkpt lat="47.76093" lon="1.9619">
        <ele>120</ele>
        <time>2017-07-30T07:25:50.336Z</time>
      </trkpt>
      <trkpt lat="47.76086" lon="1.96197">
        <ele>120</ele>
        <time>2017-07-30T07:25:51.332Z</time>
      </trkpt>
      <trkpt lat="47.76086" lon="1.96197">
        <ele>120</ele>
        <time>2017-07-30T07:25:52.324Z</time>
      </trkpt>
      <trkpt lat="47.76084" lon="1.96201">
        <ele>120</ele>
        <time>2017-07-30T07:25:53.318Z</time>
      </trkpt>
      <trkpt lat="47.76084" lon="1.96201">
        <ele>120</ele>
        <time>2017-07-30T07:25:54.323Z</time>
      </trkpt>
      <trkpt lat="47.76077" lon="1.96216">
        <ele>120</ele>
        <time>2017-07-30T07:25:55.336Z</time>
      </trkpt>
      <trkpt lat="47.76077" lon="1.96216">
        <ele>120</ele>
        <time>2017-07-30T07:25:56.327Z</time>
      </trkpt>
      <trkpt lat="47.76077" lon="1.96216">
        <ele>120</ele>
        <time>2017-07-30T07:25:57.321Z</time>
      </trkpt>
      <trkpt lat="47.76071" lon="1.96226">
        <ele>120</ele>
        <time>2017-07-30T07:25:58.335Z</time>
      </trkpt>
      <trkpt lat="47.76071" lon="1.96226">
        <ele>120</ele>
        <time>2017-07-30T07:25:59.326Z</time>
      </trkpt>
      <trkpt lat="47.76066" lon="1.96237">
        <ele>119</ele>
        <time>2017-07-30T07:26:00.321Z</time>
      </trkpt>
      <trkpt lat="47.76066" lon="1.96237">
        <ele>119</ele>
        <time>2017-07-30T07:26:01.324Z</time>
      </trkpt>
      <trkpt lat="47.76061" lon="1.96248">
        <ele>119</ele>
        <time>2017-07-30T07:26:02.335Z</time>
      </trkpt>
      <trkpt lat="47.76061" lon="1.96248">
        <ele>119</ele>
        <time>2017-07-30T07:26:03.328Z</time>
      </trkpt>
      <trkpt lat="47.76055" lon="1.96264">
        <ele>119</ele>
        <time>2017-07-30T07:26:04.333Z</time>
      </trkpt>
      <trkpt lat="47.76055" lon="1.96264">
        <ele>119</ele>
        <time>2017-07-30T07:26:05.329Z</time>
      </trkpt>
      <trkpt lat="47.76053" lon="1.9627">
        <ele>119</ele>
        <time>2017-07-30T07:26:06.327Z</time>
      </trkpt>
      <trkpt lat="47.76051" lon="1.96274">
        <ele>119</ele>
        <time>2017-07-30T07:26:07.337Z</time>
      </trkpt>
      <trkpt lat="47.76051" lon="1.96274">
        <ele>119</ele>
        <time>2017-07-30T07:26:08.327Z</time>
      </trkpt>
      <trkpt lat="47.76045" lon="1.96282">
        <ele>118</ele>
        <time>2017-07-30T07:26:09.326Z</time>
      </trkpt>
      <trkpt lat="47.76041" lon="1.96284">
        <ele>118</ele>
        <time>2017-07-30T07:26:10.338Z</time>
      </trkpt>
      <trkpt lat="47.76041" lon="1.96284">
        <ele>118</ele>
        <time>2017-07-30T07:26:11.330Z</time>
      </trkpt>
      <trkpt lat="47.76031" lon="1.96287">
        <ele>118</ele>
        <time>2017-07-30T07:26:12.334Z</time>
      </trkpt>
      <trkpt lat="47.76031" lon="1.96287">
        <ele>118</ele>
        <time>2017-07-30T07:26:13.327Z</time>
      </trkpt>
      <trkpt lat="47.76023" lon="1.96289">
        <ele>118</ele>
        <time>2017-07-30T07:26:14.324Z</time>
      </trkpt>
      <trkpt lat="47.76023" lon="1.96289">
        <ele>118</ele>
        <time>2017-07-30T07:26:15.327Z</time>
      </trkpt>
      <trkpt lat="47.76015" lon="1.96292">
        <ele>118</ele>
        <time>2017-07-30T07:26:16.327Z</time>
      </trkpt>
      <trkpt lat="47.7601" lon="1.96292">
        <ele>118</ele>
        <time>2017-07-30T07:26:17.336Z</time>
      </trkpt>
      <trkpt lat="47.7601" lon="1.96292">
        <ele>118</ele>
        <time>2017-07-30T07:26:18.328Z</time>
      </trkpt>
      <trkpt lat="47.76" lon="1.96293">
        <ele>118</ele>
        <time>2017-07-30T07:26:19.324Z</time>
      </trkpt>
      <trkpt lat="47.75995" lon="1.96293">
        <ele>118</ele>
        <time>2017-07-30T07:26:20.335Z</time>
      </trkpt>
      <trkpt lat="47.75986" lon="1.96292">
        <ele>119</ele>
        <time>2017-07-30T07:26:21.333Z</time>
      </trkpt>
      <trkpt lat="47.75986" lon="1.96292">
        <ele>119</ele>
        <time>2017-07-30T07:26:22.329Z</time>
      </trkpt>
      <trkpt lat="47.75986" lon="1.96292">
        <ele>119</ele>
        <time>2017-07-30T07:26:23.323Z</time>
      </trkpt>
      <trkpt lat="47.75971" lon="1.96291">
        <ele>119</ele>
        <time>2017-07-30T07:26:24.344Z</time>
      </trkpt>
      <trkpt lat="47.75966" lon="1.96291">
        <ele>119</ele>
        <time>2017-07-30T07:26:25.336Z</time>
      </trkpt>
      <trkpt lat="47.75966" lon="1.96291">
        <ele>119</ele>
        <time>2017-07-30T07:26:26.325Z</time>
      </trkpt>
      <trkpt lat="47.75966" lon="1.96291">
        <ele>119</ele>
        <time>2017-07-30T07:26:27.324Z</time>
      </trkpt>
      <trkpt lat="47.75957" lon="1.9629">
        <ele>119</ele>
        <time>2017-07-30T07:26:28.340Z</time>
      </trkpt>
      <trkpt lat="47.75948" lon="1.9629">
        <ele>119</ele>
        <time>2017-07-30T07:26:29.335Z</time>
      </trkpt>
      <trkpt lat="47.75948" lon="1.9629">
        <ele>119</ele>
        <time>2017-07-30T07:26:30.321Z</time>
      </trkpt>
      <trkpt lat="47.75948" lon="1.9629">
        <ele>119</ele>
        <time>2017-07-30T07:26:31.324Z</time>
      </trkpt>
      <trkpt lat="47.75939" lon="1.96289">
        <ele>119</ele>
        <time>2017-07-30T07:26:32.320Z</time>
      </trkpt>
      <trkpt lat="47.75939" lon="1.96289">
        <ele>119</ele>
        <time>2017-07-30T07:26:33.325Z</time>
      </trkpt>
      <trkpt lat="47.75929" lon="1.96289">
        <ele>119</ele>
        <time>2017-07-30T07:26:34.338Z</time>
      </trkpt>
      <trkpt lat="47.7592" lon="1.96288">
        <ele>119</ele>
        <time>2017-07-30T07:26:35.332Z</time>
      </trkpt>
      <trkpt lat="47.7592" lon="1.96288">
        <ele>119</ele>
        <time>2017-07-30T07:26:36.321Z</time>
      </trkpt>
      <trkpt lat="47.7592" lon="1.96288">
        <ele>119</ele>
        <time>2017-07-30T07:26:37.390Z</time>
      </trkpt>
      <trkpt lat="47.75907" lon="1.96288">
        <ele>119</ele>
        <time>2017-07-30T07:26:38.337Z</time>
      </trkpt>
      <trkpt lat="47.75907" lon="1.96288">
        <ele>119</ele>
        <time>2017-07-30T07:26:39.322Z</time>
      </trkpt>
      <trkpt lat="47.75907" lon="1.96288">
        <ele>119</ele>
        <time>2017-07-30T07:26:40.323Z</time>
      </trkpt>
      <trkpt lat="47.75899" lon="1.96288">
        <ele>119</ele>
        <time>2017-07-30T07:26:41.326Z</time>
      </trkpt>
      <trkpt lat="47.75894" lon="1.96288">
        <ele>119</ele>
        <time>2017-07-30T07:26:42.353Z</time>
      </trkpt>
      <trkpt lat="47.7589" lon="1.96287">
        <ele>119</ele>
        <time>2017-07-30T07:26:43.326Z</time>
      </trkpt>
      <trkpt lat="47.75885" lon="1.96287">
        <ele>119</ele>
        <time>2017-07-30T07:26:44.322Z</time>
      </trkpt>
      <trkpt lat="47.75885" lon="1.96287">
        <ele>119</ele>
        <time>2017-07-30T07:26:45.323Z</time>
      </trkpt>
      <trkpt lat="47.75876" lon="1.96286">
        <ele>119</ele>
        <time>2017-07-30T07:26:46.354Z</time>
      </trkpt>
      <trkpt lat="47.75876" lon="1.96286">
        <ele>119</ele>
        <time>2017-07-30T07:26:47.324Z</time>
      </trkpt>
      <trkpt lat="47.75868" lon="1.96283">
        <ele>119</ele>
        <time>2017-07-30T07:26:48.335Z</time>
      </trkpt>
      <trkpt lat="47.75868" lon="1.96283">
        <ele>119</ele>
        <time>2017-07-30T07:26:49.326Z</time>
      </trkpt>
      <trkpt lat="47.75861" lon="1.96279">
        <ele>119</ele>
        <time>2017-07-30T07:26:50.337Z</time>
      </trkpt>
      <trkpt lat="47.75855" lon="1.96277">
        <ele>119</ele>
        <time>2017-07-30T07:26:51.331Z</time>
      </trkpt>
      <trkpt lat="47.75855" lon="1.96277">
        <ele>119</ele>
        <time>2017-07-30T07:26:52.321Z</time>
      </trkpt>
      <trkpt lat="47.75855" lon="1.96277">
        <ele>119</ele>
        <time>2017-07-30T07:26:53.325Z</time>
      </trkpt>
      <trkpt lat="47.7585" lon="1.96277">
        <ele>119</ele>
        <time>2017-07-30T07:26:54.336Z</time>
      </trkpt>
      <trkpt lat="47.7585" lon="1.96277">
        <ele>119</ele>
        <time>2017-07-30T07:26:55.326Z</time>
      </trkpt>
      <trkpt lat="47.7585" lon="1.96277">
        <ele>119</ele>
        <time>2017-07-30T07:26:56.336Z</time>
      </trkpt>
      <trkpt lat="47.75849" lon="1.9628">
        <ele>118</ele>
        <time>2017-07-30T07:26:57.333Z</time>
      </trkpt>
      <trkpt lat="47.7585" lon="1.96283">
        <ele>118</ele>
        <time>2017-07-30T07:26:58.326Z</time>
      </trkpt>
      <trkpt lat="47.7585" lon="1.96283">
        <ele>118</ele>
        <time>2017-07-30T07:26:59.328Z</time>
      </trkpt>
      <trkpt lat="47.75852" lon="1.96286">
        <ele>118</ele>
        <time>2017-07-30T07:27:00.324Z</time>
      </trkpt>
      <trkpt lat="47.75852" lon="1.96286">
        <ele>118</ele>
        <time>2017-07-30T07:27:01.327Z</time>
      </trkpt>
      <trkpt lat="47.75854" lon="1.96293">
        <ele>118</ele>
        <time>2017-07-30T07:27:02.337Z</time>
      </trkpt>
      <trkpt lat="47.75854" lon="1.96293">
        <ele>118</ele>
        <time>2017-07-30T07:27:03.326Z</time>
      </trkpt>
      <trkpt lat="47.75857" lon="1.96302">
        <ele>118</ele>
        <time>2017-07-30T07:27:04.325Z</time>
      </trkpt>
      <trkpt lat="47.75857" lon="1.96302">
        <ele>118</ele>
        <time>2017-07-30T07:27:05.328Z</time>
      </trkpt>
      <trkpt lat="47.75861" lon="1.96311">
        <ele>117</ele>
        <time>2017-07-30T07:27:06.322Z</time>
      </trkpt>
      <trkpt lat="47.75861" lon="1.96311">
        <ele>117</ele>
        <time>2017-07-30T07:27:07.327Z</time>
      </trkpt>
      <trkpt lat="47.75864" lon="1.9632">
        <ele>117</ele>
        <time>2017-07-30T07:27:08.337Z</time>
      </trkpt>
      <trkpt lat="47.75864" lon="1.9632">
        <ele>117</ele>
        <time>2017-07-30T07:27:09.328Z</time>
      </trkpt>
      <trkpt lat="47.75868" lon="1.96333">
        <ele>117</ele>
        <time>2017-07-30T07:27:10.342Z</time>
      </trkpt>
      <trkpt lat="47.75868" lon="1.96333">
        <ele>117</ele>
        <time>2017-07-30T07:27:11.334Z</time>
      </trkpt>
      <trkpt lat="47.75868" lon="1.96333">
        <ele>117</ele>
        <time>2017-07-30T07:27:12.328Z</time>
      </trkpt>
      <trkpt lat="47.75873" lon="1.96346">
        <ele>117</ele>
        <time>2017-07-30T07:27:13.333Z</time>
      </trkpt>
      <trkpt lat="47.75873" lon="1.96346">
        <ele>117</ele>
        <time>2017-07-30T07:27:14.319Z</time>
      </trkpt>
      <trkpt lat="47.75873" lon="1.96346">
        <ele>117</ele>
        <time>2017-07-30T07:27:15.323Z</time>
      </trkpt>
      <trkpt lat="47.75876" lon="1.96359">
        <ele>117</ele>
        <time>2017-07-30T07:27:16.336Z</time>
      </trkpt>
      <trkpt lat="47.75876" lon="1.96359">
        <ele>117</ele>
        <time>2017-07-30T07:27:17.320Z</time>
      </trkpt>
      <trkpt lat="47.75876" lon="1.96359">
        <ele>117</ele>
        <time>2017-07-30T07:27:18.324Z</time>
      </trkpt>
      <trkpt lat="47.7588" lon="1.96373">
        <ele>117</ele>
        <time>2017-07-30T07:27:19.338Z</time>
      </trkpt>
      <trkpt lat="47.7588" lon="1.96373">
        <ele>117</ele>
        <time>2017-07-30T07:27:20.322Z</time>
      </trkpt>
      <trkpt lat="47.75882" lon="1.96382">
        <ele>117</ele>
        <time>2017-07-30T07:27:21.324Z</time>
      </trkpt>
      <trkpt lat="47.75882" lon="1.96382">
        <ele>117</ele>
        <time>2017-07-30T07:27:22.319Z</time>
      </trkpt>
      <trkpt lat="47.75882" lon="1.96382">
        <ele>117</ele>
        <time>2017-07-30T07:27:23.325Z</time>
      </trkpt>
      <trkpt lat="47.75884" lon="1.96391">
        <ele>117</ele>
        <time>2017-07-30T07:27:24.361Z</time>
      </trkpt>
      <trkpt lat="47.75884" lon="1.96391">
        <ele>117</ele>
        <time>2017-07-30T07:27:25.325Z</time>
      </trkpt>
      <trkpt lat="47.75886" lon="1.96401">
        <ele>117</ele>
        <time>2017-07-30T07:27:26.316Z</time>
      </trkpt>
      <trkpt lat="47.75888" lon="1.96412">
        <ele>117</ele>
        <time>2017-07-30T07:27:27.322Z</time>
      </trkpt>
      <trkpt lat="47.75888" lon="1.96417">
        <ele>117</ele>
        <time>2017-07-30T07:27:28.328Z</time>
      </trkpt>
      <trkpt lat="47.75888" lon="1.96422">
        <ele>117</ele>
        <time>2017-07-30T07:27:29.335Z</time>
      </trkpt>
      <trkpt lat="47.75888" lon="1.96422">
        <ele>117</ele>
        <time>2017-07-30T07:27:30.322Z</time>
      </trkpt>
      <trkpt lat="47.75888" lon="1.96422">
        <ele>117</ele>
        <time>2017-07-30T07:27:31.325Z</time>
      </trkpt>
      <trkpt lat="47.75888" lon="1.96432">
        <ele>117</ele>
        <time>2017-07-30T07:27:32.338Z</time>
      </trkpt>
      <trkpt lat="47.75888" lon="1.96432">
        <ele>117</ele>
        <time>2017-07-30T07:27:33.331Z</time>
      </trkpt>
      <trkpt lat="47.75888" lon="1.96443">
        <ele>117</ele>
        <time>2017-07-30T07:27:34.337Z</time>
      </trkpt>
      <trkpt lat="47.75887" lon="1.96454">
        <ele>118</ele>
        <time>2017-07-30T07:27:35.334Z</time>
      </trkpt>
      <trkpt lat="47.75887" lon="1.96454">
        <ele>118</ele>
        <time>2017-07-30T07:27:36.321Z</time>
      </trkpt>
      <trkpt lat="47.75887" lon="1.96454">
        <ele>118</ele>
        <time>2017-07-30T07:27:37.325Z</time>
      </trkpt>
      <trkpt lat="47.75885" lon="1.96472">
        <ele>118</ele>
        <time>2017-07-30T07:27:38.339Z</time>
      </trkpt>
      <trkpt lat="47.75885" lon="1.96472">
        <ele>118</ele>
        <time>2017-07-30T07:27:39.321Z</time>
      </trkpt>
      <trkpt lat="47.75885" lon="1.96472">
        <ele>118</ele>
        <time>2017-07-30T07:27:40.324Z</time>
      </trkpt>
      <trkpt lat="47.75881" lon="1.96489">
        <ele>118</ele>
        <time>2017-07-30T07:27:41.333Z</time>
      </trkpt>
      <trkpt lat="47.75881" lon="1.96489">
        <ele>118</ele>
        <time>2017-07-30T07:27:42.319Z</time>
      </trkpt>
      <trkpt lat="47.75881" lon="1.96489">
        <ele>118</ele>
        <time>2017-07-30T07:27:43.325Z</time>
      </trkpt>
      <trkpt lat="47.75879" lon="1.965">
        <ele>119</ele>
        <time>2017-07-30T07:27:44.337Z</time>
      </trkpt>
      <trkpt lat="47.75879" lon="1.965">
        <ele>119</ele>
        <time>2017-07-30T07:27:45.326Z</time>
      </trkpt>
      <trkpt lat="47.75875" lon="1.96516">
        <ele>120</ele>
        <time>2017-07-30T07:27:46.348Z</time>
      </trkpt>
      <trkpt lat="47.75875" lon="1.96516">
        <ele>120</ele>
        <time>2017-07-30T07:27:47.333Z</time>
      </trkpt>
      <trkpt lat="47.75875" lon="1.96516">
        <ele>120</ele>
        <time>2017-07-30T07:27:48.329Z</time>
      </trkpt>
      <trkpt lat="47.75873" lon="1.96528">
        <ele>120</ele>
        <time>2017-07-30T07:27:49.335Z</time>
      </trkpt>
      <trkpt lat="47.75872" lon="1.9654">
        <ele>120</ele>
        <time>2017-07-30T07:27:50.326Z</time>
      </trkpt>
      <trkpt lat="47.75872" lon="1.9654">
        <ele>120</ele>
        <time>2017-07-30T07:27:51.324Z</time>
      </trkpt>
      <trkpt lat="47.75872" lon="1.9654">
        <ele>120</ele>
        <time>2017-07-30T07:27:52.327Z</time>
      </trkpt>
      <trkpt lat="47.75871" lon="1.96553">
        <ele>120</ele>
        <time>2017-07-30T07:27:53.335Z</time>
      </trkpt>
      <trkpt lat="47.7587" lon="1.96559">
        <ele>120</ele>
        <time>2017-07-30T07:27:54.340Z</time>
      </trkpt>
      <trkpt lat="47.7587" lon="1.96559">
        <ele>120</ele>
        <time>2017-07-30T07:27:55.332Z</time>
      </trkpt>
      <trkpt lat="47.75869" lon="1.96571">
        <ele>120</ele>
        <time>2017-07-30T07:27:56.337Z</time>
      </trkpt>
      <trkpt lat="47.75869" lon="1.96571">
        <ele>120</ele>
        <time>2017-07-30T07:27:57.327Z</time>
      </trkpt>
      <trkpt lat="47.75867" lon="1.96584">
        <ele>120</ele>
        <time>2017-07-30T07:27:58.330Z</time>
      </trkpt>
      <trkpt lat="47.75865" lon="1.96597">
        <ele>121</ele>
        <time>2017-07-30T07:27:59.337Z</time>
      </trkpt>
      <trkpt lat="47.75865" lon="1.96597">
        <ele>121</ele>
        <time>2017-07-30T07:28:00.325Z</time>
      </trkpt>
      <trkpt lat="47.75865" lon="1.96597">
        <ele>121</ele>
        <time>2017-07-30T07:28:01.328Z</time>
      </trkpt>
      <trkpt lat="47.75863" lon="1.9661">
        <ele>120</ele>
        <time>2017-07-30T07:28:02.324Z</time>
      </trkpt>
      <trkpt lat="47.75863" lon="1.9661">
        <ele>120</ele>
        <time>2017-07-30T07:28:03.323Z</time>
      </trkpt>
      <trkpt lat="47.75861" lon="1.96624">
        <ele>120</ele>
        <time>2017-07-30T07:28:04.337Z</time>
      </trkpt>
      <trkpt lat="47.75861" lon="1.96624">
        <ele>120</ele>
        <time>2017-07-30T07:28:05.327Z</time>
      </trkpt>
      <trkpt lat="47.75858" lon="1.96638">
        <ele>120</ele>
        <time>2017-07-30T07:28:06.333Z</time>
      </trkpt>
      <trkpt lat="47.75858" lon="1.96638">
        <ele>120</ele>
        <time>2017-07-30T07:28:07.329Z</time>
      </trkpt>
      <trkpt lat="47.75851" lon="1.9666">
        <ele>120</ele>
        <time>2017-07-30T07:28:08.335Z</time>
      </trkpt>
      <trkpt lat="47.75851" lon="1.9666">
        <ele>120</ele>
        <time>2017-07-30T07:28:09.322Z</time>
      </trkpt>
      <trkpt lat="47.75851" lon="1.9666">
        <ele>120</ele>
        <time>2017-07-30T07:28:10.324Z</time>
      </trkpt>
      <trkpt lat="47.75849" lon="1.96675">
        <ele>120</ele>
        <time>2017-07-30T07:28:11.322Z</time>
      </trkpt>
      <trkpt lat="47.75847" lon="1.96683">
        <ele>120</ele>
        <time>2017-07-30T07:28:12.338Z</time>
      </trkpt>
      <trkpt lat="47.75847" lon="1.96683">
        <ele>120</ele>
        <time>2017-07-30T07:28:13.327Z</time>
      </trkpt>
      <trkpt lat="47.75844" lon="1.96699">
        <ele>119</ele>
        <time>2017-07-30T07:28:14.332Z</time>
      </trkpt>
      <trkpt lat="47.75844" lon="1.96699">
        <ele>119</ele>
        <time>2017-07-30T07:28:15.336Z</time>
      </trkpt>
      <trkpt lat="47.75842" lon="1.96714">
        <ele>119</ele>
        <time>2017-07-30T07:28:16.323Z</time>
      </trkpt>
      <trkpt lat="47.75842" lon="1.96721">
        <ele>119</ele>
        <time>2017-07-30T07:28:17.337Z</time>
      </trkpt>
      <trkpt lat="47.75842" lon="1.96721">
        <ele>119</ele>
        <time>2017-07-30T07:28:18.329Z</time>
      </trkpt>
      <trkpt lat="47.75839" lon="1.96736">
        <ele>119</ele>
        <time>2017-07-30T07:28:19.358Z</time>
      </trkpt>
      <trkpt lat="47.75838" lon="1.96744">
        <ele>119</ele>
        <time>2017-07-30T07:28:20.326Z</time>
      </trkpt>
      <trkpt lat="47.75838" lon="1.96744">
        <ele>119</ele>
        <time>2017-07-30T07:28:21.323Z</time>
      </trkpt>
      <trkpt lat="47.75835" lon="1.96761">
        <ele>119</ele>
        <time>2017-07-30T07:28:22.326Z</time>
      </trkpt>
      <trkpt lat="47.75835" lon="1.96761">
        <ele>119</ele>
        <time>2017-07-30T07:28:23.325Z</time>
      </trkpt>
      <trkpt lat="47.75833" lon="1.96777">
        <ele>118</ele>
        <time>2017-07-30T07:28:24.350Z</time>
      </trkpt>
      <trkpt lat="47.7583" lon="1.96793">
        <ele>119</ele>
        <time>2017-07-30T07:28:25.321Z</time>
      </trkpt>
      <trkpt lat="47.7583" lon="1.96793">
        <ele>119</ele>
        <time>2017-07-30T07:28:26.330Z</time>
      </trkpt>
      <trkpt lat="47.75827" lon="1.96809">
        <ele>119</ele>
        <time>2017-07-30T07:28:27.336Z</time>
      </trkpt>
      <trkpt lat="47.75827" lon="1.96809">
        <ele>119</ele>
        <time>2017-07-30T07:28:28.325Z</time>
      </trkpt>
      <trkpt lat="47.75826" lon="1.96817">
        <ele>119</ele>
        <time>2017-07-30T07:28:29.338Z</time>
      </trkpt>
      <trkpt lat="47.75826" lon="1.96817">
        <ele>119</ele>
        <time>2017-07-30T07:28:30.330Z</time>
      </trkpt>
      <trkpt lat="47.75823" lon="1.96833">
        <ele>118</ele>
        <time>2017-07-30T07:28:31.336Z</time>
      </trkpt>
      <trkpt lat="47.75823" lon="1.96833">
        <ele>118</ele>
        <time>2017-07-30T07:28:32.339Z</time>
      </trkpt>
      <trkpt lat="47.7582" lon="1.96849">
        <ele>118</ele>
        <time>2017-07-30T07:28:33.330Z</time>
      </trkpt>
      <trkpt lat="47.75818" lon="1.96865">
        <ele>118</ele>
        <time>2017-07-30T07:28:34.335Z</time>
      </trkpt>
      <trkpt lat="47.75818" lon="1.96865">
        <ele>118</ele>
        <time>2017-07-30T07:28:35.326Z</time>
      </trkpt>
      <trkpt lat="47.75818" lon="1.96865">
        <ele>118</ele>
        <time>2017-07-30T07:28:36.324Z</time>
      </trkpt>
      <trkpt lat="47.75815" lon="1.96881">
        <ele>118</ele>
        <time>2017-07-30T07:28:37.339Z</time>
      </trkpt>
      <trkpt lat="47.75815" lon="1.96881">
        <ele>118</ele>
        <time>2017-07-30T07:28:38.327Z</time>
      </trkpt>
      <trkpt lat="47.75813" lon="1.96897">
        <ele>118</ele>
        <time>2017-07-30T07:28:39.327Z</time>
      </trkpt>
      <trkpt lat="47.75812" lon="1.96905">
        <ele>117</ele>
        <time>2017-07-30T07:28:40.327Z</time>
      </trkpt>
      <trkpt lat="47.7581" lon="1.96913">
        <ele>117</ele>
        <time>2017-07-30T07:28:41.327Z</time>
      </trkpt>
      <trkpt lat="47.7581" lon="1.96913">
        <ele>117</ele>
        <time>2017-07-30T07:28:42.323Z</time>
      </trkpt>
      <trkpt lat="47.75808" lon="1.96928">
        <ele>117</ele>
        <time>2017-07-30T07:28:43.347Z</time>
      </trkpt>
      <trkpt lat="47.75807" lon="1.96937">
        <ele>117</ele>
        <time>2017-07-30T07:28:44.331Z</time>
      </trkpt>
      <trkpt lat="47.75807" lon="1.96937">
        <ele>117</ele>
        <time>2017-07-30T07:28:45.328Z</time>
      </trkpt>
      <trkpt lat="47.75804" lon="1.96953">
        <ele>117</ele>
        <time>2017-07-30T07:28:46.324Z</time>
      </trkpt>
      <trkpt lat="47.75804" lon="1.96953">
        <ele>117</ele>
        <time>2017-07-30T07:28:47.329Z</time>
      </trkpt>
      <trkpt lat="47.75802" lon="1.96968">
        <ele>116</ele>
        <time>2017-07-30T07:28:48.323Z</time>
      </trkpt>
      <trkpt lat="47.75802" lon="1.96968">
        <ele>116</ele>
        <time>2017-07-30T07:28:49.324Z</time>
      </trkpt>
      <trkpt lat="47.75799" lon="1.96984">
        <ele>116</ele>
        <time>2017-07-30T07:28:50.318Z</time>
      </trkpt>
      <trkpt lat="47.75799" lon="1.96984">
        <ele>116</ele>
        <time>2017-07-30T07:28:51.323Z</time>
      </trkpt>
      <trkpt lat="47.75797" lon="1.97">
        <ele>116</ele>
        <time>2017-07-30T07:28:52.337Z</time>
      </trkpt>
      <trkpt lat="47.75797" lon="1.97">
        <ele>116</ele>
        <time>2017-07-30T07:28:53.326Z</time>
      </trkpt>
      <trkpt lat="47.75794" lon="1.97015">
        <ele>116</ele>
        <time>2017-07-30T07:28:54.319Z</time>
      </trkpt>
      <trkpt lat="47.75794" lon="1.97015">
        <ele>116</ele>
        <time>2017-07-30T07:28:55.325Z</time>
      </trkpt>
      <trkpt lat="47.75792" lon="1.9703">
        <ele>116</ele>
        <time>2017-07-30T07:28:56.344Z</time>
      </trkpt>
      <trkpt lat="47.7579" lon="1.97046">
        <ele>115</ele>
        <time>2017-07-30T07:28:57.334Z</time>
      </trkpt>
      <trkpt lat="47.7579" lon="1.97046">
        <ele>115</ele>
        <time>2017-07-30T07:28:58.320Z</time>
      </trkpt>
      <trkpt lat="47.7579" lon="1.97046">
        <ele>115</ele>
        <time>2017-07-30T07:28:59.324Z</time>
      </trkpt>
      <trkpt lat="47.75787" lon="1.97061">
        <ele>115</ele>
        <time>2017-07-30T07:29:00.342Z</time>
      </trkpt>
      <trkpt lat="47.75784" lon="1.97077">
        <ele>115</ele>
        <time>2017-07-30T07:29:01.333Z</time>
      </trkpt>
      <trkpt lat="47.75784" lon="1.97077">
        <ele>115</ele>
        <time>2017-07-30T07:29:02.321Z</time>
      </trkpt>
      <trkpt lat="47.75784" lon="1.97077">
        <ele>115</ele>
        <time>2017-07-30T07:29:03.323Z</time>
      </trkpt>
      <trkpt lat="47.7578" lon="1.97101">
        <ele>115</ele>
        <time>2017-07-30T07:29:04.337Z</time>
      </trkpt>
      <trkpt lat="47.7578" lon="1.97101">
        <ele>115</ele>
        <time>2017-07-30T07:29:05.322Z</time>
      </trkpt>
      <trkpt lat="47.7578" lon="1.97101">
        <ele>115</ele>
        <time>2017-07-30T07:29:06.338Z</time>
      </trkpt>
      <trkpt lat="47.75777" lon="1.97117">
        <ele>115</ele>
        <time>2017-07-30T07:29:07.325Z</time>
      </trkpt>
      <trkpt lat="47.75776" lon="1.97124">
        <ele>115</ele>
        <time>2017-07-30T07:29:08.339Z</time>
      </trkpt>
      <trkpt lat="47.75776" lon="1.97124">
        <ele>115</ele>
        <time>2017-07-30T07:29:09.329Z</time>
      </trkpt>
      <trkpt lat="47.75773" lon="1.9714">
        <ele>115</ele>
        <time>2017-07-30T07:29:10.335Z</time>
      </trkpt>
      <trkpt lat="47.7577" lon="1.97155">
        <ele>115</ele>
        <time>2017-07-30T07:29:11.335Z</time>
      </trkpt>
      <trkpt lat="47.7577" lon="1.97155">
        <ele>115</ele>
        <time>2017-07-30T07:29:12.321Z</time>
      </trkpt>
      <trkpt lat="47.7577" lon="1.97155">
        <ele>115</ele>
        <time>2017-07-30T07:29:13.325Z</time>
      </trkpt>
      <trkpt lat="47.75768" lon="1.9717">
        <ele>114</ele>
        <time>2017-07-30T07:29:14.338Z</time>
      </trkpt>
      <trkpt lat="47.75768" lon="1.9717">
        <ele>114</ele>
        <time>2017-07-30T07:29:15.327Z</time>
      </trkpt>
      <trkpt lat="47.75766" lon="1.97185">
        <ele>114</ele>
        <time>2017-07-30T07:29:16.320Z</time>
      </trkpt>
      <trkpt lat="47.75766" lon="1.97185">
        <ele>114</ele>
        <time>2017-07-30T07:29:17.324Z</time>
      </trkpt>
      <trkpt lat="47.75765" lon="1.97198">
        <ele>114</ele>
        <time>2017-07-30T07:29:18.347Z</time>
      </trkpt>
      <trkpt lat="47.75763" lon="1.9721">
        <ele>114</ele>
        <time>2017-07-30T07:29:19.334Z</time>
      </trkpt>
      <trkpt lat="47.75763" lon="1.9721">
        <ele>114</ele>
        <time>2017-07-30T07:29:20.325Z</time>
      </trkpt>
      <trkpt lat="47.75763" lon="1.97216">
        <ele>114</ele>
        <time>2017-07-30T07:29:21.327Z</time>
      </trkpt>
      <trkpt lat="47.75762" lon="1.97222">
        <ele>114</ele>
        <time>2017-07-30T07:29:22.344Z</time>
      </trkpt>
      <trkpt lat="47.75761" lon="1.97234">
        <ele>114</ele>
        <time>2017-07-30T07:29:23.334Z</time>
      </trkpt>
      <trkpt lat="47.75761" lon="1.97234">
        <ele>114</ele>
        <time>2017-07-30T07:29:24.322Z</time>
      </trkpt>
      <trkpt lat="47.7576" lon="1.97247">
        <ele>114</ele>
        <time>2017-07-30T07:29:25.339Z</time>
      </trkpt>
      <trkpt lat="47.7576" lon="1.97247">
        <ele>114</ele>
        <time>2017-07-30T07:29:26.325Z</time>
      </trkpt>
      <trkpt lat="47.7576" lon="1.97247">
        <ele>114</ele>
        <time>2017-07-30T07:29:27.328Z</time>
      </trkpt>
      <trkpt lat="47.75759" lon="1.9726">
        <ele>114</ele>
        <time>2017-07-30T07:29:28.325Z</time>
      </trkpt>
      <trkpt lat="47.75759" lon="1.9726">
        <ele>114</ele>
        <time>2017-07-30T07:29:29.329Z</time>
      </trkpt>
      <trkpt lat="47.75758" lon="1.97273">
        <ele>114</ele>
        <time>2017-07-30T07:29:30.325Z</time>
      </trkpt>
      <trkpt lat="47.75758" lon="1.97273">
        <ele>114</ele>
        <time>2017-07-30T07:29:31.328Z</time>
      </trkpt>
      <trkpt lat="47.75757" lon="1.97286">
        <ele>114</ele>
        <time>2017-07-30T07:29:32.322Z</time>
      </trkpt>
      <trkpt lat="47.75757" lon="1.97286">
        <ele>114</ele>
        <time>2017-07-30T07:29:33.327Z</time>
      </trkpt>
      <trkpt lat="47.75755" lon="1.973">
        <ele>114</ele>
        <time>2017-07-30T07:29:34.325Z</time>
      </trkpt>
      <trkpt lat="47.75755" lon="1.973">
        <ele>114</ele>
        <time>2017-07-30T07:29:35.329Z</time>
      </trkpt>
      <trkpt lat="47.75755" lon="1.97314">
        <ele>114</ele>
        <time>2017-07-30T07:29:36.326Z</time>
      </trkpt>
      <trkpt lat="47.75755" lon="1.97314">
        <ele>114</ele>
        <time>2017-07-30T07:29:37.324Z</time>
      </trkpt>
      <trkpt lat="47.75753" lon="1.97328">
        <ele>114</ele>
        <time>2017-07-30T07:29:38.339Z</time>
      </trkpt>
      <trkpt lat="47.75753" lon="1.97328">
        <ele>114</ele>
        <time>2017-07-30T07:29:39.330Z</time>
      </trkpt>
      <trkpt lat="47.75752" lon="1.97343">
        <ele>114</ele>
        <time>2017-07-30T07:29:40.336Z</time>
      </trkpt>
      <trkpt lat="47.75751" lon="1.97357">
        <ele>114</ele>
        <time>2017-07-30T07:29:41.335Z</time>
      </trkpt>
      <trkpt lat="47.75751" lon="1.97357">
        <ele>114</ele>
        <time>2017-07-30T07:29:42.320Z</time>
      </trkpt>
      <trkpt lat="47.75751" lon="1.97357">
        <ele>114</ele>
        <time>2017-07-30T07:29:43.325Z</time>
      </trkpt>
      <trkpt lat="47.7575" lon="1.97372">
        <ele>114</ele>
        <time>2017-07-30T07:29:44.337Z</time>
      </trkpt>
      <trkpt lat="47.7575" lon="1.97372">
        <ele>114</ele>
        <time>2017-07-30T07:29:45.326Z</time>
      </trkpt>
      <trkpt lat="47.7575" lon="1.97387">
        <ele>114</ele>
        <time>2017-07-30T07:29:46.319Z</time>
      </trkpt>
      <trkpt lat="47.7575" lon="1.97387">
        <ele>114</ele>
        <time>2017-07-30T07:29:47.324Z</time>
      </trkpt>
      <trkpt lat="47.7575" lon="1.97402">
        <ele>114</ele>
        <time>2017-07-30T07:29:48.339Z</time>
      </trkpt>
      <trkpt lat="47.75751" lon="1.97417">
        <ele>114</ele>
        <time>2017-07-30T07:29:49.335Z</time>
      </trkpt>
      <trkpt lat="47.75751" lon="1.97417">
        <ele>114</ele>
        <time>2017-07-30T07:29:50.319Z</time>
      </trkpt>
      <trkpt lat="47.75751" lon="1.97417">
        <ele>114</ele>
        <time>2017-07-30T07:29:51.322Z</time>
      </trkpt>
      <trkpt lat="47.75752" lon="1.97432">
        <ele>114</ele>
        <time>2017-07-30T07:29:52.338Z</time>
      </trkpt>
      <trkpt lat="47.75752" lon="1.97432">
        <ele>114</ele>
        <time>2017-07-30T07:29:53.330Z</time>
      </trkpt>
      <trkpt lat="47.75754" lon="1.97447">
        <ele>114</ele>
        <time>2017-07-30T07:29:54.341Z</time>
      </trkpt>
      <trkpt lat="47.75755" lon="1.97454">
        <ele>113</ele>
        <time>2017-07-30T07:29:55.335Z</time>
      </trkpt>
      <trkpt lat="47.75755" lon="1.97454">
        <ele>113</ele>
        <time>2017-07-30T07:29:56.326Z</time>
      </trkpt>
      <trkpt lat="47.75757" lon="1.97468">
        <ele>113</ele>
        <time>2017-07-30T07:29:57.332Z</time>
      </trkpt>
      <trkpt lat="47.75759" lon="1.97483">
        <ele>113</ele>
        <time>2017-07-30T07:29:58.334Z</time>
      </trkpt>
      <trkpt lat="47.75759" lon="1.97483">
        <ele>113</ele>
        <time>2017-07-30T07:29:59.323Z</time>
      </trkpt>
      <trkpt lat="47.7576" lon="1.97491">
        <ele>113</ele>
        <time>2017-07-30T07:30:00.325Z</time>
      </trkpt>
      <trkpt lat="47.75762" lon="1.97506">
        <ele>113</ele>
        <time>2017-07-30T07:30:01.339Z</time>
      </trkpt>
      <trkpt lat="47.75762" lon="1.97506">
        <ele>113</ele>
        <time>2017-07-30T07:30:02.326Z</time>
      </trkpt>
      <trkpt lat="47.75762" lon="1.97506">
        <ele>113</ele>
        <time>2017-07-30T07:30:03.325Z</time>
      </trkpt>
      <trkpt lat="47.75765" lon="1.97521">
        <ele>113</ele>
        <time>2017-07-30T07:30:04.320Z</time>
      </trkpt>
      <trkpt lat="47.75765" lon="1.97521">
        <ele>113</ele>
        <time>2017-07-30T07:30:05.325Z</time>
      </trkpt>
      <trkpt lat="47.75767" lon="1.97536">
        <ele>113</ele>
        <time>2017-07-30T07:30:06.318Z</time>
      </trkpt>
      <trkpt lat="47.75767" lon="1.97536">
        <ele>113</ele>
        <time>2017-07-30T07:30:07.324Z</time>
      </trkpt>
      <trkpt lat="47.75769" lon="1.97552">
        <ele>113</ele>
        <time>2017-07-30T07:30:08.314Z</time>
      </trkpt>
      <trkpt lat="47.75772" lon="1.97567">
        <ele>112</ele>
        <time>2017-07-30T07:30:09.337Z</time>
      </trkpt>
      <trkpt lat="47.75772" lon="1.97567">
        <ele>112</ele>
        <time>2017-07-30T07:30:10.331Z</time>
      </trkpt>
      <trkpt lat="47.75774" lon="1.97583">
        <ele>112</ele>
        <time>2017-07-30T07:30:11.337Z</time>
      </trkpt>
      <trkpt lat="47.75774" lon="1.97583">
        <ele>112</ele>
        <time>2017-07-30T07:30:12.321Z</time>
      </trkpt>
      <trkpt lat="47.75774" lon="1.97583">
        <ele>112</ele>
        <time>2017-07-30T07:30:13.324Z</time>
      </trkpt>
      <trkpt lat="47.75777" lon="1.97599">
        <ele>112</ele>
        <time>2017-07-30T07:30:14.337Z</time>
      </trkpt>
      <trkpt lat="47.75777" lon="1.97599">
        <ele>112</ele>
        <time>2017-07-30T07:30:15.326Z</time>
      </trkpt>
      <trkpt lat="47.7578" lon="1.97622">
        <ele>112</ele>
        <time>2017-07-30T07:30:16.338Z</time>
      </trkpt>
      <trkpt lat="47.7578" lon="1.97622">
        <ele>112</ele>
        <time>2017-07-30T07:30:17.336Z</time>
      </trkpt>
      <trkpt lat="47.75782" lon="1.9763">
        <ele>112</ele>
        <time>2017-07-30T07:30:18.317Z</time>
      </trkpt>
      <trkpt lat="47.75785" lon="1.97645">
        <ele>112</ele>
        <time>2017-07-30T07:30:19.338Z</time>
      </trkpt>
      <trkpt lat="47.75785" lon="1.97645">
        <ele>112</ele>
        <time>2017-07-30T07:30:20.340Z</time>
      </trkpt>
      <trkpt lat="47.75786" lon="1.97653">
        <ele>112</ele>
        <time>2017-07-30T07:30:21.326Z</time>
      </trkpt>
      <trkpt lat="47.75786" lon="1.97653">
        <ele>112</ele>
        <time>2017-07-30T07:30:22.346Z</time>
      </trkpt>
      <trkpt lat="47.75789" lon="1.97668">
        <ele>112</ele>
        <time>2017-07-30T07:30:23.325Z</time>
      </trkpt>
      <trkpt lat="47.75792" lon="1.97683">
        <ele>112</ele>
        <time>2017-07-30T07:30:24.321Z</time>
      </trkpt>
      <trkpt lat="47.75792" lon="1.97683">
        <ele>112</ele>
        <time>2017-07-30T07:30:25.348Z</time>
      </trkpt>
      <trkpt lat="47.75792" lon="1.97683">
        <ele>112</ele>
        <time>2017-07-30T07:30:26.316Z</time>
      </trkpt>
      <trkpt lat="47.75795" lon="1.97699">
        <ele>112</ele>
        <time>2017-07-30T07:30:27.323Z</time>
      </trkpt>
      <trkpt lat="47.75798" lon="1.97716">
        <ele>112</ele>
        <time>2017-07-30T07:30:28.334Z</time>
      </trkpt>
      <trkpt lat="47.758" lon="1.97724">
        <ele>111</ele>
        <time>2017-07-30T07:30:29.340Z</time>
      </trkpt>
      <trkpt lat="47.758" lon="1.97724">
        <ele>111</ele>
        <time>2017-07-30T07:30:30.315Z</time>
      </trkpt>
      <trkpt lat="47.758" lon="1.97724">
        <ele>111</ele>
        <time>2017-07-30T07:30:31.325Z</time>
      </trkpt>
      <trkpt lat="47.75802" lon="1.9774">
        <ele>111</ele>
        <time>2017-07-30T07:30:32.344Z</time>
      </trkpt>
      <trkpt lat="47.75802" lon="1.9774">
        <ele>111</ele>
        <time>2017-07-30T07:30:33.341Z</time>
      </trkpt>
      <trkpt lat="47.75805" lon="1.97757">
        <ele>111</ele>
        <time>2017-07-30T07:30:34.330Z</time>
      </trkpt>
      <trkpt lat="47.75805" lon="1.97757">
        <ele>111</ele>
        <time>2017-07-30T07:30:35.327Z</time>
      </trkpt>
      <trkpt lat="47.75809" lon="1.97772">
        <ele>111</ele>
        <time>2017-07-30T07:30:36.318Z</time>
      </trkpt>
      <trkpt lat="47.75809" lon="1.97772">
        <ele>111</ele>
        <time>2017-07-30T07:30:37.322Z</time>
      </trkpt>
      <trkpt lat="47.75812" lon="1.97789">
        <ele>111</ele>
        <time>2017-07-30T07:30:38.338Z</time>
      </trkpt>
      <trkpt lat="47.75812" lon="1.97789">
        <ele>111</ele>
        <time>2017-07-30T07:30:39.326Z</time>
      </trkpt>
      <trkpt lat="47.75815" lon="1.97806">
        <ele>111</ele>
        <time>2017-07-30T07:30:40.339Z</time>
      </trkpt>
      <trkpt lat="47.75815" lon="1.97806">
        <ele>111</ele>
        <time>2017-07-30T07:30:41.330Z</time>
      </trkpt>
      <trkpt lat="47.75818" lon="1.97822">
        <ele>111</ele>
        <time>2017-07-30T07:30:42.322Z</time>
      </trkpt>
      <trkpt lat="47.75818" lon="1.97822">
        <ele>111</ele>
        <time>2017-07-30T07:30:43.325Z</time>
      </trkpt>
      <trkpt lat="47.75821" lon="1.9784">
        <ele>111</ele>
        <time>2017-07-30T07:30:44.348Z</time>
      </trkpt>
      <trkpt lat="47.75823" lon="1.97857">
        <ele>111</ele>
        <time>2017-07-30T07:30:45.336Z</time>
      </trkpt>
      <trkpt lat="47.75823" lon="1.97857">
        <ele>111</ele>
        <time>2017-07-30T07:30:46.322Z</time>
      </trkpt>
      <trkpt lat="47.75824" lon="1.97866">
        <ele>111</ele>
        <time>2017-07-30T07:30:47.338Z</time>
      </trkpt>
      <trkpt lat="47.75824" lon="1.97866">
        <ele>111</ele>
        <time>2017-07-30T07:30:48.330Z</time>
      </trkpt>
      <trkpt lat="47.75827" lon="1.97883">
        <ele>111</ele>
        <time>2017-07-30T07:30:49.335Z</time>
      </trkpt>
      <trkpt lat="47.75827" lon="1.97883">
        <ele>111</ele>
        <time>2017-07-30T07:30:50.327Z</time>
      </trkpt>
      <trkpt lat="47.75829" lon="1.97899">
        <ele>111</ele>
        <time>2017-07-30T07:30:51.332Z</time>
      </trkpt>
      <trkpt lat="47.75829" lon="1.97899">
        <ele>111</ele>
        <time>2017-07-30T07:30:52.324Z</time>
      </trkpt>
      <trkpt lat="47.75831" lon="1.97916">
        <ele>111</ele>
        <time>2017-07-30T07:30:53.337Z</time>
      </trkpt>
      <trkpt lat="47.75831" lon="1.97916">
        <ele>111</ele>
        <time>2017-07-30T07:30:54.329Z</time>
      </trkpt>
      <trkpt lat="47.75834" lon="1.97932">
        <ele>110</ele>
        <time>2017-07-30T07:30:55.321Z</time>
      </trkpt>
      <trkpt lat="47.75834" lon="1.97932">
        <ele>110</ele>
        <time>2017-07-30T07:30:56.324Z</time>
      </trkpt>
      <trkpt lat="47.75837" lon="1.97949">
        <ele>110</ele>
        <time>2017-07-30T07:30:57.338Z</time>
      </trkpt>
      <trkpt lat="47.75837" lon="1.97949">
        <ele>110</ele>
        <time>2017-07-30T07:30:58.329Z</time>
      </trkpt>
      <trkpt lat="47.75841" lon="1.97974">
        <ele>110</ele>
        <time>2017-07-30T07:30:59.334Z</time>
      </trkpt>
      <trkpt lat="47.75841" lon="1.97974">
        <ele>110</ele>
        <time>2017-07-30T07:31:00.322Z</time>
      </trkpt>
      <trkpt lat="47.75841" lon="1.97974">
        <ele>110</ele>
        <time>2017-07-30T07:31:01.325Z</time>
      </trkpt>
      <trkpt lat="47.75843" lon="1.97992">
        <ele>110</ele>
        <time>2017-07-30T07:31:02.318Z</time>
      </trkpt>
      <trkpt lat="47.75843" lon="1.97992">
        <ele>110</ele>
        <time>2017-07-30T07:31:03.324Z</time>
      </trkpt>
      <trkpt lat="47.75848" lon="1.98017">
        <ele>109</ele>
        <time>2017-07-30T07:31:04.339Z</time>
      </trkpt>
      <trkpt lat="47.75848" lon="1.98017">
        <ele>109</ele>
        <time>2017-07-30T07:31:05.333Z</time>
      </trkpt>
      <trkpt lat="47.75848" lon="1.98017">
        <ele>109</ele>
        <time>2017-07-30T07:31:06.327Z</time>
      </trkpt>
      <trkpt lat="47.75849" lon="1.98034">
        <ele>109</ele>
        <time>2017-07-30T07:31:07.325Z</time>
      </trkpt>
      <trkpt lat="47.75849" lon="1.98034">
        <ele>109</ele>
        <time>2017-07-30T07:31:08.327Z</time>
      </trkpt>
      <trkpt lat="47.75853" lon="1.98057">
        <ele>109</ele>
        <time>2017-07-30T07:31:09.340Z</time>
      </trkpt>
      <trkpt lat="47.75853" lon="1.98057">
        <ele>109</ele>
        <time>2017-07-30T07:31:10.325Z</time>
      </trkpt>
      <trkpt lat="47.75853" lon="1.98057">
        <ele>109</ele>
        <time>2017-07-30T07:31:11.330Z</time>
      </trkpt>
      <trkpt lat="47.75856" lon="1.98073">
        <ele>109</ele>
        <time>2017-07-30T07:31:12.325Z</time>
      </trkpt>
      <trkpt lat="47.75856" lon="1.98073">
        <ele>109</ele>
        <time>2017-07-30T07:31:13.327Z</time>
      </trkpt>
      <trkpt lat="47.7586" lon="1.98089">
        <ele>109</ele>
        <time>2017-07-30T07:31:14.327Z</time>
      </trkpt>
      <trkpt lat="47.7586" lon="1.98089">
        <ele>109</ele>
        <time>2017-07-30T07:31:15.324Z</time>
      </trkpt>
      <trkpt lat="47.75863" lon="1.98107">
        <ele>108</ele>
        <time>2017-07-30T07:31:16.338Z</time>
      </trkpt>
      <trkpt lat="47.75863" lon="1.98107">
        <ele>108</ele>
        <time>2017-07-30T07:31:17.330Z</time>
      </trkpt>
      <trkpt lat="47.75866" lon="1.98126">
        <ele>108</ele>
        <time>2017-07-30T07:31:18.389Z</time>
      </trkpt>
      <trkpt lat="47.75868" lon="1.98135">
        <ele>108</ele>
        <time>2017-07-30T07:31:19.337Z</time>
      </trkpt>
      <trkpt lat="47.75868" lon="1.98135">
        <ele>108</ele>
        <time>2017-07-30T07:31:20.327Z</time>
      </trkpt>
      <trkpt lat="47.75871" lon="1.98153">
        <ele>108</ele>
        <time>2017-07-30T07:31:21.338Z</time>
      </trkpt>
      <trkpt lat="47.75871" lon="1.98153">
        <ele>108</ele>
        <time>2017-07-30T07:31:22.325Z</time>
      </trkpt>
      <trkpt lat="47.75874" lon="1.98171">
        <ele>108</ele>
        <time>2017-07-30T07:31:23.323Z</time>
      </trkpt>
      <trkpt lat="47.75874" lon="1.98171">
        <ele>108</ele>
        <time>2017-07-30T07:31:24.324Z</time>
      </trkpt>
      <trkpt lat="47.75872" lon="1.98189">
        <ele>109</ele>
        <time>2017-07-30T07:31:25.325Z</time>
      </trkpt>
      <trkpt lat="47.75872" lon="1.98198">
        <ele>109</ele>
        <time>2017-07-30T07:31:26.338Z</time>
      </trkpt>
      <trkpt lat="47.75872" lon="1.98198">
        <ele>109</ele>
        <time>2017-07-30T07:31:27.329Z</time>
      </trkpt>
      <trkpt lat="47.7587" lon="1.98216">
        <ele>110</ele>
        <time>2017-07-30T07:31:28.335Z</time>
      </trkpt>
      <trkpt lat="47.7587" lon="1.98216">
        <ele>110</ele>
        <time>2017-07-30T07:31:29.327Z</time>
      </trkpt>
      <trkpt lat="47.7587" lon="1.98233">
        <ele>111</ele>
        <time>2017-07-30T07:31:30.319Z</time>
      </trkpt>
      <trkpt lat="47.7587" lon="1.98233">
        <ele>111</ele>
        <time>2017-07-30T07:31:31.325Z</time>
      </trkpt>
      <trkpt lat="47.7587" lon="1.98253">
        <ele>111</ele>
        <time>2017-07-30T07:31:32.322Z</time>
      </trkpt>
      <trkpt lat="47.7587" lon="1.98253">
        <ele>111</ele>
        <time>2017-07-30T07:31:33.322Z</time>
      </trkpt>
      <trkpt lat="47.75871" lon="1.98274">
        <ele>112</ele>
        <time>2017-07-30T07:31:34.324Z</time>
      </trkpt>
      <trkpt lat="47.75872" lon="1.98298">
        <ele>112</ele>
        <time>2017-07-30T07:31:35.337Z</time>
      </trkpt>
      <trkpt lat="47.75872" lon="1.98298">
        <ele>112</ele>
        <time>2017-07-30T07:31:36.322Z</time>
      </trkpt>
      <trkpt lat="47.75872" lon="1.98298">
        <ele>112</ele>
        <time>2017-07-30T07:31:37.325Z</time>
      </trkpt>
      <trkpt lat="47.75877" lon="1.98324">
        <ele>113</ele>
        <time>2017-07-30T07:31:38.337Z</time>
      </trkpt>
      <trkpt lat="47.75877" lon="1.9835">
        <ele>113</ele>
        <time>2017-07-30T07:31:39.329Z</time>
      </trkpt>
      <trkpt lat="47.75877" lon="1.9835">
        <ele>113</ele>
        <time>2017-07-30T07:31:40.326Z</time>
      </trkpt>
      <trkpt lat="47.75878" lon="1.98362">
        <ele>114</ele>
        <time>2017-07-30T07:31:41.332Z</time>
      </trkpt>
      <trkpt lat="47.75878" lon="1.98362">
        <ele>114</ele>
        <time>2017-07-30T07:31:42.323Z</time>
      </trkpt>
      <trkpt lat="47.75879" lon="1.98397">
        <ele>114</ele>
        <time>2017-07-30T07:31:43.337Z</time>
      </trkpt>
      <trkpt lat="47.75879" lon="1.98397">
        <ele>114</ele>
        <time>2017-07-30T07:31:44.321Z</time>
      </trkpt>
      <trkpt lat="47.75879" lon="1.98397">
        <ele>114</ele>
        <time>2017-07-30T07:31:45.325Z</time>
      </trkpt>
      <trkpt lat="47.75879" lon="1.98419">
        <ele>114</ele>
        <time>2017-07-30T07:31:46.338Z</time>
      </trkpt>
      <trkpt lat="47.75879" lon="1.98419">
        <ele>114</ele>
        <time>2017-07-30T07:31:47.326Z</time>
      </trkpt>
      <trkpt lat="47.75881" lon="1.98439">
        <ele>114</ele>
        <time>2017-07-30T07:31:48.341Z</time>
      </trkpt>
      <trkpt lat="47.75881" lon="1.98439">
        <ele>114</ele>
        <time>2017-07-30T07:31:49.368Z</time>
      </trkpt>
      <trkpt lat="47.75887" lon="1.98456">
        <ele>115</ele>
        <time>2017-07-30T07:31:50.322Z</time>
      </trkpt>
      <trkpt lat="47.75887" lon="1.98456">
        <ele>115</ele>
        <time>2017-07-30T07:31:51.323Z</time>
      </trkpt>
      <trkpt lat="47.75897" lon="1.9848">
        <ele>115</ele>
        <time>2017-07-30T07:31:52.337Z</time>
      </trkpt>
      <trkpt lat="47.75897" lon="1.9848">
        <ele>115</ele>
        <time>2017-07-30T07:31:53.326Z</time>
      </trkpt>
      <trkpt lat="47.759" lon="1.98488">
        <ele>116</ele>
        <time>2017-07-30T07:31:54.339Z</time>
      </trkpt>
      <trkpt lat="47.759" lon="1.98488">
        <ele>116</ele>
        <time>2017-07-30T07:31:55.328Z</time>
      </trkpt>
      <trkpt lat="47.75911" lon="1.98512">
        <ele>116</ele>
        <time>2017-07-30T07:31:56.339Z</time>
      </trkpt>
      <trkpt lat="47.75911" lon="1.98512">
        <ele>116</ele>
        <time>2017-07-30T07:31:57.327Z</time>
      </trkpt>
      <trkpt lat="47.75914" lon="1.9852">
        <ele>116</ele>
        <time>2017-07-30T07:31:58.348Z</time>
      </trkpt>
      <trkpt lat="47.75921" lon="1.98534">
        <ele>116</ele>
        <time>2017-07-30T07:31:59.338Z</time>
      </trkpt>
      <trkpt lat="47.75921" lon="1.98534">
        <ele>116</ele>
        <time>2017-07-30T07:32:00.325Z</time>
      </trkpt>
      <trkpt lat="47.75921" lon="1.98534">
        <ele>116</ele>
        <time>2017-07-30T07:32:01.325Z</time>
      </trkpt>
      <trkpt lat="47.75927" lon="1.98549">
        <ele>116</ele>
        <time>2017-07-30T07:32:02.325Z</time>
      </trkpt>
      <trkpt lat="47.75927" lon="1.98549">
        <ele>116</ele>
        <time>2017-07-30T07:32:03.328Z</time>
      </trkpt>
      <trkpt lat="47.75933" lon="1.98563">
        <ele>116</ele>
        <time>2017-07-30T07:32:04.345Z</time>
      </trkpt>
      <trkpt lat="47.7594" lon="1.98577">
        <ele>116</ele>
        <time>2017-07-30T07:32:05.338Z</time>
      </trkpt>
      <trkpt lat="47.7594" lon="1.98577">
        <ele>116</ele>
        <time>2017-07-30T07:32:06.330Z</time>
      </trkpt>
      <trkpt lat="47.75946" lon="1.9859">
        <ele>117</ele>
        <time>2017-07-30T07:32:07.335Z</time>
      </trkpt>
      <trkpt lat="47.75946" lon="1.9859">
        <ele>117</ele>
        <time>2017-07-30T07:32:08.322Z</time>
      </trkpt>
      <trkpt lat="47.75946" lon="1.9859">
        <ele>117</ele>
        <time>2017-07-30T07:32:09.320Z</time>
      </trkpt>
      <trkpt lat="47.75955" lon="1.98611">
        <ele>116</ele>
        <time>2017-07-30T07:32:10.338Z</time>
      </trkpt>
      <trkpt lat="47.75955" lon="1.98611">
        <ele>116</ele>
        <time>2017-07-30T07:32:11.339Z</time>
      </trkpt>
      <trkpt lat="47.75955" lon="1.98611">
        <ele>116</ele>
        <time>2017-07-30T07:32:12.329Z</time>
      </trkpt>
      <trkpt lat="47.75964" lon="1.98631">
        <ele>117</ele>
        <time>2017-07-30T07:32:13.334Z</time>
      </trkpt>
      <trkpt lat="47.75964" lon="1.98631">
        <ele>117</ele>
        <time>2017-07-30T07:32:14.319Z</time>
      </trkpt>
      <trkpt lat="47.75964" lon="1.98631">
        <ele>117</ele>
        <time>2017-07-30T07:32:15.325Z</time>
      </trkpt>
      <trkpt lat="47.7597" lon="1.98645">
        <ele>117</ele>
        <time>2017-07-30T07:32:16.318Z</time>
      </trkpt>
      <trkpt lat="47.7597" lon="1.98645">
        <ele>117</ele>
        <time>2017-07-30T07:32:17.325Z</time>
      </trkpt>
      <trkpt lat="47.75977" lon="1.9866">
        <ele>116</ele>
        <time>2017-07-30T07:32:18.339Z</time>
      </trkpt>
      <trkpt lat="47.75983" lon="1.98674">
        <ele>116</ele>
        <time>2017-07-30T07:32:19.328Z</time>
      </trkpt>
      <trkpt lat="47.75983" lon="1.98674">
        <ele>116</ele>
        <time>2017-07-30T07:32:20.326Z</time>
      </trkpt>
      <trkpt lat="47.75986" lon="1.98681">
        <ele>117</ele>
        <time>2017-07-30T07:32:21.339Z</time>
      </trkpt>
      <trkpt lat="47.75986" lon="1.98681">
        <ele>117</ele>
        <time>2017-07-30T07:32:22.338Z</time>
      </trkpt>
      <trkpt lat="47.75991" lon="1.98695">
        <ele>117</ele>
        <time>2017-07-30T07:32:23.330Z</time>
      </trkpt>
      <trkpt lat="47.75994" lon="1.98702">
        <ele>117</ele>
        <time>2017-07-30T07:32:24.319Z</time>
      </trkpt>
      <trkpt lat="47.75994" lon="1.98702">
        <ele>117</ele>
        <time>2017-07-30T07:32:25.326Z</time>
      </trkpt>
      <trkpt lat="47.76" lon="1.98716">
        <ele>117</ele>
        <time>2017-07-30T07:32:26.314Z</time>
      </trkpt>
      <trkpt lat="47.76" lon="1.98716">
        <ele>117</ele>
        <time>2017-07-30T07:32:27.325Z</time>
      </trkpt>
      <trkpt lat="47.76006" lon="1.98729">
        <ele>116</ele>
        <time>2017-07-30T07:32:28.340Z</time>
      </trkpt>
      <trkpt lat="47.76006" lon="1.98729">
        <ele>116</ele>
        <time>2017-07-30T07:32:29.343Z</time>
      </trkpt>
      <trkpt lat="47.76014" lon="1.98748">
        <ele>116</ele>
        <time>2017-07-30T07:32:30.339Z</time>
      </trkpt>
      <trkpt lat="47.76014" lon="1.98748">
        <ele>116</ele>
        <time>2017-07-30T07:32:31.324Z</time>
      </trkpt>
      <trkpt lat="47.76017" lon="1.98755">
        <ele>116</ele>
        <time>2017-07-30T07:32:32.337Z</time>
      </trkpt>
      <trkpt lat="47.76017" lon="1.98755">
        <ele>116</ele>
        <time>2017-07-30T07:32:33.330Z</time>
      </trkpt>
      <trkpt lat="47.76022" lon="1.98767">
        <ele>116</ele>
        <time>2017-07-30T07:32:34.335Z</time>
      </trkpt>
      <trkpt lat="47.76027" lon="1.98778">
        <ele>116</ele>
        <time>2017-07-30T07:32:35.338Z</time>
      </trkpt>
      <trkpt lat="47.76027" lon="1.98778">
        <ele>116</ele>
        <time>2017-07-30T07:32:36.321Z</time>
      </trkpt>
      <trkpt lat="47.76027" lon="1.98778">
        <ele>116</ele>
        <time>2017-07-30T07:32:37.325Z</time>
      </trkpt>
      <trkpt lat="47.7603" lon="1.9879">
        <ele>116</ele>
        <time>2017-07-30T07:32:38.338Z</time>
      </trkpt>
      <trkpt lat="47.7603" lon="1.9879">
        <ele>116</ele>
        <time>2017-07-30T07:32:39.327Z</time>
      </trkpt>
      <trkpt lat="47.76034" lon="1.98801">
        <ele>116</ele>
        <time>2017-07-30T07:32:40.329Z</time>
      </trkpt>
      <trkpt lat="47.76035" lon="1.98806">
        <ele>116</ele>
        <time>2017-07-30T07:32:41.324Z</time>
      </trkpt>
      <trkpt lat="47.76035" lon="1.98806">
        <ele>116</ele>
        <time>2017-07-30T07:32:42.327Z</time>
      </trkpt>
      <trkpt lat="47.76039" lon="1.98817">
        <ele>116</ele>
        <time>2017-07-30T07:32:43.340Z</time>
      </trkpt>
      <trkpt lat="47.76039" lon="1.98817">
        <ele>116</ele>
        <time>2017-07-30T07:32:44.329Z</time>
      </trkpt>
      <trkpt lat="47.76043" lon="1.98826">
        <ele>116</ele>
        <time>2017-07-30T07:32:45.335Z</time>
      </trkpt>
      <trkpt lat="47.76043" lon="1.98826">
        <ele>116</ele>
        <time>2017-07-30T07:32:46.328Z</time>
      </trkpt>
      <trkpt lat="47.76045" lon="1.98833">
        <ele>116</ele>
        <time>2017-07-30T07:32:47.327Z</time>
      </trkpt>
      <trkpt lat="47.76046" lon="1.98835">
        <ele>116</ele>
        <time>2017-07-30T07:32:48.319Z</time>
      </trkpt>
      <trkpt lat="47.76046" lon="1.98835">
        <ele>116</ele>
        <time>2017-07-30T07:32:49.324Z</time>
      </trkpt>
      <trkpt lat="47.76047" lon="1.98838">
        <ele>116</ele>
        <time>2017-07-30T07:32:50.338Z</time>
      </trkpt>
      <trkpt lat="47.76048" lon="1.98841">
        <ele>116</ele>
        <time>2017-07-30T07:32:51.334Z</time>
      </trkpt>
      <trkpt lat="47.76048" lon="1.98841">
        <ele>116</ele>
        <time>2017-07-30T07:32:52.321Z</time>
      </trkpt>
      <trkpt lat="47.76048" lon="1.98841">
        <ele>116</ele>
        <time>2017-07-30T07:32:53.326Z</time>
      </trkpt>
      <trkpt lat="47.76049" lon="1.98844">
        <ele>116</ele>
        <time>2017-07-30T07:32:54.339Z</time>
      </trkpt>
      <trkpt lat="47.76049" lon="1.98844">
        <ele>116</ele>
        <time>2017-07-30T07:32:55.328Z</time>
      </trkpt>
      <trkpt lat="47.76049" lon="1.98844">
        <ele>116</ele>
        <time>2017-07-30T07:32:56.317Z</time>
      </trkpt>
      <trkpt lat="47.76053" lon="1.98849">
        <ele>116</ele>
        <time>2017-07-30T07:32:57.317Z</time>
      </trkpt>
      <trkpt lat="47.76051" lon="1.98848">
        <ele>116</ele>
        <time>2017-07-30T07:32:58.320Z</time>
      </trkpt>
      <trkpt lat="47.7605" lon="1.98848">
        <ele>116</ele>
        <time>2017-07-30T07:32:59.327Z</time>
      </trkpt>
      <trkpt lat="47.7605" lon="1.98848">
        <ele>116</ele>
        <time>2017-07-30T07:33:00.315Z</time>
      </trkpt>
      <trkpt lat="47.7605" lon="1.98848">
        <ele>116</ele>
        <time>2017-07-30T07:33:01.331Z</time>
      </trkpt>
      <trkpt lat="47.76052" lon="1.98855">
        <ele>116</ele>
        <time>2017-07-30T07:33:02.348Z</time>
      </trkpt>
      <trkpt lat="47.76052" lon="1.98855">
        <ele>116</ele>
        <time>2017-07-30T07:33:03.347Z</time>
      </trkpt>
      <trkpt lat="47.76052" lon="1.98855">
        <ele>116</ele>
        <time>2017-07-30T07:33:04.327Z</time>
      </trkpt>
      <trkpt lat="47.76056" lon="1.98861">
        <ele>116</ele>
        <time>2017-07-30T07:33:05.315Z</time>
      </trkpt>
      <trkpt lat="47.7606" lon="1.9887">
        <ele>116</ele>
        <time>2017-07-30T07:33:06.349Z</time>
      </trkpt>
      <trkpt lat="47.7606" lon="1.9887">
        <ele>116</ele>
        <time>2017-07-30T07:33:07.314Z</time>
      </trkpt>
      <trkpt lat="47.76061" lon="1.98875">
        <ele>116</ele>
        <time>2017-07-30T07:33:08.344Z</time>
      </trkpt>
      <trkpt lat="47.76064" lon="1.98884">
        <ele>116</ele>
        <time>2017-07-30T07:33:09.348Z</time>
      </trkpt>
      <trkpt lat="47.76064" lon="1.98884">
        <ele>116</ele>
        <time>2017-07-30T07:33:10.345Z</time>
      </trkpt>
      <trkpt lat="47.76068" lon="1.98892">
        <ele>117</ele>
        <time>2017-07-30T07:33:11.348Z</time>
      </trkpt>
      <trkpt lat="47.7607" lon="1.98897">
        <ele>117</ele>
        <time>2017-07-30T07:33:12.346Z</time>
      </trkpt>
      <trkpt lat="47.7607" lon="1.98897">
        <ele>117</ele>
        <time>2017-07-30T07:33:13.346Z</time>
      </trkpt>
      <trkpt lat="47.7607" lon="1.98897">
        <ele>117</ele>
        <time>2017-07-30T07:33:14.315Z</time>
      </trkpt>
      <trkpt lat="47.76074" lon="1.98907">
        <ele>117</ele>
        <time>2017-07-30T07:33:15.321Z</time>
      </trkpt>
      <trkpt lat="47.76077" lon="1.98915">
        <ele>117</ele>
        <time>2017-07-30T07:33:16.350Z</time>
      </trkpt>
      <trkpt lat="47.76077" lon="1.98915">
        <ele>117</ele>
        <time>2017-07-30T07:33:17.343Z</time>
      </trkpt>
      <trkpt lat="47.76081" lon="1.98922">
        <ele>116</ele>
        <time>2017-07-30T07:33:18.335Z</time>
      </trkpt>
      <trkpt lat="47.76082" lon="1.98926">
        <ele>117</ele>
        <time>2017-07-30T07:33:19.343Z</time>
      </trkpt>
      <trkpt lat="47.76083" lon="1.9893">
        <ele>117</ele>
        <time>2017-07-30T07:33:20.350Z</time>
      </trkpt>
      <trkpt lat="47.76083" lon="1.9893">
        <ele>117</ele>
        <time>2017-07-30T07:33:21.349Z</time>
      </trkpt>
      <trkpt lat="47.76085" lon="1.98938">
        <ele>117</ele>
        <time>2017-07-30T07:33:22.348Z</time>
      </trkpt>
      <trkpt lat="47.76085" lon="1.98938">
        <ele>117</ele>
        <time>2017-07-30T07:33:23.344Z</time>
      </trkpt>
      <trkpt lat="47.76088" lon="1.98947">
        <ele>117</ele>
        <time>2017-07-30T07:33:24.348Z</time>
      </trkpt>
      <trkpt lat="47.76088" lon="1.98947">
        <ele>117</ele>
        <time>2017-07-30T07:33:25.346Z</time>
      </trkpt>
      <trkpt lat="47.76092" lon="1.98956">
        <ele>117</ele>
        <time>2017-07-30T07:33:26.348Z</time>
      </trkpt>
      <trkpt lat="47.76092" lon="1.98956">
        <ele>117</ele>
        <time>2017-07-30T07:33:27.346Z</time>
      </trkpt>
      <trkpt lat="47.76096" lon="1.98966">
        <ele>118</ele>
        <time>2017-07-30T07:33:28.340Z</time>
      </trkpt>
      <trkpt lat="47.76097" lon="1.9897">
        <ele>118</ele>
        <time>2017-07-30T07:33:29.322Z</time>
      </trkpt>
      <trkpt lat="47.76097" lon="1.9897">
        <ele>118</ele>
        <time>2017-07-30T07:33:30.345Z</time>
      </trkpt>
      <trkpt lat="47.76097" lon="1.9897">
        <ele>118</ele>
        <time>2017-07-30T07:33:31.317Z</time>
      </trkpt>
      <trkpt lat="47.76101" lon="1.9898">
        <ele>118</ele>
        <time>2017-07-30T07:33:32.345Z</time>
      </trkpt>
      <trkpt lat="47.76101" lon="1.9898">
        <ele>118</ele>
        <time>2017-07-30T07:33:33.323Z</time>
      </trkpt>
      <trkpt lat="47.76105" lon="1.98995">
        <ele>118</ele>
        <time>2017-07-30T07:33:34.320Z</time>
      </trkpt>
      <trkpt lat="47.76105" lon="1.98995">
        <ele>118</ele>
        <time>2017-07-30T07:33:35.351Z</time>
      </trkpt>
      <trkpt lat="47.76105" lon="1.98995">
        <ele>118</ele>
        <time>2017-07-30T07:33:36.311Z</time>
      </trkpt>
      <trkpt lat="47.76107" lon="1.99004">
        <ele>118</ele>
        <time>2017-07-30T07:33:37.311Z</time>
      </trkpt>
      <trkpt lat="47.76109" lon="1.99009">
        <ele>118</ele>
        <time>2017-07-30T07:33:38.320Z</time>
      </trkpt>
      <trkpt lat="47.76109" lon="1.99009">
        <ele>118</ele>
        <time>2017-07-30T07:33:39.312Z</time>
      </trkpt>
      <trkpt lat="47.76112" lon="1.99024">
        <ele>117</ele>
        <time>2017-07-30T07:33:40.351Z</time>
      </trkpt>
      <trkpt lat="47.76113" lon="1.9903">
        <ele>117</ele>
        <time>2017-07-30T07:33:41.351Z</time>
      </trkpt>
      <trkpt lat="47.76113" lon="1.9903">
        <ele>117</ele>
        <time>2017-07-30T07:33:42.347Z</time>
      </trkpt>
      <trkpt lat="47.76113" lon="1.9903">
        <ele>117</ele>
        <time>2017-07-30T07:33:43.315Z</time>
      </trkpt>
      <trkpt lat="47.76114" lon="1.9904">
        <ele>116</ele>
        <time>2017-07-30T07:33:44.345Z</time>
      </trkpt>
      <trkpt lat="47.76114" lon="1.9904">
        <ele>116</ele>
        <time>2017-07-30T07:33:45.311Z</time>
      </trkpt>
      <trkpt lat="47.76116" lon="1.99051">
        <ele>116</ele>
        <time>2017-07-30T07:33:46.349Z</time>
      </trkpt>
      <trkpt lat="47.76116" lon="1.99051">
        <ele>116</ele>
        <time>2017-07-30T07:33:47.314Z</time>
      </trkpt>
      <trkpt lat="47.76116" lon="1.99063">
        <ele>115</ele>
        <time>2017-07-30T07:33:48.346Z</time>
      </trkpt>
      <trkpt lat="47.76117" lon="1.99074">
        <ele>114</ele>
        <time>2017-07-30T07:33:49.350Z</time>
      </trkpt>
      <trkpt lat="47.76117" lon="1.99074">
        <ele>114</ele>
        <time>2017-07-30T07:33:50.345Z</time>
      </trkpt>
      <trkpt lat="47.76118" lon="1.99085">
        <ele>114</ele>
        <time>2017-07-30T07:33:51.347Z</time>
      </trkpt>
      <trkpt lat="47.76118" lon="1.99085">
        <ele>114</ele>
        <time>2017-07-30T07:33:52.343Z</time>
      </trkpt>
      <trkpt lat="47.7612" lon="1.99097">
        <ele>114</ele>
        <time>2017-07-30T07:33:53.348Z</time>
      </trkpt>
      <trkpt lat="47.7612" lon="1.99103">
        <ele>114</ele>
        <time>2017-07-30T07:33:54.347Z</time>
      </trkpt>
      <trkpt lat="47.7612" lon="1.99103">
        <ele>114</ele>
        <time>2017-07-30T07:33:55.342Z</time>
      </trkpt>
      <trkpt lat="47.7612" lon="1.99103">
        <ele>114</ele>
        <time>2017-07-30T07:33:56.351Z</time>
      </trkpt>
      <trkpt lat="47.76122" lon="1.99114">
        <ele>114</ele>
        <time>2017-07-30T07:33:57.344Z</time>
      </trkpt>
      <trkpt lat="47.76124" lon="1.99125">
        <ele>114</ele>
        <time>2017-07-30T07:33:58.348Z</time>
      </trkpt>
      <trkpt lat="47.76124" lon="1.99125">
        <ele>114</ele>
        <time>2017-07-30T07:33:59.346Z</time>
      </trkpt>
      <trkpt lat="47.76127" lon="1.99135">
        <ele>114</ele>
        <time>2017-07-30T07:34:00.348Z</time>
      </trkpt>
      <trkpt lat="47.76127" lon="1.99135">
        <ele>114</ele>
        <time>2017-07-30T07:34:01.346Z</time>
      </trkpt>
      <trkpt lat="47.76127" lon="1.99135">
        <ele>114</ele>
        <time>2017-07-30T07:34:02.313Z</time>
      </trkpt>
      <trkpt lat="47.7613" lon="1.99144">
        <ele>114</ele>
        <time>2017-07-30T07:34:03.318Z</time>
      </trkpt>
      <trkpt lat="47.76134" lon="1.99154">
        <ele>114</ele>
        <time>2017-07-30T07:34:04.350Z</time>
      </trkpt>
      <trkpt lat="47.76134" lon="1.99154">
        <ele>114</ele>
        <time>2017-07-30T07:34:05.346Z</time>
      </trkpt>
      <trkpt lat="47.76137" lon="1.99165">
        <ele>114</ele>
        <time>2017-07-30T07:34:06.347Z</time>
      </trkpt>
      <trkpt lat="47.76139" lon="1.9917">
        <ele>114</ele>
        <time>2017-07-30T07:34:07.348Z</time>
      </trkpt>
      <trkpt lat="47.76139" lon="1.9917">
        <ele>114</ele>
        <time>2017-07-30T07:34:08.343Z</time>
      </trkpt>
      <trkpt lat="47.76144" lon="1.9918">
        <ele>114</ele>
        <time>2017-07-30T07:34:09.347Z</time>
      </trkpt>
      <trkpt lat="47.76147" lon="1.99185">
        <ele>115</ele>
        <time>2017-07-30T07:34:10.348Z</time>
      </trkpt>
      <trkpt lat="47.76147" lon="1.99185">
        <ele>115</ele>
        <time>2017-07-30T07:34:11.347Z</time>
      </trkpt>
      <trkpt lat="47.76151" lon="1.99195">
        <ele>116</ele>
        <time>2017-07-30T07:34:12.347Z</time>
      </trkpt>
      <trkpt lat="47.76151" lon="1.99195">
        <ele>116</ele>
        <time>2017-07-30T07:34:13.343Z</time>
      </trkpt>
      <trkpt lat="47.76155" lon="1.99204">
        <ele>116</ele>
        <time>2017-07-30T07:34:14.348Z</time>
      </trkpt>
      <trkpt lat="47.76155" lon="1.99204">
        <ele>116</ele>
        <time>2017-07-30T07:34:15.346Z</time>
      </trkpt>
      <trkpt lat="47.76157" lon="1.99213">
        <ele>116</ele>
        <time>2017-07-30T07:34:16.348Z</time>
      </trkpt>
      <trkpt lat="47.7616" lon="1.99217">
        <ele>117</ele>
        <time>2017-07-30T07:34:17.347Z</time>
      </trkpt>
      <trkpt lat="47.7616" lon="1.99217">
        <ele>117</ele>
        <time>2017-07-30T07:34:18.343Z</time>
      </trkpt>
      <trkpt lat="47.76166" lon="1.99226">
        <ele>117</ele>
        <time>2017-07-30T07:34:19.348Z</time>
      </trkpt>
      <trkpt lat="47.76166" lon="1.99226">
        <ele>117</ele>
        <time>2017-07-30T07:34:20.345Z</time>
      </trkpt>
      <trkpt lat="47.76172" lon="1.99235">
        <ele>117</ele>
        <time>2017-07-30T07:34:21.347Z</time>
      </trkpt>
      <trkpt lat="47.76172" lon="1.99235">
        <ele>117</ele>
        <time>2017-07-30T07:34:22.343Z</time>
      </trkpt>
      <trkpt lat="47.76177" lon="1.99243">
        <ele>117</ele>
        <time>2017-07-30T07:34:23.350Z</time>
      </trkpt>
      <trkpt lat="47.76177" lon="1.99243">
        <ele>117</ele>
        <time>2017-07-30T07:34:24.380Z</time>
      </trkpt>
      <trkpt lat="47.76177" lon="1.99243">
        <ele>117</ele>
        <time>2017-07-30T07:34:25.313Z</time>
      </trkpt>
      <trkpt lat="47.76182" lon="1.99251">
        <ele>117</ele>
        <time>2017-07-30T07:34:26.346Z</time>
      </trkpt>
      <trkpt lat="47.76182" lon="1.99251">
        <ele>117</ele>
        <time>2017-07-30T07:34:27.311Z</time>
      </trkpt>
      <trkpt lat="47.76186" lon="1.9926">
        <ele>117</ele>
        <time>2017-07-30T07:34:28.348Z</time>
      </trkpt>
      <trkpt lat="47.76186" lon="1.9926">
        <ele>117</ele>
        <time>2017-07-30T07:34:29.313Z</time>
      </trkpt>
      <trkpt lat="47.7619" lon="1.99268">
        <ele>117</ele>
        <time>2017-07-30T07:34:30.346Z</time>
      </trkpt>
      <trkpt lat="47.76193" lon="1.99274">
        <ele>117</ele>
        <time>2017-07-30T07:34:31.349Z</time>
      </trkpt>
      <trkpt lat="47.76193" lon="1.99274">
        <ele>117</ele>
        <time>2017-07-30T07:34:32.348Z</time>
      </trkpt>
      <trkpt lat="47.76195" lon="1.99279">
        <ele>117</ele>
        <time>2017-07-30T07:34:33.350Z</time>
      </trkpt>
      <trkpt lat="47.76195" lon="1.99279">
        <ele>117</ele>
        <time>2017-07-30T07:34:34.342Z</time>
      </trkpt>
      <trkpt lat="47.76196" lon="1.99285">
        <ele>117</ele>
        <time>2017-07-30T07:34:35.349Z</time>
      </trkpt>
      <trkpt lat="47.76195" lon="1.99288">
        <ele>118</ele>
        <time>2017-07-30T07:34:36.347Z</time>
      </trkpt>
      <trkpt lat="47.76195" lon="1.99288">
        <ele>118</ele>
        <time>2017-07-30T07:34:37.318Z</time>
      </trkpt>
      <trkpt lat="47.76192" lon="1.9929">
        <ele>118</ele>
        <time>2017-07-30T07:34:38.343Z</time>
      </trkpt>
      <trkpt lat="47.76187" lon="1.99295">
        <ele>118</ele>
        <time>2017-07-30T07:34:39.347Z</time>
      </trkpt>
      <trkpt lat="47.76185" lon="1.99297">
        <ele>118</ele>
        <time>2017-07-30T07:34:40.348Z</time>
      </trkpt>
      <trkpt lat="47.76185" lon="1.99297">
        <ele>118</ele>
        <time>2017-07-30T07:34:41.347Z</time>
      </trkpt>
      <trkpt lat="47.76179" lon="1.99301">
        <ele>118</ele>
        <time>2017-07-30T07:34:42.348Z</time>
      </trkpt>
      <trkpt lat="47.76179" lon="1.99301">
        <ele>118</ele>
        <time>2017-07-30T07:34:43.346Z</time>
      </trkpt>
      <trkpt lat="47.76172" lon="1.99305">
        <ele>118</ele>
        <time>2017-07-30T07:34:44.348Z</time>
      </trkpt>
      <trkpt lat="47.76172" lon="1.99305">
        <ele>118</ele>
        <time>2017-07-30T07:34:45.344Z</time>
      </trkpt>
      <trkpt lat="47.76166" lon="1.9931">
        <ele>118</ele>
        <time>2017-07-30T07:34:46.348Z</time>
      </trkpt>
      <trkpt lat="47.76166" lon="1.9931">
        <ele>118</ele>
        <time>2017-07-30T07:34:47.345Z</time>
      </trkpt>
      <trkpt lat="47.76158" lon="1.99315">
        <ele>118</ele>
        <time>2017-07-30T07:34:48.347Z</time>
      </trkpt>
      <trkpt lat="47.76158" lon="1.99315">
        <ele>118</ele>
        <time>2017-07-30T07:34:49.342Z</time>
      </trkpt>
      <trkpt lat="47.76158" lon="1.99315">
        <ele>118</ele>
        <time>2017-07-30T07:34:50.317Z</time>
      </trkpt>
      <trkpt lat="47.7615" lon="1.9932">
        <ele>117</ele>
        <time>2017-07-30T07:34:51.346Z</time>
      </trkpt>
      <trkpt lat="47.76142" lon="1.99326">
        <ele>116</ele>
        <time>2017-07-30T07:34:52.348Z</time>
      </trkpt>
      <trkpt lat="47.76142" lon="1.99326">
        <ele>116</ele>
        <time>2017-07-30T07:34:53.345Z</time>
      </trkpt>
      <trkpt lat="47.76133" lon="1.99332">
        <ele>115</ele>
        <time>2017-07-30T07:34:54.348Z</time>
      </trkpt>
      <trkpt lat="47.76133" lon="1.99332">
        <ele>115</ele>
        <time>2017-07-30T07:34:55.346Z</time>
      </trkpt>
      <trkpt lat="47.76125" lon="1.99338">
        <ele>115</ele>
        <time>2017-07-30T07:34:56.348Z</time>
      </trkpt>
      <trkpt lat="47.76125" lon="1.99338">
        <ele>115</ele>
        <time>2017-07-30T07:34:57.345Z</time>
      </trkpt>
      <trkpt lat="47.76116" lon="1.99345">
        <ele>115</ele>
        <time>2017-07-30T07:34:58.348Z</time>
      </trkpt>
      <trkpt lat="47.76116" lon="1.99345">
        <ele>115</ele>
        <time>2017-07-30T07:34:59.329Z</time>
      </trkpt>
      <trkpt lat="47.76107" lon="1.99352">
        <ele>114</ele>
        <time>2017-07-30T07:35:00.318Z</time>
      </trkpt>
      <trkpt lat="47.76107" lon="1.99352">
        <ele>114</ele>
        <time>2017-07-30T07:35:01.345Z</time>
      </trkpt>
      <trkpt lat="47.76098" lon="1.9936">
        <ele>114</ele>
        <time>2017-07-30T07:35:02.348Z</time>
      </trkpt>
      <trkpt lat="47.76098" lon="1.9936">
        <ele>114</ele>
        <time>2017-07-30T07:35:03.343Z</time>
      </trkpt>
      <trkpt lat="47.76089" lon="1.99368">
        <ele>114</ele>
        <time>2017-07-30T07:35:04.348Z</time>
      </trkpt>
      <trkpt lat="47.76084" lon="1.99372">
        <ele>114</ele>
        <time>2017-07-30T07:35:05.358Z</time>
      </trkpt>
      <trkpt lat="47.76084" lon="1.99372">
        <ele>114</ele>
        <time>2017-07-30T07:35:06.316Z</time>
      </trkpt>
      <trkpt lat="47.76075" lon="1.9938">
        <ele>114</ele>
        <time>2017-07-30T07:35:07.348Z</time>
      </trkpt>
      <trkpt lat="47.76075" lon="1.9938">
        <ele>114</ele>
        <time>2017-07-30T07:35:08.346Z</time>
      </trkpt>
      <trkpt lat="47.76066" lon="1.99389">
        <ele>114</ele>
        <time>2017-07-30T07:35:09.339Z</time>
      </trkpt>
      <trkpt lat="47.76061" lon="1.99393">
        <ele>114</ele>
        <time>2017-07-30T07:35:10.347Z</time>
      </trkpt>
      <trkpt lat="47.76061" lon="1.99393">
        <ele>114</ele>
        <time>2017-07-30T07:35:11.345Z</time>
      </trkpt>
      <trkpt lat="47.76052" lon="1.99402">
        <ele>114</ele>
        <time>2017-07-30T07:35:12.347Z</time>
      </trkpt>
      <trkpt lat="47.76052" lon="1.99402">
        <ele>114</ele>
        <time>2017-07-30T07:35:13.345Z</time>
      </trkpt>
      <trkpt lat="47.76044" lon="1.99411">
        <ele>113</ele>
        <time>2017-07-30T07:35:14.348Z</time>
      </trkpt>
      <trkpt lat="47.76044" lon="1.99411">
        <ele>113</ele>
        <time>2017-07-30T07:35:15.343Z</time>
      </trkpt>
      <trkpt lat="47.76035" lon="1.99419">
        <ele>113</ele>
        <time>2017-07-30T07:35:16.348Z</time>
      </trkpt>
      <trkpt lat="47.76035" lon="1.99419">
        <ele>113</ele>
        <time>2017-07-30T07:35:17.344Z</time>
      </trkpt>
      <trkpt lat="47.76026" lon="1.99429">
        <ele>113</ele>
        <time>2017-07-30T07:35:18.323Z</time>
      </trkpt>
      <trkpt lat="47.76026" lon="1.99429">
        <ele>113</ele>
        <time>2017-07-30T07:35:19.346Z</time>
      </trkpt>
      <trkpt lat="47.76026" lon="1.99429">
        <ele>113</ele>
        <time>2017-07-30T07:35:20.311Z</time>
      </trkpt>
      <trkpt lat="47.76017" lon="1.9944">
        <ele>113</ele>
        <time>2017-07-30T07:35:21.311Z</time>
      </trkpt>
      <trkpt lat="47.76013" lon="1.99446">
        <ele>113</ele>
        <time>2017-07-30T07:35:22.350Z</time>
      </trkpt>
      <trkpt lat="47.76013" lon="1.99446">
        <ele>113</ele>
        <time>2017-07-30T07:35:23.315Z</time>
      </trkpt>
      <trkpt lat="47.76006" lon="1.9946">
        <ele>112</ele>
        <time>2017-07-30T07:35:24.370Z</time>
      </trkpt>
      <trkpt lat="47.75999" lon="1.99475">
        <ele>112</ele>
        <time>2017-07-30T07:35:25.348Z</time>
      </trkpt>
      <trkpt lat="47.75999" lon="1.99475">
        <ele>112</ele>
        <time>2017-07-30T07:35:26.314Z</time>
      </trkpt>
      <trkpt lat="47.75992" lon="1.99489">
        <ele>112</ele>
        <time>2017-07-30T07:35:27.320Z</time>
      </trkpt>
      <trkpt lat="47.75992" lon="1.99489">
        <ele>112</ele>
        <time>2017-07-30T07:35:28.313Z</time>
      </trkpt>
      <trkpt lat="47.75988" lon="1.99496">
        <ele>112</ele>
        <time>2017-07-30T07:35:29.329Z</time>
      </trkpt>
      <trkpt lat="47.75981" lon="1.99512">
        <ele>112</ele>
        <time>2017-07-30T07:35:30.348Z</time>
      </trkpt>
      <trkpt lat="47.75976" lon="1.99521">
        <ele>112</ele>
        <time>2017-07-30T07:35:31.349Z</time>
      </trkpt>
      <trkpt lat="47.75976" lon="1.99521">
        <ele>112</ele>
        <time>2017-07-30T07:35:32.345Z</time>
      </trkpt>
      <trkpt lat="47.75968" lon="1.99538">
        <ele>111</ele>
        <time>2017-07-30T07:35:33.349Z</time>
      </trkpt>
      <trkpt lat="47.75968" lon="1.99538">
        <ele>111</ele>
        <time>2017-07-30T07:35:34.343Z</time>
      </trkpt>
      <trkpt lat="47.7596" lon="1.99554">
        <ele>111</ele>
        <time>2017-07-30T07:35:35.349Z</time>
      </trkpt>
      <trkpt lat="47.7596" lon="1.99554">
        <ele>111</ele>
        <time>2017-07-30T07:35:36.346Z</time>
      </trkpt>
      <trkpt lat="47.75952" lon="1.99569">
        <ele>111</ele>
        <time>2017-07-30T07:35:37.349Z</time>
      </trkpt>
      <trkpt lat="47.75952" lon="1.99569">
        <ele>111</ele>
        <time>2017-07-30T07:35:38.346Z</time>
      </trkpt>
      <trkpt lat="47.75947" lon="1.99584">
        <ele>111</ele>
        <time>2017-07-30T07:35:39.349Z</time>
      </trkpt>
      <trkpt lat="47.75947" lon="1.99584">
        <ele>111</ele>
        <time>2017-07-30T07:35:40.346Z</time>
      </trkpt>
      <trkpt lat="47.7594" lon="1.99597">
        <ele>111</ele>
        <time>2017-07-30T07:35:41.348Z</time>
      </trkpt>
      <trkpt lat="47.75937" lon="1.99604">
        <ele>111</ele>
        <time>2017-07-30T07:35:42.347Z</time>
      </trkpt>
      <trkpt lat="47.75933" lon="1.9961">
        <ele>111</ele>
        <time>2017-07-30T07:35:43.349Z</time>
      </trkpt>
      <trkpt lat="47.75933" lon="1.9961">
        <ele>111</ele>
        <time>2017-07-30T07:35:44.346Z</time>
      </trkpt>
      <trkpt lat="47.75926" lon="1.99623">
        <ele>111</ele>
        <time>2017-07-30T07:35:45.348Z</time>
      </trkpt>
      <trkpt lat="47.75923" lon="1.9963">
        <ele>111</ele>
        <time>2017-07-30T07:35:46.348Z</time>
      </trkpt>
      <trkpt lat="47.75919" lon="1.99636">
        <ele>111</ele>
        <time>2017-07-30T07:35:47.350Z</time>
      </trkpt>
      <trkpt lat="47.75919" lon="1.99636">
        <ele>111</ele>
        <time>2017-07-30T07:35:48.343Z</time>
      </trkpt>
      <trkpt lat="47.75913" lon="1.9965">
        <ele>112</ele>
        <time>2017-07-30T07:35:49.345Z</time>
      </trkpt>
      <trkpt lat="47.75913" lon="1.9965">
        <ele>112</ele>
        <time>2017-07-30T07:35:50.322Z</time>
      </trkpt>
      <trkpt lat="47.75906" lon="1.99663">
        <ele>112</ele>
        <time>2017-07-30T07:35:51.348Z</time>
      </trkpt>
      <trkpt lat="47.75902" lon="1.9967">
        <ele>113</ele>
        <time>2017-07-30T07:35:52.349Z</time>
      </trkpt>
      <trkpt lat="47.75902" lon="1.9967">
        <ele>113</ele>
        <time>2017-07-30T07:35:53.350Z</time>
      </trkpt>
      <trkpt lat="47.75896" lon="1.99685">
        <ele>113</ele>
        <time>2017-07-30T07:35:54.349Z</time>
      </trkpt>
      <trkpt lat="47.75894" lon="1.99692">
        <ele>113</ele>
        <time>2017-07-30T07:35:55.350Z</time>
      </trkpt>
      <trkpt lat="47.75894" lon="1.99692">
        <ele>113</ele>
        <time>2017-07-30T07:35:56.345Z</time>
      </trkpt>
      <trkpt lat="47.7589" lon="1.99707">
        <ele>113</ele>
        <time>2017-07-30T07:35:57.347Z</time>
      </trkpt>
      <trkpt lat="47.7589" lon="1.99707">
        <ele>113</ele>
        <time>2017-07-30T07:35:58.346Z</time>
      </trkpt>
      <trkpt lat="47.75887" lon="1.99723">
        <ele>113</ele>
        <time>2017-07-30T07:35:59.349Z</time>
      </trkpt>
      <trkpt lat="47.75887" lon="1.99723">
        <ele>113</ele>
        <time>2017-07-30T07:36:00.345Z</time>
      </trkpt>
      <trkpt lat="47.75882" lon="1.9974">
        <ele>113</ele>
        <time>2017-07-30T07:36:01.348Z</time>
      </trkpt>
      <trkpt lat="47.75882" lon="1.9974">
        <ele>113</ele>
        <time>2017-07-30T07:36:02.345Z</time>
      </trkpt>
      <trkpt lat="47.75877" lon="1.99758">
        <ele>112</ele>
        <time>2017-07-30T07:36:03.347Z</time>
      </trkpt>
      <trkpt lat="47.75873" lon="1.99767">
        <ele>112</ele>
        <time>2017-07-30T07:36:04.348Z</time>
      </trkpt>
      <trkpt lat="47.7587" lon="1.99776">
        <ele>112</ele>
        <time>2017-07-30T07:36:05.349Z</time>
      </trkpt>
      <trkpt lat="47.7587" lon="1.99776">
        <ele>112</ele>
        <time>2017-07-30T07:36:06.346Z</time>
      </trkpt>
      <trkpt lat="47.75864" lon="1.99792">
        <ele>111</ele>
        <time>2017-07-30T07:36:07.349Z</time>
      </trkpt>
      <trkpt lat="47.75864" lon="1.99792">
        <ele>111</ele>
        <time>2017-07-30T07:36:08.346Z</time>
      </trkpt>
      <trkpt lat="47.75864" lon="1.99792">
        <ele>111</ele>
        <time>2017-07-30T07:36:09.311Z</time>
      </trkpt>
      <trkpt lat="47.75859" lon="1.99808">
        <ele>111</ele>
        <time>2017-07-30T07:36:10.311Z</time>
      </trkpt>
      <trkpt lat="47.75856" lon="1.99816">
        <ele>111</ele>
        <time>2017-07-30T07:36:11.311Z</time>
      </trkpt>
      <trkpt lat="47.75856" lon="1.99816">
        <ele>111</ele>
        <time>2017-07-30T07:36:12.311Z</time>
      </trkpt>
      <trkpt lat="47.7585" lon="1.99836">
        <ele>111</ele>
        <time>2017-07-30T07:36:13.325Z</time>
      </trkpt>
      <trkpt lat="47.7585" lon="1.99836">
        <ele>111</ele>
        <time>2017-07-30T07:36:14.349Z</time>
      </trkpt>
      <trkpt lat="47.75843" lon="1.99851">
        <ele>110</ele>
        <time>2017-07-30T07:36:15.350Z</time>
      </trkpt>
      <trkpt lat="47.75843" lon="1.99851">
        <ele>110</ele>
        <time>2017-07-30T07:36:16.349Z</time>
      </trkpt>
      <trkpt lat="47.75843" lon="1.99851">
        <ele>110</ele>
        <time>2017-07-30T07:36:17.313Z</time>
      </trkpt>
      <trkpt lat="47.75838" lon="1.99864">
        <ele>110</ele>
        <time>2017-07-30T07:36:18.313Z</time>
      </trkpt>
      <trkpt lat="47.75835" lon="1.99871">
        <ele>110</ele>
        <time>2017-07-30T07:36:19.350Z</time>
      </trkpt>
      <trkpt lat="47.75835" lon="1.99871">
        <ele>110</ele>
        <time>2017-07-30T07:36:20.314Z</time>
      </trkpt>
      <trkpt lat="47.75829" lon="1.99886">
        <ele>110</ele>
        <time>2017-07-30T07:36:21.321Z</time>
      </trkpt>
      <trkpt lat="47.75829" lon="1.99886">
        <ele>110</ele>
        <time>2017-07-30T07:36:22.314Z</time>
      </trkpt>
      <trkpt lat="47.75823" lon="1.99899">
        <ele>109</ele>
        <time>2017-07-30T07:36:23.323Z</time>
      </trkpt>
      <trkpt lat="47.75817" lon="1.99912">
        <ele>109</ele>
        <time>2017-07-30T07:36:24.317Z</time>
      </trkpt>
      <trkpt lat="47.75814" lon="1.9992">
        <ele>109</ele>
        <time>2017-07-30T07:36:25.358Z</time>
      </trkpt>
      <trkpt lat="47.75814" lon="1.9992">
        <ele>109</ele>
        <time>2017-07-30T07:36:26.345Z</time>
      </trkpt>
      <trkpt lat="47.75809" lon="1.99934">
        <ele>109</ele>
        <time>2017-07-30T07:36:27.348Z</time>
      </trkpt>
      <trkpt lat="47.75809" lon="1.99934">
        <ele>109</ele>
        <time>2017-07-30T07:36:28.312Z</time>
      </trkpt>
      <trkpt lat="47.75802" lon="1.99949">
        <ele>109</ele>
        <time>2017-07-30T07:36:29.350Z</time>
      </trkpt>
      <trkpt lat="47.75802" lon="1.99949">
        <ele>109</ele>
        <time>2017-07-30T07:36:30.344Z</time>
      </trkpt>
      <trkpt lat="47.75794" lon="1.99963">
        <ele>108</ele>
        <time>2017-07-30T07:36:31.350Z</time>
      </trkpt>
      <trkpt lat="47.75794" lon="1.99963">
        <ele>108</ele>
        <time>2017-07-30T07:36:32.351Z</time>
      </trkpt>
      <trkpt lat="47.75784" lon="1.99977">
        <ele>108</ele>
        <time>2017-07-30T07:36:33.317Z</time>
      </trkpt>
      <trkpt lat="47.75779" lon="1.99983">
        <ele>109</ele>
        <time>2017-07-30T07:36:34.325Z</time>
      </trkpt>
      <trkpt lat="47.75779" lon="1.99983">
        <ele>109</ele>
        <time>2017-07-30T07:36:35.350Z</time>
      </trkpt>
      <trkpt lat="47.75771" lon="1.99997">
        <ele>108</ele>
        <time>2017-07-30T07:36:36.349Z</time>
      </trkpt>
      <trkpt lat="47.75767" lon="2.00004">
        <ele>108</ele>
        <time>2017-07-30T07:36:37.349Z</time>
      </trkpt>
      <trkpt lat="47.75767" lon="2.00004">
        <ele>108</ele>
        <time>2017-07-30T07:36:38.313Z</time>
      </trkpt>
      <trkpt lat="47.75759" lon="2.00017">
        <ele>108</ele>
        <time>2017-07-30T07:36:39.348Z</time>
      </trkpt>
      <trkpt lat="47.75759" lon="2.00017">
        <ele>108</ele>
        <time>2017-07-30T07:36:40.344Z</time>
      </trkpt>
      <trkpt lat="47.75751" lon="2.00029">
        <ele>107</ele>
        <time>2017-07-30T07:36:41.350Z</time>
      </trkpt>
      <trkpt lat="47.75751" lon="2.00029">
        <ele>107</ele>
        <time>2017-07-30T07:36:42.346Z</time>
      </trkpt>
      <trkpt lat="47.75742" lon="2.00042">
        <ele>107</ele>
        <time>2017-07-30T07:36:43.349Z</time>
      </trkpt>
      <trkpt lat="47.75742" lon="2.00042">
        <ele>107</ele>
        <time>2017-07-30T07:36:44.346Z</time>
      </trkpt>
      <trkpt lat="47.75733" lon="2.00054">
        <ele>107</ele>
        <time>2017-07-30T07:36:45.349Z</time>
      </trkpt>
      <trkpt lat="47.75733" lon="2.00054">
        <ele>107</ele>
        <time>2017-07-30T07:36:46.346Z</time>
      </trkpt>
      <trkpt lat="47.75724" lon="2.00065">
        <ele>106</ele>
        <time>2017-07-30T07:36:47.346Z</time>
      </trkpt>
      <trkpt lat="47.7572" lon="2.00071">
        <ele>106</ele>
        <time>2017-07-30T07:36:48.349Z</time>
      </trkpt>
      <trkpt lat="47.7572" lon="2.00071">
        <ele>106</ele>
        <time>2017-07-30T07:36:49.347Z</time>
      </trkpt>
      <trkpt lat="47.7571" lon="2.00081">
        <ele>106</ele>
        <time>2017-07-30T07:36:50.348Z</time>
      </trkpt>
      <trkpt lat="47.75705" lon="2.00086">
        <ele>106</ele>
        <time>2017-07-30T07:36:51.348Z</time>
      </trkpt>
      <trkpt lat="47.757" lon="2.00091">
        <ele>106</ele>
        <time>2017-07-30T07:36:52.348Z</time>
      </trkpt>
      <trkpt lat="47.757" lon="2.00091">
        <ele>106</ele>
        <time>2017-07-30T07:36:53.347Z</time>
      </trkpt>
      <trkpt lat="47.75691" lon="2.00099">
        <ele>106</ele>
        <time>2017-07-30T07:36:54.348Z</time>
      </trkpt>
      <trkpt lat="47.75686" lon="2.00102">
        <ele>105</ele>
        <time>2017-07-30T07:36:55.349Z</time>
      </trkpt>
      <trkpt lat="47.75686" lon="2.00102">
        <ele>105</ele>
        <time>2017-07-30T07:36:56.349Z</time>
      </trkpt>
      <trkpt lat="47.75686" lon="2.00102">
        <ele>105</ele>
        <time>2017-07-30T07:36:57.311Z</time>
      </trkpt>
      <trkpt lat="47.7567" lon="2.00102">
        <ele>105</ele>
        <time>2017-07-30T07:36:58.323Z</time>
      </trkpt>
      <trkpt lat="47.7567" lon="2.00102">
        <ele>105</ele>
        <time>2017-07-30T07:36:59.324Z</time>
      </trkpt>
      <trkpt lat="47.75658" lon="2.001">
        <ele>105</ele>
        <time>2017-07-30T07:37:00.314Z</time>
      </trkpt>
      <trkpt lat="47.75658" lon="2.001">
        <ele>105</ele>
        <time>2017-07-30T07:37:01.312Z</time>
      </trkpt>
      <trkpt lat="47.75647" lon="2.00096">
        <ele>105</ele>
        <time>2017-07-30T07:37:02.349Z</time>
      </trkpt>
      <trkpt lat="47.75647" lon="2.00096">
        <ele>105</ele>
        <time>2017-07-30T07:37:03.333Z</time>
      </trkpt>
      <trkpt lat="47.75635" lon="2.00091">
        <ele>105</ele>
        <time>2017-07-30T07:37:04.321Z</time>
      </trkpt>
      <trkpt lat="47.75635" lon="2.00091">
        <ele>105</ele>
        <time>2017-07-30T07:37:05.314Z</time>
      </trkpt>
      <trkpt lat="47.75628" lon="2.00089">
        <ele>105</ele>
        <time>2017-07-30T07:37:06.347Z</time>
      </trkpt>
      <trkpt lat="47.75628" lon="2.00089">
        <ele>105</ele>
        <time>2017-07-30T07:37:07.312Z</time>
      </trkpt>
      <trkpt lat="47.75616" lon="2.00087">
        <ele>105</ele>
        <time>2017-07-30T07:37:08.314Z</time>
      </trkpt>
      <trkpt lat="47.75605" lon="2.0009">
        <ele>104</ele>
        <time>2017-07-30T07:37:09.318Z</time>
      </trkpt>
      <trkpt lat="47.75605" lon="2.0009">
        <ele>104</ele>
        <time>2017-07-30T07:37:10.344Z</time>
      </trkpt>
      <trkpt lat="47.75596" lon="2.00096">
        <ele>104</ele>
        <time>2017-07-30T07:37:11.349Z</time>
      </trkpt>
      <trkpt lat="47.75596" lon="2.00096">
        <ele>104</ele>
        <time>2017-07-30T07:37:12.346Z</time>
      </trkpt>
      <trkpt lat="47.7559" lon="2.00101">
        <ele>104</ele>
        <time>2017-07-30T07:37:13.354Z</time>
      </trkpt>
      <trkpt lat="47.7559" lon="2.00101">
        <ele>104</ele>
        <time>2017-07-30T07:37:14.322Z</time>
      </trkpt>
      <trkpt lat="47.75587" lon="2.00106">
        <ele>103</ele>
        <time>2017-07-30T07:37:15.317Z</time>
      </trkpt>
      <trkpt lat="47.75586" lon="2.00108">
        <ele>103</ele>
        <time>2017-07-30T07:37:16.349Z</time>
      </trkpt>
      <trkpt lat="47.75586" lon="2.00108">
        <ele>103</ele>
        <time>2017-07-30T07:37:17.344Z</time>
      </trkpt>
      <trkpt lat="47.75581" lon="2.00112">
        <ele>105</ele>
        <time>2017-07-30T07:37:18.348Z</time>
      </trkpt>
      <trkpt lat="47.75581" lon="2.00112">
        <ele>105</ele>
        <time>2017-07-30T07:37:19.347Z</time>
      </trkpt>
      <trkpt lat="47.75581" lon="2.00112">
        <ele>105</ele>
        <time>2017-07-30T07:37:20.328Z</time>
      </trkpt>
      <trkpt lat="47.75573" lon="2.00121">
        <ele>106</ele>
        <time>2017-07-30T07:37:21.317Z</time>
      </trkpt>
      <trkpt lat="47.7557" lon="2.00125">
        <ele>106</ele>
        <time>2017-07-30T07:37:22.348Z</time>
      </trkpt>
      <trkpt lat="47.7557" lon="2.00125">
        <ele>106</ele>
        <time>2017-07-30T07:37:23.345Z</time>
      </trkpt>
      <trkpt lat="47.75562" lon="2.00133">
        <ele>106</ele>
        <time>2017-07-30T07:37:24.349Z</time>
      </trkpt>
      <trkpt lat="47.75559" lon="2.00138">
        <ele>106</ele>
        <time>2017-07-30T07:37:25.321Z</time>
      </trkpt>
      <trkpt lat="47.75559" lon="2.00138">
        <ele>106</ele>
        <time>2017-07-30T07:37:26.316Z</time>
      </trkpt>
      <trkpt lat="47.75552" lon="2.00146">
        <ele>105</ele>
        <time>2017-07-30T07:37:27.350Z</time>
      </trkpt>
      <trkpt lat="47.75552" lon="2.00146">
        <ele>105</ele>
        <time>2017-07-30T07:37:28.345Z</time>
      </trkpt>
      <trkpt lat="47.75545" lon="2.00154">
        <ele>106</ele>
        <time>2017-07-30T07:37:29.349Z</time>
      </trkpt>
      <trkpt lat="47.75545" lon="2.00154">
        <ele>106</ele>
        <time>2017-07-30T07:37:30.346Z</time>
      </trkpt>
      <trkpt lat="47.75538" lon="2.00162">
        <ele>106</ele>
        <time>2017-07-30T07:37:31.321Z</time>
      </trkpt>
      <trkpt lat="47.75538" lon="2.00162">
        <ele>106</ele>
        <time>2017-07-30T07:37:32.345Z</time>
      </trkpt>
      <trkpt lat="47.75531" lon="2.00169">
        <ele>105</ele>
        <time>2017-07-30T07:37:33.349Z</time>
      </trkpt>
      <trkpt lat="47.75531" lon="2.00169">
        <ele>105</ele>
        <time>2017-07-30T07:37:34.346Z</time>
      </trkpt>
      <trkpt lat="47.75525" lon="2.00177">
        <ele>105</ele>
        <time>2017-07-30T07:37:35.349Z</time>
      </trkpt>
      <trkpt lat="47.75525" lon="2.00177">
        <ele>105</ele>
        <time>2017-07-30T07:37:36.346Z</time>
      </trkpt>
      <trkpt lat="47.75518" lon="2.00185">
        <ele>105</ele>
        <time>2017-07-30T07:37:37.349Z</time>
      </trkpt>
      <trkpt lat="47.75518" lon="2.00185">
        <ele>105</ele>
        <time>2017-07-30T07:37:38.346Z</time>
      </trkpt>
      <trkpt lat="47.75512" lon="2.00193">
        <ele>104</ele>
        <time>2017-07-30T07:37:39.348Z</time>
      </trkpt>
      <trkpt lat="47.75509" lon="2.00197">
        <ele>104</ele>
        <time>2017-07-30T07:37:40.348Z</time>
      </trkpt>
      <trkpt lat="47.75509" lon="2.00197">
        <ele>104</ele>
        <time>2017-07-30T07:37:41.346Z</time>
      </trkpt>
      <trkpt lat="47.75503" lon="2.00203">
        <ele>104</ele>
        <time>2017-07-30T07:37:42.348Z</time>
      </trkpt>
      <trkpt lat="47.755" lon="2.00207">
        <ele>104</ele>
        <time>2017-07-30T07:37:43.349Z</time>
      </trkpt>
      <trkpt lat="47.755" lon="2.00207">
        <ele>104</ele>
        <time>2017-07-30T07:37:44.344Z</time>
      </trkpt>
      <trkpt lat="47.75496" lon="2.00216">
        <ele>103</ele>
        <time>2017-07-30T07:37:45.348Z</time>
      </trkpt>
      <trkpt lat="47.75496" lon="2.00216">
        <ele>103</ele>
        <time>2017-07-30T07:37:46.349Z</time>
      </trkpt>
      <trkpt lat="47.75496" lon="2.00216">
        <ele>103</ele>
        <time>2017-07-30T07:37:47.314Z</time>
      </trkpt>
      <trkpt lat="47.75492" lon="2.00226">
        <ele>103</ele>
        <time>2017-07-30T07:37:48.312Z</time>
      </trkpt>
      <trkpt lat="47.7549" lon="2.00232">
        <ele>103</ele>
        <time>2017-07-30T07:37:49.349Z</time>
      </trkpt>
      <trkpt lat="47.7549" lon="2.00232">
        <ele>103</ele>
        <time>2017-07-30T07:37:50.325Z</time>
      </trkpt>
      <trkpt lat="47.75488" lon="2.00245">
        <ele>103</ele>
        <time>2017-07-30T07:37:51.314Z</time>
      </trkpt>
      <trkpt lat="47.75486" lon="2.00251">
        <ele>103</ele>
        <time>2017-07-30T07:37:52.319Z</time>
      </trkpt>
      <trkpt lat="47.75486" lon="2.00251">
        <ele>103</ele>
        <time>2017-07-30T07:37:53.314Z</time>
      </trkpt>
      <trkpt lat="47.75483" lon="2.00265">
        <ele>103</ele>
        <time>2017-07-30T07:37:54.314Z</time>
      </trkpt>
      <trkpt lat="47.75481" lon="2.00271">
        <ele>103</ele>
        <time>2017-07-30T07:37:55.350Z</time>
      </trkpt>
      <trkpt lat="47.75478" lon="2.00285">
        <ele>103</ele>
        <time>2017-07-30T07:37:56.349Z</time>
      </trkpt>
      <trkpt lat="47.75478" lon="2.00285">
        <ele>103</ele>
        <time>2017-07-30T07:37:57.345Z</time>
      </trkpt>
      <trkpt lat="47.75476" lon="2.00298">
        <ele>103</ele>
        <time>2017-07-30T07:37:58.350Z</time>
      </trkpt>
      <trkpt lat="47.75474" lon="2.00305">
        <ele>103</ele>
        <time>2017-07-30T07:37:59.350Z</time>
      </trkpt>
      <trkpt lat="47.75474" lon="2.00305">
        <ele>103</ele>
        <time>2017-07-30T07:38:00.345Z</time>
      </trkpt>
      <trkpt lat="47.75472" lon="2.00318">
        <ele>104</ele>
        <time>2017-07-30T07:38:01.349Z</time>
      </trkpt>
      <trkpt lat="47.75472" lon="2.00318">
        <ele>104</ele>
        <time>2017-07-30T07:38:02.346Z</time>
      </trkpt>
      <trkpt lat="47.7547" lon="2.00331">
        <ele>104</ele>
        <time>2017-07-30T07:38:03.348Z</time>
      </trkpt>
      <trkpt lat="47.7547" lon="2.00331">
        <ele>104</ele>
        <time>2017-07-30T07:38:04.346Z</time>
      </trkpt>
      <trkpt lat="47.75468" lon="2.00345">
        <ele>103</ele>
        <time>2017-07-30T07:38:05.350Z</time>
      </trkpt>
      <trkpt lat="47.75468" lon="2.00345">
        <ele>103</ele>
        <time>2017-07-30T07:38:06.345Z</time>
      </trkpt>
      <trkpt lat="47.75468" lon="2.0036">
        <ele>103</ele>
        <time>2017-07-30T07:38:07.349Z</time>
      </trkpt>
      <trkpt lat="47.75467" lon="2.00368">
        <ele>103</ele>
        <time>2017-07-30T07:38:08.348Z</time>
      </trkpt>
      <trkpt lat="47.75467" lon="2.00368">
        <ele>103</ele>
        <time>2017-07-30T07:38:09.347Z</time>
      </trkpt>
      <trkpt lat="47.75465" lon="2.00382">
        <ele>103</ele>
        <time>2017-07-30T07:38:10.347Z</time>
      </trkpt>
      <trkpt lat="47.75464" lon="2.0039">
        <ele>103</ele>
        <time>2017-07-30T07:38:11.330Z</time>
      </trkpt>
      <trkpt lat="47.75464" lon="2.0039">
        <ele>103</ele>
        <time>2017-07-30T07:38:12.321Z</time>
      </trkpt>
      <trkpt lat="47.7546" lon="2.00404">
        <ele>104</ele>
        <time>2017-07-30T07:38:13.321Z</time>
      </trkpt>
      <trkpt lat="47.7546" lon="2.00404">
        <ele>104</ele>
        <time>2017-07-30T07:38:14.346Z</time>
      </trkpt>
      <trkpt lat="47.75457" lon="2.00419">
        <ele>104</ele>
        <time>2017-07-30T07:38:15.348Z</time>
      </trkpt>
      <trkpt lat="47.75457" lon="2.00419">
        <ele>104</ele>
        <time>2017-07-30T07:38:16.342Z</time>
      </trkpt>
      <trkpt lat="47.75454" lon="2.00433">
        <ele>104</ele>
        <time>2017-07-30T07:38:17.349Z</time>
      </trkpt>
      <trkpt lat="47.75454" lon="2.00433">
        <ele>104</ele>
        <time>2017-07-30T07:38:18.346Z</time>
      </trkpt>
      <trkpt lat="47.7545" lon="2.00446">
        <ele>104</ele>
        <time>2017-07-30T07:38:19.355Z</time>
      </trkpt>
      <trkpt lat="47.75447" lon="2.00452">
        <ele>104</ele>
        <time>2017-07-30T07:38:20.318Z</time>
      </trkpt>
      <trkpt lat="47.75447" lon="2.00452">
        <ele>104</ele>
        <time>2017-07-30T07:38:21.347Z</time>
      </trkpt>
      <trkpt lat="47.75441" lon="2.00464">
        <ele>104</ele>
        <time>2017-07-30T07:38:22.348Z</time>
      </trkpt>
      <trkpt lat="47.75441" lon="2.00464">
        <ele>104</ele>
        <time>2017-07-30T07:38:23.346Z</time>
      </trkpt>
      <trkpt lat="47.75435" lon="2.00476">
        <ele>105</ele>
        <time>2017-07-30T07:38:24.349Z</time>
      </trkpt>
      <trkpt lat="47.75432" lon="2.00482">
        <ele>105</ele>
        <time>2017-07-30T07:38:25.321Z</time>
      </trkpt>
      <trkpt lat="47.75432" lon="2.00482">
        <ele>105</ele>
        <time>2017-07-30T07:38:26.345Z</time>
      </trkpt>
      <trkpt lat="47.75426" lon="2.00493">
        <ele>105</ele>
        <time>2017-07-30T07:38:27.348Z</time>
      </trkpt>
      <trkpt lat="47.75426" lon="2.00493">
        <ele>105</ele>
        <time>2017-07-30T07:38:28.320Z</time>
      </trkpt>
      <trkpt lat="47.75419" lon="2.00505">
        <ele>105</ele>
        <time>2017-07-30T07:38:29.322Z</time>
      </trkpt>
      <trkpt lat="47.75419" lon="2.00505">
        <ele>105</ele>
        <time>2017-07-30T07:38:30.316Z</time>
      </trkpt>
      <trkpt lat="47.75413" lon="2.00518">
        <ele>106</ele>
        <time>2017-07-30T07:38:31.350Z</time>
      </trkpt>
      <trkpt lat="47.7541" lon="2.00524">
        <ele>106</ele>
        <time>2017-07-30T07:38:32.350Z</time>
      </trkpt>
      <trkpt lat="47.7541" lon="2.00524">
        <ele>106</ele>
        <time>2017-07-30T07:38:33.350Z</time>
      </trkpt>
      <trkpt lat="47.7541" lon="2.00524">
        <ele>106</ele>
        <time>2017-07-30T07:38:34.312Z</time>
      </trkpt>
      <trkpt lat="47.75406" lon="2.00538">
        <ele>106</ele>
        <time>2017-07-30T07:38:35.313Z</time>
      </trkpt>
      <trkpt lat="47.75403" lon="2.00544">
        <ele>106</ele>
        <time>2017-07-30T07:38:36.349Z</time>
      </trkpt>
      <trkpt lat="47.75403" lon="2.00544">
        <ele>106</ele>
        <time>2017-07-30T07:38:37.312Z</time>
      </trkpt>
      <trkpt lat="47.75399" lon="2.00559">
        <ele>106</ele>
        <time>2017-07-30T07:38:38.347Z</time>
      </trkpt>
      <trkpt lat="47.75394" lon="2.00573">
        <ele>107</ele>
        <time>2017-07-30T07:38:39.350Z</time>
      </trkpt>
      <trkpt lat="47.75394" lon="2.00573">
        <ele>107</ele>
        <time>2017-07-30T07:38:40.349Z</time>
      </trkpt>
      <trkpt lat="47.75394" lon="2.00573">
        <ele>107</ele>
        <time>2017-07-30T07:38:41.313Z</time>
      </trkpt>
      <trkpt lat="47.75388" lon="2.00595">
        <ele>108</ele>
        <time>2017-07-30T07:38:42.348Z</time>
      </trkpt>
      <trkpt lat="47.75385" lon="2.00602">
        <ele>108</ele>
        <time>2017-07-30T07:38:43.349Z</time>
      </trkpt>
      <trkpt lat="47.75383" lon="2.00608">
        <ele>108</ele>
        <time>2017-07-30T07:38:44.349Z</time>
      </trkpt>
      <trkpt lat="47.75383" lon="2.00608">
        <ele>108</ele>
        <time>2017-07-30T07:38:45.345Z</time>
      </trkpt>
      <trkpt lat="47.75378" lon="2.00621">
        <ele>109</ele>
        <time>2017-07-30T07:38:46.348Z</time>
      </trkpt>
      <trkpt lat="47.75375" lon="2.00628">
        <ele>109</ele>
        <time>2017-07-30T07:38:47.350Z</time>
      </trkpt>
      <trkpt lat="47.75375" lon="2.00628">
        <ele>109</ele>
        <time>2017-07-30T07:38:48.345Z</time>
      </trkpt>
      <trkpt lat="47.75369" lon="2.00642">
        <ele>109</ele>
        <time>2017-07-30T07:38:49.348Z</time>
      </trkpt>
      <trkpt lat="47.75369" lon="2.00642">
        <ele>109</ele>
        <time>2017-07-30T07:38:50.314Z</time>
      </trkpt>
      <trkpt lat="47.75364" lon="2.00654">
        <ele>109</ele>
        <time>2017-07-30T07:38:51.318Z</time>
      </trkpt>
      <trkpt lat="47.75364" lon="2.00654">
        <ele>109</ele>
        <time>2017-07-30T07:38:52.346Z</time>
      </trkpt>
      <trkpt lat="47.75358" lon="2.00668">
        <ele>110</ele>
        <time>2017-07-30T07:38:53.349Z</time>
      </trkpt>
      <trkpt lat="47.75355" lon="2.00674">
        <ele>110</ele>
        <time>2017-07-30T07:38:54.350Z</time>
      </trkpt>
      <trkpt lat="47.75355" lon="2.00674">
        <ele>110</ele>
        <time>2017-07-30T07:38:55.347Z</time>
      </trkpt>
      <trkpt lat="47.75349" lon="2.00688">
        <ele>110</ele>
        <time>2017-07-30T07:38:56.348Z</time>
      </trkpt>
      <trkpt lat="47.75349" lon="2.00688">
        <ele>110</ele>
        <time>2017-07-30T07:38:57.346Z</time>
      </trkpt>
      <trkpt lat="47.75343" lon="2.007">
        <ele>111</ele>
        <time>2017-07-30T07:38:58.348Z</time>
      </trkpt>
      <trkpt lat="47.7534" lon="2.00706">
        <ele>111</ele>
        <time>2017-07-30T07:38:59.350Z</time>
      </trkpt>
      <trkpt lat="47.7534" lon="2.00706">
        <ele>111</ele>
        <time>2017-07-30T07:39:00.345Z</time>
      </trkpt>
      <trkpt lat="47.75334" lon="2.00718">
        <ele>112</ele>
        <time>2017-07-30T07:39:01.341Z</time>
      </trkpt>
      <trkpt lat="47.75332" lon="2.00724">
        <ele>112</ele>
        <time>2017-07-30T07:39:02.323Z</time>
      </trkpt>
      <trkpt lat="47.75332" lon="2.00724">
        <ele>112</ele>
        <time>2017-07-30T07:39:03.345Z</time>
      </trkpt>
      <trkpt lat="47.75326" lon="2.00735">
        <ele>112</ele>
        <time>2017-07-30T07:39:04.348Z</time>
      </trkpt>
      <trkpt lat="47.75323" lon="2.0074">
        <ele>112</ele>
        <time>2017-07-30T07:39:05.349Z</time>
      </trkpt>
      <trkpt lat="47.75323" lon="2.0074">
        <ele>112</ele>
        <time>2017-07-30T07:39:06.343Z</time>
      </trkpt>
      <trkpt lat="47.75319" lon="2.00752">
        <ele>113</ele>
        <time>2017-07-30T07:39:07.324Z</time>
      </trkpt>
      <trkpt lat="47.75319" lon="2.00752">
        <ele>113</ele>
        <time>2017-07-30T07:39:08.346Z</time>
      </trkpt>
      <trkpt lat="47.75314" lon="2.00763">
        <ele>113</ele>
        <time>2017-07-30T07:39:09.349Z</time>
      </trkpt>
      <trkpt lat="47.75314" lon="2.00763">
        <ele>113</ele>
        <time>2017-07-30T07:39:10.346Z</time>
      </trkpt>
      <trkpt lat="47.75308" lon="2.00775">
        <ele>113</ele>
        <time>2017-07-30T07:39:11.343Z</time>
      </trkpt>
      <trkpt lat="47.75308" lon="2.00775">
        <ele>113</ele>
        <time>2017-07-30T07:39:12.330Z</time>
      </trkpt>
      <trkpt lat="47.75302" lon="2.00787">
        <ele>114</ele>
        <time>2017-07-30T07:39:13.317Z</time>
      </trkpt>
      <trkpt lat="47.75299" lon="2.00793">
        <ele>114</ele>
        <time>2017-07-30T07:39:14.350Z</time>
      </trkpt>
      <trkpt lat="47.75299" lon="2.00793">
        <ele>114</ele>
        <time>2017-07-30T07:39:15.343Z</time>
      </trkpt>
      <trkpt lat="47.75294" lon="2.00804">
        <ele>114</ele>
        <time>2017-07-30T07:39:16.348Z</time>
      </trkpt>
      <trkpt lat="47.75292" lon="2.00809">
        <ele>114</ele>
        <time>2017-07-30T07:39:17.350Z</time>
      </trkpt>
      <trkpt lat="47.75292" lon="2.00809">
        <ele>114</ele>
        <time>2017-07-30T07:39:18.348Z</time>
      </trkpt>
      <trkpt lat="47.75292" lon="2.00809">
        <ele>114</ele>
        <time>2017-07-30T07:39:19.351Z</time>
      </trkpt>
      <trkpt lat="47.75281" lon="2.00824">
        <ele>115</ele>
        <time>2017-07-30T07:39:20.349Z</time>
      </trkpt>
      <trkpt lat="47.75281" lon="2.00824">
        <ele>115</ele>
        <time>2017-07-30T07:39:21.337Z</time>
      </trkpt>
      <trkpt lat="47.75277" lon="2.00829">
        <ele>115</ele>
        <time>2017-07-30T07:39:22.349Z</time>
      </trkpt>
      <trkpt lat="47.75277" lon="2.00829">
        <ele>115</ele>
        <time>2017-07-30T07:39:23.314Z</time>
      </trkpt>
      <trkpt lat="47.75272" lon="2.00836">
        <ele>116</ele>
        <time>2017-07-30T07:39:24.384Z</time>
      </trkpt>
      <trkpt lat="47.75272" lon="2.00836">
        <ele>116</ele>
        <time>2017-07-30T07:39:25.314Z</time>
      </trkpt>
      <trkpt lat="47.75265" lon="2.00844">
        <ele>116</ele>
        <time>2017-07-30T07:39:26.319Z</time>
      </trkpt>
      <trkpt lat="47.75265" lon="2.00844">
        <ele>116</ele>
        <time>2017-07-30T07:39:27.311Z</time>
      </trkpt>
      <trkpt lat="47.75256" lon="2.00856">
        <ele>116</ele>
        <time>2017-07-30T07:39:28.311Z</time>
      </trkpt>
      <trkpt lat="47.75256" lon="2.00856">
        <ele>116</ele>
        <time>2017-07-30T07:39:29.317Z</time>
      </trkpt>
      <trkpt lat="47.75254" lon="2.0086">
        <ele>116</ele>
        <time>2017-07-30T07:39:30.348Z</time>
      </trkpt>
      <trkpt lat="47.75254" lon="2.0086">
        <ele>116</ele>
        <time>2017-07-30T07:39:31.315Z</time>
      </trkpt>
      <trkpt lat="47.75248" lon="2.00868">
        <ele>116</ele>
        <time>2017-07-30T07:39:32.344Z</time>
      </trkpt>
      <trkpt lat="47.75243" lon="2.00875">
        <ele>116</ele>
        <time>2017-07-30T07:39:33.346Z</time>
      </trkpt>
      <trkpt lat="47.75243" lon="2.00875">
        <ele>116</ele>
        <time>2017-07-30T07:39:34.312Z</time>
      </trkpt>
      <trkpt lat="47.75238" lon="2.00883">
        <ele>115</ele>
        <time>2017-07-30T07:39:35.319Z</time>
      </trkpt>
      <trkpt lat="47.75238" lon="2.00883">
        <ele>115</ele>
        <time>2017-07-30T07:39:36.346Z</time>
      </trkpt>
      <trkpt lat="47.75233" lon="2.0089">
        <ele>115</ele>
        <time>2017-07-30T07:39:37.350Z</time>
      </trkpt>
      <trkpt lat="47.75233" lon="2.0089">
        <ele>115</ele>
        <time>2017-07-30T07:39:38.347Z</time>
      </trkpt>
      <trkpt lat="47.75226" lon="2.00896">
        <ele>115</ele>
        <time>2017-07-30T07:39:39.349Z</time>
      </trkpt>
      <trkpt lat="47.75226" lon="2.00896">
        <ele>115</ele>
        <time>2017-07-30T07:39:40.345Z</time>
      </trkpt>
      <trkpt lat="47.75219" lon="2.00905">
        <ele>114</ele>
        <time>2017-07-30T07:39:41.350Z</time>
      </trkpt>
      <trkpt lat="47.75219" lon="2.00905">
        <ele>114</ele>
        <time>2017-07-30T07:39:42.346Z</time>
      </trkpt>
      <trkpt lat="47.75213" lon="2.00912">
        <ele>114</ele>
        <time>2017-07-30T07:39:43.350Z</time>
      </trkpt>
      <trkpt lat="47.75213" lon="2.00912">
        <ele>114</ele>
        <time>2017-07-30T07:39:44.343Z</time>
      </trkpt>
      <trkpt lat="47.7521" lon="2.00923">
        <ele>114</ele>
        <time>2017-07-30T07:39:45.348Z</time>
      </trkpt>
      <trkpt lat="47.7521" lon="2.00923">
        <ele>114</ele>
        <time>2017-07-30T07:39:46.345Z</time>
      </trkpt>
      <trkpt lat="47.75208" lon="2.00934">
        <ele>114</ele>
        <time>2017-07-30T07:39:47.349Z</time>
      </trkpt>
      <trkpt lat="47.75208" lon="2.00934">
        <ele>114</ele>
        <time>2017-07-30T07:39:48.343Z</time>
      </trkpt>
      <trkpt lat="47.75207" lon="2.00946">
        <ele>113</ele>
        <time>2017-07-30T07:39:49.349Z</time>
      </trkpt>
      <trkpt lat="47.75207" lon="2.00946">
        <ele>113</ele>
        <time>2017-07-30T07:39:50.346Z</time>
      </trkpt>
      <trkpt lat="47.75207" lon="2.00955">
        <ele>113</ele>
        <time>2017-07-30T07:39:51.348Z</time>
      </trkpt>
      <trkpt lat="47.75207" lon="2.00955">
        <ele>113</ele>
        <time>2017-07-30T07:39:52.346Z</time>
      </trkpt>
      <trkpt lat="47.75209" lon="2.00963">
        <ele>112</ele>
        <time>2017-07-30T07:39:53.349Z</time>
      </trkpt>
      <trkpt lat="47.75209" lon="2.00963">
        <ele>112</ele>
        <time>2017-07-30T07:39:54.343Z</time>
      </trkpt>
      <trkpt lat="47.7521" lon="2.00972">
        <ele>112</ele>
        <time>2017-07-30T07:39:55.349Z</time>
      </trkpt>
      <trkpt lat="47.7521" lon="2.00972">
        <ele>112</ele>
        <time>2017-07-30T07:39:56.345Z</time>
      </trkpt>
      <trkpt lat="47.75213" lon="2.00983">
        <ele>111</ele>
        <time>2017-07-30T07:39:57.348Z</time>
      </trkpt>
      <trkpt lat="47.75213" lon="2.00983">
        <ele>111</ele>
        <time>2017-07-30T07:39:58.336Z</time>
      </trkpt>
      <trkpt lat="47.75215" lon="2.00995">
        <ele>111</ele>
        <time>2017-07-30T07:39:59.325Z</time>
      </trkpt>
      <trkpt lat="47.75215" lon="2.00995">
        <ele>111</ele>
        <time>2017-07-30T07:40:00.324Z</time>
      </trkpt>
      <trkpt lat="47.75219" lon="2.01007">
        <ele>110</ele>
        <time>2017-07-30T07:40:01.317Z</time>
      </trkpt>
      <trkpt lat="47.75219" lon="2.01007">
        <ele>110</ele>
        <time>2017-07-30T07:40:02.346Z</time>
      </trkpt>
      <trkpt lat="47.75222" lon="2.01019">
        <ele>110</ele>
        <time>2017-07-30T07:40:03.349Z</time>
      </trkpt>
      <trkpt lat="47.75223" lon="2.01025">
        <ele>110</ele>
        <time>2017-07-30T07:40:04.348Z</time>
      </trkpt>
      <trkpt lat="47.75224" lon="2.01032">
        <ele>110</ele>
        <time>2017-07-30T07:40:05.350Z</time>
      </trkpt>
      <trkpt lat="47.75224" lon="2.01032">
        <ele>110</ele>
        <time>2017-07-30T07:40:06.346Z</time>
      </trkpt>
      <trkpt lat="47.75224" lon="2.01032">
        <ele>110</ele>
        <time>2017-07-30T07:40:07.312Z</time>
      </trkpt>
      <trkpt lat="47.75227" lon="2.01046">
        <ele>110</ele>
        <time>2017-07-30T07:40:08.349Z</time>
      </trkpt>
      <trkpt lat="47.75227" lon="2.01046">
        <ele>110</ele>
        <time>2017-07-30T07:40:09.312Z</time>
      </trkpt>
      <trkpt lat="47.75231" lon="2.01059">
        <ele>109</ele>
        <time>2017-07-30T07:40:10.346Z</time>
      </trkpt>
      <trkpt lat="47.75231" lon="2.01059">
        <ele>109</ele>
        <time>2017-07-30T07:40:11.314Z</time>
      </trkpt>
      <trkpt lat="47.75233" lon="2.01074">
        <ele>109</ele>
        <time>2017-07-30T07:40:12.347Z</time>
      </trkpt>
      <trkpt lat="47.75236" lon="2.01088">
        <ele>108</ele>
        <time>2017-07-30T07:40:13.350Z</time>
      </trkpt>
      <trkpt lat="47.75236" lon="2.01088">
        <ele>108</ele>
        <time>2017-07-30T07:40:14.350Z</time>
      </trkpt>
      <trkpt lat="47.75236" lon="2.01088">
        <ele>108</ele>
        <time>2017-07-30T07:40:15.313Z</time>
      </trkpt>
      <trkpt lat="47.75239" lon="2.01102">
        <ele>108</ele>
        <time>2017-07-30T07:40:16.347Z</time>
      </trkpt>
      <trkpt lat="47.75239" lon="2.01102">
        <ele>108</ele>
        <time>2017-07-30T07:40:17.314Z</time>
      </trkpt>
      <trkpt lat="47.75242" lon="2.01116">
        <ele>108</ele>
        <time>2017-07-30T07:40:18.349Z</time>
      </trkpt>
      <trkpt lat="47.75242" lon="2.01116">
        <ele>108</ele>
        <time>2017-07-30T07:40:19.312Z</time>
      </trkpt>
      <trkpt lat="47.75246" lon="2.01131">
        <ele>108</ele>
        <time>2017-07-30T07:40:20.313Z</time>
      </trkpt>
      <trkpt lat="47.75247" lon="2.01139">
        <ele>107</ele>
        <time>2017-07-30T07:40:21.345Z</time>
      </trkpt>
      <trkpt lat="47.75251" lon="2.01153">
        <ele>107</ele>
        <time>2017-07-30T07:40:22.349Z</time>
      </trkpt>
      <trkpt lat="47.75252" lon="2.0116">
        <ele>107</ele>
        <time>2017-07-30T07:40:23.349Z</time>
      </trkpt>
      <trkpt lat="47.75252" lon="2.0116">
        <ele>107</ele>
        <time>2017-07-30T07:40:24.346Z</time>
      </trkpt>
      <trkpt lat="47.75252" lon="2.0116">
        <ele>107</ele>
        <time>2017-07-30T07:40:25.314Z</time>
      </trkpt>
      <trkpt lat="47.75255" lon="2.01175">
        <ele>107</ele>
        <time>2017-07-30T07:40:26.320Z</time>
      </trkpt>
      <trkpt lat="47.75255" lon="2.01175">
        <ele>107</ele>
        <time>2017-07-30T07:40:27.313Z</time>
      </trkpt>
      <trkpt lat="47.75258" lon="2.0119">
        <ele>107</ele>
        <time>2017-07-30T07:40:28.321Z</time>
      </trkpt>
      <trkpt lat="47.75261" lon="2.01205">
        <ele>107</ele>
        <time>2017-07-30T07:40:29.319Z</time>
      </trkpt>
      <trkpt lat="47.75261" lon="2.01205">
        <ele>107</ele>
        <time>2017-07-30T07:40:30.346Z</time>
      </trkpt>
      <trkpt lat="47.75264" lon="2.0122">
        <ele>107</ele>
        <time>2017-07-30T07:40:31.350Z</time>
      </trkpt>
      <trkpt lat="47.75264" lon="2.0122">
        <ele>107</ele>
        <time>2017-07-30T07:40:32.343Z</time>
      </trkpt>
      <trkpt lat="47.75267" lon="2.01234">
        <ele>107</ele>
        <time>2017-07-30T07:40:33.348Z</time>
      </trkpt>
      <trkpt lat="47.75267" lon="2.01234">
        <ele>107</ele>
        <time>2017-07-30T07:40:34.346Z</time>
      </trkpt>
      <trkpt lat="47.75272" lon="2.0125">
        <ele>107</ele>
        <time>2017-07-30T07:40:35.350Z</time>
      </trkpt>
      <trkpt lat="47.75272" lon="2.0125">
        <ele>107</ele>
        <time>2017-07-30T07:40:36.344Z</time>
      </trkpt>
      <trkpt lat="47.75274" lon="2.01265">
        <ele>107</ele>
        <time>2017-07-30T07:40:37.349Z</time>
      </trkpt>
      <trkpt lat="47.75274" lon="2.01265">
        <ele>107</ele>
        <time>2017-07-30T07:40:38.346Z</time>
      </trkpt>
      <trkpt lat="47.75276" lon="2.0128">
        <ele>107</ele>
        <time>2017-07-30T07:40:39.348Z</time>
      </trkpt>
      <trkpt lat="47.75276" lon="2.0128">
        <ele>107</ele>
        <time>2017-07-30T07:40:40.343Z</time>
      </trkpt>
      <trkpt lat="47.75276" lon="2.01297">
        <ele>107</ele>
        <time>2017-07-30T07:40:41.350Z</time>
      </trkpt>
      <trkpt lat="47.75276" lon="2.01297">
        <ele>107</ele>
        <time>2017-07-30T07:40:42.345Z</time>
      </trkpt>
      <trkpt lat="47.75277" lon="2.01315">
        <ele>106</ele>
        <time>2017-07-30T07:40:43.349Z</time>
      </trkpt>
      <trkpt lat="47.75277" lon="2.01315">
        <ele>106</ele>
        <time>2017-07-30T07:40:44.346Z</time>
      </trkpt>
      <trkpt lat="47.75275" lon="2.01332">
        <ele>106</ele>
        <time>2017-07-30T07:40:45.348Z</time>
      </trkpt>
      <trkpt lat="47.75275" lon="2.01332">
        <ele>106</ele>
        <time>2017-07-30T07:40:46.346Z</time>
      </trkpt>
      <trkpt lat="47.75275" lon="2.01348">
        <ele>106</ele>
        <time>2017-07-30T07:40:47.350Z</time>
      </trkpt>
      <trkpt lat="47.75275" lon="2.01348">
        <ele>106</ele>
        <time>2017-07-30T07:40:48.346Z</time>
      </trkpt>
      <trkpt lat="47.75273" lon="2.01363">
        <ele>107</ele>
        <time>2017-07-30T07:40:49.348Z</time>
      </trkpt>
      <trkpt lat="47.75272" lon="2.01371">
        <ele>107</ele>
        <time>2017-07-30T07:40:50.349Z</time>
      </trkpt>
      <trkpt lat="47.75272" lon="2.01371">
        <ele>107</ele>
        <time>2017-07-30T07:40:51.344Z</time>
      </trkpt>
      <trkpt lat="47.75271" lon="2.01387">
        <ele>108</ele>
        <time>2017-07-30T07:40:52.348Z</time>
      </trkpt>
      <trkpt lat="47.7527" lon="2.01395">
        <ele>108</ele>
        <time>2017-07-30T07:40:53.350Z</time>
      </trkpt>
      <trkpt lat="47.7527" lon="2.01395">
        <ele>108</ele>
        <time>2017-07-30T07:40:54.345Z</time>
      </trkpt>
      <trkpt lat="47.75269" lon="2.0141">
        <ele>109</ele>
        <time>2017-07-30T07:40:55.350Z</time>
      </trkpt>
      <trkpt lat="47.75269" lon="2.0141">
        <ele>109</ele>
        <time>2017-07-30T07:40:56.344Z</time>
      </trkpt>
      <trkpt lat="47.75269" lon="2.01426">
        <ele>110</ele>
        <time>2017-07-30T07:40:57.348Z</time>
      </trkpt>
      <trkpt lat="47.75269" lon="2.01426">
        <ele>110</ele>
        <time>2017-07-30T07:40:58.329Z</time>
      </trkpt>
      <trkpt lat="47.75268" lon="2.01442">
        <ele>110</ele>
        <time>2017-07-30T07:40:59.319Z</time>
      </trkpt>
      <trkpt lat="47.75268" lon="2.01442">
        <ele>110</ele>
        <time>2017-07-30T07:41:00.311Z</time>
      </trkpt>
      <trkpt lat="47.75269" lon="2.0145">
        <ele>110</ele>
        <time>2017-07-30T07:41:01.312Z</time>
      </trkpt>
      <trkpt lat="47.7527" lon="2.01458">
        <ele>110</ele>
        <time>2017-07-30T07:41:02.343Z</time>
      </trkpt>
      <trkpt lat="47.7527" lon="2.01458">
        <ele>110</ele>
        <time>2017-07-30T07:41:03.312Z</time>
      </trkpt>
      <trkpt lat="47.75272" lon="2.01474">
        <ele>110</ele>
        <time>2017-07-30T07:41:04.347Z</time>
      </trkpt>
      <trkpt lat="47.75272" lon="2.01474">
        <ele>110</ele>
        <time>2017-07-30T07:41:05.314Z</time>
      </trkpt>
      <trkpt lat="47.75275" lon="2.0149">
        <ele>111</ele>
        <time>2017-07-30T07:41:06.350Z</time>
      </trkpt>
      <trkpt lat="47.75277" lon="2.01506">
        <ele>111</ele>
        <time>2017-07-30T07:41:07.350Z</time>
      </trkpt>
      <trkpt lat="47.75277" lon="2.01506">
        <ele>111</ele>
        <time>2017-07-30T07:41:08.347Z</time>
      </trkpt>
      <trkpt lat="47.75277" lon="2.01506">
        <ele>111</ele>
        <time>2017-07-30T07:41:09.311Z</time>
      </trkpt>
      <trkpt lat="47.7528" lon="2.01521">
        <ele>111</ele>
        <time>2017-07-30T07:41:10.312Z</time>
      </trkpt>
      <trkpt lat="47.75281" lon="2.01529">
        <ele>111</ele>
        <time>2017-07-30T07:41:11.314Z</time>
      </trkpt>
      <trkpt lat="47.75282" lon="2.01536">
        <ele>111</ele>
        <time>2017-07-30T07:41:12.323Z</time>
      </trkpt>
      <trkpt lat="47.75287" lon="2.01552">
        <ele>111</ele>
        <time>2017-07-30T07:41:13.349Z</time>
      </trkpt>
      <trkpt lat="47.75287" lon="2.01552">
        <ele>111</ele>
        <time>2017-07-30T07:41:14.330Z</time>
      </trkpt>
      <trkpt lat="47.7529" lon="2.01566">
        <ele>112</ele>
        <time>2017-07-30T07:41:15.319Z</time>
      </trkpt>
      <trkpt lat="47.7529" lon="2.01566">
        <ele>112</ele>
        <time>2017-07-30T07:41:16.346Z</time>
      </trkpt>
      <trkpt lat="47.75291" lon="2.01579">
        <ele>113</ele>
        <time>2017-07-30T07:41:17.349Z</time>
      </trkpt>
      <trkpt lat="47.75291" lon="2.01579">
        <ele>113</ele>
        <time>2017-07-30T07:41:18.325Z</time>
      </trkpt>
      <trkpt lat="47.75291" lon="2.01593">
        <ele>114</ele>
        <time>2017-07-30T07:41:19.319Z</time>
      </trkpt>
      <trkpt lat="47.75291" lon="2.016">
        <ele>115</ele>
        <time>2017-07-30T07:41:20.350Z</time>
      </trkpt>
      <trkpt lat="47.75291" lon="2.016">
        <ele>115</ele>
        <time>2017-07-30T07:41:21.343Z</time>
      </trkpt>
      <trkpt lat="47.75293" lon="2.01612">
        <ele>115</ele>
        <time>2017-07-30T07:41:22.349Z</time>
      </trkpt>
      <trkpt lat="47.75293" lon="2.01612">
        <ele>115</ele>
        <time>2017-07-30T07:41:23.348Z</time>
      </trkpt>
      <trkpt lat="47.75293" lon="2.01624">
        <ele>116</ele>
        <time>2017-07-30T07:41:24.349Z</time>
      </trkpt>
      <trkpt lat="47.75293" lon="2.01629">
        <ele>116</ele>
        <time>2017-07-30T07:41:25.350Z</time>
      </trkpt>
      <trkpt lat="47.75293" lon="2.01629">
        <ele>116</ele>
        <time>2017-07-30T07:41:26.344Z</time>
      </trkpt>
      <trkpt lat="47.75294" lon="2.01637">
        <ele>116</ele>
        <time>2017-07-30T07:41:27.349Z</time>
      </trkpt>
      <trkpt lat="47.75294" lon="2.01637">
        <ele>116</ele>
        <time>2017-07-30T07:41:28.348Z</time>
      </trkpt>
      <trkpt lat="47.75294" lon="2.01637">
        <ele>116</ele>
        <time>2017-07-30T07:41:29.311Z</time>
      </trkpt>
      <trkpt lat="47.75296" lon="2.01645">
        <ele>116</ele>
        <time>2017-07-30T07:41:30.312Z</time>
      </trkpt>
      <trkpt lat="47.75298" lon="2.0165">
        <ele>116</ele>
        <time>2017-07-30T07:41:31.350Z</time>
      </trkpt>
      <trkpt lat="47.75298" lon="2.0165">
        <ele>116</ele>
        <time>2017-07-30T07:41:32.346Z</time>
      </trkpt>
      <trkpt lat="47.75299" lon="2.01655">
        <ele>116</ele>
        <time>2017-07-30T07:41:33.348Z</time>
      </trkpt>
      <trkpt lat="47.753" lon="2.01658">
        <ele>115</ele>
        <time>2017-07-30T07:41:34.349Z</time>
      </trkpt>
      <trkpt lat="47.753" lon="2.01658">
        <ele>115</ele>
        <time>2017-07-30T07:41:35.348Z</time>
      </trkpt>
      <trkpt lat="47.75302" lon="2.01662">
        <ele>115</ele>
        <time>2017-07-30T07:41:36.360Z</time>
      </trkpt>
      <trkpt lat="47.75302" lon="2.01664">
        <ele>115</ele>
        <time>2017-07-30T07:41:37.350Z</time>
      </trkpt>
      <trkpt lat="47.75302" lon="2.01664">
        <ele>115</ele>
        <time>2017-07-30T07:41:38.343Z</time>
      </trkpt>
      <trkpt lat="47.75303" lon="2.01664">
        <ele>115</ele>
        <time>2017-07-30T07:41:39.349Z</time>
      </trkpt>
      <trkpt lat="47.75304" lon="2.01665">
        <ele>115</ele>
        <time>2017-07-30T07:41:40.349Z</time>
      </trkpt>
      <trkpt lat="47.75304" lon="2.01665">
        <ele>115</ele>
        <time>2017-07-30T07:41:41.347Z</time>
      </trkpt>
      <trkpt lat="47.75304" lon="2.01665">
        <ele>115</ele>
        <time>2017-07-30T07:41:42.343Z</time>
      </trkpt>
      <trkpt lat="47.75304" lon="2.01665">
        <ele>115</ele>
        <time>2017-07-30T07:41:43.349Z</time>
      </trkpt>
      <trkpt lat="47.75304" lon="2.01665">
        <ele>115</ele>
        <time>2017-07-30T07:41:44.346Z</time>
      </trkpt>
      <trkpt lat="47.75307" lon="2.01678">
        <ele>114</ele>
        <time>2017-07-30T07:41:45.338Z</time>
      </trkpt>
      <trkpt lat="47.75309" lon="2.01683">
        <ele>114</ele>
        <time>2017-07-30T07:41:46.347Z</time>
      </trkpt>
      <trkpt lat="47.75309" lon="2.01683">
        <ele>114</ele>
        <time>2017-07-30T07:41:47.337Z</time>
      </trkpt>
      <trkpt lat="47.75312" lon="2.01694">
        <ele>114</ele>
        <time>2017-07-30T07:41:48.341Z</time>
      </trkpt>
      <trkpt lat="47.75314" lon="2.01699">
        <ele>114</ele>
        <time>2017-07-30T07:41:49.346Z</time>
      </trkpt>
      <trkpt lat="47.75314" lon="2.01699">
        <ele>114</ele>
        <time>2017-07-30T07:41:50.335Z</time>
      </trkpt>
      <trkpt lat="47.75318" lon="2.0171">
        <ele>114</ele>
        <time>2017-07-30T07:41:51.336Z</time>
      </trkpt>
      <trkpt lat="47.7532" lon="2.01715">
        <ele>114</ele>
        <time>2017-07-30T07:41:52.318Z</time>
      </trkpt>
      <trkpt lat="47.75322" lon="2.0172">
        <ele>114</ele>
        <time>2017-07-30T07:41:53.342Z</time>
      </trkpt>
      <trkpt lat="47.75323" lon="2.01725">
        <ele>114</ele>
        <time>2017-07-30T07:41:54.386Z</time>
      </trkpt>
      <trkpt lat="47.75325" lon="2.01731">
        <ele>114</ele>
        <time>2017-07-30T07:41:55.349Z</time>
      </trkpt>
      <trkpt lat="47.75325" lon="2.01731">
        <ele>114</ele>
        <time>2017-07-30T07:41:56.340Z</time>
      </trkpt>
      <trkpt lat="47.75327" lon="2.01743">
        <ele>114</ele>
        <time>2017-07-30T07:41:57.338Z</time>
      </trkpt>
      <trkpt lat="47.75327" lon="2.01743">
        <ele>114</ele>
        <time>2017-07-30T07:41:58.333Z</time>
      </trkpt>
      <trkpt lat="47.75331" lon="2.01757">
        <ele>114</ele>
        <time>2017-07-30T07:41:59.339Z</time>
      </trkpt>
      <trkpt lat="47.75331" lon="2.01757">
        <ele>114</ele>
        <time>2017-07-30T07:42:00.335Z</time>
      </trkpt>
      <trkpt lat="47.75333" lon="2.01771">
        <ele>113</ele>
        <time>2017-07-30T07:42:01.339Z</time>
      </trkpt>
      <trkpt lat="47.75334" lon="2.01779">
        <ele>113</ele>
        <time>2017-07-30T07:42:02.339Z</time>
      </trkpt>
      <trkpt lat="47.75334" lon="2.01779">
        <ele>113</ele>
        <time>2017-07-30T07:42:03.336Z</time>
      </trkpt>
      <trkpt lat="47.75334" lon="2.01794">
        <ele>113</ele>
        <time>2017-07-30T07:42:04.341Z</time>
      </trkpt>
      <trkpt lat="47.75334" lon="2.01802">
        <ele>113</ele>
        <time>2017-07-30T07:42:05.344Z</time>
      </trkpt>
      <trkpt lat="47.75334" lon="2.01802">
        <ele>113</ele>
        <time>2017-07-30T07:42:06.337Z</time>
      </trkpt>
      <trkpt lat="47.75333" lon="2.01817">
        <ele>113</ele>
        <time>2017-07-30T07:42:07.346Z</time>
      </trkpt>
      <trkpt lat="47.75333" lon="2.01817">
        <ele>113</ele>
        <time>2017-07-30T07:42:08.339Z</time>
      </trkpt>
      <trkpt lat="47.75332" lon="2.01832">
        <ele>112</ele>
        <time>2017-07-30T07:42:09.342Z</time>
      </trkpt>
      <trkpt lat="47.75332" lon="2.01832">
        <ele>112</ele>
        <time>2017-07-30T07:42:10.339Z</time>
      </trkpt>
      <trkpt lat="47.75331" lon="2.01846">
        <ele>112</ele>
        <time>2017-07-30T07:42:11.341Z</time>
      </trkpt>
      <trkpt lat="47.75331" lon="2.01853">
        <ele>112</ele>
        <time>2017-07-30T07:42:12.342Z</time>
      </trkpt>
      <trkpt lat="47.75331" lon="2.01853">
        <ele>112</ele>
        <time>2017-07-30T07:42:13.337Z</time>
      </trkpt>
      <trkpt lat="47.7533" lon="2.01866">
        <ele>112</ele>
        <time>2017-07-30T07:42:14.341Z</time>
      </trkpt>
      <trkpt lat="47.7533" lon="2.01871">
        <ele>112</ele>
        <time>2017-07-30T07:42:15.342Z</time>
      </trkpt>
      <trkpt lat="47.75329" lon="2.01877">
        <ele>112</ele>
        <time>2017-07-30T07:42:16.339Z</time>
      </trkpt>
      <trkpt lat="47.75329" lon="2.01877">
        <ele>112</ele>
        <time>2017-07-30T07:42:17.320Z</time>
      </trkpt>
      <trkpt lat="47.75327" lon="2.01889">
        <ele>112</ele>
        <time>2017-07-30T07:42:18.339Z</time>
      </trkpt>
      <trkpt lat="47.75326" lon="2.01895">
        <ele>112</ele>
        <time>2017-07-30T07:42:19.339Z</time>
      </trkpt>
      <trkpt lat="47.75326" lon="2.01895">
        <ele>112</ele>
        <time>2017-07-30T07:42:20.333Z</time>
      </trkpt>
      <trkpt lat="47.75324" lon="2.01906">
        <ele>112</ele>
        <time>2017-07-30T07:42:21.343Z</time>
      </trkpt>
      <trkpt lat="47.75323" lon="2.01912">
        <ele>112</ele>
        <time>2017-07-30T07:42:22.338Z</time>
      </trkpt>
      <trkpt lat="47.75322" lon="2.01919">
        <ele>112</ele>
        <time>2017-07-30T07:42:23.339Z</time>
      </trkpt>
      <trkpt lat="47.75322" lon="2.01919">
        <ele>112</ele>
        <time>2017-07-30T07:42:24.340Z</time>
      </trkpt>
      <trkpt lat="47.75319" lon="2.01931">
        <ele>111</ele>
        <time>2017-07-30T07:42:25.346Z</time>
      </trkpt>
      <trkpt lat="47.75319" lon="2.01931">
        <ele>111</ele>
        <time>2017-07-30T07:42:26.312Z</time>
      </trkpt>
      <trkpt lat="47.75317" lon="2.01941">
        <ele>112</ele>
        <time>2017-07-30T07:42:27.339Z</time>
      </trkpt>
      <trkpt lat="47.75317" lon="2.01941">
        <ele>112</ele>
        <time>2017-07-30T07:42:28.336Z</time>
      </trkpt>
      <trkpt lat="47.75315" lon="2.01948">
        <ele>112</ele>
        <time>2017-07-30T07:42:29.338Z</time>
      </trkpt>
      <trkpt lat="47.75315" lon="2.01948">
        <ele>112</ele>
        <time>2017-07-30T07:42:30.336Z</time>
      </trkpt>
      <trkpt lat="47.75314" lon="2.01952">
        <ele>112</ele>
        <time>2017-07-30T07:42:31.338Z</time>
      </trkpt>
      <trkpt lat="47.75314" lon="2.01952">
        <ele>112</ele>
        <time>2017-07-30T07:42:32.336Z</time>
      </trkpt>
      <trkpt lat="47.75315" lon="2.01953">
        <ele>113</ele>
        <time>2017-07-30T07:42:33.334Z</time>
      </trkpt>
      <trkpt lat="47.75315" lon="2.01953">
        <ele>113</ele>
        <time>2017-07-30T07:42:34.338Z</time>
      </trkpt>
      <trkpt lat="47.75315" lon="2.01953">
        <ele>113</ele>
        <time>2017-07-30T07:42:35.336Z</time>
      </trkpt>
      <trkpt lat="47.75312" lon="2.01959">
        <ele>117</ele>
        <time>2017-07-30T07:42:36.333Z</time>
      </trkpt>
      <trkpt lat="47.75312" lon="2.01959">
        <ele>117</ele>
        <time>2017-07-30T07:42:37.322Z</time>
      </trkpt>
      <trkpt lat="47.7531" lon="2.01969">
        <ele>117</ele>
        <time>2017-07-30T07:42:38.314Z</time>
      </trkpt>
      <trkpt lat="47.75309" lon="2.01974">
        <ele>117</ele>
        <time>2017-07-30T07:42:39.324Z</time>
      </trkpt>
      <trkpt lat="47.75309" lon="2.01974">
        <ele>117</ele>
        <time>2017-07-30T07:42:40.316Z</time>
      </trkpt>
      <trkpt lat="47.75307" lon="2.01985">
        <ele>117</ele>
        <time>2017-07-30T07:42:41.333Z</time>
      </trkpt>
      <trkpt lat="47.75307" lon="2.01985">
        <ele>117</ele>
        <time>2017-07-30T07:42:42.311Z</time>
      </trkpt>
      <trkpt lat="47.75305" lon="2.01996">
        <ele>117</ele>
        <time>2017-07-30T07:42:43.318Z</time>
      </trkpt>
      <trkpt lat="47.75305" lon="2.01996">
        <ele>117</ele>
        <time>2017-07-30T07:42:44.313Z</time>
      </trkpt>
      <trkpt lat="47.75304" lon="2.02005">
        <ele>117</ele>
        <time>2017-07-30T07:42:45.321Z</time>
      </trkpt>
      <trkpt lat="47.75304" lon="2.02005">
        <ele>117</ele>
        <time>2017-07-30T07:42:46.324Z</time>
      </trkpt>
      <trkpt lat="47.75303" lon="2.02014">
        <ele>116</ele>
        <time>2017-07-30T07:42:47.317Z</time>
      </trkpt>
      <trkpt lat="47.75303" lon="2.02014">
        <ele>116</ele>
        <time>2017-07-30T07:42:48.350Z</time>
      </trkpt>
      <trkpt lat="47.75303" lon="2.02025">
        <ele>116</ele>
        <time>2017-07-30T07:42:49.317Z</time>
      </trkpt>
      <trkpt lat="47.75303" lon="2.02025">
        <ele>116</ele>
        <time>2017-07-30T07:42:50.323Z</time>
      </trkpt>
      <trkpt lat="47.75301" lon="2.02036">
        <ele>116</ele>
        <time>2017-07-30T07:42:51.313Z</time>
      </trkpt>
      <trkpt lat="47.75301" lon="2.02042">
        <ele>116</ele>
        <time>2017-07-30T07:42:52.313Z</time>
      </trkpt>
      <trkpt lat="47.75301" lon="2.02042">
        <ele>116</ele>
        <time>2017-07-30T07:42:53.311Z</time>
      </trkpt>
      <trkpt lat="47.753" lon="2.02052">
        <ele>116</ele>
        <time>2017-07-30T07:42:54.312Z</time>
      </trkpt>
      <trkpt lat="47.75299" lon="2.02058">
        <ele>116</ele>
        <time>2017-07-30T07:42:55.320Z</time>
      </trkpt>
      <trkpt lat="47.75299" lon="2.02058">
        <ele>116</ele>
        <time>2017-07-30T07:42:56.311Z</time>
      </trkpt>
      <trkpt lat="47.75298" lon="2.02069">
        <ele>116</ele>
        <time>2017-07-30T07:42:57.312Z</time>
      </trkpt>
      <trkpt lat="47.75298" lon="2.02069">
        <ele>116</ele>
        <time>2017-07-30T07:42:58.346Z</time>
      </trkpt>
      <trkpt lat="47.75297" lon="2.02079">
        <ele>116</ele>
        <time>2017-07-30T07:42:59.312Z</time>
      </trkpt>
      <trkpt lat="47.75297" lon="2.02079">
        <ele>116</ele>
        <time>2017-07-30T07:43:00.350Z</time>
      </trkpt>
      <trkpt lat="47.75296" lon="2.0209">
        <ele>116</ele>
        <time>2017-07-30T07:43:01.313Z</time>
      </trkpt>
      <trkpt lat="47.75296" lon="2.0209">
        <ele>116</ele>
        <time>2017-07-30T07:43:02.346Z</time>
      </trkpt>
      <trkpt lat="47.75295" lon="2.021">
        <ele>116</ele>
        <time>2017-07-30T07:43:03.312Z</time>
      </trkpt>
      <trkpt lat="47.75295" lon="2.021">
        <ele>116</ele>
        <time>2017-07-30T07:43:04.311Z</time>
      </trkpt>
      <trkpt lat="47.75294" lon="2.02109">
        <ele>116</ele>
        <time>2017-07-30T07:43:05.317Z</time>
      </trkpt>
      <trkpt lat="47.75293" lon="2.02113">
        <ele>116</ele>
        <time>2017-07-30T07:43:06.313Z</time>
      </trkpt>
      <trkpt lat="47.75293" lon="2.02113">
        <ele>116</ele>
        <time>2017-07-30T07:43:07.312Z</time>
      </trkpt>
      <trkpt lat="47.75292" lon="2.02123">
        <ele>116</ele>
        <time>2017-07-30T07:43:08.311Z</time>
      </trkpt>
      <trkpt lat="47.75292" lon="2.02123">
        <ele>116</ele>
        <time>2017-07-30T07:43:09.311Z</time>
      </trkpt>
      <trkpt lat="47.75291" lon="2.02133">
        <ele>117</ele>
        <time>2017-07-30T07:43:10.329Z</time>
      </trkpt>
      <trkpt lat="47.7529" lon="2.02139">
        <ele>117</ele>
        <time>2017-07-30T07:43:11.335Z</time>
      </trkpt>
      <trkpt lat="47.7529" lon="2.02139">
        <ele>117</ele>
        <time>2017-07-30T07:43:12.342Z</time>
      </trkpt>
      <trkpt lat="47.75289" lon="2.02148">
        <ele>117</ele>
        <time>2017-07-30T07:43:13.312Z</time>
      </trkpt>
      <trkpt lat="47.75289" lon="2.02153">
        <ele>117</ele>
        <time>2017-07-30T07:43:14.313Z</time>
      </trkpt>
      <trkpt lat="47.75288" lon="2.02158">
        <ele>117</ele>
        <time>2017-07-30T07:43:15.312Z</time>
      </trkpt>
      <trkpt lat="47.75288" lon="2.02158">
        <ele>117</ele>
        <time>2017-07-30T07:43:16.349Z</time>
      </trkpt>
      <trkpt lat="47.75286" lon="2.02168">
        <ele>117</ele>
        <time>2017-07-30T07:43:17.317Z</time>
      </trkpt>
      <trkpt lat="47.75286" lon="2.02168">
        <ele>117</ele>
        <time>2017-07-30T07:43:18.311Z</time>
      </trkpt>
      <trkpt lat="47.75285" lon="2.02177">
        <ele>118</ele>
        <time>2017-07-30T07:43:19.313Z</time>
      </trkpt>
      <trkpt lat="47.75285" lon="2.02177">
        <ele>118</ele>
        <time>2017-07-30T07:43:20.316Z</time>
      </trkpt>
      <trkpt lat="47.75284" lon="2.02188">
        <ele>118</ele>
        <time>2017-07-30T07:43:21.312Z</time>
      </trkpt>
      <trkpt lat="47.75284" lon="2.02188">
        <ele>118</ele>
        <time>2017-07-30T07:43:22.311Z</time>
      </trkpt>
      <trkpt lat="47.75281" lon="2.02201">
        <ele>118</ele>
        <time>2017-07-30T07:43:23.311Z</time>
      </trkpt>
      <trkpt lat="47.75279" lon="2.02208">
        <ele>118</ele>
        <time>2017-07-30T07:43:24.358Z</time>
      </trkpt>
      <trkpt lat="47.75276" lon="2.02215">
        <ele>119</ele>
        <time>2017-07-30T07:43:25.331Z</time>
      </trkpt>
      <trkpt lat="47.75276" lon="2.02215">
        <ele>119</ele>
        <time>2017-07-30T07:43:26.339Z</time>
      </trkpt>
      <trkpt lat="47.75269" lon="2.02229">
        <ele>119</ele>
        <time>2017-07-30T07:43:27.314Z</time>
      </trkpt>
      <trkpt lat="47.75269" lon="2.02229">
        <ele>119</ele>
        <time>2017-07-30T07:43:28.311Z</time>
      </trkpt>
      <trkpt lat="47.7526" lon="2.02242">
        <ele>119</ele>
        <time>2017-07-30T07:43:29.316Z</time>
      </trkpt>
      <trkpt lat="47.7526" lon="2.02242">
        <ele>119</ele>
        <time>2017-07-30T07:43:30.324Z</time>
      </trkpt>
      <trkpt lat="47.7525" lon="2.02255">
        <ele>119</ele>
        <time>2017-07-30T07:43:31.317Z</time>
      </trkpt>
      <trkpt lat="47.7525" lon="2.02255">
        <ele>119</ele>
        <time>2017-07-30T07:43:32.313Z</time>
      </trkpt>
      <trkpt lat="47.75239" lon="2.02268">
        <ele>119</ele>
        <time>2017-07-30T07:43:33.315Z</time>
      </trkpt>
      <trkpt lat="47.75239" lon="2.02268">
        <ele>119</ele>
        <time>2017-07-30T07:43:34.313Z</time>
      </trkpt>
      <trkpt lat="47.75228" lon="2.0228">
        <ele>118</ele>
        <time>2017-07-30T07:43:35.315Z</time>
      </trkpt>
      <trkpt lat="47.75228" lon="2.0228">
        <ele>118</ele>
        <time>2017-07-30T07:43:36.322Z</time>
      </trkpt>
      <trkpt lat="47.75219" lon="2.02293">
        <ele>118</ele>
        <time>2017-07-30T07:43:37.315Z</time>
      </trkpt>
      <trkpt lat="47.75219" lon="2.02293">
        <ele>118</ele>
        <time>2017-07-30T07:43:38.313Z</time>
      </trkpt>
      <trkpt lat="47.75209" lon="2.02304">
        <ele>118</ele>
        <time>2017-07-30T07:43:39.315Z</time>
      </trkpt>
      <trkpt lat="47.75204" lon="2.0231">
        <ele>117</ele>
        <time>2017-07-30T07:43:40.319Z</time>
      </trkpt>
      <trkpt lat="47.75204" lon="2.0231">
        <ele>117</ele>
        <time>2017-07-30T07:43:41.311Z</time>
      </trkpt>
      <trkpt lat="47.75196" lon="2.02321">
        <ele>117</ele>
        <time>2017-07-30T07:43:42.311Z</time>
      </trkpt>
      <trkpt lat="47.75196" lon="2.02321">
        <ele>117</ele>
        <time>2017-07-30T07:43:43.312Z</time>
      </trkpt>
      <trkpt lat="47.75188" lon="2.02331">
        <ele>117</ele>
        <time>2017-07-30T07:43:44.312Z</time>
      </trkpt>
      <trkpt lat="47.75183" lon="2.02336">
        <ele>117</ele>
        <time>2017-07-30T07:43:45.333Z</time>
      </trkpt>
      <trkpt lat="47.75183" lon="2.02336">
        <ele>117</ele>
        <time>2017-07-30T07:43:46.343Z</time>
      </trkpt>
      <trkpt lat="47.75175" lon="2.02346">
        <ele>116</ele>
        <time>2017-07-30T07:43:47.312Z</time>
      </trkpt>
      <trkpt lat="47.75175" lon="2.02346">
        <ele>116</ele>
        <time>2017-07-30T07:43:48.346Z</time>
      </trkpt>
      <trkpt lat="47.75167" lon="2.02356">
        <ele>115</ele>
        <time>2017-07-30T07:43:49.313Z</time>
      </trkpt>
      <trkpt lat="47.75167" lon="2.02356">
        <ele>115</ele>
        <time>2017-07-30T07:43:50.339Z</time>
      </trkpt>
      <trkpt lat="47.75159" lon="2.02366">
        <ele>115</ele>
        <time>2017-07-30T07:43:51.328Z</time>
      </trkpt>
      <trkpt lat="47.75159" lon="2.02366">
        <ele>115</ele>
        <time>2017-07-30T07:43:52.318Z</time>
      </trkpt>
      <trkpt lat="47.75151" lon="2.02375">
        <ele>114</ele>
        <time>2017-07-30T07:43:53.313Z</time>
      </trkpt>
      <trkpt lat="47.75151" lon="2.02375">
        <ele>114</ele>
        <time>2017-07-30T07:43:54.311Z</time>
      </trkpt>
      <trkpt lat="47.75143" lon="2.02384">
        <ele>114</ele>
        <time>2017-07-30T07:43:55.314Z</time>
      </trkpt>
      <trkpt lat="47.75143" lon="2.02384">
        <ele>114</ele>
        <time>2017-07-30T07:43:56.321Z</time>
      </trkpt>
      <trkpt lat="47.75135" lon="2.02393">
        <ele>113</ele>
        <time>2017-07-30T07:43:57.311Z</time>
      </trkpt>
      <trkpt lat="47.75135" lon="2.02393">
        <ele>113</ele>
        <time>2017-07-30T07:43:58.311Z</time>
      </trkpt>
      <trkpt lat="47.75128" lon="2.02401">
        <ele>113</ele>
        <time>2017-07-30T07:43:59.312Z</time>
      </trkpt>
      <trkpt lat="47.75128" lon="2.02401">
        <ele>113</ele>
        <time>2017-07-30T07:44:00.347Z</time>
      </trkpt>
      <trkpt lat="47.75121" lon="2.02412">
        <ele>113</ele>
        <time>2017-07-30T07:44:01.313Z</time>
      </trkpt>
      <trkpt lat="47.75121" lon="2.02412">
        <ele>113</ele>
        <time>2017-07-30T07:44:02.311Z</time>
      </trkpt>
      <trkpt lat="47.75116" lon="2.02424">
        <ele>113</ele>
        <time>2017-07-30T07:44:03.313Z</time>
      </trkpt>
      <trkpt lat="47.75116" lon="2.02424">
        <ele>113</ele>
        <time>2017-07-30T07:44:04.347Z</time>
      </trkpt>
      <trkpt lat="47.75114" lon="2.02438">
        <ele>113</ele>
        <time>2017-07-30T07:44:05.311Z</time>
      </trkpt>
      <trkpt lat="47.75114" lon="2.02438">
        <ele>113</ele>
        <time>2017-07-30T07:44:06.316Z</time>
      </trkpt>
      <trkpt lat="47.75114" lon="2.02453">
        <ele>113</ele>
        <time>2017-07-30T07:44:07.314Z</time>
      </trkpt>
      <trkpt lat="47.75114" lon="2.02453">
        <ele>113</ele>
        <time>2017-07-30T07:44:08.311Z</time>
      </trkpt>
      <trkpt lat="47.75113" lon="2.02467">
        <ele>113</ele>
        <time>2017-07-30T07:44:09.311Z</time>
      </trkpt>
      <trkpt lat="47.75113" lon="2.02467">
        <ele>113</ele>
        <time>2017-07-30T07:44:10.311Z</time>
      </trkpt>
      <trkpt lat="47.75112" lon="2.02482">
        <ele>113</ele>
        <time>2017-07-30T07:44:11.312Z</time>
      </trkpt>
      <trkpt lat="47.75112" lon="2.02482">
        <ele>113</ele>
        <time>2017-07-30T07:44:12.311Z</time>
      </trkpt>
      <trkpt lat="47.75111" lon="2.02496">
        <ele>112</ele>
        <time>2017-07-30T07:44:13.313Z</time>
      </trkpt>
      <trkpt lat="47.75111" lon="2.02496">
        <ele>112</ele>
        <time>2017-07-30T07:44:14.311Z</time>
      </trkpt>
      <trkpt lat="47.75111" lon="2.02512">
        <ele>112</ele>
        <time>2017-07-30T07:44:15.316Z</time>
      </trkpt>
      <trkpt lat="47.75111" lon="2.02512">
        <ele>112</ele>
        <time>2017-07-30T07:44:16.323Z</time>
      </trkpt>
      <trkpt lat="47.75111" lon="2.02529">
        <ele>112</ele>
        <time>2017-07-30T07:44:17.313Z</time>
      </trkpt>
      <trkpt lat="47.75111" lon="2.02529">
        <ele>112</ele>
        <time>2017-07-30T07:44:18.314Z</time>
      </trkpt>
      <trkpt lat="47.75112" lon="2.02546">
        <ele>111</ele>
        <time>2017-07-30T07:44:19.318Z</time>
      </trkpt>
      <trkpt lat="47.75112" lon="2.02546">
        <ele>111</ele>
        <time>2017-07-30T07:44:20.321Z</time>
      </trkpt>
      <trkpt lat="47.75112" lon="2.02563">
        <ele>111</ele>
        <time>2017-07-30T07:44:21.316Z</time>
      </trkpt>
      <trkpt lat="47.75112" lon="2.02563">
        <ele>111</ele>
        <time>2017-07-30T07:44:22.313Z</time>
      </trkpt>
      <trkpt lat="47.75114" lon="2.0258">
        <ele>111</ele>
        <time>2017-07-30T07:44:23.316Z</time>
      </trkpt>
      <trkpt lat="47.75114" lon="2.02588">
        <ele>111</ele>
        <time>2017-07-30T07:44:24.318Z</time>
      </trkpt>
      <trkpt lat="47.75115" lon="2.02597">
        <ele>111</ele>
        <time>2017-07-30T07:44:25.329Z</time>
      </trkpt>
      <trkpt lat="47.75115" lon="2.02597">
        <ele>111</ele>
        <time>2017-07-30T07:44:26.328Z</time>
      </trkpt>
      <trkpt lat="47.75116" lon="2.02613">
        <ele>110</ele>
        <time>2017-07-30T07:44:27.319Z</time>
      </trkpt>
      <trkpt lat="47.75116" lon="2.02613">
        <ele>110</ele>
        <time>2017-07-30T07:44:28.311Z</time>
      </trkpt>
      <trkpt lat="47.75117" lon="2.02629">
        <ele>110</ele>
        <time>2017-07-30T07:44:29.312Z</time>
      </trkpt>
      <trkpt lat="47.75117" lon="2.02629">
        <ele>110</ele>
        <time>2017-07-30T07:44:30.346Z</time>
      </trkpt>
      <trkpt lat="47.75118" lon="2.02644">
        <ele>110</ele>
        <time>2017-07-30T07:44:31.313Z</time>
      </trkpt>
      <trkpt lat="47.75118" lon="2.02644">
        <ele>110</ele>
        <time>2017-07-30T07:44:32.311Z</time>
      </trkpt>
      <trkpt lat="47.75118" lon="2.0266">
        <ele>109</ele>
        <time>2017-07-30T07:44:33.313Z</time>
      </trkpt>
      <trkpt lat="47.75118" lon="2.0266">
        <ele>109</ele>
        <time>2017-07-30T07:44:34.347Z</time>
      </trkpt>
      <trkpt lat="47.75119" lon="2.02675">
        <ele>109</ele>
        <time>2017-07-30T07:44:35.312Z</time>
      </trkpt>
      <trkpt lat="47.75119" lon="2.02675">
        <ele>109</ele>
        <time>2017-07-30T07:44:36.312Z</time>
      </trkpt>
      <trkpt lat="47.75119" lon="2.0269">
        <ele>109</ele>
        <time>2017-07-30T07:44:37.313Z</time>
      </trkpt>
      <trkpt lat="47.75119" lon="2.0269">
        <ele>109</ele>
        <time>2017-07-30T07:44:38.311Z</time>
      </trkpt>
      <trkpt lat="47.75121" lon="2.02705">
        <ele>109</ele>
        <time>2017-07-30T07:44:39.311Z</time>
      </trkpt>
      <trkpt lat="47.75121" lon="2.02705">
        <ele>109</ele>
        <time>2017-07-30T07:44:40.311Z</time>
      </trkpt>
      <trkpt lat="47.75123" lon="2.0272">
        <ele>109</ele>
        <time>2017-07-30T07:44:41.312Z</time>
      </trkpt>
      <trkpt lat="47.75123" lon="2.0272">
        <ele>109</ele>
        <time>2017-07-30T07:44:42.311Z</time>
      </trkpt>
      <trkpt lat="47.75124" lon="2.02735">
        <ele>109</ele>
        <time>2017-07-30T07:44:43.314Z</time>
      </trkpt>
      <trkpt lat="47.75124" lon="2.02735">
        <ele>109</ele>
        <time>2017-07-30T07:44:44.311Z</time>
      </trkpt>
      <trkpt lat="47.75125" lon="2.0275">
        <ele>109</ele>
        <time>2017-07-30T07:44:45.311Z</time>
      </trkpt>
      <trkpt lat="47.75125" lon="2.0275">
        <ele>109</ele>
        <time>2017-07-30T07:44:46.317Z</time>
      </trkpt>
      <trkpt lat="47.75126" lon="2.02765">
        <ele>109</ele>
        <time>2017-07-30T07:44:47.312Z</time>
      </trkpt>
      <trkpt lat="47.75126" lon="2.02765">
        <ele>109</ele>
        <time>2017-07-30T07:44:48.311Z</time>
      </trkpt>
      <trkpt lat="47.75128" lon="2.02781">
        <ele>109</ele>
        <time>2017-07-30T07:44:49.313Z</time>
      </trkpt>
      <trkpt lat="47.75128" lon="2.02781">
        <ele>109</ele>
        <time>2017-07-30T07:44:50.314Z</time>
      </trkpt>
      <trkpt lat="47.75128" lon="2.02798">
        <ele>109</ele>
        <time>2017-07-30T07:44:51.331Z</time>
      </trkpt>
      <trkpt lat="47.75128" lon="2.02798">
        <ele>109</ele>
        <time>2017-07-30T07:44:52.320Z</time>
      </trkpt>
      <trkpt lat="47.75129" lon="2.02814">
        <ele>109</ele>
        <time>2017-07-30T07:44:53.311Z</time>
      </trkpt>
      <trkpt lat="47.75129" lon="2.02814">
        <ele>109</ele>
        <time>2017-07-30T07:44:54.311Z</time>
      </trkpt>
      <trkpt lat="47.7513" lon="2.02831">
        <ele>108</ele>
        <time>2017-07-30T07:44:55.317Z</time>
      </trkpt>
      <trkpt lat="47.7513" lon="2.02831">
        <ele>108</ele>
        <time>2017-07-30T07:44:56.312Z</time>
      </trkpt>
      <trkpt lat="47.7513" lon="2.02847">
        <ele>108</ele>
        <time>2017-07-30T07:44:57.311Z</time>
      </trkpt>
      <trkpt lat="47.7513" lon="2.02847">
        <ele>108</ele>
        <time>2017-07-30T07:44:58.311Z</time>
      </trkpt>
      <trkpt lat="47.7513" lon="2.02863">
        <ele>108</ele>
        <time>2017-07-30T07:44:59.313Z</time>
      </trkpt>
      <trkpt lat="47.7513" lon="2.02872">
        <ele>108</ele>
        <time>2017-07-30T07:45:00.321Z</time>
      </trkpt>
      <trkpt lat="47.75131" lon="2.0288">
        <ele>108</ele>
        <time>2017-07-30T07:45:01.315Z</time>
      </trkpt>
      <trkpt lat="47.75131" lon="2.0288">
        <ele>108</ele>
        <time>2017-07-30T07:45:02.311Z</time>
      </trkpt>
      <trkpt lat="47.75134" lon="2.02895">
        <ele>107</ele>
        <time>2017-07-30T07:45:03.314Z</time>
      </trkpt>
      <trkpt lat="47.75134" lon="2.02895">
        <ele>107</ele>
        <time>2017-07-30T07:45:04.311Z</time>
      </trkpt>
      <trkpt lat="47.75136" lon="2.0291">
        <ele>107</ele>
        <time>2017-07-30T07:45:05.315Z</time>
      </trkpt>
      <trkpt lat="47.75137" lon="2.02918">
        <ele>107</ele>
        <time>2017-07-30T07:45:06.318Z</time>
      </trkpt>
      <trkpt lat="47.75138" lon="2.02925">
        <ele>107</ele>
        <time>2017-07-30T07:45:07.320Z</time>
      </trkpt>
      <trkpt lat="47.75138" lon="2.02925">
        <ele>107</ele>
        <time>2017-07-30T07:45:08.313Z</time>
      </trkpt>
      <trkpt lat="47.7514" lon="2.02941">
        <ele>107</ele>
        <time>2017-07-30T07:45:09.317Z</time>
      </trkpt>
      <trkpt lat="47.7514" lon="2.02941">
        <ele>107</ele>
        <time>2017-07-30T07:45:10.316Z</time>
      </trkpt>
      <trkpt lat="47.75142" lon="2.02957">
        <ele>107</ele>
        <time>2017-07-30T07:45:11.316Z</time>
      </trkpt>
      <trkpt lat="47.75142" lon="2.02957">
        <ele>107</ele>
        <time>2017-07-30T07:45:12.313Z</time>
      </trkpt>
      <trkpt lat="47.75145" lon="2.02973">
        <ele>107</ele>
        <time>2017-07-30T07:45:13.319Z</time>
      </trkpt>
      <trkpt lat="47.75145" lon="2.02973">
        <ele>107</ele>
        <time>2017-07-30T07:45:14.311Z</time>
      </trkpt>
      <trkpt lat="47.75146" lon="2.02989">
        <ele>107</ele>
        <time>2017-07-30T07:45:15.315Z</time>
      </trkpt>
      <trkpt lat="47.75146" lon="2.02989">
        <ele>107</ele>
        <time>2017-07-30T07:45:16.313Z</time>
      </trkpt>
      <trkpt lat="47.75146" lon="2.03004">
        <ele>107</ele>
        <time>2017-07-30T07:45:17.312Z</time>
      </trkpt>
      <trkpt lat="47.75146" lon="2.03004">
        <ele>107</ele>
        <time>2017-07-30T07:45:18.311Z</time>
      </trkpt>
      <trkpt lat="47.75149" lon="2.0302">
        <ele>109</ele>
        <time>2017-07-30T07:45:19.314Z</time>
      </trkpt>
      <trkpt lat="47.75149" lon="2.0302">
        <ele>109</ele>
        <time>2017-07-30T07:45:20.312Z</time>
      </trkpt>
      <trkpt lat="47.7515" lon="2.03037">
        <ele>109</ele>
        <time>2017-07-30T07:45:21.311Z</time>
      </trkpt>
      <trkpt lat="47.7515" lon="2.03037">
        <ele>109</ele>
        <time>2017-07-30T07:45:22.312Z</time>
      </trkpt>
      <trkpt lat="47.75149" lon="2.03055">
        <ele>109</ele>
        <time>2017-07-30T07:45:23.314Z</time>
      </trkpt>
      <trkpt lat="47.75149" lon="2.03055">
        <ele>109</ele>
        <time>2017-07-30T07:45:24.338Z</time>
      </trkpt>
      <trkpt lat="47.75147" lon="2.03072">
        <ele>109</ele>
        <time>2017-07-30T07:45:25.314Z</time>
      </trkpt>
      <trkpt lat="47.75147" lon="2.03072">
        <ele>109</ele>
        <time>2017-07-30T07:45:26.311Z</time>
      </trkpt>
      <trkpt lat="47.75145" lon="2.03087">
        <ele>109</ele>
        <time>2017-07-30T07:45:27.313Z</time>
      </trkpt>
      <trkpt lat="47.75145" lon="2.03087">
        <ele>109</ele>
        <time>2017-07-30T07:45:28.311Z</time>
      </trkpt>
      <trkpt lat="47.75143" lon="2.03102">
        <ele>110</ele>
        <time>2017-07-30T07:45:29.313Z</time>
      </trkpt>
      <trkpt lat="47.75143" lon="2.03102">
        <ele>110</ele>
        <time>2017-07-30T07:45:30.311Z</time>
      </trkpt>
      <trkpt lat="47.75139" lon="2.03118">
        <ele>110</ele>
        <time>2017-07-30T07:45:31.312Z</time>
      </trkpt>
      <trkpt lat="47.75139" lon="2.03118">
        <ele>110</ele>
        <time>2017-07-30T07:45:32.311Z</time>
      </trkpt>
      <trkpt lat="47.75135" lon="2.03134">
        <ele>110</ele>
        <time>2017-07-30T07:45:33.311Z</time>
      </trkpt>
      <trkpt lat="47.75135" lon="2.03134">
        <ele>110</ele>
        <time>2017-07-30T07:45:34.311Z</time>
      </trkpt>
      <trkpt lat="47.75132" lon="2.03149">
        <ele>110</ele>
        <time>2017-07-30T07:45:35.324Z</time>
      </trkpt>
      <trkpt lat="47.75131" lon="2.03156">
        <ele>110</ele>
        <time>2017-07-30T07:45:36.313Z</time>
      </trkpt>
      <trkpt lat="47.7513" lon="2.03163">
        <ele>110</ele>
        <time>2017-07-30T07:45:37.313Z</time>
      </trkpt>
      <trkpt lat="47.7513" lon="2.03163">
        <ele>110</ele>
        <time>2017-07-30T07:45:38.311Z</time>
      </trkpt>
      <trkpt lat="47.75127" lon="2.03179">
        <ele>109</ele>
        <time>2017-07-30T07:45:39.311Z</time>
      </trkpt>
      <trkpt lat="47.75127" lon="2.03179">
        <ele>109</ele>
        <time>2017-07-30T07:45:40.325Z</time>
      </trkpt>
      <trkpt lat="47.75123" lon="2.03195">
        <ele>109</ele>
        <time>2017-07-30T07:45:41.314Z</time>
      </trkpt>
      <trkpt lat="47.75123" lon="2.03195">
        <ele>109</ele>
        <time>2017-07-30T07:45:42.311Z</time>
      </trkpt>
      <trkpt lat="47.75119" lon="2.03211">
        <ele>109</ele>
        <time>2017-07-30T07:45:43.313Z</time>
      </trkpt>
      <trkpt lat="47.75119" lon="2.03211">
        <ele>109</ele>
        <time>2017-07-30T07:45:44.311Z</time>
      </trkpt>
      <trkpt lat="47.75116" lon="2.03226">
        <ele>109</ele>
        <time>2017-07-30T07:45:45.311Z</time>
      </trkpt>
      <trkpt lat="47.75116" lon="2.03226">
        <ele>109</ele>
        <time>2017-07-30T07:45:46.311Z</time>
      </trkpt>
      <trkpt lat="47.75113" lon="2.03242">
        <ele>110</ele>
        <time>2017-07-30T07:45:47.321Z</time>
      </trkpt>
      <trkpt lat="47.75111" lon="2.0325">
        <ele>110</ele>
        <time>2017-07-30T07:45:48.311Z</time>
      </trkpt>
      <trkpt lat="47.7511" lon="2.03258">
        <ele>110</ele>
        <time>2017-07-30T07:45:49.314Z</time>
      </trkpt>
      <trkpt lat="47.7511" lon="2.03258">
        <ele>110</ele>
        <time>2017-07-30T07:45:50.311Z</time>
      </trkpt>
      <trkpt lat="47.75107" lon="2.03274">
        <ele>110</ele>
        <time>2017-07-30T07:45:51.325Z</time>
      </trkpt>
      <trkpt lat="47.75107" lon="2.03274">
        <ele>110</ele>
        <time>2017-07-30T07:45:52.314Z</time>
      </trkpt>
      <trkpt lat="47.75104" lon="2.03289">
        <ele>110</ele>
        <time>2017-07-30T07:45:53.317Z</time>
      </trkpt>
      <trkpt lat="47.75104" lon="2.03289">
        <ele>110</ele>
        <time>2017-07-30T07:45:54.314Z</time>
      </trkpt>
      <trkpt lat="47.75101" lon="2.03305">
        <ele>110</ele>
        <time>2017-07-30T07:45:55.316Z</time>
      </trkpt>
      <trkpt lat="47.75101" lon="2.03305">
        <ele>110</ele>
        <time>2017-07-30T07:45:56.311Z</time>
      </trkpt>
      <trkpt lat="47.75099" lon="2.0332">
        <ele>110</ele>
        <time>2017-07-30T07:45:57.334Z</time>
      </trkpt>
      <trkpt lat="47.75099" lon="2.0332">
        <ele>110</ele>
        <time>2017-07-30T07:45:58.325Z</time>
      </trkpt>
      <trkpt lat="47.75097" lon="2.03337">
        <ele>109</ele>
        <time>2017-07-30T07:45:59.324Z</time>
      </trkpt>
      <trkpt lat="47.75097" lon="2.03337">
        <ele>109</ele>
        <time>2017-07-30T07:46:00.318Z</time>
      </trkpt>
      <trkpt lat="47.75094" lon="2.03353">
        <ele>109</ele>
        <time>2017-07-30T07:46:01.328Z</time>
      </trkpt>
      <trkpt lat="47.75094" lon="2.03353">
        <ele>109</ele>
        <time>2017-07-30T07:46:02.337Z</time>
      </trkpt>
      <trkpt lat="47.75091" lon="2.0337">
        <ele>108</ele>
        <time>2017-07-30T07:46:03.346Z</time>
      </trkpt>
      <trkpt lat="47.75091" lon="2.0337">
        <ele>108</ele>
        <time>2017-07-30T07:46:04.313Z</time>
      </trkpt>
      <trkpt lat="47.75087" lon="2.03387">
        <ele>108</ele>
        <time>2017-07-30T07:46:05.314Z</time>
      </trkpt>
      <trkpt lat="47.75087" lon="2.03387">
        <ele>108</ele>
        <time>2017-07-30T07:46:06.311Z</time>
      </trkpt>
      <trkpt lat="47.75084" lon="2.03404">
        <ele>108</ele>
        <time>2017-07-30T07:46:07.316Z</time>
      </trkpt>
      <trkpt lat="47.75084" lon="2.03404">
        <ele>108</ele>
        <time>2017-07-30T07:46:08.326Z</time>
      </trkpt>
      <trkpt lat="47.75081" lon="2.03421">
        <ele>107</ele>
        <time>2017-07-30T07:46:09.315Z</time>
      </trkpt>
      <trkpt lat="47.75081" lon="2.03421">
        <ele>107</ele>
        <time>2017-07-30T07:46:10.311Z</time>
      </trkpt>
      <trkpt lat="47.75078" lon="2.03437">
        <ele>107</ele>
        <time>2017-07-30T07:46:11.313Z</time>
      </trkpt>
      <trkpt lat="47.75078" lon="2.03437">
        <ele>107</ele>
        <time>2017-07-30T07:46:12.311Z</time>
      </trkpt>
      <trkpt lat="47.75075" lon="2.03453">
        <ele>107</ele>
        <time>2017-07-30T07:46:13.315Z</time>
      </trkpt>
      <trkpt lat="47.75075" lon="2.03453">
        <ele>107</ele>
        <time>2017-07-30T07:46:14.311Z</time>
      </trkpt>
      <trkpt lat="47.75073" lon="2.03468">
        <ele>107</ele>
        <time>2017-07-30T07:46:15.314Z</time>
      </trkpt>
      <trkpt lat="47.75073" lon="2.03468">
        <ele>107</ele>
        <time>2017-07-30T07:46:16.311Z</time>
      </trkpt>
      <trkpt lat="47.7507" lon="2.03482">
        <ele>107</ele>
        <time>2017-07-30T07:46:17.313Z</time>
      </trkpt>
      <trkpt lat="47.7507" lon="2.03482">
        <ele>107</ele>
        <time>2017-07-30T07:46:18.311Z</time>
      </trkpt>
      <trkpt lat="47.7507" lon="2.03497">
        <ele>107</ele>
        <time>2017-07-30T07:46:19.313Z</time>
      </trkpt>
      <trkpt lat="47.7507" lon="2.03497">
        <ele>107</ele>
        <time>2017-07-30T07:46:20.347Z</time>
      </trkpt>
      <trkpt lat="47.75069" lon="2.0351">
        <ele>107</ele>
        <time>2017-07-30T07:46:21.334Z</time>
      </trkpt>
      <trkpt lat="47.75068" lon="2.03519">
        <ele>108</ele>
        <time>2017-07-30T07:46:22.322Z</time>
      </trkpt>
      <trkpt lat="47.75068" lon="2.03519">
        <ele>108</ele>
        <time>2017-07-30T07:46:23.311Z</time>
      </trkpt>
      <trkpt lat="47.75064" lon="2.03535">
        <ele>108</ele>
        <time>2017-07-30T07:46:24.345Z</time>
      </trkpt>
      <trkpt lat="47.75064" lon="2.03535">
        <ele>108</ele>
        <time>2017-07-30T07:46:25.347Z</time>
      </trkpt>
      <trkpt lat="47.75061" lon="2.03551">
        <ele>109</ele>
        <time>2017-07-30T07:46:26.313Z</time>
      </trkpt>
      <trkpt lat="47.75061" lon="2.03551">
        <ele>109</ele>
        <time>2017-07-30T07:46:27.312Z</time>
      </trkpt>
      <trkpt lat="47.75058" lon="2.03567">
        <ele>110</ele>
        <time>2017-07-30T07:46:28.313Z</time>
      </trkpt>
      <trkpt lat="47.75058" lon="2.03567">
        <ele>110</ele>
        <time>2017-07-30T07:46:29.311Z</time>
      </trkpt>
      <trkpt lat="47.75056" lon="2.03583">
        <ele>110</ele>
        <time>2017-07-30T07:46:30.312Z</time>
      </trkpt>
      <trkpt lat="47.75056" lon="2.03583">
        <ele>110</ele>
        <time>2017-07-30T07:46:31.313Z</time>
      </trkpt>
      <trkpt lat="47.75054" lon="2.03599">
        <ele>111</ele>
        <time>2017-07-30T07:46:32.313Z</time>
      </trkpt>
      <trkpt lat="47.75052" lon="2.03607">
        <ele>111</ele>
        <time>2017-07-30T07:46:33.314Z</time>
      </trkpt>
      <trkpt lat="47.75052" lon="2.03607">
        <ele>111</ele>
        <time>2017-07-30T07:46:34.311Z</time>
      </trkpt>
      <trkpt lat="47.75049" lon="2.03622">
        <ele>112</ele>
        <time>2017-07-30T07:46:35.313Z</time>
      </trkpt>
      <trkpt lat="47.75048" lon="2.0363">
        <ele>112</ele>
        <time>2017-07-30T07:46:36.313Z</time>
      </trkpt>
      <trkpt lat="47.75047" lon="2.03637">
        <ele>112</ele>
        <time>2017-07-30T07:46:37.313Z</time>
      </trkpt>
      <trkpt lat="47.75047" lon="2.03637">
        <ele>112</ele>
        <time>2017-07-30T07:46:38.347Z</time>
      </trkpt>
      <trkpt lat="47.75045" lon="2.03652">
        <ele>113</ele>
        <time>2017-07-30T07:46:39.311Z</time>
      </trkpt>
      <trkpt lat="47.75045" lon="2.03652">
        <ele>113</ele>
        <time>2017-07-30T07:46:40.324Z</time>
      </trkpt>
      <trkpt lat="47.75044" lon="2.03667">
        <ele>114</ele>
        <time>2017-07-30T07:46:41.317Z</time>
      </trkpt>
      <trkpt lat="47.75044" lon="2.03667">
        <ele>114</ele>
        <time>2017-07-30T07:46:42.320Z</time>
      </trkpt>
      <trkpt lat="47.75041" lon="2.03683">
        <ele>114</ele>
        <time>2017-07-30T07:46:43.318Z</time>
      </trkpt>
      <trkpt lat="47.75041" lon="2.03683">
        <ele>114</ele>
        <time>2017-07-30T07:46:44.314Z</time>
      </trkpt>
      <trkpt lat="47.75038" lon="2.03698">
        <ele>115</ele>
        <time>2017-07-30T07:46:45.331Z</time>
      </trkpt>
      <trkpt lat="47.75038" lon="2.03698">
        <ele>115</ele>
        <time>2017-07-30T07:46:46.320Z</time>
      </trkpt>
      <trkpt lat="47.75034" lon="2.03713">
        <ele>116</ele>
        <time>2017-07-30T07:46:47.318Z</time>
      </trkpt>
      <trkpt lat="47.75034" lon="2.03713">
        <ele>116</ele>
        <time>2017-07-30T07:46:48.314Z</time>
      </trkpt>
      <trkpt lat="47.75031" lon="2.03728">
        <ele>117</ele>
        <time>2017-07-30T07:46:49.320Z</time>
      </trkpt>
      <trkpt lat="47.75031" lon="2.03728">
        <ele>117</ele>
        <time>2017-07-30T07:46:50.321Z</time>
      </trkpt>
      <trkpt lat="47.75028" lon="2.03744">
        <ele>118</ele>
        <time>2017-07-30T07:46:51.317Z</time>
      </trkpt>
      <trkpt lat="47.75028" lon="2.03744">
        <ele>118</ele>
        <time>2017-07-30T07:46:52.313Z</time>
      </trkpt>
      <trkpt lat="47.75027" lon="2.03757">
        <ele>119</ele>
        <time>2017-07-30T07:46:53.317Z</time>
      </trkpt>
      <trkpt lat="47.75025" lon="2.03766">
        <ele>119</ele>
        <time>2017-07-30T07:46:54.311Z</time>
      </trkpt>
      <trkpt lat="47.75025" lon="2.03766">
        <ele>119</ele>
        <time>2017-07-30T07:46:55.324Z</time>
      </trkpt>
      <trkpt lat="47.75022" lon="2.03782">
        <ele>120</ele>
        <time>2017-07-30T07:46:56.313Z</time>
      </trkpt>
      <trkpt lat="47.75021" lon="2.0379">
        <ele>121</ele>
        <time>2017-07-30T07:46:57.314Z</time>
      </trkpt>
      <trkpt lat="47.75021" lon="2.0379">
        <ele>121</ele>
        <time>2017-07-30T07:46:58.333Z</time>
      </trkpt>
      <trkpt lat="47.75018" lon="2.03806">
        <ele>122</ele>
        <time>2017-07-30T07:46:59.321Z</time>
      </trkpt>
      <trkpt lat="47.75018" lon="2.03806">
        <ele>122</ele>
        <time>2017-07-30T07:47:00.311Z</time>
      </trkpt>
      <trkpt lat="47.75016" lon="2.03821">
        <ele>123</ele>
        <time>2017-07-30T07:47:01.313Z</time>
      </trkpt>
      <trkpt lat="47.75016" lon="2.03821">
        <ele>123</ele>
        <time>2017-07-30T07:47:02.311Z</time>
      </trkpt>
      <trkpt lat="47.75015" lon="2.03834">
        <ele>124</ele>
        <time>2017-07-30T07:47:03.313Z</time>
      </trkpt>
      <trkpt lat="47.75015" lon="2.03834">
        <ele>124</ele>
        <time>2017-07-30T07:47:04.311Z</time>
      </trkpt>
      <trkpt lat="47.75012" lon="2.03846">
        <ele>125</ele>
        <time>2017-07-30T07:47:05.313Z</time>
      </trkpt>
      <trkpt lat="47.75012" lon="2.03846">
        <ele>125</ele>
        <time>2017-07-30T07:47:06.315Z</time>
      </trkpt>
      <trkpt lat="47.7501" lon="2.03859">
        <ele>126</ele>
        <time>2017-07-30T07:47:07.316Z</time>
      </trkpt>
      <trkpt lat="47.7501" lon="2.03865">
        <ele>126</ele>
        <time>2017-07-30T07:47:08.313Z</time>
      </trkpt>
      <trkpt lat="47.7501" lon="2.03865">
        <ele>126</ele>
        <time>2017-07-30T07:47:09.311Z</time>
      </trkpt>
      <trkpt lat="47.75008" lon="2.03878">
        <ele>127</ele>
        <time>2017-07-30T07:47:10.321Z</time>
      </trkpt>
      <trkpt lat="47.75008" lon="2.03878">
        <ele>127</ele>
        <time>2017-07-30T07:47:11.311Z</time>
      </trkpt>
      <trkpt lat="47.75006" lon="2.03892">
        <ele>128</ele>
        <time>2017-07-30T07:47:12.343Z</time>
      </trkpt>
      <trkpt lat="47.75006" lon="2.03892">
        <ele>128</ele>
        <time>2017-07-30T07:47:13.313Z</time>
      </trkpt>
      <trkpt lat="47.75005" lon="2.03906">
        <ele>129</ele>
        <time>2017-07-30T07:47:14.313Z</time>
      </trkpt>
      <trkpt lat="47.75005" lon="2.03906">
        <ele>129</ele>
        <time>2017-07-30T07:47:15.312Z</time>
      </trkpt>
      <trkpt lat="47.75005" lon="2.03924">
        <ele>129</ele>
        <time>2017-07-30T07:47:16.314Z</time>
      </trkpt>
      <trkpt lat="47.75006" lon="2.03934">
        <ele>129</ele>
        <time>2017-07-30T07:47:17.314Z</time>
      </trkpt>
      <trkpt lat="47.75006" lon="2.03934">
        <ele>129</ele>
        <time>2017-07-30T07:47:18.311Z</time>
      </trkpt>
      <trkpt lat="47.75008" lon="2.03949">
        <ele>130</ele>
        <time>2017-07-30T07:47:19.315Z</time>
      </trkpt>
      <trkpt lat="47.75008" lon="2.03949">
        <ele>130</ele>
        <time>2017-07-30T07:47:20.319Z</time>
      </trkpt>
      <trkpt lat="47.75011" lon="2.03966">
        <ele>130</ele>
        <time>2017-07-30T07:47:21.314Z</time>
      </trkpt>
      <trkpt lat="47.75013" lon="2.03974">
        <ele>130</ele>
        <time>2017-07-30T07:47:22.315Z</time>
      </trkpt>
      <trkpt lat="47.75013" lon="2.03974">
        <ele>130</ele>
        <time>2017-07-30T07:47:23.312Z</time>
      </trkpt>
      <trkpt lat="47.75014" lon="2.0399">
        <ele>130</ele>
        <time>2017-07-30T07:47:24.322Z</time>
      </trkpt>
      <trkpt lat="47.75014" lon="2.04">
        <ele>130</ele>
        <time>2017-07-30T07:47:25.316Z</time>
      </trkpt>
      <trkpt lat="47.75014" lon="2.04">
        <ele>130</ele>
        <time>2017-07-30T07:47:26.311Z</time>
      </trkpt>
      <trkpt lat="47.75016" lon="2.04017">
        <ele>131</ele>
        <time>2017-07-30T07:47:27.319Z</time>
      </trkpt>
      <trkpt lat="47.75016" lon="2.04017">
        <ele>131</ele>
        <time>2017-07-30T07:47:28.311Z</time>
      </trkpt>
      <trkpt lat="47.75017" lon="2.04032">
        <ele>131</ele>
        <time>2017-07-30T07:47:29.327Z</time>
      </trkpt>
      <trkpt lat="47.75018" lon="2.04039">
        <ele>131</ele>
        <time>2017-07-30T07:47:30.320Z</time>
      </trkpt>
      <trkpt lat="47.7502" lon="2.04046">
        <ele>131</ele>
        <time>2017-07-30T07:47:31.320Z</time>
      </trkpt>
      <trkpt lat="47.7502" lon="2.04046">
        <ele>131</ele>
        <time>2017-07-30T07:47:32.312Z</time>
      </trkpt>
      <trkpt lat="47.75026" lon="2.0406">
        <ele>132</ele>
        <time>2017-07-30T07:47:33.318Z</time>
      </trkpt>
      <trkpt lat="47.75026" lon="2.0406">
        <ele>132</ele>
        <time>2017-07-30T07:47:34.311Z</time>
      </trkpt>
      <trkpt lat="47.7503" lon="2.04074">
        <ele>132</ele>
        <time>2017-07-30T07:47:35.327Z</time>
      </trkpt>
      <trkpt lat="47.7503" lon="2.04074">
        <ele>132</ele>
        <time>2017-07-30T07:47:36.319Z</time>
      </trkpt>
      <trkpt lat="47.75037" lon="2.0409">
        <ele>133</ele>
        <time>2017-07-30T07:47:37.320Z</time>
      </trkpt>
      <trkpt lat="47.75037" lon="2.0409">
        <ele>133</ele>
        <time>2017-07-30T07:47:38.313Z</time>
      </trkpt>
      <trkpt lat="47.75044" lon="2.04105">
        <ele>133</ele>
        <time>2017-07-30T07:47:39.314Z</time>
      </trkpt>
      <trkpt lat="47.75044" lon="2.04105">
        <ele>133</ele>
        <time>2017-07-30T07:47:40.350Z</time>
      </trkpt>
      <trkpt lat="47.75049" lon="2.0412">
        <ele>134</ele>
        <time>2017-07-30T07:47:41.313Z</time>
      </trkpt>
      <trkpt lat="47.75052" lon="2.04128">
        <ele>134</ele>
        <time>2017-07-30T07:47:42.313Z</time>
      </trkpt>
      <trkpt lat="47.75053" lon="2.04137">
        <ele>134</ele>
        <time>2017-07-30T07:47:43.315Z</time>
      </trkpt>
      <trkpt lat="47.75053" lon="2.04137">
        <ele>134</ele>
        <time>2017-07-30T07:47:44.311Z</time>
      </trkpt>
      <trkpt lat="47.75059" lon="2.04153">
        <ele>134</ele>
        <time>2017-07-30T07:47:45.314Z</time>
      </trkpt>
      <trkpt lat="47.75061" lon="2.04161">
        <ele>135</ele>
        <time>2017-07-30T07:47:46.312Z</time>
      </trkpt>
      <trkpt lat="47.75061" lon="2.04161">
        <ele>135</ele>
        <time>2017-07-30T07:47:47.312Z</time>
      </trkpt>
      <trkpt lat="47.75066" lon="2.04176">
        <ele>135</ele>
        <time>2017-07-30T07:47:48.313Z</time>
      </trkpt>
      <trkpt lat="47.75069" lon="2.04184">
        <ele>135</ele>
        <time>2017-07-30T07:47:49.315Z</time>
      </trkpt>
      <trkpt lat="47.75069" lon="2.04184">
        <ele>135</ele>
        <time>2017-07-30T07:47:50.312Z</time>
      </trkpt>
      <trkpt lat="47.75073" lon="2.04199">
        <ele>135</ele>
        <time>2017-07-30T07:47:51.319Z</time>
      </trkpt>
      <trkpt lat="47.75073" lon="2.04199">
        <ele>135</ele>
        <time>2017-07-30T07:47:52.311Z</time>
      </trkpt>
      <trkpt lat="47.75079" lon="2.04214">
        <ele>135</ele>
        <time>2017-07-30T07:47:53.314Z</time>
      </trkpt>
      <trkpt lat="47.75079" lon="2.04214">
        <ele>135</ele>
        <time>2017-07-30T07:47:54.312Z</time>
      </trkpt>
      <trkpt lat="47.75085" lon="2.04231">
        <ele>135</ele>
        <time>2017-07-30T07:47:55.314Z</time>
      </trkpt>
      <trkpt lat="47.75085" lon="2.04231">
        <ele>135</ele>
        <time>2017-07-30T07:47:56.312Z</time>
      </trkpt>
      <trkpt lat="47.75091" lon="2.04248">
        <ele>134</ele>
        <time>2017-07-30T07:47:57.312Z</time>
      </trkpt>
      <trkpt lat="47.75091" lon="2.04248">
        <ele>134</ele>
        <time>2017-07-30T07:47:58.311Z</time>
      </trkpt>
      <trkpt lat="47.75096" lon="2.04263">
        <ele>133</ele>
        <time>2017-07-30T07:47:59.312Z</time>
      </trkpt>
      <trkpt lat="47.75098" lon="2.0427">
        <ele>133</ele>
        <time>2017-07-30T07:48:00.321Z</time>
      </trkpt>
      <trkpt lat="47.751" lon="2.04277">
        <ele>133</ele>
        <time>2017-07-30T07:48:01.314Z</time>
      </trkpt>
      <trkpt lat="47.751" lon="2.04277">
        <ele>133</ele>
        <time>2017-07-30T07:48:02.312Z</time>
      </trkpt>
      <trkpt lat="47.75105" lon="2.04291">
        <ele>133</ele>
        <time>2017-07-30T07:48:03.314Z</time>
      </trkpt>
      <trkpt lat="47.75105" lon="2.04291">
        <ele>133</ele>
        <time>2017-07-30T07:48:04.311Z</time>
      </trkpt>
      <trkpt lat="47.75109" lon="2.04305">
        <ele>132</ele>
        <time>2017-07-30T07:48:05.312Z</time>
      </trkpt>
      <trkpt lat="47.75109" lon="2.04305">
        <ele>132</ele>
        <time>2017-07-30T07:48:06.312Z</time>
      </trkpt>
      <trkpt lat="47.75113" lon="2.04319">
        <ele>132</ele>
        <time>2017-07-30T07:48:07.315Z</time>
      </trkpt>
      <trkpt lat="47.75113" lon="2.04319">
        <ele>132</ele>
        <time>2017-07-30T07:48:08.311Z</time>
      </trkpt>
      <trkpt lat="47.75118" lon="2.04333">
        <ele>131</ele>
        <time>2017-07-30T07:48:09.314Z</time>
      </trkpt>
      <trkpt lat="47.75118" lon="2.04333">
        <ele>131</ele>
        <time>2017-07-30T07:48:10.311Z</time>
      </trkpt>
      <trkpt lat="47.75123" lon="2.04347">
        <ele>131</ele>
        <time>2017-07-30T07:48:11.323Z</time>
      </trkpt>
      <trkpt lat="47.75126" lon="2.04354">
        <ele>131</ele>
        <time>2017-07-30T07:48:12.314Z</time>
      </trkpt>
      <trkpt lat="47.75127" lon="2.04361">
        <ele>131</ele>
        <time>2017-07-30T07:48:13.316Z</time>
      </trkpt>
      <trkpt lat="47.75127" lon="2.04361">
        <ele>131</ele>
        <time>2017-07-30T07:48:14.321Z</time>
      </trkpt>
      <trkpt lat="47.75131" lon="2.04375">
        <ele>130</ele>
        <time>2017-07-30T07:48:15.319Z</time>
      </trkpt>
      <trkpt lat="47.75131" lon="2.04375">
        <ele>130</ele>
        <time>2017-07-30T07:48:16.314Z</time>
      </trkpt>
      <trkpt lat="47.75135" lon="2.04389">
        <ele>130</ele>
        <time>2017-07-30T07:48:17.316Z</time>
      </trkpt>
      <trkpt lat="47.75137" lon="2.04396">
        <ele>130</ele>
        <time>2017-07-30T07:48:18.317Z</time>
      </trkpt>
      <trkpt lat="47.75139" lon="2.04403">
        <ele>130</ele>
        <time>2017-07-30T07:48:19.317Z</time>
      </trkpt>
      <trkpt lat="47.75139" lon="2.04403">
        <ele>130</ele>
        <time>2017-07-30T07:48:20.324Z</time>
      </trkpt>
      <trkpt lat="47.75142" lon="2.04417">
        <ele>130</ele>
        <time>2017-07-30T07:48:21.315Z</time>
      </trkpt>
      <trkpt lat="47.75142" lon="2.04417">
        <ele>130</ele>
        <time>2017-07-30T07:48:22.311Z</time>
      </trkpt>
      <trkpt lat="47.75146" lon="2.04429">
        <ele>130</ele>
        <time>2017-07-30T07:48:23.317Z</time>
      </trkpt>
      <trkpt lat="47.75148" lon="2.04436">
        <ele>130</ele>
        <time>2017-07-30T07:48:24.317Z</time>
      </trkpt>
      <trkpt lat="47.75148" lon="2.04436">
        <ele>130</ele>
        <time>2017-07-30T07:48:25.330Z</time>
      </trkpt>
      <trkpt lat="47.75154" lon="2.04451">
        <ele>130</ele>
        <time>2017-07-30T07:48:26.321Z</time>
      </trkpt>
      <trkpt lat="47.75155" lon="2.04459">
        <ele>130</ele>
        <time>2017-07-30T07:48:27.319Z</time>
      </trkpt>
      <trkpt lat="47.75155" lon="2.04459">
        <ele>130</ele>
        <time>2017-07-30T07:48:28.311Z</time>
      </trkpt>
      <trkpt lat="47.7516" lon="2.04474">
        <ele>130</ele>
        <time>2017-07-30T07:48:29.317Z</time>
      </trkpt>
      <trkpt lat="47.7516" lon="2.04474">
        <ele>130</ele>
        <time>2017-07-30T07:48:30.312Z</time>
      </trkpt>
      <trkpt lat="47.75165" lon="2.04489">
        <ele>130</ele>
        <time>2017-07-30T07:48:31.314Z</time>
      </trkpt>
      <trkpt lat="47.75165" lon="2.04489">
        <ele>130</ele>
        <time>2017-07-30T07:48:32.312Z</time>
      </trkpt>
      <trkpt lat="47.75169" lon="2.04504">
        <ele>130</ele>
        <time>2017-07-30T07:48:33.313Z</time>
      </trkpt>
      <trkpt lat="47.75172" lon="2.04511">
        <ele>130</ele>
        <time>2017-07-30T07:48:34.314Z</time>
      </trkpt>
      <trkpt lat="47.75172" lon="2.04511">
        <ele>130</ele>
        <time>2017-07-30T07:48:35.312Z</time>
      </trkpt>
      <trkpt lat="47.75176" lon="2.04525">
        <ele>130</ele>
        <time>2017-07-30T07:48:36.312Z</time>
      </trkpt>
      <trkpt lat="47.75178" lon="2.04532">
        <ele>129</ele>
        <time>2017-07-30T07:48:37.315Z</time>
      </trkpt>
      <trkpt lat="47.75178" lon="2.04532">
        <ele>129</ele>
        <time>2017-07-30T07:48:38.351Z</time>
      </trkpt>
      <trkpt lat="47.75183" lon="2.04547">
        <ele>129</ele>
        <time>2017-07-30T07:48:39.313Z</time>
      </trkpt>
      <trkpt lat="47.75183" lon="2.04547">
        <ele>129</ele>
        <time>2017-07-30T07:48:40.320Z</time>
      </trkpt>
      <trkpt lat="47.75188" lon="2.04563">
        <ele>129</ele>
        <time>2017-07-30T07:48:41.335Z</time>
      </trkpt>
      <trkpt lat="47.7519" lon="2.0457">
        <ele>129</ele>
        <time>2017-07-30T07:48:42.324Z</time>
      </trkpt>
      <trkpt lat="47.7519" lon="2.0457">
        <ele>129</ele>
        <time>2017-07-30T07:48:43.313Z</time>
      </trkpt>
      <trkpt lat="47.75195" lon="2.04583">
        <ele>129</ele>
        <time>2017-07-30T07:48:44.313Z</time>
      </trkpt>
      <trkpt lat="47.75195" lon="2.04583">
        <ele>129</ele>
        <time>2017-07-30T07:48:45.317Z</time>
      </trkpt>
      <trkpt lat="47.75201" lon="2.04597">
        <ele>128</ele>
        <time>2017-07-30T07:48:46.323Z</time>
      </trkpt>
      <trkpt lat="47.75201" lon="2.04597">
        <ele>128</ele>
        <time>2017-07-30T07:48:47.329Z</time>
      </trkpt>
      <trkpt lat="47.75206" lon="2.04613">
        <ele>128</ele>
        <time>2017-07-30T07:48:48.315Z</time>
      </trkpt>
      <trkpt lat="47.75208" lon="2.0462">
        <ele>128</ele>
        <time>2017-07-30T07:48:49.327Z</time>
      </trkpt>
      <trkpt lat="47.75208" lon="2.0462">
        <ele>128</ele>
        <time>2017-07-30T07:48:50.324Z</time>
      </trkpt>
      <trkpt lat="47.75213" lon="2.04635">
        <ele>127</ele>
        <time>2017-07-30T07:48:51.315Z</time>
      </trkpt>
      <trkpt lat="47.75213" lon="2.04635">
        <ele>127</ele>
        <time>2017-07-30T07:48:52.347Z</time>
      </trkpt>
      <trkpt lat="47.75217" lon="2.0465">
        <ele>127</ele>
        <time>2017-07-30T07:48:53.331Z</time>
      </trkpt>
      <trkpt lat="47.75217" lon="2.0465">
        <ele>127</ele>
        <time>2017-07-30T07:48:54.319Z</time>
      </trkpt>
      <trkpt lat="47.75221" lon="2.04665">
        <ele>126</ele>
        <time>2017-07-30T07:48:55.313Z</time>
      </trkpt>
      <trkpt lat="47.75221" lon="2.04665">
        <ele>126</ele>
        <time>2017-07-30T07:48:56.312Z</time>
      </trkpt>
      <trkpt lat="47.75228" lon="2.04683">
        <ele>126</ele>
        <time>2017-07-30T07:48:57.315Z</time>
      </trkpt>
      <trkpt lat="47.75228" lon="2.04683">
        <ele>126</ele>
        <time>2017-07-30T07:48:58.312Z</time>
      </trkpt>
      <trkpt lat="47.75234" lon="2.04699">
        <ele>126</ele>
        <time>2017-07-30T07:48:59.313Z</time>
      </trkpt>
      <trkpt lat="47.75234" lon="2.04699">
        <ele>126</ele>
        <time>2017-07-30T07:49:00.320Z</time>
      </trkpt>
      <trkpt lat="47.7524" lon="2.04714">
        <ele>126</ele>
        <time>2017-07-30T07:49:01.315Z</time>
      </trkpt>
      <trkpt lat="47.7524" lon="2.04714">
        <ele>126</ele>
        <time>2017-07-30T07:49:02.312Z</time>
      </trkpt>
      <trkpt lat="47.75245" lon="2.04729">
        <ele>125</ele>
        <time>2017-07-30T07:49:03.313Z</time>
      </trkpt>
      <trkpt lat="47.75245" lon="2.04729">
        <ele>125</ele>
        <time>2017-07-30T07:49:04.312Z</time>
      </trkpt>
      <trkpt lat="47.7525" lon="2.04745">
        <ele>126</ele>
        <time>2017-07-30T07:49:05.316Z</time>
      </trkpt>
      <trkpt lat="47.7525" lon="2.04745">
        <ele>126</ele>
        <time>2017-07-30T07:49:06.311Z</time>
      </trkpt>
      <trkpt lat="47.75254" lon="2.04762">
        <ele>126</ele>
        <time>2017-07-30T07:49:07.318Z</time>
      </trkpt>
      <trkpt lat="47.75254" lon="2.04762">
        <ele>126</ele>
        <time>2017-07-30T07:49:08.312Z</time>
      </trkpt>
      <trkpt lat="47.75259" lon="2.04778">
        <ele>126</ele>
        <time>2017-07-30T07:49:09.317Z</time>
      </trkpt>
      <trkpt lat="47.75259" lon="2.04778">
        <ele>126</ele>
        <time>2017-07-30T07:49:10.350Z</time>
      </trkpt>
      <trkpt lat="47.75264" lon="2.04795">
        <ele>126</ele>
        <time>2017-07-30T07:49:11.316Z</time>
      </trkpt>
      <trkpt lat="47.75264" lon="2.04795">
        <ele>126</ele>
        <time>2017-07-30T07:49:12.313Z</time>
      </trkpt>
      <trkpt lat="47.75269" lon="2.04812">
        <ele>125</ele>
        <time>2017-07-30T07:49:13.324Z</time>
      </trkpt>
      <trkpt lat="47.75269" lon="2.04812">
        <ele>125</ele>
        <time>2017-07-30T07:49:14.313Z</time>
      </trkpt>
      <trkpt lat="47.75273" lon="2.04829">
        <ele>125</ele>
        <time>2017-07-30T07:49:15.326Z</time>
      </trkpt>
      <trkpt lat="47.75273" lon="2.04829">
        <ele>125</ele>
        <time>2017-07-30T07:49:16.315Z</time>
      </trkpt>
      <trkpt lat="47.75277" lon="2.04845">
        <ele>126</ele>
        <time>2017-07-30T07:49:17.316Z</time>
      </trkpt>
      <trkpt lat="47.75277" lon="2.04845">
        <ele>126</ele>
        <time>2017-07-30T07:49:18.315Z</time>
      </trkpt>
      <trkpt lat="47.75283" lon="2.04863">
        <ele>125</ele>
        <time>2017-07-30T07:49:19.316Z</time>
      </trkpt>
      <trkpt lat="47.75283" lon="2.04863">
        <ele>125</ele>
        <time>2017-07-30T07:49:20.323Z</time>
      </trkpt>
      <trkpt lat="47.7529" lon="2.0488">
        <ele>126</ele>
        <time>2017-07-30T07:49:21.313Z</time>
      </trkpt>
      <trkpt lat="47.7529" lon="2.0488">
        <ele>126</ele>
        <time>2017-07-30T07:49:22.312Z</time>
      </trkpt>
      <trkpt lat="47.75294" lon="2.04898">
        <ele>125</ele>
        <time>2017-07-30T07:49:23.312Z</time>
      </trkpt>
      <trkpt lat="47.75294" lon="2.04898">
        <ele>125</ele>
        <time>2017-07-30T07:49:24.346Z</time>
      </trkpt>
      <trkpt lat="47.75297" lon="2.04917">
        <ele>124</ele>
        <time>2017-07-30T07:49:25.313Z</time>
      </trkpt>
      <trkpt lat="47.75297" lon="2.04917">
        <ele>124</ele>
        <time>2017-07-30T07:49:26.319Z</time>
      </trkpt>
      <trkpt lat="47.75299" lon="2.04935">
        <ele>123</ele>
        <time>2017-07-30T07:49:27.324Z</time>
      </trkpt>
      <trkpt lat="47.75299" lon="2.04935">
        <ele>123</ele>
        <time>2017-07-30T07:49:28.313Z</time>
      </trkpt>
      <trkpt lat="47.75303" lon="2.04954">
        <ele>122</ele>
        <time>2017-07-30T07:49:29.345Z</time>
      </trkpt>
      <trkpt lat="47.75303" lon="2.04954">
        <ele>122</ele>
        <time>2017-07-30T07:49:30.312Z</time>
      </trkpt>
      <trkpt lat="47.75305" lon="2.04974">
        <ele>122</ele>
        <time>2017-07-30T07:49:31.313Z</time>
      </trkpt>
      <trkpt lat="47.75305" lon="2.04974">
        <ele>122</ele>
        <time>2017-07-30T07:49:32.312Z</time>
      </trkpt>
      <trkpt lat="47.75306" lon="2.04992">
        <ele>122</ele>
        <time>2017-07-30T07:49:33.314Z</time>
      </trkpt>
      <trkpt lat="47.75306" lon="2.04992">
        <ele>122</ele>
        <time>2017-07-30T07:49:34.324Z</time>
      </trkpt>
      <trkpt lat="47.75307" lon="2.0501">
        <ele>122</ele>
        <time>2017-07-30T07:49:35.313Z</time>
      </trkpt>
      <trkpt lat="47.75307" lon="2.0501">
        <ele>122</ele>
        <time>2017-07-30T07:49:36.312Z</time>
      </trkpt>
      <trkpt lat="47.75308" lon="2.05028">
        <ele>122</ele>
        <time>2017-07-30T07:49:37.315Z</time>
      </trkpt>
      <trkpt lat="47.75308" lon="2.05028">
        <ele>122</ele>
        <time>2017-07-30T07:49:38.312Z</time>
      </trkpt>
      <trkpt lat="47.7531" lon="2.05045">
        <ele>122</ele>
        <time>2017-07-30T07:49:39.334Z</time>
      </trkpt>
      <trkpt lat="47.7531" lon="2.05055">
        <ele>121</ele>
        <time>2017-07-30T07:49:40.329Z</time>
      </trkpt>
      <trkpt lat="47.7531" lon="2.05055">
        <ele>121</ele>
        <time>2017-07-30T07:49:41.317Z</time>
      </trkpt>
      <trkpt lat="47.75311" lon="2.05073">
        <ele>120</ele>
        <time>2017-07-30T07:49:42.314Z</time>
      </trkpt>
      <trkpt lat="47.75311" lon="2.05073">
        <ele>120</ele>
        <time>2017-07-30T07:49:43.313Z</time>
      </trkpt>
      <trkpt lat="47.75313" lon="2.05092">
        <ele>119</ele>
        <time>2017-07-30T07:49:44.313Z</time>
      </trkpt>
      <trkpt lat="47.75314" lon="2.05102">
        <ele>119</ele>
        <time>2017-07-30T07:49:45.317Z</time>
      </trkpt>
      <trkpt lat="47.75315" lon="2.05112">
        <ele>119</ele>
        <time>2017-07-30T07:49:46.313Z</time>
      </trkpt>
      <trkpt lat="47.75315" lon="2.05112">
        <ele>119</ele>
        <time>2017-07-30T07:49:47.312Z</time>
      </trkpt>
      <trkpt lat="47.75317" lon="2.0513">
        <ele>119</ele>
        <time>2017-07-30T07:49:48.313Z</time>
      </trkpt>
      <trkpt lat="47.75317" lon="2.05139">
        <ele>119</ele>
        <time>2017-07-30T07:49:49.316Z</time>
      </trkpt>
      <trkpt lat="47.75317" lon="2.05139">
        <ele>119</ele>
        <time>2017-07-30T07:49:50.313Z</time>
      </trkpt>
      <trkpt lat="47.75319" lon="2.05158">
        <ele>118</ele>
        <time>2017-07-30T07:49:51.332Z</time>
      </trkpt>
      <trkpt lat="47.75319" lon="2.05158">
        <ele>118</ele>
        <time>2017-07-30T07:49:52.321Z</time>
      </trkpt>
      <trkpt lat="47.75321" lon="2.05177">
        <ele>118</ele>
        <time>2017-07-30T07:49:53.313Z</time>
      </trkpt>
      <trkpt lat="47.75321" lon="2.05177">
        <ele>118</ele>
        <time>2017-07-30T07:49:54.312Z</time>
      </trkpt>
      <trkpt lat="47.75324" lon="2.05196">
        <ele>117</ele>
        <time>2017-07-30T07:49:55.319Z</time>
      </trkpt>
      <trkpt lat="47.75324" lon="2.05196">
        <ele>117</ele>
        <time>2017-07-30T07:49:56.314Z</time>
      </trkpt>
      <trkpt lat="47.75327" lon="2.05215">
        <ele>117</ele>
        <time>2017-07-30T07:49:57.316Z</time>
      </trkpt>
      <trkpt lat="47.75327" lon="2.05215">
        <ele>117</ele>
        <time>2017-07-30T07:49:58.314Z</time>
      </trkpt>
      <trkpt lat="47.75329" lon="2.05233">
        <ele>116</ele>
        <time>2017-07-30T07:49:59.320Z</time>
      </trkpt>
      <trkpt lat="47.75329" lon="2.05233">
        <ele>116</ele>
        <time>2017-07-30T07:50:00.311Z</time>
      </trkpt>
      <trkpt lat="47.75332" lon="2.05253">
        <ele>116</ele>
        <time>2017-07-30T07:50:01.319Z</time>
      </trkpt>
      <trkpt lat="47.75332" lon="2.05253">
        <ele>116</ele>
        <time>2017-07-30T07:50:02.314Z</time>
      </trkpt>
      <trkpt lat="47.75334" lon="2.05272">
        <ele>115</ele>
        <time>2017-07-30T07:50:03.315Z</time>
      </trkpt>
      <trkpt lat="47.75334" lon="2.05272">
        <ele>115</ele>
        <time>2017-07-30T07:50:04.314Z</time>
      </trkpt>
      <trkpt lat="47.75337" lon="2.0529">
        <ele>115</ele>
        <time>2017-07-30T07:50:05.317Z</time>
      </trkpt>
      <trkpt lat="47.75337" lon="2.0529">
        <ele>115</ele>
        <time>2017-07-30T07:50:06.314Z</time>
      </trkpt>
      <trkpt lat="47.75339" lon="2.05308">
        <ele>114</ele>
        <time>2017-07-30T07:50:07.319Z</time>
      </trkpt>
      <trkpt lat="47.75339" lon="2.05308">
        <ele>114</ele>
        <time>2017-07-30T07:50:08.312Z</time>
      </trkpt>
      <trkpt lat="47.75341" lon="2.05326">
        <ele>113</ele>
        <time>2017-07-30T07:50:09.323Z</time>
      </trkpt>
      <trkpt lat="47.75343" lon="2.05335">
        <ele>113</ele>
        <time>2017-07-30T07:50:10.326Z</time>
      </trkpt>
      <trkpt lat="47.75343" lon="2.05335">
        <ele>113</ele>
        <time>2017-07-30T07:50:11.315Z</time>
      </trkpt>
      <trkpt lat="47.75345" lon="2.05352">
        <ele>112</ele>
        <time>2017-07-30T07:50:12.313Z</time>
      </trkpt>
      <trkpt lat="47.75345" lon="2.05352">
        <ele>112</ele>
        <time>2017-07-30T07:50:13.313Z</time>
      </trkpt>
      <trkpt lat="47.75348" lon="2.05369">
        <ele>112</ele>
        <time>2017-07-30T07:50:14.314Z</time>
      </trkpt>
      <trkpt lat="47.75348" lon="2.05369">
        <ele>112</ele>
        <time>2017-07-30T07:50:15.312Z</time>
      </trkpt>
      <trkpt lat="47.75351" lon="2.05386">
        <ele>111</ele>
        <time>2017-07-30T07:50:16.312Z</time>
      </trkpt>
      <trkpt lat="47.75351" lon="2.05386">
        <ele>111</ele>
        <time>2017-07-30T07:50:17.348Z</time>
      </trkpt>
      <trkpt lat="47.75354" lon="2.054">
        <ele>111</ele>
        <time>2017-07-30T07:50:18.336Z</time>
      </trkpt>
      <trkpt lat="47.75356" lon="2.05406">
        <ele>110</ele>
        <time>2017-07-30T07:50:19.329Z</time>
      </trkpt>
      <trkpt lat="47.75356" lon="2.05406">
        <ele>110</ele>
        <time>2017-07-30T07:50:20.312Z</time>
      </trkpt>
      <trkpt lat="47.75359" lon="2.05415">
        <ele>110</ele>
        <time>2017-07-30T07:50:21.314Z</time>
      </trkpt>
      <trkpt lat="47.75358" lon="2.05419">
        <ele>110</ele>
        <time>2017-07-30T07:50:22.314Z</time>
      </trkpt>
      <trkpt lat="47.75358" lon="2.05419">
        <ele>110</ele>
        <time>2017-07-30T07:50:23.312Z</time>
      </trkpt>
      <trkpt lat="47.75356" lon="2.05422">
        <ele>110</ele>
        <time>2017-07-30T07:50:24.313Z</time>
      </trkpt>
      <trkpt lat="47.75356" lon="2.05422">
        <ele>110</ele>
        <time>2017-07-30T07:50:25.315Z</time>
      </trkpt>
      <trkpt lat="47.75356" lon="2.05422">
        <ele>110</ele>
        <time>2017-07-30T07:50:26.312Z</time>
      </trkpt>
      <trkpt lat="47.75356" lon="2.05424">
        <ele>110</ele>
        <time>2017-07-30T07:50:27.340Z</time>
      </trkpt>
      <trkpt lat="47.75354" lon="2.05417">
        <ele>118</ele>
        <time>2017-07-30T07:50:28.334Z</time>
      </trkpt>
      <trkpt lat="47.75354" lon="2.05417">
        <ele>118</ele>
        <time>2017-07-30T07:50:29.344Z</time>
      </trkpt>
      <trkpt lat="47.75353" lon="2.05415">
        <ele>118</ele>
        <time>2017-07-30T07:50:30.335Z</time>
      </trkpt>
      <trkpt lat="47.75353" lon="2.05415">
        <ele>118</ele>
        <time>2017-07-30T07:50:31.330Z</time>
      </trkpt>
      <trkpt lat="47.7535" lon="2.05407">
        <ele>120</ele>
        <time>2017-07-30T07:50:32.339Z</time>
      </trkpt>
      <trkpt lat="47.7535" lon="2.05407">
        <ele>120</ele>
        <time>2017-07-30T07:50:33.338Z</time>
      </trkpt>
      <trkpt lat="47.75341" lon="2.05406">
        <ele>120</ele>
        <time>2017-07-30T07:50:34.339Z</time>
      </trkpt>
      <trkpt lat="47.75341" lon="2.05406">
        <ele>120</ele>
        <time>2017-07-30T07:50:35.347Z</time>
      </trkpt>
      <trkpt lat="47.75335" lon="2.05403">
        <ele>120</ele>
        <time>2017-07-30T07:50:36.340Z</time>
      </trkpt>
      <trkpt lat="47.75335" lon="2.05403">
        <ele>120</ele>
        <time>2017-07-30T07:50:37.331Z</time>
      </trkpt>
      <trkpt lat="47.75326" lon="2.05399">
        <ele>120</ele>
        <time>2017-07-30T07:50:38.334Z</time>
      </trkpt>
      <trkpt lat="47.75326" lon="2.05399">
        <ele>120</ele>
        <time>2017-07-30T07:50:39.324Z</time>
      </trkpt>
      <trkpt lat="47.75317" lon="2.05393">
        <ele>120</ele>
        <time>2017-07-30T07:50:40.334Z</time>
      </trkpt>
      <trkpt lat="47.75317" lon="2.05393">
        <ele>120</ele>
        <time>2017-07-30T07:50:41.330Z</time>
      </trkpt>
      <trkpt lat="47.75308" lon="2.05388">
        <ele>119</ele>
        <time>2017-07-30T07:50:42.332Z</time>
      </trkpt>
      <trkpt lat="47.75308" lon="2.05388">
        <ele>119</ele>
        <time>2017-07-30T07:50:43.328Z</time>
      </trkpt>
      <trkpt lat="47.75298" lon="2.05383">
        <ele>119</ele>
        <time>2017-07-30T07:50:44.333Z</time>
      </trkpt>
      <trkpt lat="47.75298" lon="2.05383">
        <ele>119</ele>
        <time>2017-07-30T07:50:45.331Z</time>
      </trkpt>
      <trkpt lat="47.75289" lon="2.05379">
        <ele>120</ele>
        <time>2017-07-30T07:50:46.333Z</time>
      </trkpt>
      <trkpt lat="47.75289" lon="2.05379">
        <ele>120</ele>
        <time>2017-07-30T07:50:47.332Z</time>
      </trkpt>
      <trkpt lat="47.7528" lon="2.05375">
        <ele>120</ele>
        <time>2017-07-30T07:50:48.337Z</time>
      </trkpt>
      <trkpt lat="47.7528" lon="2.05375">
        <ele>120</ele>
        <time>2017-07-30T07:50:49.330Z</time>
      </trkpt>
      <trkpt lat="47.75271" lon="2.05372">
        <ele>120</ele>
        <time>2017-07-30T07:50:50.333Z</time>
      </trkpt>
      <trkpt lat="47.75271" lon="2.05372">
        <ele>120</ele>
        <time>2017-07-30T07:50:51.327Z</time>
      </trkpt>
      <trkpt lat="47.75262" lon="2.05367">
        <ele>120</ele>
        <time>2017-07-30T07:50:52.333Z</time>
      </trkpt>
      <trkpt lat="47.75262" lon="2.05367">
        <ele>120</ele>
        <time>2017-07-30T07:50:53.330Z</time>
      </trkpt>
      <trkpt lat="47.75252" lon="2.05363">
        <ele>120</ele>
        <time>2017-07-30T07:50:54.332Z</time>
      </trkpt>
      <trkpt lat="47.75252" lon="2.05363">
        <ele>120</ele>
        <time>2017-07-30T07:50:55.330Z</time>
      </trkpt>
      <trkpt lat="47.75242" lon="2.05359">
        <ele>120</ele>
        <time>2017-07-30T07:50:56.334Z</time>
      </trkpt>
      <trkpt lat="47.75242" lon="2.05359">
        <ele>120</ele>
        <time>2017-07-30T07:50:57.330Z</time>
      </trkpt>
      <trkpt lat="47.7523" lon="2.05354">
        <ele>120</ele>
        <time>2017-07-30T07:50:58.334Z</time>
      </trkpt>
      <trkpt lat="47.7523" lon="2.05354">
        <ele>120</ele>
        <time>2017-07-30T07:50:59.328Z</time>
      </trkpt>
      <trkpt lat="47.75219" lon="2.05351">
        <ele>120</ele>
        <time>2017-07-30T07:51:00.334Z</time>
      </trkpt>
      <trkpt lat="47.75219" lon="2.05351">
        <ele>120</ele>
        <time>2017-07-30T07:51:01.328Z</time>
      </trkpt>
      <trkpt lat="47.75208" lon="2.05346">
        <ele>121</ele>
        <time>2017-07-30T07:51:02.314Z</time>
      </trkpt>
      <trkpt lat="47.75208" lon="2.05346">
        <ele>121</ele>
        <time>2017-07-30T07:51:03.312Z</time>
      </trkpt>
      <trkpt lat="47.75193" lon="2.0534">
        <ele>121</ele>
        <time>2017-07-30T07:51:04.343Z</time>
      </trkpt>
      <trkpt lat="47.75193" lon="2.0534">
        <ele>121</ele>
        <time>2017-07-30T07:51:05.329Z</time>
      </trkpt>
      <trkpt lat="47.7518" lon="2.05335">
        <ele>121</ele>
        <time>2017-07-30T07:51:06.332Z</time>
      </trkpt>
      <trkpt lat="47.75174" lon="2.05333">
        <ele>121</ele>
        <time>2017-07-30T07:51:07.333Z</time>
      </trkpt>
      <trkpt lat="47.75168" lon="2.05331">
        <ele>121</ele>
        <time>2017-07-30T07:51:08.340Z</time>
      </trkpt>
      <trkpt lat="47.75168" lon="2.05331">
        <ele>121</ele>
        <time>2017-07-30T07:51:09.329Z</time>
      </trkpt>
      <trkpt lat="47.75157" lon="2.05326">
        <ele>121</ele>
        <time>2017-07-30T07:51:10.334Z</time>
      </trkpt>
      <trkpt lat="47.75157" lon="2.05326">
        <ele>121</ele>
        <time>2017-07-30T07:51:11.334Z</time>
      </trkpt>
      <trkpt lat="47.75147" lon="2.05321">
        <ele>121</ele>
        <time>2017-07-30T07:51:12.334Z</time>
      </trkpt>
      <trkpt lat="47.75147" lon="2.05321">
        <ele>121</ele>
        <time>2017-07-30T07:51:13.333Z</time>
      </trkpt>
      <trkpt lat="47.75136" lon="2.05317">
        <ele>122</ele>
        <time>2017-07-30T07:51:14.338Z</time>
      </trkpt>
      <trkpt lat="47.75136" lon="2.05317">
        <ele>122</ele>
        <time>2017-07-30T07:51:15.330Z</time>
      </trkpt>
      <trkpt lat="47.75125" lon="2.05311">
        <ele>122</ele>
        <time>2017-07-30T07:51:16.337Z</time>
      </trkpt>
      <trkpt lat="47.75125" lon="2.05311">
        <ele>122</ele>
        <time>2017-07-30T07:51:17.334Z</time>
      </trkpt>
      <trkpt lat="47.75116" lon="2.05305">
        <ele>122</ele>
        <time>2017-07-30T07:51:18.336Z</time>
      </trkpt>
      <trkpt lat="47.75111" lon="2.05303">
        <ele>122</ele>
        <time>2017-07-30T07:51:19.336Z</time>
      </trkpt>
      <trkpt lat="47.75111" lon="2.05303">
        <ele>122</ele>
        <time>2017-07-30T07:51:20.333Z</time>
      </trkpt>
      <trkpt lat="47.75101" lon="2.05301">
        <ele>122</ele>
        <time>2017-07-30T07:51:21.335Z</time>
      </trkpt>
      <trkpt lat="47.75095" lon="2.053">
        <ele>122</ele>
        <time>2017-07-30T07:51:22.336Z</time>
      </trkpt>
      <trkpt lat="47.75095" lon="2.053">
        <ele>122</ele>
        <time>2017-07-30T07:51:23.331Z</time>
      </trkpt>
      <trkpt lat="47.75083" lon="2.05302">
        <ele>122</ele>
        <time>2017-07-30T07:51:24.348Z</time>
      </trkpt>
      <trkpt lat="47.75083" lon="2.05302">
        <ele>122</ele>
        <time>2017-07-30T07:51:25.335Z</time>
      </trkpt>
      <trkpt lat="47.75069" lon="2.05307">
        <ele>122</ele>
        <time>2017-07-30T07:51:26.336Z</time>
      </trkpt>
      <trkpt lat="47.75069" lon="2.05307">
        <ele>122</ele>
        <time>2017-07-30T07:51:27.311Z</time>
      </trkpt>
      <trkpt lat="47.75056" lon="2.05314">
        <ele>121</ele>
        <time>2017-07-30T07:51:28.320Z</time>
      </trkpt>
      <trkpt lat="47.75056" lon="2.05314">
        <ele>121</ele>
        <time>2017-07-30T07:51:29.332Z</time>
      </trkpt>
      <trkpt lat="47.75045" lon="2.05321">
        <ele>121</ele>
        <time>2017-07-30T07:51:30.332Z</time>
      </trkpt>
      <trkpt lat="47.75039" lon="2.05324">
        <ele>121</ele>
        <time>2017-07-30T07:51:31.333Z</time>
      </trkpt>
      <trkpt lat="47.75039" lon="2.05324">
        <ele>121</ele>
        <time>2017-07-30T07:51:32.342Z</time>
      </trkpt>
      <trkpt lat="47.75028" lon="2.05332">
        <ele>120</ele>
        <time>2017-07-30T07:51:33.336Z</time>
      </trkpt>
      <trkpt lat="47.75021" lon="2.05336">
        <ele>120</ele>
        <time>2017-07-30T07:51:34.333Z</time>
      </trkpt>
      <trkpt lat="47.75021" lon="2.05336">
        <ele>120</ele>
        <time>2017-07-30T07:51:35.331Z</time>
      </trkpt>
      <trkpt lat="47.75008" lon="2.05343">
        <ele>120</ele>
        <time>2017-07-30T07:51:36.332Z</time>
      </trkpt>
      <trkpt lat="47.75002" lon="2.05347">
        <ele>119</ele>
        <time>2017-07-30T07:51:37.333Z</time>
      </trkpt>
      <trkpt lat="47.75002" lon="2.05347">
        <ele>119</ele>
        <time>2017-07-30T07:51:38.331Z</time>
      </trkpt>
      <trkpt lat="47.74992" lon="2.05353">
        <ele>119</ele>
        <time>2017-07-30T07:51:39.331Z</time>
      </trkpt>
      <trkpt lat="47.74987" lon="2.05356">
        <ele>119</ele>
        <time>2017-07-30T07:51:40.331Z</time>
      </trkpt>
      <trkpt lat="47.74987" lon="2.05356">
        <ele>119</ele>
        <time>2017-07-30T07:51:41.328Z</time>
      </trkpt>
      <trkpt lat="47.74978" lon="2.05361">
        <ele>120</ele>
        <time>2017-07-30T07:51:42.334Z</time>
      </trkpt>
      <trkpt lat="47.74978" lon="2.05361">
        <ele>120</ele>
        <time>2017-07-30T07:51:43.330Z</time>
      </trkpt>
      <trkpt lat="47.74967" lon="2.05366">
        <ele>119</ele>
        <time>2017-07-30T07:51:44.331Z</time>
      </trkpt>
      <trkpt lat="47.74967" lon="2.05366">
        <ele>119</ele>
        <time>2017-07-30T07:51:45.330Z</time>
      </trkpt>
      <trkpt lat="47.74957" lon="2.05372">
        <ele>119</ele>
        <time>2017-07-30T07:51:46.333Z</time>
      </trkpt>
      <trkpt lat="47.74957" lon="2.05372">
        <ele>119</ele>
        <time>2017-07-30T07:51:47.329Z</time>
      </trkpt>
      <trkpt lat="47.74945" lon="2.05376">
        <ele>119</ele>
        <time>2017-07-30T07:51:48.332Z</time>
      </trkpt>
      <trkpt lat="47.74939" lon="2.05378">
        <ele>119</ele>
        <time>2017-07-30T07:51:49.333Z</time>
      </trkpt>
      <trkpt lat="47.74939" lon="2.05378">
        <ele>119</ele>
        <time>2017-07-30T07:51:50.341Z</time>
      </trkpt>
      <trkpt lat="47.74927" lon="2.05381">
        <ele>119</ele>
        <time>2017-07-30T07:51:51.333Z</time>
      </trkpt>
      <trkpt lat="47.74921" lon="2.05382">
        <ele>119</ele>
        <time>2017-07-30T07:51:52.330Z</time>
      </trkpt>
      <trkpt lat="47.74921" lon="2.05382">
        <ele>119</ele>
        <time>2017-07-30T07:51:53.330Z</time>
      </trkpt>
      <trkpt lat="47.74909" lon="2.05381">
        <ele>118</ele>
        <time>2017-07-30T07:51:54.344Z</time>
      </trkpt>
      <trkpt lat="47.74903" lon="2.05381">
        <ele>118</ele>
        <time>2017-07-30T07:51:55.334Z</time>
      </trkpt>
      <trkpt lat="47.74903" lon="2.05381">
        <ele>118</ele>
        <time>2017-07-30T07:51:56.331Z</time>
      </trkpt>
      <trkpt lat="47.74892" lon="2.05379">
        <ele>118</ele>
        <time>2017-07-30T07:51:57.332Z</time>
      </trkpt>
      <trkpt lat="47.74887" lon="2.05378">
        <ele>118</ele>
        <time>2017-07-30T07:51:58.333Z</time>
      </trkpt>
      <trkpt lat="47.74887" lon="2.05378">
        <ele>118</ele>
        <time>2017-07-30T07:51:59.332Z</time>
      </trkpt>
      <trkpt lat="47.74878" lon="2.05374">
        <ele>117</ele>
        <time>2017-07-30T07:52:00.335Z</time>
      </trkpt>
      <trkpt lat="47.74878" lon="2.05374">
        <ele>117</ele>
        <time>2017-07-30T07:52:01.331Z</time>
      </trkpt>
      <trkpt lat="47.74868" lon="2.05371">
        <ele>117</ele>
        <time>2017-07-30T07:52:02.350Z</time>
      </trkpt>
      <trkpt lat="47.74868" lon="2.05371">
        <ele>117</ele>
        <time>2017-07-30T07:52:03.341Z</time>
      </trkpt>
      <trkpt lat="47.74859" lon="2.05366">
        <ele>116</ele>
        <time>2017-07-30T07:52:04.337Z</time>
      </trkpt>
      <trkpt lat="47.74859" lon="2.05366">
        <ele>116</ele>
        <time>2017-07-30T07:52:05.330Z</time>
      </trkpt>
      <trkpt lat="47.74848" lon="2.0536">
        <ele>115</ele>
        <time>2017-07-30T07:52:06.334Z</time>
      </trkpt>
      <trkpt lat="47.74848" lon="2.0536">
        <ele>115</ele>
        <time>2017-07-30T07:52:07.332Z</time>
      </trkpt>
      <trkpt lat="47.7484" lon="2.05355">
        <ele>115</ele>
        <time>2017-07-30T07:52:08.340Z</time>
      </trkpt>
      <trkpt lat="47.7484" lon="2.05355">
        <ele>115</ele>
        <time>2017-07-30T07:52:09.331Z</time>
      </trkpt>
      <trkpt lat="47.7483" lon="2.05348">
        <ele>115</ele>
        <time>2017-07-30T07:52:10.337Z</time>
      </trkpt>
      <trkpt lat="47.7483" lon="2.05348">
        <ele>115</ele>
        <time>2017-07-30T07:52:11.334Z</time>
      </trkpt>
      <trkpt lat="47.74819" lon="2.05341">
        <ele>114</ele>
        <time>2017-07-30T07:52:12.333Z</time>
      </trkpt>
      <trkpt lat="47.74819" lon="2.05341">
        <ele>114</ele>
        <time>2017-07-30T07:52:13.327Z</time>
      </trkpt>
      <trkpt lat="47.74809" lon="2.05335">
        <ele>114</ele>
        <time>2017-07-30T07:52:14.333Z</time>
      </trkpt>
      <trkpt lat="47.74809" lon="2.05335">
        <ele>114</ele>
        <time>2017-07-30T07:52:15.329Z</time>
      </trkpt>
      <trkpt lat="47.748" lon="2.05329">
        <ele>113</ele>
        <time>2017-07-30T07:52:16.334Z</time>
      </trkpt>
      <trkpt lat="47.748" lon="2.05329">
        <ele>113</ele>
        <time>2017-07-30T07:52:17.325Z</time>
      </trkpt>
      <trkpt lat="47.74789" lon="2.05323">
        <ele>112</ele>
        <time>2017-07-30T07:52:18.332Z</time>
      </trkpt>
      <trkpt lat="47.74784" lon="2.0532">
        <ele>112</ele>
        <time>2017-07-30T07:52:19.333Z</time>
      </trkpt>
      <trkpt lat="47.74779" lon="2.05317">
        <ele>112</ele>
        <time>2017-07-30T07:52:20.331Z</time>
      </trkpt>
      <trkpt lat="47.74779" lon="2.05317">
        <ele>112</ele>
        <time>2017-07-30T07:52:21.328Z</time>
      </trkpt>
      <trkpt lat="47.74768" lon="2.05312">
        <ele>111</ele>
        <time>2017-07-30T07:52:22.313Z</time>
      </trkpt>
      <trkpt lat="47.74768" lon="2.05312">
        <ele>111</ele>
        <time>2017-07-30T07:52:23.344Z</time>
      </trkpt>
      <trkpt lat="47.74758" lon="2.05306">
        <ele>111</ele>
        <time>2017-07-30T07:52:24.348Z</time>
      </trkpt>
      <trkpt lat="47.74758" lon="2.05306">
        <ele>111</ele>
        <time>2017-07-30T07:52:25.330Z</time>
      </trkpt>
      <trkpt lat="47.74747" lon="2.05299">
        <ele>110</ele>
        <time>2017-07-30T07:52:26.334Z</time>
      </trkpt>
      <trkpt lat="47.74747" lon="2.05299">
        <ele>110</ele>
        <time>2017-07-30T07:52:27.330Z</time>
      </trkpt>
      <trkpt lat="47.74736" lon="2.05292">
        <ele>110</ele>
        <time>2017-07-30T07:52:28.334Z</time>
      </trkpt>
      <trkpt lat="47.74736" lon="2.05292">
        <ele>110</ele>
        <time>2017-07-30T07:52:29.330Z</time>
      </trkpt>
      <trkpt lat="47.74726" lon="2.05285">
        <ele>109</ele>
        <time>2017-07-30T07:52:30.330Z</time>
      </trkpt>
      <trkpt lat="47.7472" lon="2.05282">
        <ele>109</ele>
        <time>2017-07-30T07:52:31.333Z</time>
      </trkpt>
      <trkpt lat="47.7472" lon="2.05282">
        <ele>109</ele>
        <time>2017-07-30T07:52:32.331Z</time>
      </trkpt>
      <trkpt lat="47.7471" lon="2.05275">
        <ele>108</ele>
        <time>2017-07-30T07:52:33.333Z</time>
      </trkpt>
      <trkpt lat="47.74704" lon="2.05271">
        <ele>108</ele>
        <time>2017-07-30T07:52:34.330Z</time>
      </trkpt>
      <trkpt lat="47.74704" lon="2.05271">
        <ele>108</ele>
        <time>2017-07-30T07:52:35.329Z</time>
      </trkpt>
      <trkpt lat="47.74693" lon="2.05264">
        <ele>108</ele>
        <time>2017-07-30T07:52:36.334Z</time>
      </trkpt>
      <trkpt lat="47.74693" lon="2.05264">
        <ele>108</ele>
        <time>2017-07-30T07:52:37.330Z</time>
      </trkpt>
      <trkpt lat="47.74682" lon="2.05257">
        <ele>108</ele>
        <time>2017-07-30T07:52:38.334Z</time>
      </trkpt>
      <trkpt lat="47.74676" lon="2.05254">
        <ele>109</ele>
        <time>2017-07-30T07:52:39.334Z</time>
      </trkpt>
      <trkpt lat="47.74676" lon="2.05254">
        <ele>109</ele>
        <time>2017-07-30T07:52:40.330Z</time>
      </trkpt>
      <trkpt lat="47.74665" lon="2.05247">
        <ele>108</ele>
        <time>2017-07-30T07:52:41.333Z</time>
      </trkpt>
      <trkpt lat="47.74665" lon="2.05247">
        <ele>108</ele>
        <time>2017-07-30T07:52:42.322Z</time>
      </trkpt>
      <trkpt lat="47.74654" lon="2.0524">
        <ele>108</ele>
        <time>2017-07-30T07:52:43.315Z</time>
      </trkpt>
      <trkpt lat="47.74649" lon="2.05237">
        <ele>108</ele>
        <time>2017-07-30T07:52:44.345Z</time>
      </trkpt>
      <trkpt lat="47.74649" lon="2.05237">
        <ele>108</ele>
        <time>2017-07-30T07:52:45.336Z</time>
      </trkpt>
      <trkpt lat="47.74637" lon="2.05231">
        <ele>108</ele>
        <time>2017-07-30T07:52:46.334Z</time>
      </trkpt>
      <trkpt lat="47.74637" lon="2.05231">
        <ele>108</ele>
        <time>2017-07-30T07:52:47.329Z</time>
      </trkpt>
      <trkpt lat="47.74626" lon="2.05224">
        <ele>108</ele>
        <time>2017-07-30T07:52:48.330Z</time>
      </trkpt>
      <trkpt lat="47.74621" lon="2.05221">
        <ele>108</ele>
        <time>2017-07-30T07:52:49.336Z</time>
      </trkpt>
      <trkpt lat="47.74615" lon="2.05217">
        <ele>108</ele>
        <time>2017-07-30T07:52:50.319Z</time>
      </trkpt>
      <trkpt lat="47.74615" lon="2.05217">
        <ele>108</ele>
        <time>2017-07-30T07:52:51.312Z</time>
      </trkpt>
      <trkpt lat="47.74603" lon="2.05211">
        <ele>107</ele>
        <time>2017-07-30T07:52:52.347Z</time>
      </trkpt>
      <trkpt lat="47.74603" lon="2.05211">
        <ele>107</ele>
        <time>2017-07-30T07:52:53.339Z</time>
      </trkpt>
      <trkpt lat="47.74591" lon="2.05207">
        <ele>107</ele>
        <time>2017-07-30T07:52:54.335Z</time>
      </trkpt>
      <trkpt lat="47.74591" lon="2.05207">
        <ele>107</ele>
        <time>2017-07-30T07:52:55.333Z</time>
      </trkpt>
      <trkpt lat="47.74579" lon="2.05204">
        <ele>108</ele>
        <time>2017-07-30T07:52:56.337Z</time>
      </trkpt>
      <trkpt lat="47.74579" lon="2.05204">
        <ele>108</ele>
        <time>2017-07-30T07:52:57.334Z</time>
      </trkpt>
      <trkpt lat="47.74567" lon="2.05203">
        <ele>108</ele>
        <time>2017-07-30T07:52:58.336Z</time>
      </trkpt>
      <trkpt lat="47.74567" lon="2.05203">
        <ele>108</ele>
        <time>2017-07-30T07:52:59.335Z</time>
      </trkpt>
      <trkpt lat="47.74553" lon="2.05202">
        <ele>108</ele>
        <time>2017-07-30T07:53:00.337Z</time>
      </trkpt>
      <trkpt lat="47.74553" lon="2.05202">
        <ele>108</ele>
        <time>2017-07-30T07:53:01.333Z</time>
      </trkpt>
      <trkpt lat="47.7454" lon="2.05203">
        <ele>108</ele>
        <time>2017-07-30T07:53:02.339Z</time>
      </trkpt>
      <trkpt lat="47.7454" lon="2.05203">
        <ele>108</ele>
        <time>2017-07-30T07:53:03.333Z</time>
      </trkpt>
      <trkpt lat="47.74528" lon="2.05203">
        <ele>108</ele>
        <time>2017-07-30T07:53:04.333Z</time>
      </trkpt>
      <trkpt lat="47.74528" lon="2.05203">
        <ele>108</ele>
        <time>2017-07-30T07:53:05.331Z</time>
      </trkpt>
      <trkpt lat="47.74515" lon="2.05203">
        <ele>108</ele>
        <time>2017-07-30T07:53:06.333Z</time>
      </trkpt>
      <trkpt lat="47.74515" lon="2.05203">
        <ele>108</ele>
        <time>2017-07-30T07:53:07.330Z</time>
      </trkpt>
      <trkpt lat="47.74502" lon="2.05203">
        <ele>108</ele>
        <time>2017-07-30T07:53:08.344Z</time>
      </trkpt>
      <trkpt lat="47.74502" lon="2.05203">
        <ele>108</ele>
        <time>2017-07-30T07:53:09.331Z</time>
      </trkpt>
      <trkpt lat="47.7449" lon="2.05203">
        <ele>108</ele>
        <time>2017-07-30T07:53:10.325Z</time>
      </trkpt>
      <trkpt lat="47.74483" lon="2.05204">
        <ele>108</ele>
        <time>2017-07-30T07:53:11.333Z</time>
      </trkpt>
      <trkpt lat="47.74483" lon="2.05204">
        <ele>108</ele>
        <time>2017-07-30T07:53:12.329Z</time>
      </trkpt>
      <trkpt lat="47.74471" lon="2.05203">
        <ele>108</ele>
        <time>2017-07-30T07:53:13.333Z</time>
      </trkpt>
      <trkpt lat="47.74466" lon="2.05202">
        <ele>108</ele>
        <time>2017-07-30T07:53:14.330Z</time>
      </trkpt>
      <trkpt lat="47.74466" lon="2.05202">
        <ele>108</ele>
        <time>2017-07-30T07:53:15.328Z</time>
      </trkpt>
      <trkpt lat="47.74454" lon="2.05202">
        <ele>108</ele>
        <time>2017-07-30T07:53:16.335Z</time>
      </trkpt>
      <trkpt lat="47.74454" lon="2.05202">
        <ele>108</ele>
        <time>2017-07-30T07:53:17.331Z</time>
      </trkpt>
      <trkpt lat="47.74441" lon="2.05202">
        <ele>107</ele>
        <time>2017-07-30T07:53:18.333Z</time>
      </trkpt>
      <trkpt lat="47.74435" lon="2.05202">
        <ele>107</ele>
        <time>2017-07-30T07:53:19.334Z</time>
      </trkpt>
      <trkpt lat="47.74435" lon="2.05202">
        <ele>107</ele>
        <time>2017-07-30T07:53:20.326Z</time>
      </trkpt>
      <trkpt lat="47.74423" lon="2.05202">
        <ele>108</ele>
        <time>2017-07-30T07:53:21.334Z</time>
      </trkpt>
      <trkpt lat="47.74417" lon="2.05202">
        <ele>108</ele>
        <time>2017-07-30T07:53:22.334Z</time>
      </trkpt>
      <trkpt lat="47.74417" lon="2.05202">
        <ele>108</ele>
        <time>2017-07-30T07:53:23.328Z</time>
      </trkpt>
      <trkpt lat="47.74405" lon="2.05203">
        <ele>108</ele>
        <time>2017-07-30T07:53:24.334Z</time>
      </trkpt>
      <trkpt lat="47.74405" lon="2.05203">
        <ele>108</ele>
        <time>2017-07-30T07:53:25.336Z</time>
      </trkpt>
      <trkpt lat="47.74392" lon="2.05203">
        <ele>108</ele>
        <time>2017-07-30T07:53:26.334Z</time>
      </trkpt>
      <trkpt lat="47.74392" lon="2.05203">
        <ele>108</ele>
        <time>2017-07-30T07:53:27.331Z</time>
      </trkpt>
      <trkpt lat="47.7438" lon="2.05204">
        <ele>107</ele>
        <time>2017-07-30T07:53:28.334Z</time>
      </trkpt>
      <trkpt lat="47.7438" lon="2.05204">
        <ele>107</ele>
        <time>2017-07-30T07:53:29.330Z</time>
      </trkpt>
      <trkpt lat="47.74368" lon="2.05202">
        <ele>107</ele>
        <time>2017-07-30T07:53:30.336Z</time>
      </trkpt>
      <trkpt lat="47.74361" lon="2.052">
        <ele>107</ele>
        <time>2017-07-30T07:53:31.333Z</time>
      </trkpt>
      <trkpt lat="47.74356" lon="2.05199">
        <ele>107</ele>
        <time>2017-07-30T07:53:32.336Z</time>
      </trkpt>
      <trkpt lat="47.74356" lon="2.05199">
        <ele>107</ele>
        <time>2017-07-30T07:53:33.325Z</time>
      </trkpt>
      <trkpt lat="47.74343" lon="2.05196">
        <ele>106</ele>
        <time>2017-07-30T07:53:34.331Z</time>
      </trkpt>
      <trkpt lat="47.74343" lon="2.05196">
        <ele>106</ele>
        <time>2017-07-30T07:53:35.331Z</time>
      </trkpt>
      <trkpt lat="47.74331" lon="2.05194">
        <ele>106</ele>
        <time>2017-07-30T07:53:36.333Z</time>
      </trkpt>
      <trkpt lat="47.74331" lon="2.05194">
        <ele>106</ele>
        <time>2017-07-30T07:53:37.328Z</time>
      </trkpt>
      <trkpt lat="47.74317" lon="2.05193">
        <ele>107</ele>
        <time>2017-07-30T07:53:38.334Z</time>
      </trkpt>
      <trkpt lat="47.74317" lon="2.05193">
        <ele>107</ele>
        <time>2017-07-30T07:53:39.333Z</time>
      </trkpt>
      <trkpt lat="47.74303" lon="2.0519">
        <ele>107</ele>
        <time>2017-07-30T07:53:40.337Z</time>
      </trkpt>
      <trkpt lat="47.74303" lon="2.0519">
        <ele>107</ele>
        <time>2017-07-30T07:53:41.335Z</time>
      </trkpt>
      <trkpt lat="47.74289" lon="2.05187">
        <ele>107</ele>
        <time>2017-07-30T07:53:42.339Z</time>
      </trkpt>
      <trkpt lat="47.74289" lon="2.05187">
        <ele>107</ele>
        <time>2017-07-30T07:53:43.334Z</time>
      </trkpt>
      <trkpt lat="47.74275" lon="2.05185">
        <ele>107</ele>
        <time>2017-07-30T07:53:44.338Z</time>
      </trkpt>
      <trkpt lat="47.74275" lon="2.05185">
        <ele>107</ele>
        <time>2017-07-30T07:53:45.331Z</time>
      </trkpt>
      <trkpt lat="47.74262" lon="2.05181">
        <ele>107</ele>
        <time>2017-07-30T07:53:46.334Z</time>
      </trkpt>
      <trkpt lat="47.74262" lon="2.05181">
        <ele>107</ele>
        <time>2017-07-30T07:53:47.333Z</time>
      </trkpt>
      <trkpt lat="47.74249" lon="2.05179">
        <ele>107</ele>
        <time>2017-07-30T07:53:48.335Z</time>
      </trkpt>
      <trkpt lat="47.74249" lon="2.05179">
        <ele>107</ele>
        <time>2017-07-30T07:53:49.333Z</time>
      </trkpt>
      <trkpt lat="47.74236" lon="2.05176">
        <ele>106</ele>
        <time>2017-07-30T07:53:50.339Z</time>
      </trkpt>
      <trkpt lat="47.74236" lon="2.05176">
        <ele>106</ele>
        <time>2017-07-30T07:53:51.342Z</time>
      </trkpt>
      <trkpt lat="47.74224" lon="2.05173">
        <ele>105</ele>
        <time>2017-07-30T07:53:52.340Z</time>
      </trkpt>
      <trkpt lat="47.74224" lon="2.05173">
        <ele>105</ele>
        <time>2017-07-30T07:53:53.334Z</time>
      </trkpt>
      <trkpt lat="47.74212" lon="2.05171">
        <ele>106</ele>
        <time>2017-07-30T07:53:54.321Z</time>
      </trkpt>
      <trkpt lat="47.74212" lon="2.05171">
        <ele>106</ele>
        <time>2017-07-30T07:53:55.327Z</time>
      </trkpt>
      <trkpt lat="47.742" lon="2.05169">
        <ele>106</ele>
        <time>2017-07-30T07:53:56.333Z</time>
      </trkpt>
      <trkpt lat="47.74195" lon="2.05168">
        <ele>106</ele>
        <time>2017-07-30T07:53:57.338Z</time>
      </trkpt>
      <trkpt lat="47.7419" lon="2.05166">
        <ele>106</ele>
        <time>2017-07-30T07:53:58.349Z</time>
      </trkpt>
      <trkpt lat="47.7419" lon="2.05166">
        <ele>106</ele>
        <time>2017-07-30T07:53:59.340Z</time>
      </trkpt>
      <trkpt lat="47.74177" lon="2.05163">
        <ele>106</ele>
        <time>2017-07-30T07:54:00.332Z</time>
      </trkpt>
      <trkpt lat="47.74177" lon="2.05163">
        <ele>106</ele>
        <time>2017-07-30T07:54:01.330Z</time>
      </trkpt>
      <trkpt lat="47.74165" lon="2.0516">
        <ele>105</ele>
        <time>2017-07-30T07:54:02.334Z</time>
      </trkpt>
      <trkpt lat="47.74165" lon="2.0516">
        <ele>105</ele>
        <time>2017-07-30T07:54:03.330Z</time>
      </trkpt>
      <trkpt lat="47.74152" lon="2.05158">
        <ele>105</ele>
        <time>2017-07-30T07:54:04.333Z</time>
      </trkpt>
      <trkpt lat="47.74146" lon="2.05156">
        <ele>105</ele>
        <time>2017-07-30T07:54:05.333Z</time>
      </trkpt>
      <trkpt lat="47.74146" lon="2.05156">
        <ele>105</ele>
        <time>2017-07-30T07:54:06.331Z</time>
      </trkpt>
      <trkpt lat="47.74133" lon="2.05155">
        <ele>105</ele>
        <time>2017-07-30T07:54:07.334Z</time>
      </trkpt>
      <trkpt lat="47.74128" lon="2.05154">
        <ele>105</ele>
        <time>2017-07-30T07:54:08.335Z</time>
      </trkpt>
      <trkpt lat="47.74128" lon="2.05154">
        <ele>105</ele>
        <time>2017-07-30T07:54:09.330Z</time>
      </trkpt>
      <trkpt lat="47.74117" lon="2.05153">
        <ele>105</ele>
        <time>2017-07-30T07:54:10.334Z</time>
      </trkpt>
      <trkpt lat="47.74117" lon="2.05153">
        <ele>105</ele>
        <time>2017-07-30T07:54:11.330Z</time>
      </trkpt>
      <trkpt lat="47.74107" lon="2.05152">
        <ele>105</ele>
        <time>2017-07-30T07:54:12.312Z</time>
      </trkpt>
      <trkpt lat="47.74102" lon="2.05152">
        <ele>105</ele>
        <time>2017-07-30T07:54:13.335Z</time>
      </trkpt>
      <trkpt lat="47.74097" lon="2.05151">
        <ele>105</ele>
        <time>2017-07-30T07:54:14.334Z</time>
      </trkpt>
      <trkpt lat="47.74097" lon="2.05151">
        <ele>105</ele>
        <time>2017-07-30T07:54:15.331Z</time>
      </trkpt>
      <trkpt lat="47.74087" lon="2.05148">
        <ele>105</ele>
        <time>2017-07-30T07:54:16.333Z</time>
      </trkpt>
      <trkpt lat="47.74087" lon="2.05148">
        <ele>105</ele>
        <time>2017-07-30T07:54:17.340Z</time>
      </trkpt>
      <trkpt lat="47.74077" lon="2.05145">
        <ele>106</ele>
        <time>2017-07-30T07:54:18.337Z</time>
      </trkpt>
      <trkpt lat="47.74072" lon="2.05143">
        <ele>106</ele>
        <time>2017-07-30T07:54:19.332Z</time>
      </trkpt>
      <trkpt lat="47.74068" lon="2.05143">
        <ele>107</ele>
        <time>2017-07-30T07:54:20.334Z</time>
      </trkpt>
      <trkpt lat="47.74068" lon="2.05143">
        <ele>107</ele>
        <time>2017-07-30T07:54:21.312Z</time>
      </trkpt>
      <trkpt lat="47.74063" lon="2.05145">
        <ele>107</ele>
        <time>2017-07-30T07:54:22.340Z</time>
      </trkpt>
      <trkpt lat="47.74063" lon="2.05145">
        <ele>107</ele>
        <time>2017-07-30T07:54:23.330Z</time>
      </trkpt>
      <trkpt lat="47.7406" lon="2.05155">
        <ele>107</ele>
        <time>2017-07-30T07:54:24.333Z</time>
      </trkpt>
      <trkpt lat="47.7406" lon="2.05155">
        <ele>107</ele>
        <time>2017-07-30T07:54:25.348Z</time>
      </trkpt>
      <trkpt lat="47.74058" lon="2.05166">
        <ele>107</ele>
        <time>2017-07-30T07:54:26.337Z</time>
      </trkpt>
      <trkpt lat="47.74058" lon="2.05166">
        <ele>107</ele>
        <time>2017-07-30T07:54:27.330Z</time>
      </trkpt>
      <trkpt lat="47.74055" lon="2.0518">
        <ele>107</ele>
        <time>2017-07-30T07:54:28.330Z</time>
      </trkpt>
      <trkpt lat="47.74054" lon="2.05186">
        <ele>106</ele>
        <time>2017-07-30T07:54:29.333Z</time>
      </trkpt>
      <trkpt lat="47.74054" lon="2.05186">
        <ele>106</ele>
        <time>2017-07-30T07:54:30.331Z</time>
      </trkpt>
      <trkpt lat="47.74053" lon="2.05199">
        <ele>106</ele>
        <time>2017-07-30T07:54:31.336Z</time>
      </trkpt>
      <trkpt lat="47.74051" lon="2.05206">
        <ele>105</ele>
        <time>2017-07-30T07:54:32.339Z</time>
      </trkpt>
      <trkpt lat="47.74051" lon="2.05206">
        <ele>105</ele>
        <time>2017-07-30T07:54:33.334Z</time>
      </trkpt>
      <trkpt lat="47.74048" lon="2.05219">
        <ele>105</ele>
        <time>2017-07-30T07:54:34.338Z</time>
      </trkpt>
      <trkpt lat="47.74048" lon="2.05219">
        <ele>105</ele>
        <time>2017-07-30T07:54:35.334Z</time>
      </trkpt>
      <trkpt lat="47.74045" lon="2.05234">
        <ele>106</ele>
        <time>2017-07-30T07:54:36.335Z</time>
      </trkpt>
      <trkpt lat="47.74043" lon="2.05241">
        <ele>106</ele>
        <time>2017-07-30T07:54:37.337Z</time>
      </trkpt>
      <trkpt lat="47.7404" lon="2.05248">
        <ele>105</ele>
        <time>2017-07-30T07:54:38.339Z</time>
      </trkpt>
      <trkpt lat="47.7404" lon="2.05248">
        <ele>105</ele>
        <time>2017-07-30T07:54:39.334Z</time>
      </trkpt>
      <trkpt lat="47.74035" lon="2.05261">
        <ele>105</ele>
        <time>2017-07-30T07:54:40.338Z</time>
      </trkpt>
      <trkpt lat="47.74035" lon="2.05261">
        <ele>105</ele>
        <time>2017-07-30T07:54:41.332Z</time>
      </trkpt>
      <trkpt lat="47.7403" lon="2.05274">
        <ele>104</ele>
        <time>2017-07-30T07:54:42.336Z</time>
      </trkpt>
      <trkpt lat="47.7403" lon="2.05274">
        <ele>104</ele>
        <time>2017-07-30T07:54:43.334Z</time>
      </trkpt>
      <trkpt lat="47.74025" lon="2.05287">
        <ele>104</ele>
        <time>2017-07-30T07:54:44.340Z</time>
      </trkpt>
      <trkpt lat="47.74025" lon="2.05287">
        <ele>104</ele>
        <time>2017-07-30T07:54:45.331Z</time>
      </trkpt>
      <trkpt lat="47.74021" lon="2.05299">
        <ele>103</ele>
        <time>2017-07-30T07:54:46.334Z</time>
      </trkpt>
      <trkpt lat="47.74021" lon="2.05299">
        <ele>103</ele>
        <time>2017-07-30T07:54:47.330Z</time>
      </trkpt>
      <trkpt lat="47.74017" lon="2.0531">
        <ele>103</ele>
        <time>2017-07-30T07:54:48.330Z</time>
      </trkpt>
      <trkpt lat="47.74017" lon="2.0531">
        <ele>103</ele>
        <time>2017-07-30T07:54:49.342Z</time>
      </trkpt>
      <trkpt lat="47.74014" lon="2.05321">
        <ele>103</ele>
        <time>2017-07-30T07:54:50.334Z</time>
      </trkpt>
      <trkpt lat="47.74014" lon="2.05321">
        <ele>103</ele>
        <time>2017-07-30T07:54:51.327Z</time>
      </trkpt>
      <trkpt lat="47.74011" lon="2.05333">
        <ele>103</ele>
        <time>2017-07-30T07:54:52.334Z</time>
      </trkpt>
      <trkpt lat="47.74011" lon="2.05333">
        <ele>103</ele>
        <time>2017-07-30T07:54:53.330Z</time>
      </trkpt>
      <trkpt lat="47.74007" lon="2.05345">
        <ele>103</ele>
        <time>2017-07-30T07:54:54.333Z</time>
      </trkpt>
      <trkpt lat="47.74007" lon="2.05345">
        <ele>103</ele>
        <time>2017-07-30T07:54:55.331Z</time>
      </trkpt>
      <trkpt lat="47.74003" lon="2.05356">
        <ele>103</ele>
        <time>2017-07-30T07:54:56.334Z</time>
      </trkpt>
      <trkpt lat="47.74003" lon="2.05356">
        <ele>103</ele>
        <time>2017-07-30T07:54:57.331Z</time>
      </trkpt>
      <trkpt lat="47.73999" lon="2.05367">
        <ele>103</ele>
        <time>2017-07-30T07:54:58.333Z</time>
      </trkpt>
      <trkpt lat="47.73997" lon="2.05373">
        <ele>103</ele>
        <time>2017-07-30T07:54:59.333Z</time>
      </trkpt>
      <trkpt lat="47.73997" lon="2.05373">
        <ele>103</ele>
        <time>2017-07-30T07:55:00.330Z</time>
      </trkpt>
      <trkpt lat="47.73994" lon="2.05383">
        <ele>103</ele>
        <time>2017-07-30T07:55:01.325Z</time>
      </trkpt>
      <trkpt lat="47.73993" lon="2.0539">
        <ele>104</ele>
        <time>2017-07-30T07:55:02.314Z</time>
      </trkpt>
      <trkpt lat="47.73993" lon="2.0539">
        <ele>104</ele>
        <time>2017-07-30T07:55:03.351Z</time>
      </trkpt>
      <trkpt lat="47.73993" lon="2.05402">
        <ele>104</ele>
        <time>2017-07-30T07:55:04.340Z</time>
      </trkpt>
      <trkpt lat="47.73993" lon="2.05402">
        <ele>104</ele>
        <time>2017-07-30T07:55:05.330Z</time>
      </trkpt>
      <trkpt lat="47.73991" lon="2.05415">
        <ele>104</ele>
        <time>2017-07-30T07:55:06.332Z</time>
      </trkpt>
      <trkpt lat="47.7399" lon="2.05421">
        <ele>104</ele>
        <time>2017-07-30T07:55:07.330Z</time>
      </trkpt>
      <trkpt lat="47.73989" lon="2.05427">
        <ele>104</ele>
        <time>2017-07-30T07:55:08.336Z</time>
      </trkpt>
      <trkpt lat="47.73989" lon="2.05427">
        <ele>104</ele>
        <time>2017-07-30T07:55:09.330Z</time>
      </trkpt>
      <trkpt lat="47.73986" lon="2.05441">
        <ele>105</ele>
        <time>2017-07-30T07:55:10.334Z</time>
      </trkpt>
      <trkpt lat="47.73986" lon="2.05441">
        <ele>105</ele>
        <time>2017-07-30T07:55:11.323Z</time>
      </trkpt>
      <trkpt lat="47.7398" lon="2.05459">
        <ele>105</ele>
        <time>2017-07-30T07:55:12.333Z</time>
      </trkpt>
      <trkpt lat="47.7398" lon="2.05459">
        <ele>105</ele>
        <time>2017-07-30T07:55:13.330Z</time>
      </trkpt>
      <trkpt lat="47.73976" lon="2.05474">
        <ele>104</ele>
        <time>2017-07-30T07:55:14.332Z</time>
      </trkpt>
      <trkpt lat="47.73974" lon="2.0548">
        <ele>104</ele>
        <time>2017-07-30T07:55:15.332Z</time>
      </trkpt>
      <trkpt lat="47.73971" lon="2.05486">
        <ele>105</ele>
        <time>2017-07-30T07:55:16.334Z</time>
      </trkpt>
      <trkpt lat="47.73968" lon="2.05493">
        <ele>105</ele>
        <time>2017-07-30T07:55:17.333Z</time>
      </trkpt>
      <trkpt lat="47.73968" lon="2.05493">
        <ele>105</ele>
        <time>2017-07-30T07:55:18.330Z</time>
      </trkpt>
      <trkpt lat="47.73962" lon="2.05505">
        <ele>105</ele>
        <time>2017-07-30T07:55:19.332Z</time>
      </trkpt>
      <trkpt lat="47.73958" lon="2.05511">
        <ele>105</ele>
        <time>2017-07-30T07:55:20.339Z</time>
      </trkpt>
      <trkpt lat="47.73958" lon="2.05511">
        <ele>105</ele>
        <time>2017-07-30T07:55:21.330Z</time>
      </trkpt>
      <trkpt lat="47.73952" lon="2.05522">
        <ele>106</ele>
        <time>2017-07-30T07:55:22.331Z</time>
      </trkpt>
      <trkpt lat="47.73952" lon="2.05522">
        <ele>106</ele>
        <time>2017-07-30T07:55:23.314Z</time>
      </trkpt>
      <trkpt lat="47.73946" lon="2.05534">
        <ele>106</ele>
        <time>2017-07-30T07:55:24.333Z</time>
      </trkpt>
      <trkpt lat="47.73944" lon="2.0554">
        <ele>107</ele>
        <time>2017-07-30T07:55:25.338Z</time>
      </trkpt>
      <trkpt lat="47.73942" lon="2.05546">
        <ele>107</ele>
        <time>2017-07-30T07:55:26.339Z</time>
      </trkpt>
      <trkpt lat="47.73942" lon="2.05546">
        <ele>107</ele>
        <time>2017-07-30T07:55:27.333Z</time>
      </trkpt>
      <trkpt lat="47.73937" lon="2.05557">
        <ele>108</ele>
        <time>2017-07-30T07:55:28.337Z</time>
      </trkpt>
      <trkpt lat="47.73937" lon="2.05557">
        <ele>108</ele>
        <time>2017-07-30T07:55:29.331Z</time>
      </trkpt>
      <trkpt lat="47.73934" lon="2.05568">
        <ele>108</ele>
        <time>2017-07-30T07:55:30.336Z</time>
      </trkpt>
      <trkpt lat="47.73934" lon="2.05568">
        <ele>108</ele>
        <time>2017-07-30T07:55:31.334Z</time>
      </trkpt>
      <trkpt lat="47.7393" lon="2.05578">
        <ele>109</ele>
        <time>2017-07-30T07:55:32.339Z</time>
      </trkpt>
      <trkpt lat="47.7393" lon="2.05578">
        <ele>109</ele>
        <time>2017-07-30T07:55:33.334Z</time>
      </trkpt>
      <trkpt lat="47.73926" lon="2.05589">
        <ele>109</ele>
        <time>2017-07-30T07:55:34.337Z</time>
      </trkpt>
      <trkpt lat="47.73926" lon="2.05589">
        <ele>109</ele>
        <time>2017-07-30T07:55:35.332Z</time>
      </trkpt>
      <trkpt lat="47.73922" lon="2.05599">
        <ele>110</ele>
        <time>2017-07-30T07:55:36.336Z</time>
      </trkpt>
      <trkpt lat="47.73922" lon="2.05599">
        <ele>110</ele>
        <time>2017-07-30T07:55:37.334Z</time>
      </trkpt>
      <trkpt lat="47.73916" lon="2.05611">
        <ele>111</ele>
        <time>2017-07-30T07:55:38.338Z</time>
      </trkpt>
      <trkpt lat="47.73916" lon="2.05611">
        <ele>111</ele>
        <time>2017-07-30T07:55:39.334Z</time>
      </trkpt>
      <trkpt lat="47.73911" lon="2.05625">
        <ele>112</ele>
        <time>2017-07-30T07:55:40.334Z</time>
      </trkpt>
      <trkpt lat="47.73911" lon="2.05625">
        <ele>112</ele>
        <time>2017-07-30T07:55:41.331Z</time>
      </trkpt>
      <trkpt lat="47.73904" lon="2.05638">
        <ele>112</ele>
        <time>2017-07-30T07:55:42.344Z</time>
      </trkpt>
      <trkpt lat="47.73902" lon="2.05648">
        <ele>112</ele>
        <time>2017-07-30T07:55:43.330Z</time>
      </trkpt>
      <trkpt lat="47.73899" lon="2.05656">
        <ele>112</ele>
        <time>2017-07-30T07:55:44.334Z</time>
      </trkpt>
      <trkpt lat="47.73899" lon="2.05656">
        <ele>112</ele>
        <time>2017-07-30T07:55:45.331Z</time>
      </trkpt>
      <trkpt lat="47.73895" lon="2.0567">
        <ele>113</ele>
        <time>2017-07-30T07:55:46.334Z</time>
      </trkpt>
      <trkpt lat="47.73892" lon="2.05676">
        <ele>113</ele>
        <time>2017-07-30T07:55:47.333Z</time>
      </trkpt>
      <trkpt lat="47.73892" lon="2.05676">
        <ele>113</ele>
        <time>2017-07-30T07:55:48.330Z</time>
      </trkpt>
      <trkpt lat="47.73886" lon="2.05686">
        <ele>112</ele>
        <time>2017-07-30T07:55:49.332Z</time>
      </trkpt>
      <trkpt lat="47.73882" lon="2.05691">
        <ele>113</ele>
        <time>2017-07-30T07:55:50.336Z</time>
      </trkpt>
      <trkpt lat="47.73877" lon="2.05696">
        <ele>113</ele>
        <time>2017-07-30T07:55:51.333Z</time>
      </trkpt>
      <trkpt lat="47.73877" lon="2.05696">
        <ele>113</ele>
        <time>2017-07-30T07:55:52.329Z</time>
      </trkpt>
      <trkpt lat="47.73868" lon="2.05706">
        <ele>113</ele>
        <time>2017-07-30T07:55:53.333Z</time>
      </trkpt>
      <trkpt lat="47.73864" lon="2.05711">
        <ele>112</ele>
        <time>2017-07-30T07:55:54.330Z</time>
      </trkpt>
      <trkpt lat="47.73864" lon="2.05711">
        <ele>112</ele>
        <time>2017-07-30T07:55:55.328Z</time>
      </trkpt>
      <trkpt lat="47.73855" lon="2.05722">
        <ele>112</ele>
        <time>2017-07-30T07:55:56.335Z</time>
      </trkpt>
      <trkpt lat="47.73855" lon="2.05722">
        <ele>112</ele>
        <time>2017-07-30T07:55:57.331Z</time>
      </trkpt>
      <trkpt lat="47.73848" lon="2.05733">
        <ele>113</ele>
        <time>2017-07-30T07:55:58.334Z</time>
      </trkpt>
      <trkpt lat="47.73848" lon="2.05733">
        <ele>113</ele>
        <time>2017-07-30T07:55:59.329Z</time>
      </trkpt>
      <trkpt lat="47.73839" lon="2.05743">
        <ele>113</ele>
        <time>2017-07-30T07:56:00.332Z</time>
      </trkpt>
      <trkpt lat="47.73834" lon="2.05748">
        <ele>113</ele>
        <time>2017-07-30T07:56:01.334Z</time>
      </trkpt>
      <trkpt lat="47.73834" lon="2.05748">
        <ele>113</ele>
        <time>2017-07-30T07:56:02.331Z</time>
      </trkpt>
      <trkpt lat="47.73824" lon="2.05755">
        <ele>113</ele>
        <time>2017-07-30T07:56:03.330Z</time>
      </trkpt>
      <trkpt lat="47.73818" lon="2.05757">
        <ele>113</ele>
        <time>2017-07-30T07:56:04.331Z</time>
      </trkpt>
      <trkpt lat="47.73818" lon="2.05757">
        <ele>113</ele>
        <time>2017-07-30T07:56:05.329Z</time>
      </trkpt>
      <trkpt lat="47.73808" lon="2.05762">
        <ele>114</ele>
        <time>2017-07-30T07:56:06.330Z</time>
      </trkpt>
      <trkpt lat="47.73808" lon="2.05762">
        <ele>114</ele>
        <time>2017-07-30T07:56:07.330Z</time>
      </trkpt>
      <trkpt lat="47.73798" lon="2.05766">
        <ele>114</ele>
        <time>2017-07-30T07:56:08.333Z</time>
      </trkpt>
      <trkpt lat="47.73793" lon="2.05768">
        <ele>115</ele>
        <time>2017-07-30T07:56:09.334Z</time>
      </trkpt>
      <trkpt lat="47.73793" lon="2.05768">
        <ele>115</ele>
        <time>2017-07-30T07:56:10.331Z</time>
      </trkpt>
      <trkpt lat="47.73783" lon="2.05771">
        <ele>115</ele>
        <time>2017-07-30T07:56:11.332Z</time>
      </trkpt>
      <trkpt lat="47.73778" lon="2.05774">
        <ele>115</ele>
        <time>2017-07-30T07:56:12.330Z</time>
      </trkpt>
      <trkpt lat="47.73778" lon="2.05774">
        <ele>115</ele>
        <time>2017-07-30T07:56:13.323Z</time>
      </trkpt>
      <trkpt lat="47.73768" lon="2.05779">
        <ele>115</ele>
        <time>2017-07-30T07:56:14.313Z</time>
      </trkpt>
      <trkpt lat="47.73768" lon="2.05779">
        <ele>115</ele>
        <time>2017-07-30T07:56:15.346Z</time>
      </trkpt>
      <trkpt lat="47.73757" lon="2.05784">
        <ele>116</ele>
        <time>2017-07-30T07:56:16.338Z</time>
      </trkpt>
      <trkpt lat="47.73757" lon="2.05784">
        <ele>116</ele>
        <time>2017-07-30T07:56:17.335Z</time>
      </trkpt>
      <trkpt lat="47.73748" lon="2.05791">
        <ele>117</ele>
        <time>2017-07-30T07:56:18.337Z</time>
      </trkpt>
      <trkpt lat="47.73748" lon="2.05791">
        <ele>117</ele>
        <time>2017-07-30T07:56:19.333Z</time>
      </trkpt>
      <trkpt lat="47.7374" lon="2.05796">
        <ele>118</ele>
        <time>2017-07-30T07:56:20.337Z</time>
      </trkpt>
      <trkpt lat="47.7374" lon="2.05796">
        <ele>118</ele>
        <time>2017-07-30T07:56:21.331Z</time>
      </trkpt>
      <trkpt lat="47.73731" lon="2.05801">
        <ele>119</ele>
        <time>2017-07-30T07:56:22.338Z</time>
      </trkpt>
      <trkpt lat="47.73731" lon="2.05801">
        <ele>119</ele>
        <time>2017-07-30T07:56:23.334Z</time>
      </trkpt>
      <trkpt lat="47.73721" lon="2.05806">
        <ele>119</ele>
        <time>2017-07-30T07:56:24.334Z</time>
      </trkpt>
      <trkpt lat="47.73721" lon="2.05806">
        <ele>119</ele>
        <time>2017-07-30T07:56:25.334Z</time>
      </trkpt>
      <trkpt lat="47.73712" lon="2.05813">
        <ele>119</ele>
        <time>2017-07-30T07:56:26.337Z</time>
      </trkpt>
      <trkpt lat="47.73712" lon="2.05813">
        <ele>119</ele>
        <time>2017-07-30T07:56:27.334Z</time>
      </trkpt>
      <trkpt lat="47.73701" lon="2.05822">
        <ele>119</ele>
        <time>2017-07-30T07:56:28.339Z</time>
      </trkpt>
      <trkpt lat="47.73701" lon="2.05822">
        <ele>119</ele>
        <time>2017-07-30T07:56:29.334Z</time>
      </trkpt>
      <trkpt lat="47.73692" lon="2.05832">
        <ele>118</ele>
        <time>2017-07-30T07:56:30.337Z</time>
      </trkpt>
      <trkpt lat="47.73692" lon="2.05832">
        <ele>118</ele>
        <time>2017-07-30T07:56:31.325Z</time>
      </trkpt>
      <trkpt lat="47.73683" lon="2.05842">
        <ele>118</ele>
        <time>2017-07-30T07:56:32.327Z</time>
      </trkpt>
      <trkpt lat="47.73679" lon="2.05847">
        <ele>118</ele>
        <time>2017-07-30T07:56:33.332Z</time>
      </trkpt>
      <trkpt lat="47.73675" lon="2.05852">
        <ele>117</ele>
        <time>2017-07-30T07:56:34.334Z</time>
      </trkpt>
      <trkpt lat="47.73675" lon="2.05852">
        <ele>117</ele>
        <time>2017-07-30T07:56:35.326Z</time>
      </trkpt>
      <trkpt lat="47.73666" lon="2.05862">
        <ele>117</ele>
        <time>2017-07-30T07:56:36.333Z</time>
      </trkpt>
      <trkpt lat="47.73666" lon="2.05862">
        <ele>117</ele>
        <time>2017-07-30T07:56:37.329Z</time>
      </trkpt>
      <trkpt lat="47.73658" lon="2.0587">
        <ele>117</ele>
        <time>2017-07-30T07:56:38.349Z</time>
      </trkpt>
      <trkpt lat="47.73658" lon="2.0587">
        <ele>117</ele>
        <time>2017-07-30T07:56:39.331Z</time>
      </trkpt>
      <trkpt lat="47.7365" lon="2.05878">
        <ele>117</ele>
        <time>2017-07-30T07:56:40.334Z</time>
      </trkpt>
      <trkpt lat="47.7365" lon="2.05878">
        <ele>117</ele>
        <time>2017-07-30T07:56:41.331Z</time>
      </trkpt>
      <trkpt lat="47.73642" lon="2.05887">
        <ele>117</ele>
        <time>2017-07-30T07:56:42.332Z</time>
      </trkpt>
      <trkpt lat="47.73637" lon="2.05892">
        <ele>116</ele>
        <time>2017-07-30T07:56:43.330Z</time>
      </trkpt>
      <trkpt lat="47.73633" lon="2.05896">
        <ele>116</ele>
        <time>2017-07-30T07:56:44.334Z</time>
      </trkpt>
      <trkpt lat="47.73633" lon="2.05896">
        <ele>116</ele>
        <time>2017-07-30T07:56:45.331Z</time>
      </trkpt>
      <trkpt lat="47.73625" lon="2.05907">
        <ele>115</ele>
        <time>2017-07-30T07:56:46.334Z</time>
      </trkpt>
      <trkpt lat="47.73625" lon="2.05907">
        <ele>115</ele>
        <time>2017-07-30T07:56:47.330Z</time>
      </trkpt>
      <trkpt lat="47.73617" lon="2.05916">
        <ele>114</ele>
        <time>2017-07-30T07:56:48.344Z</time>
      </trkpt>
      <trkpt lat="47.73617" lon="2.05916">
        <ele>114</ele>
        <time>2017-07-30T07:56:49.348Z</time>
      </trkpt>
      <trkpt lat="47.7361" lon="2.05924">
        <ele>114</ele>
        <time>2017-07-30T07:56:50.338Z</time>
      </trkpt>
      <trkpt lat="47.7361" lon="2.05924">
        <ele>114</ele>
        <time>2017-07-30T07:56:51.329Z</time>
      </trkpt>
      <trkpt lat="47.73603" lon="2.05933">
        <ele>113</ele>
        <time>2017-07-30T07:56:52.338Z</time>
      </trkpt>
      <trkpt lat="47.73599" lon="2.05937">
        <ele>113</ele>
        <time>2017-07-30T07:56:53.331Z</time>
      </trkpt>
      <trkpt lat="47.73595" lon="2.05941">
        <ele>113</ele>
        <time>2017-07-30T07:56:54.333Z</time>
      </trkpt>
      <trkpt lat="47.73595" lon="2.05941">
        <ele>113</ele>
        <time>2017-07-30T07:56:55.331Z</time>
      </trkpt>
      <trkpt lat="47.73587" lon="2.05949">
        <ele>113</ele>
        <time>2017-07-30T07:56:56.331Z</time>
      </trkpt>
      <trkpt lat="47.73587" lon="2.05949">
        <ele>113</ele>
        <time>2017-07-30T07:56:57.331Z</time>
      </trkpt>
      <trkpt lat="47.73578" lon="2.05958">
        <ele>112</ele>
        <time>2017-07-30T07:56:58.335Z</time>
      </trkpt>
      <trkpt lat="47.73578" lon="2.05958">
        <ele>112</ele>
        <time>2017-07-30T07:56:59.322Z</time>
      </trkpt>
      <trkpt lat="47.7357" lon="2.05967">
        <ele>112</ele>
        <time>2017-07-30T07:57:00.334Z</time>
      </trkpt>
      <trkpt lat="47.7357" lon="2.05967">
        <ele>112</ele>
        <time>2017-07-30T07:57:01.329Z</time>
      </trkpt>
      <trkpt lat="47.73562" lon="2.05975">
        <ele>112</ele>
        <time>2017-07-30T07:57:02.334Z</time>
      </trkpt>
      <trkpt lat="47.73558" lon="2.0598">
        <ele>112</ele>
        <time>2017-07-30T07:57:03.333Z</time>
      </trkpt>
      <trkpt lat="47.73555" lon="2.05985">
        <ele>111</ele>
        <time>2017-07-30T07:57:04.334Z</time>
      </trkpt>
      <trkpt lat="47.73555" lon="2.05985">
        <ele>111</ele>
        <time>2017-07-30T07:57:05.332Z</time>
      </trkpt>
      <trkpt lat="47.73548" lon="2.05994">
        <ele>111</ele>
        <time>2017-07-30T07:57:06.336Z</time>
      </trkpt>
      <trkpt lat="47.73544" lon="2.05998">
        <ele>111</ele>
        <time>2017-07-30T07:57:07.350Z</time>
      </trkpt>
      <trkpt lat="47.73544" lon="2.05998">
        <ele>111</ele>
        <time>2017-07-30T07:57:08.337Z</time>
      </trkpt>
      <trkpt lat="47.73535" lon="2.06007">
        <ele>111</ele>
        <time>2017-07-30T07:57:09.334Z</time>
      </trkpt>
      <trkpt lat="47.73531" lon="2.06011">
        <ele>111</ele>
        <time>2017-07-30T07:57:10.338Z</time>
      </trkpt>
      <trkpt lat="47.73531" lon="2.06011">
        <ele>111</ele>
        <time>2017-07-30T07:57:11.332Z</time>
      </trkpt>
      <trkpt lat="47.73525" lon="2.0602">
        <ele>111</ele>
        <time>2017-07-30T07:57:12.340Z</time>
      </trkpt>
      <trkpt lat="47.73522" lon="2.06024">
        <ele>111</ele>
        <time>2017-07-30T07:57:13.337Z</time>
      </trkpt>
      <trkpt lat="47.73519" lon="2.06028">
        <ele>110</ele>
        <time>2017-07-30T07:57:14.340Z</time>
      </trkpt>
      <trkpt lat="47.73519" lon="2.06028">
        <ele>110</ele>
        <time>2017-07-30T07:57:15.335Z</time>
      </trkpt>
      <trkpt lat="47.73511" lon="2.06037">
        <ele>110</ele>
        <time>2017-07-30T07:57:16.342Z</time>
      </trkpt>
      <trkpt lat="47.73511" lon="2.06037">
        <ele>110</ele>
        <time>2017-07-30T07:57:17.342Z</time>
      </trkpt>
      <trkpt lat="47.73504" lon="2.06046">
        <ele>110</ele>
        <time>2017-07-30T07:57:18.331Z</time>
      </trkpt>
      <trkpt lat="47.73504" lon="2.06046">
        <ele>110</ele>
        <time>2017-07-30T07:57:19.342Z</time>
      </trkpt>
      <trkpt lat="47.73496" lon="2.06056">
        <ele>109</ele>
        <time>2017-07-30T07:57:20.335Z</time>
      </trkpt>
      <trkpt lat="47.73496" lon="2.06056">
        <ele>109</ele>
        <time>2017-07-30T07:57:21.331Z</time>
      </trkpt>
      <trkpt lat="47.73491" lon="2.06067">
        <ele>109</ele>
        <time>2017-07-30T07:57:22.335Z</time>
      </trkpt>
      <trkpt lat="47.73491" lon="2.06067">
        <ele>109</ele>
        <time>2017-07-30T07:57:23.329Z</time>
      </trkpt>
      <trkpt lat="47.73484" lon="2.06078">
        <ele>108</ele>
        <time>2017-07-30T07:57:24.326Z</time>
      </trkpt>
      <trkpt lat="47.73484" lon="2.06078">
        <ele>108</ele>
        <time>2017-07-30T07:57:25.334Z</time>
      </trkpt>
      <trkpt lat="47.73476" lon="2.06085">
        <ele>108</ele>
        <time>2017-07-30T07:57:26.340Z</time>
      </trkpt>
      <trkpt lat="47.73476" lon="2.06085">
        <ele>108</ele>
        <time>2017-07-30T07:57:27.346Z</time>
      </trkpt>
      <trkpt lat="47.73467" lon="2.06092">
        <ele>107</ele>
        <time>2017-07-30T07:57:28.335Z</time>
      </trkpt>
      <trkpt lat="47.73467" lon="2.06092">
        <ele>107</ele>
        <time>2017-07-30T07:57:29.322Z</time>
      </trkpt>
      <trkpt lat="47.73459" lon="2.06098">
        <ele>107</ele>
        <time>2017-07-30T07:57:30.344Z</time>
      </trkpt>
      <trkpt lat="47.73459" lon="2.06098">
        <ele>107</ele>
        <time>2017-07-30T07:57:31.329Z</time>
      </trkpt>
      <trkpt lat="47.7345" lon="2.06105">
        <ele>107</ele>
        <time>2017-07-30T07:57:32.336Z</time>
      </trkpt>
      <trkpt lat="47.7345" lon="2.06105">
        <ele>107</ele>
        <time>2017-07-30T07:57:33.328Z</time>
      </trkpt>
      <trkpt lat="47.7344" lon="2.06111">
        <ele>106</ele>
        <time>2017-07-30T07:57:34.334Z</time>
      </trkpt>
      <trkpt lat="47.7344" lon="2.06111">
        <ele>106</ele>
        <time>2017-07-30T07:57:35.330Z</time>
      </trkpt>
      <trkpt lat="47.73433" lon="2.06117">
        <ele>106</ele>
        <time>2017-07-30T07:57:36.331Z</time>
      </trkpt>
      <trkpt lat="47.73433" lon="2.06117">
        <ele>106</ele>
        <time>2017-07-30T07:57:37.313Z</time>
      </trkpt>
      <trkpt lat="47.73426" lon="2.06123">
        <ele>105</ele>
        <time>2017-07-30T07:57:38.345Z</time>
      </trkpt>
      <trkpt lat="47.73426" lon="2.06123">
        <ele>105</ele>
        <time>2017-07-30T07:57:39.329Z</time>
      </trkpt>
      <trkpt lat="47.73419" lon="2.06129">
        <ele>105</ele>
        <time>2017-07-30T07:57:40.335Z</time>
      </trkpt>
      <trkpt lat="47.73419" lon="2.06129">
        <ele>105</ele>
        <time>2017-07-30T07:57:41.331Z</time>
      </trkpt>
      <trkpt lat="47.73411" lon="2.06136">
        <ele>105</ele>
        <time>2017-07-30T07:57:42.332Z</time>
      </trkpt>
      <trkpt lat="47.73407" lon="2.06139">
        <ele>105</ele>
        <time>2017-07-30T07:57:43.333Z</time>
      </trkpt>
      <trkpt lat="47.73403" lon="2.06142">
        <ele>105</ele>
        <time>2017-07-30T07:57:44.332Z</time>
      </trkpt>
      <trkpt lat="47.73403" lon="2.06142">
        <ele>105</ele>
        <time>2017-07-30T07:57:45.328Z</time>
      </trkpt>
      <trkpt lat="47.73393" lon="2.06149">
        <ele>105</ele>
        <time>2017-07-30T07:57:46.334Z</time>
      </trkpt>
      <trkpt lat="47.73393" lon="2.06149">
        <ele>105</ele>
        <time>2017-07-30T07:57:47.329Z</time>
      </trkpt>
      <trkpt lat="47.73382" lon="2.06158">
        <ele>104</ele>
        <time>2017-07-30T07:57:48.331Z</time>
      </trkpt>
      <trkpt lat="47.73382" lon="2.06158">
        <ele>104</ele>
        <time>2017-07-30T07:57:49.330Z</time>
      </trkpt>
      <trkpt lat="47.73373" lon="2.06165">
        <ele>104</ele>
        <time>2017-07-30T07:57:50.340Z</time>
      </trkpt>
      <trkpt lat="47.73373" lon="2.06165">
        <ele>104</ele>
        <time>2017-07-30T07:57:51.334Z</time>
      </trkpt>
      <trkpt lat="47.73365" lon="2.06172">
        <ele>104</ele>
        <time>2017-07-30T07:57:52.337Z</time>
      </trkpt>
      <trkpt lat="47.73365" lon="2.06172">
        <ele>104</ele>
        <time>2017-07-30T07:57:53.335Z</time>
      </trkpt>
      <trkpt lat="47.73357" lon="2.06177">
        <ele>104</ele>
        <time>2017-07-30T07:57:54.337Z</time>
      </trkpt>
      <trkpt lat="47.73357" lon="2.06177">
        <ele>104</ele>
        <time>2017-07-30T07:57:55.332Z</time>
      </trkpt>
      <trkpt lat="47.73347" lon="2.06183">
        <ele>104</ele>
        <time>2017-07-30T07:57:56.339Z</time>
      </trkpt>
      <trkpt lat="47.73347" lon="2.06183">
        <ele>104</ele>
        <time>2017-07-30T07:57:57.332Z</time>
      </trkpt>
      <trkpt lat="47.73337" lon="2.06188">
        <ele>104</ele>
        <time>2017-07-30T07:57:58.337Z</time>
      </trkpt>
      <trkpt lat="47.73332" lon="2.06191">
        <ele>104</ele>
        <time>2017-07-30T07:57:59.337Z</time>
      </trkpt>
      <trkpt lat="47.73332" lon="2.06191">
        <ele>104</ele>
        <time>2017-07-30T07:58:00.332Z</time>
      </trkpt>
      <trkpt lat="47.73325" lon="2.06195">
        <ele>104</ele>
        <time>2017-07-30T07:58:01.336Z</time>
      </trkpt>
      <trkpt lat="47.73321" lon="2.06198">
        <ele>104</ele>
        <time>2017-07-30T07:58:02.336Z</time>
      </trkpt>
      <trkpt lat="47.73321" lon="2.06198">
        <ele>104</ele>
        <time>2017-07-30T07:58:03.330Z</time>
      </trkpt>
      <trkpt lat="47.73311" lon="2.06203">
        <ele>104</ele>
        <time>2017-07-30T07:58:04.334Z</time>
      </trkpt>
      <trkpt lat="47.73311" lon="2.06203">
        <ele>104</ele>
        <time>2017-07-30T07:58:05.328Z</time>
      </trkpt>
      <trkpt lat="47.73302" lon="2.06208">
        <ele>104</ele>
        <time>2017-07-30T07:58:06.333Z</time>
      </trkpt>
      <trkpt lat="47.73302" lon="2.06208">
        <ele>104</ele>
        <time>2017-07-30T07:58:07.331Z</time>
      </trkpt>
      <trkpt lat="47.73293" lon="2.06214">
        <ele>105</ele>
        <time>2017-07-30T07:58:08.336Z</time>
      </trkpt>
      <trkpt lat="47.73293" lon="2.06214">
        <ele>105</ele>
        <time>2017-07-30T07:58:09.326Z</time>
      </trkpt>
      <trkpt lat="47.73283" lon="2.0622">
        <ele>106</ele>
        <time>2017-07-30T07:58:10.334Z</time>
      </trkpt>
      <trkpt lat="47.73283" lon="2.0622">
        <ele>106</ele>
        <time>2017-07-30T07:58:11.330Z</time>
      </trkpt>
      <trkpt lat="47.73273" lon="2.06225">
        <ele>106</ele>
        <time>2017-07-30T07:58:12.333Z</time>
      </trkpt>
      <trkpt lat="47.73268" lon="2.06227">
        <ele>106</ele>
        <time>2017-07-30T07:58:13.334Z</time>
      </trkpt>
      <trkpt lat="47.73268" lon="2.06227">
        <ele>106</ele>
        <time>2017-07-30T07:58:14.328Z</time>
      </trkpt>
      <trkpt lat="47.73259" lon="2.06232">
        <ele>107</ele>
        <time>2017-07-30T07:58:15.333Z</time>
      </trkpt>
      <trkpt lat="47.73254" lon="2.06234">
        <ele>107</ele>
        <time>2017-07-30T07:58:16.334Z</time>
      </trkpt>
      <trkpt lat="47.73254" lon="2.06234">
        <ele>107</ele>
        <time>2017-07-30T07:58:17.312Z</time>
      </trkpt>
      <trkpt lat="47.73244" lon="2.06238">
        <ele>107</ele>
        <time>2017-07-30T07:58:18.337Z</time>
      </trkpt>
      <trkpt lat="47.73244" lon="2.06238">
        <ele>107</ele>
        <time>2017-07-30T07:58:19.328Z</time>
      </trkpt>
      <trkpt lat="47.73234" lon="2.06239">
        <ele>108</ele>
        <time>2017-07-30T07:58:20.331Z</time>
      </trkpt>
      <trkpt lat="47.73234" lon="2.06239">
        <ele>108</ele>
        <time>2017-07-30T07:58:21.331Z</time>
      </trkpt>
      <trkpt lat="47.73222" lon="2.06241">
        <ele>108</ele>
        <time>2017-07-30T07:58:22.339Z</time>
      </trkpt>
      <trkpt lat="47.73222" lon="2.06241">
        <ele>108</ele>
        <time>2017-07-30T07:58:23.331Z</time>
      </trkpt>
      <trkpt lat="47.73213" lon="2.06242">
        <ele>109</ele>
        <time>2017-07-30T07:58:24.334Z</time>
      </trkpt>
      <trkpt lat="47.73213" lon="2.06242">
        <ele>109</ele>
        <time>2017-07-30T07:58:25.336Z</time>
      </trkpt>
      <trkpt lat="47.73204" lon="2.06242">
        <ele>109</ele>
        <time>2017-07-30T07:58:26.342Z</time>
      </trkpt>
      <trkpt lat="47.73204" lon="2.06242">
        <ele>109</ele>
        <time>2017-07-30T07:58:27.348Z</time>
      </trkpt>
      <trkpt lat="47.73193" lon="2.06244">
        <ele>109</ele>
        <time>2017-07-30T07:58:28.332Z</time>
      </trkpt>
      <trkpt lat="47.73193" lon="2.06244">
        <ele>109</ele>
        <time>2017-07-30T07:58:29.341Z</time>
      </trkpt>
      <trkpt lat="47.73183" lon="2.06247">
        <ele>110</ele>
        <time>2017-07-30T07:58:30.336Z</time>
      </trkpt>
      <trkpt lat="47.73183" lon="2.06247">
        <ele>110</ele>
        <time>2017-07-30T07:58:31.322Z</time>
      </trkpt>
      <trkpt lat="47.73172" lon="2.0625">
        <ele>110</ele>
        <time>2017-07-30T07:58:32.350Z</time>
      </trkpt>
      <trkpt lat="47.73172" lon="2.0625">
        <ele>110</ele>
        <time>2017-07-30T07:58:33.343Z</time>
      </trkpt>
      <trkpt lat="47.73164" lon="2.06256">
        <ele>110</ele>
        <time>2017-07-30T07:58:34.335Z</time>
      </trkpt>
      <trkpt lat="47.73164" lon="2.06256">
        <ele>110</ele>
        <time>2017-07-30T07:58:35.330Z</time>
      </trkpt>
      <trkpt lat="47.73153" lon="2.06261">
        <ele>110</ele>
        <time>2017-07-30T07:58:36.331Z</time>
      </trkpt>
      <trkpt lat="47.73153" lon="2.06261">
        <ele>110</ele>
        <time>2017-07-30T07:58:37.339Z</time>
      </trkpt>
      <trkpt lat="47.73144" lon="2.06264">
        <ele>111</ele>
        <time>2017-07-30T07:58:38.336Z</time>
      </trkpt>
      <trkpt lat="47.73144" lon="2.06264">
        <ele>111</ele>
        <time>2017-07-30T07:58:39.328Z</time>
      </trkpt>
      <trkpt lat="47.73133" lon="2.06268">
        <ele>112</ele>
        <time>2017-07-30T07:58:40.335Z</time>
      </trkpt>
      <trkpt lat="47.73133" lon="2.06268">
        <ele>112</ele>
        <time>2017-07-30T07:58:41.322Z</time>
      </trkpt>
      <trkpt lat="47.73123" lon="2.06269">
        <ele>112</ele>
        <time>2017-07-30T07:58:42.350Z</time>
      </trkpt>
      <trkpt lat="47.73118" lon="2.06271">
        <ele>113</ele>
        <time>2017-07-30T07:58:43.341Z</time>
      </trkpt>
      <trkpt lat="47.73114" lon="2.06272">
        <ele>113</ele>
        <time>2017-07-30T07:58:44.340Z</time>
      </trkpt>
      <trkpt lat="47.73114" lon="2.06272">
        <ele>113</ele>
        <time>2017-07-30T07:58:45.331Z</time>
      </trkpt>
      <trkpt lat="47.73104" lon="2.06276">
        <ele>113</ele>
        <time>2017-07-30T07:58:46.337Z</time>
      </trkpt>
      <trkpt lat="47.73104" lon="2.06276">
        <ele>113</ele>
        <time>2017-07-30T07:58:47.332Z</time>
      </trkpt>
      <trkpt lat="47.73094" lon="2.06281">
        <ele>114</ele>
        <time>2017-07-30T07:58:48.348Z</time>
      </trkpt>
      <trkpt lat="47.73094" lon="2.06281">
        <ele>114</ele>
        <time>2017-07-30T07:58:49.334Z</time>
      </trkpt>
      <trkpt lat="47.73083" lon="2.06288">
        <ele>114</ele>
        <time>2017-07-30T07:58:50.340Z</time>
      </trkpt>
      <trkpt lat="47.73083" lon="2.06288">
        <ele>114</ele>
        <time>2017-07-30T07:58:51.334Z</time>
      </trkpt>
      <trkpt lat="47.73073" lon="2.06292">
        <ele>114</ele>
        <time>2017-07-30T07:58:52.335Z</time>
      </trkpt>
      <trkpt lat="47.73073" lon="2.06292">
        <ele>114</ele>
        <time>2017-07-30T07:58:53.338Z</time>
      </trkpt>
      <trkpt lat="47.73063" lon="2.06298">
        <ele>115</ele>
        <time>2017-07-30T07:58:54.337Z</time>
      </trkpt>
      <trkpt lat="47.73058" lon="2.06301">
        <ele>115</ele>
        <time>2017-07-30T07:58:55.337Z</time>
      </trkpt>
      <trkpt lat="47.73058" lon="2.06301">
        <ele>115</ele>
        <time>2017-07-30T07:58:56.329Z</time>
      </trkpt>
      <trkpt lat="47.73049" lon="2.06305">
        <ele>116</ele>
        <time>2017-07-30T07:58:57.331Z</time>
      </trkpt>
      <trkpt lat="47.73044" lon="2.06307">
        <ele>116</ele>
        <time>2017-07-30T07:58:58.335Z</time>
      </trkpt>
      <trkpt lat="47.73044" lon="2.06307">
        <ele>116</ele>
        <time>2017-07-30T07:58:59.331Z</time>
      </trkpt>
      <trkpt lat="47.73035" lon="2.06313">
        <ele>116</ele>
        <time>2017-07-30T07:59:00.333Z</time>
      </trkpt>
      <trkpt lat="47.7303" lon="2.06316">
        <ele>117</ele>
        <time>2017-07-30T07:59:01.331Z</time>
      </trkpt>
      <trkpt lat="47.7303" lon="2.06316">
        <ele>117</ele>
        <time>2017-07-30T07:59:02.332Z</time>
      </trkpt>
      <trkpt lat="47.7302" lon="2.06321">
        <ele>118</ele>
        <time>2017-07-30T07:59:03.342Z</time>
      </trkpt>
      <trkpt lat="47.73015" lon="2.06324">
        <ele>118</ele>
        <time>2017-07-30T07:59:04.337Z</time>
      </trkpt>
      <trkpt lat="47.73015" lon="2.06324">
        <ele>118</ele>
        <time>2017-07-30T07:59:05.328Z</time>
      </trkpt>
      <trkpt lat="47.73005" lon="2.06332">
        <ele>118</ele>
        <time>2017-07-30T07:59:06.331Z</time>
      </trkpt>
      <trkpt lat="47.73005" lon="2.06332">
        <ele>118</ele>
        <time>2017-07-30T07:59:07.329Z</time>
      </trkpt>
      <trkpt lat="47.72994" lon="2.06339">
        <ele>118</ele>
        <time>2017-07-30T07:59:08.336Z</time>
      </trkpt>
      <trkpt lat="47.72994" lon="2.06339">
        <ele>118</ele>
        <time>2017-07-30T07:59:09.331Z</time>
      </trkpt>
      <trkpt lat="47.72985" lon="2.06347">
        <ele>118</ele>
        <time>2017-07-30T07:59:10.334Z</time>
      </trkpt>
      <trkpt lat="47.72985" lon="2.06347">
        <ele>118</ele>
        <time>2017-07-30T07:59:11.329Z</time>
      </trkpt>
      <trkpt lat="47.72977" lon="2.06353">
        <ele>119</ele>
        <time>2017-07-30T07:59:12.334Z</time>
      </trkpt>
      <trkpt lat="47.72977" lon="2.06353">
        <ele>119</ele>
        <time>2017-07-30T07:59:13.336Z</time>
      </trkpt>
      <trkpt lat="47.72967" lon="2.06359">
        <ele>120</ele>
        <time>2017-07-30T07:59:14.331Z</time>
      </trkpt>
      <trkpt lat="47.72967" lon="2.06359">
        <ele>120</ele>
        <time>2017-07-30T07:59:15.329Z</time>
      </trkpt>
      <trkpt lat="47.72957" lon="2.06364">
        <ele>120</ele>
        <time>2017-07-30T07:59:16.336Z</time>
      </trkpt>
      <trkpt lat="47.72957" lon="2.06364">
        <ele>120</ele>
        <time>2017-07-30T07:59:17.328Z</time>
      </trkpt>
      <trkpt lat="47.72947" lon="2.06371">
        <ele>121</ele>
        <time>2017-07-30T07:59:18.335Z</time>
      </trkpt>
      <trkpt lat="47.72947" lon="2.06371">
        <ele>121</ele>
        <time>2017-07-30T07:59:19.329Z</time>
      </trkpt>
      <trkpt lat="47.72938" lon="2.06377">
        <ele>121</ele>
        <time>2017-07-30T07:59:20.336Z</time>
      </trkpt>
      <trkpt lat="47.72938" lon="2.06377">
        <ele>121</ele>
        <time>2017-07-30T07:59:21.329Z</time>
      </trkpt>
      <trkpt lat="47.72929" lon="2.06384">
        <ele>122</ele>
        <time>2017-07-30T07:59:22.332Z</time>
      </trkpt>
      <trkpt lat="47.72929" lon="2.06384">
        <ele>122</ele>
        <time>2017-07-30T07:59:23.339Z</time>
      </trkpt>
      <trkpt lat="47.72921" lon="2.0639">
        <ele>122</ele>
        <time>2017-07-30T07:59:24.318Z</time>
      </trkpt>
      <trkpt lat="47.72921" lon="2.0639">
        <ele>122</ele>
        <time>2017-07-30T07:59:25.321Z</time>
      </trkpt>
      <trkpt lat="47.72911" lon="2.06395">
        <ele>122</ele>
        <time>2017-07-30T07:59:26.327Z</time>
      </trkpt>
      <trkpt lat="47.72911" lon="2.06395">
        <ele>122</ele>
        <time>2017-07-30T07:59:27.333Z</time>
      </trkpt>
      <trkpt lat="47.72901" lon="2.06395">
        <ele>123</ele>
        <time>2017-07-30T07:59:28.340Z</time>
      </trkpt>
      <trkpt lat="47.72901" lon="2.06395">
        <ele>123</ele>
        <time>2017-07-30T07:59:29.339Z</time>
      </trkpt>
      <trkpt lat="47.72894" lon="2.06388">
        <ele>123</ele>
        <time>2017-07-30T07:59:30.333Z</time>
      </trkpt>
      <trkpt lat="47.72892" lon="2.06383">
        <ele>123</ele>
        <time>2017-07-30T07:59:31.338Z</time>
      </trkpt>
      <trkpt lat="47.7289" lon="2.06377">
        <ele>123</ele>
        <time>2017-07-30T07:59:32.340Z</time>
      </trkpt>
      <trkpt lat="47.7289" lon="2.06377">
        <ele>123</ele>
        <time>2017-07-30T07:59:33.335Z</time>
      </trkpt>
      <trkpt lat="47.72883" lon="2.06371">
        <ele>123</ele>
        <time>2017-07-30T07:59:34.335Z</time>
      </trkpt>
      <trkpt lat="47.72883" lon="2.06371">
        <ele>123</ele>
        <time>2017-07-30T07:59:35.323Z</time>
      </trkpt>
      <trkpt lat="47.72874" lon="2.06369">
        <ele>123</ele>
        <time>2017-07-30T07:59:36.336Z</time>
      </trkpt>
      <trkpt lat="47.72874" lon="2.06369">
        <ele>123</ele>
        <time>2017-07-30T07:59:37.332Z</time>
      </trkpt>
      <trkpt lat="47.72865" lon="2.0637">
        <ele>123</ele>
        <time>2017-07-30T07:59:38.339Z</time>
      </trkpt>
      <trkpt lat="47.72865" lon="2.0637">
        <ele>123</ele>
        <time>2017-07-30T07:59:39.331Z</time>
      </trkpt>
      <trkpt lat="47.72856" lon="2.06371">
        <ele>123</ele>
        <time>2017-07-30T07:59:40.337Z</time>
      </trkpt>
      <trkpt lat="47.72856" lon="2.06371">
        <ele>123</ele>
        <time>2017-07-30T07:59:41.332Z</time>
      </trkpt>
      <trkpt lat="47.72849" lon="2.06372">
        <ele>123</ele>
        <time>2017-07-30T07:59:42.338Z</time>
      </trkpt>
      <trkpt lat="47.72849" lon="2.06372">
        <ele>123</ele>
        <time>2017-07-30T07:59:43.332Z</time>
      </trkpt>
      <trkpt lat="47.72846" lon="2.06373">
        <ele>123</ele>
        <time>2017-07-30T07:59:44.339Z</time>
      </trkpt>
      <trkpt lat="47.72846" lon="2.06373">
        <ele>123</ele>
        <time>2017-07-30T07:59:45.332Z</time>
      </trkpt>
      <trkpt lat="47.72844" lon="2.06373">
        <ele>123</ele>
        <time>2017-07-30T07:59:46.337Z</time>
      </trkpt>
      <trkpt lat="47.72844" lon="2.06373">
        <ele>123</ele>
        <time>2017-07-30T07:59:47.328Z</time>
      </trkpt>
      <trkpt lat="47.72842" lon="2.06375">
        <ele>123</ele>
        <time>2017-07-30T07:59:48.345Z</time>
      </trkpt>
      <trkpt lat="47.72842" lon="2.06375">
        <ele>123</ele>
        <time>2017-07-30T07:59:49.334Z</time>
      </trkpt>
      <trkpt lat="47.72842" lon="2.06375">
        <ele>123</ele>
        <time>2017-07-30T07:59:50.329Z</time>
      </trkpt>
      <trkpt lat="47.72842" lon="2.06375">
        <ele>123</ele>
        <time>2017-07-30T07:59:51.333Z</time>
      </trkpt>
      <trkpt lat="47.72837" lon="2.0638">
        <ele>120</ele>
        <time>2017-07-30T07:59:52.337Z</time>
      </trkpt>
      <trkpt lat="47.72839" lon="2.06384">
        <ele>120</ele>
        <time>2017-07-30T07:59:53.326Z</time>
      </trkpt>
      <trkpt lat="47.72839" lon="2.06384">
        <ele>120</ele>
        <time>2017-07-30T07:59:54.328Z</time>
      </trkpt>
      <trkpt lat="47.72842" lon="2.06393">
        <ele>120</ele>
        <time>2017-07-30T07:59:55.321Z</time>
      </trkpt>
      <trkpt lat="47.72845" lon="2.06399">
        <ele>120</ele>
        <time>2017-07-30T07:59:56.345Z</time>
      </trkpt>
      <trkpt lat="47.72848" lon="2.06405">
        <ele>119</ele>
        <time>2017-07-30T07:59:57.339Z</time>
      </trkpt>
      <trkpt lat="47.72848" lon="2.06405">
        <ele>119</ele>
        <time>2017-07-30T07:59:58.324Z</time>
      </trkpt>
      <trkpt lat="47.72852" lon="2.06417">
        <ele>119</ele>
        <time>2017-07-30T07:59:59.338Z</time>
      </trkpt>
      <trkpt lat="47.72852" lon="2.06417">
        <ele>119</ele>
        <time>2017-07-30T08:00:00.333Z</time>
      </trkpt>
      <trkpt lat="47.72854" lon="2.06428">
        <ele>118</ele>
        <time>2017-07-30T08:00:01.326Z</time>
      </trkpt>
      <trkpt lat="47.72856" lon="2.06433">
        <ele>117</ele>
        <time>2017-07-30T08:00:02.325Z</time>
      </trkpt>
      <trkpt lat="47.72856" lon="2.06433">
        <ele>117</ele>
        <time>2017-07-30T08:00:03.324Z</time>
      </trkpt>
      <trkpt lat="47.72859" lon="2.06442">
        <ele>117</ele>
        <time>2017-07-30T08:00:04.330Z</time>
      </trkpt>
      <trkpt lat="47.7286" lon="2.06447">
        <ele>116</ele>
        <time>2017-07-30T08:00:05.337Z</time>
      </trkpt>
      <trkpt lat="47.7286" lon="2.06447">
        <ele>116</ele>
        <time>2017-07-30T08:00:06.315Z</time>
      </trkpt>
      <trkpt lat="47.72863" lon="2.06456">
        <ele>115</ele>
        <time>2017-07-30T08:00:07.324Z</time>
      </trkpt>
      <trkpt lat="47.72863" lon="2.06456">
        <ele>115</ele>
        <time>2017-07-30T08:00:08.319Z</time>
      </trkpt>
      <trkpt lat="47.72866" lon="2.06465">
        <ele>114</ele>
        <time>2017-07-30T08:00:09.337Z</time>
      </trkpt>
      <trkpt lat="47.72867" lon="2.06469">
        <ele>114</ele>
        <time>2017-07-30T08:00:10.331Z</time>
      </trkpt>
      <trkpt lat="47.72867" lon="2.06469">
        <ele>114</ele>
        <time>2017-07-30T08:00:11.326Z</time>
      </trkpt>
      <trkpt lat="47.72869" lon="2.06479">
        <ele>113</ele>
        <time>2017-07-30T08:00:12.321Z</time>
      </trkpt>
      <trkpt lat="47.7287" lon="2.06485">
        <ele>112</ele>
        <time>2017-07-30T08:00:13.321Z</time>
      </trkpt>
      <trkpt lat="47.7287" lon="2.06485">
        <ele>112</ele>
        <time>2017-07-30T08:00:14.323Z</time>
      </trkpt>
      <trkpt lat="47.72871" lon="2.06498">
        <ele>111</ele>
        <time>2017-07-30T08:00:15.322Z</time>
      </trkpt>
      <trkpt lat="47.72871" lon="2.06498">
        <ele>111</ele>
        <time>2017-07-30T08:00:16.324Z</time>
      </trkpt>
      <trkpt lat="47.72871" lon="2.06509">
        <ele>110</ele>
        <time>2017-07-30T08:00:17.324Z</time>
      </trkpt>
      <trkpt lat="47.72871" lon="2.06509">
        <ele>110</ele>
        <time>2017-07-30T08:00:18.321Z</time>
      </trkpt>
      <trkpt lat="47.72871" lon="2.06523">
        <ele>109</ele>
        <time>2017-07-30T08:00:19.328Z</time>
      </trkpt>
      <trkpt lat="47.72871" lon="2.0653">
        <ele>109</ele>
        <time>2017-07-30T08:00:20.341Z</time>
      </trkpt>
      <trkpt lat="47.72871" lon="2.0653">
        <ele>109</ele>
        <time>2017-07-30T08:00:21.324Z</time>
      </trkpt>
      <trkpt lat="47.72872" lon="2.06545">
        <ele>108</ele>
        <time>2017-07-30T08:00:22.328Z</time>
      </trkpt>
      <trkpt lat="47.72872" lon="2.06545">
        <ele>108</ele>
        <time>2017-07-30T08:00:23.323Z</time>
      </trkpt>
      <trkpt lat="47.72873" lon="2.06562">
        <ele>108</ele>
        <time>2017-07-30T08:00:24.344Z</time>
      </trkpt>
      <trkpt lat="47.72873" lon="2.0657">
        <ele>108</ele>
        <time>2017-07-30T08:00:25.316Z</time>
      </trkpt>
      <trkpt lat="47.72873" lon="2.06578">
        <ele>107</ele>
        <time>2017-07-30T08:00:26.326Z</time>
      </trkpt>
      <trkpt lat="47.72873" lon="2.06585">
        <ele>107</ele>
        <time>2017-07-30T08:00:27.327Z</time>
      </trkpt>
      <trkpt lat="47.72872" lon="2.06593">
        <ele>107</ele>
        <time>2017-07-30T08:00:28.325Z</time>
      </trkpt>
      <trkpt lat="47.72871" lon="2.066">
        <ele>107</ele>
        <time>2017-07-30T08:00:29.330Z</time>
      </trkpt>
      <trkpt lat="47.72871" lon="2.066">
        <ele>107</ele>
        <time>2017-07-30T08:00:30.326Z</time>
      </trkpt>
      <trkpt lat="47.72869" lon="2.06614">
        <ele>106</ele>
        <time>2017-07-30T08:00:31.341Z</time>
      </trkpt>
      <trkpt lat="47.72869" lon="2.0662">
        <ele>106</ele>
        <time>2017-07-30T08:00:32.329Z</time>
      </trkpt>
      <trkpt lat="47.72869" lon="2.0662">
        <ele>106</ele>
        <time>2017-07-30T08:00:33.320Z</time>
      </trkpt>
      <trkpt lat="47.72869" lon="2.0663">
        <ele>106</ele>
        <time>2017-07-30T08:00:34.324Z</time>
      </trkpt>
      <trkpt lat="47.72869" lon="2.0663">
        <ele>106</ele>
        <time>2017-07-30T08:00:35.319Z</time>
      </trkpt>
      <trkpt lat="47.72869" lon="2.0664">
        <ele>106</ele>
        <time>2017-07-30T08:00:36.326Z</time>
      </trkpt>
      <trkpt lat="47.72869" lon="2.0664">
        <ele>106</ele>
        <time>2017-07-30T08:00:37.334Z</time>
      </trkpt>
      <trkpt lat="47.72869" lon="2.06652">
        <ele>107</ele>
        <time>2017-07-30T08:00:38.326Z</time>
      </trkpt>
      <trkpt lat="47.72868" lon="2.06657">
        <ele>107</ele>
        <time>2017-07-30T08:00:39.324Z</time>
      </trkpt>
      <trkpt lat="47.72868" lon="2.06657">
        <ele>107</ele>
        <time>2017-07-30T08:00:40.320Z</time>
      </trkpt>
      <trkpt lat="47.72869" lon="2.06668">
        <ele>107</ele>
        <time>2017-07-30T08:00:41.324Z</time>
      </trkpt>
      <trkpt lat="47.72869" lon="2.06668">
        <ele>107</ele>
        <time>2017-07-30T08:00:42.319Z</time>
      </trkpt>
      <trkpt lat="47.7287" lon="2.06681">
        <ele>109</ele>
        <time>2017-07-30T08:00:43.324Z</time>
      </trkpt>
      <trkpt lat="47.7287" lon="2.06686">
        <ele>109</ele>
        <time>2017-07-30T08:00:44.322Z</time>
      </trkpt>
      <trkpt lat="47.7287" lon="2.06692">
        <ele>110</ele>
        <time>2017-07-30T08:00:45.324Z</time>
      </trkpt>
      <trkpt lat="47.72872" lon="2.06696">
        <ele>111</ele>
        <time>2017-07-30T08:00:46.324Z</time>
      </trkpt>
      <trkpt lat="47.72872" lon="2.06696">
        <ele>111</ele>
        <time>2017-07-30T08:00:47.322Z</time>
      </trkpt>
      <trkpt lat="47.72872" lon="2.06704">
        <ele>113</ele>
        <time>2017-07-30T08:00:48.335Z</time>
      </trkpt>
      <trkpt lat="47.72871" lon="2.06708">
        <ele>114</ele>
        <time>2017-07-30T08:00:49.326Z</time>
      </trkpt>
      <trkpt lat="47.7287" lon="2.06714">
        <ele>115</ele>
        <time>2017-07-30T08:00:50.326Z</time>
      </trkpt>
      <trkpt lat="47.7287" lon="2.06714">
        <ele>115</ele>
        <time>2017-07-30T08:00:51.319Z</time>
      </trkpt>
      <trkpt lat="47.72866" lon="2.06724">
        <ele>118</ele>
        <time>2017-07-30T08:00:52.325Z</time>
      </trkpt>
      <trkpt lat="47.72866" lon="2.06724">
        <ele>118</ele>
        <time>2017-07-30T08:00:53.322Z</time>
      </trkpt>
      <trkpt lat="47.72862" lon="2.06737">
        <ele>120</ele>
        <time>2017-07-30T08:00:54.324Z</time>
      </trkpt>
      <trkpt lat="47.72862" lon="2.06737">
        <ele>120</ele>
        <time>2017-07-30T08:00:55.319Z</time>
      </trkpt>
      <trkpt lat="47.72858" lon="2.06748">
        <ele>122</ele>
        <time>2017-07-30T08:00:56.324Z</time>
      </trkpt>
      <trkpt lat="47.72858" lon="2.06748">
        <ele>122</ele>
        <time>2017-07-30T08:00:57.321Z</time>
      </trkpt>
      <trkpt lat="47.72854" lon="2.06759">
        <ele>123</ele>
        <time>2017-07-30T08:00:58.326Z</time>
      </trkpt>
      <trkpt lat="47.72854" lon="2.06759">
        <ele>123</ele>
        <time>2017-07-30T08:00:59.319Z</time>
      </trkpt>
      <trkpt lat="47.72851" lon="2.0677">
        <ele>125</ele>
        <time>2017-07-30T08:01:00.324Z</time>
      </trkpt>
      <trkpt lat="47.72849" lon="2.06775">
        <ele>126</ele>
        <time>2017-07-30T08:01:01.324Z</time>
      </trkpt>
      <trkpt lat="47.72849" lon="2.06775">
        <ele>126</ele>
        <time>2017-07-30T08:01:02.320Z</time>
      </trkpt>
      <trkpt lat="47.72845" lon="2.06786">
        <ele>127</ele>
        <time>2017-07-30T08:01:03.324Z</time>
      </trkpt>
      <trkpt lat="47.72844" lon="2.06791">
        <ele>128</ele>
        <time>2017-07-30T08:01:04.326Z</time>
      </trkpt>
      <trkpt lat="47.72844" lon="2.06791">
        <ele>128</ele>
        <time>2017-07-30T08:01:05.321Z</time>
      </trkpt>
      <trkpt lat="47.7284" lon="2.06802">
        <ele>129</ele>
        <time>2017-07-30T08:01:06.321Z</time>
      </trkpt>
      <trkpt lat="47.7284" lon="2.06802">
        <ele>129</ele>
        <time>2017-07-30T08:01:07.318Z</time>
      </trkpt>
      <trkpt lat="47.72838" lon="2.06811">
        <ele>130</ele>
        <time>2017-07-30T08:01:08.325Z</time>
      </trkpt>
      <trkpt lat="47.72838" lon="2.06811">
        <ele>130</ele>
        <time>2017-07-30T08:01:09.322Z</time>
      </trkpt>
      <trkpt lat="47.72834" lon="2.06821">
        <ele>130</ele>
        <time>2017-07-30T08:01:10.329Z</time>
      </trkpt>
      <trkpt lat="47.72834" lon="2.06827">
        <ele>130</ele>
        <time>2017-07-30T08:01:11.348Z</time>
      </trkpt>
      <trkpt lat="47.72834" lon="2.06827">
        <ele>130</ele>
        <time>2017-07-30T08:01:12.329Z</time>
      </trkpt>
      <trkpt lat="47.72833" lon="2.06838">
        <ele>131</ele>
        <time>2017-07-30T08:01:13.325Z</time>
      </trkpt>
      <trkpt lat="47.72834" lon="2.06844">
        <ele>131</ele>
        <time>2017-07-30T08:01:14.330Z</time>
      </trkpt>
      <trkpt lat="47.72834" lon="2.06844">
        <ele>131</ele>
        <time>2017-07-30T08:01:15.322Z</time>
      </trkpt>
      <trkpt lat="47.72836" lon="2.06853">
        <ele>131</ele>
        <time>2017-07-30T08:01:16.335Z</time>
      </trkpt>
      <trkpt lat="47.72836" lon="2.06853">
        <ele>131</ele>
        <time>2017-07-30T08:01:17.333Z</time>
      </trkpt>
      <trkpt lat="47.72837" lon="2.06861">
        <ele>131</ele>
        <time>2017-07-30T08:01:18.327Z</time>
      </trkpt>
      <trkpt lat="47.72838" lon="2.06866">
        <ele>132</ele>
        <time>2017-07-30T08:01:19.328Z</time>
      </trkpt>
      <trkpt lat="47.72838" lon="2.06866">
        <ele>132</ele>
        <time>2017-07-30T08:01:20.325Z</time>
      </trkpt>
      <trkpt lat="47.7284" lon="2.06874">
        <ele>132</ele>
        <time>2017-07-30T08:01:21.329Z</time>
      </trkpt>
      <trkpt lat="47.7284" lon="2.06879">
        <ele>133</ele>
        <time>2017-07-30T08:01:22.328Z</time>
      </trkpt>
      <trkpt lat="47.7284" lon="2.06879">
        <ele>133</ele>
        <time>2017-07-30T08:01:23.323Z</time>
      </trkpt>
      <trkpt lat="47.72841" lon="2.06886">
        <ele>133</ele>
        <time>2017-07-30T08:01:24.326Z</time>
      </trkpt>
      <trkpt lat="47.72841" lon="2.06886">
        <ele>133</ele>
        <time>2017-07-30T08:01:25.327Z</time>
      </trkpt>
      <trkpt lat="47.7284" lon="2.06899">
        <ele>134</ele>
        <time>2017-07-30T08:01:26.324Z</time>
      </trkpt>
      <trkpt lat="47.7284" lon="2.06905">
        <ele>135</ele>
        <time>2017-07-30T08:01:27.321Z</time>
      </trkpt>
      <trkpt lat="47.7284" lon="2.0691">
        <ele>136</ele>
        <time>2017-07-30T08:01:28.325Z</time>
      </trkpt>
      <trkpt lat="47.7284" lon="2.0691">
        <ele>136</ele>
        <time>2017-07-30T08:01:29.319Z</time>
      </trkpt>
      <trkpt lat="47.7284" lon="2.06919">
        <ele>136</ele>
        <time>2017-07-30T08:01:30.325Z</time>
      </trkpt>
      <trkpt lat="47.7284" lon="2.06919">
        <ele>136</ele>
        <time>2017-07-30T08:01:31.321Z</time>
      </trkpt>
      <trkpt lat="47.7284" lon="2.06927">
        <ele>137</ele>
        <time>2017-07-30T08:01:32.324Z</time>
      </trkpt>
      <trkpt lat="47.7284" lon="2.06927">
        <ele>137</ele>
        <time>2017-07-30T08:01:33.320Z</time>
      </trkpt>
      <trkpt lat="47.72838" lon="2.06934">
        <ele>137</ele>
        <time>2017-07-30T08:01:34.325Z</time>
      </trkpt>
      <trkpt lat="47.72838" lon="2.06934">
        <ele>137</ele>
        <time>2017-07-30T08:01:35.320Z</time>
      </trkpt>
      <trkpt lat="47.72837" lon="2.06942">
        <ele>138</ele>
        <time>2017-07-30T08:01:36.324Z</time>
      </trkpt>
      <trkpt lat="47.72837" lon="2.06942">
        <ele>138</ele>
        <time>2017-07-30T08:01:37.321Z</time>
      </trkpt>
      <trkpt lat="47.72836" lon="2.06949">
        <ele>139</ele>
        <time>2017-07-30T08:01:38.326Z</time>
      </trkpt>
      <trkpt lat="47.72836" lon="2.06949">
        <ele>139</ele>
        <time>2017-07-30T08:01:39.321Z</time>
      </trkpt>
      <trkpt lat="47.72834" lon="2.06955">
        <ele>139</ele>
        <time>2017-07-30T08:01:40.322Z</time>
      </trkpt>
      <trkpt lat="47.72834" lon="2.06955">
        <ele>139</ele>
        <time>2017-07-30T08:01:41.320Z</time>
      </trkpt>
      <trkpt lat="47.72833" lon="2.06963">
        <ele>140</ele>
        <time>2017-07-30T08:01:42.341Z</time>
      </trkpt>
      <trkpt lat="47.72833" lon="2.06968">
        <ele>140</ele>
        <time>2017-07-30T08:01:43.326Z</time>
      </trkpt>
      <trkpt lat="47.72832" lon="2.06974">
        <ele>140</ele>
        <time>2017-07-30T08:01:44.332Z</time>
      </trkpt>
      <trkpt lat="47.72832" lon="2.06974">
        <ele>140</ele>
        <time>2017-07-30T08:01:45.322Z</time>
      </trkpt>
      <trkpt lat="47.72831" lon="2.06981">
        <ele>140</ele>
        <time>2017-07-30T08:01:46.324Z</time>
      </trkpt>
      <trkpt lat="47.72831" lon="2.06981">
        <ele>140</ele>
        <time>2017-07-30T08:01:47.315Z</time>
      </trkpt>
      <trkpt lat="47.72828" lon="2.0699">
        <ele>140</ele>
        <time>2017-07-30T08:01:48.333Z</time>
      </trkpt>
      <trkpt lat="47.72828" lon="2.06994">
        <ele>141</ele>
        <time>2017-07-30T08:01:49.326Z</time>
      </trkpt>
      <trkpt lat="47.72828" lon="2.06994">
        <ele>141</ele>
        <time>2017-07-30T08:01:50.322Z</time>
      </trkpt>
      <trkpt lat="47.72825" lon="2.07005">
        <ele>141</ele>
        <time>2017-07-30T08:01:51.321Z</time>
      </trkpt>
      <trkpt lat="47.72824" lon="2.07011">
        <ele>141</ele>
        <time>2017-07-30T08:01:52.325Z</time>
      </trkpt>
      <trkpt lat="47.72824" lon="2.07011">
        <ele>141</ele>
        <time>2017-07-30T08:01:53.320Z</time>
      </trkpt>
      <trkpt lat="47.72821" lon="2.07021">
        <ele>141</ele>
        <time>2017-07-30T08:01:54.335Z</time>
      </trkpt>
      <trkpt lat="47.72821" lon="2.07021">
        <ele>141</ele>
        <time>2017-07-30T08:01:55.326Z</time>
      </trkpt>
      <trkpt lat="47.72819" lon="2.07033">
        <ele>142</ele>
        <time>2017-07-30T08:01:56.322Z</time>
      </trkpt>
      <trkpt lat="47.72819" lon="2.07033">
        <ele>142</ele>
        <time>2017-07-30T08:01:57.314Z</time>
      </trkpt>
      <trkpt lat="47.72816" lon="2.07048">
        <ele>141</ele>
        <time>2017-07-30T08:01:58.326Z</time>
      </trkpt>
      <trkpt lat="47.72816" lon="2.07048">
        <ele>141</ele>
        <time>2017-07-30T08:01:59.319Z</time>
      </trkpt>
      <trkpt lat="47.72812" lon="2.0706">
        <ele>141</ele>
        <time>2017-07-30T08:02:00.327Z</time>
      </trkpt>
      <trkpt lat="47.72811" lon="2.07065">
        <ele>140</ele>
        <time>2017-07-30T08:02:01.328Z</time>
      </trkpt>
      <trkpt lat="47.72811" lon="2.07065">
        <ele>140</ele>
        <time>2017-07-30T08:02:02.325Z</time>
      </trkpt>
      <trkpt lat="47.72807" lon="2.07077">
        <ele>139</ele>
        <time>2017-07-30T08:02:03.328Z</time>
      </trkpt>
      <trkpt lat="47.72805" lon="2.07082">
        <ele>139</ele>
        <time>2017-07-30T08:02:04.328Z</time>
      </trkpt>
      <trkpt lat="47.72805" lon="2.07082">
        <ele>139</ele>
        <time>2017-07-30T08:02:05.323Z</time>
      </trkpt>
      <trkpt lat="47.72804" lon="2.07093">
        <ele>139</ele>
        <time>2017-07-30T08:02:06.327Z</time>
      </trkpt>
      <trkpt lat="47.72804" lon="2.07093">
        <ele>139</ele>
        <time>2017-07-30T08:02:07.319Z</time>
      </trkpt>
      <trkpt lat="47.72802" lon="2.07105">
        <ele>138</ele>
        <time>2017-07-30T08:02:08.330Z</time>
      </trkpt>
      <trkpt lat="47.72802" lon="2.07105">
        <ele>138</ele>
        <time>2017-07-30T08:02:09.322Z</time>
      </trkpt>
      <trkpt lat="47.728" lon="2.07116">
        <ele>137</ele>
        <time>2017-07-30T08:02:10.329Z</time>
      </trkpt>
      <trkpt lat="47.728" lon="2.07116">
        <ele>137</ele>
        <time>2017-07-30T08:02:11.325Z</time>
      </trkpt>
      <trkpt lat="47.72798" lon="2.07127">
        <ele>136</ele>
        <time>2017-07-30T08:02:12.320Z</time>
      </trkpt>
      <trkpt lat="47.72797" lon="2.07132">
        <ele>136</ele>
        <time>2017-07-30T08:02:13.325Z</time>
      </trkpt>
      <trkpt lat="47.72797" lon="2.07132">
        <ele>136</ele>
        <time>2017-07-30T08:02:14.319Z</time>
      </trkpt>
      <trkpt lat="47.72798" lon="2.07143">
        <ele>136</ele>
        <time>2017-07-30T08:02:15.329Z</time>
      </trkpt>
      <trkpt lat="47.72799" lon="2.07147">
        <ele>135</ele>
        <time>2017-07-30T08:02:16.326Z</time>
      </trkpt>
      <trkpt lat="47.72799" lon="2.07147">
        <ele>135</ele>
        <time>2017-07-30T08:02:17.329Z</time>
      </trkpt>
      <trkpt lat="47.72805" lon="2.07153">
        <ele>134</ele>
        <time>2017-07-30T08:02:18.321Z</time>
      </trkpt>
      <trkpt lat="47.72805" lon="2.07153">
        <ele>134</ele>
        <time>2017-07-30T08:02:19.323Z</time>
      </trkpt>
      <trkpt lat="47.72814" lon="2.07155">
        <ele>134</ele>
        <time>2017-07-30T08:02:20.327Z</time>
      </trkpt>
      <trkpt lat="47.72814" lon="2.07155">
        <ele>134</ele>
        <time>2017-07-30T08:02:21.320Z</time>
      </trkpt>
      <trkpt lat="47.72822" lon="2.07155">
        <ele>134</ele>
        <time>2017-07-30T08:02:22.324Z</time>
      </trkpt>
      <trkpt lat="47.72822" lon="2.07155">
        <ele>134</ele>
        <time>2017-07-30T08:02:23.319Z</time>
      </trkpt>
      <trkpt lat="47.7283" lon="2.07156">
        <ele>135</ele>
        <time>2017-07-30T08:02:24.326Z</time>
      </trkpt>
      <trkpt lat="47.7283" lon="2.07156">
        <ele>135</ele>
        <time>2017-07-30T08:02:25.321Z</time>
      </trkpt>
      <trkpt lat="47.72838" lon="2.07157">
        <ele>135</ele>
        <time>2017-07-30T08:02:26.326Z</time>
      </trkpt>
      <trkpt lat="47.72838" lon="2.07157">
        <ele>135</ele>
        <time>2017-07-30T08:02:27.330Z</time>
      </trkpt>
      <trkpt lat="47.72846" lon="2.07159">
        <ele>135</ele>
        <time>2017-07-30T08:02:28.325Z</time>
      </trkpt>
      <trkpt lat="47.72846" lon="2.07159">
        <ele>135</ele>
        <time>2017-07-30T08:02:29.322Z</time>
      </trkpt>
      <trkpt lat="47.72854" lon="2.0716">
        <ele>135</ele>
        <time>2017-07-30T08:02:30.324Z</time>
      </trkpt>
      <trkpt lat="47.72854" lon="2.0716">
        <ele>135</ele>
        <time>2017-07-30T08:02:31.321Z</time>
      </trkpt>
      <trkpt lat="47.72862" lon="2.07162">
        <ele>135</ele>
        <time>2017-07-30T08:02:32.326Z</time>
      </trkpt>
      <trkpt lat="47.72862" lon="2.07162">
        <ele>135</ele>
        <time>2017-07-30T08:02:33.319Z</time>
      </trkpt>
      <trkpt lat="47.7287" lon="2.07163">
        <ele>135</ele>
        <time>2017-07-30T08:02:34.324Z</time>
      </trkpt>
      <trkpt lat="47.7287" lon="2.07163">
        <ele>135</ele>
        <time>2017-07-30T08:02:35.322Z</time>
      </trkpt>
      <trkpt lat="47.72879" lon="2.07164">
        <ele>134</ele>
        <time>2017-07-30T08:02:36.321Z</time>
      </trkpt>
      <trkpt lat="47.72879" lon="2.07164">
        <ele>134</ele>
        <time>2017-07-30T08:02:37.319Z</time>
      </trkpt>
      <trkpt lat="47.72887" lon="2.07165">
        <ele>134</ele>
        <time>2017-07-30T08:02:38.326Z</time>
      </trkpt>
      <trkpt lat="47.72891" lon="2.07166">
        <ele>134</ele>
        <time>2017-07-30T08:02:39.324Z</time>
      </trkpt>
      <trkpt lat="47.72891" lon="2.07166">
        <ele>134</ele>
        <time>2017-07-30T08:02:40.323Z</time>
      </trkpt>
      <trkpt lat="47.72899" lon="2.07166">
        <ele>134</ele>
        <time>2017-07-30T08:02:41.324Z</time>
      </trkpt>
      <trkpt lat="47.72903" lon="2.07167">
        <ele>133</ele>
        <time>2017-07-30T08:02:42.324Z</time>
      </trkpt>
      <trkpt lat="47.72903" lon="2.07167">
        <ele>133</ele>
        <time>2017-07-30T08:02:43.321Z</time>
      </trkpt>
      <trkpt lat="47.7291" lon="2.07166">
        <ele>133</ele>
        <time>2017-07-30T08:02:44.327Z</time>
      </trkpt>
      <trkpt lat="47.72912" lon="2.07167">
        <ele>133</ele>
        <time>2017-07-30T08:02:45.327Z</time>
      </trkpt>
      <trkpt lat="47.72915" lon="2.07168">
        <ele>133</ele>
        <time>2017-07-30T08:02:46.336Z</time>
      </trkpt>
      <trkpt lat="47.72915" lon="2.07168">
        <ele>133</ele>
        <time>2017-07-30T08:02:47.322Z</time>
      </trkpt>
      <trkpt lat="47.72919" lon="2.07169">
        <ele>133</ele>
        <time>2017-07-30T08:02:48.328Z</time>
      </trkpt>
      <trkpt lat="47.72919" lon="2.07169">
        <ele>133</ele>
        <time>2017-07-30T08:02:49.328Z</time>
      </trkpt>
      <trkpt lat="47.72923" lon="2.0717">
        <ele>133</ele>
        <time>2017-07-30T08:02:50.334Z</time>
      </trkpt>
      <trkpt lat="47.72923" lon="2.0717">
        <ele>133</ele>
        <time>2017-07-30T08:02:51.328Z</time>
      </trkpt>
      <trkpt lat="47.72925" lon="2.07174">
        <ele>133</ele>
        <time>2017-07-30T08:02:52.328Z</time>
      </trkpt>
      <trkpt lat="47.72925" lon="2.07175">
        <ele>133</ele>
        <time>2017-07-30T08:02:53.328Z</time>
      </trkpt>
      <trkpt lat="47.72925" lon="2.07175">
        <ele>133</ele>
        <time>2017-07-30T08:02:54.334Z</time>
      </trkpt>
      <trkpt lat="47.72925" lon="2.07175">
        <ele>133</ele>
        <time>2017-07-30T08:02:55.323Z</time>
      </trkpt>
      <trkpt lat="47.72925" lon="2.07175">
        <ele>133</ele>
        <time>2017-07-30T08:02:56.328Z</time>
      </trkpt>
      <trkpt lat="47.72935" lon="2.07174">
        <ele>132</ele>
        <time>2017-07-30T08:02:57.337Z</time>
      </trkpt>
      <trkpt lat="47.72935" lon="2.07174">
        <ele>132</ele>
        <time>2017-07-30T08:02:58.325Z</time>
      </trkpt>
      <trkpt lat="47.7294" lon="2.07175">
        <ele>132</ele>
        <time>2017-07-30T08:02:59.328Z</time>
      </trkpt>
      <trkpt lat="47.7294" lon="2.07175">
        <ele>132</ele>
        <time>2017-07-30T08:03:00.334Z</time>
      </trkpt>
      <trkpt lat="47.72946" lon="2.07176">
        <ele>132</ele>
        <time>2017-07-30T08:03:01.328Z</time>
      </trkpt>
      <trkpt lat="47.72946" lon="2.07176">
        <ele>132</ele>
        <time>2017-07-30T08:03:02.328Z</time>
      </trkpt>
      <trkpt lat="47.72953" lon="2.07177">
        <ele>131</ele>
        <time>2017-07-30T08:03:03.328Z</time>
      </trkpt>
      <trkpt lat="47.72953" lon="2.07177">
        <ele>131</ele>
        <time>2017-07-30T08:03:04.323Z</time>
      </trkpt>
      <trkpt lat="47.72961" lon="2.07178">
        <ele>131</ele>
        <time>2017-07-30T08:03:05.334Z</time>
      </trkpt>
      <trkpt lat="47.72961" lon="2.07178">
        <ele>131</ele>
        <time>2017-07-30T08:03:06.323Z</time>
      </trkpt>
      <trkpt lat="47.72971" lon="2.07178">
        <ele>130</ele>
        <time>2017-07-30T08:03:07.325Z</time>
      </trkpt>
      <trkpt lat="47.72971" lon="2.07178">
        <ele>130</ele>
        <time>2017-07-30T08:03:08.323Z</time>
      </trkpt>
      <trkpt lat="47.7298" lon="2.07179">
        <ele>129</ele>
        <time>2017-07-30T08:03:09.342Z</time>
      </trkpt>
      <trkpt lat="47.72984" lon="2.07179">
        <ele>129</ele>
        <time>2017-07-30T08:03:10.334Z</time>
      </trkpt>
      <trkpt lat="47.7299" lon="2.07179">
        <ele>128</ele>
        <time>2017-07-30T08:03:11.326Z</time>
      </trkpt>
      <trkpt lat="47.7299" lon="2.07179">
        <ele>128</ele>
        <time>2017-07-30T08:03:12.318Z</time>
      </trkpt>
      <trkpt lat="47.72999" lon="2.07181">
        <ele>128</ele>
        <time>2017-07-30T08:03:13.332Z</time>
      </trkpt>
      <trkpt lat="47.72999" lon="2.07181">
        <ele>128</ele>
        <time>2017-07-30T08:03:14.324Z</time>
      </trkpt>
      <trkpt lat="47.73009" lon="2.07182">
        <ele>127</ele>
        <time>2017-07-30T08:03:15.329Z</time>
      </trkpt>
      <trkpt lat="47.73009" lon="2.07182">
        <ele>127</ele>
        <time>2017-07-30T08:03:16.323Z</time>
      </trkpt>
      <trkpt lat="47.73022" lon="2.07184">
        <ele>127</ele>
        <time>2017-07-30T08:03:17.328Z</time>
      </trkpt>
      <trkpt lat="47.73029" lon="2.07184">
        <ele>127</ele>
        <time>2017-07-30T08:03:18.329Z</time>
      </trkpt>
      <trkpt lat="47.73036" lon="2.07185">
        <ele>127</ele>
        <time>2017-07-30T08:03:19.331Z</time>
      </trkpt>
      <trkpt lat="47.73036" lon="2.07185">
        <ele>127</ele>
        <time>2017-07-30T08:03:20.323Z</time>
      </trkpt>
      <trkpt lat="47.73048" lon="2.07184">
        <ele>126</ele>
        <time>2017-07-30T08:03:21.329Z</time>
      </trkpt>
      <trkpt lat="47.73048" lon="2.07184">
        <ele>126</ele>
        <time>2017-07-30T08:03:22.325Z</time>
      </trkpt>
      <trkpt lat="47.73057" lon="2.07179">
        <ele>126</ele>
        <time>2017-07-30T08:03:23.330Z</time>
      </trkpt>
      <trkpt lat="47.73057" lon="2.07179">
        <ele>126</ele>
        <time>2017-07-30T08:03:24.340Z</time>
      </trkpt>
      <trkpt lat="47.73066" lon="2.07169">
        <ele>125</ele>
        <time>2017-07-30T08:03:25.346Z</time>
      </trkpt>
      <trkpt lat="47.73066" lon="2.07169">
        <ele>125</ele>
        <time>2017-07-30T08:03:26.313Z</time>
      </trkpt>
      <trkpt lat="47.73075" lon="2.07158">
        <ele>125</ele>
        <time>2017-07-30T08:03:27.326Z</time>
      </trkpt>
      <trkpt lat="47.73075" lon="2.07158">
        <ele>125</ele>
        <time>2017-07-30T08:03:28.323Z</time>
      </trkpt>
      <trkpt lat="47.73086" lon="2.07146">
        <ele>125</ele>
        <time>2017-07-30T08:03:29.325Z</time>
      </trkpt>
      <trkpt lat="47.73086" lon="2.07146">
        <ele>125</ele>
        <time>2017-07-30T08:03:30.323Z</time>
      </trkpt>
      <trkpt lat="47.73098" lon="2.07135">
        <ele>124</ele>
        <time>2017-07-30T08:03:31.325Z</time>
      </trkpt>
      <trkpt lat="47.73098" lon="2.07135">
        <ele>124</ele>
        <time>2017-07-30T08:03:32.323Z</time>
      </trkpt>
      <trkpt lat="47.73114" lon="2.07131">
        <ele>123</ele>
        <time>2017-07-30T08:03:33.330Z</time>
      </trkpt>
      <trkpt lat="47.73114" lon="2.07131">
        <ele>123</ele>
        <time>2017-07-30T08:03:34.323Z</time>
      </trkpt>
      <trkpt lat="47.73131" lon="2.07132">
        <ele>123</ele>
        <time>2017-07-30T08:03:35.326Z</time>
      </trkpt>
      <trkpt lat="47.73131" lon="2.07132">
        <ele>123</ele>
        <time>2017-07-30T08:03:36.324Z</time>
      </trkpt>
      <trkpt lat="47.73147" lon="2.07134">
        <ele>122</ele>
        <time>2017-07-30T08:03:37.326Z</time>
      </trkpt>
      <trkpt lat="47.73147" lon="2.07134">
        <ele>122</ele>
        <time>2017-07-30T08:03:38.323Z</time>
      </trkpt>
      <trkpt lat="47.73161" lon="2.07137">
        <ele>121</ele>
        <time>2017-07-30T08:03:39.327Z</time>
      </trkpt>
      <trkpt lat="47.73161" lon="2.07137">
        <ele>121</ele>
        <time>2017-07-30T08:03:40.338Z</time>
      </trkpt>
      <trkpt lat="47.73175" lon="2.0714">
        <ele>121</ele>
        <time>2017-07-30T08:03:41.328Z</time>
      </trkpt>
      <trkpt lat="47.73175" lon="2.0714">
        <ele>121</ele>
        <time>2017-07-30T08:03:42.323Z</time>
      </trkpt>
      <trkpt lat="47.73188" lon="2.07141">
        <ele>120</ele>
        <time>2017-07-30T08:03:43.328Z</time>
      </trkpt>
      <trkpt lat="47.73188" lon="2.07141">
        <ele>120</ele>
        <time>2017-07-30T08:03:44.338Z</time>
      </trkpt>
      <trkpt lat="47.73202" lon="2.07141">
        <ele>120</ele>
        <time>2017-07-30T08:03:45.344Z</time>
      </trkpt>
      <trkpt lat="47.73202" lon="2.07141">
        <ele>120</ele>
        <time>2017-07-30T08:03:46.351Z</time>
      </trkpt>
      <trkpt lat="47.73216" lon="2.07143">
        <ele>120</ele>
        <time>2017-07-30T08:03:47.339Z</time>
      </trkpt>
      <trkpt lat="47.73223" lon="2.07144">
        <ele>120</ele>
        <time>2017-07-30T08:03:48.327Z</time>
      </trkpt>
      <trkpt lat="47.73223" lon="2.07144">
        <ele>120</ele>
        <time>2017-07-30T08:03:49.324Z</time>
      </trkpt>
      <trkpt lat="47.73234" lon="2.07144">
        <ele>119</ele>
        <time>2017-07-30T08:03:50.325Z</time>
      </trkpt>
      <trkpt lat="47.73234" lon="2.07144">
        <ele>119</ele>
        <time>2017-07-30T08:03:51.323Z</time>
      </trkpt>
      <trkpt lat="47.73246" lon="2.07145">
        <ele>118</ele>
        <time>2017-07-30T08:03:52.325Z</time>
      </trkpt>
      <trkpt lat="47.73255" lon="2.07146">
        <ele>117</ele>
        <time>2017-07-30T08:03:53.327Z</time>
      </trkpt>
      <trkpt lat="47.73255" lon="2.07146">
        <ele>117</ele>
        <time>2017-07-30T08:03:54.316Z</time>
      </trkpt>
      <trkpt lat="47.73273" lon="2.07153">
        <ele>117</ele>
        <time>2017-07-30T08:03:55.327Z</time>
      </trkpt>
      <trkpt lat="47.73273" lon="2.07153">
        <ele>117</ele>
        <time>2017-07-30T08:03:56.323Z</time>
      </trkpt>
      <trkpt lat="47.73288" lon="2.0716">
        <ele>115</ele>
        <time>2017-07-30T08:03:57.326Z</time>
      </trkpt>
      <trkpt lat="47.73288" lon="2.0716">
        <ele>115</ele>
        <time>2017-07-30T08:03:58.323Z</time>
      </trkpt>
      <trkpt lat="47.73302" lon="2.07166">
        <ele>113</ele>
        <time>2017-07-30T08:03:59.327Z</time>
      </trkpt>
      <trkpt lat="47.73302" lon="2.07166">
        <ele>113</ele>
        <time>2017-07-30T08:04:00.323Z</time>
      </trkpt>
      <trkpt lat="47.73316" lon="2.07174">
        <ele>112</ele>
        <time>2017-07-30T08:04:01.330Z</time>
      </trkpt>
      <trkpt lat="47.73322" lon="2.07178">
        <ele>111</ele>
        <time>2017-07-30T08:04:02.329Z</time>
      </trkpt>
      <trkpt lat="47.73322" lon="2.07178">
        <ele>111</ele>
        <time>2017-07-30T08:04:03.327Z</time>
      </trkpt>
      <trkpt lat="47.73337" lon="2.07187">
        <ele>110</ele>
        <time>2017-07-30T08:04:04.320Z</time>
      </trkpt>
      <trkpt lat="47.73344" lon="2.07191">
        <ele>110</ele>
        <time>2017-07-30T08:04:05.328Z</time>
      </trkpt>
      <trkpt lat="47.73344" lon="2.07191">
        <ele>110</ele>
        <time>2017-07-30T08:04:06.325Z</time>
      </trkpt>
      <trkpt lat="47.73358" lon="2.07201">
        <ele>109</ele>
        <time>2017-07-30T08:04:07.331Z</time>
      </trkpt>
      <trkpt lat="47.73358" lon="2.07201">
        <ele>109</ele>
        <time>2017-07-30T08:04:08.326Z</time>
      </trkpt>
      <trkpt lat="47.73369" lon="2.07208">
        <ele>108</ele>
        <time>2017-07-30T08:04:09.330Z</time>
      </trkpt>
      <trkpt lat="47.73369" lon="2.07208">
        <ele>108</ele>
        <time>2017-07-30T08:04:10.327Z</time>
      </trkpt>
      <trkpt lat="47.73382" lon="2.07214">
        <ele>107</ele>
        <time>2017-07-30T08:04:11.328Z</time>
      </trkpt>
      <trkpt lat="47.73382" lon="2.07214">
        <ele>107</ele>
        <time>2017-07-30T08:04:12.332Z</time>
      </trkpt>
      <trkpt lat="47.73395" lon="2.07219">
        <ele>108</ele>
        <time>2017-07-30T08:04:13.328Z</time>
      </trkpt>
      <trkpt lat="47.73395" lon="2.07219">
        <ele>108</ele>
        <time>2017-07-30T08:04:14.332Z</time>
      </trkpt>
      <trkpt lat="47.73407" lon="2.07225">
        <ele>108</ele>
        <time>2017-07-30T08:04:15.326Z</time>
      </trkpt>
      <trkpt lat="47.73413" lon="2.07228">
        <ele>108</ele>
        <time>2017-07-30T08:04:16.328Z</time>
      </trkpt>
      <trkpt lat="47.73419" lon="2.07231">
        <ele>108</ele>
        <time>2017-07-30T08:04:17.327Z</time>
      </trkpt>
      <trkpt lat="47.73419" lon="2.07231">
        <ele>108</ele>
        <time>2017-07-30T08:04:18.331Z</time>
      </trkpt>
      <trkpt lat="47.7343" lon="2.07237">
        <ele>109</ele>
        <time>2017-07-30T08:04:19.327Z</time>
      </trkpt>
      <trkpt lat="47.7343" lon="2.07237">
        <ele>109</ele>
        <time>2017-07-30T08:04:20.323Z</time>
      </trkpt>
      <trkpt lat="47.73442" lon="2.07243">
        <ele>110</ele>
        <time>2017-07-30T08:04:21.324Z</time>
      </trkpt>
      <trkpt lat="47.73442" lon="2.07243">
        <ele>110</ele>
        <time>2017-07-30T08:04:22.323Z</time>
      </trkpt>
      <trkpt lat="47.73452" lon="2.07249">
        <ele>110</ele>
        <time>2017-07-30T08:04:23.326Z</time>
      </trkpt>
      <trkpt lat="47.73452" lon="2.07249">
        <ele>110</ele>
        <time>2017-07-30T08:04:24.323Z</time>
      </trkpt>
      <trkpt lat="47.73462" lon="2.07254">
        <ele>110</ele>
        <time>2017-07-30T08:04:25.337Z</time>
      </trkpt>
      <trkpt lat="47.73462" lon="2.07254">
        <ele>110</ele>
        <time>2017-07-30T08:04:26.344Z</time>
      </trkpt>
      <trkpt lat="47.73472" lon="2.07259">
        <ele>110</ele>
        <time>2017-07-30T08:04:27.312Z</time>
      </trkpt>
      <trkpt lat="47.73478" lon="2.07261">
        <ele>110</ele>
        <time>2017-07-30T08:04:28.340Z</time>
      </trkpt>
      <trkpt lat="47.73478" lon="2.07261">
        <ele>110</ele>
        <time>2017-07-30T08:04:29.329Z</time>
      </trkpt>
      <trkpt lat="47.73487" lon="2.07266">
        <ele>110</ele>
        <time>2017-07-30T08:04:30.339Z</time>
      </trkpt>
      <trkpt lat="47.73491" lon="2.07269">
        <ele>110</ele>
        <time>2017-07-30T08:04:31.328Z</time>
      </trkpt>
      <trkpt lat="47.73491" lon="2.07269">
        <ele>110</ele>
        <time>2017-07-30T08:04:32.323Z</time>
      </trkpt>
      <trkpt lat="47.73503" lon="2.07272">
        <ele>111</ele>
        <time>2017-07-30T08:04:33.327Z</time>
      </trkpt>
      <trkpt lat="47.73503" lon="2.07272">
        <ele>111</ele>
        <time>2017-07-30T08:04:34.326Z</time>
      </trkpt>
      <trkpt lat="47.73516" lon="2.07278">
        <ele>111</ele>
        <time>2017-07-30T08:04:35.325Z</time>
      </trkpt>
      <trkpt lat="47.73522" lon="2.07281">
        <ele>111</ele>
        <time>2017-07-30T08:04:36.325Z</time>
      </trkpt>
      <trkpt lat="47.73528" lon="2.07283">
        <ele>112</ele>
        <time>2017-07-30T08:04:37.327Z</time>
      </trkpt>
      <trkpt lat="47.73528" lon="2.07283">
        <ele>112</ele>
        <time>2017-07-30T08:04:38.323Z</time>
      </trkpt>
      <trkpt lat="47.7354" lon="2.07288">
        <ele>111</ele>
        <time>2017-07-30T08:04:39.326Z</time>
      </trkpt>
      <trkpt lat="47.7354" lon="2.07288">
        <ele>111</ele>
        <time>2017-07-30T08:04:40.324Z</time>
      </trkpt>
      <trkpt lat="47.7355" lon="2.07292">
        <ele>111</ele>
        <time>2017-07-30T08:04:41.325Z</time>
      </trkpt>
      <trkpt lat="47.73555" lon="2.07294">
        <ele>112</ele>
        <time>2017-07-30T08:04:42.326Z</time>
      </trkpt>
      <trkpt lat="47.7356" lon="2.07295">
        <ele>112</ele>
        <time>2017-07-30T08:04:43.326Z</time>
      </trkpt>
      <trkpt lat="47.7356" lon="2.07295">
        <ele>112</ele>
        <time>2017-07-30T08:04:44.324Z</time>
      </trkpt>
      <trkpt lat="47.7357" lon="2.07298">
        <ele>113</ele>
        <time>2017-07-30T08:04:45.327Z</time>
      </trkpt>
      <trkpt lat="47.7357" lon="2.07298">
        <ele>113</ele>
        <time>2017-07-30T08:04:46.324Z</time>
      </trkpt>
      <trkpt lat="47.73579" lon="2.07301">
        <ele>113</ele>
        <time>2017-07-30T08:04:47.325Z</time>
      </trkpt>
      <trkpt lat="47.73584" lon="2.07303">
        <ele>114</ele>
        <time>2017-07-30T08:04:48.327Z</time>
      </trkpt>
      <trkpt lat="47.73588" lon="2.07305">
        <ele>114</ele>
        <time>2017-07-30T08:04:49.342Z</time>
      </trkpt>
      <trkpt lat="47.73592" lon="2.07309">
        <ele>114</ele>
        <time>2017-07-30T08:04:50.335Z</time>
      </trkpt>
      <trkpt lat="47.73592" lon="2.07309">
        <ele>114</ele>
        <time>2017-07-30T08:04:51.324Z</time>
      </trkpt>
      <trkpt lat="47.736" lon="2.07318">
        <ele>113</ele>
        <time>2017-07-30T08:04:52.329Z</time>
      </trkpt>
      <trkpt lat="47.736" lon="2.07318">
        <ele>113</ele>
        <time>2017-07-30T08:04:53.327Z</time>
      </trkpt>
      <trkpt lat="47.73605" lon="2.07329">
        <ele>113</ele>
        <time>2017-07-30T08:04:54.342Z</time>
      </trkpt>
      <trkpt lat="47.73606" lon="2.07333">
        <ele>113</ele>
        <time>2017-07-30T08:04:55.333Z</time>
      </trkpt>
      <trkpt lat="47.73606" lon="2.07333">
        <ele>113</ele>
        <time>2017-07-30T08:04:56.324Z</time>
      </trkpt>
      <trkpt lat="47.73611" lon="2.07343">
        <ele>113</ele>
        <time>2017-07-30T08:04:57.329Z</time>
      </trkpt>
      <trkpt lat="47.73611" lon="2.07343">
        <ele>113</ele>
        <time>2017-07-30T08:04:58.327Z</time>
      </trkpt>
      <trkpt lat="47.73618" lon="2.07353">
        <ele>112</ele>
        <time>2017-07-30T08:04:59.329Z</time>
      </trkpt>
      <trkpt lat="47.73618" lon="2.07353">
        <ele>112</ele>
        <time>2017-07-30T08:05:00.325Z</time>
      </trkpt>
      <trkpt lat="47.73624" lon="2.07363">
        <ele>111</ele>
        <time>2017-07-30T08:05:01.332Z</time>
      </trkpt>
      <trkpt lat="47.73624" lon="2.07363">
        <ele>111</ele>
        <time>2017-07-30T08:05:02.324Z</time>
      </trkpt>
      <trkpt lat="47.7363" lon="2.07374">
        <ele>111</ele>
        <time>2017-07-30T08:05:03.327Z</time>
      </trkpt>
      <trkpt lat="47.7363" lon="2.07374">
        <ele>111</ele>
        <time>2017-07-30T08:05:04.345Z</time>
      </trkpt>
      <trkpt lat="47.73638" lon="2.07382">
        <ele>111</ele>
        <time>2017-07-30T08:05:05.334Z</time>
      </trkpt>
      <trkpt lat="47.73638" lon="2.07382">
        <ele>111</ele>
        <time>2017-07-30T08:05:06.323Z</time>
      </trkpt>
      <trkpt lat="47.73648" lon="2.07393">
        <ele>111</ele>
        <time>2017-07-30T08:05:07.326Z</time>
      </trkpt>
      <trkpt lat="47.73648" lon="2.07393">
        <ele>111</ele>
        <time>2017-07-30T08:05:08.324Z</time>
      </trkpt>
      <trkpt lat="47.73656" lon="2.07405">
        <ele>111</ele>
        <time>2017-07-30T08:05:09.326Z</time>
      </trkpt>
      <trkpt lat="47.73656" lon="2.07405">
        <ele>111</ele>
        <time>2017-07-30T08:05:10.324Z</time>
      </trkpt>
      <trkpt lat="47.73664" lon="2.07414">
        <ele>111</ele>
        <time>2017-07-30T08:05:11.326Z</time>
      </trkpt>
      <trkpt lat="47.73664" lon="2.07414">
        <ele>111</ele>
        <time>2017-07-30T08:05:12.323Z</time>
      </trkpt>
      <trkpt lat="47.7367" lon="2.07423">
        <ele>111</ele>
        <time>2017-07-30T08:05:13.327Z</time>
      </trkpt>
      <trkpt lat="47.7367" lon="2.07423">
        <ele>111</ele>
        <time>2017-07-30T08:05:14.324Z</time>
      </trkpt>
      <trkpt lat="47.73678" lon="2.0743">
        <ele>111</ele>
        <time>2017-07-30T08:05:15.326Z</time>
      </trkpt>
      <trkpt lat="47.73678" lon="2.0743">
        <ele>111</ele>
        <time>2017-07-30T08:05:16.324Z</time>
      </trkpt>
      <trkpt lat="47.73687" lon="2.07437">
        <ele>111</ele>
        <time>2017-07-30T08:05:17.330Z</time>
      </trkpt>
      <trkpt lat="47.73691" lon="2.07441">
        <ele>111</ele>
        <time>2017-07-30T08:05:18.327Z</time>
      </trkpt>
      <trkpt lat="47.73691" lon="2.07441">
        <ele>111</ele>
        <time>2017-07-30T08:05:19.325Z</time>
      </trkpt>
      <trkpt lat="47.73698" lon="2.07448">
        <ele>111</ele>
        <time>2017-07-30T08:05:20.326Z</time>
      </trkpt>
      <trkpt lat="47.73702" lon="2.07452">
        <ele>111</ele>
        <time>2017-07-30T08:05:21.327Z</time>
      </trkpt>
      <trkpt lat="47.73702" lon="2.07452">
        <ele>111</ele>
        <time>2017-07-30T08:05:22.324Z</time>
      </trkpt>
      <trkpt lat="47.73709" lon="2.0746">
        <ele>111</ele>
        <time>2017-07-30T08:05:23.328Z</time>
      </trkpt>
      <trkpt lat="47.73709" lon="2.0746">
        <ele>111</ele>
        <time>2017-07-30T08:05:24.318Z</time>
      </trkpt>
      <trkpt lat="47.73715" lon="2.07469">
        <ele>111</ele>
        <time>2017-07-30T08:05:25.336Z</time>
      </trkpt>
      <trkpt lat="47.73717" lon="2.07473">
        <ele>111</ele>
        <time>2017-07-30T08:05:26.325Z</time>
      </trkpt>
      <trkpt lat="47.7372" lon="2.07476">
        <ele>111</ele>
        <time>2017-07-30T08:05:27.326Z</time>
      </trkpt>
      <trkpt lat="47.73723" lon="2.0748">
        <ele>111</ele>
        <time>2017-07-30T08:05:28.327Z</time>
      </trkpt>
      <trkpt lat="47.73723" lon="2.0748">
        <ele>111</ele>
        <time>2017-07-30T08:05:29.324Z</time>
      </trkpt>
      <trkpt lat="47.73732" lon="2.07487">
        <ele>111</ele>
        <time>2017-07-30T08:05:30.327Z</time>
      </trkpt>
      <trkpt lat="47.73736" lon="2.07491">
        <ele>111</ele>
        <time>2017-07-30T08:05:31.326Z</time>
      </trkpt>
      <trkpt lat="47.73736" lon="2.07491">
        <ele>111</ele>
        <time>2017-07-30T08:05:32.324Z</time>
      </trkpt>
      <trkpt lat="47.73745" lon="2.07497">
        <ele>111</ele>
        <time>2017-07-30T08:05:33.327Z</time>
      </trkpt>
      <trkpt lat="47.73745" lon="2.07497">
        <ele>111</ele>
        <time>2017-07-30T08:05:34.324Z</time>
      </trkpt>
      <trkpt lat="47.73752" lon="2.07505">
        <ele>111</ele>
        <time>2017-07-30T08:05:35.328Z</time>
      </trkpt>
      <trkpt lat="47.73754" lon="2.0751">
        <ele>111</ele>
        <time>2017-07-30T08:05:36.326Z</time>
      </trkpt>
      <trkpt lat="47.73755" lon="2.07517">
        <ele>111</ele>
        <time>2017-07-30T08:05:37.327Z</time>
      </trkpt>
      <trkpt lat="47.73755" lon="2.07517">
        <ele>111</ele>
        <time>2017-07-30T08:05:38.324Z</time>
      </trkpt>
      <trkpt lat="47.73762" lon="2.07527">
        <ele>111</ele>
        <time>2017-07-30T08:05:39.326Z</time>
      </trkpt>
      <trkpt lat="47.73762" lon="2.07527">
        <ele>111</ele>
        <time>2017-07-30T08:05:40.324Z</time>
      </trkpt>
      <trkpt lat="47.73768" lon="2.07535">
        <ele>111</ele>
        <time>2017-07-30T08:05:41.329Z</time>
      </trkpt>
      <trkpt lat="47.73768" lon="2.07535">
        <ele>111</ele>
        <time>2017-07-30T08:05:42.326Z</time>
      </trkpt>
      <trkpt lat="47.73774" lon="2.07543">
        <ele>111</ele>
        <time>2017-07-30T08:05:43.330Z</time>
      </trkpt>
      <trkpt lat="47.73777" lon="2.07546">
        <ele>112</ele>
        <time>2017-07-30T08:05:44.339Z</time>
      </trkpt>
      <trkpt lat="47.7378" lon="2.07551">
        <ele>112</ele>
        <time>2017-07-30T08:05:45.329Z</time>
      </trkpt>
      <trkpt lat="47.7378" lon="2.07551">
        <ele>112</ele>
        <time>2017-07-30T08:05:46.327Z</time>
      </trkpt>
      <trkpt lat="47.73786" lon="2.07559">
        <ele>112</ele>
        <time>2017-07-30T08:05:47.328Z</time>
      </trkpt>
      <trkpt lat="47.73786" lon="2.07559">
        <ele>112</ele>
        <time>2017-07-30T08:05:48.341Z</time>
      </trkpt>
      <trkpt lat="47.73792" lon="2.07567">
        <ele>111</ele>
        <time>2017-07-30T08:05:49.331Z</time>
      </trkpt>
      <trkpt lat="47.73792" lon="2.07567">
        <ele>111</ele>
        <time>2017-07-30T08:05:50.324Z</time>
      </trkpt>
      <trkpt lat="47.73796" lon="2.07578">
        <ele>111</ele>
        <time>2017-07-30T08:05:51.329Z</time>
      </trkpt>
      <trkpt lat="47.73799" lon="2.07583">
        <ele>111</ele>
        <time>2017-07-30T08:05:52.329Z</time>
      </trkpt>
      <trkpt lat="47.73799" lon="2.07583">
        <ele>111</ele>
        <time>2017-07-30T08:05:53.324Z</time>
      </trkpt>
      <trkpt lat="47.73802" lon="2.07595">
        <ele>110</ele>
        <time>2017-07-30T08:05:54.326Z</time>
      </trkpt>
      <trkpt lat="47.73802" lon="2.07595">
        <ele>110</ele>
        <time>2017-07-30T08:05:55.321Z</time>
      </trkpt>
      <trkpt lat="47.73805" lon="2.07608">
        <ele>109</ele>
        <time>2017-07-30T08:05:56.326Z</time>
      </trkpt>
      <trkpt lat="47.73807" lon="2.07614">
        <ele>109</ele>
        <time>2017-07-30T08:05:57.327Z</time>
      </trkpt>
      <trkpt lat="47.73807" lon="2.07614">
        <ele>109</ele>
        <time>2017-07-30T08:05:58.324Z</time>
      </trkpt>
      <trkpt lat="47.7381" lon="2.07626">
        <ele>109</ele>
        <time>2017-07-30T08:05:59.327Z</time>
      </trkpt>
      <trkpt lat="47.7381" lon="2.07626">
        <ele>109</ele>
        <time>2017-07-30T08:06:00.324Z</time>
      </trkpt>
      <trkpt lat="47.73814" lon="2.07636">
        <ele>108</ele>
        <time>2017-07-30T08:06:01.326Z</time>
      </trkpt>
      <trkpt lat="47.73814" lon="2.07636">
        <ele>108</ele>
        <time>2017-07-30T08:06:02.324Z</time>
      </trkpt>
      <trkpt lat="47.73816" lon="2.07646">
        <ele>108</ele>
        <time>2017-07-30T08:06:03.326Z</time>
      </trkpt>
      <trkpt lat="47.73816" lon="2.07646">
        <ele>108</ele>
        <time>2017-07-30T08:06:04.324Z</time>
      </trkpt>
      <trkpt lat="47.73818" lon="2.07654">
        <ele>107</ele>
        <time>2017-07-30T08:06:05.328Z</time>
      </trkpt>
      <trkpt lat="47.7382" lon="2.0766">
        <ele>107</ele>
        <time>2017-07-30T08:06:06.325Z</time>
      </trkpt>
      <trkpt lat="47.73821" lon="2.07665">
        <ele>107</ele>
        <time>2017-07-30T08:06:07.327Z</time>
      </trkpt>
      <trkpt lat="47.73821" lon="2.07672">
        <ele>107</ele>
        <time>2017-07-30T08:06:08.326Z</time>
      </trkpt>
      <trkpt lat="47.73821" lon="2.07672">
        <ele>107</ele>
        <time>2017-07-30T08:06:09.324Z</time>
      </trkpt>
      <trkpt lat="47.73819" lon="2.07679">
        <ele>107</ele>
        <time>2017-07-30T08:06:10.325Z</time>
      </trkpt>
      <trkpt lat="47.73819" lon="2.07679">
        <ele>107</ele>
        <time>2017-07-30T08:06:11.324Z</time>
      </trkpt>
      <trkpt lat="47.73815" lon="2.07684">
        <ele>107</ele>
        <time>2017-07-30T08:06:12.325Z</time>
      </trkpt>
      <trkpt lat="47.73815" lon="2.07684">
        <ele>107</ele>
        <time>2017-07-30T08:06:13.325Z</time>
      </trkpt>
      <trkpt lat="47.73812" lon="2.07691">
        <ele>107</ele>
        <time>2017-07-30T08:06:14.335Z</time>
      </trkpt>
      <trkpt lat="47.7381" lon="2.07694">
        <ele>107</ele>
        <time>2017-07-30T08:06:15.336Z</time>
      </trkpt>
      <trkpt lat="47.7381" lon="2.07694">
        <ele>107</ele>
        <time>2017-07-30T08:06:16.344Z</time>
      </trkpt>
      <trkpt lat="47.73806" lon="2.07699">
        <ele>108</ele>
        <time>2017-07-30T08:06:17.332Z</time>
      </trkpt>
      <trkpt lat="47.73806" lon="2.07699">
        <ele>108</ele>
        <time>2017-07-30T08:06:18.324Z</time>
      </trkpt>
      <trkpt lat="47.73801" lon="2.07705">
        <ele>108</ele>
        <time>2017-07-30T08:06:19.325Z</time>
      </trkpt>
      <trkpt lat="47.73798" lon="2.07707">
        <ele>108</ele>
        <time>2017-07-30T08:06:20.326Z</time>
      </trkpt>
      <trkpt lat="47.73798" lon="2.07707">
        <ele>108</ele>
        <time>2017-07-30T08:06:21.324Z</time>
      </trkpt>
      <trkpt lat="47.73794" lon="2.07712">
        <ele>108</ele>
        <time>2017-07-30T08:06:22.326Z</time>
      </trkpt>
      <trkpt lat="47.73794" lon="2.07712">
        <ele>108</ele>
        <time>2017-07-30T08:06:23.324Z</time>
      </trkpt>
      <trkpt lat="47.73789" lon="2.07719">
        <ele>108</ele>
        <time>2017-07-30T08:06:24.329Z</time>
      </trkpt>
      <trkpt lat="47.73789" lon="2.07719">
        <ele>108</ele>
        <time>2017-07-30T08:06:25.313Z</time>
      </trkpt>
      <trkpt lat="47.73784" lon="2.07724">
        <ele>109</ele>
        <time>2017-07-30T08:06:26.319Z</time>
      </trkpt>
      <trkpt lat="47.73784" lon="2.07724">
        <ele>109</ele>
        <time>2017-07-30T08:06:27.325Z</time>
      </trkpt>
      <trkpt lat="47.73779" lon="2.07728">
        <ele>109</ele>
        <time>2017-07-30T08:06:28.326Z</time>
      </trkpt>
      <trkpt lat="47.73777" lon="2.07731">
        <ele>109</ele>
        <time>2017-07-30T08:06:29.328Z</time>
      </trkpt>
      <trkpt lat="47.73774" lon="2.07734">
        <ele>109</ele>
        <time>2017-07-30T08:06:30.330Z</time>
      </trkpt>
      <trkpt lat="47.73774" lon="2.07734">
        <ele>109</ele>
        <time>2017-07-30T08:06:31.326Z</time>
      </trkpt>
      <trkpt lat="47.73769" lon="2.0774">
        <ele>109</ele>
        <time>2017-07-30T08:06:32.329Z</time>
      </trkpt>
      <trkpt lat="47.73766" lon="2.07744">
        <ele>109</ele>
        <time>2017-07-30T08:06:33.329Z</time>
      </trkpt>
      <trkpt lat="47.73766" lon="2.07744">
        <ele>109</ele>
        <time>2017-07-30T08:06:34.332Z</time>
      </trkpt>
      <trkpt lat="47.7376" lon="2.0775">
        <ele>109</ele>
        <time>2017-07-30T08:06:35.329Z</time>
      </trkpt>
      <trkpt lat="47.73757" lon="2.07753">
        <ele>109</ele>
        <time>2017-07-30T08:06:36.327Z</time>
      </trkpt>
      <trkpt lat="47.73755" lon="2.07755">
        <ele>110</ele>
        <time>2017-07-30T08:06:37.333Z</time>
      </trkpt>
      <trkpt lat="47.73755" lon="2.07755">
        <ele>110</ele>
        <time>2017-07-30T08:06:38.327Z</time>
      </trkpt>
      <trkpt lat="47.73749" lon="2.07761">
        <ele>110</ele>
        <time>2017-07-30T08:06:39.329Z</time>
      </trkpt>
      <trkpt lat="47.73749" lon="2.07761">
        <ele>110</ele>
        <time>2017-07-30T08:06:40.326Z</time>
      </trkpt>
      <trkpt lat="47.73744" lon="2.07768">
        <ele>110</ele>
        <time>2017-07-30T08:06:41.328Z</time>
      </trkpt>
      <trkpt lat="47.73745" lon="2.07772">
        <ele>111</ele>
        <time>2017-07-30T08:06:42.341Z</time>
      </trkpt>
      <trkpt lat="47.73745" lon="2.07772">
        <ele>111</ele>
        <time>2017-07-30T08:06:43.329Z</time>
      </trkpt>
      <trkpt lat="47.73746" lon="2.07784">
        <ele>112</ele>
        <time>2017-07-30T08:06:44.335Z</time>
      </trkpt>
      <trkpt lat="47.73748" lon="2.07789">
        <ele>112</ele>
        <time>2017-07-30T08:06:45.327Z</time>
      </trkpt>
      <trkpt lat="47.73748" lon="2.07789">
        <ele>112</ele>
        <time>2017-07-30T08:06:46.325Z</time>
      </trkpt>
      <trkpt lat="47.73752" lon="2.07797">
        <ele>113</ele>
        <time>2017-07-30T08:06:47.325Z</time>
      </trkpt>
      <trkpt lat="47.73752" lon="2.07797">
        <ele>113</ele>
        <time>2017-07-30T08:06:48.324Z</time>
      </trkpt>
      <trkpt lat="47.73755" lon="2.07807">
        <ele>113</ele>
        <time>2017-07-30T08:06:49.333Z</time>
      </trkpt>
      <trkpt lat="47.73755" lon="2.07807">
        <ele>113</ele>
        <time>2017-07-30T08:06:50.324Z</time>
      </trkpt>
      <trkpt lat="47.73758" lon="2.07817">
        <ele>113</ele>
        <time>2017-07-30T08:06:51.325Z</time>
      </trkpt>
      <trkpt lat="47.73758" lon="2.07817">
        <ele>113</ele>
        <time>2017-07-30T08:06:52.324Z</time>
      </trkpt>
      <trkpt lat="47.73762" lon="2.07827">
        <ele>113</ele>
        <time>2017-07-30T08:06:53.325Z</time>
      </trkpt>
      <trkpt lat="47.73762" lon="2.07827">
        <ele>113</ele>
        <time>2017-07-30T08:06:54.333Z</time>
      </trkpt>
      <trkpt lat="47.73767" lon="2.07837">
        <ele>113</ele>
        <time>2017-07-30T08:06:55.326Z</time>
      </trkpt>
      <trkpt lat="47.73767" lon="2.07837">
        <ele>113</ele>
        <time>2017-07-30T08:06:56.324Z</time>
      </trkpt>
      <trkpt lat="47.73771" lon="2.07847">
        <ele>113</ele>
        <time>2017-07-30T08:06:57.326Z</time>
      </trkpt>
      <trkpt lat="47.73771" lon="2.07847">
        <ele>113</ele>
        <time>2017-07-30T08:06:58.324Z</time>
      </trkpt>
      <trkpt lat="47.73776" lon="2.07856">
        <ele>113</ele>
        <time>2017-07-30T08:06:59.325Z</time>
      </trkpt>
      <trkpt lat="47.73776" lon="2.07856">
        <ele>113</ele>
        <time>2017-07-30T08:07:00.324Z</time>
      </trkpt>
      <trkpt lat="47.7378" lon="2.07866">
        <ele>112</ele>
        <time>2017-07-30T08:07:01.326Z</time>
      </trkpt>
      <trkpt lat="47.7378" lon="2.07866">
        <ele>112</ele>
        <time>2017-07-30T08:07:02.324Z</time>
      </trkpt>
      <trkpt lat="47.73784" lon="2.07876">
        <ele>112</ele>
        <time>2017-07-30T08:07:03.326Z</time>
      </trkpt>
      <trkpt lat="47.73784" lon="2.07876">
        <ele>112</ele>
        <time>2017-07-30T08:07:04.324Z</time>
      </trkpt>
      <trkpt lat="47.73789" lon="2.07886">
        <ele>112</ele>
        <time>2017-07-30T08:07:05.326Z</time>
      </trkpt>
      <trkpt lat="47.73791" lon="2.07891">
        <ele>112</ele>
        <time>2017-07-30T08:07:06.324Z</time>
      </trkpt>
      <trkpt lat="47.73793" lon="2.07896">
        <ele>112</ele>
        <time>2017-07-30T08:07:07.327Z</time>
      </trkpt>
      <trkpt lat="47.73793" lon="2.07896">
        <ele>112</ele>
        <time>2017-07-30T08:07:08.324Z</time>
      </trkpt>
      <trkpt lat="47.73797" lon="2.07906">
        <ele>112</ele>
        <time>2017-07-30T08:07:09.325Z</time>
      </trkpt>
      <trkpt lat="47.738" lon="2.07911">
        <ele>112</ele>
        <time>2017-07-30T08:07:10.326Z</time>
      </trkpt>
      <trkpt lat="47.738" lon="2.07911">
        <ele>112</ele>
        <time>2017-07-30T08:07:11.324Z</time>
      </trkpt>
      <trkpt lat="47.73804" lon="2.07921">
        <ele>112</ele>
        <time>2017-07-30T08:07:12.325Z</time>
      </trkpt>
      <trkpt lat="47.73807" lon="2.07926">
        <ele>112</ele>
        <time>2017-07-30T08:07:13.327Z</time>
      </trkpt>
      <trkpt lat="47.73807" lon="2.07926">
        <ele>112</ele>
        <time>2017-07-30T08:07:14.311Z</time>
      </trkpt>
      <trkpt lat="47.73811" lon="2.07936">
        <ele>112</ele>
        <time>2017-07-30T08:07:15.340Z</time>
      </trkpt>
      <trkpt lat="47.73811" lon="2.07936">
        <ele>112</ele>
        <time>2017-07-30T08:07:16.327Z</time>
      </trkpt>
      <trkpt lat="47.73815" lon="2.07946">
        <ele>113</ele>
        <time>2017-07-30T08:07:17.328Z</time>
      </trkpt>
      <trkpt lat="47.73817" lon="2.07951">
        <ele>113</ele>
        <time>2017-07-30T08:07:18.329Z</time>
      </trkpt>
      <trkpt lat="47.73819" lon="2.07956">
        <ele>113</ele>
        <time>2017-07-30T08:07:19.338Z</time>
      </trkpt>
      <trkpt lat="47.73819" lon="2.07956">
        <ele>113</ele>
        <time>2017-07-30T08:07:20.326Z</time>
      </trkpt>
      <trkpt lat="47.73823" lon="2.07968">
        <ele>113</ele>
        <time>2017-07-30T08:07:21.330Z</time>
      </trkpt>
      <trkpt lat="47.73823" lon="2.07968">
        <ele>113</ele>
        <time>2017-07-30T08:07:22.325Z</time>
      </trkpt>
      <trkpt lat="47.73828" lon="2.07978">
        <ele>113</ele>
        <time>2017-07-30T08:07:23.329Z</time>
      </trkpt>
      <trkpt lat="47.73828" lon="2.07978">
        <ele>113</ele>
        <time>2017-07-30T08:07:24.327Z</time>
      </trkpt>
      <trkpt lat="47.73832" lon="2.0799">
        <ele>113</ele>
        <time>2017-07-30T08:07:25.328Z</time>
      </trkpt>
      <trkpt lat="47.73832" lon="2.0799">
        <ele>113</ele>
        <time>2017-07-30T08:07:26.327Z</time>
      </trkpt>
      <trkpt lat="47.73836" lon="2.08001">
        <ele>112</ele>
        <time>2017-07-30T08:07:27.330Z</time>
      </trkpt>
      <trkpt lat="47.73836" lon="2.08001">
        <ele>112</ele>
        <time>2017-07-30T08:07:28.325Z</time>
      </trkpt>
      <trkpt lat="47.7384" lon="2.08013">
        <ele>112</ele>
        <time>2017-07-30T08:07:29.326Z</time>
      </trkpt>
      <trkpt lat="47.7384" lon="2.08013">
        <ele>112</ele>
        <time>2017-07-30T08:07:30.324Z</time>
      </trkpt>
      <trkpt lat="47.73844" lon="2.08024">
        <ele>112</ele>
        <time>2017-07-30T08:07:31.327Z</time>
      </trkpt>
      <trkpt lat="47.73846" lon="2.08029">
        <ele>112</ele>
        <time>2017-07-30T08:07:32.327Z</time>
      </trkpt>
      <trkpt lat="47.73846" lon="2.08029">
        <ele>112</ele>
        <time>2017-07-30T08:07:33.324Z</time>
      </trkpt>
      <trkpt lat="47.7385" lon="2.0804">
        <ele>112</ele>
        <time>2017-07-30T08:07:34.324Z</time>
      </trkpt>
      <trkpt lat="47.73852" lon="2.08045">
        <ele>112</ele>
        <time>2017-07-30T08:07:35.326Z</time>
      </trkpt>
      <trkpt lat="47.73852" lon="2.08045">
        <ele>112</ele>
        <time>2017-07-30T08:07:36.320Z</time>
      </trkpt>
      <trkpt lat="47.73858" lon="2.08054">
        <ele>111</ele>
        <time>2017-07-30T08:07:37.326Z</time>
      </trkpt>
      <trkpt lat="47.73858" lon="2.08054">
        <ele>111</ele>
        <time>2017-07-30T08:07:38.319Z</time>
      </trkpt>
      <trkpt lat="47.73866" lon="2.0806">
        <ele>112</ele>
        <time>2017-07-30T08:07:39.326Z</time>
      </trkpt>
      <trkpt lat="47.73866" lon="2.0806">
        <ele>112</ele>
        <time>2017-07-30T08:07:40.324Z</time>
      </trkpt>
      <trkpt lat="47.73873" lon="2.08064">
        <ele>112</ele>
        <time>2017-07-30T08:07:41.332Z</time>
      </trkpt>
      <trkpt lat="47.73873" lon="2.08064">
        <ele>112</ele>
        <time>2017-07-30T08:07:42.324Z</time>
      </trkpt>
      <trkpt lat="47.73881" lon="2.08069">
        <ele>112</ele>
        <time>2017-07-30T08:07:43.327Z</time>
      </trkpt>
      <trkpt lat="47.73881" lon="2.08069">
        <ele>112</ele>
        <time>2017-07-30T08:07:44.324Z</time>
      </trkpt>
      <trkpt lat="47.73888" lon="2.08073">
        <ele>112</ele>
        <time>2017-07-30T08:07:45.325Z</time>
      </trkpt>
      <trkpt lat="47.73888" lon="2.08073">
        <ele>112</ele>
        <time>2017-07-30T08:07:46.319Z</time>
      </trkpt>
      <trkpt lat="47.73894" lon="2.08077">
        <ele>112</ele>
        <time>2017-07-30T08:07:47.325Z</time>
      </trkpt>
      <trkpt lat="47.73897" lon="2.08079">
        <ele>112</ele>
        <time>2017-07-30T08:07:48.326Z</time>
      </trkpt>
      <trkpt lat="47.73901" lon="2.08081">
        <ele>112</ele>
        <time>2017-07-30T08:07:49.327Z</time>
      </trkpt>
      <trkpt lat="47.73901" lon="2.08081">
        <ele>112</ele>
        <time>2017-07-30T08:07:50.348Z</time>
      </trkpt>
      <trkpt lat="47.73906" lon="2.08086">
        <ele>112</ele>
        <time>2017-07-30T08:07:51.336Z</time>
      </trkpt>
      <trkpt lat="47.73909" lon="2.08089">
        <ele>112</ele>
        <time>2017-07-30T08:07:52.326Z</time>
      </trkpt>
      <trkpt lat="47.73909" lon="2.08089">
        <ele>112</ele>
        <time>2017-07-30T08:07:53.324Z</time>
      </trkpt>
      <trkpt lat="47.73913" lon="2.08098">
        <ele>112</ele>
        <time>2017-07-30T08:07:54.336Z</time>
      </trkpt>
      <trkpt lat="47.73913" lon="2.08098">
        <ele>112</ele>
        <time>2017-07-30T08:07:55.327Z</time>
      </trkpt>
      <trkpt lat="47.73915" lon="2.08106">
        <ele>111</ele>
        <time>2017-07-30T08:07:56.326Z</time>
      </trkpt>
      <trkpt lat="47.73916" lon="2.08111">
        <ele>112</ele>
        <time>2017-07-30T08:07:57.326Z</time>
      </trkpt>
      <trkpt lat="47.73916" lon="2.08111">
        <ele>112</ele>
        <time>2017-07-30T08:07:58.324Z</time>
      </trkpt>
      <trkpt lat="47.73916" lon="2.08121">
        <ele>112</ele>
        <time>2017-07-30T08:07:59.326Z</time>
      </trkpt>
      <trkpt lat="47.73916" lon="2.08126">
        <ele>112</ele>
        <time>2017-07-30T08:08:00.326Z</time>
      </trkpt>
      <trkpt lat="47.73915" lon="2.08133">
        <ele>112</ele>
        <time>2017-07-30T08:08:01.326Z</time>
      </trkpt>
      <trkpt lat="47.73915" lon="2.08133">
        <ele>112</ele>
        <time>2017-07-30T08:08:02.324Z</time>
      </trkpt>
      <trkpt lat="47.73915" lon="2.08145">
        <ele>111</ele>
        <time>2017-07-30T08:08:03.329Z</time>
      </trkpt>
      <trkpt lat="47.73916" lon="2.08151">
        <ele>112</ele>
        <time>2017-07-30T08:08:04.338Z</time>
      </trkpt>
      <trkpt lat="47.73916" lon="2.08151">
        <ele>112</ele>
        <time>2017-07-30T08:08:05.326Z</time>
      </trkpt>
      <trkpt lat="47.73918" lon="2.08161">
        <ele>112</ele>
        <time>2017-07-30T08:08:06.329Z</time>
      </trkpt>
      <trkpt lat="47.73919" lon="2.08167">
        <ele>111</ele>
        <time>2017-07-30T08:08:07.332Z</time>
      </trkpt>
      <trkpt lat="47.73919" lon="2.08167">
        <ele>111</ele>
        <time>2017-07-30T08:08:08.326Z</time>
      </trkpt>
      <trkpt lat="47.73921" lon="2.08176">
        <ele>111</ele>
        <time>2017-07-30T08:08:09.334Z</time>
      </trkpt>
      <trkpt lat="47.73921" lon="2.08176">
        <ele>111</ele>
        <time>2017-07-30T08:08:10.324Z</time>
      </trkpt>
      <trkpt lat="47.73923" lon="2.08186">
        <ele>111</ele>
        <time>2017-07-30T08:08:11.327Z</time>
      </trkpt>
      <trkpt lat="47.73924" lon="2.08191">
        <ele>111</ele>
        <time>2017-07-30T08:08:12.329Z</time>
      </trkpt>
      <trkpt lat="47.73925" lon="2.08194">
        <ele>110</ele>
        <time>2017-07-30T08:08:13.331Z</time>
      </trkpt>
      <trkpt lat="47.73925" lon="2.08194">
        <ele>110</ele>
        <time>2017-07-30T08:08:14.323Z</time>
      </trkpt>
      <trkpt lat="47.73928" lon="2.08201">
        <ele>110</ele>
        <time>2017-07-30T08:08:15.329Z</time>
      </trkpt>
      <trkpt lat="47.73928" lon="2.08201">
        <ele>110</ele>
        <time>2017-07-30T08:08:16.333Z</time>
      </trkpt>
      <trkpt lat="47.73932" lon="2.08208">
        <ele>110</ele>
        <time>2017-07-30T08:08:17.330Z</time>
      </trkpt>
      <trkpt lat="47.73932" lon="2.08208">
        <ele>110</ele>
        <time>2017-07-30T08:08:18.341Z</time>
      </trkpt>
      <trkpt lat="47.73935" lon="2.08217">
        <ele>110</ele>
        <time>2017-07-30T08:08:19.329Z</time>
      </trkpt>
      <trkpt lat="47.73935" lon="2.08217">
        <ele>110</ele>
        <time>2017-07-30T08:08:20.324Z</time>
      </trkpt>
      <trkpt lat="47.73933" lon="2.08226">
        <ele>110</ele>
        <time>2017-07-30T08:08:21.330Z</time>
      </trkpt>
      <trkpt lat="47.73932" lon="2.0823">
        <ele>110</ele>
        <time>2017-07-30T08:08:22.326Z</time>
      </trkpt>
      <trkpt lat="47.73932" lon="2.0823">
        <ele>110</ele>
        <time>2017-07-30T08:08:23.320Z</time>
      </trkpt>
      <trkpt lat="47.7393" lon="2.08241">
        <ele>109</ele>
        <time>2017-07-30T08:08:24.348Z</time>
      </trkpt>
      <trkpt lat="47.73929" lon="2.08247">
        <ele>109</ele>
        <time>2017-07-30T08:08:25.328Z</time>
      </trkpt>
      <trkpt lat="47.73929" lon="2.08247">
        <ele>109</ele>
        <time>2017-07-30T08:08:26.324Z</time>
      </trkpt>
      <trkpt lat="47.73928" lon="2.08258">
        <ele>110</ele>
        <time>2017-07-30T08:08:27.326Z</time>
      </trkpt>
      <trkpt lat="47.73928" lon="2.08258">
        <ele>110</ele>
        <time>2017-07-30T08:08:28.324Z</time>
      </trkpt>
      <trkpt lat="47.73928" lon="2.0827">
        <ele>110</ele>
        <time>2017-07-30T08:08:29.324Z</time>
      </trkpt>
      <trkpt lat="47.73928" lon="2.0827">
        <ele>110</ele>
        <time>2017-07-30T08:08:30.320Z</time>
      </trkpt>
      <trkpt lat="47.73928" lon="2.08281">
        <ele>110</ele>
        <time>2017-07-30T08:08:31.327Z</time>
      </trkpt>
      <trkpt lat="47.73928" lon="2.08281">
        <ele>110</ele>
        <time>2017-07-30T08:08:32.324Z</time>
      </trkpt>
      <trkpt lat="47.73927" lon="2.08292">
        <ele>110</ele>
        <time>2017-07-30T08:08:33.326Z</time>
      </trkpt>
      <trkpt lat="47.73927" lon="2.08292">
        <ele>110</ele>
        <time>2017-07-30T08:08:34.324Z</time>
      </trkpt>
      <trkpt lat="47.73927" lon="2.08304">
        <ele>110</ele>
        <time>2017-07-30T08:08:35.326Z</time>
      </trkpt>
      <trkpt lat="47.73927" lon="2.08304">
        <ele>110</ele>
        <time>2017-07-30T08:08:36.325Z</time>
      </trkpt>
      <trkpt lat="47.73927" lon="2.08315">
        <ele>111</ele>
        <time>2017-07-30T08:08:37.326Z</time>
      </trkpt>
      <trkpt lat="47.73927" lon="2.08315">
        <ele>111</ele>
        <time>2017-07-30T08:08:38.324Z</time>
      </trkpt>
      <trkpt lat="47.73926" lon="2.08327">
        <ele>111</ele>
        <time>2017-07-30T08:08:39.326Z</time>
      </trkpt>
      <trkpt lat="47.73926" lon="2.08327">
        <ele>111</ele>
        <time>2017-07-30T08:08:40.324Z</time>
      </trkpt>
      <trkpt lat="47.73926" lon="2.08339">
        <ele>111</ele>
        <time>2017-07-30T08:08:41.325Z</time>
      </trkpt>
      <trkpt lat="47.73926" lon="2.08339">
        <ele>111</ele>
        <time>2017-07-30T08:08:42.325Z</time>
      </trkpt>
      <trkpt lat="47.73927" lon="2.08351">
        <ele>111</ele>
        <time>2017-07-30T08:08:43.326Z</time>
      </trkpt>
      <trkpt lat="47.73927" lon="2.08351">
        <ele>111</ele>
        <time>2017-07-30T08:08:44.326Z</time>
      </trkpt>
      <trkpt lat="47.73928" lon="2.08361">
        <ele>111</ele>
        <time>2017-07-30T08:08:45.325Z</time>
      </trkpt>
      <trkpt lat="47.73928" lon="2.08361">
        <ele>111</ele>
        <time>2017-07-30T08:08:46.324Z</time>
      </trkpt>
      <trkpt lat="47.73929" lon="2.08368">
        <ele>111</ele>
        <time>2017-07-30T08:08:47.326Z</time>
      </trkpt>
      <trkpt lat="47.73929" lon="2.08368">
        <ele>111</ele>
        <time>2017-07-30T08:08:48.325Z</time>
      </trkpt>
      <trkpt lat="47.73931" lon="2.08374">
        <ele>111</ele>
        <time>2017-07-30T08:08:49.327Z</time>
      </trkpt>
      <trkpt lat="47.73931" lon="2.08374">
        <ele>111</ele>
        <time>2017-07-30T08:08:50.342Z</time>
      </trkpt>
      <trkpt lat="47.73933" lon="2.08381">
        <ele>112</ele>
        <time>2017-07-30T08:08:51.332Z</time>
      </trkpt>
      <trkpt lat="47.73934" lon="2.08386">
        <ele>112</ele>
        <time>2017-07-30T08:08:52.329Z</time>
      </trkpt>
      <trkpt lat="47.73934" lon="2.08386">
        <ele>112</ele>
        <time>2017-07-30T08:08:53.324Z</time>
      </trkpt>
      <trkpt lat="47.73936" lon="2.08394">
        <ele>111</ele>
        <time>2017-07-30T08:08:54.342Z</time>
      </trkpt>
      <trkpt lat="47.73937" lon="2.08398">
        <ele>111</ele>
        <time>2017-07-30T08:08:55.333Z</time>
      </trkpt>
      <trkpt lat="47.73937" lon="2.08398">
        <ele>111</ele>
        <time>2017-07-30T08:08:56.326Z</time>
      </trkpt>
      <trkpt lat="47.7394" lon="2.08407">
        <ele>111</ele>
        <time>2017-07-30T08:08:57.328Z</time>
      </trkpt>
      <trkpt lat="47.7394" lon="2.08407">
        <ele>111</ele>
        <time>2017-07-30T08:08:58.320Z</time>
      </trkpt>
      <trkpt lat="47.73942" lon="2.08417">
        <ele>111</ele>
        <time>2017-07-30T08:08:59.328Z</time>
      </trkpt>
      <trkpt lat="47.73944" lon="2.08421">
        <ele>112</ele>
        <time>2017-07-30T08:09:00.330Z</time>
      </trkpt>
      <trkpt lat="47.73945" lon="2.08426">
        <ele>112</ele>
        <time>2017-07-30T08:09:01.333Z</time>
      </trkpt>
      <trkpt lat="47.73945" lon="2.08426">
        <ele>112</ele>
        <time>2017-07-30T08:09:02.324Z</time>
      </trkpt>
      <trkpt lat="47.73946" lon="2.08434">
        <ele>112</ele>
        <time>2017-07-30T08:09:03.330Z</time>
      </trkpt>
      <trkpt lat="47.73946" lon="2.08434">
        <ele>112</ele>
        <time>2017-07-30T08:09:04.334Z</time>
      </trkpt>
      <trkpt lat="47.73948" lon="2.08442">
        <ele>112</ele>
        <time>2017-07-30T08:09:05.329Z</time>
      </trkpt>
      <trkpt lat="47.73949" lon="2.08445">
        <ele>112</ele>
        <time>2017-07-30T08:09:06.329Z</time>
      </trkpt>
      <trkpt lat="47.73951" lon="2.08448">
        <ele>112</ele>
        <time>2017-07-30T08:09:07.332Z</time>
      </trkpt>
      <trkpt lat="47.73951" lon="2.08448">
        <ele>112</ele>
        <time>2017-07-30T08:09:08.326Z</time>
      </trkpt>
      <trkpt lat="47.73954" lon="2.08456">
        <ele>112</ele>
        <time>2017-07-30T08:09:09.326Z</time>
      </trkpt>
      <trkpt lat="47.73954" lon="2.08456">
        <ele>112</ele>
        <time>2017-07-30T08:09:10.324Z</time>
      </trkpt>
      <trkpt lat="47.73959" lon="2.08463">
        <ele>112</ele>
        <time>2017-07-30T08:09:11.325Z</time>
      </trkpt>
      <trkpt lat="47.73959" lon="2.08463">
        <ele>112</ele>
        <time>2017-07-30T08:09:12.325Z</time>
      </trkpt>
      <trkpt lat="47.73961" lon="2.08472">
        <ele>112</ele>
        <time>2017-07-30T08:09:13.327Z</time>
      </trkpt>
      <trkpt lat="47.73961" lon="2.08472">
        <ele>112</ele>
        <time>2017-07-30T08:09:14.324Z</time>
      </trkpt>
      <trkpt lat="47.73963" lon="2.0848">
        <ele>112</ele>
        <time>2017-07-30T08:09:15.325Z</time>
      </trkpt>
      <trkpt lat="47.73963" lon="2.0848">
        <ele>112</ele>
        <time>2017-07-30T08:09:16.325Z</time>
      </trkpt>
      <trkpt lat="47.73966" lon="2.08488">
        <ele>112</ele>
        <time>2017-07-30T08:09:17.327Z</time>
      </trkpt>
      <trkpt lat="47.73966" lon="2.08488">
        <ele>112</ele>
        <time>2017-07-30T08:09:18.335Z</time>
      </trkpt>
      <trkpt lat="47.7397" lon="2.08499">
        <ele>112</ele>
        <time>2017-07-30T08:09:19.327Z</time>
      </trkpt>
      <trkpt lat="47.73973" lon="2.08504">
        <ele>111</ele>
        <time>2017-07-30T08:09:20.326Z</time>
      </trkpt>
      <trkpt lat="47.73973" lon="2.08504">
        <ele>111</ele>
        <time>2017-07-30T08:09:21.324Z</time>
      </trkpt>
      <trkpt lat="47.73977" lon="2.08514">
        <ele>111</ele>
        <time>2017-07-30T08:09:22.326Z</time>
      </trkpt>
      <trkpt lat="47.73977" lon="2.08514">
        <ele>111</ele>
        <time>2017-07-30T08:09:23.324Z</time>
      </trkpt>
      <trkpt lat="47.73979" lon="2.08524">
        <ele>111</ele>
        <time>2017-07-30T08:09:24.326Z</time>
      </trkpt>
      <trkpt lat="47.73979" lon="2.08524">
        <ele>111</ele>
        <time>2017-07-30T08:09:25.332Z</time>
      </trkpt>
      <trkpt lat="47.73982" lon="2.08535">
        <ele>111</ele>
        <time>2017-07-30T08:09:26.326Z</time>
      </trkpt>
      <trkpt lat="47.73982" lon="2.08535">
        <ele>111</ele>
        <time>2017-07-30T08:09:27.324Z</time>
      </trkpt>
      <trkpt lat="47.73985" lon="2.08545">
        <ele>110</ele>
        <time>2017-07-30T08:09:28.326Z</time>
      </trkpt>
      <trkpt lat="47.73985" lon="2.08545">
        <ele>110</ele>
        <time>2017-07-30T08:09:29.324Z</time>
      </trkpt>
      <trkpt lat="47.73987" lon="2.08557">
        <ele>110</ele>
        <time>2017-07-30T08:09:30.327Z</time>
      </trkpt>
      <trkpt lat="47.73987" lon="2.08557">
        <ele>110</ele>
        <time>2017-07-30T08:09:31.324Z</time>
      </trkpt>
      <trkpt lat="47.73992" lon="2.08566">
        <ele>109</ele>
        <time>2017-07-30T08:09:32.327Z</time>
      </trkpt>
      <trkpt lat="47.73994" lon="2.08571">
        <ele>109</ele>
        <time>2017-07-30T08:09:33.327Z</time>
      </trkpt>
      <trkpt lat="47.73994" lon="2.08571">
        <ele>109</ele>
        <time>2017-07-30T08:09:34.325Z</time>
      </trkpt>
      <trkpt lat="47.73995" lon="2.08583">
        <ele>109</ele>
        <time>2017-07-30T08:09:35.325Z</time>
      </trkpt>
      <trkpt lat="47.73995" lon="2.08583">
        <ele>109</ele>
        <time>2017-07-30T08:09:36.325Z</time>
      </trkpt>
      <trkpt lat="47.73996" lon="2.08594">
        <ele>108</ele>
        <time>2017-07-30T08:09:37.320Z</time>
      </trkpt>
      <trkpt lat="47.73998" lon="2.08599">
        <ele>108</ele>
        <time>2017-07-30T08:09:38.326Z</time>
      </trkpt>
      <trkpt lat="47.73999" lon="2.08605">
        <ele>108</ele>
        <time>2017-07-30T08:09:39.326Z</time>
      </trkpt>
      <trkpt lat="47.73999" lon="2.08605">
        <ele>108</ele>
        <time>2017-07-30T08:09:40.324Z</time>
      </trkpt>
      <trkpt lat="47.74001" lon="2.08616">
        <ele>108</ele>
        <time>2017-07-30T08:09:41.326Z</time>
      </trkpt>
      <trkpt lat="47.74004" lon="2.08621">
        <ele>108</ele>
        <time>2017-07-30T08:09:42.327Z</time>
      </trkpt>
      <trkpt lat="47.74006" lon="2.08626">
        <ele>108</ele>
        <time>2017-07-30T08:09:43.328Z</time>
      </trkpt>
      <trkpt lat="47.74006" lon="2.08626">
        <ele>108</ele>
        <time>2017-07-30T08:09:44.325Z</time>
      </trkpt>
      <trkpt lat="47.7401" lon="2.08634">
        <ele>107</ele>
        <time>2017-07-30T08:09:45.330Z</time>
      </trkpt>
      <trkpt lat="47.7401" lon="2.08634">
        <ele>107</ele>
        <time>2017-07-30T08:09:46.323Z</time>
      </trkpt>
      <trkpt lat="47.74013" lon="2.08643">
        <ele>107</ele>
        <time>2017-07-30T08:09:47.329Z</time>
      </trkpt>
      <trkpt lat="47.74016" lon="2.08647">
        <ele>107</ele>
        <time>2017-07-30T08:09:48.330Z</time>
      </trkpt>
      <trkpt lat="47.74016" lon="2.08647">
        <ele>107</ele>
        <time>2017-07-30T08:09:49.323Z</time>
      </trkpt>
      <trkpt lat="47.7402" lon="2.08655">
        <ele>107</ele>
        <time>2017-07-30T08:09:50.326Z</time>
      </trkpt>
      <trkpt lat="47.74023" lon="2.08658">
        <ele>107</ele>
        <time>2017-07-30T08:09:51.330Z</time>
      </trkpt>
      <trkpt lat="47.74023" lon="2.08658">
        <ele>107</ele>
        <time>2017-07-30T08:09:52.324Z</time>
      </trkpt>
      <trkpt lat="47.74031" lon="2.0866">
        <ele>107</ele>
        <time>2017-07-30T08:09:53.329Z</time>
      </trkpt>
      <trkpt lat="47.74034" lon="2.08661">
        <ele>107</ele>
        <time>2017-07-30T08:09:54.333Z</time>
      </trkpt>
      <trkpt lat="47.74034" lon="2.08661">
        <ele>107</ele>
        <time>2017-07-30T08:09:55.326Z</time>
      </trkpt>
      <trkpt lat="47.74041" lon="2.08661">
        <ele>107</ele>
        <time>2017-07-30T08:09:56.329Z</time>
      </trkpt>
      <trkpt lat="47.74045" lon="2.08661">
        <ele>108</ele>
        <time>2017-07-30T08:09:57.330Z</time>
      </trkpt>
      <trkpt lat="47.74045" lon="2.08661">
        <ele>108</ele>
        <time>2017-07-30T08:09:58.327Z</time>
      </trkpt>
      <trkpt lat="47.74051" lon="2.08662">
        <ele>107</ele>
        <time>2017-07-30T08:09:59.329Z</time>
      </trkpt>
      <trkpt lat="47.74051" lon="2.08662">
        <ele>107</ele>
        <time>2017-07-30T08:10:00.329Z</time>
      </trkpt>
      <trkpt lat="47.74058" lon="2.08663">
        <ele>108</ele>
        <time>2017-07-30T08:10:01.331Z</time>
      </trkpt>
      <trkpt lat="47.74058" lon="2.08663">
        <ele>108</ele>
        <time>2017-07-30T08:10:02.325Z</time>
      </trkpt>
      <trkpt lat="47.74066" lon="2.08662">
        <ele>109</ele>
        <time>2017-07-30T08:10:03.325Z</time>
      </trkpt>
      <trkpt lat="47.74066" lon="2.08662">
        <ele>109</ele>
        <time>2017-07-30T08:10:04.335Z</time>
      </trkpt>
      <trkpt lat="47.74073" lon="2.08663">
        <ele>110</ele>
        <time>2017-07-30T08:10:05.325Z</time>
      </trkpt>
      <trkpt lat="47.74073" lon="2.08663">
        <ele>110</ele>
        <time>2017-07-30T08:10:06.325Z</time>
      </trkpt>
      <trkpt lat="47.74082" lon="2.08662">
        <ele>111</ele>
        <time>2017-07-30T08:10:07.328Z</time>
      </trkpt>
      <trkpt lat="47.74082" lon="2.08662">
        <ele>111</ele>
        <time>2017-07-30T08:10:08.324Z</time>
      </trkpt>
      <trkpt lat="47.7409" lon="2.08659">
        <ele>113</ele>
        <time>2017-07-30T08:10:09.326Z</time>
      </trkpt>
      <trkpt lat="47.7409" lon="2.08659">
        <ele>113</ele>
        <time>2017-07-30T08:10:10.326Z</time>
      </trkpt>
      <trkpt lat="47.74097" lon="2.08658">
        <ele>113</ele>
        <time>2017-07-30T08:10:11.325Z</time>
      </trkpt>
      <trkpt lat="47.74102" lon="2.08658">
        <ele>114</ele>
        <time>2017-07-30T08:10:12.327Z</time>
      </trkpt>
      <trkpt lat="47.74102" lon="2.08658">
        <ele>114</ele>
        <time>2017-07-30T08:10:13.326Z</time>
      </trkpt>
      <trkpt lat="47.74109" lon="2.08657">
        <ele>115</ele>
        <time>2017-07-30T08:10:14.326Z</time>
      </trkpt>
      <trkpt lat="47.74112" lon="2.08657">
        <ele>116</ele>
        <time>2017-07-30T08:10:15.325Z</time>
      </trkpt>
      <trkpt lat="47.74116" lon="2.08656">
        <ele>116</ele>
        <time>2017-07-30T08:10:16.326Z</time>
      </trkpt>
      <trkpt lat="47.74116" lon="2.08656">
        <ele>116</ele>
        <time>2017-07-30T08:10:17.328Z</time>
      </trkpt>
      <trkpt lat="47.74122" lon="2.08657">
        <ele>116</ele>
        <time>2017-07-30T08:10:18.327Z</time>
      </trkpt>
      <trkpt lat="47.74124" lon="2.08657">
        <ele>117</ele>
        <time>2017-07-30T08:10:19.325Z</time>
      </trkpt>
      <trkpt lat="47.74124" lon="2.08657">
        <ele>117</ele>
        <time>2017-07-30T08:10:20.324Z</time>
      </trkpt>
      <trkpt lat="47.74131" lon="2.08661">
        <ele>117</ele>
        <time>2017-07-30T08:10:21.326Z</time>
      </trkpt>
      <trkpt lat="47.74131" lon="2.08661">
        <ele>117</ele>
        <time>2017-07-30T08:10:22.324Z</time>
      </trkpt>
      <trkpt lat="47.74135" lon="2.08672">
        <ele>117</ele>
        <time>2017-07-30T08:10:23.327Z</time>
      </trkpt>
      <trkpt lat="47.74135" lon="2.08672">
        <ele>117</ele>
        <time>2017-07-30T08:10:24.343Z</time>
      </trkpt>
      <trkpt lat="47.74136" lon="2.08684">
        <ele>117</ele>
        <time>2017-07-30T08:10:25.334Z</time>
      </trkpt>
      <trkpt lat="47.74136" lon="2.08684">
        <ele>117</ele>
        <time>2017-07-30T08:10:26.324Z</time>
      </trkpt>
      <trkpt lat="47.74137" lon="2.08696">
        <ele>116</ele>
        <time>2017-07-30T08:10:27.327Z</time>
      </trkpt>
      <trkpt lat="47.74137" lon="2.08696">
        <ele>116</ele>
        <time>2017-07-30T08:10:28.332Z</time>
      </trkpt>
      <trkpt lat="47.74138" lon="2.08707">
        <ele>116</ele>
        <time>2017-07-30T08:10:29.327Z</time>
      </trkpt>
      <trkpt lat="47.74137" lon="2.08711">
        <ele>115</ele>
        <time>2017-07-30T08:10:30.327Z</time>
      </trkpt>
      <trkpt lat="47.74138" lon="2.08715">
        <ele>115</ele>
        <time>2017-07-30T08:10:31.327Z</time>
      </trkpt>
      <trkpt lat="47.74138" lon="2.08715">
        <ele>115</ele>
        <time>2017-07-30T08:10:32.324Z</time>
      </trkpt>
      <trkpt lat="47.74139" lon="2.08725">
        <ele>115</ele>
        <time>2017-07-30T08:10:33.327Z</time>
      </trkpt>
      <trkpt lat="47.74139" lon="2.08725">
        <ele>115</ele>
        <time>2017-07-30T08:10:34.323Z</time>
      </trkpt>
      <trkpt lat="47.74138" lon="2.08734">
        <ele>115</ele>
        <time>2017-07-30T08:10:35.326Z</time>
      </trkpt>
      <trkpt lat="47.74138" lon="2.08734">
        <ele>115</ele>
        <time>2017-07-30T08:10:36.325Z</time>
      </trkpt>
      <trkpt lat="47.74136" lon="2.08743">
        <ele>114</ele>
        <time>2017-07-30T08:10:37.328Z</time>
      </trkpt>
      <trkpt lat="47.74136" lon="2.08743">
        <ele>114</ele>
        <time>2017-07-30T08:10:38.327Z</time>
      </trkpt>
      <trkpt lat="47.74134" lon="2.08752">
        <ele>114</ele>
        <time>2017-07-30T08:10:39.329Z</time>
      </trkpt>
      <trkpt lat="47.74134" lon="2.08757">
        <ele>113</ele>
        <time>2017-07-30T08:10:40.330Z</time>
      </trkpt>
      <trkpt lat="47.74131" lon="2.08762">
        <ele>113</ele>
        <time>2017-07-30T08:10:41.329Z</time>
      </trkpt>
      <trkpt lat="47.74131" lon="2.08762">
        <ele>113</ele>
        <time>2017-07-30T08:10:42.328Z</time>
      </trkpt>
      <trkpt lat="47.74127" lon="2.08771">
        <ele>113</ele>
        <time>2017-07-30T08:10:43.328Z</time>
      </trkpt>
      <trkpt lat="47.74127" lon="2.08771">
        <ele>113</ele>
        <time>2017-07-30T08:10:44.324Z</time>
      </trkpt>
      <trkpt lat="47.74124" lon="2.08779">
        <ele>112</ele>
        <time>2017-07-30T08:10:45.330Z</time>
      </trkpt>
      <trkpt lat="47.74124" lon="2.08779">
        <ele>112</ele>
        <time>2017-07-30T08:10:46.326Z</time>
      </trkpt>
      <trkpt lat="47.74122" lon="2.0879">
        <ele>112</ele>
        <time>2017-07-30T08:10:47.329Z</time>
      </trkpt>
      <trkpt lat="47.7412" lon="2.08795">
        <ele>112</ele>
        <time>2017-07-30T08:10:48.321Z</time>
      </trkpt>
      <trkpt lat="47.7412" lon="2.08795">
        <ele>112</ele>
        <time>2017-07-30T08:10:49.329Z</time>
      </trkpt>
      <trkpt lat="47.74118" lon="2.08806">
        <ele>111</ele>
        <time>2017-07-30T08:10:50.342Z</time>
      </trkpt>
      <trkpt lat="47.74117" lon="2.08812">
        <ele>111</ele>
        <time>2017-07-30T08:10:51.335Z</time>
      </trkpt>
      <trkpt lat="47.74117" lon="2.08812">
        <ele>111</ele>
        <time>2017-07-30T08:10:52.326Z</time>
      </trkpt>
      <trkpt lat="47.74113" lon="2.08825">
        <ele>110</ele>
        <time>2017-07-30T08:10:53.327Z</time>
      </trkpt>
      <trkpt lat="47.74113" lon="2.08825">
        <ele>110</ele>
        <time>2017-07-30T08:10:54.350Z</time>
      </trkpt>
      <trkpt lat="47.74111" lon="2.08836">
        <ele>109</ele>
        <time>2017-07-30T08:10:55.339Z</time>
      </trkpt>
      <trkpt lat="47.74111" lon="2.08836">
        <ele>109</ele>
        <time>2017-07-30T08:10:56.327Z</time>
      </trkpt>
      <trkpt lat="47.74109" lon="2.08849">
        <ele>108</ele>
        <time>2017-07-30T08:10:57.327Z</time>
      </trkpt>
      <trkpt lat="47.74109" lon="2.08849">
        <ele>108</ele>
        <time>2017-07-30T08:10:58.324Z</time>
      </trkpt>
      <trkpt lat="47.7411" lon="2.0886">
        <ele>107</ele>
        <time>2017-07-30T08:10:59.326Z</time>
      </trkpt>
      <trkpt lat="47.7411" lon="2.0886">
        <ele>107</ele>
        <time>2017-07-30T08:11:00.325Z</time>
      </trkpt>
      <trkpt lat="47.74113" lon="2.08871">
        <ele>107</ele>
        <time>2017-07-30T08:11:01.327Z</time>
      </trkpt>
      <trkpt lat="47.74113" lon="2.08871">
        <ele>107</ele>
        <time>2017-07-30T08:11:02.324Z</time>
      </trkpt>
      <trkpt lat="47.74114" lon="2.08881">
        <ele>106</ele>
        <time>2017-07-30T08:11:03.325Z</time>
      </trkpt>
      <trkpt lat="47.74114" lon="2.08881">
        <ele>106</ele>
        <time>2017-07-30T08:11:04.320Z</time>
      </trkpt>
      <trkpt lat="47.74115" lon="2.08894">
        <ele>107</ele>
        <time>2017-07-30T08:11:05.326Z</time>
      </trkpt>
      <trkpt lat="47.74115" lon="2.08894">
        <ele>107</ele>
        <time>2017-07-30T08:11:06.325Z</time>
      </trkpt>
      <trkpt lat="47.74116" lon="2.08906">
        <ele>106</ele>
        <time>2017-07-30T08:11:07.327Z</time>
      </trkpt>
      <trkpt lat="47.74116" lon="2.08906">
        <ele>106</ele>
        <time>2017-07-30T08:11:08.324Z</time>
      </trkpt>
      <trkpt lat="47.74116" lon="2.08916">
        <ele>106</ele>
        <time>2017-07-30T08:11:09.327Z</time>
      </trkpt>
      <trkpt lat="47.74117" lon="2.08919">
        <ele>106</ele>
        <time>2017-07-30T08:11:10.327Z</time>
      </trkpt>
      <trkpt lat="47.74117" lon="2.08919">
        <ele>106</ele>
        <time>2017-07-30T08:11:11.324Z</time>
      </trkpt>
      <trkpt lat="47.74118" lon="2.08927">
        <ele>105</ele>
        <time>2017-07-30T08:11:12.326Z</time>
      </trkpt>
      <trkpt lat="47.74118" lon="2.0893">
        <ele>105</ele>
        <time>2017-07-30T08:11:13.327Z</time>
      </trkpt>
      <trkpt lat="47.74118" lon="2.0893">
        <ele>105</ele>
        <time>2017-07-30T08:11:14.324Z</time>
      </trkpt>
      <trkpt lat="47.74117" lon="2.08936">
        <ele>105</ele>
        <time>2017-07-30T08:11:15.331Z</time>
      </trkpt>
      <trkpt lat="47.74117" lon="2.0894">
        <ele>105</ele>
        <time>2017-07-30T08:11:16.326Z</time>
      </trkpt>
      <trkpt lat="47.74117" lon="2.0894">
        <ele>105</ele>
        <time>2017-07-30T08:11:17.324Z</time>
      </trkpt>
      <trkpt lat="47.74118" lon="2.0895">
        <ele>106</ele>
        <time>2017-07-30T08:11:18.326Z</time>
      </trkpt>
      <trkpt lat="47.74119" lon="2.08956">
        <ele>106</ele>
        <time>2017-07-30T08:11:19.327Z</time>
      </trkpt>
      <trkpt lat="47.7412" lon="2.08961">
        <ele>107</ele>
        <time>2017-07-30T08:11:20.325Z</time>
      </trkpt>
      <trkpt lat="47.7412" lon="2.08966">
        <ele>107</ele>
        <time>2017-07-30T08:11:21.327Z</time>
      </trkpt>
      <trkpt lat="47.7412" lon="2.08966">
        <ele>107</ele>
        <time>2017-07-30T08:11:22.336Z</time>
      </trkpt>
      <trkpt lat="47.74123" lon="2.08974">
        <ele>108</ele>
        <time>2017-07-30T08:11:23.327Z</time>
      </trkpt>
      <trkpt lat="47.74123" lon="2.08974">
        <ele>108</ele>
        <time>2017-07-30T08:11:24.326Z</time>
      </trkpt>
      <trkpt lat="47.74126" lon="2.08981">
        <ele>108</ele>
        <time>2017-07-30T08:11:25.328Z</time>
      </trkpt>
      <trkpt lat="47.74126" lon="2.08981">
        <ele>108</ele>
        <time>2017-07-30T08:11:26.324Z</time>
      </trkpt>
      <trkpt lat="47.74129" lon="2.08987">
        <ele>108</ele>
        <time>2017-07-30T08:11:27.331Z</time>
      </trkpt>
      <trkpt lat="47.74129" lon="2.08987">
        <ele>108</ele>
        <time>2017-07-30T08:11:28.324Z</time>
      </trkpt>
      <trkpt lat="47.74131" lon="2.08992">
        <ele>107</ele>
        <time>2017-07-30T08:11:29.327Z</time>
      </trkpt>
      <trkpt lat="47.74131" lon="2.08992">
        <ele>107</ele>
        <time>2017-07-30T08:11:30.325Z</time>
      </trkpt>
      <trkpt lat="47.74133" lon="2.08997">
        <ele>108</ele>
        <time>2017-07-30T08:11:31.327Z</time>
      </trkpt>
      <trkpt lat="47.74133" lon="2.08997">
        <ele>108</ele>
        <time>2017-07-30T08:11:32.324Z</time>
      </trkpt>
      <trkpt lat="47.74134" lon="2.09002">
        <ele>108</ele>
        <time>2017-07-30T08:11:33.329Z</time>
      </trkpt>
      <trkpt lat="47.74134" lon="2.09002">
        <ele>108</ele>
        <time>2017-07-30T08:11:34.326Z</time>
      </trkpt>
      <trkpt lat="47.74137" lon="2.09008">
        <ele>109</ele>
        <time>2017-07-30T08:11:35.330Z</time>
      </trkpt>
      <trkpt lat="47.74137" lon="2.09008">
        <ele>109</ele>
        <time>2017-07-30T08:11:36.326Z</time>
      </trkpt>
      <trkpt lat="47.74137" lon="2.09018">
        <ele>109</ele>
        <time>2017-07-30T08:11:37.333Z</time>
      </trkpt>
      <trkpt lat="47.74137" lon="2.09018">
        <ele>109</ele>
        <time>2017-07-30T08:11:38.329Z</time>
      </trkpt>
      <trkpt lat="47.74138" lon="2.09028">
        <ele>110</ele>
        <time>2017-07-30T08:11:39.330Z</time>
      </trkpt>
      <trkpt lat="47.74138" lon="2.09028">
        <ele>110</ele>
        <time>2017-07-30T08:11:40.323Z</time>
      </trkpt>
      <trkpt lat="47.74139" lon="2.09037">
        <ele>111</ele>
        <time>2017-07-30T08:11:41.329Z</time>
      </trkpt>
      <trkpt lat="47.74139" lon="2.09037">
        <ele>111</ele>
        <time>2017-07-30T08:11:42.328Z</time>
      </trkpt>
      <trkpt lat="47.74141" lon="2.09046">
        <ele>111</ele>
        <time>2017-07-30T08:11:43.332Z</time>
      </trkpt>
      <trkpt lat="47.74141" lon="2.09046">
        <ele>111</ele>
        <time>2017-07-30T08:11:44.327Z</time>
      </trkpt>
      <trkpt lat="47.74144" lon="2.09054">
        <ele>112</ele>
        <time>2017-07-30T08:11:45.330Z</time>
      </trkpt>
      <trkpt lat="47.74144" lon="2.09054">
        <ele>112</ele>
        <time>2017-07-30T08:11:46.326Z</time>
      </trkpt>
      <trkpt lat="47.74145" lon="2.09062">
        <ele>112</ele>
        <time>2017-07-30T08:11:47.327Z</time>
      </trkpt>
      <trkpt lat="47.74145" lon="2.09062">
        <ele>112</ele>
        <time>2017-07-30T08:11:48.326Z</time>
      </trkpt>
      <trkpt lat="47.74147" lon="2.0907">
        <ele>113</ele>
        <time>2017-07-30T08:11:49.328Z</time>
      </trkpt>
      <trkpt lat="47.74147" lon="2.0907">
        <ele>113</ele>
        <time>2017-07-30T08:11:50.337Z</time>
      </trkpt>
      <trkpt lat="47.74148" lon="2.09078">
        <ele>114</ele>
        <time>2017-07-30T08:11:51.326Z</time>
      </trkpt>
      <trkpt lat="47.74148" lon="2.09082">
        <ele>114</ele>
        <time>2017-07-30T08:11:52.327Z</time>
      </trkpt>
      <trkpt lat="47.74148" lon="2.09088">
        <ele>114</ele>
        <time>2017-07-30T08:11:53.327Z</time>
      </trkpt>
      <trkpt lat="47.74148" lon="2.09088">
        <ele>114</ele>
        <time>2017-07-30T08:11:54.326Z</time>
      </trkpt>
      <trkpt lat="47.74148" lon="2.09103">
        <ele>115</ele>
        <time>2017-07-30T08:11:55.329Z</time>
      </trkpt>
      <trkpt lat="47.74148" lon="2.09103">
        <ele>115</ele>
        <time>2017-07-30T08:11:56.324Z</time>
      </trkpt>
      <trkpt lat="47.74148" lon="2.09114">
        <ele>116</ele>
        <time>2017-07-30T08:11:57.326Z</time>
      </trkpt>
      <trkpt lat="47.74148" lon="2.09114">
        <ele>116</ele>
        <time>2017-07-30T08:11:58.324Z</time>
      </trkpt>
      <trkpt lat="47.74151" lon="2.09125">
        <ele>116</ele>
        <time>2017-07-30T08:11:59.327Z</time>
      </trkpt>
      <trkpt lat="47.74153" lon="2.0913">
        <ele>117</ele>
        <time>2017-07-30T08:12:00.327Z</time>
      </trkpt>
      <trkpt lat="47.74155" lon="2.09135">
        <ele>117</ele>
        <time>2017-07-30T08:12:01.328Z</time>
      </trkpt>
      <trkpt lat="47.74155" lon="2.09135">
        <ele>117</ele>
        <time>2017-07-30T08:12:02.325Z</time>
      </trkpt>
      <trkpt lat="47.74158" lon="2.09145">
        <ele>118</ele>
        <time>2017-07-30T08:12:03.327Z</time>
      </trkpt>
      <trkpt lat="47.74158" lon="2.09145">
        <ele>118</ele>
        <time>2017-07-30T08:12:04.325Z</time>
      </trkpt>
      <trkpt lat="47.74163" lon="2.09155">
        <ele>118</ele>
        <time>2017-07-30T08:12:05.327Z</time>
      </trkpt>
      <trkpt lat="47.74167" lon="2.09161">
        <ele>118</ele>
        <time>2017-07-30T08:12:06.326Z</time>
      </trkpt>
      <trkpt lat="47.74169" lon="2.09166">
        <ele>118</ele>
        <time>2017-07-30T08:12:07.328Z</time>
      </trkpt>
      <trkpt lat="47.74169" lon="2.09166">
        <ele>118</ele>
        <time>2017-07-30T08:12:08.325Z</time>
      </trkpt>
      <trkpt lat="47.74172" lon="2.09176">
        <ele>119</ele>
        <time>2017-07-30T08:12:09.327Z</time>
      </trkpt>
      <trkpt lat="47.74172" lon="2.09176">
        <ele>119</ele>
        <time>2017-07-30T08:12:10.324Z</time>
      </trkpt>
      <trkpt lat="47.74173" lon="2.09188">
        <ele>119</ele>
        <time>2017-07-30T08:12:11.326Z</time>
      </trkpt>
      <trkpt lat="47.74173" lon="2.09188">
        <ele>119</ele>
        <time>2017-07-30T08:12:12.326Z</time>
      </trkpt>
      <trkpt lat="47.74174" lon="2.092">
        <ele>119</ele>
        <time>2017-07-30T08:12:13.328Z</time>
      </trkpt>
      <trkpt lat="47.74174" lon="2.092">
        <ele>119</ele>
        <time>2017-07-30T08:12:14.325Z</time>
      </trkpt>
      <trkpt lat="47.74176" lon="2.09211">
        <ele>120</ele>
        <time>2017-07-30T08:12:15.326Z</time>
      </trkpt>
      <trkpt lat="47.74177" lon="2.09216">
        <ele>120</ele>
        <time>2017-07-30T08:12:16.335Z</time>
      </trkpt>
      <trkpt lat="47.74177" lon="2.09216">
        <ele>120</ele>
        <time>2017-07-30T08:12:17.324Z</time>
      </trkpt>
      <trkpt lat="47.74179" lon="2.09226">
        <ele>120</ele>
        <time>2017-07-30T08:12:18.342Z</time>
      </trkpt>
      <trkpt lat="47.74179" lon="2.09226">
        <ele>120</ele>
        <time>2017-07-30T08:12:19.331Z</time>
      </trkpt>
      <trkpt lat="47.74184" lon="2.09238">
        <ele>121</ele>
        <time>2017-07-30T08:12:20.327Z</time>
      </trkpt>
      <trkpt lat="47.74184" lon="2.09238">
        <ele>121</ele>
        <time>2017-07-30T08:12:21.325Z</time>
      </trkpt>
      <trkpt lat="47.74189" lon="2.09249">
        <ele>121</ele>
        <time>2017-07-30T08:12:22.326Z</time>
      </trkpt>
      <trkpt lat="47.74191" lon="2.09255">
        <ele>121</ele>
        <time>2017-07-30T08:12:23.329Z</time>
      </trkpt>
      <trkpt lat="47.74191" lon="2.09255">
        <ele>121</ele>
        <time>2017-07-30T08:12:24.324Z</time>
      </trkpt>
      <trkpt lat="47.74196" lon="2.0927">
        <ele>121</ele>
        <time>2017-07-30T08:12:25.348Z</time>
      </trkpt>
      <trkpt lat="47.74196" lon="2.0927">
        <ele>121</ele>
        <time>2017-07-30T08:12:26.318Z</time>
      </trkpt>
      <trkpt lat="47.74202" lon="2.09286">
        <ele>121</ele>
        <time>2017-07-30T08:12:27.325Z</time>
      </trkpt>
      <trkpt lat="47.74204" lon="2.09293">
        <ele>121</ele>
        <time>2017-07-30T08:12:28.331Z</time>
      </trkpt>
      <trkpt lat="47.74204" lon="2.09293">
        <ele>121</ele>
        <time>2017-07-30T08:12:29.334Z</time>
      </trkpt>
      <trkpt lat="47.74207" lon="2.09306">
        <ele>120</ele>
        <time>2017-07-30T08:12:30.333Z</time>
      </trkpt>
      <trkpt lat="47.74207" lon="2.09306">
        <ele>120</ele>
        <time>2017-07-30T08:12:31.329Z</time>
      </trkpt>
      <trkpt lat="47.74209" lon="2.09319">
        <ele>120</ele>
        <time>2017-07-30T08:12:32.348Z</time>
      </trkpt>
      <trkpt lat="47.74209" lon="2.09319">
        <ele>120</ele>
        <time>2017-07-30T08:12:33.336Z</time>
      </trkpt>
      <trkpt lat="47.74211" lon="2.0933">
        <ele>120</ele>
        <time>2017-07-30T08:12:34.342Z</time>
      </trkpt>
      <trkpt lat="47.74211" lon="2.0933">
        <ele>120</ele>
        <time>2017-07-30T08:12:35.330Z</time>
      </trkpt>
      <trkpt lat="47.74212" lon="2.09341">
        <ele>120</ele>
        <time>2017-07-30T08:12:36.327Z</time>
      </trkpt>
      <trkpt lat="47.74213" lon="2.09346">
        <ele>120</ele>
        <time>2017-07-30T08:12:37.329Z</time>
      </trkpt>
      <trkpt lat="47.74213" lon="2.09346">
        <ele>120</ele>
        <time>2017-07-30T08:12:38.326Z</time>
      </trkpt>
      <trkpt lat="47.74214" lon="2.09355">
        <ele>120</ele>
        <time>2017-07-30T08:12:39.327Z</time>
      </trkpt>
      <trkpt lat="47.74214" lon="2.09355">
        <ele>120</ele>
        <time>2017-07-30T08:12:40.325Z</time>
      </trkpt>
      <trkpt lat="47.74213" lon="2.09365">
        <ele>120</ele>
        <time>2017-07-30T08:12:41.328Z</time>
      </trkpt>
      <trkpt lat="47.74213" lon="2.09365">
        <ele>120</ele>
        <time>2017-07-30T08:12:42.326Z</time>
      </trkpt>
      <trkpt lat="47.74218" lon="2.09376">
        <ele>120</ele>
        <time>2017-07-30T08:12:43.327Z</time>
      </trkpt>
      <trkpt lat="47.74218" lon="2.09376">
        <ele>120</ele>
        <time>2017-07-30T08:12:44.324Z</time>
      </trkpt>
      <trkpt lat="47.74222" lon="2.09388">
        <ele>119</ele>
        <time>2017-07-30T08:12:45.327Z</time>
      </trkpt>
      <trkpt lat="47.74222" lon="2.09388">
        <ele>119</ele>
        <time>2017-07-30T08:12:46.325Z</time>
      </trkpt>
      <trkpt lat="47.74224" lon="2.094">
        <ele>118</ele>
        <time>2017-07-30T08:12:47.326Z</time>
      </trkpt>
      <trkpt lat="47.74224" lon="2.094">
        <ele>118</ele>
        <time>2017-07-30T08:12:48.326Z</time>
      </trkpt>
      <trkpt lat="47.74226" lon="2.09413">
        <ele>117</ele>
        <time>2017-07-30T08:12:49.325Z</time>
      </trkpt>
      <trkpt lat="47.74226" lon="2.09413">
        <ele>117</ele>
        <time>2017-07-30T08:12:50.320Z</time>
      </trkpt>
      <trkpt lat="47.7423" lon="2.09423">
        <ele>116</ele>
        <time>2017-07-30T08:12:51.326Z</time>
      </trkpt>
      <trkpt lat="47.7423" lon="2.09423">
        <ele>116</ele>
        <time>2017-07-30T08:12:52.325Z</time>
      </trkpt>
      <trkpt lat="47.7423" lon="2.09434">
        <ele>116</ele>
        <time>2017-07-30T08:12:53.327Z</time>
      </trkpt>
      <trkpt lat="47.7423" lon="2.09434">
        <ele>116</ele>
        <time>2017-07-30T08:12:54.326Z</time>
      </trkpt>
      <trkpt lat="47.74229" lon="2.09445">
        <ele>114</ele>
        <time>2017-07-30T08:12:55.325Z</time>
      </trkpt>
      <trkpt lat="47.74229" lon="2.09445">
        <ele>114</ele>
        <time>2017-07-30T08:12:56.325Z</time>
      </trkpt>
      <trkpt lat="47.74226" lon="2.09459">
        <ele>114</ele>
        <time>2017-07-30T08:12:57.328Z</time>
      </trkpt>
      <trkpt lat="47.74226" lon="2.09459">
        <ele>114</ele>
        <time>2017-07-30T08:12:58.325Z</time>
      </trkpt>
      <trkpt lat="47.7422" lon="2.09471">
        <ele>115</ele>
        <time>2017-07-30T08:12:59.325Z</time>
      </trkpt>
      <trkpt lat="47.74218" lon="2.09475">
        <ele>115</ele>
        <time>2017-07-30T08:13:00.327Z</time>
      </trkpt>
      <trkpt lat="47.74217" lon="2.09479">
        <ele>115</ele>
        <time>2017-07-30T08:13:01.328Z</time>
      </trkpt>
      <trkpt lat="47.74217" lon="2.09479">
        <ele>115</ele>
        <time>2017-07-30T08:13:02.325Z</time>
      </trkpt>
      <trkpt lat="47.74215" lon="2.09489">
        <ele>115</ele>
        <time>2017-07-30T08:13:03.327Z</time>
      </trkpt>
      <trkpt lat="47.74215" lon="2.09489">
        <ele>115</ele>
        <time>2017-07-30T08:13:04.327Z</time>
      </trkpt>
      <trkpt lat="47.74214" lon="2.09502">
        <ele>114</ele>
        <time>2017-07-30T08:13:05.326Z</time>
      </trkpt>
      <trkpt lat="47.74213" lon="2.09509">
        <ele>114</ele>
        <time>2017-07-30T08:13:06.332Z</time>
      </trkpt>
      <trkpt lat="47.74213" lon="2.09515">
        <ele>114</ele>
        <time>2017-07-30T08:13:07.329Z</time>
      </trkpt>
      <trkpt lat="47.74213" lon="2.09515">
        <ele>114</ele>
        <time>2017-07-30T08:13:08.327Z</time>
      </trkpt>
      <trkpt lat="47.74211" lon="2.09527">
        <ele>113</ele>
        <time>2017-07-30T08:13:09.329Z</time>
      </trkpt>
      <trkpt lat="47.7421" lon="2.09534">
        <ele>113</ele>
        <time>2017-07-30T08:13:10.329Z</time>
      </trkpt>
      <trkpt lat="47.7421" lon="2.09534">
        <ele>113</ele>
        <time>2017-07-30T08:13:11.327Z</time>
      </trkpt>
      <trkpt lat="47.74209" lon="2.09546">
        <ele>112</ele>
        <time>2017-07-30T08:13:12.331Z</time>
      </trkpt>
      <trkpt lat="47.74209" lon="2.09546">
        <ele>112</ele>
        <time>2017-07-30T08:13:13.319Z</time>
      </trkpt>
      <trkpt lat="47.74209" lon="2.09556">
        <ele>111</ele>
        <time>2017-07-30T08:13:14.328Z</time>
      </trkpt>
      <trkpt lat="47.74211" lon="2.09561">
        <ele>111</ele>
        <time>2017-07-30T08:13:15.330Z</time>
      </trkpt>
      <trkpt lat="47.74211" lon="2.09561">
        <ele>111</ele>
        <time>2017-07-30T08:13:16.329Z</time>
      </trkpt>
      <trkpt lat="47.74213" lon="2.09571">
        <ele>111</ele>
        <time>2017-07-30T08:13:17.325Z</time>
      </trkpt>
      <trkpt lat="47.74213" lon="2.09571">
        <ele>111</ele>
        <time>2017-07-30T08:13:18.328Z</time>
      </trkpt>
      <trkpt lat="47.74216" lon="2.09583">
        <ele>110</ele>
        <time>2017-07-30T08:13:19.329Z</time>
      </trkpt>
      <trkpt lat="47.74217" lon="2.09589">
        <ele>110</ele>
        <time>2017-07-30T08:13:20.329Z</time>
      </trkpt>
      <trkpt lat="47.74218" lon="2.09595">
        <ele>109</ele>
        <time>2017-07-30T08:13:21.326Z</time>
      </trkpt>
      <trkpt lat="47.74218" lon="2.09595">
        <ele>109</ele>
        <time>2017-07-30T08:13:22.325Z</time>
      </trkpt>
      <trkpt lat="47.74219" lon="2.09607">
        <ele>109</ele>
        <time>2017-07-30T08:13:23.327Z</time>
      </trkpt>
      <trkpt lat="47.74219" lon="2.09607">
        <ele>109</ele>
        <time>2017-07-30T08:13:24.335Z</time>
      </trkpt>
      <trkpt lat="47.74222" lon="2.09618">
        <ele>109</ele>
        <time>2017-07-30T08:13:25.326Z</time>
      </trkpt>
      <trkpt lat="47.74222" lon="2.09618">
        <ele>109</ele>
        <time>2017-07-30T08:13:26.325Z</time>
      </trkpt>
      <trkpt lat="47.74226" lon="2.09631">
        <ele>109</ele>
        <time>2017-07-30T08:13:27.327Z</time>
      </trkpt>
      <trkpt lat="47.74226" lon="2.09631">
        <ele>109</ele>
        <time>2017-07-30T08:13:28.325Z</time>
      </trkpt>
      <trkpt lat="47.74229" lon="2.09645">
        <ele>109</ele>
        <time>2017-07-30T08:13:29.325Z</time>
      </trkpt>
      <trkpt lat="47.74232" lon="2.0965">
        <ele>109</ele>
        <time>2017-07-30T08:13:30.327Z</time>
      </trkpt>
      <trkpt lat="47.74235" lon="2.09655">
        <ele>108</ele>
        <time>2017-07-30T08:13:31.327Z</time>
      </trkpt>
      <trkpt lat="47.74235" lon="2.09655">
        <ele>108</ele>
        <time>2017-07-30T08:13:32.325Z</time>
      </trkpt>
      <trkpt lat="47.74239" lon="2.09664">
        <ele>108</ele>
        <time>2017-07-30T08:13:33.327Z</time>
      </trkpt>
      <trkpt lat="47.74239" lon="2.09664">
        <ele>108</ele>
        <time>2017-07-30T08:13:34.325Z</time>
      </trkpt>
      <trkpt lat="47.74243" lon="2.09675">
        <ele>109</ele>
        <time>2017-07-30T08:13:35.327Z</time>
      </trkpt>
      <trkpt lat="47.74243" lon="2.09675">
        <ele>109</ele>
        <time>2017-07-30T08:13:36.326Z</time>
      </trkpt>
      <trkpt lat="47.74249" lon="2.09684">
        <ele>109</ele>
        <time>2017-07-30T08:13:37.337Z</time>
      </trkpt>
      <trkpt lat="47.74249" lon="2.09684">
        <ele>109</ele>
        <time>2017-07-30T08:13:38.325Z</time>
      </trkpt>
      <trkpt lat="47.74255" lon="2.09693">
        <ele>109</ele>
        <time>2017-07-30T08:13:39.327Z</time>
      </trkpt>
      <trkpt lat="47.74255" lon="2.09693">
        <ele>109</ele>
        <time>2017-07-30T08:13:40.325Z</time>
      </trkpt>
      <trkpt lat="47.74261" lon="2.09703">
        <ele>109</ele>
        <time>2017-07-30T08:13:41.326Z</time>
      </trkpt>
      <trkpt lat="47.74261" lon="2.09703">
        <ele>109</ele>
        <time>2017-07-30T08:13:42.326Z</time>
      </trkpt>
      <trkpt lat="47.74266" lon="2.09713">
        <ele>110</ele>
        <time>2017-07-30T08:13:43.328Z</time>
      </trkpt>
      <trkpt lat="47.74266" lon="2.09713">
        <ele>110</ele>
        <time>2017-07-30T08:13:44.337Z</time>
      </trkpt>
      <trkpt lat="47.74271" lon="2.09724">
        <ele>110</ele>
        <time>2017-07-30T08:13:45.327Z</time>
      </trkpt>
      <trkpt lat="47.74271" lon="2.09724">
        <ele>110</ele>
        <time>2017-07-30T08:13:46.325Z</time>
      </trkpt>
      <trkpt lat="47.74276" lon="2.09735">
        <ele>111</ele>
        <time>2017-07-30T08:13:47.328Z</time>
      </trkpt>
      <trkpt lat="47.74276" lon="2.09735">
        <ele>111</ele>
        <time>2017-07-30T08:13:48.340Z</time>
      </trkpt>
      <trkpt lat="47.7428" lon="2.09746">
        <ele>111</ele>
        <time>2017-07-30T08:13:49.342Z</time>
      </trkpt>
      <trkpt lat="47.74282" lon="2.09752">
        <ele>110</ele>
        <time>2017-07-30T08:13:50.333Z</time>
      </trkpt>
      <trkpt lat="47.74282" lon="2.09752">
        <ele>110</ele>
        <time>2017-07-30T08:13:51.325Z</time>
      </trkpt>
      <trkpt lat="47.74286" lon="2.09764">
        <ele>110</ele>
        <time>2017-07-30T08:13:52.325Z</time>
      </trkpt>
      <trkpt lat="47.74286" lon="2.09764">
        <ele>110</ele>
        <time>2017-07-30T08:13:53.325Z</time>
      </trkpt>
      <trkpt lat="47.7429" lon="2.09776">
        <ele>110</ele>
        <time>2017-07-30T08:13:54.337Z</time>
      </trkpt>
      <trkpt lat="47.74291" lon="2.09783">
        <ele>109</ele>
        <time>2017-07-30T08:13:55.332Z</time>
      </trkpt>
      <trkpt lat="47.74291" lon="2.09783">
        <ele>109</ele>
        <time>2017-07-30T08:13:56.324Z</time>
      </trkpt>
      <trkpt lat="47.74293" lon="2.09795">
        <ele>109</ele>
        <time>2017-07-30T08:13:57.330Z</time>
      </trkpt>
      <trkpt lat="47.74294" lon="2.09803">
        <ele>109</ele>
        <time>2017-07-30T08:13:58.329Z</time>
      </trkpt>
      <trkpt lat="47.74295" lon="2.0981">
        <ele>108</ele>
        <time>2017-07-30T08:13:59.331Z</time>
      </trkpt>
      <trkpt lat="47.74295" lon="2.0981">
        <ele>108</ele>
        <time>2017-07-30T08:14:00.325Z</time>
      </trkpt>
      <trkpt lat="47.74295" lon="2.09824">
        <ele>108</ele>
        <time>2017-07-30T08:14:01.330Z</time>
      </trkpt>
      <trkpt lat="47.74295" lon="2.09824">
        <ele>108</ele>
        <time>2017-07-30T08:14:02.324Z</time>
      </trkpt>
      <trkpt lat="47.74297" lon="2.09837">
        <ele>107</ele>
        <time>2017-07-30T08:14:03.330Z</time>
      </trkpt>
      <trkpt lat="47.74297" lon="2.09837">
        <ele>107</ele>
        <time>2017-07-30T08:14:04.327Z</time>
      </trkpt>
      <trkpt lat="47.74296" lon="2.09851">
        <ele>107</ele>
        <time>2017-07-30T08:14:05.329Z</time>
      </trkpt>
      <trkpt lat="47.74296" lon="2.09857">
        <ele>107</ele>
        <time>2017-07-30T08:14:06.331Z</time>
      </trkpt>
      <trkpt lat="47.74296" lon="2.09857">
        <ele>107</ele>
        <time>2017-07-30T08:14:07.326Z</time>
      </trkpt>
      <trkpt lat="47.74295" lon="2.0987">
        <ele>107</ele>
        <time>2017-07-30T08:14:08.327Z</time>
      </trkpt>
      <trkpt lat="47.74296" lon="2.09877">
        <ele>107</ele>
        <time>2017-07-30T08:14:09.327Z</time>
      </trkpt>
      <trkpt lat="47.74296" lon="2.09877">
        <ele>107</ele>
        <time>2017-07-30T08:14:10.325Z</time>
      </trkpt>
      <trkpt lat="47.74296" lon="2.09891">
        <ele>106</ele>
        <time>2017-07-30T08:14:11.326Z</time>
      </trkpt>
      <trkpt lat="47.74296" lon="2.09891">
        <ele>106</ele>
        <time>2017-07-30T08:14:12.326Z</time>
      </trkpt>
      <trkpt lat="47.74295" lon="2.09906">
        <ele>106</ele>
        <time>2017-07-30T08:14:13.325Z</time>
      </trkpt>
      <trkpt lat="47.74295" lon="2.09906">
        <ele>106</ele>
        <time>2017-07-30T08:14:14.320Z</time>
      </trkpt>
      <trkpt lat="47.74292" lon="2.0992">
        <ele>106</ele>
        <time>2017-07-30T08:14:15.326Z</time>
      </trkpt>
      <trkpt lat="47.7429" lon="2.09928">
        <ele>105</ele>
        <time>2017-07-30T08:14:16.340Z</time>
      </trkpt>
      <trkpt lat="47.74289" lon="2.09935">
        <ele>105</ele>
        <time>2017-07-30T08:14:17.327Z</time>
      </trkpt>
      <trkpt lat="47.74289" lon="2.09935">
        <ele>105</ele>
        <time>2017-07-30T08:14:18.326Z</time>
      </trkpt>
      <trkpt lat="47.74287" lon="2.09951">
        <ele>105</ele>
        <time>2017-07-30T08:14:19.328Z</time>
      </trkpt>
      <trkpt lat="47.74287" lon="2.09951">
        <ele>105</ele>
        <time>2017-07-30T08:14:20.325Z</time>
      </trkpt>
      <trkpt lat="47.74289" lon="2.09967">
        <ele>106</ele>
        <time>2017-07-30T08:14:21.327Z</time>
      </trkpt>
      <trkpt lat="47.74289" lon="2.09967">
        <ele>106</ele>
        <time>2017-07-30T08:14:22.325Z</time>
      </trkpt>
      <trkpt lat="47.74288" lon="2.09981">
        <ele>105</ele>
        <time>2017-07-30T08:14:23.327Z</time>
      </trkpt>
      <trkpt lat="47.74288" lon="2.09981">
        <ele>105</ele>
        <time>2017-07-30T08:14:24.311Z</time>
      </trkpt>
      <trkpt lat="47.74286" lon="2.09995">
        <ele>105</ele>
        <time>2017-07-30T08:14:25.342Z</time>
      </trkpt>
      <trkpt lat="47.74286" lon="2.09995">
        <ele>105</ele>
        <time>2017-07-30T08:14:26.332Z</time>
      </trkpt>
      <trkpt lat="47.74285" lon="2.1001">
        <ele>105</ele>
        <time>2017-07-30T08:14:27.325Z</time>
      </trkpt>
      <trkpt lat="47.74285" lon="2.1001">
        <ele>105</ele>
        <time>2017-07-30T08:14:28.325Z</time>
      </trkpt>
      <trkpt lat="47.74285" lon="2.10024">
        <ele>104</ele>
        <time>2017-07-30T08:14:29.327Z</time>
      </trkpt>
      <trkpt lat="47.74285" lon="2.10024">
        <ele>104</ele>
        <time>2017-07-30T08:14:30.326Z</time>
      </trkpt>
      <trkpt lat="47.74283" lon="2.10038">
        <ele>103</ele>
        <time>2017-07-30T08:14:31.329Z</time>
      </trkpt>
      <trkpt lat="47.74283" lon="2.10038">
        <ele>103</ele>
        <time>2017-07-30T08:14:32.325Z</time>
      </trkpt>
      <trkpt lat="47.74281" lon="2.10051">
        <ele>103</ele>
        <time>2017-07-30T08:14:33.334Z</time>
      </trkpt>
      <trkpt lat="47.74281" lon="2.10051">
        <ele>103</ele>
        <time>2017-07-30T08:14:34.324Z</time>
      </trkpt>
      <trkpt lat="47.74283" lon="2.10064">
        <ele>102</ele>
        <time>2017-07-30T08:14:35.326Z</time>
      </trkpt>
      <trkpt lat="47.74283" lon="2.10064">
        <ele>102</ele>
        <time>2017-07-30T08:14:36.326Z</time>
      </trkpt>
      <trkpt lat="47.74285" lon="2.10077">
        <ele>102</ele>
        <time>2017-07-30T08:14:37.349Z</time>
      </trkpt>
      <trkpt lat="47.74285" lon="2.10077">
        <ele>102</ele>
        <time>2017-07-30T08:14:38.315Z</time>
      </trkpt>
      <trkpt lat="47.74284" lon="2.1009">
        <ele>101</ele>
        <time>2017-07-30T08:14:39.325Z</time>
      </trkpt>
      <trkpt lat="47.74286" lon="2.10097">
        <ele>101</ele>
        <time>2017-07-30T08:14:40.330Z</time>
      </trkpt>
      <trkpt lat="47.74286" lon="2.10097">
        <ele>101</ele>
        <time>2017-07-30T08:14:41.325Z</time>
      </trkpt>
      <trkpt lat="47.74285" lon="2.1011">
        <ele>100</ele>
        <time>2017-07-30T08:14:42.343Z</time>
      </trkpt>
      <trkpt lat="47.74285" lon="2.1011">
        <ele>100</ele>
        <time>2017-07-30T08:14:43.334Z</time>
      </trkpt>
      <trkpt lat="47.74285" lon="2.10125">
        <ele>100</ele>
        <time>2017-07-30T08:14:44.338Z</time>
      </trkpt>
      <trkpt lat="47.74286" lon="2.10133">
        <ele>100</ele>
        <time>2017-07-30T08:14:45.331Z</time>
      </trkpt>
      <trkpt lat="47.74286" lon="2.10133">
        <ele>100</ele>
        <time>2017-07-30T08:14:46.327Z</time>
      </trkpt>
      <trkpt lat="47.74285" lon="2.10149">
        <ele>99</ele>
        <time>2017-07-30T08:14:47.329Z</time>
      </trkpt>
      <trkpt lat="47.74285" lon="2.10157">
        <ele>99</ele>
        <time>2017-07-30T08:14:48.328Z</time>
      </trkpt>
      <trkpt lat="47.74285" lon="2.10157">
        <ele>99</ele>
        <time>2017-07-30T08:14:49.327Z</time>
      </trkpt>
      <trkpt lat="47.74283" lon="2.10173">
        <ele>99</ele>
        <time>2017-07-30T08:14:50.335Z</time>
      </trkpt>
      <trkpt lat="47.74282" lon="2.1018">
        <ele>99</ele>
        <time>2017-07-30T08:14:51.330Z</time>
      </trkpt>
      <trkpt lat="47.74282" lon="2.1018">
        <ele>99</ele>
        <time>2017-07-30T08:14:52.332Z</time>
      </trkpt>
      <trkpt lat="47.74283" lon="2.10196">
        <ele>100</ele>
        <time>2017-07-30T08:14:53.329Z</time>
      </trkpt>
      <trkpt lat="47.74283" lon="2.10196">
        <ele>100</ele>
        <time>2017-07-30T08:14:54.325Z</time>
      </trkpt>
      <trkpt lat="47.74283" lon="2.10211">
        <ele>101</ele>
        <time>2017-07-30T08:14:55.329Z</time>
      </trkpt>
      <trkpt lat="47.74283" lon="2.10211">
        <ele>101</ele>
        <time>2017-07-30T08:14:56.325Z</time>
      </trkpt>
      <trkpt lat="47.74282" lon="2.10225">
        <ele>102</ele>
        <time>2017-07-30T08:14:57.327Z</time>
      </trkpt>
      <trkpt lat="47.74282" lon="2.10225">
        <ele>102</ele>
        <time>2017-07-30T08:14:58.325Z</time>
      </trkpt>
      <trkpt lat="47.74283" lon="2.10239">
        <ele>102</ele>
        <time>2017-07-30T08:14:59.327Z</time>
      </trkpt>
      <trkpt lat="47.74283" lon="2.10239">
        <ele>102</ele>
        <time>2017-07-30T08:15:00.319Z</time>
      </trkpt>
      <trkpt lat="47.74284" lon="2.10254">
        <ele>102</ele>
        <time>2017-07-30T08:15:01.326Z</time>
      </trkpt>
      <trkpt lat="47.74284" lon="2.10254">
        <ele>102</ele>
        <time>2017-07-30T08:15:02.325Z</time>
      </trkpt>
      <trkpt lat="47.74283" lon="2.10266">
        <ele>102</ele>
        <time>2017-07-30T08:15:03.327Z</time>
      </trkpt>
      <trkpt lat="47.74283" lon="2.10266">
        <ele>102</ele>
        <time>2017-07-30T08:15:04.325Z</time>
      </trkpt>
      <trkpt lat="47.7428" lon="2.10277">
        <ele>102</ele>
        <time>2017-07-30T08:15:05.327Z</time>
      </trkpt>
      <trkpt lat="47.7428" lon="2.10277">
        <ele>102</ele>
        <time>2017-07-30T08:15:06.313Z</time>
      </trkpt>
      <trkpt lat="47.74279" lon="2.10287">
        <ele>102</ele>
        <time>2017-07-30T08:15:07.342Z</time>
      </trkpt>
      <trkpt lat="47.74279" lon="2.10287">
        <ele>102</ele>
        <time>2017-07-30T08:15:08.332Z</time>
      </trkpt>
      <trkpt lat="47.74277" lon="2.103">
        <ele>103</ele>
        <time>2017-07-30T08:15:09.327Z</time>
      </trkpt>
      <trkpt lat="47.74277" lon="2.103">
        <ele>103</ele>
        <time>2017-07-30T08:15:10.317Z</time>
      </trkpt>
      <trkpt lat="47.74275" lon="2.10316">
        <ele>104</ele>
        <time>2017-07-30T08:15:11.327Z</time>
      </trkpt>
      <trkpt lat="47.74273" lon="2.10325">
        <ele>105</ele>
        <time>2017-07-30T08:15:12.328Z</time>
      </trkpt>
      <trkpt lat="47.74271" lon="2.10332">
        <ele>105</ele>
        <time>2017-07-30T08:15:13.329Z</time>
      </trkpt>
      <trkpt lat="47.74271" lon="2.10332">
        <ele>105</ele>
        <time>2017-07-30T08:15:14.325Z</time>
      </trkpt>
      <trkpt lat="47.74269" lon="2.10344">
        <ele>106</ele>
        <time>2017-07-30T08:15:15.327Z</time>
      </trkpt>
      <trkpt lat="47.74269" lon="2.10344">
        <ele>106</ele>
        <time>2017-07-30T08:15:16.328Z</time>
      </trkpt>
      <trkpt lat="47.74267" lon="2.10358">
        <ele>106</ele>
        <time>2017-07-30T08:15:17.327Z</time>
      </trkpt>
      <trkpt lat="47.74267" lon="2.10358">
        <ele>106</ele>
        <time>2017-07-30T08:15:18.326Z</time>
      </trkpt>
      <trkpt lat="47.74263" lon="2.10371">
        <ele>106</ele>
        <time>2017-07-30T08:15:19.329Z</time>
      </trkpt>
      <trkpt lat="47.74263" lon="2.10371">
        <ele>106</ele>
        <time>2017-07-30T08:15:20.325Z</time>
      </trkpt>
      <trkpt lat="47.74261" lon="2.10385">
        <ele>106</ele>
        <time>2017-07-30T08:15:21.327Z</time>
      </trkpt>
      <trkpt lat="47.7426" lon="2.10392">
        <ele>106</ele>
        <time>2017-07-30T08:15:22.327Z</time>
      </trkpt>
      <trkpt lat="47.7426" lon="2.10392">
        <ele>106</ele>
        <time>2017-07-30T08:15:23.325Z</time>
      </trkpt>
      <trkpt lat="47.74256" lon="2.10406">
        <ele>106</ele>
        <time>2017-07-30T08:15:24.348Z</time>
      </trkpt>
      <trkpt lat="47.74254" lon="2.10412">
        <ele>106</ele>
        <time>2017-07-30T08:15:25.328Z</time>
      </trkpt>
      <trkpt lat="47.74254" lon="2.10412">
        <ele>106</ele>
        <time>2017-07-30T08:15:26.325Z</time>
      </trkpt>
      <trkpt lat="47.74252" lon="2.10425">
        <ele>106</ele>
        <time>2017-07-30T08:15:27.325Z</time>
      </trkpt>
      <trkpt lat="47.74252" lon="2.10425">
        <ele>106</ele>
        <time>2017-07-30T08:15:28.325Z</time>
      </trkpt>
      <trkpt lat="47.7425" lon="2.10438">
        <ele>106</ele>
        <time>2017-07-30T08:15:29.332Z</time>
      </trkpt>
      <trkpt lat="47.74248" lon="2.10445">
        <ele>105</ele>
        <time>2017-07-30T08:15:30.327Z</time>
      </trkpt>
      <trkpt lat="47.74247" lon="2.10452">
        <ele>106</ele>
        <time>2017-07-30T08:15:31.329Z</time>
      </trkpt>
      <trkpt lat="47.74247" lon="2.10452">
        <ele>106</ele>
        <time>2017-07-30T08:15:32.330Z</time>
      </trkpt>
      <trkpt lat="47.74245" lon="2.10466">
        <ele>106</ele>
        <time>2017-07-30T08:15:33.327Z</time>
      </trkpt>
      <trkpt lat="47.74245" lon="2.10466">
        <ele>106</ele>
        <time>2017-07-30T08:15:34.327Z</time>
      </trkpt>
      <trkpt lat="47.74241" lon="2.10479">
        <ele>106</ele>
        <time>2017-07-30T08:15:35.329Z</time>
      </trkpt>
      <trkpt lat="47.7424" lon="2.10485">
        <ele>106</ele>
        <time>2017-07-30T08:15:36.331Z</time>
      </trkpt>
      <trkpt lat="47.7424" lon="2.10485">
        <ele>106</ele>
        <time>2017-07-30T08:15:37.327Z</time>
      </trkpt>
      <trkpt lat="47.74238" lon="2.10498">
        <ele>107</ele>
        <time>2017-07-30T08:15:38.329Z</time>
      </trkpt>
      <trkpt lat="47.74238" lon="2.10498">
        <ele>107</ele>
        <time>2017-07-30T08:15:39.327Z</time>
      </trkpt>
      <trkpt lat="47.74236" lon="2.1051">
        <ele>107</ele>
        <time>2017-07-30T08:15:40.329Z</time>
      </trkpt>
      <trkpt lat="47.74236" lon="2.1051">
        <ele>107</ele>
        <time>2017-07-30T08:15:41.328Z</time>
      </trkpt>
      <trkpt lat="47.74234" lon="2.10523">
        <ele>108</ele>
        <time>2017-07-30T08:15:42.328Z</time>
      </trkpt>
      <trkpt lat="47.74234" lon="2.10523">
        <ele>108</ele>
        <time>2017-07-30T08:15:43.329Z</time>
      </trkpt>
      <trkpt lat="47.74232" lon="2.10535">
        <ele>108</ele>
        <time>2017-07-30T08:15:44.343Z</time>
      </trkpt>
      <trkpt lat="47.74231" lon="2.10542">
        <ele>109</ele>
        <time>2017-07-30T08:15:45.332Z</time>
      </trkpt>
      <trkpt lat="47.74231" lon="2.10542">
        <ele>109</ele>
        <time>2017-07-30T08:15:46.327Z</time>
      </trkpt>
      <trkpt lat="47.7423" lon="2.10556">
        <ele>109</ele>
        <time>2017-07-30T08:15:47.332Z</time>
      </trkpt>
      <trkpt lat="47.7423" lon="2.10556">
        <ele>109</ele>
        <time>2017-07-30T08:15:48.328Z</time>
      </trkpt>
      <trkpt lat="47.74229" lon="2.1057">
        <ele>110</ele>
        <time>2017-07-30T08:15:49.334Z</time>
      </trkpt>
      <trkpt lat="47.74229" lon="2.1057">
        <ele>110</ele>
        <time>2017-07-30T08:15:50.328Z</time>
      </trkpt>
      <trkpt lat="47.74232" lon="2.10582">
        <ele>111</ele>
        <time>2017-07-30T08:15:51.327Z</time>
      </trkpt>
      <trkpt lat="47.74234" lon="2.10588">
        <ele>111</ele>
        <time>2017-07-30T08:15:52.327Z</time>
      </trkpt>
      <trkpt lat="47.74234" lon="2.10588">
        <ele>111</ele>
        <time>2017-07-30T08:15:53.325Z</time>
      </trkpt>
      <trkpt lat="47.74239" lon="2.10597">
        <ele>111</ele>
        <time>2017-07-30T08:15:54.328Z</time>
      </trkpt>
      <trkpt lat="47.74239" lon="2.10597">
        <ele>111</ele>
        <time>2017-07-30T08:15:55.325Z</time>
      </trkpt>
      <trkpt lat="47.74245" lon="2.10605">
        <ele>112</ele>
        <time>2017-07-30T08:15:56.327Z</time>
      </trkpt>
      <trkpt lat="47.74248" lon="2.1061">
        <ele>112</ele>
        <time>2017-07-30T08:15:57.327Z</time>
      </trkpt>
      <trkpt lat="47.74248" lon="2.1061">
        <ele>112</ele>
        <time>2017-07-30T08:15:58.325Z</time>
      </trkpt>
      <trkpt lat="47.74254" lon="2.1062">
        <ele>112</ele>
        <time>2017-07-30T08:15:59.338Z</time>
      </trkpt>
      <trkpt lat="47.74254" lon="2.1062">
        <ele>112</ele>
        <time>2017-07-30T08:16:00.326Z</time>
      </trkpt>
      <trkpt lat="47.74261" lon="2.10629">
        <ele>113</ele>
        <time>2017-07-30T08:16:01.329Z</time>
      </trkpt>
      <trkpt lat="47.74261" lon="2.10629">
        <ele>113</ele>
        <time>2017-07-30T08:16:02.325Z</time>
      </trkpt>
      <trkpt lat="47.74267" lon="2.10641">
        <ele>114</ele>
        <time>2017-07-30T08:16:03.327Z</time>
      </trkpt>
      <trkpt lat="47.74267" lon="2.10641">
        <ele>114</ele>
        <time>2017-07-30T08:16:04.325Z</time>
      </trkpt>
      <trkpt lat="47.74273" lon="2.1065">
        <ele>114</ele>
        <time>2017-07-30T08:16:05.327Z</time>
      </trkpt>
      <trkpt lat="47.74273" lon="2.1065">
        <ele>114</ele>
        <time>2017-07-30T08:16:06.329Z</time>
      </trkpt>
      <trkpt lat="47.74279" lon="2.1066">
        <ele>115</ele>
        <time>2017-07-30T08:16:07.329Z</time>
      </trkpt>
      <trkpt lat="47.74279" lon="2.1066">
        <ele>115</ele>
        <time>2017-07-30T08:16:08.325Z</time>
      </trkpt>
      <trkpt lat="47.74286" lon="2.10673">
        <ele>116</ele>
        <time>2017-07-30T08:16:09.328Z</time>
      </trkpt>
      <trkpt lat="47.74286" lon="2.10673">
        <ele>116</ele>
        <time>2017-07-30T08:16:10.325Z</time>
      </trkpt>
      <trkpt lat="47.7429" lon="2.10686">
        <ele>117</ele>
        <time>2017-07-30T08:16:11.326Z</time>
      </trkpt>
      <trkpt lat="47.74292" lon="2.10691">
        <ele>117</ele>
        <time>2017-07-30T08:16:12.327Z</time>
      </trkpt>
      <trkpt lat="47.74294" lon="2.10697">
        <ele>117</ele>
        <time>2017-07-30T08:16:13.329Z</time>
      </trkpt>
      <trkpt lat="47.74294" lon="2.10697">
        <ele>117</ele>
        <time>2017-07-30T08:16:14.326Z</time>
      </trkpt>
      <trkpt lat="47.74297" lon="2.10709">
        <ele>118</ele>
        <time>2017-07-30T08:16:15.327Z</time>
      </trkpt>
      <trkpt lat="47.74297" lon="2.10709">
        <ele>118</ele>
        <time>2017-07-30T08:16:16.325Z</time>
      </trkpt>
      <trkpt lat="47.74301" lon="2.10721">
        <ele>118</ele>
        <time>2017-07-30T08:16:17.346Z</time>
      </trkpt>
      <trkpt lat="47.74301" lon="2.10721">
        <ele>118</ele>
        <time>2017-07-30T08:16:18.334Z</time>
      </trkpt>
      <trkpt lat="47.74303" lon="2.10733">
        <ele>119</ele>
        <time>2017-07-30T08:16:19.325Z</time>
      </trkpt>
      <trkpt lat="47.74303" lon="2.10733">
        <ele>119</ele>
        <time>2017-07-30T08:16:20.321Z</time>
      </trkpt>
      <trkpt lat="47.74307" lon="2.10744">
        <ele>119</ele>
        <time>2017-07-30T08:16:21.327Z</time>
      </trkpt>
      <trkpt lat="47.74307" lon="2.10744">
        <ele>119</ele>
        <time>2017-07-30T08:16:22.331Z</time>
      </trkpt>
      <trkpt lat="47.74309" lon="2.10756">
        <ele>119</ele>
        <time>2017-07-30T08:16:23.327Z</time>
      </trkpt>
      <trkpt lat="47.74309" lon="2.10756">
        <ele>119</ele>
        <time>2017-07-30T08:16:24.339Z</time>
      </trkpt>
      <trkpt lat="47.74312" lon="2.10768">
        <ele>119</ele>
        <time>2017-07-30T08:16:25.330Z</time>
      </trkpt>
      <trkpt lat="47.74313" lon="2.10774">
        <ele>119</ele>
        <time>2017-07-30T08:16:26.327Z</time>
      </trkpt>
      <trkpt lat="47.74314" lon="2.1078">
        <ele>119</ele>
        <time>2017-07-30T08:16:27.327Z</time>
      </trkpt>
      <trkpt lat="47.74315" lon="2.10786">
        <ele>120</ele>
        <time>2017-07-30T08:16:28.330Z</time>
      </trkpt>
      <trkpt lat="47.74316" lon="2.10792">
        <ele>120</ele>
        <time>2017-07-30T08:16:29.331Z</time>
      </trkpt>
      <trkpt lat="47.74316" lon="2.10792">
        <ele>120</ele>
        <time>2017-07-30T08:16:30.329Z</time>
      </trkpt>
      <trkpt lat="47.74317" lon="2.10805">
        <ele>120</ele>
        <time>2017-07-30T08:16:31.332Z</time>
      </trkpt>
      <trkpt lat="47.74317" lon="2.10805">
        <ele>120</ele>
        <time>2017-07-30T08:16:32.328Z</time>
      </trkpt>
      <trkpt lat="47.74317" lon="2.10818">
        <ele>120</ele>
        <time>2017-07-30T08:16:33.330Z</time>
      </trkpt>
      <trkpt lat="47.74317" lon="2.10818">
        <ele>120</ele>
        <time>2017-07-30T08:16:34.326Z</time>
      </trkpt>
      <trkpt lat="47.74319" lon="2.10831">
        <ele>120</ele>
        <time>2017-07-30T08:16:35.330Z</time>
      </trkpt>
      <trkpt lat="47.7432" lon="2.10837">
        <ele>120</ele>
        <time>2017-07-30T08:16:36.328Z</time>
      </trkpt>
      <trkpt lat="47.74321" lon="2.10842">
        <ele>120</ele>
        <time>2017-07-30T08:16:37.333Z</time>
      </trkpt>
      <trkpt lat="47.74321" lon="2.10842">
        <ele>120</ele>
        <time>2017-07-30T08:16:38.327Z</time>
      </trkpt>
      <trkpt lat="47.74325" lon="2.10852">
        <ele>119</ele>
        <time>2017-07-30T08:16:39.331Z</time>
      </trkpt>
      <trkpt lat="47.74325" lon="2.10852">
        <ele>119</ele>
        <time>2017-07-30T08:16:40.327Z</time>
      </trkpt>
      <trkpt lat="47.74328" lon="2.10858">
        <ele>119</ele>
        <time>2017-07-30T08:16:41.330Z</time>
      </trkpt>
      <trkpt lat="47.7433" lon="2.1086">
        <ele>120</ele>
        <time>2017-07-30T08:16:42.332Z</time>
      </trkpt>
      <trkpt lat="47.7433" lon="2.1086">
        <ele>120</ele>
        <time>2017-07-30T08:16:43.329Z</time>
      </trkpt>
      <trkpt lat="47.74334" lon="2.10862">
        <ele>120</ele>
        <time>2017-07-30T08:16:44.335Z</time>
      </trkpt>
      <trkpt lat="47.74334" lon="2.10862">
        <ele>120</ele>
        <time>2017-07-30T08:16:45.318Z</time>
      </trkpt>
      <trkpt lat="47.74337" lon="2.10861">
        <ele>120</ele>
        <time>2017-07-30T08:16:46.324Z</time>
      </trkpt>
      <trkpt lat="47.74337" lon="2.10861">
        <ele>120</ele>
        <time>2017-07-30T08:16:47.342Z</time>
      </trkpt>
      <trkpt lat="47.74338" lon="2.1086">
        <ele>121</ele>
        <time>2017-07-30T08:16:48.334Z</time>
      </trkpt>
      <trkpt lat="47.74338" lon="2.10861">
        <ele>120</ele>
        <time>2017-07-30T08:16:49.330Z</time>
      </trkpt>
      <trkpt lat="47.74338" lon="2.10861">
        <ele>120</ele>
        <time>2017-07-30T08:16:50.311Z</time>
      </trkpt>
      <trkpt lat="47.74341" lon="2.1086">
        <ele>116</ele>
        <time>2017-07-30T08:16:51.323Z</time>
      </trkpt>
      <trkpt lat="47.74343" lon="2.1086">
        <ele>116</ele>
        <time>2017-07-30T08:16:52.323Z</time>
      </trkpt>
      <trkpt lat="47.74343" lon="2.1086">
        <ele>116</ele>
        <time>2017-07-30T08:16:53.314Z</time>
      </trkpt>
      <trkpt lat="47.74347" lon="2.1086">
        <ele>116</ele>
        <time>2017-07-30T08:16:54.322Z</time>
      </trkpt>
      <trkpt lat="47.7435" lon="2.1086">
        <ele>116</ele>
        <time>2017-07-30T08:16:55.318Z</time>
      </trkpt>
      <trkpt lat="47.7435" lon="2.1086">
        <ele>116</ele>
        <time>2017-07-30T08:16:56.312Z</time>
      </trkpt>
      <trkpt lat="47.74356" lon="2.10859">
        <ele>117</ele>
        <time>2017-07-30T08:16:57.348Z</time>
      </trkpt>
      <trkpt lat="47.74356" lon="2.10859">
        <ele>117</ele>
        <time>2017-07-30T08:16:58.347Z</time>
      </trkpt>
      <trkpt lat="47.74363" lon="2.10858">
        <ele>117</ele>
        <time>2017-07-30T08:16:59.313Z</time>
      </trkpt>
      <trkpt lat="47.74366" lon="2.10858">
        <ele>116</ele>
        <time>2017-07-30T08:17:00.348Z</time>
      </trkpt>
      <trkpt lat="47.74366" lon="2.10858">
        <ele>116</ele>
        <time>2017-07-30T08:17:01.317Z</time>
      </trkpt>
      <trkpt lat="47.74373" lon="2.10857">
        <ele>117</ele>
        <time>2017-07-30T08:17:02.349Z</time>
      </trkpt>
      <trkpt lat="47.74373" lon="2.10857">
        <ele>117</ele>
        <time>2017-07-30T08:17:03.348Z</time>
      </trkpt>
      <trkpt lat="47.7438" lon="2.10857">
        <ele>116</ele>
        <time>2017-07-30T08:17:04.349Z</time>
      </trkpt>
      <trkpt lat="47.7438" lon="2.10857">
        <ele>116</ele>
        <time>2017-07-30T08:17:05.347Z</time>
      </trkpt>
      <trkpt lat="47.74387" lon="2.10856">
        <ele>116</ele>
        <time>2017-07-30T08:17:06.349Z</time>
      </trkpt>
      <trkpt lat="47.74387" lon="2.10856">
        <ele>116</ele>
        <time>2017-07-30T08:17:07.342Z</time>
      </trkpt>
      <trkpt lat="47.74394" lon="2.10855">
        <ele>116</ele>
        <time>2017-07-30T08:17:08.348Z</time>
      </trkpt>
      <trkpt lat="47.74394" lon="2.10855">
        <ele>116</ele>
        <time>2017-07-30T08:17:09.347Z</time>
      </trkpt>
      <trkpt lat="47.74402" lon="2.10855">
        <ele>117</ele>
        <time>2017-07-30T08:17:10.349Z</time>
      </trkpt>
      <trkpt lat="47.74402" lon="2.10855">
        <ele>117</ele>
        <time>2017-07-30T08:17:11.347Z</time>
      </trkpt>
      <trkpt lat="47.74409" lon="2.10856">
        <ele>118</ele>
        <time>2017-07-30T08:17:12.349Z</time>
      </trkpt>
      <trkpt lat="47.74409" lon="2.10856">
        <ele>118</ele>
        <time>2017-07-30T08:17:13.347Z</time>
      </trkpt>
      <trkpt lat="47.74418" lon="2.10856">
        <ele>118</ele>
        <time>2017-07-30T08:17:14.347Z</time>
      </trkpt>
      <trkpt lat="47.74421" lon="2.10856">
        <ele>118</ele>
        <time>2017-07-30T08:17:15.348Z</time>
      </trkpt>
      <trkpt lat="47.74425" lon="2.10856">
        <ele>118</ele>
        <time>2017-07-30T08:17:16.349Z</time>
      </trkpt>
      <trkpt lat="47.74425" lon="2.10856">
        <ele>118</ele>
        <time>2017-07-30T08:17:17.347Z</time>
      </trkpt>
      <trkpt lat="47.74433" lon="2.10856">
        <ele>118</ele>
        <time>2017-07-30T08:17:18.347Z</time>
      </trkpt>
      <trkpt lat="47.74433" lon="2.10856">
        <ele>118</ele>
        <time>2017-07-30T08:17:19.315Z</time>
      </trkpt>
      <trkpt lat="47.74442" lon="2.10855">
        <ele>119</ele>
        <time>2017-07-30T08:17:20.350Z</time>
      </trkpt>
      <trkpt lat="47.74446" lon="2.10855">
        <ele>118</ele>
        <time>2017-07-30T08:17:21.325Z</time>
      </trkpt>
      <trkpt lat="47.7445" lon="2.10855">
        <ele>118</ele>
        <time>2017-07-30T08:17:22.313Z</time>
      </trkpt>
      <trkpt lat="47.7445" lon="2.10855">
        <ele>118</ele>
        <time>2017-07-30T08:17:23.346Z</time>
      </trkpt>
      <trkpt lat="47.74458" lon="2.10855">
        <ele>118</ele>
        <time>2017-07-30T08:17:24.315Z</time>
      </trkpt>
      <trkpt lat="47.74458" lon="2.10855">
        <ele>118</ele>
        <time>2017-07-30T08:17:25.320Z</time>
      </trkpt>
      <trkpt lat="47.74466" lon="2.10854">
        <ele>119</ele>
        <time>2017-07-30T08:17:26.327Z</time>
      </trkpt>
      <trkpt lat="47.7447" lon="2.10853">
        <ele>119</ele>
        <time>2017-07-30T08:17:27.342Z</time>
      </trkpt>
      <trkpt lat="47.74473" lon="2.10853">
        <ele>120</ele>
        <time>2017-07-30T08:17:28.314Z</time>
      </trkpt>
      <trkpt lat="47.74473" lon="2.10853">
        <ele>120</ele>
        <time>2017-07-30T08:17:29.346Z</time>
      </trkpt>
      <trkpt lat="47.7448" lon="2.10853">
        <ele>119</ele>
        <time>2017-07-30T08:17:30.312Z</time>
      </trkpt>
      <trkpt lat="47.74484" lon="2.10853">
        <ele>119</ele>
        <time>2017-07-30T08:17:31.320Z</time>
      </trkpt>
      <trkpt lat="47.74484" lon="2.10853">
        <ele>119</ele>
        <time>2017-07-30T08:17:32.349Z</time>
      </trkpt>
      <trkpt lat="47.74491" lon="2.10852">
        <ele>119</ele>
        <time>2017-07-30T08:17:33.316Z</time>
      </trkpt>
      <trkpt lat="47.74496" lon="2.10852">
        <ele>119</ele>
        <time>2017-07-30T08:17:34.349Z</time>
      </trkpt>
      <trkpt lat="47.74496" lon="2.10852">
        <ele>119</ele>
        <time>2017-07-30T08:17:35.347Z</time>
      </trkpt>
      <trkpt lat="47.74504" lon="2.1085">
        <ele>120</ele>
        <time>2017-07-30T08:17:36.348Z</time>
      </trkpt>
      <trkpt lat="47.74509" lon="2.10849">
        <ele>120</ele>
        <time>2017-07-30T08:17:37.348Z</time>
      </trkpt>
      <trkpt lat="47.74509" lon="2.10849">
        <ele>120</ele>
        <time>2017-07-30T08:17:38.311Z</time>
      </trkpt>
      <trkpt lat="47.74517" lon="2.10849">
        <ele>120</ele>
        <time>2017-07-30T08:17:39.348Z</time>
      </trkpt>
      <trkpt lat="47.7452" lon="2.10849">
        <ele>120</ele>
        <time>2017-07-30T08:17:40.349Z</time>
      </trkpt>
      <trkpt lat="47.7452" lon="2.10849">
        <ele>120</ele>
        <time>2017-07-30T08:17:41.319Z</time>
      </trkpt>
      <trkpt lat="47.74528" lon="2.10848">
        <ele>121</ele>
        <time>2017-07-30T08:17:42.348Z</time>
      </trkpt>
      <trkpt lat="47.74528" lon="2.10848">
        <ele>121</ele>
        <time>2017-07-30T08:17:43.350Z</time>
      </trkpt>
      <trkpt lat="47.74536" lon="2.10848">
        <ele>122</ele>
        <time>2017-07-30T08:17:44.347Z</time>
      </trkpt>
      <trkpt lat="47.74536" lon="2.10848">
        <ele>122</ele>
        <time>2017-07-30T08:17:45.348Z</time>
      </trkpt>
      <trkpt lat="47.74543" lon="2.10847">
        <ele>122</ele>
        <time>2017-07-30T08:17:46.311Z</time>
      </trkpt>
      <trkpt lat="47.74543" lon="2.10847">
        <ele>122</ele>
        <time>2017-07-30T08:17:47.329Z</time>
      </trkpt>
      <trkpt lat="47.74549" lon="2.10846">
        <ele>123</ele>
        <time>2017-07-30T08:17:48.318Z</time>
      </trkpt>
      <trkpt lat="47.74549" lon="2.10846">
        <ele>123</ele>
        <time>2017-07-30T08:17:49.348Z</time>
      </trkpt>
      <trkpt lat="47.74556" lon="2.10845">
        <ele>123</ele>
        <time>2017-07-30T08:17:50.348Z</time>
      </trkpt>
      <trkpt lat="47.74556" lon="2.10845">
        <ele>123</ele>
        <time>2017-07-30T08:17:51.348Z</time>
      </trkpt>
      <trkpt lat="47.74562" lon="2.10845">
        <ele>123</ele>
        <time>2017-07-30T08:17:52.313Z</time>
      </trkpt>
      <trkpt lat="47.74562" lon="2.10845">
        <ele>123</ele>
        <time>2017-07-30T08:17:53.341Z</time>
      </trkpt>
      <trkpt lat="47.74569" lon="2.10844">
        <ele>123</ele>
        <time>2017-07-30T08:17:54.349Z</time>
      </trkpt>
      <trkpt lat="47.74569" lon="2.10844">
        <ele>123</ele>
        <time>2017-07-30T08:17:55.342Z</time>
      </trkpt>
      <trkpt lat="47.74578" lon="2.10844">
        <ele>122</ele>
        <time>2017-07-30T08:17:56.349Z</time>
      </trkpt>
      <trkpt lat="47.74578" lon="2.10844">
        <ele>122</ele>
        <time>2017-07-30T08:17:57.348Z</time>
      </trkpt>
      <trkpt lat="47.74588" lon="2.10844">
        <ele>122</ele>
        <time>2017-07-30T08:17:58.349Z</time>
      </trkpt>
      <trkpt lat="47.74588" lon="2.10844">
        <ele>122</ele>
        <time>2017-07-30T08:17:59.347Z</time>
      </trkpt>
      <trkpt lat="47.746" lon="2.10845">
        <ele>122</ele>
        <time>2017-07-30T08:18:00.349Z</time>
      </trkpt>
      <trkpt lat="47.746" lon="2.10845">
        <ele>122</ele>
        <time>2017-07-30T08:18:01.316Z</time>
      </trkpt>
      <trkpt lat="47.74607" lon="2.10847">
        <ele>122</ele>
        <time>2017-07-30T08:18:02.348Z</time>
      </trkpt>
      <trkpt lat="47.74612" lon="2.10847">
        <ele>123</ele>
        <time>2017-07-30T08:18:03.348Z</time>
      </trkpt>
      <trkpt lat="47.74612" lon="2.10847">
        <ele>123</ele>
        <time>2017-07-30T08:18:04.347Z</time>
      </trkpt>
      <trkpt lat="47.74619" lon="2.1085">
        <ele>123</ele>
        <time>2017-07-30T08:18:05.350Z</time>
      </trkpt>
      <trkpt lat="47.74622" lon="2.10852">
        <ele>124</ele>
        <time>2017-07-30T08:18:06.311Z</time>
      </trkpt>
      <trkpt lat="47.74622" lon="2.10852">
        <ele>124</ele>
        <time>2017-07-30T08:18:07.346Z</time>
      </trkpt>
      <trkpt lat="47.74629" lon="2.10855">
        <ele>125</ele>
        <time>2017-07-30T08:18:08.311Z</time>
      </trkpt>
      <trkpt lat="47.74633" lon="2.10857">
        <ele>125</ele>
        <time>2017-07-30T08:18:09.319Z</time>
      </trkpt>
      <trkpt lat="47.74633" lon="2.10857">
        <ele>125</ele>
        <time>2017-07-30T08:18:10.321Z</time>
      </trkpt>
      <trkpt lat="47.7464" lon="2.1086">
        <ele>125</ele>
        <time>2017-07-30T08:18:11.323Z</time>
      </trkpt>
      <trkpt lat="47.7464" lon="2.1086">
        <ele>125</ele>
        <time>2017-07-30T08:18:12.312Z</time>
      </trkpt>
      <trkpt lat="47.74647" lon="2.10863">
        <ele>126</ele>
        <time>2017-07-30T08:18:13.339Z</time>
      </trkpt>
      <trkpt lat="47.74649" lon="2.10864">
        <ele>126</ele>
        <time>2017-07-30T08:18:14.346Z</time>
      </trkpt>
      <trkpt lat="47.74652" lon="2.10865">
        <ele>126</ele>
        <time>2017-07-30T08:18:15.313Z</time>
      </trkpt>
      <trkpt lat="47.74652" lon="2.10865">
        <ele>126</ele>
        <time>2017-07-30T08:18:16.322Z</time>
      </trkpt>
      <trkpt lat="47.74659" lon="2.10868">
        <ele>126</ele>
        <time>2017-07-30T08:18:17.313Z</time>
      </trkpt>
      <trkpt lat="47.74659" lon="2.10868">
        <ele>126</ele>
        <time>2017-07-30T08:18:18.347Z</time>
      </trkpt>
      <trkpt lat="47.74665" lon="2.1087">
        <ele>127</ele>
        <time>2017-07-30T08:18:19.351Z</time>
      </trkpt>
      <trkpt lat="47.74665" lon="2.1087">
        <ele>127</ele>
        <time>2017-07-30T08:18:20.342Z</time>
      </trkpt>
      <trkpt lat="47.74673" lon="2.10874">
        <ele>128</ele>
        <time>2017-07-30T08:18:21.319Z</time>
      </trkpt>
      <trkpt lat="47.74677" lon="2.10875">
        <ele>128</ele>
        <time>2017-07-30T08:18:22.350Z</time>
      </trkpt>
      <trkpt lat="47.74677" lon="2.10875">
        <ele>128</ele>
        <time>2017-07-30T08:18:23.347Z</time>
      </trkpt>
      <trkpt lat="47.74684" lon="2.10878">
        <ele>129</ele>
        <time>2017-07-30T08:18:24.341Z</time>
      </trkpt>
      <trkpt lat="47.74688" lon="2.1088">
        <ele>130</ele>
        <time>2017-07-30T08:18:25.349Z</time>
      </trkpt>
      <trkpt lat="47.74688" lon="2.1088">
        <ele>130</ele>
        <time>2017-07-30T08:18:26.316Z</time>
      </trkpt>
      <trkpt lat="47.74696" lon="2.10884">
        <ele>130</ele>
        <time>2017-07-30T08:18:27.322Z</time>
      </trkpt>
      <trkpt lat="47.74696" lon="2.10884">
        <ele>130</ele>
        <time>2017-07-30T08:18:28.311Z</time>
      </trkpt>
      <trkpt lat="47.74703" lon="2.10887">
        <ele>131</ele>
        <time>2017-07-30T08:18:29.348Z</time>
      </trkpt>
      <trkpt lat="47.74703" lon="2.10887">
        <ele>131</ele>
        <time>2017-07-30T08:18:30.338Z</time>
      </trkpt>
      <trkpt lat="47.74711" lon="2.10891">
        <ele>131</ele>
        <time>2017-07-30T08:18:31.324Z</time>
      </trkpt>
      <trkpt lat="47.74711" lon="2.10891">
        <ele>131</ele>
        <time>2017-07-30T08:18:32.312Z</time>
      </trkpt>
      <trkpt lat="47.7472" lon="2.10894">
        <ele>132</ele>
        <time>2017-07-30T08:18:33.348Z</time>
      </trkpt>
      <trkpt lat="47.74724" lon="2.10896">
        <ele>132</ele>
        <time>2017-07-30T08:18:34.312Z</time>
      </trkpt>
      <trkpt lat="47.74724" lon="2.10896">
        <ele>132</ele>
        <time>2017-07-30T08:18:35.347Z</time>
      </trkpt>
      <trkpt lat="47.74733" lon="2.109">
        <ele>132</ele>
        <time>2017-07-30T08:18:36.348Z</time>
      </trkpt>
      <trkpt lat="47.74733" lon="2.109">
        <ele>132</ele>
        <time>2017-07-30T08:18:37.347Z</time>
      </trkpt>
      <trkpt lat="47.74741" lon="2.10903">
        <ele>132</ele>
        <time>2017-07-30T08:18:38.348Z</time>
      </trkpt>
      <trkpt lat="47.74741" lon="2.10903">
        <ele>132</ele>
        <time>2017-07-30T08:18:39.313Z</time>
      </trkpt>
      <trkpt lat="47.74749" lon="2.10905">
        <ele>132</ele>
        <time>2017-07-30T08:18:40.317Z</time>
      </trkpt>
      <trkpt lat="47.74749" lon="2.10905">
        <ele>132</ele>
        <time>2017-07-30T08:18:41.347Z</time>
      </trkpt>
      <trkpt lat="47.74758" lon="2.1091">
        <ele>132</ele>
        <time>2017-07-30T08:18:42.348Z</time>
      </trkpt>
      <trkpt lat="47.74758" lon="2.1091">
        <ele>132</ele>
        <time>2017-07-30T08:18:43.344Z</time>
      </trkpt>
      <trkpt lat="47.74766" lon="2.10914">
        <ele>132</ele>
        <time>2017-07-30T08:18:44.331Z</time>
      </trkpt>
      <trkpt lat="47.74766" lon="2.10914">
        <ele>132</ele>
        <time>2017-07-30T08:18:45.335Z</time>
      </trkpt>
      <trkpt lat="47.74774" lon="2.10917">
        <ele>132</ele>
        <time>2017-07-30T08:18:46.325Z</time>
      </trkpt>
      <trkpt lat="47.74774" lon="2.10917">
        <ele>132</ele>
        <time>2017-07-30T08:18:47.314Z</time>
      </trkpt>
      <trkpt lat="47.74782" lon="2.10921">
        <ele>131</ele>
        <time>2017-07-30T08:18:48.349Z</time>
      </trkpt>
      <trkpt lat="47.74782" lon="2.10921">
        <ele>131</ele>
        <time>2017-07-30T08:18:49.347Z</time>
      </trkpt>
      <trkpt lat="47.74789" lon="2.10923">
        <ele>131</ele>
        <time>2017-07-30T08:18:50.348Z</time>
      </trkpt>
      <trkpt lat="47.74789" lon="2.10923">
        <ele>131</ele>
        <time>2017-07-30T08:18:51.348Z</time>
      </trkpt>
      <trkpt lat="47.74799" lon="2.10927">
        <ele>131</ele>
        <time>2017-07-30T08:18:52.349Z</time>
      </trkpt>
      <trkpt lat="47.74799" lon="2.10927">
        <ele>131</ele>
        <time>2017-07-30T08:18:53.346Z</time>
      </trkpt>
      <trkpt lat="47.74808" lon="2.1093">
        <ele>131</ele>
        <time>2017-07-30T08:18:54.312Z</time>
      </trkpt>
      <trkpt lat="47.74813" lon="2.10931">
        <ele>131</ele>
        <time>2017-07-30T08:18:55.312Z</time>
      </trkpt>
      <trkpt lat="47.74813" lon="2.10931">
        <ele>131</ele>
        <time>2017-07-30T08:18:56.346Z</time>
      </trkpt>
      <trkpt lat="47.74822" lon="2.10933">
        <ele>131</ele>
        <time>2017-07-30T08:18:57.323Z</time>
      </trkpt>
      <trkpt lat="47.74822" lon="2.10933">
        <ele>131</ele>
        <time>2017-07-30T08:18:58.311Z</time>
      </trkpt>
      <trkpt lat="47.7483" lon="2.10935">
        <ele>130</ele>
        <time>2017-07-30T08:18:59.312Z</time>
      </trkpt>
      <trkpt lat="47.74834" lon="2.10935">
        <ele>130</ele>
        <time>2017-07-30T08:19:00.312Z</time>
      </trkpt>
      <trkpt lat="47.74834" lon="2.10935">
        <ele>130</ele>
        <time>2017-07-30T08:19:01.316Z</time>
      </trkpt>
      <trkpt lat="47.74846" lon="2.10937">
        <ele>130</ele>
        <time>2017-07-30T08:19:02.311Z</time>
      </trkpt>
      <trkpt lat="47.74851" lon="2.10939">
        <ele>130</ele>
        <time>2017-07-30T08:19:03.350Z</time>
      </trkpt>
      <trkpt lat="47.74851" lon="2.10939">
        <ele>130</ele>
        <time>2017-07-30T08:19:04.348Z</time>
      </trkpt>
      <trkpt lat="47.74862" lon="2.1094">
        <ele>130</ele>
        <time>2017-07-30T08:19:05.348Z</time>
      </trkpt>
      <trkpt lat="47.74867" lon="2.10941">
        <ele>130</ele>
        <time>2017-07-30T08:19:06.349Z</time>
      </trkpt>
      <trkpt lat="47.74867" lon="2.10941">
        <ele>130</ele>
        <time>2017-07-30T08:19:07.347Z</time>
      </trkpt>
      <trkpt lat="47.74876" lon="2.10943">
        <ele>131</ele>
        <time>2017-07-30T08:19:08.347Z</time>
      </trkpt>
      <trkpt lat="47.74876" lon="2.10943">
        <ele>131</ele>
        <time>2017-07-30T08:19:09.342Z</time>
      </trkpt>
      <trkpt lat="47.74883" lon="2.10944">
        <ele>131</ele>
        <time>2017-07-30T08:19:10.349Z</time>
      </trkpt>
      <trkpt lat="47.74883" lon="2.10944">
        <ele>131</ele>
        <time>2017-07-30T08:19:11.343Z</time>
      </trkpt>
      <trkpt lat="47.74892" lon="2.10945">
        <ele>130</ele>
        <time>2017-07-30T08:19:12.349Z</time>
      </trkpt>
      <trkpt lat="47.74892" lon="2.10945">
        <ele>130</ele>
        <time>2017-07-30T08:19:13.320Z</time>
      </trkpt>
      <trkpt lat="47.74901" lon="2.10946">
        <ele>130</ele>
        <time>2017-07-30T08:19:14.350Z</time>
      </trkpt>
      <trkpt lat="47.74901" lon="2.10946">
        <ele>130</ele>
        <time>2017-07-30T08:19:15.348Z</time>
      </trkpt>
      <trkpt lat="47.74909" lon="2.10946">
        <ele>130</ele>
        <time>2017-07-30T08:19:16.348Z</time>
      </trkpt>
      <trkpt lat="47.74909" lon="2.10946">
        <ele>130</ele>
        <time>2017-07-30T08:19:17.347Z</time>
      </trkpt>
      <trkpt lat="47.74917" lon="2.10947">
        <ele>130</ele>
        <time>2017-07-30T08:19:18.349Z</time>
      </trkpt>
      <trkpt lat="47.74917" lon="2.10947">
        <ele>130</ele>
        <time>2017-07-30T08:19:19.347Z</time>
      </trkpt>
      <trkpt lat="47.74926" lon="2.10947">
        <ele>130</ele>
        <time>2017-07-30T08:19:20.347Z</time>
      </trkpt>
      <trkpt lat="47.74926" lon="2.10947">
        <ele>130</ele>
        <time>2017-07-30T08:19:21.347Z</time>
      </trkpt>
      <trkpt lat="47.74935" lon="2.10948">
        <ele>129</ele>
        <time>2017-07-30T08:19:22.350Z</time>
      </trkpt>
      <trkpt lat="47.74935" lon="2.10948">
        <ele>129</ele>
        <time>2017-07-30T08:19:23.347Z</time>
      </trkpt>
      <trkpt lat="47.74943" lon="2.10948">
        <ele>129</ele>
        <time>2017-07-30T08:19:24.342Z</time>
      </trkpt>
      <trkpt lat="47.74947" lon="2.10949">
        <ele>129</ele>
        <time>2017-07-30T08:19:25.312Z</time>
      </trkpt>
      <trkpt lat="47.74947" lon="2.10949">
        <ele>129</ele>
        <time>2017-07-30T08:19:26.318Z</time>
      </trkpt>
      <trkpt lat="47.74956" lon="2.10951">
        <ele>129</ele>
        <time>2017-07-30T08:19:27.324Z</time>
      </trkpt>
      <trkpt lat="47.7496" lon="2.1095">
        <ele>129</ele>
        <time>2017-07-30T08:19:28.315Z</time>
      </trkpt>
      <trkpt lat="47.7496" lon="2.1095">
        <ele>129</ele>
        <time>2017-07-30T08:19:29.347Z</time>
      </trkpt>
      <trkpt lat="47.74969" lon="2.1095">
        <ele>130</ele>
        <time>2017-07-30T08:19:30.348Z</time>
      </trkpt>
      <trkpt lat="47.74969" lon="2.1095">
        <ele>130</ele>
        <time>2017-07-30T08:19:31.318Z</time>
      </trkpt>
      <trkpt lat="47.74978" lon="2.10952">
        <ele>131</ele>
        <time>2017-07-30T08:19:32.347Z</time>
      </trkpt>
      <trkpt lat="47.74978" lon="2.10952">
        <ele>131</ele>
        <time>2017-07-30T08:19:33.341Z</time>
      </trkpt>
      <trkpt lat="47.74987" lon="2.10952">
        <ele>131</ele>
        <time>2017-07-30T08:19:34.349Z</time>
      </trkpt>
      <trkpt lat="47.74987" lon="2.10952">
        <ele>131</ele>
        <time>2017-07-30T08:19:35.343Z</time>
      </trkpt>
      <trkpt lat="47.74996" lon="2.10952">
        <ele>131</ele>
        <time>2017-07-30T08:19:36.349Z</time>
      </trkpt>
      <trkpt lat="47.74996" lon="2.10952">
        <ele>131</ele>
        <time>2017-07-30T08:19:37.347Z</time>
      </trkpt>
      <trkpt lat="47.75006" lon="2.10954">
        <ele>130</ele>
        <time>2017-07-30T08:19:38.315Z</time>
      </trkpt>
      <trkpt lat="47.75006" lon="2.10954">
        <ele>130</ele>
        <time>2017-07-30T08:19:39.348Z</time>
      </trkpt>
      <trkpt lat="47.75015" lon="2.10955">
        <ele>130</ele>
        <time>2017-07-30T08:19:40.350Z</time>
      </trkpt>
      <trkpt lat="47.75019" lon="2.10956">
        <ele>130</ele>
        <time>2017-07-30T08:19:41.311Z</time>
      </trkpt>
      <trkpt lat="47.75019" lon="2.10956">
        <ele>130</ele>
        <time>2017-07-30T08:19:42.346Z</time>
      </trkpt>
      <trkpt lat="47.75028" lon="2.10957">
        <ele>129</ele>
        <time>2017-07-30T08:19:43.320Z</time>
      </trkpt>
      <trkpt lat="47.75028" lon="2.10957">
        <ele>129</ele>
        <time>2017-07-30T08:19:44.349Z</time>
      </trkpt>
      <trkpt lat="47.75037" lon="2.10958">
        <ele>129</ele>
        <time>2017-07-30T08:19:45.327Z</time>
      </trkpt>
      <trkpt lat="47.75041" lon="2.10959">
        <ele>129</ele>
        <time>2017-07-30T08:19:46.318Z</time>
      </trkpt>
      <trkpt lat="47.75041" lon="2.10959">
        <ele>129</ele>
        <time>2017-07-30T08:19:47.346Z</time>
      </trkpt>
      <trkpt lat="47.7505" lon="2.1096">
        <ele>128</ele>
        <time>2017-07-30T08:19:48.311Z</time>
      </trkpt>
      <trkpt lat="47.7505" lon="2.1096">
        <ele>128</ele>
        <time>2017-07-30T08:19:49.346Z</time>
      </trkpt>
      <trkpt lat="47.75058" lon="2.10961">
        <ele>128</ele>
        <time>2017-07-30T08:19:50.312Z</time>
      </trkpt>
      <trkpt lat="47.75062" lon="2.10961">
        <ele>128</ele>
        <time>2017-07-30T08:19:51.324Z</time>
      </trkpt>
      <trkpt lat="47.75062" lon="2.10961">
        <ele>128</ele>
        <time>2017-07-30T08:19:52.312Z</time>
      </trkpt>
      <trkpt lat="47.75071" lon="2.10961">
        <ele>128</ele>
        <time>2017-07-30T08:19:53.311Z</time>
      </trkpt>
      <trkpt lat="47.75075" lon="2.10961">
        <ele>128</ele>
        <time>2017-07-30T08:19:54.311Z</time>
      </trkpt>
      <trkpt lat="47.75075" lon="2.10961">
        <ele>128</ele>
        <time>2017-07-30T08:19:55.346Z</time>
      </trkpt>
      <trkpt lat="47.75084" lon="2.10961">
        <ele>127</ele>
        <time>2017-07-30T08:19:56.312Z</time>
      </trkpt>
      <trkpt lat="47.75084" lon="2.10961">
        <ele>127</ele>
        <time>2017-07-30T08:19:57.348Z</time>
      </trkpt>
      <trkpt lat="47.75093" lon="2.10961">
        <ele>128</ele>
        <time>2017-07-30T08:19:58.313Z</time>
      </trkpt>
      <trkpt lat="47.75093" lon="2.10961">
        <ele>128</ele>
        <time>2017-07-30T08:19:59.342Z</time>
      </trkpt>
      <trkpt lat="47.75102" lon="2.10961">
        <ele>128</ele>
        <time>2017-07-30T08:20:00.348Z</time>
      </trkpt>
      <trkpt lat="47.75102" lon="2.10961">
        <ele>128</ele>
        <time>2017-07-30T08:20:01.349Z</time>
      </trkpt>
      <trkpt lat="47.75111" lon="2.10961">
        <ele>128</ele>
        <time>2017-07-30T08:20:02.349Z</time>
      </trkpt>
      <trkpt lat="47.75111" lon="2.10961">
        <ele>128</ele>
        <time>2017-07-30T08:20:03.348Z</time>
      </trkpt>
      <trkpt lat="47.75121" lon="2.10962">
        <ele>127</ele>
        <time>2017-07-30T08:20:04.348Z</time>
      </trkpt>
      <trkpt lat="47.75121" lon="2.10962">
        <ele>127</ele>
        <time>2017-07-30T08:20:05.342Z</time>
      </trkpt>
      <trkpt lat="47.7513" lon="2.10962">
        <ele>128</ele>
        <time>2017-07-30T08:20:06.349Z</time>
      </trkpt>
      <trkpt lat="47.7513" lon="2.10962">
        <ele>128</ele>
        <time>2017-07-30T08:20:07.321Z</time>
      </trkpt>
      <trkpt lat="47.75142" lon="2.10963">
        <ele>129</ele>
        <time>2017-07-30T08:20:08.313Z</time>
      </trkpt>
      <trkpt lat="47.75142" lon="2.10963">
        <ele>129</ele>
        <time>2017-07-30T08:20:09.348Z</time>
      </trkpt>
      <trkpt lat="47.75151" lon="2.10963">
        <ele>129</ele>
        <time>2017-07-30T08:20:10.349Z</time>
      </trkpt>
      <trkpt lat="47.75151" lon="2.10963">
        <ele>129</ele>
        <time>2017-07-30T08:20:11.323Z</time>
      </trkpt>
      <trkpt lat="47.75159" lon="2.10963">
        <ele>128</ele>
        <time>2017-07-30T08:20:12.316Z</time>
      </trkpt>
      <trkpt lat="47.75159" lon="2.10963">
        <ele>128</ele>
        <time>2017-07-30T08:20:13.347Z</time>
      </trkpt>
      <trkpt lat="47.75166" lon="2.10965">
        <ele>128</ele>
        <time>2017-07-30T08:20:14.348Z</time>
      </trkpt>
      <trkpt lat="47.7517" lon="2.10966">
        <ele>128</ele>
        <time>2017-07-30T08:20:15.349Z</time>
      </trkpt>
      <trkpt lat="47.7517" lon="2.10966">
        <ele>128</ele>
        <time>2017-07-30T08:20:16.347Z</time>
      </trkpt>
      <trkpt lat="47.75177" lon="2.10969">
        <ele>129</ele>
        <time>2017-07-30T08:20:17.347Z</time>
      </trkpt>
      <trkpt lat="47.75177" lon="2.10969">
        <ele>129</ele>
        <time>2017-07-30T08:20:18.342Z</time>
      </trkpt>
      <trkpt lat="47.75186" lon="2.10972">
        <ele>129</ele>
        <time>2017-07-30T08:20:19.348Z</time>
      </trkpt>
      <trkpt lat="47.75186" lon="2.10972">
        <ele>129</ele>
        <time>2017-07-30T08:20:20.347Z</time>
      </trkpt>
      <trkpt lat="47.75195" lon="2.10975">
        <ele>130</ele>
        <time>2017-07-30T08:20:21.340Z</time>
      </trkpt>
      <trkpt lat="47.752" lon="2.10976">
        <ele>130</ele>
        <time>2017-07-30T08:20:22.350Z</time>
      </trkpt>
      <trkpt lat="47.752" lon="2.10976">
        <ele>130</ele>
        <time>2017-07-30T08:20:23.347Z</time>
      </trkpt>
      <trkpt lat="47.75211" lon="2.10979">
        <ele>130</ele>
        <time>2017-07-30T08:20:24.345Z</time>
      </trkpt>
      <trkpt lat="47.75217" lon="2.10981">
        <ele>130</ele>
        <time>2017-07-30T08:20:25.338Z</time>
      </trkpt>
      <trkpt lat="47.75217" lon="2.10981">
        <ele>130</ele>
        <time>2017-07-30T08:20:26.346Z</time>
      </trkpt>
      <trkpt lat="47.75228" lon="2.10986">
        <ele>128</ele>
        <time>2017-07-30T08:20:27.313Z</time>
      </trkpt>
      <trkpt lat="47.75234" lon="2.10987">
        <ele>128</ele>
        <time>2017-07-30T08:20:28.349Z</time>
      </trkpt>
      <trkpt lat="47.75234" lon="2.10987">
        <ele>128</ele>
        <time>2017-07-30T08:20:29.347Z</time>
      </trkpt>
      <trkpt lat="47.75244" lon="2.1099">
        <ele>128</ele>
        <time>2017-07-30T08:20:30.349Z</time>
      </trkpt>
      <trkpt lat="47.75244" lon="2.1099">
        <ele>128</ele>
        <time>2017-07-30T08:20:31.322Z</time>
      </trkpt>
      <trkpt lat="47.75255" lon="2.10994">
        <ele>128</ele>
        <time>2017-07-30T08:20:32.311Z</time>
      </trkpt>
      <trkpt lat="47.75255" lon="2.10994">
        <ele>128</ele>
        <time>2017-07-30T08:20:33.342Z</time>
      </trkpt>
      <trkpt lat="47.75267" lon="2.10998">
        <ele>128</ele>
        <time>2017-07-30T08:20:34.321Z</time>
      </trkpt>
      <trkpt lat="47.75267" lon="2.10998">
        <ele>128</ele>
        <time>2017-07-30T08:20:35.350Z</time>
      </trkpt>
      <trkpt lat="47.75278" lon="2.11001">
        <ele>128</ele>
        <time>2017-07-30T08:20:36.312Z</time>
      </trkpt>
      <trkpt lat="47.75284" lon="2.11003">
        <ele>129</ele>
        <time>2017-07-30T08:20:37.311Z</time>
      </trkpt>
      <trkpt lat="47.75284" lon="2.11003">
        <ele>129</ele>
        <time>2017-07-30T08:20:38.346Z</time>
      </trkpt>
      <trkpt lat="47.75297" lon="2.11007">
        <ele>128</ele>
        <time>2017-07-30T08:20:39.313Z</time>
      </trkpt>
      <trkpt lat="47.75297" lon="2.11007">
        <ele>128</ele>
        <time>2017-07-30T08:20:40.350Z</time>
      </trkpt>
      <trkpt lat="47.75309" lon="2.11011">
        <ele>128</ele>
        <time>2017-07-30T08:20:41.320Z</time>
      </trkpt>
      <trkpt lat="47.75309" lon="2.11011">
        <ele>128</ele>
        <time>2017-07-30T08:20:42.349Z</time>
      </trkpt>
      <trkpt lat="47.7532" lon="2.11013">
        <ele>128</ele>
        <time>2017-07-30T08:20:43.321Z</time>
      </trkpt>
      <trkpt lat="47.7532" lon="2.11013">
        <ele>128</ele>
        <time>2017-07-30T08:20:44.346Z</time>
      </trkpt>
      <trkpt lat="47.7533" lon="2.11017">
        <ele>129</ele>
        <time>2017-07-30T08:20:45.350Z</time>
      </trkpt>
      <trkpt lat="47.7533" lon="2.11017">
        <ele>129</ele>
        <time>2017-07-30T08:20:46.312Z</time>
      </trkpt>
      <trkpt lat="47.75339" lon="2.11019">
        <ele>129</ele>
        <time>2017-07-30T08:20:47.312Z</time>
      </trkpt>
      <trkpt lat="47.75339" lon="2.11019">
        <ele>129</ele>
        <time>2017-07-30T08:20:48.347Z</time>
      </trkpt>
      <trkpt lat="47.75347" lon="2.11023">
        <ele>130</ele>
        <time>2017-07-30T08:20:49.347Z</time>
      </trkpt>
      <trkpt lat="47.75347" lon="2.11023">
        <ele>130</ele>
        <time>2017-07-30T08:20:50.347Z</time>
      </trkpt>
      <trkpt lat="47.75356" lon="2.11027">
        <ele>130</ele>
        <time>2017-07-30T08:20:51.319Z</time>
      </trkpt>
      <trkpt lat="47.7536" lon="2.11028">
        <ele>130</ele>
        <time>2017-07-30T08:20:52.311Z</time>
      </trkpt>
      <trkpt lat="47.7536" lon="2.11028">
        <ele>130</ele>
        <time>2017-07-30T08:20:53.347Z</time>
      </trkpt>
      <trkpt lat="47.75369" lon="2.11032">
        <ele>132</ele>
        <time>2017-07-30T08:20:54.350Z</time>
      </trkpt>
      <trkpt lat="47.75369" lon="2.11032">
        <ele>132</ele>
        <time>2017-07-30T08:20:55.347Z</time>
      </trkpt>
      <trkpt lat="47.75376" lon="2.11036">
        <ele>133</ele>
        <time>2017-07-30T08:20:56.349Z</time>
      </trkpt>
      <trkpt lat="47.75376" lon="2.11036">
        <ele>133</ele>
        <time>2017-07-30T08:20:57.323Z</time>
      </trkpt>
      <trkpt lat="47.75385" lon="2.11038">
        <ele>134</ele>
        <time>2017-07-30T08:20:58.316Z</time>
      </trkpt>
      <trkpt lat="47.75385" lon="2.11038">
        <ele>134</ele>
        <time>2017-07-30T08:20:59.347Z</time>
      </trkpt>
      <trkpt lat="47.75392" lon="2.1104">
        <ele>134</ele>
        <time>2017-07-30T08:21:00.349Z</time>
      </trkpt>
      <trkpt lat="47.75392" lon="2.1104">
        <ele>134</ele>
        <time>2017-07-30T08:21:01.347Z</time>
      </trkpt>
      <trkpt lat="47.754" lon="2.11041">
        <ele>135</ele>
        <time>2017-07-30T08:21:02.350Z</time>
      </trkpt>
      <trkpt lat="47.754" lon="2.11041">
        <ele>135</ele>
        <time>2017-07-30T08:21:03.348Z</time>
      </trkpt>
      <trkpt lat="47.75406" lon="2.11044">
        <ele>135</ele>
        <time>2017-07-30T08:21:04.349Z</time>
      </trkpt>
      <trkpt lat="47.75406" lon="2.11044">
        <ele>135</ele>
        <time>2017-07-30T08:21:05.347Z</time>
      </trkpt>
      <trkpt lat="47.75417" lon="2.11048">
        <ele>135</ele>
        <time>2017-07-30T08:21:06.349Z</time>
      </trkpt>
      <trkpt lat="47.75417" lon="2.11048">
        <ele>135</ele>
        <time>2017-07-30T08:21:07.347Z</time>
      </trkpt>
      <trkpt lat="47.75425" lon="2.11049">
        <ele>135</ele>
        <time>2017-07-30T08:21:08.348Z</time>
      </trkpt>
      <trkpt lat="47.75425" lon="2.11049">
        <ele>135</ele>
        <time>2017-07-30T08:21:09.348Z</time>
      </trkpt>
      <trkpt lat="47.75433" lon="2.11051">
        <ele>135</ele>
        <time>2017-07-30T08:21:10.349Z</time>
      </trkpt>
      <trkpt lat="47.75433" lon="2.11051">
        <ele>135</ele>
        <time>2017-07-30T08:21:11.323Z</time>
      </trkpt>
      <trkpt lat="47.75438" lon="2.11052">
        <ele>135</ele>
        <time>2017-07-30T08:21:12.314Z</time>
      </trkpt>
      <trkpt lat="47.75438" lon="2.11052">
        <ele>135</ele>
        <time>2017-07-30T08:21:13.347Z</time>
      </trkpt>
      <trkpt lat="47.75444" lon="2.11054">
        <ele>135</ele>
        <time>2017-07-30T08:21:14.347Z</time>
      </trkpt>
      <trkpt lat="47.75447" lon="2.11055">
        <ele>135</ele>
        <time>2017-07-30T08:21:15.350Z</time>
      </trkpt>
      <trkpt lat="47.75447" lon="2.11055">
        <ele>135</ele>
        <time>2017-07-30T08:21:16.347Z</time>
      </trkpt>
      <trkpt lat="47.75453" lon="2.11057">
        <ele>134</ele>
        <time>2017-07-30T08:21:17.349Z</time>
      </trkpt>
      <trkpt lat="47.75456" lon="2.11058">
        <ele>134</ele>
        <time>2017-07-30T08:21:18.349Z</time>
      </trkpt>
      <trkpt lat="47.75456" lon="2.11058">
        <ele>134</ele>
        <time>2017-07-30T08:21:19.343Z</time>
      </trkpt>
      <trkpt lat="47.75461" lon="2.11059">
        <ele>133</ele>
        <time>2017-07-30T08:21:20.348Z</time>
      </trkpt>
      <trkpt lat="47.75461" lon="2.11059">
        <ele>133</ele>
        <time>2017-07-30T08:21:21.331Z</time>
      </trkpt>
      <trkpt lat="47.75466" lon="2.11061">
        <ele>132</ele>
        <time>2017-07-30T08:21:22.319Z</time>
      </trkpt>
      <trkpt lat="47.75466" lon="2.11061">
        <ele>132</ele>
        <time>2017-07-30T08:21:23.349Z</time>
      </trkpt>
      <trkpt lat="47.7547" lon="2.11064">
        <ele>132</ele>
        <time>2017-07-30T08:21:24.316Z</time>
      </trkpt>
      <trkpt lat="47.75472" lon="2.11065">
        <ele>132</ele>
        <time>2017-07-30T08:21:25.339Z</time>
      </trkpt>
      <trkpt lat="47.75472" lon="2.11065">
        <ele>132</ele>
        <time>2017-07-30T08:21:26.346Z</time>
      </trkpt>
      <trkpt lat="47.75476" lon="2.11065">
        <ele>131</ele>
        <time>2017-07-30T08:21:27.312Z</time>
      </trkpt>
      <trkpt lat="47.75479" lon="2.11066">
        <ele>131</ele>
        <time>2017-07-30T08:21:28.313Z</time>
      </trkpt>
      <trkpt lat="47.75479" lon="2.11066">
        <ele>131</ele>
        <time>2017-07-30T08:21:29.346Z</time>
      </trkpt>
      <trkpt lat="47.75483" lon="2.11068">
        <ele>130</ele>
        <time>2017-07-30T08:21:30.312Z</time>
      </trkpt>
      <trkpt lat="47.75486" lon="2.11069">
        <ele>130</ele>
        <time>2017-07-30T08:21:31.349Z</time>
      </trkpt>
      <trkpt lat="47.75486" lon="2.11069">
        <ele>130</ele>
        <time>2017-07-30T08:21:32.350Z</time>
      </trkpt>
      <trkpt lat="47.7549" lon="2.11069">
        <ele>130</ele>
        <time>2017-07-30T08:21:33.313Z</time>
      </trkpt>
      <trkpt lat="47.75492" lon="2.1107">
        <ele>130</ele>
        <time>2017-07-30T08:21:34.316Z</time>
      </trkpt>
      <trkpt lat="47.75492" lon="2.1107">
        <ele>130</ele>
        <time>2017-07-30T08:21:35.347Z</time>
      </trkpt>
      <trkpt lat="47.75496" lon="2.11072">
        <ele>129</ele>
        <time>2017-07-30T08:21:36.350Z</time>
      </trkpt>
      <trkpt lat="47.75496" lon="2.11072">
        <ele>129</ele>
        <time>2017-07-30T08:21:37.347Z</time>
      </trkpt>
      <trkpt lat="47.755" lon="2.11074">
        <ele>129</ele>
        <time>2017-07-30T08:21:38.317Z</time>
      </trkpt>
      <trkpt lat="47.755" lon="2.11074">
        <ele>129</ele>
        <time>2017-07-30T08:21:39.348Z</time>
      </trkpt>
      <trkpt lat="47.75506" lon="2.11077">
        <ele>128</ele>
        <time>2017-07-30T08:21:40.349Z</time>
      </trkpt>
      <trkpt lat="47.75506" lon="2.11077">
        <ele>128</ele>
        <time>2017-07-30T08:21:41.325Z</time>
      </trkpt>
      <trkpt lat="47.75512" lon="2.11079">
        <ele>128</ele>
        <time>2017-07-30T08:21:42.322Z</time>
      </trkpt>
      <trkpt lat="47.75512" lon="2.11079">
        <ele>128</ele>
        <time>2017-07-30T08:21:43.320Z</time>
      </trkpt>
      <trkpt lat="47.75519" lon="2.11082">
        <ele>128</ele>
        <time>2017-07-30T08:21:44.349Z</time>
      </trkpt>
      <trkpt lat="47.75519" lon="2.11082">
        <ele>128</ele>
        <time>2017-07-30T08:21:45.339Z</time>
      </trkpt>
      <trkpt lat="47.75526" lon="2.11085">
        <ele>127</ele>
        <time>2017-07-30T08:21:46.345Z</time>
      </trkpt>
      <trkpt lat="47.75526" lon="2.11085">
        <ele>127</ele>
        <time>2017-07-30T08:21:47.311Z</time>
      </trkpt>
      <trkpt lat="47.75534" lon="2.11087">
        <ele>127</ele>
        <time>2017-07-30T08:21:48.313Z</time>
      </trkpt>
      <trkpt lat="47.75534" lon="2.11087">
        <ele>127</ele>
        <time>2017-07-30T08:21:49.347Z</time>
      </trkpt>
      <trkpt lat="47.75541" lon="2.11089">
        <ele>127</ele>
        <time>2017-07-30T08:21:50.348Z</time>
      </trkpt>
      <trkpt lat="47.75541" lon="2.11089">
        <ele>127</ele>
        <time>2017-07-30T08:21:51.323Z</time>
      </trkpt>
      <trkpt lat="47.75549" lon="2.11091">
        <ele>128</ele>
        <time>2017-07-30T08:21:52.316Z</time>
      </trkpt>
      <trkpt lat="47.75554" lon="2.11092">
        <ele>127</ele>
        <time>2017-07-30T08:21:53.348Z</time>
      </trkpt>
      <trkpt lat="47.75559" lon="2.11094">
        <ele>127</ele>
        <time>2017-07-30T08:21:54.350Z</time>
      </trkpt>
      <trkpt lat="47.75559" lon="2.11094">
        <ele>127</ele>
        <time>2017-07-30T08:21:55.347Z</time>
      </trkpt>
      <trkpt lat="47.75569" lon="2.11098">
        <ele>127</ele>
        <time>2017-07-30T08:21:56.349Z</time>
      </trkpt>
      <trkpt lat="47.75569" lon="2.11098">
        <ele>127</ele>
        <time>2017-07-30T08:21:57.348Z</time>
      </trkpt>
      <trkpt lat="47.75578" lon="2.11102">
        <ele>128</ele>
        <time>2017-07-30T08:21:58.350Z</time>
      </trkpt>
      <trkpt lat="47.75578" lon="2.11102">
        <ele>128</ele>
        <time>2017-07-30T08:21:59.343Z</time>
      </trkpt>
      <trkpt lat="47.75588" lon="2.11106">
        <ele>128</ele>
        <time>2017-07-30T08:22:00.350Z</time>
      </trkpt>
      <trkpt lat="47.75588" lon="2.11106">
        <ele>128</ele>
        <time>2017-07-30T08:22:01.347Z</time>
      </trkpt>
      <trkpt lat="47.75598" lon="2.11109">
        <ele>128</ele>
        <time>2017-07-30T08:22:02.348Z</time>
      </trkpt>
      <trkpt lat="47.75603" lon="2.1111">
        <ele>128</ele>
        <time>2017-07-30T08:22:03.349Z</time>
      </trkpt>
      <trkpt lat="47.75609" lon="2.11112">
        <ele>128</ele>
        <time>2017-07-30T08:22:04.350Z</time>
      </trkpt>
      <trkpt lat="47.75609" lon="2.11112">
        <ele>128</ele>
        <time>2017-07-30T08:22:05.347Z</time>
      </trkpt>
      <trkpt lat="47.7562" lon="2.11116">
        <ele>128</ele>
        <time>2017-07-30T08:22:06.349Z</time>
      </trkpt>
      <trkpt lat="47.7562" lon="2.11116">
        <ele>128</ele>
        <time>2017-07-30T08:22:07.340Z</time>
      </trkpt>
      <trkpt lat="47.75631" lon="2.11119">
        <ele>129</ele>
        <time>2017-07-30T08:22:08.348Z</time>
      </trkpt>
      <trkpt lat="47.75637" lon="2.1112">
        <ele>129</ele>
        <time>2017-07-30T08:22:09.312Z</time>
      </trkpt>
      <trkpt lat="47.75644" lon="2.11122">
        <ele>128</ele>
        <time>2017-07-30T08:22:10.313Z</time>
      </trkpt>
      <trkpt lat="47.75644" lon="2.11122">
        <ele>128</ele>
        <time>2017-07-30T08:22:11.320Z</time>
      </trkpt>
      <trkpt lat="47.75656" lon="2.11126">
        <ele>128</ele>
        <time>2017-07-30T08:22:12.349Z</time>
      </trkpt>
      <trkpt lat="47.75661" lon="2.11127">
        <ele>129</ele>
        <time>2017-07-30T08:22:13.312Z</time>
      </trkpt>
      <trkpt lat="47.75667" lon="2.1113">
        <ele>128</ele>
        <time>2017-07-30T08:22:14.329Z</time>
      </trkpt>
      <trkpt lat="47.75667" lon="2.1113">
        <ele>128</ele>
        <time>2017-07-30T08:22:15.318Z</time>
      </trkpt>
      <trkpt lat="47.75678" lon="2.11133">
        <ele>127</ele>
        <time>2017-07-30T08:22:16.325Z</time>
      </trkpt>
      <trkpt lat="47.75678" lon="2.11133">
        <ele>127</ele>
        <time>2017-07-30T08:22:17.313Z</time>
      </trkpt>
      <trkpt lat="47.75689" lon="2.11136">
        <ele>127</ele>
        <time>2017-07-30T08:22:18.311Z</time>
      </trkpt>
      <trkpt lat="47.75695" lon="2.11139">
        <ele>126</ele>
        <time>2017-07-30T08:22:19.312Z</time>
      </trkpt>
      <trkpt lat="47.75695" lon="2.11139">
        <ele>126</ele>
        <time>2017-07-30T08:22:20.347Z</time>
      </trkpt>
      <trkpt lat="47.75707" lon="2.11143">
        <ele>126</ele>
        <time>2017-07-30T08:22:21.324Z</time>
      </trkpt>
      <trkpt lat="47.75712" lon="2.11145">
        <ele>126</ele>
        <time>2017-07-30T08:22:22.319Z</time>
      </trkpt>
      <trkpt lat="47.75712" lon="2.11145">
        <ele>126</ele>
        <time>2017-07-30T08:22:23.348Z</time>
      </trkpt>
      <trkpt lat="47.75724" lon="2.11149">
        <ele>125</ele>
        <time>2017-07-30T08:22:24.350Z</time>
      </trkpt>
      <trkpt lat="47.75729" lon="2.11151">
        <ele>125</ele>
        <time>2017-07-30T08:22:25.348Z</time>
      </trkpt>
      <trkpt lat="47.75729" lon="2.11151">
        <ele>125</ele>
        <time>2017-07-30T08:22:26.347Z</time>
      </trkpt>
      <trkpt lat="47.75741" lon="2.11154">
        <ele>124</ele>
        <time>2017-07-30T08:22:27.349Z</time>
      </trkpt>
      <trkpt lat="47.75747" lon="2.11156">
        <ele>124</ele>
        <time>2017-07-30T08:22:28.349Z</time>
      </trkpt>
      <trkpt lat="47.75747" lon="2.11156">
        <ele>124</ele>
        <time>2017-07-30T08:22:29.347Z</time>
      </trkpt>
      <trkpt lat="47.75758" lon="2.1116">
        <ele>125</ele>
        <time>2017-07-30T08:22:30.350Z</time>
      </trkpt>
      <trkpt lat="47.75758" lon="2.1116">
        <ele>125</ele>
        <time>2017-07-30T08:22:31.346Z</time>
      </trkpt>
      <trkpt lat="47.75769" lon="2.11164">
        <ele>125</ele>
        <time>2017-07-30T08:22:32.349Z</time>
      </trkpt>
      <trkpt lat="47.75769" lon="2.11164">
        <ele>125</ele>
        <time>2017-07-30T08:22:33.343Z</time>
      </trkpt>
      <trkpt lat="47.7578" lon="2.11167">
        <ele>125</ele>
        <time>2017-07-30T08:22:34.349Z</time>
      </trkpt>
      <trkpt lat="47.7578" lon="2.11167">
        <ele>125</ele>
        <time>2017-07-30T08:22:35.347Z</time>
      </trkpt>
      <trkpt lat="47.7579" lon="2.11171">
        <ele>125</ele>
        <time>2017-07-30T08:22:36.349Z</time>
      </trkpt>
      <trkpt lat="47.7579" lon="2.11171">
        <ele>125</ele>
        <time>2017-07-30T08:22:37.313Z</time>
      </trkpt>
      <trkpt lat="47.75802" lon="2.11174">
        <ele>126</ele>
        <time>2017-07-30T08:22:38.348Z</time>
      </trkpt>
      <trkpt lat="47.75802" lon="2.11174">
        <ele>126</ele>
        <time>2017-07-30T08:22:39.348Z</time>
      </trkpt>
      <trkpt lat="47.75812" lon="2.11178">
        <ele>125</ele>
        <time>2017-07-30T08:22:40.349Z</time>
      </trkpt>
      <trkpt lat="47.75812" lon="2.11178">
        <ele>125</ele>
        <time>2017-07-30T08:22:41.346Z</time>
      </trkpt>
      <trkpt lat="47.75821" lon="2.11183">
        <ele>126</ele>
        <time>2017-07-30T08:22:42.349Z</time>
      </trkpt>
      <trkpt lat="47.75821" lon="2.11183">
        <ele>126</ele>
        <time>2017-07-30T08:22:43.348Z</time>
      </trkpt>
      <trkpt lat="47.75832" lon="2.11186">
        <ele>127</ele>
        <time>2017-07-30T08:22:44.349Z</time>
      </trkpt>
      <trkpt lat="47.75832" lon="2.11186">
        <ele>127</ele>
        <time>2017-07-30T08:22:45.349Z</time>
      </trkpt>
      <trkpt lat="47.75843" lon="2.1119">
        <ele>127</ele>
        <time>2017-07-30T08:22:46.349Z</time>
      </trkpt>
      <trkpt lat="47.75843" lon="2.1119">
        <ele>127</ele>
        <time>2017-07-30T08:22:47.348Z</time>
      </trkpt>
      <trkpt lat="47.75853" lon="2.11194">
        <ele>127</ele>
        <time>2017-07-30T08:22:48.349Z</time>
      </trkpt>
      <trkpt lat="47.75853" lon="2.11194">
        <ele>127</ele>
        <time>2017-07-30T08:22:49.338Z</time>
      </trkpt>
      <trkpt lat="47.75864" lon="2.11197">
        <ele>127</ele>
        <time>2017-07-30T08:22:50.329Z</time>
      </trkpt>
      <trkpt lat="47.75864" lon="2.11197">
        <ele>127</ele>
        <time>2017-07-30T08:22:51.319Z</time>
      </trkpt>
      <trkpt lat="47.75875" lon="2.112">
        <ele>127</ele>
        <time>2017-07-30T08:22:52.317Z</time>
      </trkpt>
      <trkpt lat="47.75875" lon="2.112">
        <ele>127</ele>
        <time>2017-07-30T08:22:53.347Z</time>
      </trkpt>
      <trkpt lat="47.75886" lon="2.11203">
        <ele>128</ele>
        <time>2017-07-30T08:22:54.350Z</time>
      </trkpt>
      <trkpt lat="47.75886" lon="2.11203">
        <ele>128</ele>
        <time>2017-07-30T08:22:55.347Z</time>
      </trkpt>
      <trkpt lat="47.75896" lon="2.11207">
        <ele>129</ele>
        <time>2017-07-30T08:22:56.349Z</time>
      </trkpt>
      <trkpt lat="47.75896" lon="2.11207">
        <ele>129</ele>
        <time>2017-07-30T08:22:57.349Z</time>
      </trkpt>
      <trkpt lat="47.75907" lon="2.11211">
        <ele>128</ele>
        <time>2017-07-30T08:22:58.349Z</time>
      </trkpt>
      <trkpt lat="47.75907" lon="2.11211">
        <ele>128</ele>
        <time>2017-07-30T08:22:59.347Z</time>
      </trkpt>
      <trkpt lat="47.75918" lon="2.11214">
        <ele>128</ele>
        <time>2017-07-30T08:23:00.349Z</time>
      </trkpt>
      <trkpt lat="47.75918" lon="2.11214">
        <ele>128</ele>
        <time>2017-07-30T08:23:01.347Z</time>
      </trkpt>
      <trkpt lat="47.7593" lon="2.11218">
        <ele>128</ele>
        <time>2017-07-30T08:23:02.311Z</time>
      </trkpt>
      <trkpt lat="47.7593" lon="2.11218">
        <ele>128</ele>
        <time>2017-07-30T08:23:03.311Z</time>
      </trkpt>
      <trkpt lat="47.75941" lon="2.11222">
        <ele>128</ele>
        <time>2017-07-30T08:23:04.313Z</time>
      </trkpt>
      <trkpt lat="47.75941" lon="2.11222">
        <ele>128</ele>
        <time>2017-07-30T08:23:05.349Z</time>
      </trkpt>
      <trkpt lat="47.75953" lon="2.11225">
        <ele>127</ele>
        <time>2017-07-30T08:23:06.313Z</time>
      </trkpt>
      <trkpt lat="47.75959" lon="2.11227">
        <ele>127</ele>
        <time>2017-07-30T08:23:07.312Z</time>
      </trkpt>
      <trkpt lat="47.75959" lon="2.11227">
        <ele>127</ele>
        <time>2017-07-30T08:23:08.349Z</time>
      </trkpt>
      <trkpt lat="47.75972" lon="2.11231">
        <ele>127</ele>
        <time>2017-07-30T08:23:09.312Z</time>
      </trkpt>
      <trkpt lat="47.75972" lon="2.11231">
        <ele>127</ele>
        <time>2017-07-30T08:23:10.348Z</time>
      </trkpt>
      <trkpt lat="47.75982" lon="2.11235">
        <ele>127</ele>
        <time>2017-07-30T08:23:11.312Z</time>
      </trkpt>
      <trkpt lat="47.75988" lon="2.11236">
        <ele>128</ele>
        <time>2017-07-30T08:23:12.311Z</time>
      </trkpt>
      <trkpt lat="47.75988" lon="2.11236">
        <ele>128</ele>
        <time>2017-07-30T08:23:13.347Z</time>
      </trkpt>
      <trkpt lat="47.75999" lon="2.11239">
        <ele>127</ele>
        <time>2017-07-30T08:23:14.311Z</time>
      </trkpt>
      <trkpt lat="47.75999" lon="2.11239">
        <ele>127</ele>
        <time>2017-07-30T08:23:15.350Z</time>
      </trkpt>
      <trkpt lat="47.7601" lon="2.11243">
        <ele>127</ele>
        <time>2017-07-30T08:23:16.349Z</time>
      </trkpt>
      <trkpt lat="47.7601" lon="2.11243">
        <ele>127</ele>
        <time>2017-07-30T08:23:17.347Z</time>
      </trkpt>
      <trkpt lat="47.76021" lon="2.11246">
        <ele>127</ele>
        <time>2017-07-30T08:23:18.328Z</time>
      </trkpt>
      <trkpt lat="47.76021" lon="2.11246">
        <ele>127</ele>
        <time>2017-07-30T08:23:19.325Z</time>
      </trkpt>
      <trkpt lat="47.76032" lon="2.11248">
        <ele>128</ele>
        <time>2017-07-30T08:23:20.316Z</time>
      </trkpt>
      <trkpt lat="47.76032" lon="2.11248">
        <ele>128</ele>
        <time>2017-07-30T08:23:21.321Z</time>
      </trkpt>
      <trkpt lat="47.76043" lon="2.11252">
        <ele>128</ele>
        <time>2017-07-30T08:23:22.350Z</time>
      </trkpt>
      <trkpt lat="47.76043" lon="2.11252">
        <ele>128</ele>
        <time>2017-07-30T08:23:23.319Z</time>
      </trkpt>
      <trkpt lat="47.76054" lon="2.11255">
        <ele>127</ele>
        <time>2017-07-30T08:23:24.312Z</time>
      </trkpt>
      <trkpt lat="47.76054" lon="2.11255">
        <ele>127</ele>
        <time>2017-07-30T08:23:25.339Z</time>
      </trkpt>
      <trkpt lat="47.76065" lon="2.11258">
        <ele>127</ele>
        <time>2017-07-30T08:23:26.345Z</time>
      </trkpt>
      <trkpt lat="47.76065" lon="2.11258">
        <ele>127</ele>
        <time>2017-07-30T08:23:27.311Z</time>
      </trkpt>
      <trkpt lat="47.76073" lon="2.1126">
        <ele>127</ele>
        <time>2017-07-30T08:23:28.341Z</time>
      </trkpt>
      <trkpt lat="47.76073" lon="2.1126">
        <ele>127</ele>
        <time>2017-07-30T08:23:29.347Z</time>
      </trkpt>
      <trkpt lat="47.7608" lon="2.11262">
        <ele>127</ele>
        <time>2017-07-30T08:23:30.349Z</time>
      </trkpt>
      <trkpt lat="47.7608" lon="2.11262">
        <ele>127</ele>
        <time>2017-07-30T08:23:31.340Z</time>
      </trkpt>
      <trkpt lat="47.76086" lon="2.11265">
        <ele>127</ele>
        <time>2017-07-30T08:23:32.349Z</time>
      </trkpt>
      <trkpt lat="47.76089" lon="2.11266">
        <ele>126</ele>
        <time>2017-07-30T08:23:33.349Z</time>
      </trkpt>
      <trkpt lat="47.76089" lon="2.11266">
        <ele>126</ele>
        <time>2017-07-30T08:23:34.347Z</time>
      </trkpt>
      <trkpt lat="47.76092" lon="2.11267">
        <ele>125</ele>
        <time>2017-07-30T08:23:35.348Z</time>
      </trkpt>
      <trkpt lat="47.76093" lon="2.11268">
        <ele>125</ele>
        <time>2017-07-30T08:23:36.350Z</time>
      </trkpt>
      <trkpt lat="47.76093" lon="2.11268">
        <ele>125</ele>
        <time>2017-07-30T08:23:37.347Z</time>
      </trkpt>
      <trkpt lat="47.76093" lon="2.1127">
        <ele>127</ele>
        <time>2017-07-30T08:23:38.350Z</time>
      </trkpt>
      <trkpt lat="47.76093" lon="2.1127">
        <ele>127</ele>
        <time>2017-07-30T08:23:39.349Z</time>
      </trkpt>
      <trkpt lat="47.76093" lon="2.1127">
        <ele>127</ele>
        <time>2017-07-30T08:23:40.319Z</time>
      </trkpt>
      <trkpt lat="47.76111" lon="2.11279">
        <ele>133</ele>
        <time>2017-07-30T08:23:41.326Z</time>
      </trkpt>
      <trkpt lat="47.76111" lon="2.11279">
        <ele>133</ele>
        <time>2017-07-30T08:23:42.332Z</time>
      </trkpt>
      <trkpt lat="47.76115" lon="2.11282">
        <ele>133</ele>
        <time>2017-07-30T08:23:43.323Z</time>
      </trkpt>
      <trkpt lat="47.76115" lon="2.11282">
        <ele>133</ele>
        <time>2017-07-30T08:23:44.323Z</time>
      </trkpt>
      <trkpt lat="47.76116" lon="2.1128">
        <ele>133</ele>
        <time>2017-07-30T08:23:45.319Z</time>
      </trkpt>
      <trkpt lat="47.76117" lon="2.11279">
        <ele>133</ele>
        <time>2017-07-30T08:23:46.324Z</time>
      </trkpt>
      <trkpt lat="47.76117" lon="2.11279">
        <ele>133</ele>
        <time>2017-07-30T08:23:47.324Z</time>
      </trkpt>
      <trkpt lat="47.76121" lon="2.11274">
        <ele>133</ele>
        <time>2017-07-30T08:23:48.316Z</time>
      </trkpt>
      <trkpt lat="47.76121" lon="2.11274">
        <ele>133</ele>
        <time>2017-07-30T08:23:49.348Z</time>
      </trkpt>
      <trkpt lat="47.76126" lon="2.11267">
        <ele>133</ele>
        <time>2017-07-30T08:23:50.316Z</time>
      </trkpt>
      <trkpt lat="47.76126" lon="2.11267">
        <ele>133</ele>
        <time>2017-07-30T08:23:51.320Z</time>
      </trkpt>
      <trkpt lat="47.76133" lon="2.11259">
        <ele>133</ele>
        <time>2017-07-30T08:23:52.316Z</time>
      </trkpt>
      <trkpt lat="47.76133" lon="2.11259">
        <ele>133</ele>
        <time>2017-07-30T08:23:53.348Z</time>
      </trkpt>
      <trkpt lat="47.76141" lon="2.11251">
        <ele>133</ele>
        <time>2017-07-30T08:23:54.314Z</time>
      </trkpt>
      <trkpt lat="47.76141" lon="2.11251">
        <ele>133</ele>
        <time>2017-07-30T08:23:55.350Z</time>
      </trkpt>
      <trkpt lat="47.76148" lon="2.11241">
        <ele>132</ele>
        <time>2017-07-30T08:23:56.314Z</time>
      </trkpt>
      <trkpt lat="47.76148" lon="2.11241">
        <ele>132</ele>
        <time>2017-07-30T08:23:57.349Z</time>
      </trkpt>
      <trkpt lat="47.76158" lon="2.11232">
        <ele>132</ele>
        <time>2017-07-30T08:23:58.314Z</time>
      </trkpt>
      <trkpt lat="47.76158" lon="2.11232">
        <ele>132</ele>
        <time>2017-07-30T08:23:59.311Z</time>
      </trkpt>
      <trkpt lat="47.76166" lon="2.11222">
        <ele>131</ele>
        <time>2017-07-30T08:24:00.311Z</time>
      </trkpt>
      <trkpt lat="47.76166" lon="2.11222">
        <ele>131</ele>
        <time>2017-07-30T08:24:01.348Z</time>
      </trkpt>
      <trkpt lat="47.76175" lon="2.11211">
        <ele>131</ele>
        <time>2017-07-30T08:24:02.313Z</time>
      </trkpt>
      <trkpt lat="47.76175" lon="2.11211">
        <ele>131</ele>
        <time>2017-07-30T08:24:03.348Z</time>
      </trkpt>
      <trkpt lat="47.76185" lon="2.112">
        <ele>130</ele>
        <time>2017-07-30T08:24:04.322Z</time>
      </trkpt>
      <trkpt lat="47.76185" lon="2.112">
        <ele>130</ele>
        <time>2017-07-30T08:24:05.311Z</time>
      </trkpt>
      <trkpt lat="47.76194" lon="2.11189">
        <ele>130</ele>
        <time>2017-07-30T08:24:06.311Z</time>
      </trkpt>
      <trkpt lat="47.76194" lon="2.11189">
        <ele>130</ele>
        <time>2017-07-30T08:24:07.349Z</time>
      </trkpt>
      <trkpt lat="47.76202" lon="2.11179">
        <ele>130</ele>
        <time>2017-07-30T08:24:08.349Z</time>
      </trkpt>
      <trkpt lat="47.76202" lon="2.11179">
        <ele>130</ele>
        <time>2017-07-30T08:24:09.350Z</time>
      </trkpt>
      <trkpt lat="47.7621" lon="2.11169">
        <ele>131</ele>
        <time>2017-07-30T08:24:10.311Z</time>
      </trkpt>
      <trkpt lat="47.7621" lon="2.11169">
        <ele>131</ele>
        <time>2017-07-30T08:24:11.349Z</time>
      </trkpt>
      <trkpt lat="47.76218" lon="2.11158">
        <ele>131</ele>
        <time>2017-07-30T08:24:12.311Z</time>
      </trkpt>
      <trkpt lat="47.76218" lon="2.11158">
        <ele>131</ele>
        <time>2017-07-30T08:24:13.349Z</time>
      </trkpt>
      <trkpt lat="47.76225" lon="2.11148">
        <ele>132</ele>
        <time>2017-07-30T08:24:14.349Z</time>
      </trkpt>
      <trkpt lat="47.76225" lon="2.11148">
        <ele>132</ele>
        <time>2017-07-30T08:24:15.350Z</time>
      </trkpt>
      <trkpt lat="47.76233" lon="2.11139">
        <ele>132</ele>
        <time>2017-07-30T08:24:16.322Z</time>
      </trkpt>
      <trkpt lat="47.76233" lon="2.11139">
        <ele>132</ele>
        <time>2017-07-30T08:24:17.350Z</time>
      </trkpt>
      <trkpt lat="47.76241" lon="2.1113">
        <ele>132</ele>
        <time>2017-07-30T08:24:18.312Z</time>
      </trkpt>
      <trkpt lat="47.76241" lon="2.1113">
        <ele>132</ele>
        <time>2017-07-30T08:24:19.344Z</time>
      </trkpt>
      <trkpt lat="47.76251" lon="2.11122">
        <ele>132</ele>
        <time>2017-07-30T08:24:20.321Z</time>
      </trkpt>
      <trkpt lat="47.76251" lon="2.11122">
        <ele>132</ele>
        <time>2017-07-30T08:24:21.350Z</time>
      </trkpt>
      <trkpt lat="47.7626" lon="2.11115">
        <ele>132</ele>
        <time>2017-07-30T08:24:22.312Z</time>
      </trkpt>
      <trkpt lat="47.7626" lon="2.11115">
        <ele>132</ele>
        <time>2017-07-30T08:24:23.349Z</time>
      </trkpt>
      <trkpt lat="47.76268" lon="2.11108">
        <ele>132</ele>
        <time>2017-07-30T08:24:24.311Z</time>
      </trkpt>
      <trkpt lat="47.76268" lon="2.11108">
        <ele>132</ele>
        <time>2017-07-30T08:24:25.324Z</time>
      </trkpt>
      <trkpt lat="47.76274" lon="2.11099">
        <ele>132</ele>
        <time>2017-07-30T08:24:26.337Z</time>
      </trkpt>
      <trkpt lat="47.76274" lon="2.11099">
        <ele>132</ele>
        <time>2017-07-30T08:24:27.350Z</time>
      </trkpt>
      <trkpt lat="47.76278" lon="2.11092">
        <ele>132</ele>
        <time>2017-07-30T08:24:28.312Z</time>
      </trkpt>
      <trkpt lat="47.76278" lon="2.11092">
        <ele>132</ele>
        <time>2017-07-30T08:24:29.349Z</time>
      </trkpt>
      <trkpt lat="47.76284" lon="2.11085">
        <ele>133</ele>
        <time>2017-07-30T08:24:30.349Z</time>
      </trkpt>
      <trkpt lat="47.76287" lon="2.11082">
        <ele>133</ele>
        <time>2017-07-30T08:24:31.350Z</time>
      </trkpt>
      <trkpt lat="47.76287" lon="2.11082">
        <ele>133</ele>
        <time>2017-07-30T08:24:32.349Z</time>
      </trkpt>
      <trkpt lat="47.76294" lon="2.11073">
        <ele>134</ele>
        <time>2017-07-30T08:24:33.311Z</time>
      </trkpt>
      <trkpt lat="47.76294" lon="2.11073">
        <ele>134</ele>
        <time>2017-07-30T08:24:34.349Z</time>
      </trkpt>
      <trkpt lat="47.76301" lon="2.11066">
        <ele>134</ele>
        <time>2017-07-30T08:24:35.349Z</time>
      </trkpt>
      <trkpt lat="47.76304" lon="2.11062">
        <ele>135</ele>
        <time>2017-07-30T08:24:36.311Z</time>
      </trkpt>
      <trkpt lat="47.76308" lon="2.11059">
        <ele>135</ele>
        <time>2017-07-30T08:24:37.314Z</time>
      </trkpt>
      <trkpt lat="47.76308" lon="2.11059">
        <ele>135</ele>
        <time>2017-07-30T08:24:38.312Z</time>
      </trkpt>
      <trkpt lat="47.76316" lon="2.11051">
        <ele>135</ele>
        <time>2017-07-30T08:24:39.315Z</time>
      </trkpt>
      <trkpt lat="47.7632" lon="2.11047">
        <ele>135</ele>
        <time>2017-07-30T08:24:40.315Z</time>
      </trkpt>
      <trkpt lat="47.7632" lon="2.11047">
        <ele>135</ele>
        <time>2017-07-30T08:24:41.350Z</time>
      </trkpt>
      <trkpt lat="47.76327" lon="2.11039">
        <ele>135</ele>
        <time>2017-07-30T08:24:42.314Z</time>
      </trkpt>
      <trkpt lat="47.76327" lon="2.11039">
        <ele>135</ele>
        <time>2017-07-30T08:24:43.326Z</time>
      </trkpt>
      <trkpt lat="47.76333" lon="2.11032">
        <ele>136</ele>
        <time>2017-07-30T08:24:44.329Z</time>
      </trkpt>
      <trkpt lat="47.76335" lon="2.1103">
        <ele>137</ele>
        <time>2017-07-30T08:24:45.318Z</time>
      </trkpt>
      <trkpt lat="47.76339" lon="2.11028">
        <ele>137</ele>
        <time>2017-07-30T08:24:46.326Z</time>
      </trkpt>
      <trkpt lat="47.76343" lon="2.11023">
        <ele>138</ele>
        <time>2017-07-30T08:24:47.341Z</time>
      </trkpt>
      <trkpt lat="47.76343" lon="2.11023">
        <ele>138</ele>
        <time>2017-07-30T08:24:48.313Z</time>
      </trkpt>
      <trkpt lat="47.76351" lon="2.11015">
        <ele>138</ele>
        <time>2017-07-30T08:24:49.316Z</time>
      </trkpt>
      <trkpt lat="47.76351" lon="2.11015">
        <ele>138</ele>
        <time>2017-07-30T08:24:50.327Z</time>
      </trkpt>
      <trkpt lat="47.76359" lon="2.11006">
        <ele>138</ele>
        <time>2017-07-30T08:24:51.325Z</time>
      </trkpt>
      <trkpt lat="47.76359" lon="2.11006">
        <ele>138</ele>
        <time>2017-07-30T08:24:52.317Z</time>
      </trkpt>
      <trkpt lat="47.76366" lon="2.10997">
        <ele>139</ele>
        <time>2017-07-30T08:24:53.312Z</time>
      </trkpt>
      <trkpt lat="47.76366" lon="2.10997">
        <ele>139</ele>
        <time>2017-07-30T08:24:54.342Z</time>
      </trkpt>
      <trkpt lat="47.76372" lon="2.10991">
        <ele>138</ele>
        <time>2017-07-30T08:24:55.313Z</time>
      </trkpt>
      <trkpt lat="47.76372" lon="2.10991">
        <ele>138</ele>
        <time>2017-07-30T08:24:56.350Z</time>
      </trkpt>
      <trkpt lat="47.76378" lon="2.10986">
        <ele>138</ele>
        <time>2017-07-30T08:24:57.313Z</time>
      </trkpt>
      <trkpt lat="47.76378" lon="2.10986">
        <ele>138</ele>
        <time>2017-07-30T08:24:58.349Z</time>
      </trkpt>
      <trkpt lat="47.76384" lon="2.1098">
        <ele>137</ele>
        <time>2017-07-30T08:24:59.313Z</time>
      </trkpt>
      <trkpt lat="47.76387" lon="2.10977">
        <ele>137</ele>
        <time>2017-07-30T08:25:00.313Z</time>
      </trkpt>
      <trkpt lat="47.76387" lon="2.10977">
        <ele>137</ele>
        <time>2017-07-30T08:25:01.349Z</time>
      </trkpt>
      <trkpt lat="47.76394" lon="2.1097">
        <ele>136</ele>
        <time>2017-07-30T08:25:02.350Z</time>
      </trkpt>
      <trkpt lat="47.76397" lon="2.10966">
        <ele>136</ele>
        <time>2017-07-30T08:25:03.312Z</time>
      </trkpt>
      <trkpt lat="47.76397" lon="2.10966">
        <ele>136</ele>
        <time>2017-07-30T08:25:04.316Z</time>
      </trkpt>
      <trkpt lat="47.76404" lon="2.10959">
        <ele>136</ele>
        <time>2017-07-30T08:25:05.312Z</time>
      </trkpt>
      <trkpt lat="47.76407" lon="2.10955">
        <ele>136</ele>
        <time>2017-07-30T08:25:06.350Z</time>
      </trkpt>
      <trkpt lat="47.76411" lon="2.10951">
        <ele>136</ele>
        <time>2017-07-30T08:25:07.314Z</time>
      </trkpt>
      <trkpt lat="47.76416" lon="2.10947">
        <ele>136</ele>
        <time>2017-07-30T08:25:08.319Z</time>
      </trkpt>
      <trkpt lat="47.76416" lon="2.10947">
        <ele>136</ele>
        <time>2017-07-30T08:25:09.350Z</time>
      </trkpt>
      <trkpt lat="47.76425" lon="2.10939">
        <ele>135</ele>
        <time>2017-07-30T08:25:10.349Z</time>
      </trkpt>
      <trkpt lat="47.76429" lon="2.10934">
        <ele>135</ele>
        <time>2017-07-30T08:25:11.325Z</time>
      </trkpt>
      <trkpt lat="47.76429" lon="2.10934">
        <ele>135</ele>
        <time>2017-07-30T08:25:12.313Z</time>
      </trkpt>
      <trkpt lat="47.76434" lon="2.10928">
        <ele>135</ele>
        <time>2017-07-30T08:25:13.318Z</time>
      </trkpt>
      <trkpt lat="47.76434" lon="2.10928">
        <ele>135</ele>
        <time>2017-07-30T08:25:14.349Z</time>
      </trkpt>
      <trkpt lat="47.76438" lon="2.1093">
        <ele>136</ele>
        <time>2017-07-30T08:25:15.320Z</time>
      </trkpt>
      <trkpt lat="47.76438" lon="2.1093">
        <ele>136</ele>
        <time>2017-07-30T08:25:16.350Z</time>
      </trkpt>
      <trkpt lat="47.76442" lon="2.10937">
        <ele>135</ele>
        <time>2017-07-30T08:25:17.349Z</time>
      </trkpt>
      <trkpt lat="47.76442" lon="2.10937">
        <ele>135</ele>
        <time>2017-07-30T08:25:18.349Z</time>
      </trkpt>
      <trkpt lat="47.76446" lon="2.10945">
        <ele>135</ele>
        <time>2017-07-30T08:25:19.349Z</time>
      </trkpt>
      <trkpt lat="47.76448" lon="2.10949">
        <ele>135</ele>
        <time>2017-07-30T08:25:20.312Z</time>
      </trkpt>
      <trkpt lat="47.76449" lon="2.10953">
        <ele>135</ele>
        <time>2017-07-30T08:25:21.314Z</time>
      </trkpt>
      <trkpt lat="47.76449" lon="2.10953">
        <ele>135</ele>
        <time>2017-07-30T08:25:22.311Z</time>
      </trkpt>
      <trkpt lat="47.76452" lon="2.10962">
        <ele>136</ele>
        <time>2017-07-30T08:25:23.313Z</time>
      </trkpt>
      <trkpt lat="47.76452" lon="2.10962">
        <ele>136</ele>
        <time>2017-07-30T08:25:24.343Z</time>
      </trkpt>
      <trkpt lat="47.76456" lon="2.1097">
        <ele>136</ele>
        <time>2017-07-30T08:25:25.314Z</time>
      </trkpt>
      <trkpt lat="47.76457" lon="2.10975">
        <ele>136</ele>
        <time>2017-07-30T08:25:26.321Z</time>
      </trkpt>
      <trkpt lat="47.76459" lon="2.1098">
        <ele>136</ele>
        <time>2017-07-30T08:25:27.318Z</time>
      </trkpt>
      <trkpt lat="47.76459" lon="2.1098">
        <ele>136</ele>
        <time>2017-07-30T08:25:28.312Z</time>
      </trkpt>
      <trkpt lat="47.76461" lon="2.1099">
        <ele>136</ele>
        <time>2017-07-30T08:25:29.316Z</time>
      </trkpt>
      <trkpt lat="47.76461" lon="2.1099">
        <ele>136</ele>
        <time>2017-07-30T08:25:30.346Z</time>
      </trkpt>
      <trkpt lat="47.76464" lon="2.11003">
        <ele>136</ele>
        <time>2017-07-30T08:25:31.315Z</time>
      </trkpt>
      <trkpt lat="47.76464" lon="2.11003">
        <ele>136</ele>
        <time>2017-07-30T08:25:32.312Z</time>
      </trkpt>
      <trkpt lat="47.76465" lon="2.11015">
        <ele>137</ele>
        <time>2017-07-30T08:25:33.312Z</time>
      </trkpt>
      <trkpt lat="47.76465" lon="2.11015">
        <ele>137</ele>
        <time>2017-07-30T08:25:34.313Z</time>
      </trkpt>
      <trkpt lat="47.76468" lon="2.11027">
        <ele>137</ele>
        <time>2017-07-30T08:25:35.316Z</time>
      </trkpt>
      <trkpt lat="47.7647" lon="2.11032">
        <ele>137</ele>
        <time>2017-07-30T08:25:36.316Z</time>
      </trkpt>
      <trkpt lat="47.7647" lon="2.11032">
        <ele>137</ele>
        <time>2017-07-30T08:25:37.312Z</time>
      </trkpt>
      <trkpt lat="47.76473" lon="2.11042">
        <ele>137</ele>
        <time>2017-07-30T08:25:38.314Z</time>
      </trkpt>
      <trkpt lat="47.76475" lon="2.11047">
        <ele>137</ele>
        <time>2017-07-30T08:25:39.342Z</time>
      </trkpt>
      <trkpt lat="47.76475" lon="2.11047">
        <ele>137</ele>
        <time>2017-07-30T08:25:40.349Z</time>
      </trkpt>
      <trkpt lat="47.76477" lon="2.11059">
        <ele>136</ele>
        <time>2017-07-30T08:25:41.325Z</time>
      </trkpt>
      <trkpt lat="47.76477" lon="2.11059">
        <ele>136</ele>
        <time>2017-07-30T08:25:42.313Z</time>
      </trkpt>
      <trkpt lat="47.7648" lon="2.11069">
        <ele>137</ele>
        <time>2017-07-30T08:25:43.325Z</time>
      </trkpt>
      <trkpt lat="47.7648" lon="2.11069">
        <ele>137</ele>
        <time>2017-07-30T08:25:44.311Z</time>
      </trkpt>
      <trkpt lat="47.76481" lon="2.11083">
        <ele>137</ele>
        <time>2017-07-30T08:25:45.313Z</time>
      </trkpt>
      <trkpt lat="47.76481" lon="2.11083">
        <ele>137</ele>
        <time>2017-07-30T08:25:46.349Z</time>
      </trkpt>
      <trkpt lat="47.76479" lon="2.11099">
        <ele>137</ele>
        <time>2017-07-30T08:25:47.349Z</time>
      </trkpt>
      <trkpt lat="47.76481" lon="2.11103">
        <ele>137</ele>
        <time>2017-07-30T08:25:48.314Z</time>
      </trkpt>
      <trkpt lat="47.76481" lon="2.11103">
        <ele>137</ele>
        <time>2017-07-30T08:25:49.349Z</time>
      </trkpt>
      <trkpt lat="47.76484" lon="2.11115">
        <ele>138</ele>
        <time>2017-07-30T08:25:50.311Z</time>
      </trkpt>
      <trkpt lat="47.76484" lon="2.11115">
        <ele>138</ele>
        <time>2017-07-30T08:25:51.313Z</time>
      </trkpt>
      <trkpt lat="47.76486" lon="2.11128">
        <ele>138</ele>
        <time>2017-07-30T08:25:52.330Z</time>
      </trkpt>
      <trkpt lat="47.76486" lon="2.11128">
        <ele>138</ele>
        <time>2017-07-30T08:25:53.319Z</time>
      </trkpt>
      <trkpt lat="47.7649" lon="2.1114">
        <ele>139</ele>
        <time>2017-07-30T08:25:54.350Z</time>
      </trkpt>
      <trkpt lat="47.76492" lon="2.11146">
        <ele>139</ele>
        <time>2017-07-30T08:25:55.311Z</time>
      </trkpt>
      <trkpt lat="47.76492" lon="2.11146">
        <ele>139</ele>
        <time>2017-07-30T08:25:56.349Z</time>
      </trkpt>
      <trkpt lat="47.76493" lon="2.11158">
        <ele>139</ele>
        <time>2017-07-30T08:25:57.314Z</time>
      </trkpt>
      <trkpt lat="47.76493" lon="2.11158">
        <ele>139</ele>
        <time>2017-07-30T08:25:58.349Z</time>
      </trkpt>
      <trkpt lat="47.76496" lon="2.1117">
        <ele>139</ele>
        <time>2017-07-30T08:25:59.311Z</time>
      </trkpt>
      <trkpt lat="47.76497" lon="2.11176">
        <ele>139</ele>
        <time>2017-07-30T08:26:00.313Z</time>
      </trkpt>
      <trkpt lat="47.76498" lon="2.11183">
        <ele>139</ele>
        <time>2017-07-30T08:26:01.313Z</time>
      </trkpt>
      <trkpt lat="47.76498" lon="2.11183">
        <ele>139</ele>
        <time>2017-07-30T08:26:02.349Z</time>
      </trkpt>
      <trkpt lat="47.765" lon="2.11196">
        <ele>139</ele>
        <time>2017-07-30T08:26:03.344Z</time>
      </trkpt>
      <trkpt lat="47.76501" lon="2.11201">
        <ele>139</ele>
        <time>2017-07-30T08:26:04.311Z</time>
      </trkpt>
      <trkpt lat="47.76502" lon="2.11207">
        <ele>139</ele>
        <time>2017-07-30T08:26:05.312Z</time>
      </trkpt>
      <trkpt lat="47.76502" lon="2.11207">
        <ele>139</ele>
        <time>2017-07-30T08:26:06.349Z</time>
      </trkpt>
      <trkpt lat="47.76504" lon="2.11219">
        <ele>139</ele>
        <time>2017-07-30T08:26:07.316Z</time>
      </trkpt>
      <trkpt lat="47.76506" lon="2.11224">
        <ele>139</ele>
        <time>2017-07-30T08:26:08.311Z</time>
      </trkpt>
      <trkpt lat="47.76506" lon="2.11224">
        <ele>139</ele>
        <time>2017-07-30T08:26:09.313Z</time>
      </trkpt>
      <trkpt lat="47.76508" lon="2.11235">
        <ele>139</ele>
        <time>2017-07-30T08:26:10.313Z</time>
      </trkpt>
      <trkpt lat="47.76508" lon="2.11235">
        <ele>139</ele>
        <time>2017-07-30T08:26:11.348Z</time>
      </trkpt>
      <trkpt lat="47.7651" lon="2.11246">
        <ele>139</ele>
        <time>2017-07-30T08:26:12.318Z</time>
      </trkpt>
      <trkpt lat="47.7651" lon="2.11246">
        <ele>139</ele>
        <time>2017-07-30T08:26:13.349Z</time>
      </trkpt>
      <trkpt lat="47.76512" lon="2.11257">
        <ele>139</ele>
        <time>2017-07-30T08:26:14.315Z</time>
      </trkpt>
      <trkpt lat="47.76512" lon="2.11257">
        <ele>139</ele>
        <time>2017-07-30T08:26:15.313Z</time>
      </trkpt>
      <trkpt lat="47.76514" lon="2.11269">
        <ele>139</ele>
        <time>2017-07-30T08:26:16.321Z</time>
      </trkpt>
      <trkpt lat="47.76514" lon="2.11269">
        <ele>139</ele>
        <time>2017-07-30T08:26:17.318Z</time>
      </trkpt>
      <trkpt lat="47.76516" lon="2.11281">
        <ele>139</ele>
        <time>2017-07-30T08:26:18.317Z</time>
      </trkpt>
      <trkpt lat="47.76516" lon="2.11281">
        <ele>139</ele>
        <time>2017-07-30T08:26:19.312Z</time>
      </trkpt>
      <trkpt lat="47.76518" lon="2.11293">
        <ele>138</ele>
        <time>2017-07-30T08:26:20.316Z</time>
      </trkpt>
      <trkpt lat="47.7652" lon="2.11299">
        <ele>138</ele>
        <time>2017-07-30T08:26:21.325Z</time>
      </trkpt>
      <trkpt lat="47.7652" lon="2.11299">
        <ele>138</ele>
        <time>2017-07-30T08:26:22.313Z</time>
      </trkpt>
      <trkpt lat="47.7652" lon="2.11312">
        <ele>138</ele>
        <time>2017-07-30T08:26:23.315Z</time>
      </trkpt>
      <trkpt lat="47.7652" lon="2.11312">
        <ele>138</ele>
        <time>2017-07-30T08:26:24.341Z</time>
      </trkpt>
      <trkpt lat="47.76522" lon="2.11325">
        <ele>138</ele>
        <time>2017-07-30T08:26:25.350Z</time>
      </trkpt>
      <trkpt lat="47.76523" lon="2.11333">
        <ele>138</ele>
        <time>2017-07-30T08:26:26.316Z</time>
      </trkpt>
      <trkpt lat="47.76523" lon="2.11333">
        <ele>138</ele>
        <time>2017-07-30T08:26:27.322Z</time>
      </trkpt>
      <trkpt lat="47.76526" lon="2.11347">
        <ele>138</ele>
        <time>2017-07-30T08:26:28.320Z</time>
      </trkpt>
      <trkpt lat="47.76526" lon="2.11347">
        <ele>138</ele>
        <time>2017-07-30T08:26:29.349Z</time>
      </trkpt>
      <trkpt lat="47.76528" lon="2.11362">
        <ele>138</ele>
        <time>2017-07-30T08:26:30.350Z</time>
      </trkpt>
      <trkpt lat="47.76528" lon="2.11369">
        <ele>138</ele>
        <time>2017-07-30T08:26:31.329Z</time>
      </trkpt>
      <trkpt lat="47.76528" lon="2.11369">
        <ele>138</ele>
        <time>2017-07-30T08:26:32.318Z</time>
      </trkpt>
      <trkpt lat="47.76531" lon="2.11383">
        <ele>138</ele>
        <time>2017-07-30T08:26:33.320Z</time>
      </trkpt>
      <trkpt lat="47.76533" lon="2.1139">
        <ele>138</ele>
        <time>2017-07-30T08:26:34.312Z</time>
      </trkpt>
      <trkpt lat="47.76533" lon="2.1139">
        <ele>138</ele>
        <time>2017-07-30T08:26:35.349Z</time>
      </trkpt>
      <trkpt lat="47.76536" lon="2.11403">
        <ele>139</ele>
        <time>2017-07-30T08:26:36.313Z</time>
      </trkpt>
      <trkpt lat="47.76538" lon="2.1141">
        <ele>139</ele>
        <time>2017-07-30T08:26:37.350Z</time>
      </trkpt>
      <trkpt lat="47.76539" lon="2.11417">
        <ele>139</ele>
        <time>2017-07-30T08:26:38.312Z</time>
      </trkpt>
      <trkpt lat="47.7654" lon="2.11424">
        <ele>139</ele>
        <time>2017-07-30T08:26:39.312Z</time>
      </trkpt>
      <trkpt lat="47.7654" lon="2.11424">
        <ele>139</ele>
        <time>2017-07-30T08:26:40.349Z</time>
      </trkpt>
      <trkpt lat="47.76542" lon="2.11439">
        <ele>139</ele>
        <time>2017-07-30T08:26:41.327Z</time>
      </trkpt>
      <trkpt lat="47.76544" lon="2.11446">
        <ele>139</ele>
        <time>2017-07-30T08:26:42.317Z</time>
      </trkpt>
      <trkpt lat="47.76544" lon="2.11446">
        <ele>139</ele>
        <time>2017-07-30T08:26:43.334Z</time>
      </trkpt>
      <trkpt lat="47.76547" lon="2.1146">
        <ele>139</ele>
        <time>2017-07-30T08:26:44.316Z</time>
      </trkpt>
      <trkpt lat="47.76547" lon="2.1146">
        <ele>139</ele>
        <time>2017-07-30T08:26:45.350Z</time>
      </trkpt>
      <trkpt lat="47.76551" lon="2.11474">
        <ele>139</ele>
        <time>2017-07-30T08:26:46.345Z</time>
      </trkpt>
      <trkpt lat="47.76551" lon="2.11474">
        <ele>139</ele>
        <time>2017-07-30T08:26:47.349Z</time>
      </trkpt>
      <trkpt lat="47.76553" lon="2.11489">
        <ele>139</ele>
        <time>2017-07-30T08:26:48.311Z</time>
      </trkpt>
      <trkpt lat="47.76553" lon="2.11489">
        <ele>139</ele>
        <time>2017-07-30T08:26:49.349Z</time>
      </trkpt>
      <trkpt lat="47.76556" lon="2.11506">
        <ele>140</ele>
        <time>2017-07-30T08:26:50.349Z</time>
      </trkpt>
      <trkpt lat="47.76557" lon="2.11513">
        <ele>140</ele>
        <time>2017-07-30T08:26:51.329Z</time>
      </trkpt>
      <trkpt lat="47.76557" lon="2.11513">
        <ele>140</ele>
        <time>2017-07-30T08:26:52.317Z</time>
      </trkpt>
      <trkpt lat="47.7656" lon="2.11527">
        <ele>139</ele>
        <time>2017-07-30T08:26:53.350Z</time>
      </trkpt>
      <trkpt lat="47.7656" lon="2.11527">
        <ele>139</ele>
        <time>2017-07-30T08:26:54.343Z</time>
      </trkpt>
      <trkpt lat="47.76563" lon="2.1154">
        <ele>139</ele>
        <time>2017-07-30T08:26:55.316Z</time>
      </trkpt>
      <trkpt lat="47.76566" lon="2.11547">
        <ele>139</ele>
        <time>2017-07-30T08:26:56.313Z</time>
      </trkpt>
      <trkpt lat="47.76566" lon="2.11547">
        <ele>139</ele>
        <time>2017-07-30T08:26:57.350Z</time>
      </trkpt>
      <trkpt lat="47.76571" lon="2.11561">
        <ele>139</ele>
        <time>2017-07-30T08:26:58.349Z</time>
      </trkpt>
      <trkpt lat="47.76573" lon="2.11568">
        <ele>139</ele>
        <time>2017-07-30T08:26:59.350Z</time>
      </trkpt>
      <trkpt lat="47.76573" lon="2.11568">
        <ele>139</ele>
        <time>2017-07-30T08:27:00.349Z</time>
      </trkpt>
      <trkpt lat="47.76579" lon="2.11581">
        <ele>139</ele>
        <time>2017-07-30T08:27:01.350Z</time>
      </trkpt>
      <trkpt lat="47.76582" lon="2.11587">
        <ele>139</ele>
        <time>2017-07-30T08:27:02.314Z</time>
      </trkpt>
      <trkpt lat="47.76585" lon="2.11594">
        <ele>139</ele>
        <time>2017-07-30T08:27:03.331Z</time>
      </trkpt>
      <trkpt lat="47.76585" lon="2.11594">
        <ele>139</ele>
        <time>2017-07-30T08:27:04.319Z</time>
      </trkpt>
      <trkpt lat="47.76591" lon="2.11607">
        <ele>138</ele>
        <time>2017-07-30T08:27:05.317Z</time>
      </trkpt>
      <trkpt lat="47.76591" lon="2.11607">
        <ele>138</ele>
        <time>2017-07-30T08:27:06.312Z</time>
      </trkpt>
      <trkpt lat="47.76598" lon="2.1162">
        <ele>138</ele>
        <time>2017-07-30T08:27:07.314Z</time>
      </trkpt>
      <trkpt lat="47.76598" lon="2.1162">
        <ele>138</ele>
        <time>2017-07-30T08:27:08.316Z</time>
      </trkpt>
      <trkpt lat="47.76604" lon="2.11633">
        <ele>138</ele>
        <time>2017-07-30T08:27:09.337Z</time>
      </trkpt>
      <trkpt lat="47.76607" lon="2.1164">
        <ele>137</ele>
        <time>2017-07-30T08:27:10.328Z</time>
      </trkpt>
      <trkpt lat="47.76607" lon="2.1164">
        <ele>137</ele>
        <time>2017-07-30T08:27:11.324Z</time>
      </trkpt>
      <trkpt lat="47.76614" lon="2.11653">
        <ele>137</ele>
        <time>2017-07-30T08:27:12.314Z</time>
      </trkpt>
      <trkpt lat="47.76614" lon="2.11653">
        <ele>137</ele>
        <time>2017-07-30T08:27:13.349Z</time>
      </trkpt>
      <trkpt lat="47.7662" lon="2.11667">
        <ele>137</ele>
        <time>2017-07-30T08:27:14.321Z</time>
      </trkpt>
      <trkpt lat="47.76624" lon="2.11675">
        <ele>137</ele>
        <time>2017-07-30T08:27:15.318Z</time>
      </trkpt>
      <trkpt lat="47.76624" lon="2.11675">
        <ele>137</ele>
        <time>2017-07-30T08:27:16.350Z</time>
      </trkpt>
      <trkpt lat="47.76631" lon="2.11689">
        <ele>137</ele>
        <time>2017-07-30T08:27:17.313Z</time>
      </trkpt>
      <trkpt lat="47.76634" lon="2.11696">
        <ele>136</ele>
        <time>2017-07-30T08:27:18.311Z</time>
      </trkpt>
      <trkpt lat="47.76634" lon="2.11696">
        <ele>136</ele>
        <time>2017-07-30T08:27:19.316Z</time>
      </trkpt>
      <trkpt lat="47.7664" lon="2.11712">
        <ele>136</ele>
        <time>2017-07-30T08:27:20.312Z</time>
      </trkpt>
      <trkpt lat="47.7664" lon="2.11712">
        <ele>136</ele>
        <time>2017-07-30T08:27:21.349Z</time>
      </trkpt>
      <trkpt lat="47.76647" lon="2.11726">
        <ele>136</ele>
        <time>2017-07-30T08:27:22.313Z</time>
      </trkpt>
      <trkpt lat="47.76647" lon="2.11726">
        <ele>136</ele>
        <time>2017-07-30T08:27:23.343Z</time>
      </trkpt>
      <trkpt lat="47.76654" lon="2.1174">
        <ele>136</ele>
        <time>2017-07-30T08:27:24.347Z</time>
      </trkpt>
      <trkpt lat="47.76657" lon="2.11747">
        <ele>135</ele>
        <time>2017-07-30T08:27:25.344Z</time>
      </trkpt>
      <trkpt lat="47.7666" lon="2.11754">
        <ele>135</ele>
        <time>2017-07-30T08:27:26.350Z</time>
      </trkpt>
      <trkpt lat="47.7666" lon="2.11754">
        <ele>135</ele>
        <time>2017-07-30T08:27:27.316Z</time>
      </trkpt>
      <trkpt lat="47.76667" lon="2.11767">
        <ele>135</ele>
        <time>2017-07-30T08:27:28.345Z</time>
      </trkpt>
      <trkpt lat="47.76667" lon="2.11767">
        <ele>135</ele>
        <time>2017-07-30T08:27:29.349Z</time>
      </trkpt>
      <trkpt lat="47.76675" lon="2.11781">
        <ele>135</ele>
        <time>2017-07-30T08:27:30.350Z</time>
      </trkpt>
      <trkpt lat="47.76679" lon="2.11787">
        <ele>135</ele>
        <time>2017-07-30T08:27:31.330Z</time>
      </trkpt>
      <trkpt lat="47.76679" lon="2.11787">
        <ele>135</ele>
        <time>2017-07-30T08:27:32.319Z</time>
      </trkpt>
      <trkpt lat="47.76685" lon="2.11802">
        <ele>135</ele>
        <time>2017-07-30T08:27:33.314Z</time>
      </trkpt>
      <trkpt lat="47.76689" lon="2.11808">
        <ele>135</ele>
        <time>2017-07-30T08:27:34.313Z</time>
      </trkpt>
      <trkpt lat="47.76689" lon="2.11808">
        <ele>135</ele>
        <time>2017-07-30T08:27:35.348Z</time>
      </trkpt>
      <trkpt lat="47.76695" lon="2.11821">
        <ele>134</ele>
        <time>2017-07-30T08:27:36.313Z</time>
      </trkpt>
      <trkpt lat="47.76695" lon="2.11821">
        <ele>134</ele>
        <time>2017-07-30T08:27:37.349Z</time>
      </trkpt>
      <trkpt lat="47.76703" lon="2.11834">
        <ele>134</ele>
        <time>2017-07-30T08:27:38.313Z</time>
      </trkpt>
      <trkpt lat="47.76703" lon="2.11834">
        <ele>134</ele>
        <time>2017-07-30T08:27:39.350Z</time>
      </trkpt>
      <trkpt lat="47.76711" lon="2.11847">
        <ele>134</ele>
        <time>2017-07-30T08:27:40.312Z</time>
      </trkpt>
      <trkpt lat="47.76711" lon="2.11847">
        <ele>134</ele>
        <time>2017-07-30T08:27:41.349Z</time>
      </trkpt>
      <trkpt lat="47.76717" lon="2.11861">
        <ele>133</ele>
        <time>2017-07-30T08:27:42.312Z</time>
      </trkpt>
      <trkpt lat="47.76717" lon="2.11861">
        <ele>133</ele>
        <time>2017-07-30T08:27:43.328Z</time>
      </trkpt>
      <trkpt lat="47.76724" lon="2.11875">
        <ele>133</ele>
        <time>2017-07-30T08:27:44.350Z</time>
      </trkpt>
      <trkpt lat="47.76727" lon="2.11882">
        <ele>133</ele>
        <time>2017-07-30T08:27:45.313Z</time>
      </trkpt>
      <trkpt lat="47.76727" lon="2.11882">
        <ele>133</ele>
        <time>2017-07-30T08:27:46.349Z</time>
      </trkpt>
      <trkpt lat="47.76734" lon="2.11897">
        <ele>132</ele>
        <time>2017-07-30T08:27:47.312Z</time>
      </trkpt>
      <trkpt lat="47.76737" lon="2.11905">
        <ele>132</ele>
        <time>2017-07-30T08:27:48.314Z</time>
      </trkpt>
      <trkpt lat="47.76737" lon="2.11905">
        <ele>132</ele>
        <time>2017-07-30T08:27:49.350Z</time>
      </trkpt>
      <trkpt lat="47.76742" lon="2.11918">
        <ele>132</ele>
        <time>2017-07-30T08:27:50.317Z</time>
      </trkpt>
      <trkpt lat="47.76745" lon="2.11924">
        <ele>132</ele>
        <time>2017-07-30T08:27:51.344Z</time>
      </trkpt>
      <trkpt lat="47.76745" lon="2.11924">
        <ele>132</ele>
        <time>2017-07-30T08:27:52.350Z</time>
      </trkpt>
      <trkpt lat="47.76751" lon="2.11937">
        <ele>131</ele>
        <time>2017-07-30T08:27:53.317Z</time>
      </trkpt>
      <trkpt lat="47.76751" lon="2.11937">
        <ele>131</ele>
        <time>2017-07-30T08:27:54.350Z</time>
      </trkpt>
      <trkpt lat="47.76756" lon="2.1195">
        <ele>131</ele>
        <time>2017-07-30T08:27:55.317Z</time>
      </trkpt>
      <trkpt lat="47.76756" lon="2.1195">
        <ele>131</ele>
        <time>2017-07-30T08:27:56.326Z</time>
      </trkpt>
      <trkpt lat="47.7676" lon="2.11962">
        <ele>130</ele>
        <time>2017-07-30T08:27:57.319Z</time>
      </trkpt>
      <trkpt lat="47.7676" lon="2.11962">
        <ele>130</ele>
        <time>2017-07-30T08:27:58.313Z</time>
      </trkpt>
      <trkpt lat="47.76766" lon="2.11976">
        <ele>129</ele>
        <time>2017-07-30T08:27:59.316Z</time>
      </trkpt>
      <trkpt lat="47.76766" lon="2.11976">
        <ele>129</ele>
        <time>2017-07-30T08:28:00.321Z</time>
      </trkpt>
      <trkpt lat="47.76772" lon="2.11989">
        <ele>129</ele>
        <time>2017-07-30T08:28:01.327Z</time>
      </trkpt>
      <trkpt lat="47.76774" lon="2.11997">
        <ele>128</ele>
        <time>2017-07-30T08:28:02.333Z</time>
      </trkpt>
      <trkpt lat="47.76774" lon="2.11997">
        <ele>128</ele>
        <time>2017-07-30T08:28:03.323Z</time>
      </trkpt>
      <trkpt lat="47.76779" lon="2.12011">
        <ele>128</ele>
        <time>2017-07-30T08:28:04.313Z</time>
      </trkpt>
      <trkpt lat="47.76779" lon="2.12011">
        <ele>128</ele>
        <time>2017-07-30T08:28:05.349Z</time>
      </trkpt>
      <trkpt lat="47.76785" lon="2.12027">
        <ele>128</ele>
        <time>2017-07-30T08:28:06.330Z</time>
      </trkpt>
      <trkpt lat="47.76785" lon="2.12027">
        <ele>128</ele>
        <time>2017-07-30T08:28:07.349Z</time>
      </trkpt>
      <trkpt lat="47.7679" lon="2.12041">
        <ele>129</ele>
        <time>2017-07-30T08:28:08.312Z</time>
      </trkpt>
      <trkpt lat="47.7679" lon="2.12041">
        <ele>129</ele>
        <time>2017-07-30T08:28:09.350Z</time>
      </trkpt>
      <trkpt lat="47.76796" lon="2.12055">
        <ele>129</ele>
        <time>2017-07-30T08:28:10.314Z</time>
      </trkpt>
      <trkpt lat="47.76796" lon="2.12055">
        <ele>129</ele>
        <time>2017-07-30T08:28:11.345Z</time>
      </trkpt>
      <trkpt lat="47.76801" lon="2.1207">
        <ele>130</ele>
        <time>2017-07-30T08:28:12.313Z</time>
      </trkpt>
      <trkpt lat="47.76801" lon="2.1207">
        <ele>130</ele>
        <time>2017-07-30T08:28:13.350Z</time>
      </trkpt>
      <trkpt lat="47.76805" lon="2.12085">
        <ele>130</ele>
        <time>2017-07-30T08:28:14.314Z</time>
      </trkpt>
      <trkpt lat="47.76805" lon="2.12085">
        <ele>130</ele>
        <time>2017-07-30T08:28:15.311Z</time>
      </trkpt>
      <trkpt lat="47.7681" lon="2.121">
        <ele>130</ele>
        <time>2017-07-30T08:28:16.314Z</time>
      </trkpt>
      <trkpt lat="47.7681" lon="2.121">
        <ele>130</ele>
        <time>2017-07-30T08:28:17.349Z</time>
      </trkpt>
      <trkpt lat="47.76816" lon="2.12114">
        <ele>131</ele>
        <time>2017-07-30T08:28:18.350Z</time>
      </trkpt>
      <trkpt lat="47.76818" lon="2.1212">
        <ele>131</ele>
        <time>2017-07-30T08:28:19.312Z</time>
      </trkpt>
      <trkpt lat="47.76818" lon="2.1212">
        <ele>131</ele>
        <time>2017-07-30T08:28:20.349Z</time>
      </trkpt>
      <trkpt lat="47.76825" lon="2.1213">
        <ele>131</ele>
        <time>2017-07-30T08:28:21.312Z</time>
      </trkpt>
      <trkpt lat="47.76825" lon="2.1213">
        <ele>131</ele>
        <time>2017-07-30T08:28:22.349Z</time>
      </trkpt>
      <trkpt lat="47.76834" lon="2.12139">
        <ele>132</ele>
        <time>2017-07-30T08:28:23.311Z</time>
      </trkpt>
      <trkpt lat="47.76834" lon="2.12139">
        <ele>132</ele>
        <time>2017-07-30T08:28:24.311Z</time>
      </trkpt>
      <trkpt lat="47.76839" lon="2.12147">
        <ele>132</ele>
        <time>2017-07-30T08:28:25.319Z</time>
      </trkpt>
      <trkpt lat="47.76839" lon="2.12147">
        <ele>132</ele>
        <time>2017-07-30T08:28:26.325Z</time>
      </trkpt>
      <trkpt lat="47.76845" lon="2.12154">
        <ele>133</ele>
        <time>2017-07-30T08:28:27.332Z</time>
      </trkpt>
      <trkpt lat="47.76849" lon="2.12158">
        <ele>133</ele>
        <time>2017-07-30T08:28:28.322Z</time>
      </trkpt>
      <trkpt lat="47.76849" lon="2.12158">
        <ele>133</ele>
        <time>2017-07-30T08:28:29.311Z</time>
      </trkpt>
      <trkpt lat="47.76854" lon="2.12166">
        <ele>133</ele>
        <time>2017-07-30T08:28:30.344Z</time>
      </trkpt>
      <trkpt lat="47.76859" lon="2.12168">
        <ele>133</ele>
        <time>2017-07-30T08:28:31.312Z</time>
      </trkpt>
      <trkpt lat="47.76863" lon="2.12169">
        <ele>134</ele>
        <time>2017-07-30T08:28:32.311Z</time>
      </trkpt>
      <trkpt lat="47.76868" lon="2.12168">
        <ele>134</ele>
        <time>2017-07-30T08:28:33.313Z</time>
      </trkpt>
      <trkpt lat="47.76868" lon="2.12168">
        <ele>134</ele>
        <time>2017-07-30T08:28:34.316Z</time>
      </trkpt>
      <trkpt lat="47.76878" lon="2.12165">
        <ele>134</ele>
        <time>2017-07-30T08:28:35.332Z</time>
      </trkpt>
      <trkpt lat="47.76878" lon="2.12165">
        <ele>134</ele>
        <time>2017-07-30T08:28:36.330Z</time>
      </trkpt>
      <trkpt lat="47.76889" lon="2.12162">
        <ele>135</ele>
        <time>2017-07-30T08:28:37.319Z</time>
      </trkpt>
      <trkpt lat="47.76889" lon="2.12162">
        <ele>135</ele>
        <time>2017-07-30T08:28:38.349Z</time>
      </trkpt>
      <trkpt lat="47.769" lon="2.1216">
        <ele>136</ele>
        <time>2017-07-30T08:28:39.312Z</time>
      </trkpt>
      <trkpt lat="47.769" lon="2.1216">
        <ele>136</ele>
        <time>2017-07-30T08:28:40.316Z</time>
      </trkpt>
      <trkpt lat="47.7691" lon="2.12157">
        <ele>136</ele>
        <time>2017-07-30T08:28:41.313Z</time>
      </trkpt>
      <trkpt lat="47.76915" lon="2.12156">
        <ele>136</ele>
        <time>2017-07-30T08:28:42.323Z</time>
      </trkpt>
      <trkpt lat="47.76915" lon="2.12156">
        <ele>136</ele>
        <time>2017-07-30T08:28:43.329Z</time>
      </trkpt>
      <trkpt lat="47.76926" lon="2.12153">
        <ele>136</ele>
        <time>2017-07-30T08:28:44.344Z</time>
      </trkpt>
      <trkpt lat="47.76926" lon="2.12153">
        <ele>136</ele>
        <time>2017-07-30T08:28:45.313Z</time>
      </trkpt>
      <trkpt lat="47.76937" lon="2.12151">
        <ele>136</ele>
        <time>2017-07-30T08:28:46.314Z</time>
      </trkpt>
      <trkpt lat="47.76937" lon="2.12151">
        <ele>136</ele>
        <time>2017-07-30T08:28:47.312Z</time>
      </trkpt>
      <trkpt lat="47.76947" lon="2.12149">
        <ele>137</ele>
        <time>2017-07-30T08:28:48.314Z</time>
      </trkpt>
      <trkpt lat="47.76947" lon="2.12149">
        <ele>137</ele>
        <time>2017-07-30T08:28:49.312Z</time>
      </trkpt>
      <trkpt lat="47.76957" lon="2.12147">
        <ele>138</ele>
        <time>2017-07-30T08:28:50.314Z</time>
      </trkpt>
      <trkpt lat="47.76962" lon="2.12146">
        <ele>137</ele>
        <time>2017-07-30T08:28:51.329Z</time>
      </trkpt>
      <trkpt lat="47.76962" lon="2.12146">
        <ele>137</ele>
        <time>2017-07-30T08:28:52.319Z</time>
      </trkpt>
      <trkpt lat="47.76973" lon="2.12141">
        <ele>137</ele>
        <time>2017-07-30T08:28:53.314Z</time>
      </trkpt>
      <trkpt lat="47.76978" lon="2.1214">
        <ele>137</ele>
        <time>2017-07-30T08:28:54.316Z</time>
      </trkpt>
      <trkpt lat="47.76978" lon="2.1214">
        <ele>137</ele>
        <time>2017-07-30T08:28:55.349Z</time>
      </trkpt>
      <trkpt lat="47.7699" lon="2.12138">
        <ele>137</ele>
        <time>2017-07-30T08:28:56.338Z</time>
      </trkpt>
      <trkpt lat="47.7699" lon="2.12138">
        <ele>137</ele>
        <time>2017-07-30T08:28:57.326Z</time>
      </trkpt>
      <trkpt lat="47.77001" lon="2.12135">
        <ele>138</ele>
        <time>2017-07-30T08:28:58.316Z</time>
      </trkpt>
      <trkpt lat="47.77001" lon="2.12135">
        <ele>138</ele>
        <time>2017-07-30T08:28:59.349Z</time>
      </trkpt>
      <trkpt lat="47.77012" lon="2.12133">
        <ele>138</ele>
        <time>2017-07-30T08:29:00.313Z</time>
      </trkpt>
      <trkpt lat="47.77012" lon="2.12133">
        <ele>138</ele>
        <time>2017-07-30T08:29:01.325Z</time>
      </trkpt>
      <trkpt lat="47.77023" lon="2.12132">
        <ele>138</ele>
        <time>2017-07-30T08:29:02.314Z</time>
      </trkpt>
      <trkpt lat="47.77023" lon="2.12132">
        <ele>138</ele>
        <time>2017-07-30T08:29:03.350Z</time>
      </trkpt>
      <trkpt lat="47.77033" lon="2.1213">
        <ele>138</ele>
        <time>2017-07-30T08:29:04.313Z</time>
      </trkpt>
      <trkpt lat="47.77033" lon="2.1213">
        <ele>138</ele>
        <time>2017-07-30T08:29:05.349Z</time>
      </trkpt>
      <trkpt lat="47.77043" lon="2.12128">
        <ele>139</ele>
        <time>2017-07-30T08:29:06.314Z</time>
      </trkpt>
      <trkpt lat="47.77048" lon="2.12126">
        <ele>139</ele>
        <time>2017-07-30T08:29:07.311Z</time>
      </trkpt>
      <trkpt lat="47.77048" lon="2.12126">
        <ele>139</ele>
        <time>2017-07-30T08:29:08.349Z</time>
      </trkpt>
      <trkpt lat="47.77058" lon="2.12125">
        <ele>140</ele>
        <time>2017-07-30T08:29:09.312Z</time>
      </trkpt>
      <trkpt lat="47.77064" lon="2.12124">
        <ele>140</ele>
        <time>2017-07-30T08:29:10.313Z</time>
      </trkpt>
      <trkpt lat="47.77064" lon="2.12124">
        <ele>140</ele>
        <time>2017-07-30T08:29:11.350Z</time>
      </trkpt>
      <trkpt lat="47.77074" lon="2.12122">
        <ele>140</ele>
        <time>2017-07-30T08:29:12.313Z</time>
      </trkpt>
      <trkpt lat="47.77074" lon="2.12122">
        <ele>140</ele>
        <time>2017-07-30T08:29:13.321Z</time>
      </trkpt>
      <trkpt lat="47.77084" lon="2.12119">
        <ele>140</ele>
        <time>2017-07-30T08:29:14.311Z</time>
      </trkpt>
      <trkpt lat="47.77084" lon="2.12119">
        <ele>140</ele>
        <time>2017-07-30T08:29:15.351Z</time>
      </trkpt>
      <trkpt lat="47.77095" lon="2.12116">
        <ele>140</ele>
        <time>2017-07-30T08:29:16.313Z</time>
      </trkpt>
      <trkpt lat="47.77095" lon="2.12116">
        <ele>140</ele>
        <time>2017-07-30T08:29:17.349Z</time>
      </trkpt>
      <trkpt lat="47.77105" lon="2.12115">
        <ele>140</ele>
        <time>2017-07-30T08:29:18.311Z</time>
      </trkpt>
      <trkpt lat="47.77105" lon="2.12115">
        <ele>140</ele>
        <time>2017-07-30T08:29:19.349Z</time>
      </trkpt>
      <trkpt lat="47.77116" lon="2.12111">
        <ele>140</ele>
        <time>2017-07-30T08:29:20.314Z</time>
      </trkpt>
      <trkpt lat="47.77122" lon="2.1211">
        <ele>141</ele>
        <time>2017-07-30T08:29:21.315Z</time>
      </trkpt>
      <trkpt lat="47.77127" lon="2.12109">
        <ele>140</ele>
        <time>2017-07-30T08:29:22.315Z</time>
      </trkpt>
      <trkpt lat="47.77127" lon="2.12109">
        <ele>140</ele>
        <time>2017-07-30T08:29:23.349Z</time>
      </trkpt>
      <trkpt lat="47.77139" lon="2.12106">
        <ele>140</ele>
        <time>2017-07-30T08:29:24.347Z</time>
      </trkpt>
      <trkpt lat="47.77139" lon="2.12106">
        <ele>140</ele>
        <time>2017-07-30T08:29:25.343Z</time>
      </trkpt>
      <trkpt lat="47.7715" lon="2.12104">
        <ele>140</ele>
        <time>2017-07-30T08:29:26.349Z</time>
      </trkpt>
      <trkpt lat="47.77155" lon="2.12103">
        <ele>140</ele>
        <time>2017-07-30T08:29:27.316Z</time>
      </trkpt>
      <trkpt lat="47.7716" lon="2.12102">
        <ele>140</ele>
        <time>2017-07-30T08:29:28.314Z</time>
      </trkpt>
      <trkpt lat="47.7716" lon="2.12102">
        <ele>140</ele>
        <time>2017-07-30T08:29:29.350Z</time>
      </trkpt>
      <trkpt lat="47.77171" lon="2.121">
        <ele>139</ele>
        <time>2017-07-30T08:29:30.350Z</time>
      </trkpt>
      <trkpt lat="47.77177" lon="2.12099">
        <ele>139</ele>
        <time>2017-07-30T08:29:31.329Z</time>
      </trkpt>
      <trkpt lat="47.77177" lon="2.12099">
        <ele>139</ele>
        <time>2017-07-30T08:29:32.318Z</time>
      </trkpt>
      <trkpt lat="47.77187" lon="2.12096">
        <ele>139</ele>
        <time>2017-07-30T08:29:33.316Z</time>
      </trkpt>
      <trkpt lat="47.77187" lon="2.12096">
        <ele>139</ele>
        <time>2017-07-30T08:29:34.312Z</time>
      </trkpt>
      <trkpt lat="47.77199" lon="2.12093">
        <ele>139</ele>
        <time>2017-07-30T08:29:35.315Z</time>
      </trkpt>
      <trkpt lat="47.77204" lon="2.12092">
        <ele>139</ele>
        <time>2017-07-30T08:29:36.315Z</time>
      </trkpt>
      <trkpt lat="47.77204" lon="2.12092">
        <ele>139</ele>
        <time>2017-07-30T08:29:37.311Z</time>
      </trkpt>
      <trkpt lat="47.77215" lon="2.1209">
        <ele>139</ele>
        <time>2017-07-30T08:29:38.317Z</time>
      </trkpt>
      <trkpt lat="47.7722" lon="2.12089">
        <ele>140</ele>
        <time>2017-07-30T08:29:39.317Z</time>
      </trkpt>
      <trkpt lat="47.7722" lon="2.12089">
        <ele>140</ele>
        <time>2017-07-30T08:29:40.313Z</time>
      </trkpt>
      <trkpt lat="47.7723" lon="2.12086">
        <ele>140</ele>
        <time>2017-07-30T08:29:41.314Z</time>
      </trkpt>
      <trkpt lat="47.77236" lon="2.12085">
        <ele>140</ele>
        <time>2017-07-30T08:29:42.316Z</time>
      </trkpt>
      <trkpt lat="47.77241" lon="2.12084">
        <ele>140</ele>
        <time>2017-07-30T08:29:43.331Z</time>
      </trkpt>
      <trkpt lat="47.77241" lon="2.12084">
        <ele>140</ele>
        <time>2017-07-30T08:29:44.319Z</time>
      </trkpt>
      <trkpt lat="47.77252" lon="2.12081">
        <ele>140</ele>
        <time>2017-07-30T08:29:45.316Z</time>
      </trkpt>
      <trkpt lat="47.77252" lon="2.12081">
        <ele>140</ele>
        <time>2017-07-30T08:29:46.320Z</time>
      </trkpt>
      <trkpt lat="47.77263" lon="2.12078">
        <ele>140</ele>
        <time>2017-07-30T08:29:47.312Z</time>
      </trkpt>
      <trkpt lat="47.77268" lon="2.12077">
        <ele>140</ele>
        <time>2017-07-30T08:29:48.314Z</time>
      </trkpt>
      <trkpt lat="47.77268" lon="2.12077">
        <ele>140</ele>
        <time>2017-07-30T08:29:49.349Z</time>
      </trkpt>
      <trkpt lat="47.77278" lon="2.12074">
        <ele>141</ele>
        <time>2017-07-30T08:29:50.311Z</time>
      </trkpt>
      <trkpt lat="47.77278" lon="2.12074">
        <ele>141</ele>
        <time>2017-07-30T08:29:51.312Z</time>
      </trkpt>
      <trkpt lat="47.77288" lon="2.12073">
        <ele>140</ele>
        <time>2017-07-30T08:29:52.326Z</time>
      </trkpt>
      <trkpt lat="47.77288" lon="2.12073">
        <ele>140</ele>
        <time>2017-07-30T08:29:53.316Z</time>
      </trkpt>
      <trkpt lat="47.77299" lon="2.1207">
        <ele>140</ele>
        <time>2017-07-30T08:29:54.313Z</time>
      </trkpt>
      <trkpt lat="47.77299" lon="2.1207">
        <ele>140</ele>
        <time>2017-07-30T08:29:55.349Z</time>
      </trkpt>
      <trkpt lat="47.77309" lon="2.12069">
        <ele>140</ele>
        <time>2017-07-30T08:29:56.315Z</time>
      </trkpt>
      <trkpt lat="47.77309" lon="2.12069">
        <ele>140</ele>
        <time>2017-07-30T08:29:57.311Z</time>
      </trkpt>
      <trkpt lat="47.77319" lon="2.12066">
        <ele>139</ele>
        <time>2017-07-30T08:29:58.314Z</time>
      </trkpt>
      <trkpt lat="47.77319" lon="2.12066">
        <ele>139</ele>
        <time>2017-07-30T08:29:59.350Z</time>
      </trkpt>
      <trkpt lat="47.77329" lon="2.12063">
        <ele>139</ele>
        <time>2017-07-30T08:30:00.350Z</time>
      </trkpt>
      <trkpt lat="47.77334" lon="2.12063">
        <ele>139</ele>
        <time>2017-07-30T08:30:01.311Z</time>
      </trkpt>
      <trkpt lat="47.77339" lon="2.12062">
        <ele>139</ele>
        <time>2017-07-30T08:30:02.319Z</time>
      </trkpt>
      <trkpt lat="47.77339" lon="2.12062">
        <ele>139</ele>
        <time>2017-07-30T08:30:03.311Z</time>
      </trkpt>
      <trkpt lat="47.77349" lon="2.12059">
        <ele>139</ele>
        <time>2017-07-30T08:30:04.314Z</time>
      </trkpt>
      <trkpt lat="47.77349" lon="2.12059">
        <ele>139</ele>
        <time>2017-07-30T08:30:05.350Z</time>
      </trkpt>
      <trkpt lat="47.77359" lon="2.12056">
        <ele>139</ele>
        <time>2017-07-30T08:30:06.312Z</time>
      </trkpt>
      <trkpt lat="47.77359" lon="2.12056">
        <ele>139</ele>
        <time>2017-07-30T08:30:07.350Z</time>
      </trkpt>
      <trkpt lat="47.77368" lon="2.12055">
        <ele>140</ele>
        <time>2017-07-30T08:30:08.349Z</time>
      </trkpt>
      <trkpt lat="47.77373" lon="2.12053">
        <ele>140</ele>
        <time>2017-07-30T08:30:09.311Z</time>
      </trkpt>
      <trkpt lat="47.77373" lon="2.12053">
        <ele>140</ele>
        <time>2017-07-30T08:30:10.350Z</time>
      </trkpt>
      <trkpt lat="47.77383" lon="2.12051">
        <ele>140</ele>
        <time>2017-07-30T08:30:11.313Z</time>
      </trkpt>
      <trkpt lat="47.77388" lon="2.12051">
        <ele>140</ele>
        <time>2017-07-30T08:30:12.312Z</time>
      </trkpt>
      <trkpt lat="47.77388" lon="2.12051">
        <ele>140</ele>
        <time>2017-07-30T08:30:13.349Z</time>
      </trkpt>
      <trkpt lat="47.77399" lon="2.12049">
        <ele>140</ele>
        <time>2017-07-30T08:30:14.312Z</time>
      </trkpt>
      <trkpt lat="47.77399" lon="2.12049">
        <ele>140</ele>
        <time>2017-07-30T08:30:15.311Z</time>
      </trkpt>
      <trkpt lat="47.77409" lon="2.12046">
        <ele>140</ele>
        <time>2017-07-30T08:30:16.322Z</time>
      </trkpt>
      <trkpt lat="47.77409" lon="2.12046">
        <ele>140</ele>
        <time>2017-07-30T08:30:17.312Z</time>
      </trkpt>
      <trkpt lat="47.77419" lon="2.12043">
        <ele>140</ele>
        <time>2017-07-30T08:30:18.313Z</time>
      </trkpt>
      <trkpt lat="47.77419" lon="2.12043">
        <ele>140</ele>
        <time>2017-07-30T08:30:19.350Z</time>
      </trkpt>
      <trkpt lat="47.77429" lon="2.12041">
        <ele>140</ele>
        <time>2017-07-30T08:30:20.318Z</time>
      </trkpt>
      <trkpt lat="47.77429" lon="2.12041">
        <ele>140</ele>
        <time>2017-07-30T08:30:21.311Z</time>
      </trkpt>
      <trkpt lat="47.77439" lon="2.12039">
        <ele>139</ele>
        <time>2017-07-30T08:30:22.342Z</time>
      </trkpt>
      <trkpt lat="47.77444" lon="2.12038">
        <ele>139</ele>
        <time>2017-07-30T08:30:23.317Z</time>
      </trkpt>
      <trkpt lat="47.77444" lon="2.12038">
        <ele>139</ele>
        <time>2017-07-30T08:30:24.327Z</time>
      </trkpt>
      <trkpt lat="47.77454" lon="2.12036">
        <ele>139</ele>
        <time>2017-07-30T08:30:25.312Z</time>
      </trkpt>
      <trkpt lat="47.77459" lon="2.12034">
        <ele>139</ele>
        <time>2017-07-30T08:30:26.318Z</time>
      </trkpt>
      <trkpt lat="47.77464" lon="2.12033">
        <ele>139</ele>
        <time>2017-07-30T08:30:27.324Z</time>
      </trkpt>
      <trkpt lat="47.77464" lon="2.12033">
        <ele>139</ele>
        <time>2017-07-30T08:30:28.313Z</time>
      </trkpt>
      <trkpt lat="47.77475" lon="2.12031">
        <ele>139</ele>
        <time>2017-07-30T08:30:29.317Z</time>
      </trkpt>
      <trkpt lat="47.77475" lon="2.12031">
        <ele>139</ele>
        <time>2017-07-30T08:30:30.346Z</time>
      </trkpt>
      <trkpt lat="47.77486" lon="2.12028">
        <ele>139</ele>
        <time>2017-07-30T08:30:31.330Z</time>
      </trkpt>
      <trkpt lat="47.77486" lon="2.12028">
        <ele>139</ele>
        <time>2017-07-30T08:30:32.318Z</time>
      </trkpt>
      <trkpt lat="47.77497" lon="2.12026">
        <ele>139</ele>
        <time>2017-07-30T08:30:33.319Z</time>
      </trkpt>
      <trkpt lat="47.77501" lon="2.12026">
        <ele>139</ele>
        <time>2017-07-30T08:30:34.317Z</time>
      </trkpt>
      <trkpt lat="47.77501" lon="2.12026">
        <ele>139</ele>
        <time>2017-07-30T08:30:35.349Z</time>
      </trkpt>
      <trkpt lat="47.77512" lon="2.12023">
        <ele>139</ele>
        <time>2017-07-30T08:30:36.315Z</time>
      </trkpt>
      <trkpt lat="47.77512" lon="2.12023">
        <ele>139</ele>
        <time>2017-07-30T08:30:37.347Z</time>
      </trkpt>
      <trkpt lat="47.77522" lon="2.1202">
        <ele>139</ele>
        <time>2017-07-30T08:30:38.350Z</time>
      </trkpt>
      <trkpt lat="47.77522" lon="2.1202">
        <ele>139</ele>
        <time>2017-07-30T08:30:39.311Z</time>
      </trkpt>
      <trkpt lat="47.77533" lon="2.12017">
        <ele>139</ele>
        <time>2017-07-30T08:30:40.313Z</time>
      </trkpt>
      <trkpt lat="47.77533" lon="2.12017">
        <ele>139</ele>
        <time>2017-07-30T08:30:41.350Z</time>
      </trkpt>
      <trkpt lat="47.77543" lon="2.12015">
        <ele>138</ele>
        <time>2017-07-30T08:30:42.350Z</time>
      </trkpt>
      <trkpt lat="47.77548" lon="2.12014">
        <ele>138</ele>
        <time>2017-07-30T08:30:43.327Z</time>
      </trkpt>
      <trkpt lat="47.77548" lon="2.12014">
        <ele>138</ele>
        <time>2017-07-30T08:30:44.350Z</time>
      </trkpt>
      <trkpt lat="47.77558" lon="2.12012">
        <ele>138</ele>
        <time>2017-07-30T08:30:45.313Z</time>
      </trkpt>
      <trkpt lat="47.77563" lon="2.12011">
        <ele>138</ele>
        <time>2017-07-30T08:30:46.312Z</time>
      </trkpt>
      <trkpt lat="47.77568" lon="2.1201">
        <ele>138</ele>
        <time>2017-07-30T08:30:47.325Z</time>
      </trkpt>
      <trkpt lat="47.77568" lon="2.1201">
        <ele>138</ele>
        <time>2017-07-30T08:30:48.313Z</time>
      </trkpt>
      <trkpt lat="47.77579" lon="2.12008">
        <ele>138</ele>
        <time>2017-07-30T08:30:49.311Z</time>
      </trkpt>
      <trkpt lat="47.77579" lon="2.12008">
        <ele>138</ele>
        <time>2017-07-30T08:30:50.352Z</time>
      </trkpt>
      <trkpt lat="47.77589" lon="2.12005">
        <ele>138</ele>
        <time>2017-07-30T08:30:51.339Z</time>
      </trkpt>
      <trkpt lat="47.77593" lon="2.12004">
        <ele>138</ele>
        <time>2017-07-30T08:30:52.345Z</time>
      </trkpt>
      <trkpt lat="47.77593" lon="2.12004">
        <ele>138</ele>
        <time>2017-07-30T08:30:53.312Z</time>
      </trkpt>
      <trkpt lat="47.77603" lon="2.12003">
        <ele>138</ele>
        <time>2017-07-30T08:30:54.317Z</time>
      </trkpt>
      <trkpt lat="47.77603" lon="2.12003">
        <ele>138</ele>
        <time>2017-07-30T08:30:55.350Z</time>
      </trkpt>
      <trkpt lat="47.77611" lon="2.12001">
        <ele>137</ele>
        <time>2017-07-30T08:30:56.313Z</time>
      </trkpt>
      <trkpt lat="47.77611" lon="2.12001">
        <ele>137</ele>
        <time>2017-07-30T08:30:57.313Z</time>
      </trkpt>
      <trkpt lat="47.7762" lon="2.11998">
        <ele>136</ele>
        <time>2017-07-30T08:30:58.313Z</time>
      </trkpt>
      <trkpt lat="47.7762" lon="2.11998">
        <ele>136</ele>
        <time>2017-07-30T08:30:59.350Z</time>
      </trkpt>
      <trkpt lat="47.77628" lon="2.11996">
        <ele>136</ele>
        <time>2017-07-30T08:31:00.317Z</time>
      </trkpt>
      <trkpt lat="47.77628" lon="2.11996">
        <ele>136</ele>
        <time>2017-07-30T08:31:01.327Z</time>
      </trkpt>
      <trkpt lat="47.77633" lon="2.11995">
        <ele>136</ele>
        <time>2017-07-30T08:31:02.315Z</time>
      </trkpt>
      <trkpt lat="47.77633" lon="2.11995">
        <ele>136</ele>
        <time>2017-07-30T08:31:03.311Z</time>
      </trkpt>
      <trkpt lat="47.77638" lon="2.11992">
        <ele>136</ele>
        <time>2017-07-30T08:31:04.314Z</time>
      </trkpt>
      <trkpt lat="47.77638" lon="2.11992">
        <ele>136</ele>
        <time>2017-07-30T08:31:05.350Z</time>
      </trkpt>
      <trkpt lat="47.7764" lon="2.11988">
        <ele>137</ele>
        <time>2017-07-30T08:31:06.313Z</time>
      </trkpt>
      <trkpt lat="47.7764" lon="2.11985">
        <ele>137</ele>
        <time>2017-07-30T08:31:07.313Z</time>
      </trkpt>
      <trkpt lat="47.7764" lon="2.11985">
        <ele>137</ele>
        <time>2017-07-30T08:31:08.350Z</time>
      </trkpt>
      <trkpt lat="47.77637" lon="2.1198">
        <ele>137</ele>
        <time>2017-07-30T08:31:09.312Z</time>
      </trkpt>
      <trkpt lat="47.77635" lon="2.11977">
        <ele>137</ele>
        <time>2017-07-30T08:31:10.322Z</time>
      </trkpt>
      <trkpt lat="47.77635" lon="2.11977">
        <ele>137</ele>
        <time>2017-07-30T08:31:11.350Z</time>
      </trkpt>
      <trkpt lat="47.77629" lon="2.1197">
        <ele>137</ele>
        <time>2017-07-30T08:31:12.316Z</time>
      </trkpt>
      <trkpt lat="47.77629" lon="2.1197">
        <ele>137</ele>
        <time>2017-07-30T08:31:13.312Z</time>
      </trkpt>
      <trkpt lat="47.77622" lon="2.11963">
        <ele>137</ele>
        <time>2017-07-30T08:31:14.316Z</time>
      </trkpt>
      <trkpt lat="47.77618" lon="2.11959">
        <ele>136</ele>
        <time>2017-07-30T08:31:15.318Z</time>
      </trkpt>
      <trkpt lat="47.77618" lon="2.11959">
        <ele>136</ele>
        <time>2017-07-30T08:31:16.350Z</time>
      </trkpt>
      <trkpt lat="47.7761" lon="2.11951">
        <ele>136</ele>
        <time>2017-07-30T08:31:17.321Z</time>
      </trkpt>
      <trkpt lat="47.77606" lon="2.11947">
        <ele>136</ele>
        <time>2017-07-30T08:31:18.312Z</time>
      </trkpt>
      <trkpt lat="47.77606" lon="2.11947">
        <ele>136</ele>
        <time>2017-07-30T08:31:19.311Z</time>
      </trkpt>
      <trkpt lat="47.77597" lon="2.11939">
        <ele>135</ele>
        <time>2017-07-30T08:31:20.328Z</time>
      </trkpt>
      <trkpt lat="47.77597" lon="2.11939">
        <ele>135</ele>
        <time>2017-07-30T08:31:21.324Z</time>
      </trkpt>
      <trkpt lat="47.7759" lon="2.11931">
        <ele>135</ele>
        <time>2017-07-30T08:31:22.317Z</time>
      </trkpt>
      <trkpt lat="47.7759" lon="2.11931">
        <ele>135</ele>
        <time>2017-07-30T08:31:23.312Z</time>
      </trkpt>
      <trkpt lat="47.77583" lon="2.11922">
        <ele>135</ele>
        <time>2017-07-30T08:31:24.326Z</time>
      </trkpt>
      <trkpt lat="47.77583" lon="2.11922">
        <ele>135</ele>
        <time>2017-07-30T08:31:25.340Z</time>
      </trkpt>
      <trkpt lat="47.77576" lon="2.11914">
        <ele>134</ele>
        <time>2017-07-30T08:31:26.347Z</time>
      </trkpt>
      <trkpt lat="47.77576" lon="2.11914">
        <ele>134</ele>
        <time>2017-07-30T08:31:27.313Z</time>
      </trkpt>
      <trkpt lat="47.77571" lon="2.11907">
        <ele>135</ele>
        <time>2017-07-30T08:31:28.313Z</time>
      </trkpt>
      <trkpt lat="47.77571" lon="2.11907">
        <ele>135</ele>
        <time>2017-07-30T08:31:29.350Z</time>
      </trkpt>
      <trkpt lat="47.77565" lon="2.11901">
        <ele>134</ele>
        <time>2017-07-30T08:31:30.350Z</time>
      </trkpt>
      <trkpt lat="47.77562" lon="2.11897">
        <ele>134</ele>
        <time>2017-07-30T08:31:31.313Z</time>
      </trkpt>
      <trkpt lat="47.77562" lon="2.11897">
        <ele>134</ele>
        <time>2017-07-30T08:31:32.350Z</time>
      </trkpt>
      <trkpt lat="47.77556" lon="2.1189">
        <ele>134</ele>
        <time>2017-07-30T08:31:33.311Z</time>
      </trkpt>
      <trkpt lat="47.77552" lon="2.11886">
        <ele>135</ele>
        <time>2017-07-30T08:31:34.314Z</time>
      </trkpt>
      <trkpt lat="47.77552" lon="2.11886">
        <ele>135</ele>
        <time>2017-07-30T08:31:35.350Z</time>
      </trkpt>
      <trkpt lat="47.77544" lon="2.11879">
        <ele>134</ele>
        <time>2017-07-30T08:31:36.314Z</time>
      </trkpt>
      <trkpt lat="47.77544" lon="2.11879">
        <ele>134</ele>
        <time>2017-07-30T08:31:37.320Z</time>
      </trkpt>
      <trkpt lat="47.77536" lon="2.11872">
        <ele>134</ele>
        <time>2017-07-30T08:31:38.312Z</time>
      </trkpt>
      <trkpt lat="47.77536" lon="2.11872">
        <ele>134</ele>
        <time>2017-07-30T08:31:39.311Z</time>
      </trkpt>
      <trkpt lat="47.77528" lon="2.11864">
        <ele>134</ele>
        <time>2017-07-30T08:31:40.314Z</time>
      </trkpt>
      <trkpt lat="47.77528" lon="2.11864">
        <ele>134</ele>
        <time>2017-07-30T08:31:41.312Z</time>
      </trkpt>
      <trkpt lat="47.7752" lon="2.11855">
        <ele>134</ele>
        <time>2017-07-30T08:31:42.313Z</time>
      </trkpt>
      <trkpt lat="47.7752" lon="2.11855">
        <ele>134</ele>
        <time>2017-07-30T08:31:43.331Z</time>
      </trkpt>
      <trkpt lat="47.77512" lon="2.11847">
        <ele>134</ele>
        <time>2017-07-30T08:31:44.324Z</time>
      </trkpt>
      <trkpt lat="47.77512" lon="2.11847">
        <ele>134</ele>
        <time>2017-07-30T08:31:45.312Z</time>
      </trkpt>
      <trkpt lat="47.77504" lon="2.11839">
        <ele>134</ele>
        <time>2017-07-30T08:31:46.314Z</time>
      </trkpt>
      <trkpt lat="47.77504" lon="2.11839">
        <ele>134</ele>
        <time>2017-07-30T08:31:47.322Z</time>
      </trkpt>
      <trkpt lat="47.77496" lon="2.11831">
        <ele>135</ele>
        <time>2017-07-30T08:31:48.326Z</time>
      </trkpt>
      <trkpt lat="47.77492" lon="2.11828">
        <ele>135</ele>
        <time>2017-07-30T08:31:49.315Z</time>
      </trkpt>
      <trkpt lat="47.77492" lon="2.11828">
        <ele>135</ele>
        <time>2017-07-30T08:31:50.350Z</time>
      </trkpt>
      <trkpt lat="47.77482" lon="2.11821">
        <ele>135</ele>
        <time>2017-07-30T08:31:51.312Z</time>
      </trkpt>
      <trkpt lat="47.77482" lon="2.11821">
        <ele>135</ele>
        <time>2017-07-30T08:31:52.350Z</time>
      </trkpt>
      <trkpt lat="47.77474" lon="2.11814">
        <ele>135</ele>
        <time>2017-07-30T08:31:53.312Z</time>
      </trkpt>
      <trkpt lat="47.7747" lon="2.1181">
        <ele>136</ele>
        <time>2017-07-30T08:31:54.314Z</time>
      </trkpt>
      <trkpt lat="47.7747" lon="2.1181">
        <ele>136</ele>
        <time>2017-07-30T08:31:55.350Z</time>
      </trkpt>
      <trkpt lat="47.77462" lon="2.11803">
        <ele>136</ele>
        <time>2017-07-30T08:31:56.312Z</time>
      </trkpt>
      <trkpt lat="47.77462" lon="2.11803">
        <ele>136</ele>
        <time>2017-07-30T08:31:57.313Z</time>
      </trkpt>
      <trkpt lat="47.77454" lon="2.11795">
        <ele>136</ele>
        <time>2017-07-30T08:31:58.314Z</time>
      </trkpt>
      <trkpt lat="47.77449" lon="2.11791">
        <ele>136</ele>
        <time>2017-07-30T08:31:59.314Z</time>
      </trkpt>
      <trkpt lat="47.77449" lon="2.11791">
        <ele>136</ele>
        <time>2017-07-30T08:32:00.313Z</time>
      </trkpt>
      <trkpt lat="47.77441" lon="2.11783">
        <ele>136</ele>
        <time>2017-07-30T08:32:01.316Z</time>
      </trkpt>
      <trkpt lat="47.77441" lon="2.11783">
        <ele>136</ele>
        <time>2017-07-30T08:32:02.350Z</time>
      </trkpt>
      <trkpt lat="47.77432" lon="2.11775">
        <ele>136</ele>
        <time>2017-07-30T08:32:03.317Z</time>
      </trkpt>
      <trkpt lat="47.77432" lon="2.11775">
        <ele>136</ele>
        <time>2017-07-30T08:32:04.313Z</time>
      </trkpt>
      <trkpt lat="47.77424" lon="2.11767">
        <ele>136</ele>
        <time>2017-07-30T08:32:05.316Z</time>
      </trkpt>
      <trkpt lat="47.7742" lon="2.11763">
        <ele>136</ele>
        <time>2017-07-30T08:32:06.326Z</time>
      </trkpt>
      <trkpt lat="47.7742" lon="2.11763">
        <ele>136</ele>
        <time>2017-07-30T08:32:07.322Z</time>
      </trkpt>
      <trkpt lat="47.77412" lon="2.11755">
        <ele>136</ele>
        <time>2017-07-30T08:32:08.321Z</time>
      </trkpt>
      <trkpt lat="47.77408" lon="2.11752">
        <ele>136</ele>
        <time>2017-07-30T08:32:09.317Z</time>
      </trkpt>
      <trkpt lat="47.77408" lon="2.11752">
        <ele>136</ele>
        <time>2017-07-30T08:32:10.350Z</time>
      </trkpt>
      <trkpt lat="47.77399" lon="2.11744">
        <ele>136</ele>
        <time>2017-07-30T08:32:11.314Z</time>
      </trkpt>
      <trkpt lat="47.77395" lon="2.11739">
        <ele>136</ele>
        <time>2017-07-30T08:32:12.317Z</time>
      </trkpt>
      <trkpt lat="47.77395" lon="2.11739">
        <ele>136</ele>
        <time>2017-07-30T08:32:13.350Z</time>
      </trkpt>
      <trkpt lat="47.77387" lon="2.11731">
        <ele>136</ele>
        <time>2017-07-30T08:32:14.313Z</time>
      </trkpt>
      <trkpt lat="47.77387" lon="2.11731">
        <ele>136</ele>
        <time>2017-07-30T08:32:15.311Z</time>
      </trkpt>
      <trkpt lat="47.77378" lon="2.11722">
        <ele>136</ele>
        <time>2017-07-30T08:32:16.316Z</time>
      </trkpt>
      <trkpt lat="47.77378" lon="2.11722">
        <ele>136</ele>
        <time>2017-07-30T08:32:17.350Z</time>
      </trkpt>
      <trkpt lat="47.77369" lon="2.11715">
        <ele>137</ele>
        <time>2017-07-30T08:32:18.350Z</time>
      </trkpt>
      <trkpt lat="47.77365" lon="2.11711">
        <ele>137</ele>
        <time>2017-07-30T08:32:19.312Z</time>
      </trkpt>
      <trkpt lat="47.77365" lon="2.11711">
        <ele>137</ele>
        <time>2017-07-30T08:32:20.350Z</time>
      </trkpt>
      <trkpt lat="47.77357" lon="2.11703">
        <ele>137</ele>
        <time>2017-07-30T08:32:21.315Z</time>
      </trkpt>
      <trkpt lat="47.77353" lon="2.11699">
        <ele>137</ele>
        <time>2017-07-30T08:32:22.313Z</time>
      </trkpt>
      <trkpt lat="47.77353" lon="2.11699">
        <ele>137</ele>
        <time>2017-07-30T08:32:23.350Z</time>
      </trkpt>
      <trkpt lat="47.77344" lon="2.11691">
        <ele>137</ele>
        <time>2017-07-30T08:32:24.316Z</time>
      </trkpt>
      <trkpt lat="47.77344" lon="2.11691">
        <ele>137</ele>
        <time>2017-07-30T08:32:25.312Z</time>
      </trkpt>
      <trkpt lat="47.77336" lon="2.11683">
        <ele>136</ele>
        <time>2017-07-30T08:32:26.311Z</time>
      </trkpt>
      <trkpt lat="47.77336" lon="2.11683">
        <ele>136</ele>
        <time>2017-07-30T08:32:27.311Z</time>
      </trkpt>
      <trkpt lat="47.77328" lon="2.11675">
        <ele>136</ele>
        <time>2017-07-30T08:32:28.350Z</time>
      </trkpt>
      <trkpt lat="47.77328" lon="2.11675">
        <ele>136</ele>
        <time>2017-07-30T08:32:29.343Z</time>
      </trkpt>
      <trkpt lat="47.7732" lon="2.11667">
        <ele>136</ele>
        <time>2017-07-30T08:32:30.326Z</time>
      </trkpt>
      <trkpt lat="47.77316" lon="2.11663">
        <ele>136</ele>
        <time>2017-07-30T08:32:31.332Z</time>
      </trkpt>
      <trkpt lat="47.77316" lon="2.11663">
        <ele>136</ele>
        <time>2017-07-30T08:32:32.320Z</time>
      </trkpt>
      <trkpt lat="47.77308" lon="2.11655">
        <ele>136</ele>
        <time>2017-07-30T08:32:33.325Z</time>
      </trkpt>
      <trkpt lat="47.77304" lon="2.11651">
        <ele>136</ele>
        <time>2017-07-30T08:32:34.314Z</time>
      </trkpt>
      <trkpt lat="47.773" lon="2.11647">
        <ele>136</ele>
        <time>2017-07-30T08:32:35.312Z</time>
      </trkpt>
      <trkpt lat="47.77296" lon="2.11643">
        <ele>136</ele>
        <time>2017-07-30T08:32:36.313Z</time>
      </trkpt>
      <trkpt lat="47.77296" lon="2.11643">
        <ele>136</ele>
        <time>2017-07-30T08:32:37.350Z</time>
      </trkpt>
      <trkpt lat="47.77288" lon="2.11635">
        <ele>136</ele>
        <time>2017-07-30T08:32:38.318Z</time>
      </trkpt>
      <trkpt lat="47.77283" lon="2.11631">
        <ele>136</ele>
        <time>2017-07-30T08:32:39.312Z</time>
      </trkpt>
      <trkpt lat="47.77279" lon="2.11627">
        <ele>136</ele>
        <time>2017-07-30T08:32:40.313Z</time>
      </trkpt>
      <trkpt lat="47.77279" lon="2.11627">
        <ele>136</ele>
        <time>2017-07-30T08:32:41.350Z</time>
      </trkpt>
      <trkpt lat="47.77271" lon="2.11618">
        <ele>136</ele>
        <time>2017-07-30T08:32:42.350Z</time>
      </trkpt>
      <trkpt lat="47.77271" lon="2.11618">
        <ele>136</ele>
        <time>2017-07-30T08:32:43.313Z</time>
      </trkpt>
      <trkpt lat="47.77263" lon="2.1161">
        <ele>136</ele>
        <time>2017-07-30T08:32:44.314Z</time>
      </trkpt>
      <trkpt lat="47.77263" lon="2.1161">
        <ele>136</ele>
        <time>2017-07-30T08:32:45.311Z</time>
      </trkpt>
      <trkpt lat="47.77255" lon="2.11602">
        <ele>136</ele>
        <time>2017-07-30T08:32:46.334Z</time>
      </trkpt>
      <trkpt lat="47.77255" lon="2.11602">
        <ele>136</ele>
        <time>2017-07-30T08:32:47.322Z</time>
      </trkpt>
      <trkpt lat="47.77247" lon="2.11594">
        <ele>136</ele>
        <time>2017-07-30T08:32:48.331Z</time>
      </trkpt>
      <trkpt lat="47.77247" lon="2.11594">
        <ele>136</ele>
        <time>2017-07-30T08:32:49.320Z</time>
      </trkpt>
      <trkpt lat="47.77238" lon="2.11586">
        <ele>136</ele>
        <time>2017-07-30T08:32:50.313Z</time>
      </trkpt>
      <trkpt lat="47.77234" lon="2.11582">
        <ele>135</ele>
        <time>2017-07-30T08:32:51.313Z</time>
      </trkpt>
      <trkpt lat="47.7723" lon="2.11578">
        <ele>135</ele>
        <time>2017-07-30T08:32:52.314Z</time>
      </trkpt>
      <trkpt lat="47.7723" lon="2.11578">
        <ele>135</ele>
        <time>2017-07-30T08:32:53.350Z</time>
      </trkpt>
      <trkpt lat="47.77222" lon="2.11569">
        <ele>135</ele>
        <time>2017-07-30T08:32:54.316Z</time>
      </trkpt>
      <trkpt lat="47.77222" lon="2.11569">
        <ele>135</ele>
        <time>2017-07-30T08:32:55.312Z</time>
      </trkpt>
      <trkpt lat="47.77214" lon="2.1156">
        <ele>135</ele>
        <time>2017-07-30T08:32:56.314Z</time>
      </trkpt>
      <trkpt lat="47.7721" lon="2.11556">
        <ele>135</ele>
        <time>2017-07-30T08:32:57.318Z</time>
      </trkpt>
      <trkpt lat="47.7721" lon="2.11556">
        <ele>135</ele>
        <time>2017-07-30T08:32:58.316Z</time>
      </trkpt>
      <trkpt lat="47.77201" lon="2.11548">
        <ele>135</ele>
        <time>2017-07-30T08:32:59.314Z</time>
      </trkpt>
      <trkpt lat="47.77197" lon="2.11544">
        <ele>135</ele>
        <time>2017-07-30T08:33:00.317Z</time>
      </trkpt>
      <trkpt lat="47.77197" lon="2.11544">
        <ele>135</ele>
        <time>2017-07-30T08:33:01.311Z</time>
      </trkpt>
      <trkpt lat="47.77189" lon="2.11535">
        <ele>135</ele>
        <time>2017-07-30T08:33:02.315Z</time>
      </trkpt>
      <trkpt lat="47.77184" lon="2.11531">
        <ele>134</ele>
        <time>2017-07-30T08:33:03.318Z</time>
      </trkpt>
      <trkpt lat="47.77184" lon="2.11531">
        <ele>134</ele>
        <time>2017-07-30T08:33:04.311Z</time>
      </trkpt>
      <trkpt lat="47.77175" lon="2.11522">
        <ele>134</ele>
        <time>2017-07-30T08:33:05.314Z</time>
      </trkpt>
      <trkpt lat="47.77171" lon="2.11518">
        <ele>134</ele>
        <time>2017-07-30T08:33:06.319Z</time>
      </trkpt>
      <trkpt lat="47.77171" lon="2.11518">
        <ele>134</ele>
        <time>2017-07-30T08:33:07.349Z</time>
      </trkpt>
      <trkpt lat="47.77162" lon="2.11509">
        <ele>134</ele>
        <time>2017-07-30T08:33:08.317Z</time>
      </trkpt>
      <trkpt lat="47.77162" lon="2.11509">
        <ele>134</ele>
        <time>2017-07-30T08:33:09.311Z</time>
      </trkpt>
      <trkpt lat="47.77153" lon="2.11501">
        <ele>134</ele>
        <time>2017-07-30T08:33:10.314Z</time>
      </trkpt>
      <trkpt lat="47.77153" lon="2.11501">
        <ele>134</ele>
        <time>2017-07-30T08:33:11.313Z</time>
      </trkpt>
      <trkpt lat="47.77145" lon="2.11492">
        <ele>134</ele>
        <time>2017-07-30T08:33:12.312Z</time>
      </trkpt>
      <trkpt lat="47.77145" lon="2.11492">
        <ele>134</ele>
        <time>2017-07-30T08:33:13.350Z</time>
      </trkpt>
      <trkpt lat="47.77136" lon="2.11484">
        <ele>134</ele>
        <time>2017-07-30T08:33:14.350Z</time>
      </trkpt>
      <trkpt lat="47.77136" lon="2.11484">
        <ele>134</ele>
        <time>2017-07-30T08:33:15.324Z</time>
      </trkpt>
      <trkpt lat="47.77128" lon="2.11476">
        <ele>134</ele>
        <time>2017-07-30T08:33:16.314Z</time>
      </trkpt>
      <trkpt lat="47.77128" lon="2.11476">
        <ele>134</ele>
        <time>2017-07-30T08:33:17.350Z</time>
      </trkpt>
      <trkpt lat="47.77119" lon="2.11467">
        <ele>134</ele>
        <time>2017-07-30T08:33:18.314Z</time>
      </trkpt>
      <trkpt lat="47.77115" lon="2.11463">
        <ele>134</ele>
        <time>2017-07-30T08:33:19.313Z</time>
      </trkpt>
      <trkpt lat="47.77115" lon="2.11463">
        <ele>134</ele>
        <time>2017-07-30T08:33:20.313Z</time>
      </trkpt>
      <trkpt lat="47.77107" lon="2.11455">
        <ele>133</ele>
        <time>2017-07-30T08:33:21.312Z</time>
      </trkpt>
      <trkpt lat="47.77102" lon="2.1145">
        <ele>133</ele>
        <time>2017-07-30T08:33:22.314Z</time>
      </trkpt>
      <trkpt lat="47.77102" lon="2.1145">
        <ele>133</ele>
        <time>2017-07-30T08:33:23.350Z</time>
      </trkpt>
      <trkpt lat="47.77094" lon="2.11442">
        <ele>133</ele>
        <time>2017-07-30T08:33:24.331Z</time>
      </trkpt>
      <trkpt lat="47.77094" lon="2.11442">
        <ele>133</ele>
        <time>2017-07-30T08:33:25.350Z</time>
      </trkpt>
      <trkpt lat="47.77086" lon="2.11433">
        <ele>133</ele>
        <time>2017-07-30T08:33:26.316Z</time>
      </trkpt>
      <trkpt lat="47.77086" lon="2.11433">
        <ele>133</ele>
        <time>2017-07-30T08:33:27.322Z</time>
      </trkpt>
      <trkpt lat="47.77077" lon="2.11425">
        <ele>133</ele>
        <time>2017-07-30T08:33:28.318Z</time>
      </trkpt>
      <trkpt lat="47.77077" lon="2.11425">
        <ele>133</ele>
        <time>2017-07-30T08:33:29.350Z</time>
      </trkpt>
      <trkpt lat="47.77068" lon="2.11417">
        <ele>133</ele>
        <time>2017-07-30T08:33:30.311Z</time>
      </trkpt>
      <trkpt lat="47.77064" lon="2.11412">
        <ele>133</ele>
        <time>2017-07-30T08:33:31.342Z</time>
      </trkpt>
      <trkpt lat="47.7706" lon="2.11408">
        <ele>133</ele>
        <time>2017-07-30T08:33:32.311Z</time>
      </trkpt>
      <trkpt lat="47.7706" lon="2.11408">
        <ele>133</ele>
        <time>2017-07-30T08:33:33.311Z</time>
      </trkpt>
      <trkpt lat="47.77052" lon="2.114">
        <ele>133</ele>
        <time>2017-07-30T08:33:34.314Z</time>
      </trkpt>
      <trkpt lat="47.77052" lon="2.114">
        <ele>133</ele>
        <time>2017-07-30T08:33:35.350Z</time>
      </trkpt>
      <trkpt lat="47.77043" lon="2.11391">
        <ele>133</ele>
        <time>2017-07-30T08:33:36.315Z</time>
      </trkpt>
      <trkpt lat="47.77043" lon="2.11391">
        <ele>133</ele>
        <time>2017-07-30T08:33:37.315Z</time>
      </trkpt>
      <trkpt lat="47.77035" lon="2.11383">
        <ele>133</ele>
        <time>2017-07-30T08:33:38.322Z</time>
      </trkpt>
      <trkpt lat="47.77035" lon="2.11383">
        <ele>133</ele>
        <time>2017-07-30T08:33:39.311Z</time>
      </trkpt>
      <trkpt lat="47.77026" lon="2.11375">
        <ele>132</ele>
        <time>2017-07-30T08:33:40.319Z</time>
      </trkpt>
      <trkpt lat="47.77026" lon="2.11375">
        <ele>132</ele>
        <time>2017-07-30T08:33:41.325Z</time>
      </trkpt>
      <trkpt lat="47.77018" lon="2.11366">
        <ele>132</ele>
        <time>2017-07-30T08:33:42.314Z</time>
      </trkpt>
      <trkpt lat="47.77018" lon="2.11366">
        <ele>132</ele>
        <time>2017-07-30T08:33:43.330Z</time>
      </trkpt>
      <trkpt lat="47.7701" lon="2.11358">
        <ele>132</ele>
        <time>2017-07-30T08:33:44.312Z</time>
      </trkpt>
      <trkpt lat="47.77006" lon="2.11354">
        <ele>132</ele>
        <time>2017-07-30T08:33:45.316Z</time>
      </trkpt>
      <trkpt lat="47.77006" lon="2.11354">
        <ele>132</ele>
        <time>2017-07-30T08:33:46.311Z</time>
      </trkpt>
      <trkpt lat="47.76999" lon="2.11347">
        <ele>132</ele>
        <time>2017-07-30T08:33:47.326Z</time>
      </trkpt>
      <trkpt lat="47.76996" lon="2.11343">
        <ele>132</ele>
        <time>2017-07-30T08:33:48.319Z</time>
      </trkpt>
      <trkpt lat="47.76996" lon="2.11343">
        <ele>132</ele>
        <time>2017-07-30T08:33:49.312Z</time>
      </trkpt>
      <trkpt lat="47.76989" lon="2.11336">
        <ele>132</ele>
        <time>2017-07-30T08:33:50.316Z</time>
      </trkpt>
      <trkpt lat="47.76989" lon="2.11336">
        <ele>132</ele>
        <time>2017-07-30T08:33:51.313Z</time>
      </trkpt>
      <trkpt lat="47.76982" lon="2.11329">
        <ele>131</ele>
        <time>2017-07-30T08:33:52.315Z</time>
      </trkpt>
      <trkpt lat="47.76978" lon="2.11326">
        <ele>131</ele>
        <time>2017-07-30T08:33:53.314Z</time>
      </trkpt>
      <trkpt lat="47.76975" lon="2.11323">
        <ele>131</ele>
        <time>2017-07-30T08:33:54.318Z</time>
      </trkpt>
      <trkpt lat="47.76975" lon="2.11323">
        <ele>131</ele>
        <time>2017-07-30T08:33:55.349Z</time>
      </trkpt>
      <trkpt lat="47.76968" lon="2.11316">
        <ele>131</ele>
        <time>2017-07-30T08:33:56.314Z</time>
      </trkpt>
      <trkpt lat="47.76964" lon="2.11312">
        <ele>131</ele>
        <time>2017-07-30T08:33:57.335Z</time>
      </trkpt>
      <trkpt lat="47.76964" lon="2.11312">
        <ele>131</ele>
        <time>2017-07-30T08:33:58.332Z</time>
      </trkpt>
      <trkpt lat="47.76956" lon="2.11304">
        <ele>131</ele>
        <time>2017-07-30T08:33:59.314Z</time>
      </trkpt>
      <trkpt lat="47.76952" lon="2.113">
        <ele>130</ele>
        <time>2017-07-30T08:34:00.314Z</time>
      </trkpt>
      <trkpt lat="47.76952" lon="2.113">
        <ele>130</ele>
        <time>2017-07-30T08:34:01.341Z</time>
      </trkpt>
      <trkpt lat="47.76944" lon="2.11293">
        <ele>130</ele>
        <time>2017-07-30T08:34:02.348Z</time>
      </trkpt>
      <trkpt lat="47.76944" lon="2.11293">
        <ele>130</ele>
        <time>2017-07-30T08:34:03.314Z</time>
      </trkpt>
      <trkpt lat="47.76937" lon="2.11286">
        <ele>130</ele>
        <time>2017-07-30T08:34:04.314Z</time>
      </trkpt>
      <trkpt lat="47.76937" lon="2.11286">
        <ele>130</ele>
        <time>2017-07-30T08:34:05.350Z</time>
      </trkpt>
      <trkpt lat="47.7693" lon="2.11279">
        <ele>130</ele>
        <time>2017-07-30T08:34:06.314Z</time>
      </trkpt>
      <trkpt lat="47.7693" lon="2.11279">
        <ele>130</ele>
        <time>2017-07-30T08:34:07.350Z</time>
      </trkpt>
      <trkpt lat="47.76925" lon="2.11272">
        <ele>130</ele>
        <time>2017-07-30T08:34:08.312Z</time>
      </trkpt>
      <trkpt lat="47.76925" lon="2.11272">
        <ele>130</ele>
        <time>2017-07-30T08:34:09.324Z</time>
      </trkpt>
      <trkpt lat="47.76927" lon="2.11266">
        <ele>130</ele>
        <time>2017-07-30T08:34:10.316Z</time>
      </trkpt>
      <trkpt lat="47.76927" lon="2.11266">
        <ele>130</ele>
        <time>2017-07-30T08:34:11.350Z</time>
      </trkpt>
      <trkpt lat="47.76933" lon="2.11266">
        <ele>130</ele>
        <time>2017-07-30T08:34:12.313Z</time>
      </trkpt>
      <trkpt lat="47.76933" lon="2.11266">
        <ele>130</ele>
        <time>2017-07-30T08:34:13.350Z</time>
      </trkpt>
      <trkpt lat="47.76938" lon="2.11267">
        <ele>131</ele>
        <time>2017-07-30T08:34:14.311Z</time>
      </trkpt>
      <trkpt lat="47.76938" lon="2.11267">
        <ele>131</ele>
        <time>2017-07-30T08:34:15.314Z</time>
      </trkpt>
      <trkpt lat="47.76943" lon="2.11268">
        <ele>131</ele>
        <time>2017-07-30T08:34:16.314Z</time>
      </trkpt>
      <trkpt lat="47.76946" lon="2.11268">
        <ele>131</ele>
        <time>2017-07-30T08:34:17.337Z</time>
      </trkpt>
      <trkpt lat="47.76946" lon="2.11268">
        <ele>131</ele>
        <time>2017-07-30T08:34:18.342Z</time>
      </trkpt>
      <trkpt lat="47.76952" lon="2.11269">
        <ele>131</ele>
        <time>2017-07-30T08:34:19.348Z</time>
      </trkpt>
      <trkpt lat="47.76955" lon="2.1127">
        <ele>131</ele>
        <time>2017-07-30T08:34:20.314Z</time>
      </trkpt>
      <trkpt lat="47.76955" lon="2.1127">
        <ele>131</ele>
        <time>2017-07-30T08:34:21.324Z</time>
      </trkpt>
      <trkpt lat="47.76961" lon="2.1127">
        <ele>132</ele>
        <time>2017-07-30T08:34:22.318Z</time>
      </trkpt>
      <trkpt lat="47.76961" lon="2.1127">
        <ele>132</ele>
        <time>2017-07-30T08:34:23.350Z</time>
      </trkpt>
      <trkpt lat="47.76968" lon="2.11271">
        <ele>132</ele>
        <time>2017-07-30T08:34:24.311Z</time>
      </trkpt>
      <trkpt lat="47.76972" lon="2.11271">
        <ele>132</ele>
        <time>2017-07-30T08:34:25.321Z</time>
      </trkpt>
      <trkpt lat="47.76972" lon="2.11271">
        <ele>132</ele>
        <time>2017-07-30T08:34:26.327Z</time>
      </trkpt>
      <trkpt lat="47.7698" lon="2.11271">
        <ele>132</ele>
        <time>2017-07-30T08:34:27.319Z</time>
      </trkpt>
      <trkpt lat="47.76984" lon="2.11272">
        <ele>132</ele>
        <time>2017-07-30T08:34:28.314Z</time>
      </trkpt>
      <trkpt lat="47.76984" lon="2.11272">
        <ele>132</ele>
        <time>2017-07-30T08:34:29.350Z</time>
      </trkpt>
      <trkpt lat="47.76992" lon="2.11273">
        <ele>133</ele>
        <time>2017-07-30T08:34:30.325Z</time>
      </trkpt>
      <trkpt lat="47.76992" lon="2.11273">
        <ele>133</ele>
        <time>2017-07-30T08:34:31.314Z</time>
      </trkpt>
      <trkpt lat="47.77001" lon="2.11273">
        <ele>133</ele>
        <time>2017-07-30T08:34:32.313Z</time>
      </trkpt>
      <trkpt lat="47.77001" lon="2.11273">
        <ele>133</ele>
        <time>2017-07-30T08:34:33.311Z</time>
      </trkpt>
      <trkpt lat="47.7701" lon="2.11273">
        <ele>133</ele>
        <time>2017-07-30T08:34:34.316Z</time>
      </trkpt>
      <trkpt lat="47.7701" lon="2.11273">
        <ele>133</ele>
        <time>2017-07-30T08:34:35.313Z</time>
      </trkpt>
      <trkpt lat="47.77019" lon="2.11274">
        <ele>133</ele>
        <time>2017-07-30T08:34:36.318Z</time>
      </trkpt>
      <trkpt lat="47.77019" lon="2.11274">
        <ele>133</ele>
        <time>2017-07-30T08:34:37.314Z</time>
      </trkpt>
      <trkpt lat="47.77028" lon="2.11274">
        <ele>133</ele>
        <time>2017-07-30T08:34:38.316Z</time>
      </trkpt>
      <trkpt lat="47.77033" lon="2.11275">
        <ele>133</ele>
        <time>2017-07-30T08:34:39.316Z</time>
      </trkpt>
      <trkpt lat="47.77033" lon="2.11275">
        <ele>133</ele>
        <time>2017-07-30T08:34:40.314Z</time>
      </trkpt>
      <trkpt lat="47.77044" lon="2.11276">
        <ele>133</ele>
        <time>2017-07-30T08:34:41.316Z</time>
      </trkpt>
      <trkpt lat="47.77049" lon="2.11276">
        <ele>133</ele>
        <time>2017-07-30T08:34:42.316Z</time>
      </trkpt>
      <trkpt lat="47.77049" lon="2.11276">
        <ele>133</ele>
        <time>2017-07-30T08:34:43.330Z</time>
      </trkpt>
      <trkpt lat="47.7706" lon="2.11276">
        <ele>133</ele>
        <time>2017-07-30T08:34:44.348Z</time>
      </trkpt>
      <trkpt lat="47.77065" lon="2.11276">
        <ele>133</ele>
        <time>2017-07-30T08:34:45.317Z</time>
      </trkpt>
      <trkpt lat="47.77065" lon="2.11276">
        <ele>133</ele>
        <time>2017-07-30T08:34:46.313Z</time>
      </trkpt>
      <trkpt lat="47.77077" lon="2.11276">
        <ele>133</ele>
        <time>2017-07-30T08:34:47.315Z</time>
      </trkpt>
      <trkpt lat="47.77082" lon="2.11277">
        <ele>133</ele>
        <time>2017-07-30T08:34:48.313Z</time>
      </trkpt>
      <trkpt lat="47.77082" lon="2.11277">
        <ele>133</ele>
        <time>2017-07-30T08:34:49.311Z</time>
      </trkpt>
      <trkpt lat="47.77094" lon="2.11278">
        <ele>133</ele>
        <time>2017-07-30T08:34:50.312Z</time>
      </trkpt>
      <trkpt lat="47.77094" lon="2.11278">
        <ele>133</ele>
        <time>2017-07-30T08:34:51.335Z</time>
      </trkpt>
      <trkpt lat="47.77105" lon="2.11279">
        <ele>133</ele>
        <time>2017-07-30T08:34:52.325Z</time>
      </trkpt>
      <trkpt lat="47.77105" lon="2.11279">
        <ele>133</ele>
        <time>2017-07-30T08:34:53.313Z</time>
      </trkpt>
      <trkpt lat="47.77117" lon="2.1128">
        <ele>133</ele>
        <time>2017-07-30T08:34:54.313Z</time>
      </trkpt>
      <trkpt lat="47.77117" lon="2.1128">
        <ele>133</ele>
        <time>2017-07-30T08:34:55.350Z</time>
      </trkpt>
      <trkpt lat="47.77128" lon="2.11281">
        <ele>133</ele>
        <time>2017-07-30T08:34:56.313Z</time>
      </trkpt>
      <trkpt lat="47.77128" lon="2.11281">
        <ele>133</ele>
        <time>2017-07-30T08:34:57.311Z</time>
      </trkpt>
      <trkpt lat="47.7714" lon="2.11282">
        <ele>133</ele>
        <time>2017-07-30T08:34:58.314Z</time>
      </trkpt>
      <trkpt lat="47.7714" lon="2.11282">
        <ele>133</ele>
        <time>2017-07-30T08:34:59.350Z</time>
      </trkpt>
      <trkpt lat="47.77152" lon="2.11283">
        <ele>133</ele>
        <time>2017-07-30T08:35:00.314Z</time>
      </trkpt>
      <trkpt lat="47.77152" lon="2.11283">
        <ele>133</ele>
        <time>2017-07-30T08:35:01.318Z</time>
      </trkpt>
      <trkpt lat="47.77163" lon="2.11283">
        <ele>133</ele>
        <time>2017-07-30T08:35:02.313Z</time>
      </trkpt>
      <trkpt lat="47.77163" lon="2.11283">
        <ele>133</ele>
        <time>2017-07-30T08:35:03.311Z</time>
      </trkpt>
      <trkpt lat="47.77175" lon="2.11284">
        <ele>133</ele>
        <time>2017-07-30T08:35:04.314Z</time>
      </trkpt>
      <trkpt lat="47.77175" lon="2.11284">
        <ele>133</ele>
        <time>2017-07-30T08:35:05.350Z</time>
      </trkpt>
      <trkpt lat="47.77186" lon="2.11285">
        <ele>133</ele>
        <time>2017-07-30T08:35:06.312Z</time>
      </trkpt>
      <trkpt lat="47.77192" lon="2.11285">
        <ele>133</ele>
        <time>2017-07-30T08:35:07.316Z</time>
      </trkpt>
      <trkpt lat="47.77192" lon="2.11285">
        <ele>133</ele>
        <time>2017-07-30T08:35:08.344Z</time>
      </trkpt>
      <trkpt lat="47.77203" lon="2.11286">
        <ele>133</ele>
        <time>2017-07-30T08:35:09.312Z</time>
      </trkpt>
      <trkpt lat="47.77208" lon="2.11287">
        <ele>133</ele>
        <time>2017-07-30T08:35:10.314Z</time>
      </trkpt>
      <trkpt lat="47.77208" lon="2.11287">
        <ele>133</ele>
        <time>2017-07-30T08:35:11.325Z</time>
      </trkpt>
      <trkpt lat="47.77219" lon="2.11288">
        <ele>133</ele>
        <time>2017-07-30T08:35:12.313Z</time>
      </trkpt>
      <trkpt lat="47.77219" lon="2.11288">
        <ele>133</ele>
        <time>2017-07-30T08:35:13.324Z</time>
      </trkpt>
      <trkpt lat="47.77229" lon="2.11289">
        <ele>133</ele>
        <time>2017-07-30T08:35:14.315Z</time>
      </trkpt>
      <trkpt lat="47.77229" lon="2.11289">
        <ele>133</ele>
        <time>2017-07-30T08:35:15.346Z</time>
      </trkpt>
      <trkpt lat="47.77239" lon="2.1129">
        <ele>133</ele>
        <time>2017-07-30T08:35:16.314Z</time>
      </trkpt>
      <trkpt lat="47.77239" lon="2.1129">
        <ele>133</ele>
        <time>2017-07-30T08:35:17.350Z</time>
      </trkpt>
      <trkpt lat="47.77249" lon="2.11291">
        <ele>133</ele>
        <time>2017-07-30T08:35:18.314Z</time>
      </trkpt>
      <trkpt lat="47.77249" lon="2.11291">
        <ele>133</ele>
        <time>2017-07-30T08:35:19.350Z</time>
      </trkpt>
      <trkpt lat="47.77258" lon="2.1129">
        <ele>133</ele>
        <time>2017-07-30T08:35:20.312Z</time>
      </trkpt>
      <trkpt lat="47.77262" lon="2.1129">
        <ele>133</ele>
        <time>2017-07-30T08:35:21.312Z</time>
      </trkpt>
      <trkpt lat="47.77266" lon="2.11291">
        <ele>134</ele>
        <time>2017-07-30T08:35:22.315Z</time>
      </trkpt>
      <trkpt lat="47.77266" lon="2.11291">
        <ele>134</ele>
        <time>2017-07-30T08:35:23.312Z</time>
      </trkpt>
      <trkpt lat="47.77275" lon="2.11291">
        <ele>134</ele>
        <time>2017-07-30T08:35:24.320Z</time>
      </trkpt>
      <trkpt lat="47.77275" lon="2.11291">
        <ele>134</ele>
        <time>2017-07-30T08:35:25.350Z</time>
      </trkpt>
      <trkpt lat="47.77284" lon="2.11291">
        <ele>134</ele>
        <time>2017-07-30T08:35:26.316Z</time>
      </trkpt>
      <trkpt lat="47.77289" lon="2.11292">
        <ele>134</ele>
        <time>2017-07-30T08:35:27.322Z</time>
      </trkpt>
      <trkpt lat="47.77294" lon="2.11292">
        <ele>134</ele>
        <time>2017-07-30T08:35:28.317Z</time>
      </trkpt>
      <trkpt lat="47.77294" lon="2.11292">
        <ele>134</ele>
        <time>2017-07-30T08:35:29.312Z</time>
      </trkpt>
      <trkpt lat="47.77303" lon="2.11293">
        <ele>134</ele>
        <time>2017-07-30T08:35:30.346Z</time>
      </trkpt>
      <trkpt lat="47.77308" lon="2.11293">
        <ele>134</ele>
        <time>2017-07-30T08:35:31.336Z</time>
      </trkpt>
      <trkpt lat="47.77308" lon="2.11293">
        <ele>134</ele>
        <time>2017-07-30T08:35:32.325Z</time>
      </trkpt>
      <trkpt lat="47.77318" lon="2.11294">
        <ele>133</ele>
        <time>2017-07-30T08:35:33.317Z</time>
      </trkpt>
      <trkpt lat="47.77318" lon="2.11294">
        <ele>133</ele>
        <time>2017-07-30T08:35:34.314Z</time>
      </trkpt>
      <trkpt lat="47.77329" lon="2.11294">
        <ele>134</ele>
        <time>2017-07-30T08:35:35.315Z</time>
      </trkpt>
      <trkpt lat="47.77329" lon="2.11294">
        <ele>134</ele>
        <time>2017-07-30T08:35:36.313Z</time>
      </trkpt>
      <trkpt lat="47.77339" lon="2.11294">
        <ele>134</ele>
        <time>2017-07-30T08:35:37.350Z</time>
      </trkpt>
      <trkpt lat="47.77344" lon="2.11294">
        <ele>134</ele>
        <time>2017-07-30T08:35:38.313Z</time>
      </trkpt>
      <trkpt lat="47.77344" lon="2.11294">
        <ele>134</ele>
        <time>2017-07-30T08:35:39.311Z</time>
      </trkpt>
      <trkpt lat="47.77354" lon="2.11294">
        <ele>134</ele>
        <time>2017-07-30T08:35:40.314Z</time>
      </trkpt>
      <trkpt lat="47.77354" lon="2.11294">
        <ele>134</ele>
        <time>2017-07-30T08:35:41.350Z</time>
      </trkpt>
      <trkpt lat="47.77364" lon="2.11294">
        <ele>135</ele>
        <time>2017-07-30T08:35:42.330Z</time>
      </trkpt>
      <trkpt lat="47.77364" lon="2.11294">
        <ele>135</ele>
        <time>2017-07-30T08:35:43.330Z</time>
      </trkpt>
      <trkpt lat="47.77375" lon="2.11294">
        <ele>135</ele>
        <time>2017-07-30T08:35:44.318Z</time>
      </trkpt>
      <trkpt lat="47.77375" lon="2.11294">
        <ele>135</ele>
        <time>2017-07-30T08:35:45.311Z</time>
      </trkpt>
      <trkpt lat="47.77385" lon="2.11292">
        <ele>136</ele>
        <time>2017-07-30T08:35:46.314Z</time>
      </trkpt>
      <trkpt lat="47.77385" lon="2.11292">
        <ele>136</ele>
        <time>2017-07-30T08:35:47.311Z</time>
      </trkpt>
      <trkpt lat="47.77395" lon="2.1129">
        <ele>137</ele>
        <time>2017-07-30T08:35:48.313Z</time>
      </trkpt>
      <trkpt lat="47.77395" lon="2.1129">
        <ele>137</ele>
        <time>2017-07-30T08:35:49.350Z</time>
      </trkpt>
      <trkpt lat="47.77404" lon="2.11288">
        <ele>139</ele>
        <time>2017-07-30T08:35:50.311Z</time>
      </trkpt>
      <trkpt lat="47.77404" lon="2.11288">
        <ele>139</ele>
        <time>2017-07-30T08:35:51.325Z</time>
      </trkpt>
      <trkpt lat="47.77413" lon="2.11285">
        <ele>140</ele>
        <time>2017-07-30T08:35:52.314Z</time>
      </trkpt>
      <trkpt lat="47.77413" lon="2.11285">
        <ele>140</ele>
        <time>2017-07-30T08:35:53.344Z</time>
      </trkpt>
      <trkpt lat="47.77422" lon="2.11283">
        <ele>142</ele>
        <time>2017-07-30T08:35:54.311Z</time>
      </trkpt>
      <trkpt lat="47.77422" lon="2.11283">
        <ele>142</ele>
        <time>2017-07-30T08:35:55.350Z</time>
      </trkpt>
      <trkpt lat="47.77432" lon="2.11281">
        <ele>143</ele>
        <time>2017-07-30T08:35:56.314Z</time>
      </trkpt>
      <trkpt lat="47.77437" lon="2.1128">
        <ele>144</ele>
        <time>2017-07-30T08:35:57.312Z</time>
      </trkpt>
      <trkpt lat="47.77442" lon="2.1128">
        <ele>145</ele>
        <time>2017-07-30T08:35:58.314Z</time>
      </trkpt>
      <trkpt lat="47.77442" lon="2.1128">
        <ele>145</ele>
        <time>2017-07-30T08:35:59.350Z</time>
      </trkpt>
      <trkpt lat="47.77453" lon="2.1128">
        <ele>146</ele>
        <time>2017-07-30T08:36:00.346Z</time>
      </trkpt>
      <trkpt lat="47.77458" lon="2.11282">
        <ele>147</ele>
        <time>2017-07-30T08:36:01.313Z</time>
      </trkpt>
      <trkpt lat="47.77458" lon="2.11282">
        <ele>147</ele>
        <time>2017-07-30T08:36:02.311Z</time>
      </trkpt>
      <trkpt lat="47.77468" lon="2.11285">
        <ele>148</ele>
        <time>2017-07-30T08:36:03.312Z</time>
      </trkpt>
      <trkpt lat="47.77473" lon="2.11288">
        <ele>148</ele>
        <time>2017-07-30T08:36:04.316Z</time>
      </trkpt>
      <trkpt lat="47.77473" lon="2.11288">
        <ele>148</ele>
        <time>2017-07-30T08:36:05.344Z</time>
      </trkpt>
      <trkpt lat="47.77483" lon="2.11293">
        <ele>150</ele>
        <time>2017-07-30T08:36:06.313Z</time>
      </trkpt>
      <trkpt lat="47.77483" lon="2.11293">
        <ele>150</ele>
        <time>2017-07-30T08:36:07.350Z</time>
      </trkpt>
      <trkpt lat="47.77495" lon="2.11297">
        <ele>151</ele>
        <time>2017-07-30T08:36:08.312Z</time>
      </trkpt>
      <trkpt lat="47.77495" lon="2.11297">
        <ele>151</ele>
        <time>2017-07-30T08:36:09.311Z</time>
      </trkpt>
      <trkpt lat="47.77506" lon="2.11301">
        <ele>153</ele>
        <time>2017-07-30T08:36:10.313Z</time>
      </trkpt>
      <trkpt lat="47.77506" lon="2.11301">
        <ele>153</ele>
        <time>2017-07-30T08:36:11.314Z</time>
      </trkpt>
      <trkpt lat="47.77516" lon="2.11305">
        <ele>154</ele>
        <time>2017-07-30T08:36:12.313Z</time>
      </trkpt>
      <trkpt lat="47.77516" lon="2.11305">
        <ele>154</ele>
        <time>2017-07-30T08:36:13.350Z</time>
      </trkpt>
      <trkpt lat="47.77526" lon="2.11307">
        <ele>154</ele>
        <time>2017-07-30T08:36:14.316Z</time>
      </trkpt>
      <trkpt lat="47.77532" lon="2.1131">
        <ele>154</ele>
        <time>2017-07-30T08:36:15.315Z</time>
      </trkpt>
      <trkpt lat="47.77532" lon="2.1131">
        <ele>154</ele>
        <time>2017-07-30T08:36:16.314Z</time>
      </trkpt>
      <trkpt lat="47.77543" lon="2.11313">
        <ele>154</ele>
        <time>2017-07-30T08:36:17.314Z</time>
      </trkpt>
      <trkpt lat="47.77548" lon="2.11316">
        <ele>154</ele>
        <time>2017-07-30T08:36:18.317Z</time>
      </trkpt>
      <trkpt lat="47.77548" lon="2.11316">
        <ele>154</ele>
        <time>2017-07-30T08:36:19.312Z</time>
      </trkpt>
      <trkpt lat="47.77561" lon="2.11324">
        <ele>150</ele>
        <time>2017-07-30T08:36:20.347Z</time>
      </trkpt>
      <trkpt lat="47.77567" lon="2.11327">
        <ele>149</ele>
        <time>2017-07-30T08:36:21.316Z</time>
      </trkpt>
      <trkpt lat="47.77573" lon="2.1133">
        <ele>148</ele>
        <time>2017-07-30T08:36:22.316Z</time>
      </trkpt>
      <trkpt lat="47.77573" lon="2.1133">
        <ele>148</ele>
        <time>2017-07-30T08:36:23.312Z</time>
      </trkpt>
      <trkpt lat="47.77585" lon="2.11335">
        <ele>146</ele>
        <time>2017-07-30T08:36:24.339Z</time>
      </trkpt>
      <trkpt lat="47.77585" lon="2.11335">
        <ele>146</ele>
        <time>2017-07-30T08:36:25.346Z</time>
      </trkpt>
      <trkpt lat="47.77597" lon="2.11341">
        <ele>144</ele>
        <time>2017-07-30T08:36:26.313Z</time>
      </trkpt>
      <trkpt lat="47.77597" lon="2.11341">
        <ele>144</ele>
        <time>2017-07-30T08:36:27.319Z</time>
      </trkpt>
      <trkpt lat="47.77608" lon="2.11345">
        <ele>142</ele>
        <time>2017-07-30T08:36:28.319Z</time>
      </trkpt>
      <trkpt lat="47.77608" lon="2.11345">
        <ele>142</ele>
        <time>2017-07-30T08:36:29.321Z</time>
      </trkpt>
      <trkpt lat="47.7762" lon="2.1135">
        <ele>141</ele>
        <time>2017-07-30T08:36:30.323Z</time>
      </trkpt>
      <trkpt lat="47.77627" lon="2.11352">
        <ele>140</ele>
        <time>2017-07-30T08:36:31.313Z</time>
      </trkpt>
      <trkpt lat="47.77632" lon="2.11355">
        <ele>140</ele>
        <time>2017-07-30T08:36:32.313Z</time>
      </trkpt>
      <trkpt lat="47.77632" lon="2.11355">
        <ele>140</ele>
        <time>2017-07-30T08:36:33.311Z</time>
      </trkpt>
      <trkpt lat="47.77644" lon="2.11359">
        <ele>140</ele>
        <time>2017-07-30T08:36:34.314Z</time>
      </trkpt>
      <trkpt lat="47.77644" lon="2.11359">
        <ele>140</ele>
        <time>2017-07-30T08:36:35.313Z</time>
      </trkpt>
      <trkpt lat="47.77655" lon="2.11364">
        <ele>140</ele>
        <time>2017-07-30T08:36:36.311Z</time>
      </trkpt>
      <trkpt lat="47.77655" lon="2.11364">
        <ele>140</ele>
        <time>2017-07-30T08:36:37.350Z</time>
      </trkpt>
      <trkpt lat="47.77666" lon="2.11369">
        <ele>139</ele>
        <time>2017-07-30T08:36:38.311Z</time>
      </trkpt>
      <trkpt lat="47.77666" lon="2.11369">
        <ele>139</ele>
        <time>2017-07-30T08:36:39.311Z</time>
      </trkpt>
      <trkpt lat="47.77676" lon="2.11373">
        <ele>139</ele>
        <time>2017-07-30T08:36:40.314Z</time>
      </trkpt>
      <trkpt lat="47.77676" lon="2.11373">
        <ele>139</ele>
        <time>2017-07-30T08:36:41.350Z</time>
      </trkpt>
      <trkpt lat="47.77687" lon="2.11378">
        <ele>139</ele>
        <time>2017-07-30T08:36:42.350Z</time>
      </trkpt>
      <trkpt lat="47.77687" lon="2.11378">
        <ele>139</ele>
        <time>2017-07-30T08:36:43.347Z</time>
      </trkpt>
      <trkpt lat="47.77699" lon="2.11383">
        <ele>139</ele>
        <time>2017-07-30T08:36:44.327Z</time>
      </trkpt>
      <trkpt lat="47.77699" lon="2.11383">
        <ele>139</ele>
        <time>2017-07-30T08:36:45.326Z</time>
      </trkpt>
      <trkpt lat="47.7771" lon="2.11389">
        <ele>138</ele>
        <time>2017-07-30T08:36:46.315Z</time>
      </trkpt>
      <trkpt lat="47.7771" lon="2.11389">
        <ele>138</ele>
        <time>2017-07-30T08:36:47.350Z</time>
      </trkpt>
      <trkpt lat="47.77721" lon="2.11394">
        <ele>138</ele>
        <time>2017-07-30T08:36:48.314Z</time>
      </trkpt>
      <trkpt lat="47.77721" lon="2.11394">
        <ele>138</ele>
        <time>2017-07-30T08:36:49.350Z</time>
      </trkpt>
      <trkpt lat="47.77732" lon="2.114">
        <ele>137</ele>
        <time>2017-07-30T08:36:50.314Z</time>
      </trkpt>
      <trkpt lat="47.77732" lon="2.114">
        <ele>137</ele>
        <time>2017-07-30T08:36:51.312Z</time>
      </trkpt>
      <trkpt lat="47.77744" lon="2.11406">
        <ele>137</ele>
        <time>2017-07-30T08:36:52.314Z</time>
      </trkpt>
      <trkpt lat="47.77744" lon="2.11406">
        <ele>137</ele>
        <time>2017-07-30T08:36:53.349Z</time>
      </trkpt>
      <trkpt lat="47.77755" lon="2.11412">
        <ele>137</ele>
        <time>2017-07-30T08:36:54.350Z</time>
      </trkpt>
      <trkpt lat="47.77761" lon="2.11415">
        <ele>137</ele>
        <time>2017-07-30T08:36:55.327Z</time>
      </trkpt>
      <trkpt lat="47.77761" lon="2.11415">
        <ele>137</ele>
        <time>2017-07-30T08:36:56.319Z</time>
      </trkpt>
      <trkpt lat="47.77773" lon="2.11422">
        <ele>137</ele>
        <time>2017-07-30T08:36:57.314Z</time>
      </trkpt>
      <trkpt lat="47.77779" lon="2.11425">
        <ele>137</ele>
        <time>2017-07-30T08:36:58.319Z</time>
      </trkpt>
      <trkpt lat="47.77779" lon="2.11425">
        <ele>137</ele>
        <time>2017-07-30T08:36:59.323Z</time>
      </trkpt>
      <trkpt lat="47.77791" lon="2.11432">
        <ele>136</ele>
        <time>2017-07-30T08:37:00.329Z</time>
      </trkpt>
      <trkpt lat="47.77797" lon="2.11436">
        <ele>136</ele>
        <time>2017-07-30T08:37:01.348Z</time>
      </trkpt>
      <trkpt lat="47.77797" lon="2.11436">
        <ele>136</ele>
        <time>2017-07-30T08:37:02.313Z</time>
      </trkpt>
      <trkpt lat="47.77808" lon="2.11443">
        <ele>136</ele>
        <time>2017-07-30T08:37:03.314Z</time>
      </trkpt>
      <trkpt lat="47.77814" lon="2.11447">
        <ele>136</ele>
        <time>2017-07-30T08:37:04.314Z</time>
      </trkpt>
      <trkpt lat="47.7782" lon="2.11451">
        <ele>136</ele>
        <time>2017-07-30T08:37:05.335Z</time>
      </trkpt>
      <trkpt lat="47.77826" lon="2.11455">
        <ele>136</ele>
        <time>2017-07-30T08:37:06.325Z</time>
      </trkpt>
      <trkpt lat="47.77826" lon="2.11455">
        <ele>136</ele>
        <time>2017-07-30T08:37:07.313Z</time>
      </trkpt>
      <trkpt lat="47.77837" lon="2.11462">
        <ele>135</ele>
        <time>2017-07-30T08:37:08.314Z</time>
      </trkpt>
      <trkpt lat="47.77837" lon="2.11462">
        <ele>135</ele>
        <time>2017-07-30T08:37:09.314Z</time>
      </trkpt>
      <trkpt lat="47.77848" lon="2.11469">
        <ele>135</ele>
        <time>2017-07-30T08:37:10.324Z</time>
      </trkpt>
      <trkpt lat="47.77848" lon="2.11469">
        <ele>135</ele>
        <time>2017-07-30T08:37:11.313Z</time>
      </trkpt>
      <trkpt lat="47.7786" lon="2.11477">
        <ele>135</ele>
        <time>2017-07-30T08:37:12.317Z</time>
      </trkpt>
      <trkpt lat="47.7786" lon="2.11477">
        <ele>135</ele>
        <time>2017-07-30T08:37:13.350Z</time>
      </trkpt>
      <trkpt lat="47.77872" lon="2.11484">
        <ele>135</ele>
        <time>2017-07-30T08:37:14.314Z</time>
      </trkpt>
      <trkpt lat="47.77878" lon="2.11488">
        <ele>135</ele>
        <time>2017-07-30T08:37:15.314Z</time>
      </trkpt>
      <trkpt lat="47.77878" lon="2.11488">
        <ele>135</ele>
        <time>2017-07-30T08:37:16.313Z</time>
      </trkpt>
      <trkpt lat="47.77889" lon="2.11495">
        <ele>134</ele>
        <time>2017-07-30T08:37:17.321Z</time>
      </trkpt>
      <trkpt lat="47.77895" lon="2.11498">
        <ele>134</ele>
        <time>2017-07-30T08:37:18.317Z</time>
      </trkpt>
      <trkpt lat="47.77895" lon="2.11498">
        <ele>134</ele>
        <time>2017-07-30T08:37:19.350Z</time>
      </trkpt>
      <trkpt lat="47.77907" lon="2.11505">
        <ele>134</ele>
        <time>2017-07-30T08:37:20.322Z</time>
      </trkpt>
      <trkpt lat="47.77913" lon="2.11509">
        <ele>133</ele>
        <time>2017-07-30T08:37:21.328Z</time>
      </trkpt>
      <trkpt lat="47.77913" lon="2.11509">
        <ele>133</ele>
        <time>2017-07-30T08:37:22.318Z</time>
      </trkpt>
      <trkpt lat="47.77924" lon="2.11516">
        <ele>133</ele>
        <time>2017-07-30T08:37:23.311Z</time>
      </trkpt>
      <trkpt lat="47.77924" lon="2.11516">
        <ele>133</ele>
        <time>2017-07-30T08:37:24.315Z</time>
      </trkpt>
      <trkpt lat="47.77935" lon="2.11523">
        <ele>133</ele>
        <time>2017-07-30T08:37:25.314Z</time>
      </trkpt>
      <trkpt lat="47.77935" lon="2.11523">
        <ele>133</ele>
        <time>2017-07-30T08:37:26.311Z</time>
      </trkpt>
      <trkpt lat="47.77946" lon="2.1153">
        <ele>133</ele>
        <time>2017-07-30T08:37:27.313Z</time>
      </trkpt>
      <trkpt lat="47.77946" lon="2.1153">
        <ele>133</ele>
        <time>2017-07-30T08:37:28.311Z</time>
      </trkpt>
      <trkpt lat="47.77957" lon="2.11537">
        <ele>133</ele>
        <time>2017-07-30T08:37:29.313Z</time>
      </trkpt>
      <trkpt lat="47.77963" lon="2.11541">
        <ele>133</ele>
        <time>2017-07-30T08:37:30.317Z</time>
      </trkpt>
      <trkpt lat="47.77963" lon="2.11541">
        <ele>133</ele>
        <time>2017-07-30T08:37:31.311Z</time>
      </trkpt>
      <trkpt lat="47.77973" lon="2.11548">
        <ele>133</ele>
        <time>2017-07-30T08:37:32.313Z</time>
      </trkpt>
      <trkpt lat="47.77973" lon="2.11548">
        <ele>133</ele>
        <time>2017-07-30T08:37:33.312Z</time>
      </trkpt>
      <trkpt lat="47.77984" lon="2.11555">
        <ele>134</ele>
        <time>2017-07-30T08:37:34.314Z</time>
      </trkpt>
      <trkpt lat="47.77984" lon="2.11555">
        <ele>134</ele>
        <time>2017-07-30T08:37:35.314Z</time>
      </trkpt>
      <trkpt lat="47.77994" lon="2.11562">
        <ele>133</ele>
        <time>2017-07-30T08:37:36.313Z</time>
      </trkpt>
      <trkpt lat="47.77994" lon="2.11562">
        <ele>133</ele>
        <time>2017-07-30T08:37:37.350Z</time>
      </trkpt>
      <trkpt lat="47.78004" lon="2.11569">
        <ele>133</ele>
        <time>2017-07-30T08:37:38.351Z</time>
      </trkpt>
      <trkpt lat="47.78004" lon="2.11569">
        <ele>133</ele>
        <time>2017-07-30T08:37:39.322Z</time>
      </trkpt>
      <trkpt lat="47.78015" lon="2.11576">
        <ele>133</ele>
        <time>2017-07-30T08:37:40.321Z</time>
      </trkpt>
      <trkpt lat="47.78015" lon="2.11576">
        <ele>133</ele>
        <time>2017-07-30T08:37:41.311Z</time>
      </trkpt>
      <trkpt lat="47.78025" lon="2.11582">
        <ele>133</ele>
        <time>2017-07-30T08:37:42.311Z</time>
      </trkpt>
      <trkpt lat="47.78025" lon="2.11582">
        <ele>133</ele>
        <time>2017-07-30T08:37:43.326Z</time>
      </trkpt>
      <trkpt lat="47.78036" lon="2.11588">
        <ele>133</ele>
        <time>2017-07-30T08:37:44.342Z</time>
      </trkpt>
      <trkpt lat="47.78036" lon="2.11588">
        <ele>133</ele>
        <time>2017-07-30T08:37:45.312Z</time>
      </trkpt>
      <trkpt lat="47.78048" lon="2.11591">
        <ele>133</ele>
        <time>2017-07-30T08:37:46.315Z</time>
      </trkpt>
      <trkpt lat="47.78048" lon="2.11591">
        <ele>133</ele>
        <time>2017-07-30T08:37:47.311Z</time>
      </trkpt>
      <trkpt lat="47.78059" lon="2.11592">
        <ele>133</ele>
        <time>2017-07-30T08:37:48.313Z</time>
      </trkpt>
      <trkpt lat="47.78059" lon="2.11592">
        <ele>133</ele>
        <time>2017-07-30T08:37:49.320Z</time>
      </trkpt>
      <trkpt lat="47.7807" lon="2.11592">
        <ele>133</ele>
        <time>2017-07-30T08:37:50.322Z</time>
      </trkpt>
      <trkpt lat="47.7807" lon="2.11592">
        <ele>133</ele>
        <time>2017-07-30T08:37:51.333Z</time>
      </trkpt>
      <trkpt lat="47.78081" lon="2.11593">
        <ele>133</ele>
        <time>2017-07-30T08:37:52.325Z</time>
      </trkpt>
      <trkpt lat="47.78081" lon="2.11593">
        <ele>133</ele>
        <time>2017-07-30T08:37:53.313Z</time>
      </trkpt>
      <trkpt lat="47.78092" lon="2.11594">
        <ele>133</ele>
        <time>2017-07-30T08:37:54.311Z</time>
      </trkpt>
      <trkpt lat="47.78092" lon="2.11594">
        <ele>133</ele>
        <time>2017-07-30T08:37:55.311Z</time>
      </trkpt>
      <trkpt lat="47.78104" lon="2.11595">
        <ele>133</ele>
        <time>2017-07-30T08:37:56.312Z</time>
      </trkpt>
      <trkpt lat="47.78104" lon="2.11595">
        <ele>133</ele>
        <time>2017-07-30T08:37:57.311Z</time>
      </trkpt>
      <trkpt lat="47.78116" lon="2.11595">
        <ele>133</ele>
        <time>2017-07-30T08:37:58.317Z</time>
      </trkpt>
      <trkpt lat="47.78116" lon="2.11595">
        <ele>133</ele>
        <time>2017-07-30T08:37:59.350Z</time>
      </trkpt>
      <trkpt lat="47.78128" lon="2.11594">
        <ele>132</ele>
        <time>2017-07-30T08:38:00.316Z</time>
      </trkpt>
      <trkpt lat="47.78128" lon="2.11594">
        <ele>132</ele>
        <time>2017-07-30T08:38:01.316Z</time>
      </trkpt>
      <trkpt lat="47.78139" lon="2.11591">
        <ele>132</ele>
        <time>2017-07-30T08:38:02.316Z</time>
      </trkpt>
      <trkpt lat="47.78139" lon="2.11591">
        <ele>132</ele>
        <time>2017-07-30T08:38:03.313Z</time>
      </trkpt>
      <trkpt lat="47.7815" lon="2.11588">
        <ele>133</ele>
        <time>2017-07-30T08:38:04.320Z</time>
      </trkpt>
      <trkpt lat="47.7815" lon="2.11588">
        <ele>133</ele>
        <time>2017-07-30T08:38:05.313Z</time>
      </trkpt>
      <trkpt lat="47.7816" lon="2.11586">
        <ele>133</ele>
        <time>2017-07-30T08:38:06.316Z</time>
      </trkpt>
      <trkpt lat="47.7816" lon="2.11586">
        <ele>133</ele>
        <time>2017-07-30T08:38:07.314Z</time>
      </trkpt>
      <trkpt lat="47.78171" lon="2.11584">
        <ele>134</ele>
        <time>2017-07-30T08:38:08.317Z</time>
      </trkpt>
      <trkpt lat="47.78177" lon="2.11584">
        <ele>134</ele>
        <time>2017-07-30T08:38:09.318Z</time>
      </trkpt>
      <trkpt lat="47.78177" lon="2.11584">
        <ele>134</ele>
        <time>2017-07-30T08:38:10.311Z</time>
      </trkpt>
      <trkpt lat="47.78189" lon="2.11584">
        <ele>134</ele>
        <time>2017-07-30T08:38:11.351Z</time>
      </trkpt>
      <trkpt lat="47.78195" lon="2.11585">
        <ele>134</ele>
        <time>2017-07-30T08:38:12.311Z</time>
      </trkpt>
      <trkpt lat="47.78195" lon="2.11585">
        <ele>134</ele>
        <time>2017-07-30T08:38:13.311Z</time>
      </trkpt>
      <trkpt lat="47.78208" lon="2.11589">
        <ele>134</ele>
        <time>2017-07-30T08:38:14.339Z</time>
      </trkpt>
      <trkpt lat="47.78215" lon="2.11591">
        <ele>134</ele>
        <time>2017-07-30T08:38:15.328Z</time>
      </trkpt>
      <trkpt lat="47.78215" lon="2.11591">
        <ele>134</ele>
        <time>2017-07-30T08:38:16.319Z</time>
      </trkpt>
      <trkpt lat="47.78226" lon="2.11595">
        <ele>135</ele>
        <time>2017-07-30T08:38:17.313Z</time>
      </trkpt>
      <trkpt lat="47.78232" lon="2.11597">
        <ele>134</ele>
        <time>2017-07-30T08:38:18.311Z</time>
      </trkpt>
      <trkpt lat="47.78232" lon="2.11597">
        <ele>134</ele>
        <time>2017-07-30T08:38:19.311Z</time>
      </trkpt>
      <trkpt lat="47.78243" lon="2.11601">
        <ele>134</ele>
        <time>2017-07-30T08:38:20.314Z</time>
      </trkpt>
      <trkpt lat="47.78243" lon="2.11601">
        <ele>134</ele>
        <time>2017-07-30T08:38:21.317Z</time>
      </trkpt>
      <trkpt lat="47.78253" lon="2.11604">
        <ele>135</ele>
        <time>2017-07-30T08:38:22.315Z</time>
      </trkpt>
      <trkpt lat="47.78253" lon="2.11604">
        <ele>135</ele>
        <time>2017-07-30T08:38:23.311Z</time>
      </trkpt>
      <trkpt lat="47.78261" lon="2.11608">
        <ele>135</ele>
        <time>2017-07-30T08:38:24.312Z</time>
      </trkpt>
      <trkpt lat="47.78265" lon="2.11609">
        <ele>135</ele>
        <time>2017-07-30T08:38:25.346Z</time>
      </trkpt>
      <trkpt lat="47.78265" lon="2.11609">
        <ele>135</ele>
        <time>2017-07-30T08:38:26.311Z</time>
      </trkpt>
      <trkpt lat="47.78272" lon="2.11611">
        <ele>135</ele>
        <time>2017-07-30T08:38:27.312Z</time>
      </trkpt>
      <trkpt lat="47.78272" lon="2.11611">
        <ele>135</ele>
        <time>2017-07-30T08:38:28.313Z</time>
      </trkpt>
      <trkpt lat="47.7828" lon="2.11613">
        <ele>135</ele>
        <time>2017-07-30T08:38:29.314Z</time>
      </trkpt>
      <trkpt lat="47.78284" lon="2.11615">
        <ele>135</ele>
        <time>2017-07-30T08:38:30.314Z</time>
      </trkpt>
      <trkpt lat="47.78284" lon="2.11615">
        <ele>135</ele>
        <time>2017-07-30T08:38:31.314Z</time>
      </trkpt>
      <trkpt lat="47.78292" lon="2.11617">
        <ele>135</ele>
        <time>2017-07-30T08:38:32.313Z</time>
      </trkpt>
      <trkpt lat="47.78292" lon="2.11617">
        <ele>135</ele>
        <time>2017-07-30T08:38:33.312Z</time>
      </trkpt>
      <trkpt lat="47.78301" lon="2.1162">
        <ele>134</ele>
        <time>2017-07-30T08:38:34.314Z</time>
      </trkpt>
      <trkpt lat="47.78301" lon="2.1162">
        <ele>134</ele>
        <time>2017-07-30T08:38:35.311Z</time>
      </trkpt>
      <trkpt lat="47.7831" lon="2.11623">
        <ele>135</ele>
        <time>2017-07-30T08:38:36.311Z</time>
      </trkpt>
      <trkpt lat="47.7831" lon="2.11623">
        <ele>135</ele>
        <time>2017-07-30T08:38:37.311Z</time>
      </trkpt>
      <trkpt lat="47.78318" lon="2.11626">
        <ele>135</ele>
        <time>2017-07-30T08:38:38.314Z</time>
      </trkpt>
      <trkpt lat="47.78318" lon="2.11626">
        <ele>135</ele>
        <time>2017-07-30T08:38:39.312Z</time>
      </trkpt>
      <trkpt lat="47.78326" lon="2.11629">
        <ele>135</ele>
        <time>2017-07-30T08:38:40.317Z</time>
      </trkpt>
      <trkpt lat="47.78326" lon="2.11629">
        <ele>135</ele>
        <time>2017-07-30T08:38:41.319Z</time>
      </trkpt>
      <trkpt lat="47.78335" lon="2.11632">
        <ele>135</ele>
        <time>2017-07-30T08:38:42.312Z</time>
      </trkpt>
      <trkpt lat="47.78335" lon="2.11632">
        <ele>135</ele>
        <time>2017-07-30T08:38:43.324Z</time>
      </trkpt>
      <trkpt lat="47.78343" lon="2.11635">
        <ele>134</ele>
        <time>2017-07-30T08:38:44.312Z</time>
      </trkpt>
      <trkpt lat="47.78347" lon="2.11636">
        <ele>134</ele>
        <time>2017-07-30T08:38:45.314Z</time>
      </trkpt>
      <trkpt lat="47.78347" lon="2.11636">
        <ele>134</ele>
        <time>2017-07-30T08:38:46.311Z</time>
      </trkpt>
      <trkpt lat="47.78354" lon="2.11638">
        <ele>134</ele>
        <time>2017-07-30T08:38:47.315Z</time>
      </trkpt>
      <trkpt lat="47.78354" lon="2.11638">
        <ele>134</ele>
        <time>2017-07-30T08:38:48.351Z</time>
      </trkpt>
      <trkpt lat="47.78363" lon="2.11641">
        <ele>134</ele>
        <time>2017-07-30T08:38:49.324Z</time>
      </trkpt>
      <trkpt lat="47.78363" lon="2.11641">
        <ele>134</ele>
        <time>2017-07-30T08:38:50.313Z</time>
      </trkpt>
      <trkpt lat="47.78372" lon="2.11643">
        <ele>134</ele>
        <time>2017-07-30T08:38:51.321Z</time>
      </trkpt>
      <trkpt lat="47.78372" lon="2.11643">
        <ele>134</ele>
        <time>2017-07-30T08:38:52.312Z</time>
      </trkpt>
      <trkpt lat="47.78381" lon="2.11646">
        <ele>134</ele>
        <time>2017-07-30T08:38:53.348Z</time>
      </trkpt>
      <trkpt lat="47.78385" lon="2.11648">
        <ele>134</ele>
        <time>2017-07-30T08:38:54.318Z</time>
      </trkpt>
      <trkpt lat="47.7839" lon="2.11649">
        <ele>134</ele>
        <time>2017-07-30T08:38:55.320Z</time>
      </trkpt>
      <trkpt lat="47.7839" lon="2.11649">
        <ele>134</ele>
        <time>2017-07-30T08:38:56.311Z</time>
      </trkpt>
      <trkpt lat="47.784" lon="2.11652">
        <ele>134</ele>
        <time>2017-07-30T08:38:57.318Z</time>
      </trkpt>
      <trkpt lat="47.78405" lon="2.11654">
        <ele>134</ele>
        <time>2017-07-30T08:38:58.316Z</time>
      </trkpt>
      <trkpt lat="47.78405" lon="2.11654">
        <ele>134</ele>
        <time>2017-07-30T08:38:59.314Z</time>
      </trkpt>
      <trkpt lat="47.78414" lon="2.11657">
        <ele>134</ele>
        <time>2017-07-30T08:39:00.317Z</time>
      </trkpt>
      <trkpt lat="47.78414" lon="2.11657">
        <ele>134</ele>
        <time>2017-07-30T08:39:01.339Z</time>
      </trkpt>
      <trkpt lat="47.78424" lon="2.1166">
        <ele>134</ele>
        <time>2017-07-30T08:39:02.328Z</time>
      </trkpt>
      <trkpt lat="47.78424" lon="2.1166">
        <ele>134</ele>
        <time>2017-07-30T08:39:03.317Z</time>
      </trkpt>
      <trkpt lat="47.78433" lon="2.11663">
        <ele>134</ele>
        <time>2017-07-30T08:39:04.314Z</time>
      </trkpt>
      <trkpt lat="47.78433" lon="2.11663">
        <ele>134</ele>
        <time>2017-07-30T08:39:05.311Z</time>
      </trkpt>
      <trkpt lat="47.78442" lon="2.11666">
        <ele>134</ele>
        <time>2017-07-30T08:39:06.313Z</time>
      </trkpt>
      <trkpt lat="47.78442" lon="2.11666">
        <ele>134</ele>
        <time>2017-07-30T08:39:07.311Z</time>
      </trkpt>
      <trkpt lat="47.78452" lon="2.11669">
        <ele>134</ele>
        <time>2017-07-30T08:39:08.313Z</time>
      </trkpt>
      <trkpt lat="47.78452" lon="2.11669">
        <ele>134</ele>
        <time>2017-07-30T08:39:09.312Z</time>
      </trkpt>
      <trkpt lat="47.78462" lon="2.11672">
        <ele>134</ele>
        <time>2017-07-30T08:39:10.315Z</time>
      </trkpt>
      <trkpt lat="47.78462" lon="2.11672">
        <ele>134</ele>
        <time>2017-07-30T08:39:11.312Z</time>
      </trkpt>
      <trkpt lat="47.78472" lon="2.11676">
        <ele>135</ele>
        <time>2017-07-30T08:39:12.314Z</time>
      </trkpt>
      <trkpt lat="47.78472" lon="2.11676">
        <ele>135</ele>
        <time>2017-07-30T08:39:13.311Z</time>
      </trkpt>
      <trkpt lat="47.78483" lon="2.11679">
        <ele>134</ele>
        <time>2017-07-30T08:39:14.313Z</time>
      </trkpt>
      <trkpt lat="47.78483" lon="2.11679">
        <ele>134</ele>
        <time>2017-07-30T08:39:15.312Z</time>
      </trkpt>
      <trkpt lat="47.78493" lon="2.11683">
        <ele>134</ele>
        <time>2017-07-30T08:39:16.313Z</time>
      </trkpt>
      <trkpt lat="47.78493" lon="2.11683">
        <ele>134</ele>
        <time>2017-07-30T08:39:17.311Z</time>
      </trkpt>
      <trkpt lat="47.78504" lon="2.11687">
        <ele>134</ele>
        <time>2017-07-30T08:39:18.313Z</time>
      </trkpt>
      <trkpt lat="47.78509" lon="2.11688">
        <ele>134</ele>
        <time>2017-07-30T08:39:19.313Z</time>
      </trkpt>
      <trkpt lat="47.78515" lon="2.1169">
        <ele>134</ele>
        <time>2017-07-30T08:39:20.311Z</time>
      </trkpt>
      <trkpt lat="47.78515" lon="2.1169">
        <ele>134</ele>
        <time>2017-07-30T08:39:21.317Z</time>
      </trkpt>
      <trkpt lat="47.78525" lon="2.11694">
        <ele>134</ele>
        <time>2017-07-30T08:39:22.340Z</time>
      </trkpt>
      <trkpt lat="47.78525" lon="2.11694">
        <ele>134</ele>
        <time>2017-07-30T08:39:23.329Z</time>
      </trkpt>
      <trkpt lat="47.78536" lon="2.11697">
        <ele>133</ele>
        <time>2017-07-30T08:39:24.344Z</time>
      </trkpt>
      <trkpt lat="47.78536" lon="2.11697">
        <ele>133</ele>
        <time>2017-07-30T08:39:25.343Z</time>
      </trkpt>
      <trkpt lat="47.78546" lon="2.117">
        <ele>133</ele>
        <time>2017-07-30T08:39:26.311Z</time>
      </trkpt>
      <trkpt lat="47.78546" lon="2.117">
        <ele>133</ele>
        <time>2017-07-30T08:39:27.332Z</time>
      </trkpt>
      <trkpt lat="47.78556" lon="2.11704">
        <ele>133</ele>
        <time>2017-07-30T08:39:28.322Z</time>
      </trkpt>
      <trkpt lat="47.78556" lon="2.11704">
        <ele>133</ele>
        <time>2017-07-30T08:39:29.311Z</time>
      </trkpt>
      <trkpt lat="47.78566" lon="2.11707">
        <ele>133</ele>
        <time>2017-07-30T08:39:30.311Z</time>
      </trkpt>
      <trkpt lat="47.78571" lon="2.11709">
        <ele>133</ele>
        <time>2017-07-30T08:39:31.330Z</time>
      </trkpt>
      <trkpt lat="47.78577" lon="2.11711">
        <ele>133</ele>
        <time>2017-07-30T08:39:32.320Z</time>
      </trkpt>
      <trkpt lat="47.78577" lon="2.11711">
        <ele>133</ele>
        <time>2017-07-30T08:39:33.312Z</time>
      </trkpt>
      <trkpt lat="47.78588" lon="2.11714">
        <ele>133</ele>
        <time>2017-07-30T08:39:34.314Z</time>
      </trkpt>
      <trkpt lat="47.78588" lon="2.11714">
        <ele>133</ele>
        <time>2017-07-30T08:39:35.311Z</time>
      </trkpt>
      <trkpt lat="47.78599" lon="2.11718">
        <ele>132</ele>
        <time>2017-07-30T08:39:36.311Z</time>
      </trkpt>
      <trkpt lat="47.78599" lon="2.11718">
        <ele>132</ele>
        <time>2017-07-30T08:39:37.313Z</time>
      </trkpt>
      <trkpt lat="47.78609" lon="2.11721">
        <ele>133</ele>
        <time>2017-07-30T08:39:38.315Z</time>
      </trkpt>
      <trkpt lat="47.78615" lon="2.11723">
        <ele>132</ele>
        <time>2017-07-30T08:39:39.328Z</time>
      </trkpt>
      <trkpt lat="47.78615" lon="2.11723">
        <ele>132</ele>
        <time>2017-07-30T08:39:40.317Z</time>
      </trkpt>
      <trkpt lat="47.78625" lon="2.11726">
        <ele>132</ele>
        <time>2017-07-30T08:39:41.326Z</time>
      </trkpt>
      <trkpt lat="47.78625" lon="2.11726">
        <ele>132</ele>
        <time>2017-07-30T08:39:42.314Z</time>
      </trkpt>
      <trkpt lat="47.78635" lon="2.11729">
        <ele>132</ele>
        <time>2017-07-30T08:39:43.338Z</time>
      </trkpt>
      <trkpt lat="47.7864" lon="2.11731">
        <ele>132</ele>
        <time>2017-07-30T08:39:44.346Z</time>
      </trkpt>
      <trkpt lat="47.78645" lon="2.11733">
        <ele>132</ele>
        <time>2017-07-30T08:39:45.311Z</time>
      </trkpt>
      <trkpt lat="47.7865" lon="2.11734">
        <ele>132</ele>
        <time>2017-07-30T08:39:46.318Z</time>
      </trkpt>
      <trkpt lat="47.7865" lon="2.11734">
        <ele>132</ele>
        <time>2017-07-30T08:39:47.314Z</time>
      </trkpt>
      <trkpt lat="47.78658" lon="2.11738">
        <ele>132</ele>
        <time>2017-07-30T08:39:48.318Z</time>
      </trkpt>
      <trkpt lat="47.78661" lon="2.11742">
        <ele>132</ele>
        <time>2017-07-30T08:39:49.319Z</time>
      </trkpt>
      <trkpt lat="47.78662" lon="2.11747">
        <ele>132</ele>
        <time>2017-07-30T08:39:50.319Z</time>
      </trkpt>
      <trkpt lat="47.78662" lon="2.11747">
        <ele>132</ele>
        <time>2017-07-30T08:39:51.311Z</time>
      </trkpt>
      <trkpt lat="47.78659" lon="2.11759">
        <ele>132</ele>
        <time>2017-07-30T08:39:52.326Z</time>
      </trkpt>
      <trkpt lat="47.78656" lon="2.11764">
        <ele>132</ele>
        <time>2017-07-30T08:39:53.315Z</time>
      </trkpt>
      <trkpt lat="47.78653" lon="2.1177">
        <ele>132</ele>
        <time>2017-07-30T08:39:54.312Z</time>
      </trkpt>
      <trkpt lat="47.78653" lon="2.1177">
        <ele>132</ele>
        <time>2017-07-30T08:39:55.313Z</time>
      </trkpt>
      <trkpt lat="47.78648" lon="2.11781">
        <ele>132</ele>
        <time>2017-07-30T08:39:56.314Z</time>
      </trkpt>
      <trkpt lat="47.78648" lon="2.11781">
        <ele>132</ele>
        <time>2017-07-30T08:39:57.312Z</time>
      </trkpt>
      <trkpt lat="47.78643" lon="2.11793">
        <ele>131</ele>
        <time>2017-07-30T08:39:58.315Z</time>
      </trkpt>
      <trkpt lat="47.78643" lon="2.11793">
        <ele>131</ele>
        <time>2017-07-30T08:39:59.311Z</time>
      </trkpt>
      <trkpt lat="47.78637" lon="2.11805">
        <ele>131</ele>
        <time>2017-07-30T08:40:00.314Z</time>
      </trkpt>
      <trkpt lat="47.78637" lon="2.11805">
        <ele>131</ele>
        <time>2017-07-30T08:40:01.311Z</time>
      </trkpt>
      <trkpt lat="47.78632" lon="2.11817">
        <ele>131</ele>
        <time>2017-07-30T08:40:02.311Z</time>
      </trkpt>
      <trkpt lat="47.78631" lon="2.11823">
        <ele>131</ele>
        <time>2017-07-30T08:40:03.314Z</time>
      </trkpt>
      <trkpt lat="47.78631" lon="2.11823">
        <ele>131</ele>
        <time>2017-07-30T08:40:04.311Z</time>
      </trkpt>
      <trkpt lat="47.78634" lon="2.11835">
        <ele>131</ele>
        <time>2017-07-30T08:40:05.314Z</time>
      </trkpt>
      <trkpt lat="47.78634" lon="2.11835">
        <ele>131</ele>
        <time>2017-07-30T08:40:06.311Z</time>
      </trkpt>
      <trkpt lat="47.78641" lon="2.11843">
        <ele>131</ele>
        <time>2017-07-30T08:40:07.311Z</time>
      </trkpt>
      <trkpt lat="47.78641" lon="2.11843">
        <ele>131</ele>
        <time>2017-07-30T08:40:08.311Z</time>
      </trkpt>
      <trkpt lat="47.78649" lon="2.11849">
        <ele>131</ele>
        <time>2017-07-30T08:40:09.313Z</time>
      </trkpt>
      <trkpt lat="47.78653" lon="2.11852">
        <ele>131</ele>
        <time>2017-07-30T08:40:10.314Z</time>
      </trkpt>
      <trkpt lat="47.78653" lon="2.11852">
        <ele>131</ele>
        <time>2017-07-30T08:40:11.336Z</time>
      </trkpt>
      <trkpt lat="47.78661" lon="2.11858">
        <ele>131</ele>
        <time>2017-07-30T08:40:12.311Z</time>
      </trkpt>
      <trkpt lat="47.78665" lon="2.1186">
        <ele>131</ele>
        <time>2017-07-30T08:40:13.314Z</time>
      </trkpt>
      <trkpt lat="47.78665" lon="2.1186">
        <ele>131</ele>
        <time>2017-07-30T08:40:14.311Z</time>
      </trkpt>
      <trkpt lat="47.78674" lon="2.11866">
        <ele>130</ele>
        <time>2017-07-30T08:40:15.314Z</time>
      </trkpt>
      <trkpt lat="47.78678" lon="2.11869">
        <ele>130</ele>
        <time>2017-07-30T08:40:16.314Z</time>
      </trkpt>
      <trkpt lat="47.78678" lon="2.11869">
        <ele>130</ele>
        <time>2017-07-30T08:40:17.318Z</time>
      </trkpt>
      <trkpt lat="47.78686" lon="2.11875">
        <ele>130</ele>
        <time>2017-07-30T08:40:18.314Z</time>
      </trkpt>
      <trkpt lat="47.78686" lon="2.11875">
        <ele>130</ele>
        <time>2017-07-30T08:40:19.311Z</time>
      </trkpt>
      <trkpt lat="47.78694" lon="2.1188">
        <ele>130</ele>
        <time>2017-07-30T08:40:20.346Z</time>
      </trkpt>
      <trkpt lat="47.78694" lon="2.1188">
        <ele>130</ele>
        <time>2017-07-30T08:40:21.312Z</time>
      </trkpt>
      <trkpt lat="47.78702" lon="2.11886">
        <ele>130</ele>
        <time>2017-07-30T08:40:22.315Z</time>
      </trkpt>
      <trkpt lat="47.78702" lon="2.11886">
        <ele>130</ele>
        <time>2017-07-30T08:40:23.311Z</time>
      </trkpt>
      <trkpt lat="47.78711" lon="2.11892">
        <ele>130</ele>
        <time>2017-07-30T08:40:24.346Z</time>
      </trkpt>
      <trkpt lat="47.78711" lon="2.11892">
        <ele>130</ele>
        <time>2017-07-30T08:40:25.341Z</time>
      </trkpt>
      <trkpt lat="47.78719" lon="2.11898">
        <ele>130</ele>
        <time>2017-07-30T08:40:26.349Z</time>
      </trkpt>
      <trkpt lat="47.78724" lon="2.11901">
        <ele>129</ele>
        <time>2017-07-30T08:40:27.315Z</time>
      </trkpt>
      <trkpt lat="47.78728" lon="2.11904">
        <ele>129</ele>
        <time>2017-07-30T08:40:28.320Z</time>
      </trkpt>
      <trkpt lat="47.78728" lon="2.11904">
        <ele>129</ele>
        <time>2017-07-30T08:40:29.311Z</time>
      </trkpt>
      <trkpt lat="47.78737" lon="2.1191">
        <ele>129</ele>
        <time>2017-07-30T08:40:30.317Z</time>
      </trkpt>
      <trkpt lat="47.78737" lon="2.1191">
        <ele>129</ele>
        <time>2017-07-30T08:40:31.333Z</time>
      </trkpt>
      <trkpt lat="47.78746" lon="2.11916">
        <ele>129</ele>
        <time>2017-07-30T08:40:32.325Z</time>
      </trkpt>
      <trkpt lat="47.7875" lon="2.11919">
        <ele>129</ele>
        <time>2017-07-30T08:40:33.317Z</time>
      </trkpt>
      <trkpt lat="47.7875" lon="2.11919">
        <ele>129</ele>
        <time>2017-07-30T08:40:34.313Z</time>
      </trkpt>
      <trkpt lat="47.78759" lon="2.11925">
        <ele>129</ele>
        <time>2017-07-30T08:40:35.315Z</time>
      </trkpt>
      <trkpt lat="47.78763" lon="2.11928">
        <ele>128</ele>
        <time>2017-07-30T08:40:36.318Z</time>
      </trkpt>
      <trkpt lat="47.78763" lon="2.11928">
        <ele>128</ele>
        <time>2017-07-30T08:40:37.313Z</time>
      </trkpt>
      <trkpt lat="47.78772" lon="2.11934">
        <ele>128</ele>
        <time>2017-07-30T08:40:38.318Z</time>
      </trkpt>
      <trkpt lat="47.78776" lon="2.11937">
        <ele>128</ele>
        <time>2017-07-30T08:40:39.316Z</time>
      </trkpt>
      <trkpt lat="47.78776" lon="2.11937">
        <ele>128</ele>
        <time>2017-07-30T08:40:40.312Z</time>
      </trkpt>
      <trkpt lat="47.78785" lon="2.11943">
        <ele>128</ele>
        <time>2017-07-30T08:40:41.325Z</time>
      </trkpt>
      <trkpt lat="47.78789" lon="2.11947">
        <ele>128</ele>
        <time>2017-07-30T08:40:42.315Z</time>
      </trkpt>
      <trkpt lat="47.78789" lon="2.11947">
        <ele>128</ele>
        <time>2017-07-30T08:40:43.350Z</time>
      </trkpt>
      <trkpt lat="47.78799" lon="2.11953">
        <ele>128</ele>
        <time>2017-07-30T08:40:44.318Z</time>
      </trkpt>
      <trkpt lat="47.78799" lon="2.11953">
        <ele>128</ele>
        <time>2017-07-30T08:40:45.312Z</time>
      </trkpt>
      <trkpt lat="47.78808" lon="2.1196">
        <ele>127</ele>
        <time>2017-07-30T08:40:46.315Z</time>
      </trkpt>
      <trkpt lat="47.78808" lon="2.1196">
        <ele>127</ele>
        <time>2017-07-30T08:40:47.327Z</time>
      </trkpt>
      <trkpt lat="47.78817" lon="2.11966">
        <ele>127</ele>
        <time>2017-07-30T08:40:48.318Z</time>
      </trkpt>
      <trkpt lat="47.78822" lon="2.11969">
        <ele>127</ele>
        <time>2017-07-30T08:40:49.314Z</time>
      </trkpt>
      <trkpt lat="47.78822" lon="2.11969">
        <ele>127</ele>
        <time>2017-07-30T08:40:50.311Z</time>
      </trkpt>
      <trkpt lat="47.78831" lon="2.11975">
        <ele>127</ele>
        <time>2017-07-30T08:40:51.314Z</time>
      </trkpt>
      <trkpt lat="47.78835" lon="2.11978">
        <ele>126</ele>
        <time>2017-07-30T08:40:52.318Z</time>
      </trkpt>
      <trkpt lat="47.78835" lon="2.11978">
        <ele>126</ele>
        <time>2017-07-30T08:40:53.314Z</time>
      </trkpt>
      <trkpt lat="47.78844" lon="2.11984">
        <ele>126</ele>
        <time>2017-07-30T08:40:54.316Z</time>
      </trkpt>
      <trkpt lat="47.78844" lon="2.11984">
        <ele>126</ele>
        <time>2017-07-30T08:40:55.311Z</time>
      </trkpt>
      <trkpt lat="47.78852" lon="2.11989">
        <ele>126</ele>
        <time>2017-07-30T08:40:56.314Z</time>
      </trkpt>
      <trkpt lat="47.78854" lon="2.11992">
        <ele>126</ele>
        <time>2017-07-30T08:40:57.314Z</time>
      </trkpt>
      <trkpt lat="47.78856" lon="2.11995">
        <ele>126</ele>
        <time>2017-07-30T08:40:58.314Z</time>
      </trkpt>
      <trkpt lat="47.78856" lon="2.11995">
        <ele>126</ele>
        <time>2017-07-30T08:40:59.311Z</time>
      </trkpt>
      <trkpt lat="47.78854" lon="2.12003">
        <ele>126</ele>
        <time>2017-07-30T08:41:00.314Z</time>
      </trkpt>
      <trkpt lat="47.78854" lon="2.12003">
        <ele>126</ele>
        <time>2017-07-30T08:41:01.312Z</time>
      </trkpt>
      <trkpt lat="47.7885" lon="2.12012">
        <ele>126</ele>
        <time>2017-07-30T08:41:02.311Z</time>
      </trkpt>
      <trkpt lat="47.78848" lon="2.12016">
        <ele>126</ele>
        <time>2017-07-30T08:41:03.312Z</time>
      </trkpt>
      <trkpt lat="47.78848" lon="2.12016">
        <ele>126</ele>
        <time>2017-07-30T08:41:04.312Z</time>
      </trkpt>
      <trkpt lat="47.78844" lon="2.12025">
        <ele>126</ele>
        <time>2017-07-30T08:41:05.314Z</time>
      </trkpt>
      <trkpt lat="47.78842" lon="2.12029">
        <ele>126</ele>
        <time>2017-07-30T08:41:06.316Z</time>
      </trkpt>
      <trkpt lat="47.78842" lon="2.12029">
        <ele>126</ele>
        <time>2017-07-30T08:41:07.311Z</time>
      </trkpt>
      <trkpt lat="47.78838" lon="2.12039">
        <ele>126</ele>
        <time>2017-07-30T08:41:08.314Z</time>
      </trkpt>
      <trkpt lat="47.78838" lon="2.12039">
        <ele>126</ele>
        <time>2017-07-30T08:41:09.312Z</time>
      </trkpt>
      <trkpt lat="47.78833" lon="2.12049">
        <ele>126</ele>
        <time>2017-07-30T08:41:10.314Z</time>
      </trkpt>
      <trkpt lat="47.78833" lon="2.12049">
        <ele>126</ele>
        <time>2017-07-30T08:41:11.312Z</time>
      </trkpt>
      <trkpt lat="47.78828" lon="2.12059">
        <ele>127</ele>
        <time>2017-07-30T08:41:12.312Z</time>
      </trkpt>
      <trkpt lat="47.78828" lon="2.12059">
        <ele>127</ele>
        <time>2017-07-30T08:41:13.311Z</time>
      </trkpt>
      <trkpt lat="47.78824" lon="2.12067">
        <ele>127</ele>
        <time>2017-07-30T08:41:14.314Z</time>
      </trkpt>
      <trkpt lat="47.78822" lon="2.12072">
        <ele>127</ele>
        <time>2017-07-30T08:41:15.321Z</time>
      </trkpt>
      <trkpt lat="47.78822" lon="2.12072">
        <ele>127</ele>
        <time>2017-07-30T08:41:16.335Z</time>
      </trkpt>
      <trkpt lat="47.78819" lon="2.12081">
        <ele>127</ele>
        <time>2017-07-30T08:41:17.333Z</time>
      </trkpt>
      <trkpt lat="47.78819" lon="2.12081">
        <ele>127</ele>
        <time>2017-07-30T08:41:18.322Z</time>
      </trkpt>
      <trkpt lat="47.78815" lon="2.12089">
        <ele>127</ele>
        <time>2017-07-30T08:41:19.316Z</time>
      </trkpt>
      <trkpt lat="47.78812" lon="2.12094">
        <ele>127</ele>
        <time>2017-07-30T08:41:20.316Z</time>
      </trkpt>
      <trkpt lat="47.78812" lon="2.12094">
        <ele>127</ele>
        <time>2017-07-30T08:41:21.313Z</time>
      </trkpt>
      <trkpt lat="47.78808" lon="2.12103">
        <ele>127</ele>
        <time>2017-07-30T08:41:22.318Z</time>
      </trkpt>
      <trkpt lat="47.78808" lon="2.12103">
        <ele>127</ele>
        <time>2017-07-30T08:41:23.312Z</time>
      </trkpt>
      <trkpt lat="47.78804" lon="2.12112">
        <ele>127</ele>
        <time>2017-07-30T08:41:24.316Z</time>
      </trkpt>
      <trkpt lat="47.78802" lon="2.12116">
        <ele>127</ele>
        <time>2017-07-30T08:41:25.316Z</time>
      </trkpt>
      <trkpt lat="47.788" lon="2.1212">
        <ele>127</ele>
        <time>2017-07-30T08:41:26.318Z</time>
      </trkpt>
      <trkpt lat="47.78798" lon="2.12124">
        <ele>127</ele>
        <time>2017-07-30T08:41:27.316Z</time>
      </trkpt>
      <trkpt lat="47.78798" lon="2.12124">
        <ele>127</ele>
        <time>2017-07-30T08:41:28.314Z</time>
      </trkpt>
      <trkpt lat="47.78795" lon="2.12133">
        <ele>127</ele>
        <time>2017-07-30T08:41:29.316Z</time>
      </trkpt>
      <trkpt lat="47.78793" lon="2.12137">
        <ele>127</ele>
        <time>2017-07-30T08:41:30.316Z</time>
      </trkpt>
      <trkpt lat="47.78793" lon="2.12137">
        <ele>127</ele>
        <time>2017-07-30T08:41:31.316Z</time>
      </trkpt>
      <trkpt lat="47.7879" lon="2.12146">
        <ele>127</ele>
        <time>2017-07-30T08:41:32.349Z</time>
      </trkpt>
      <trkpt lat="47.78789" lon="2.1215">
        <ele>127</ele>
        <time>2017-07-30T08:41:33.318Z</time>
      </trkpt>
      <trkpt lat="47.78789" lon="2.1215">
        <ele>127</ele>
        <time>2017-07-30T08:41:34.314Z</time>
      </trkpt>
      <trkpt lat="47.78786" lon="2.12159">
        <ele>127</ele>
        <time>2017-07-30T08:41:35.314Z</time>
      </trkpt>
      <trkpt lat="47.78785" lon="2.12163">
        <ele>127</ele>
        <time>2017-07-30T08:41:36.314Z</time>
      </trkpt>
      <trkpt lat="47.78785" lon="2.12163">
        <ele>127</ele>
        <time>2017-07-30T08:41:37.311Z</time>
      </trkpt>
      <trkpt lat="47.78786" lon="2.12172">
        <ele>128</ele>
        <time>2017-07-30T08:41:38.314Z</time>
      </trkpt>
      <trkpt lat="47.78786" lon="2.12172">
        <ele>128</ele>
        <time>2017-07-30T08:41:39.312Z</time>
      </trkpt>
      <trkpt lat="47.78791" lon="2.12178">
        <ele>128</ele>
        <time>2017-07-30T08:41:40.316Z</time>
      </trkpt>
      <trkpt lat="47.78791" lon="2.12178">
        <ele>128</ele>
        <time>2017-07-30T08:41:41.334Z</time>
      </trkpt>
      <trkpt lat="47.78797" lon="2.12183">
        <ele>128</ele>
        <time>2017-07-30T08:41:42.326Z</time>
      </trkpt>
      <trkpt lat="47.78797" lon="2.12183">
        <ele>128</ele>
        <time>2017-07-30T08:41:43.327Z</time>
      </trkpt>
      <trkpt lat="47.78802" lon="2.12187">
        <ele>128</ele>
        <time>2017-07-30T08:41:44.314Z</time>
      </trkpt>
      <trkpt lat="47.78802" lon="2.12187">
        <ele>128</ele>
        <time>2017-07-30T08:41:45.329Z</time>
      </trkpt>
      <trkpt lat="47.78808" lon="2.12193">
        <ele>128</ele>
        <time>2017-07-30T08:41:46.319Z</time>
      </trkpt>
      <trkpt lat="47.78808" lon="2.12193">
        <ele>128</ele>
        <time>2017-07-30T08:41:47.351Z</time>
      </trkpt>
      <trkpt lat="47.78814" lon="2.12198">
        <ele>128</ele>
        <time>2017-07-30T08:41:48.318Z</time>
      </trkpt>
      <trkpt lat="47.78814" lon="2.12198">
        <ele>128</ele>
        <time>2017-07-30T08:41:49.312Z</time>
      </trkpt>
      <trkpt lat="47.78819" lon="2.12204">
        <ele>128</ele>
        <time>2017-07-30T08:41:50.317Z</time>
      </trkpt>
      <trkpt lat="47.78819" lon="2.12204">
        <ele>128</ele>
        <time>2017-07-30T08:41:51.312Z</time>
      </trkpt>
      <trkpt lat="47.78825" lon="2.12209">
        <ele>128</ele>
        <time>2017-07-30T08:41:52.314Z</time>
      </trkpt>
      <trkpt lat="47.78825" lon="2.12209">
        <ele>128</ele>
        <time>2017-07-30T08:41:53.311Z</time>
      </trkpt>
      <trkpt lat="47.78831" lon="2.12214">
        <ele>128</ele>
        <time>2017-07-30T08:41:54.314Z</time>
      </trkpt>
      <trkpt lat="47.78831" lon="2.12214">
        <ele>128</ele>
        <time>2017-07-30T08:41:55.311Z</time>
      </trkpt>
      <trkpt lat="47.78837" lon="2.1222">
        <ele>128</ele>
        <time>2017-07-30T08:41:56.312Z</time>
      </trkpt>
      <trkpt lat="47.78837" lon="2.1222">
        <ele>128</ele>
        <time>2017-07-30T08:41:57.324Z</time>
      </trkpt>
      <trkpt lat="47.78843" lon="2.12225">
        <ele>128</ele>
        <time>2017-07-30T08:41:58.313Z</time>
      </trkpt>
      <trkpt lat="47.78843" lon="2.12225">
        <ele>128</ele>
        <time>2017-07-30T08:41:59.312Z</time>
      </trkpt>
      <trkpt lat="47.78849" lon="2.12231">
        <ele>127</ele>
        <time>2017-07-30T08:42:00.315Z</time>
      </trkpt>
      <trkpt lat="47.78849" lon="2.12231">
        <ele>127</ele>
        <time>2017-07-30T08:42:01.312Z</time>
      </trkpt>
      <trkpt lat="47.78855" lon="2.12236">
        <ele>127</ele>
        <time>2017-07-30T08:42:02.314Z</time>
      </trkpt>
      <trkpt lat="47.78855" lon="2.12236">
        <ele>127</ele>
        <time>2017-07-30T08:42:03.312Z</time>
      </trkpt>
      <trkpt lat="47.78861" lon="2.12241">
        <ele>127</ele>
        <time>2017-07-30T08:42:04.317Z</time>
      </trkpt>
      <trkpt lat="47.78861" lon="2.12241">
        <ele>127</ele>
        <time>2017-07-30T08:42:05.311Z</time>
      </trkpt>
      <trkpt lat="47.78867" lon="2.12247">
        <ele>127</ele>
        <time>2017-07-30T08:42:06.314Z</time>
      </trkpt>
      <trkpt lat="47.78867" lon="2.12247">
        <ele>127</ele>
        <time>2017-07-30T08:42:07.311Z</time>
      </trkpt>
      <trkpt lat="47.78873" lon="2.12253">
        <ele>127</ele>
        <time>2017-07-30T08:42:08.319Z</time>
      </trkpt>
      <trkpt lat="47.78876" lon="2.12256">
        <ele>127</ele>
        <time>2017-07-30T08:42:09.318Z</time>
      </trkpt>
      <trkpt lat="47.78876" lon="2.12256">
        <ele>127</ele>
        <time>2017-07-30T08:42:10.312Z</time>
      </trkpt>
      <trkpt lat="47.78882" lon="2.12261">
        <ele>127</ele>
        <time>2017-07-30T08:42:11.317Z</time>
      </trkpt>
      <trkpt lat="47.78885" lon="2.12264">
        <ele>127</ele>
        <time>2017-07-30T08:42:12.319Z</time>
      </trkpt>
      <trkpt lat="47.78889" lon="2.12267">
        <ele>127</ele>
        <time>2017-07-30T08:42:13.317Z</time>
      </trkpt>
      <trkpt lat="47.78889" lon="2.12267">
        <ele>127</ele>
        <time>2017-07-30T08:42:14.327Z</time>
      </trkpt>
      <trkpt lat="47.78895" lon="2.12272">
        <ele>127</ele>
        <time>2017-07-30T08:42:15.347Z</time>
      </trkpt>
      <trkpt lat="47.78895" lon="2.12272">
        <ele>127</ele>
        <time>2017-07-30T08:42:16.338Z</time>
      </trkpt>
      <trkpt lat="47.78901" lon="2.12278">
        <ele>127</ele>
        <time>2017-07-30T08:42:17.328Z</time>
      </trkpt>
      <trkpt lat="47.78901" lon="2.12278">
        <ele>127</ele>
        <time>2017-07-30T08:42:18.317Z</time>
      </trkpt>
      <trkpt lat="47.78907" lon="2.12284">
        <ele>127</ele>
        <time>2017-07-30T08:42:19.316Z</time>
      </trkpt>
      <trkpt lat="47.7891" lon="2.12286">
        <ele>127</ele>
        <time>2017-07-30T08:42:20.334Z</time>
      </trkpt>
      <trkpt lat="47.7891" lon="2.12286">
        <ele>127</ele>
        <time>2017-07-30T08:42:21.324Z</time>
      </trkpt>
      <trkpt lat="47.78916" lon="2.12292">
        <ele>127</ele>
        <time>2017-07-30T08:42:22.318Z</time>
      </trkpt>
      <trkpt lat="47.78916" lon="2.12292">
        <ele>127</ele>
        <time>2017-07-30T08:42:23.311Z</time>
      </trkpt>
      <trkpt lat="47.78922" lon="2.12297">
        <ele>127</ele>
        <time>2017-07-30T08:42:24.335Z</time>
      </trkpt>
      <trkpt lat="47.78922" lon="2.12297">
        <ele>127</ele>
        <time>2017-07-30T08:42:25.349Z</time>
      </trkpt>
      <trkpt lat="47.78927" lon="2.12302">
        <ele>127</ele>
        <time>2017-07-30T08:42:26.315Z</time>
      </trkpt>
      <trkpt lat="47.78927" lon="2.12302">
        <ele>127</ele>
        <time>2017-07-30T08:42:27.321Z</time>
      </trkpt>
      <trkpt lat="47.78933" lon="2.12307">
        <ele>127</ele>
        <time>2017-07-30T08:42:28.313Z</time>
      </trkpt>
      <trkpt lat="47.78933" lon="2.12307">
        <ele>127</ele>
        <time>2017-07-30T08:42:29.312Z</time>
      </trkpt>
      <trkpt lat="47.78939" lon="2.12312">
        <ele>127</ele>
        <time>2017-07-30T08:42:30.315Z</time>
      </trkpt>
      <trkpt lat="47.78939" lon="2.12312">
        <ele>127</ele>
        <time>2017-07-30T08:42:31.333Z</time>
      </trkpt>
      <trkpt lat="47.78944" lon="2.12317">
        <ele>127</ele>
        <time>2017-07-30T08:42:32.325Z</time>
      </trkpt>
      <trkpt lat="47.78944" lon="2.12317">
        <ele>127</ele>
        <time>2017-07-30T08:42:33.322Z</time>
      </trkpt>
      <trkpt lat="47.7895" lon="2.12322">
        <ele>127</ele>
        <time>2017-07-30T08:42:34.313Z</time>
      </trkpt>
      <trkpt lat="47.7895" lon="2.12322">
        <ele>127</ele>
        <time>2017-07-30T08:42:35.311Z</time>
      </trkpt>
      <trkpt lat="47.78956" lon="2.12327">
        <ele>127</ele>
        <time>2017-07-30T08:42:36.315Z</time>
      </trkpt>
      <trkpt lat="47.78959" lon="2.1233">
        <ele>127</ele>
        <time>2017-07-30T08:42:37.314Z</time>
      </trkpt>
      <trkpt lat="47.78959" lon="2.1233">
        <ele>127</ele>
        <time>2017-07-30T08:42:38.312Z</time>
      </trkpt>
      <trkpt lat="47.78964" lon="2.12335">
        <ele>127</ele>
        <time>2017-07-30T08:42:39.313Z</time>
      </trkpt>
      <trkpt lat="47.78967" lon="2.12337">
        <ele>127</ele>
        <time>2017-07-30T08:42:40.313Z</time>
      </trkpt>
      <trkpt lat="47.78967" lon="2.12337">
        <ele>127</ele>
        <time>2017-07-30T08:42:41.312Z</time>
      </trkpt>
      <trkpt lat="47.7897" lon="2.12344">
        <ele>127</ele>
        <time>2017-07-30T08:42:42.321Z</time>
      </trkpt>
      <trkpt lat="47.7897" lon="2.12347">
        <ele>127</ele>
        <time>2017-07-30T08:42:43.325Z</time>
      </trkpt>
      <trkpt lat="47.7897" lon="2.12347">
        <ele>127</ele>
        <time>2017-07-30T08:42:44.313Z</time>
      </trkpt>
      <trkpt lat="47.78969" lon="2.12355">
        <ele>126</ele>
        <time>2017-07-30T08:42:45.314Z</time>
      </trkpt>
      <trkpt lat="47.78967" lon="2.12359">
        <ele>126</ele>
        <time>2017-07-30T08:42:46.332Z</time>
      </trkpt>
      <trkpt lat="47.78967" lon="2.12359">
        <ele>126</ele>
        <time>2017-07-30T08:42:47.316Z</time>
      </trkpt>
      <trkpt lat="47.78966" lon="2.12367">
        <ele>126</ele>
        <time>2017-07-30T08:42:48.315Z</time>
      </trkpt>
      <trkpt lat="47.78966" lon="2.12367">
        <ele>126</ele>
        <time>2017-07-30T08:42:49.312Z</time>
      </trkpt>
      <trkpt lat="47.78965" lon="2.12377">
        <ele>126</ele>
        <time>2017-07-30T08:42:50.315Z</time>
      </trkpt>
      <trkpt lat="47.78965" lon="2.12382">
        <ele>126</ele>
        <time>2017-07-30T08:42:51.313Z</time>
      </trkpt>
      <trkpt lat="47.78965" lon="2.12382">
        <ele>126</ele>
        <time>2017-07-30T08:42:52.312Z</time>
      </trkpt>
      <trkpt lat="47.78966" lon="2.12391">
        <ele>126</ele>
        <time>2017-07-30T08:42:53.318Z</time>
      </trkpt>
      <trkpt lat="47.78966" lon="2.12396">
        <ele>126</ele>
        <time>2017-07-30T08:42:54.313Z</time>
      </trkpt>
      <trkpt lat="47.78967" lon="2.12401">
        <ele>126</ele>
        <time>2017-07-30T08:42:55.317Z</time>
      </trkpt>
      <trkpt lat="47.78967" lon="2.12401">
        <ele>126</ele>
        <time>2017-07-30T08:42:56.313Z</time>
      </trkpt>
      <trkpt lat="47.78969" lon="2.12411">
        <ele>126</ele>
        <time>2017-07-30T08:42:57.319Z</time>
      </trkpt>
      <trkpt lat="47.7897" lon="2.12416">
        <ele>126</ele>
        <time>2017-07-30T08:42:58.320Z</time>
      </trkpt>
      <trkpt lat="47.78971" lon="2.12421">
        <ele>126</ele>
        <time>2017-07-30T08:42:59.320Z</time>
      </trkpt>
      <trkpt lat="47.78971" lon="2.12421">
        <ele>126</ele>
        <time>2017-07-30T08:43:00.315Z</time>
      </trkpt>
      <trkpt lat="47.78974" lon="2.12429">
        <ele>126</ele>
        <time>2017-07-30T08:43:01.330Z</time>
      </trkpt>
      <trkpt lat="47.78974" lon="2.12429">
        <ele>126</ele>
        <time>2017-07-30T08:43:02.318Z</time>
      </trkpt>
      <trkpt lat="47.78977" lon="2.12438">
        <ele>127</ele>
        <time>2017-07-30T08:43:03.322Z</time>
      </trkpt>
      <trkpt lat="47.78977" lon="2.12438">
        <ele>127</ele>
        <time>2017-07-30T08:43:04.325Z</time>
      </trkpt>
      <trkpt lat="47.7898" lon="2.12446">
        <ele>127</ele>
        <time>2017-07-30T08:43:05.316Z</time>
      </trkpt>
      <trkpt lat="47.78982" lon="2.12449">
        <ele>127</ele>
        <time>2017-07-30T08:43:06.316Z</time>
      </trkpt>
      <trkpt lat="47.78982" lon="2.12449">
        <ele>127</ele>
        <time>2017-07-30T08:43:07.313Z</time>
      </trkpt>
      <trkpt lat="47.78987" lon="2.12455">
        <ele>128</ele>
        <time>2017-07-30T08:43:08.316Z</time>
      </trkpt>
      <trkpt lat="47.78989" lon="2.12458">
        <ele>128</ele>
        <time>2017-07-30T08:43:09.314Z</time>
      </trkpt>
      <trkpt lat="47.78991" lon="2.12461">
        <ele>127</ele>
        <time>2017-07-30T08:43:10.313Z</time>
      </trkpt>
      <trkpt lat="47.78991" lon="2.12461">
        <ele>127</ele>
        <time>2017-07-30T08:43:11.311Z</time>
      </trkpt>
      <trkpt lat="47.78995" lon="2.12467">
        <ele>128</ele>
        <time>2017-07-30T08:43:12.316Z</time>
      </trkpt>
      <trkpt lat="47.78995" lon="2.12467">
        <ele>128</ele>
        <time>2017-07-30T08:43:13.313Z</time>
      </trkpt>
      <trkpt lat="47.79" lon="2.12473">
        <ele>128</ele>
        <time>2017-07-30T08:43:14.314Z</time>
      </trkpt>
      <trkpt lat="47.79002" lon="2.12476">
        <ele>128</ele>
        <time>2017-07-30T08:43:15.313Z</time>
      </trkpt>
      <trkpt lat="47.79005" lon="2.12478">
        <ele>128</ele>
        <time>2017-07-30T08:43:16.317Z</time>
      </trkpt>
      <trkpt lat="47.79005" lon="2.12478">
        <ele>128</ele>
        <time>2017-07-30T08:43:17.311Z</time>
      </trkpt>
      <trkpt lat="47.79009" lon="2.12484">
        <ele>128</ele>
        <time>2017-07-30T08:43:18.315Z</time>
      </trkpt>
      <trkpt lat="47.79011" lon="2.12486">
        <ele>128</ele>
        <time>2017-07-30T08:43:19.318Z</time>
      </trkpt>
      <trkpt lat="47.79011" lon="2.12486">
        <ele>128</ele>
        <time>2017-07-30T08:43:20.311Z</time>
      </trkpt>
      <trkpt lat="47.79016" lon="2.12491">
        <ele>128</ele>
        <time>2017-07-30T08:43:21.314Z</time>
      </trkpt>
      <trkpt lat="47.79019" lon="2.12494">
        <ele>128</ele>
        <time>2017-07-30T08:43:22.314Z</time>
      </trkpt>
      <trkpt lat="47.79019" lon="2.12494">
        <ele>128</ele>
        <time>2017-07-30T08:43:23.312Z</time>
      </trkpt>
      <trkpt lat="47.79024" lon="2.12499">
        <ele>128</ele>
        <time>2017-07-30T08:43:24.335Z</time>
      </trkpt>
      <trkpt lat="47.79026" lon="2.12502">
        <ele>128</ele>
        <time>2017-07-30T08:43:25.345Z</time>
      </trkpt>
      <trkpt lat="47.79026" lon="2.12502">
        <ele>128</ele>
        <time>2017-07-30T08:43:26.311Z</time>
      </trkpt>
      <trkpt lat="47.79031" lon="2.12508">
        <ele>128</ele>
        <time>2017-07-30T08:43:27.314Z</time>
      </trkpt>
      <trkpt lat="47.79033" lon="2.12511">
        <ele>128</ele>
        <time>2017-07-30T08:43:28.313Z</time>
      </trkpt>
      <trkpt lat="47.79033" lon="2.12511">
        <ele>128</ele>
        <time>2017-07-30T08:43:29.311Z</time>
      </trkpt>
      <trkpt lat="47.79038" lon="2.12516">
        <ele>128</ele>
        <time>2017-07-30T08:43:30.311Z</time>
      </trkpt>
      <trkpt lat="47.79038" lon="2.12516">
        <ele>128</ele>
        <time>2017-07-30T08:43:31.312Z</time>
      </trkpt>
      <trkpt lat="47.79044" lon="2.12521">
        <ele>128</ele>
        <time>2017-07-30T08:43:32.314Z</time>
      </trkpt>
      <trkpt lat="47.79044" lon="2.12521">
        <ele>128</ele>
        <time>2017-07-30T08:43:33.312Z</time>
      </trkpt>
      <trkpt lat="47.79048" lon="2.12526">
        <ele>128</ele>
        <time>2017-07-30T08:43:34.317Z</time>
      </trkpt>
      <trkpt lat="47.79048" lon="2.12526">
        <ele>128</ele>
        <time>2017-07-30T08:43:35.312Z</time>
      </trkpt>
      <trkpt lat="47.79052" lon="2.12528">
        <ele>128</ele>
        <time>2017-07-30T08:43:36.316Z</time>
      </trkpt>
      <trkpt lat="47.79052" lon="2.12528">
        <ele>128</ele>
        <time>2017-07-30T08:43:37.314Z</time>
      </trkpt>
      <trkpt lat="47.79055" lon="2.1253">
        <ele>128</ele>
        <time>2017-07-30T08:43:38.312Z</time>
      </trkpt>
      <trkpt lat="47.79055" lon="2.1253">
        <ele>128</ele>
        <time>2017-07-30T08:43:39.313Z</time>
      </trkpt>
      <trkpt lat="47.79058" lon="2.12531">
        <ele>128</ele>
        <time>2017-07-30T08:43:40.313Z</time>
      </trkpt>
      <trkpt lat="47.79058" lon="2.12531">
        <ele>128</ele>
        <time>2017-07-30T08:43:41.312Z</time>
      </trkpt>
      <trkpt lat="47.79063" lon="2.12533">
        <ele>129</ele>
        <time>2017-07-30T08:43:42.314Z</time>
      </trkpt>
      <trkpt lat="47.79065" lon="2.12533">
        <ele>129</ele>
        <time>2017-07-30T08:43:43.324Z</time>
      </trkpt>
      <trkpt lat="47.79065" lon="2.12533">
        <ele>129</ele>
        <time>2017-07-30T08:43:44.312Z</time>
      </trkpt>
      <trkpt lat="47.7907" lon="2.12535">
        <ele>129</ele>
        <time>2017-07-30T08:43:45.313Z</time>
      </trkpt>
      <trkpt lat="47.79072" lon="2.12536">
        <ele>129</ele>
        <time>2017-07-30T08:43:46.321Z</time>
      </trkpt>
      <trkpt lat="47.79072" lon="2.12536">
        <ele>129</ele>
        <time>2017-07-30T08:43:47.325Z</time>
      </trkpt>
      <trkpt lat="47.79077" lon="2.12537">
        <ele>129</ele>
        <time>2017-07-30T08:43:48.332Z</time>
      </trkpt>
      <trkpt lat="47.7908" lon="2.12538">
        <ele>129</ele>
        <time>2017-07-30T08:43:49.342Z</time>
      </trkpt>
      <trkpt lat="47.7908" lon="2.12538">
        <ele>129</ele>
        <time>2017-07-30T08:43:50.319Z</time>
      </trkpt>
      <trkpt lat="47.79086" lon="2.12539">
        <ele>130</ele>
        <time>2017-07-30T08:43:51.318Z</time>
      </trkpt>
      <trkpt lat="47.79089" lon="2.12539">
        <ele>130</ele>
        <time>2017-07-30T08:43:52.319Z</time>
      </trkpt>
      <trkpt lat="47.79089" lon="2.12539">
        <ele>130</ele>
        <time>2017-07-30T08:43:53.314Z</time>
      </trkpt>
      <trkpt lat="47.79096" lon="2.12541">
        <ele>130</ele>
        <time>2017-07-30T08:43:54.348Z</time>
      </trkpt>
      <trkpt lat="47.79099" lon="2.12542">
        <ele>130</ele>
        <time>2017-07-30T08:43:55.312Z</time>
      </trkpt>
      <trkpt lat="47.79103" lon="2.12542">
        <ele>130</ele>
        <time>2017-07-30T08:43:56.318Z</time>
      </trkpt>
      <trkpt lat="47.79106" lon="2.12543">
        <ele>131</ele>
        <time>2017-07-30T08:43:57.320Z</time>
      </trkpt>
      <trkpt lat="47.79106" lon="2.12543">
        <ele>131</ele>
        <time>2017-07-30T08:43:58.313Z</time>
      </trkpt>
      <trkpt lat="47.79113" lon="2.12544">
        <ele>131</ele>
        <time>2017-07-30T08:43:59.347Z</time>
      </trkpt>
      <trkpt lat="47.79116" lon="2.12545">
        <ele>131</ele>
        <time>2017-07-30T08:44:00.313Z</time>
      </trkpt>
      <trkpt lat="47.79116" lon="2.12545">
        <ele>131</ele>
        <time>2017-07-30T08:44:01.324Z</time>
      </trkpt>
      <trkpt lat="47.79122" lon="2.12545">
        <ele>133</ele>
        <time>2017-07-30T08:44:02.314Z</time>
      </trkpt>
      <trkpt lat="47.79122" lon="2.12545">
        <ele>133</ele>
        <time>2017-07-30T08:44:03.313Z</time>
      </trkpt>
      <trkpt lat="47.79129" lon="2.12547">
        <ele>133</ele>
        <time>2017-07-30T08:44:04.347Z</time>
      </trkpt>
      <trkpt lat="47.79129" lon="2.12547">
        <ele>133</ele>
        <time>2017-07-30T08:44:05.311Z</time>
      </trkpt>
      <trkpt lat="47.79136" lon="2.12549">
        <ele>133</ele>
        <time>2017-07-30T08:44:06.313Z</time>
      </trkpt>
      <trkpt lat="47.79139" lon="2.1255">
        <ele>133</ele>
        <time>2017-07-30T08:44:07.315Z</time>
      </trkpt>
      <trkpt lat="47.79139" lon="2.1255">
        <ele>133</ele>
        <time>2017-07-30T08:44:08.311Z</time>
      </trkpt>
      <trkpt lat="47.79146" lon="2.12551">
        <ele>133</ele>
        <time>2017-07-30T08:44:09.315Z</time>
      </trkpt>
      <trkpt lat="47.7915" lon="2.12552">
        <ele>133</ele>
        <time>2017-07-30T08:44:10.314Z</time>
      </trkpt>
      <trkpt lat="47.7915" lon="2.12552">
        <ele>133</ele>
        <time>2017-07-30T08:44:11.330Z</time>
      </trkpt>
      <trkpt lat="47.79157" lon="2.12554">
        <ele>133</ele>
        <time>2017-07-30T08:44:12.318Z</time>
      </trkpt>
      <trkpt lat="47.79161" lon="2.12554">
        <ele>133</ele>
        <time>2017-07-30T08:44:13.314Z</time>
      </trkpt>
      <trkpt lat="47.79161" lon="2.12554">
        <ele>133</ele>
        <time>2017-07-30T08:44:14.313Z</time>
      </trkpt>
      <trkpt lat="47.79167" lon="2.12556">
        <ele>133</ele>
        <time>2017-07-30T08:44:15.314Z</time>
      </trkpt>
      <trkpt lat="47.79171" lon="2.12557">
        <ele>133</ele>
        <time>2017-07-30T08:44:16.312Z</time>
      </trkpt>
      <trkpt lat="47.79171" lon="2.12557">
        <ele>133</ele>
        <time>2017-07-30T08:44:17.311Z</time>
      </trkpt>
      <trkpt lat="47.79179" lon="2.12559">
        <ele>132</ele>
        <time>2017-07-30T08:44:18.314Z</time>
      </trkpt>
      <trkpt lat="47.79179" lon="2.12559">
        <ele>132</ele>
        <time>2017-07-30T08:44:19.312Z</time>
      </trkpt>
      <trkpt lat="47.79186" lon="2.1256">
        <ele>132</ele>
        <time>2017-07-30T08:44:20.315Z</time>
      </trkpt>
      <trkpt lat="47.79186" lon="2.1256">
        <ele>132</ele>
        <time>2017-07-30T08:44:21.313Z</time>
      </trkpt>
      <trkpt lat="47.79194" lon="2.12562">
        <ele>132</ele>
        <time>2017-07-30T08:44:22.314Z</time>
      </trkpt>
      <trkpt lat="47.79194" lon="2.12562">
        <ele>132</ele>
        <time>2017-07-30T08:44:23.311Z</time>
      </trkpt>
      <trkpt lat="47.79203" lon="2.12564">
        <ele>132</ele>
        <time>2017-07-30T08:44:24.341Z</time>
      </trkpt>
      <trkpt lat="47.79203" lon="2.12564">
        <ele>132</ele>
        <time>2017-07-30T08:44:25.338Z</time>
      </trkpt>
      <trkpt lat="47.79211" lon="2.12566">
        <ele>131</ele>
        <time>2017-07-30T08:44:26.344Z</time>
      </trkpt>
      <trkpt lat="47.79211" lon="2.12566">
        <ele>131</ele>
        <time>2017-07-30T08:44:27.313Z</time>
      </trkpt>
      <trkpt lat="47.79219" lon="2.12568">
        <ele>131</ele>
        <time>2017-07-30T08:44:28.317Z</time>
      </trkpt>
      <trkpt lat="47.79219" lon="2.12568">
        <ele>131</ele>
        <time>2017-07-30T08:44:29.312Z</time>
      </trkpt>
      <trkpt lat="47.79227" lon="2.1257">
        <ele>131</ele>
        <time>2017-07-30T08:44:30.316Z</time>
      </trkpt>
      <trkpt lat="47.79227" lon="2.1257">
        <ele>131</ele>
        <time>2017-07-30T08:44:31.311Z</time>
      </trkpt>
      <trkpt lat="47.79235" lon="2.12572">
        <ele>131</ele>
        <time>2017-07-30T08:44:32.314Z</time>
      </trkpt>
      <trkpt lat="47.79235" lon="2.12572">
        <ele>131</ele>
        <time>2017-07-30T08:44:33.313Z</time>
      </trkpt>
      <trkpt lat="47.79243" lon="2.12574">
        <ele>131</ele>
        <time>2017-07-30T08:44:34.317Z</time>
      </trkpt>
      <trkpt lat="47.79243" lon="2.12574">
        <ele>131</ele>
        <time>2017-07-30T08:44:35.311Z</time>
      </trkpt>
      <trkpt lat="47.79252" lon="2.12577">
        <ele>131</ele>
        <time>2017-07-30T08:44:36.311Z</time>
      </trkpt>
      <trkpt lat="47.79252" lon="2.12577">
        <ele>131</ele>
        <time>2017-07-30T08:44:37.312Z</time>
      </trkpt>
      <trkpt lat="47.79259" lon="2.12579">
        <ele>131</ele>
        <time>2017-07-30T08:44:38.314Z</time>
      </trkpt>
      <trkpt lat="47.79263" lon="2.1258">
        <ele>131</ele>
        <time>2017-07-30T08:44:39.315Z</time>
      </trkpt>
      <trkpt lat="47.79266" lon="2.12581">
        <ele>131</ele>
        <time>2017-07-30T08:44:40.320Z</time>
      </trkpt>
      <trkpt lat="47.7927" lon="2.12581">
        <ele>131</ele>
        <time>2017-07-30T08:44:41.334Z</time>
      </trkpt>
      <trkpt lat="47.7927" lon="2.12581">
        <ele>131</ele>
        <time>2017-07-30T08:44:42.319Z</time>
      </trkpt>
      <trkpt lat="47.79278" lon="2.12583">
        <ele>130</ele>
        <time>2017-07-30T08:44:43.325Z</time>
      </trkpt>
      <trkpt lat="47.79282" lon="2.12584">
        <ele>130</ele>
        <time>2017-07-30T08:44:44.332Z</time>
      </trkpt>
      <trkpt lat="47.79286" lon="2.12585">
        <ele>130</ele>
        <time>2017-07-30T08:44:45.322Z</time>
      </trkpt>
      <trkpt lat="47.79286" lon="2.12585">
        <ele>130</ele>
        <time>2017-07-30T08:44:46.314Z</time>
      </trkpt>
      <trkpt lat="47.79294" lon="2.12588">
        <ele>130</ele>
        <time>2017-07-30T08:44:47.333Z</time>
      </trkpt>
      <trkpt lat="47.79294" lon="2.12588">
        <ele>130</ele>
        <time>2017-07-30T08:44:48.322Z</time>
      </trkpt>
      <trkpt lat="47.79302" lon="2.1259">
        <ele>130</ele>
        <time>2017-07-30T08:44:49.317Z</time>
      </trkpt>
      <trkpt lat="47.79302" lon="2.1259">
        <ele>130</ele>
        <time>2017-07-30T08:44:50.311Z</time>
      </trkpt>
      <trkpt lat="47.7931" lon="2.12592">
        <ele>130</ele>
        <time>2017-07-30T08:44:51.334Z</time>
      </trkpt>
      <trkpt lat="47.7931" lon="2.12592">
        <ele>130</ele>
        <time>2017-07-30T08:44:52.331Z</time>
      </trkpt>
      <trkpt lat="47.79317" lon="2.12594">
        <ele>130</ele>
        <time>2017-07-30T08:44:53.320Z</time>
      </trkpt>
      <trkpt lat="47.79321" lon="2.12594">
        <ele>130</ele>
        <time>2017-07-30T08:44:54.318Z</time>
      </trkpt>
      <trkpt lat="47.79321" lon="2.12594">
        <ele>130</ele>
        <time>2017-07-30T08:44:55.312Z</time>
      </trkpt>
      <trkpt lat="47.79328" lon="2.12596">
        <ele>130</ele>
        <time>2017-07-30T08:44:56.315Z</time>
      </trkpt>
      <trkpt lat="47.79328" lon="2.12596">
        <ele>130</ele>
        <time>2017-07-30T08:44:57.313Z</time>
      </trkpt>
      <trkpt lat="47.79335" lon="2.12598">
        <ele>130</ele>
        <time>2017-07-30T08:44:58.318Z</time>
      </trkpt>
      <trkpt lat="47.79335" lon="2.12598">
        <ele>130</ele>
        <time>2017-07-30T08:44:59.311Z</time>
      </trkpt>
      <trkpt lat="47.79343" lon="2.126">
        <ele>130</ele>
        <time>2017-07-30T08:45:00.315Z</time>
      </trkpt>
      <trkpt lat="47.79343" lon="2.126">
        <ele>130</ele>
        <time>2017-07-30T08:45:01.311Z</time>
      </trkpt>
      <trkpt lat="47.79351" lon="2.12602">
        <ele>130</ele>
        <time>2017-07-30T08:45:02.314Z</time>
      </trkpt>
      <trkpt lat="47.79351" lon="2.12602">
        <ele>130</ele>
        <time>2017-07-30T08:45:03.330Z</time>
      </trkpt>
      <trkpt lat="47.79359" lon="2.12604">
        <ele>129</ele>
        <time>2017-07-30T08:45:04.319Z</time>
      </trkpt>
      <trkpt lat="47.79359" lon="2.12604">
        <ele>129</ele>
        <time>2017-07-30T08:45:05.312Z</time>
      </trkpt>
      <trkpt lat="47.79367" lon="2.12607">
        <ele>129</ele>
        <time>2017-07-30T08:45:06.315Z</time>
      </trkpt>
      <trkpt lat="47.79367" lon="2.12607">
        <ele>129</ele>
        <time>2017-07-30T08:45:07.312Z</time>
      </trkpt>
      <trkpt lat="47.79374" lon="2.12608">
        <ele>129</ele>
        <time>2017-07-30T08:45:08.314Z</time>
      </trkpt>
      <trkpt lat="47.79374" lon="2.12608">
        <ele>129</ele>
        <time>2017-07-30T08:45:09.313Z</time>
      </trkpt>
      <trkpt lat="47.79381" lon="2.12611">
        <ele>129</ele>
        <time>2017-07-30T08:45:10.317Z</time>
      </trkpt>
      <trkpt lat="47.79381" lon="2.12611">
        <ele>129</ele>
        <time>2017-07-30T08:45:11.313Z</time>
      </trkpt>
      <trkpt lat="47.79388" lon="2.12613">
        <ele>128</ele>
        <time>2017-07-30T08:45:12.316Z</time>
      </trkpt>
      <trkpt lat="47.79388" lon="2.12613">
        <ele>128</ele>
        <time>2017-07-30T08:45:13.311Z</time>
      </trkpt>
      <trkpt lat="47.79396" lon="2.12615">
        <ele>128</ele>
        <time>2017-07-30T08:45:14.316Z</time>
      </trkpt>
      <trkpt lat="47.79396" lon="2.12615">
        <ele>128</ele>
        <time>2017-07-30T08:45:15.313Z</time>
      </trkpt>
      <trkpt lat="47.79403" lon="2.12616">
        <ele>128</ele>
        <time>2017-07-30T08:45:16.312Z</time>
      </trkpt>
      <trkpt lat="47.79403" lon="2.12616">
        <ele>128</ele>
        <time>2017-07-30T08:45:17.312Z</time>
      </trkpt>
      <trkpt lat="47.7941" lon="2.12618">
        <ele>128</ele>
        <time>2017-07-30T08:45:18.329Z</time>
      </trkpt>
      <trkpt lat="47.79414" lon="2.12619">
        <ele>128</ele>
        <time>2017-07-30T08:45:19.321Z</time>
      </trkpt>
      <trkpt lat="47.79414" lon="2.12619">
        <ele>128</ele>
        <time>2017-07-30T08:45:20.312Z</time>
      </trkpt>
      <trkpt lat="47.79421" lon="2.12621">
        <ele>128</ele>
        <time>2017-07-30T08:45:21.314Z</time>
      </trkpt>
      <trkpt lat="47.79425" lon="2.12622">
        <ele>128</ele>
        <time>2017-07-30T08:45:22.317Z</time>
      </trkpt>
      <trkpt lat="47.79425" lon="2.12622">
        <ele>128</ele>
        <time>2017-07-30T08:45:23.312Z</time>
      </trkpt>
      <trkpt lat="47.79433" lon="2.12624">
        <ele>128</ele>
        <time>2017-07-30T08:45:24.313Z</time>
      </trkpt>
      <trkpt lat="47.79437" lon="2.12625">
        <ele>128</ele>
        <time>2017-07-30T08:45:25.313Z</time>
      </trkpt>
      <trkpt lat="47.79437" lon="2.12625">
        <ele>128</ele>
        <time>2017-07-30T08:45:26.319Z</time>
      </trkpt>
      <trkpt lat="47.79445" lon="2.12627">
        <ele>128</ele>
        <time>2017-07-30T08:45:27.315Z</time>
      </trkpt>
      <trkpt lat="47.79449" lon="2.12628">
        <ele>128</ele>
        <time>2017-07-30T08:45:28.315Z</time>
      </trkpt>
      <trkpt lat="47.79449" lon="2.12628">
        <ele>128</ele>
        <time>2017-07-30T08:45:29.312Z</time>
      </trkpt>
      <trkpt lat="47.79457" lon="2.1263">
        <ele>127</ele>
        <time>2017-07-30T08:45:30.312Z</time>
      </trkpt>
      <trkpt lat="47.79461" lon="2.12631">
        <ele>127</ele>
        <time>2017-07-30T08:45:31.320Z</time>
      </trkpt>
      <trkpt lat="47.79461" lon="2.12631">
        <ele>127</ele>
        <time>2017-07-30T08:45:32.311Z</time>
      </trkpt>
      <trkpt lat="47.79469" lon="2.12633">
        <ele>127</ele>
        <time>2017-07-30T08:45:33.319Z</time>
      </trkpt>
      <trkpt lat="47.79473" lon="2.12633">
        <ele>127</ele>
        <time>2017-07-30T08:45:34.321Z</time>
      </trkpt>
      <trkpt lat="47.79473" lon="2.12633">
        <ele>127</ele>
        <time>2017-07-30T08:45:35.313Z</time>
      </trkpt>
      <trkpt lat="47.79482" lon="2.12635">
        <ele>127</ele>
        <time>2017-07-30T08:45:36.318Z</time>
      </trkpt>
      <trkpt lat="47.79482" lon="2.12635">
        <ele>127</ele>
        <time>2017-07-30T08:45:37.311Z</time>
      </trkpt>
      <trkpt lat="47.7949" lon="2.12638">
        <ele>126</ele>
        <time>2017-07-30T08:45:38.316Z</time>
      </trkpt>
      <trkpt lat="47.79494" lon="2.12639">
        <ele>126</ele>
        <time>2017-07-30T08:45:39.320Z</time>
      </trkpt>
      <trkpt lat="47.79494" lon="2.12639">
        <ele>126</ele>
        <time>2017-07-30T08:45:40.312Z</time>
      </trkpt>
      <trkpt lat="47.79502" lon="2.12641">
        <ele>126</ele>
        <time>2017-07-30T08:45:41.314Z</time>
      </trkpt>
      <trkpt lat="47.79502" lon="2.12641">
        <ele>126</ele>
        <time>2017-07-30T08:45:42.314Z</time>
      </trkpt>
      <trkpt lat="47.79509" lon="2.12643">
        <ele>126</ele>
        <time>2017-07-30T08:45:43.328Z</time>
      </trkpt>
      <trkpt lat="47.79509" lon="2.12643">
        <ele>126</ele>
        <time>2017-07-30T08:45:44.315Z</time>
      </trkpt>
      <trkpt lat="47.79517" lon="2.12645">
        <ele>126</ele>
        <time>2017-07-30T08:45:45.321Z</time>
      </trkpt>
      <trkpt lat="47.79517" lon="2.12645">
        <ele>126</ele>
        <time>2017-07-30T08:45:46.339Z</time>
      </trkpt>
      <trkpt lat="47.79524" lon="2.12647">
        <ele>126</ele>
        <time>2017-07-30T08:45:47.328Z</time>
      </trkpt>
      <trkpt lat="47.79528" lon="2.12648">
        <ele>126</ele>
        <time>2017-07-30T08:45:48.317Z</time>
      </trkpt>
      <trkpt lat="47.79528" lon="2.12648">
        <ele>126</ele>
        <time>2017-07-30T08:45:49.311Z</time>
      </trkpt>
      <trkpt lat="47.79536" lon="2.1265">
        <ele>126</ele>
        <time>2017-07-30T08:45:50.314Z</time>
      </trkpt>
      <trkpt lat="47.79536" lon="2.1265">
        <ele>126</ele>
        <time>2017-07-30T08:45:51.314Z</time>
      </trkpt>
      <trkpt lat="47.79544" lon="2.12653">
        <ele>126</ele>
        <time>2017-07-30T08:45:52.313Z</time>
      </trkpt>
      <trkpt lat="47.79544" lon="2.12653">
        <ele>126</ele>
        <time>2017-07-30T08:45:53.312Z</time>
      </trkpt>
      <trkpt lat="47.79552" lon="2.12655">
        <ele>126</ele>
        <time>2017-07-30T08:45:54.315Z</time>
      </trkpt>
      <trkpt lat="47.79552" lon="2.12655">
        <ele>126</ele>
        <time>2017-07-30T08:45:55.312Z</time>
      </trkpt>
      <trkpt lat="47.7956" lon="2.12657">
        <ele>126</ele>
        <time>2017-07-30T08:45:56.316Z</time>
      </trkpt>
      <trkpt lat="47.79564" lon="2.12658">
        <ele>126</ele>
        <time>2017-07-30T08:45:57.314Z</time>
      </trkpt>
      <trkpt lat="47.79568" lon="2.1266">
        <ele>126</ele>
        <time>2017-07-30T08:45:58.313Z</time>
      </trkpt>
      <trkpt lat="47.79568" lon="2.1266">
        <ele>126</ele>
        <time>2017-07-30T08:45:59.312Z</time>
      </trkpt>
      <trkpt lat="47.79575" lon="2.12662">
        <ele>126</ele>
        <time>2017-07-30T08:46:00.316Z</time>
      </trkpt>
      <trkpt lat="47.79575" lon="2.12662">
        <ele>126</ele>
        <time>2017-07-30T08:46:01.312Z</time>
      </trkpt>
      <trkpt lat="47.79582" lon="2.12664">
        <ele>126</ele>
        <time>2017-07-30T08:46:02.314Z</time>
      </trkpt>
      <trkpt lat="47.79586" lon="2.12664">
        <ele>126</ele>
        <time>2017-07-30T08:46:03.314Z</time>
      </trkpt>
      <trkpt lat="47.7959" lon="2.12665">
        <ele>126</ele>
        <time>2017-07-30T08:46:04.326Z</time>
      </trkpt>
      <trkpt lat="47.7959" lon="2.12665">
        <ele>126</ele>
        <time>2017-07-30T08:46:05.314Z</time>
      </trkpt>
      <trkpt lat="47.79598" lon="2.12667">
        <ele>126</ele>
        <time>2017-07-30T08:46:06.316Z</time>
      </trkpt>
      <trkpt lat="47.79603" lon="2.12668">
        <ele>125</ele>
        <time>2017-07-30T08:46:07.313Z</time>
      </trkpt>
      <trkpt lat="47.79603" lon="2.12668">
        <ele>125</ele>
        <time>2017-07-30T08:46:08.312Z</time>
      </trkpt>
      <trkpt lat="47.7961" lon="2.1267">
        <ele>125</ele>
        <time>2017-07-30T08:46:09.315Z</time>
      </trkpt>
      <trkpt lat="47.79614" lon="2.12671">
        <ele>125</ele>
        <time>2017-07-30T08:46:10.316Z</time>
      </trkpt>
      <trkpt lat="47.79614" lon="2.12671">
        <ele>125</ele>
        <time>2017-07-30T08:46:11.312Z</time>
      </trkpt>
      <trkpt lat="47.79621" lon="2.12673">
        <ele>125</ele>
        <time>2017-07-30T08:46:12.324Z</time>
      </trkpt>
      <trkpt lat="47.79621" lon="2.12673">
        <ele>125</ele>
        <time>2017-07-30T08:46:13.312Z</time>
      </trkpt>
      <trkpt lat="47.79629" lon="2.12674">
        <ele>125</ele>
        <time>2017-07-30T08:46:14.315Z</time>
      </trkpt>
      <trkpt lat="47.79629" lon="2.12674">
        <ele>125</ele>
        <time>2017-07-30T08:46:15.312Z</time>
      </trkpt>
      <trkpt lat="47.79636" lon="2.12676">
        <ele>125</ele>
        <time>2017-07-30T08:46:16.312Z</time>
      </trkpt>
      <trkpt lat="47.79636" lon="2.12676">
        <ele>125</ele>
        <time>2017-07-30T08:46:17.312Z</time>
      </trkpt>
      <trkpt lat="47.79644" lon="2.12678">
        <ele>125</ele>
        <time>2017-07-30T08:46:18.315Z</time>
      </trkpt>
      <trkpt lat="47.79647" lon="2.12679">
        <ele>125</ele>
        <time>2017-07-30T08:46:19.312Z</time>
      </trkpt>
      <trkpt lat="47.79647" lon="2.12679">
        <ele>125</ele>
        <time>2017-07-30T08:46:20.312Z</time>
      </trkpt>
      <trkpt lat="47.79655" lon="2.1268">
        <ele>125</ele>
        <time>2017-07-30T08:46:21.313Z</time>
      </trkpt>
      <trkpt lat="47.79655" lon="2.1268">
        <ele>125</ele>
        <time>2017-07-30T08:46:22.348Z</time>
      </trkpt>
      <trkpt lat="47.79662" lon="2.12681">
        <ele>126</ele>
        <time>2017-07-30T08:46:23.315Z</time>
      </trkpt>
      <trkpt lat="47.79662" lon="2.12681">
        <ele>126</ele>
        <time>2017-07-30T08:46:24.313Z</time>
      </trkpt>
      <trkpt lat="47.79669" lon="2.12685">
        <ele>126</ele>
        <time>2017-07-30T08:46:25.324Z</time>
      </trkpt>
      <trkpt lat="47.79669" lon="2.12685">
        <ele>126</ele>
        <time>2017-07-30T08:46:26.330Z</time>
      </trkpt>
      <trkpt lat="47.79673" lon="2.12692">
        <ele>126</ele>
        <time>2017-07-30T08:46:27.338Z</time>
      </trkpt>
      <trkpt lat="47.79675" lon="2.12697">
        <ele>126</ele>
        <time>2017-07-30T08:46:28.327Z</time>
      </trkpt>
      <trkpt lat="47.79675" lon="2.12697">
        <ele>126</ele>
        <time>2017-07-30T08:46:29.316Z</time>
      </trkpt>
      <trkpt lat="47.79679" lon="2.12706">
        <ele>125</ele>
        <time>2017-07-30T08:46:30.323Z</time>
      </trkpt>
      <trkpt lat="47.79682" lon="2.12711">
        <ele>125</ele>
        <time>2017-07-30T08:46:31.319Z</time>
      </trkpt>
      <trkpt lat="47.79682" lon="2.12711">
        <ele>125</ele>
        <time>2017-07-30T08:46:32.312Z</time>
      </trkpt>
      <trkpt lat="47.79687" lon="2.12721">
        <ele>125</ele>
        <time>2017-07-30T08:46:33.318Z</time>
      </trkpt>
      <trkpt lat="47.79689" lon="2.12727">
        <ele>125</ele>
        <time>2017-07-30T08:46:34.321Z</time>
      </trkpt>
      <trkpt lat="47.79689" lon="2.12727">
        <ele>125</ele>
        <time>2017-07-30T08:46:35.315Z</time>
      </trkpt>
      <trkpt lat="47.79695" lon="2.12739">
        <ele>125</ele>
        <time>2017-07-30T08:46:36.318Z</time>
      </trkpt>
      <trkpt lat="47.79695" lon="2.12739">
        <ele>125</ele>
        <time>2017-07-30T08:46:37.312Z</time>
      </trkpt>
      <trkpt lat="47.79701" lon="2.12752">
        <ele>125</ele>
        <time>2017-07-30T08:46:38.318Z</time>
      </trkpt>
      <trkpt lat="47.79701" lon="2.12752">
        <ele>125</ele>
        <time>2017-07-30T08:46:39.313Z</time>
      </trkpt>
      <trkpt lat="47.79708" lon="2.12763">
        <ele>125</ele>
        <time>2017-07-30T08:46:40.317Z</time>
      </trkpt>
      <trkpt lat="47.79708" lon="2.12763">
        <ele>125</ele>
        <time>2017-07-30T08:46:41.314Z</time>
      </trkpt>
      <trkpt lat="47.79714" lon="2.12776">
        <ele>125</ele>
        <time>2017-07-30T08:46:42.321Z</time>
      </trkpt>
      <trkpt lat="47.79717" lon="2.12782">
        <ele>125</ele>
        <time>2017-07-30T08:46:43.329Z</time>
      </trkpt>
      <trkpt lat="47.79717" lon="2.12782">
        <ele>125</ele>
        <time>2017-07-30T08:46:44.317Z</time>
      </trkpt>
      <trkpt lat="47.79724" lon="2.12795">
        <ele>125</ele>
        <time>2017-07-30T08:46:45.317Z</time>
      </trkpt>
      <trkpt lat="47.79727" lon="2.12802">
        <ele>125</ele>
        <time>2017-07-30T08:46:46.319Z</time>
      </trkpt>
      <trkpt lat="47.79727" lon="2.12802">
        <ele>125</ele>
        <time>2017-07-30T08:46:47.312Z</time>
      </trkpt>
      <trkpt lat="47.79733" lon="2.12816">
        <ele>126</ele>
        <time>2017-07-30T08:46:48.315Z</time>
      </trkpt>
      <trkpt lat="47.79736" lon="2.12823">
        <ele>126</ele>
        <time>2017-07-30T08:46:49.312Z</time>
      </trkpt>
      <trkpt lat="47.79736" lon="2.12823">
        <ele>126</ele>
        <time>2017-07-30T08:46:50.312Z</time>
      </trkpt>
      <trkpt lat="47.79742" lon="2.12837">
        <ele>126</ele>
        <time>2017-07-30T08:46:51.315Z</time>
      </trkpt>
      <trkpt lat="47.79745" lon="2.12844">
        <ele>126</ele>
        <time>2017-07-30T08:46:52.314Z</time>
      </trkpt>
      <trkpt lat="47.79745" lon="2.12844">
        <ele>126</ele>
        <time>2017-07-30T08:46:53.312Z</time>
      </trkpt>
      <trkpt lat="47.79752" lon="2.12858">
        <ele>126</ele>
        <time>2017-07-30T08:46:54.316Z</time>
      </trkpt>
      <trkpt lat="47.79752" lon="2.12858">
        <ele>126</ele>
        <time>2017-07-30T08:46:55.312Z</time>
      </trkpt>
      <trkpt lat="47.79758" lon="2.12872">
        <ele>127</ele>
        <time>2017-07-30T08:46:56.316Z</time>
      </trkpt>
      <trkpt lat="47.79758" lon="2.12872">
        <ele>127</ele>
        <time>2017-07-30T08:46:57.313Z</time>
      </trkpt>
      <trkpt lat="47.79764" lon="2.12887">
        <ele>127</ele>
        <time>2017-07-30T08:46:58.317Z</time>
      </trkpt>
      <trkpt lat="47.79768" lon="2.12894">
        <ele>127</ele>
        <time>2017-07-30T08:46:59.316Z</time>
      </trkpt>
      <trkpt lat="47.79768" lon="2.12894">
        <ele>127</ele>
        <time>2017-07-30T08:47:00.312Z</time>
      </trkpt>
      <trkpt lat="47.79774" lon="2.12907">
        <ele>127</ele>
        <time>2017-07-30T08:47:01.312Z</time>
      </trkpt>
      <trkpt lat="47.79777" lon="2.12914">
        <ele>127</ele>
        <time>2017-07-30T08:47:02.314Z</time>
      </trkpt>
      <trkpt lat="47.79777" lon="2.12914">
        <ele>127</ele>
        <time>2017-07-30T08:47:03.313Z</time>
      </trkpt>
      <trkpt lat="47.79783" lon="2.12927">
        <ele>127</ele>
        <time>2017-07-30T08:47:04.317Z</time>
      </trkpt>
      <trkpt lat="47.79783" lon="2.12927">
        <ele>127</ele>
        <time>2017-07-30T08:47:05.317Z</time>
      </trkpt>
      <trkpt lat="47.7979" lon="2.1294">
        <ele>128</ele>
        <time>2017-07-30T08:47:06.314Z</time>
      </trkpt>
      <trkpt lat="47.79793" lon="2.12947">
        <ele>128</ele>
        <time>2017-07-30T08:47:07.315Z</time>
      </trkpt>
      <trkpt lat="47.79796" lon="2.12954">
        <ele>127</ele>
        <time>2017-07-30T08:47:08.313Z</time>
      </trkpt>
      <trkpt lat="47.79796" lon="2.12954">
        <ele>127</ele>
        <time>2017-07-30T08:47:09.313Z</time>
      </trkpt>
      <trkpt lat="47.79803" lon="2.12967">
        <ele>127</ele>
        <time>2017-07-30T08:47:10.343Z</time>
      </trkpt>
      <trkpt lat="47.79803" lon="2.12967">
        <ele>127</ele>
        <time>2017-07-30T08:47:11.313Z</time>
      </trkpt>
      <trkpt lat="47.79809" lon="2.1298">
        <ele>128</ele>
        <time>2017-07-30T08:47:12.313Z</time>
      </trkpt>
      <trkpt lat="47.79812" lon="2.12986">
        <ele>127</ele>
        <time>2017-07-30T08:47:13.314Z</time>
      </trkpt>
      <trkpt lat="47.79816" lon="2.12991">
        <ele>128</ele>
        <time>2017-07-30T08:47:14.314Z</time>
      </trkpt>
      <trkpt lat="47.79816" lon="2.12991">
        <ele>128</ele>
        <time>2017-07-30T08:47:15.313Z</time>
      </trkpt>
      <trkpt lat="47.79823" lon="2.1299">
        <ele>128</ele>
        <time>2017-07-30T08:47:16.312Z</time>
      </trkpt>
      <trkpt lat="47.79823" lon="2.1299">
        <ele>128</ele>
        <time>2017-07-30T08:47:17.312Z</time>
      </trkpt>
      <trkpt lat="47.79825" lon="2.12981">
        <ele>128</ele>
        <time>2017-07-30T08:47:18.318Z</time>
      </trkpt>
      <trkpt lat="47.79826" lon="2.12975">
        <ele>128</ele>
        <time>2017-07-30T08:47:19.317Z</time>
      </trkpt>
      <trkpt lat="47.79826" lon="2.12975">
        <ele>128</ele>
        <time>2017-07-30T08:47:20.313Z</time>
      </trkpt>
      <trkpt lat="47.79831" lon="2.12962">
        <ele>128</ele>
        <time>2017-07-30T08:47:21.337Z</time>
      </trkpt>
      <trkpt lat="47.79831" lon="2.12962">
        <ele>128</ele>
        <time>2017-07-30T08:47:22.325Z</time>
      </trkpt>
      <trkpt lat="47.79839" lon="2.12951">
        <ele>128</ele>
        <time>2017-07-30T08:47:23.338Z</time>
      </trkpt>
      <trkpt lat="47.79839" lon="2.12951">
        <ele>128</ele>
        <time>2017-07-30T08:47:24.311Z</time>
      </trkpt>
      <trkpt lat="47.7985" lon="2.12944">
        <ele>128</ele>
        <time>2017-07-30T08:47:25.321Z</time>
      </trkpt>
      <trkpt lat="47.7985" lon="2.12944">
        <ele>128</ele>
        <time>2017-07-30T08:47:26.332Z</time>
      </trkpt>
      <trkpt lat="47.79861" lon="2.12938">
        <ele>128</ele>
        <time>2017-07-30T08:47:27.321Z</time>
      </trkpt>
      <trkpt lat="47.79866" lon="2.12935">
        <ele>128</ele>
        <time>2017-07-30T08:47:28.320Z</time>
      </trkpt>
      <trkpt lat="47.79866" lon="2.12935">
        <ele>128</ele>
        <time>2017-07-30T08:47:29.312Z</time>
      </trkpt>
      <trkpt lat="47.79877" lon="2.12927">
        <ele>128</ele>
        <time>2017-07-30T08:47:30.350Z</time>
      </trkpt>
      <trkpt lat="47.79882" lon="2.12924">
        <ele>128</ele>
        <time>2017-07-30T08:47:31.317Z</time>
      </trkpt>
      <trkpt lat="47.79882" lon="2.12924">
        <ele>128</ele>
        <time>2017-07-30T08:47:32.312Z</time>
      </trkpt>
      <trkpt lat="47.79893" lon="2.12916">
        <ele>128</ele>
        <time>2017-07-30T08:47:33.317Z</time>
      </trkpt>
      <trkpt lat="47.79898" lon="2.12913">
        <ele>127</ele>
        <time>2017-07-30T08:47:34.318Z</time>
      </trkpt>
      <trkpt lat="47.79898" lon="2.12913">
        <ele>127</ele>
        <time>2017-07-30T08:47:35.312Z</time>
      </trkpt>
      <trkpt lat="47.7991" lon="2.12906">
        <ele>128</ele>
        <time>2017-07-30T08:47:36.347Z</time>
      </trkpt>
      <trkpt lat="47.79915" lon="2.12902">
        <ele>128</ele>
        <time>2017-07-30T08:47:37.314Z</time>
      </trkpt>
      <trkpt lat="47.79915" lon="2.12902">
        <ele>128</ele>
        <time>2017-07-30T08:47:38.312Z</time>
      </trkpt>
      <trkpt lat="47.79925" lon="2.12894">
        <ele>128</ele>
        <time>2017-07-30T08:47:39.316Z</time>
      </trkpt>
      <trkpt lat="47.79925" lon="2.12894">
        <ele>128</ele>
        <time>2017-07-30T08:47:40.312Z</time>
      </trkpt>
      <trkpt lat="47.79936" lon="2.12887">
        <ele>128</ele>
        <time>2017-07-30T08:47:41.339Z</time>
      </trkpt>
      <trkpt lat="47.79942" lon="2.12884">
        <ele>128</ele>
        <time>2017-07-30T08:47:42.328Z</time>
      </trkpt>
      <trkpt lat="47.79942" lon="2.12884">
        <ele>128</ele>
        <time>2017-07-30T08:47:43.331Z</time>
      </trkpt>
      <trkpt lat="47.79954" lon="2.12878">
        <ele>128</ele>
        <time>2017-07-30T08:47:44.322Z</time>
      </trkpt>
      <trkpt lat="47.79954" lon="2.12878">
        <ele>128</ele>
        <time>2017-07-30T08:47:45.313Z</time>
      </trkpt>
      <trkpt lat="47.79966" lon="2.12872">
        <ele>128</ele>
        <time>2017-07-30T08:47:46.314Z</time>
      </trkpt>
      <trkpt lat="47.79966" lon="2.12872">
        <ele>128</ele>
        <time>2017-07-30T08:47:47.314Z</time>
      </trkpt>
      <trkpt lat="47.79978" lon="2.12866">
        <ele>128</ele>
        <time>2017-07-30T08:47:48.316Z</time>
      </trkpt>
      <trkpt lat="47.79978" lon="2.12866">
        <ele>128</ele>
        <time>2017-07-30T08:47:49.312Z</time>
      </trkpt>
      <trkpt lat="47.79989" lon="2.12859">
        <ele>128</ele>
        <time>2017-07-30T08:47:50.314Z</time>
      </trkpt>
      <trkpt lat="47.79995" lon="2.12857">
        <ele>128</ele>
        <time>2017-07-30T08:47:51.319Z</time>
      </trkpt>
      <trkpt lat="47.80001" lon="2.12855">
        <ele>128</ele>
        <time>2017-07-30T08:47:52.316Z</time>
      </trkpt>
      <trkpt lat="47.80001" lon="2.12855">
        <ele>128</ele>
        <time>2017-07-30T08:47:53.312Z</time>
      </trkpt>
      <trkpt lat="47.80013" lon="2.12852">
        <ele>128</ele>
        <time>2017-07-30T08:47:54.316Z</time>
      </trkpt>
      <trkpt lat="47.80013" lon="2.12852">
        <ele>128</ele>
        <time>2017-07-30T08:47:55.312Z</time>
      </trkpt>
      <trkpt lat="47.80026" lon="2.12854">
        <ele>127</ele>
        <time>2017-07-30T08:47:56.326Z</time>
      </trkpt>
      <trkpt lat="47.80032" lon="2.12857">
        <ele>127</ele>
        <time>2017-07-30T08:47:57.315Z</time>
      </trkpt>
      <trkpt lat="47.80032" lon="2.12857">
        <ele>127</ele>
        <time>2017-07-30T08:47:58.312Z</time>
      </trkpt>
      <trkpt lat="47.80045" lon="2.12863">
        <ele>126</ele>
        <time>2017-07-30T08:47:59.314Z</time>
      </trkpt>
      <trkpt lat="47.80051" lon="2.12866">
        <ele>126</ele>
        <time>2017-07-30T08:48:00.316Z</time>
      </trkpt>
      <trkpt lat="47.80051" lon="2.12866">
        <ele>126</ele>
        <time>2017-07-30T08:48:01.312Z</time>
      </trkpt>
      <trkpt lat="47.80065" lon="2.12872">
        <ele>126</ele>
        <time>2017-07-30T08:48:02.314Z</time>
      </trkpt>
      <trkpt lat="47.80065" lon="2.12872">
        <ele>126</ele>
        <time>2017-07-30T08:48:03.313Z</time>
      </trkpt>
      <trkpt lat="47.8008" lon="2.1288">
        <ele>126</ele>
        <time>2017-07-30T08:48:04.313Z</time>
      </trkpt>
      <trkpt lat="47.8008" lon="2.1288">
        <ele>126</ele>
        <time>2017-07-30T08:48:05.312Z</time>
      </trkpt>
      <trkpt lat="47.80094" lon="2.1289">
        <ele>125</ele>
        <time>2017-07-30T08:48:06.316Z</time>
      </trkpt>
      <trkpt lat="47.80094" lon="2.1289">
        <ele>125</ele>
        <time>2017-07-30T08:48:07.312Z</time>
      </trkpt>
      <trkpt lat="47.80106" lon="2.12897">
        <ele>125</ele>
        <time>2017-07-30T08:48:08.314Z</time>
      </trkpt>
      <trkpt lat="47.80111" lon="2.12899">
        <ele>124</ele>
        <time>2017-07-30T08:48:09.336Z</time>
      </trkpt>
      <trkpt lat="47.80117" lon="2.129">
        <ele>124</ele>
        <time>2017-07-30T08:48:10.341Z</time>
      </trkpt>
      <trkpt lat="47.80117" lon="2.129">
        <ele>124</ele>
        <time>2017-07-30T08:48:11.327Z</time>
      </trkpt>
      <trkpt lat="47.80126" lon="2.12905">
        <ele>123</ele>
        <time>2017-07-30T08:48:12.318Z</time>
      </trkpt>
      <trkpt lat="47.80126" lon="2.12905">
        <ele>123</ele>
        <time>2017-07-30T08:48:13.312Z</time>
      </trkpt>
      <trkpt lat="47.80133" lon="2.12906">
        <ele>122</ele>
        <time>2017-07-30T08:48:14.319Z</time>
      </trkpt>
      <trkpt lat="47.80133" lon="2.12906">
        <ele>122</ele>
        <time>2017-07-30T08:48:15.314Z</time>
      </trkpt>
      <trkpt lat="47.80139" lon="2.12904">
        <ele>122</ele>
        <time>2017-07-30T08:48:16.333Z</time>
      </trkpt>
      <trkpt lat="47.80139" lon="2.12904">
        <ele>122</ele>
        <time>2017-07-30T08:48:17.321Z</time>
      </trkpt>
      <trkpt lat="47.80146" lon="2.12898">
        <ele>121</ele>
        <time>2017-07-30T08:48:18.318Z</time>
      </trkpt>
      <trkpt lat="47.80149" lon="2.12892">
        <ele>120</ele>
        <time>2017-07-30T08:48:19.314Z</time>
      </trkpt>
      <trkpt lat="47.80149" lon="2.12892">
        <ele>120</ele>
        <time>2017-07-30T08:48:20.311Z</time>
      </trkpt>
      <trkpt lat="47.80153" lon="2.12881">
        <ele>120</ele>
        <time>2017-07-30T08:48:21.319Z</time>
      </trkpt>
      <trkpt lat="47.80153" lon="2.12881">
        <ele>120</ele>
        <time>2017-07-30T08:48:22.312Z</time>
      </trkpt>
      <trkpt lat="47.80157" lon="2.12868">
        <ele>119</ele>
        <time>2017-07-30T08:48:23.314Z</time>
      </trkpt>
      <trkpt lat="47.80157" lon="2.12868">
        <ele>119</ele>
        <time>2017-07-30T08:48:24.313Z</time>
      </trkpt>
      <trkpt lat="47.80166" lon="2.12858">
        <ele>119</ele>
        <time>2017-07-30T08:48:25.350Z</time>
      </trkpt>
      <trkpt lat="47.80171" lon="2.12856">
        <ele>119</ele>
        <time>2017-07-30T08:48:26.316Z</time>
      </trkpt>
      <trkpt lat="47.80177" lon="2.12857">
        <ele>118</ele>
        <time>2017-07-30T08:48:27.322Z</time>
      </trkpt>
      <trkpt lat="47.80183" lon="2.12861">
        <ele>118</ele>
        <time>2017-07-30T08:48:28.316Z</time>
      </trkpt>
      <trkpt lat="47.80183" lon="2.12861">
        <ele>118</ele>
        <time>2017-07-30T08:48:29.313Z</time>
      </trkpt>
      <trkpt lat="47.80196" lon="2.12867">
        <ele>117</ele>
        <time>2017-07-30T08:48:30.316Z</time>
      </trkpt>
      <trkpt lat="47.80196" lon="2.12867">
        <ele>117</ele>
        <time>2017-07-30T08:48:31.312Z</time>
      </trkpt>
      <trkpt lat="47.80211" lon="2.12869">
        <ele>116</ele>
        <time>2017-07-30T08:48:32.314Z</time>
      </trkpt>
      <trkpt lat="47.80218" lon="2.12868">
        <ele>115</ele>
        <time>2017-07-30T08:48:33.315Z</time>
      </trkpt>
      <trkpt lat="47.80225" lon="2.12865">
        <ele>114</ele>
        <time>2017-07-30T08:48:34.315Z</time>
      </trkpt>
      <trkpt lat="47.80225" lon="2.12865">
        <ele>114</ele>
        <time>2017-07-30T08:48:35.312Z</time>
      </trkpt>
      <trkpt lat="47.8024" lon="2.12859">
        <ele>114</ele>
        <time>2017-07-30T08:48:36.315Z</time>
      </trkpt>
      <trkpt lat="47.8024" lon="2.12859">
        <ele>114</ele>
        <time>2017-07-30T08:48:37.312Z</time>
      </trkpt>
      <trkpt lat="47.80256" lon="2.12853">
        <ele>113</ele>
        <time>2017-07-30T08:48:38.314Z</time>
      </trkpt>
      <trkpt lat="47.80256" lon="2.12853">
        <ele>113</ele>
        <time>2017-07-30T08:48:39.313Z</time>
      </trkpt>
      <trkpt lat="47.80271" lon="2.12851">
        <ele>112</ele>
        <time>2017-07-30T08:48:40.318Z</time>
      </trkpt>
      <trkpt lat="47.80271" lon="2.12851">
        <ele>112</ele>
        <time>2017-07-30T08:48:41.313Z</time>
      </trkpt>
      <trkpt lat="47.80283" lon="2.12858">
        <ele>112</ele>
        <time>2017-07-30T08:48:42.316Z</time>
      </trkpt>
      <trkpt lat="47.80288" lon="2.12864">
        <ele>112</ele>
        <time>2017-07-30T08:48:43.327Z</time>
      </trkpt>
      <trkpt lat="47.80288" lon="2.12864">
        <ele>112</ele>
        <time>2017-07-30T08:48:44.313Z</time>
      </trkpt>
      <trkpt lat="47.80296" lon="2.12878">
        <ele>112</ele>
        <time>2017-07-30T08:48:45.314Z</time>
      </trkpt>
      <trkpt lat="47.80301" lon="2.12885">
        <ele>112</ele>
        <time>2017-07-30T08:48:46.317Z</time>
      </trkpt>
      <trkpt lat="47.80301" lon="2.12885">
        <ele>112</ele>
        <time>2017-07-30T08:48:47.312Z</time>
      </trkpt>
      <trkpt lat="47.8031" lon="2.12898">
        <ele>111</ele>
        <time>2017-07-30T08:48:48.314Z</time>
      </trkpt>
      <trkpt lat="47.80315" lon="2.12904">
        <ele>112</ele>
        <time>2017-07-30T08:48:49.314Z</time>
      </trkpt>
      <trkpt lat="47.80315" lon="2.12904">
        <ele>112</ele>
        <time>2017-07-30T08:48:50.314Z</time>
      </trkpt>
      <trkpt lat="47.80325" lon="2.12916">
        <ele>112</ele>
        <time>2017-07-30T08:48:51.313Z</time>
      </trkpt>
      <trkpt lat="47.8033" lon="2.1292">
        <ele>111</ele>
        <time>2017-07-30T08:48:52.317Z</time>
      </trkpt>
      <trkpt lat="47.8033" lon="2.1292">
        <ele>111</ele>
        <time>2017-07-30T08:48:53.312Z</time>
      </trkpt>
      <trkpt lat="47.80342" lon="2.12925">
        <ele>111</ele>
        <time>2017-07-30T08:48:54.319Z</time>
      </trkpt>
      <trkpt lat="47.80342" lon="2.12925">
        <ele>111</ele>
        <time>2017-07-30T08:48:55.312Z</time>
      </trkpt>
      <trkpt lat="47.80354" lon="2.12927">
        <ele>111</ele>
        <time>2017-07-30T08:48:56.320Z</time>
      </trkpt>
      <trkpt lat="47.80354" lon="2.12927">
        <ele>111</ele>
        <time>2017-07-30T08:48:57.313Z</time>
      </trkpt>
      <trkpt lat="47.80366" lon="2.1293">
        <ele>110</ele>
        <time>2017-07-30T08:48:58.318Z</time>
      </trkpt>
      <trkpt lat="47.80366" lon="2.1293">
        <ele>110</ele>
        <time>2017-07-30T08:48:59.312Z</time>
      </trkpt>
      <trkpt lat="47.80378" lon="2.12934">
        <ele>110</ele>
        <time>2017-07-30T08:49:00.318Z</time>
      </trkpt>
      <trkpt lat="47.80378" lon="2.12934">
        <ele>110</ele>
        <time>2017-07-30T08:49:01.329Z</time>
      </trkpt>
      <trkpt lat="47.8039" lon="2.12937">
        <ele>109</ele>
        <time>2017-07-30T08:49:02.318Z</time>
      </trkpt>
      <trkpt lat="47.80396" lon="2.12939">
        <ele>109</ele>
        <time>2017-07-30T08:49:03.321Z</time>
      </trkpt>
      <trkpt lat="47.80396" lon="2.12939">
        <ele>109</ele>
        <time>2017-07-30T08:49:04.312Z</time>
      </trkpt>
      <trkpt lat="47.80409" lon="2.12943">
        <ele>108</ele>
        <time>2017-07-30T08:49:05.318Z</time>
      </trkpt>
      <trkpt lat="47.80416" lon="2.12945">
        <ele>108</ele>
        <time>2017-07-30T08:49:06.318Z</time>
      </trkpt>
      <trkpt lat="47.80416" lon="2.12945">
        <ele>108</ele>
        <time>2017-07-30T08:49:07.321Z</time>
      </trkpt>
      <trkpt lat="47.80431" lon="2.12949">
        <ele>107</ele>
        <time>2017-07-30T08:49:08.314Z</time>
      </trkpt>
      <trkpt lat="47.80431" lon="2.12949">
        <ele>107</ele>
        <time>2017-07-30T08:49:09.313Z</time>
      </trkpt>
      <trkpt lat="47.80445" lon="2.12952">
        <ele>106</ele>
        <time>2017-07-30T08:49:10.317Z</time>
      </trkpt>
      <trkpt lat="47.80445" lon="2.12952">
        <ele>106</ele>
        <time>2017-07-30T08:49:11.312Z</time>
      </trkpt>
      <trkpt lat="47.8046" lon="2.12956">
        <ele>106</ele>
        <time>2017-07-30T08:49:12.315Z</time>
      </trkpt>
      <trkpt lat="47.80467" lon="2.12958">
        <ele>106</ele>
        <time>2017-07-30T08:49:13.334Z</time>
      </trkpt>
      <trkpt lat="47.80467" lon="2.12958">
        <ele>106</ele>
        <time>2017-07-30T08:49:14.312Z</time>
      </trkpt>
      <trkpt lat="47.80482" lon="2.12961">
        <ele>105</ele>
        <time>2017-07-30T08:49:15.313Z</time>
      </trkpt>
      <trkpt lat="47.80489" lon="2.12963">
        <ele>105</ele>
        <time>2017-07-30T08:49:16.318Z</time>
      </trkpt>
      <trkpt lat="47.80489" lon="2.12963">
        <ele>105</ele>
        <time>2017-07-30T08:49:17.348Z</time>
      </trkpt>
      <trkpt lat="47.80504" lon="2.12966">
        <ele>105</ele>
        <time>2017-07-30T08:49:18.323Z</time>
      </trkpt>
      <trkpt lat="47.80512" lon="2.12968">
        <ele>105</ele>
        <time>2017-07-30T08:49:19.314Z</time>
      </trkpt>
      <trkpt lat="47.80512" lon="2.12968">
        <ele>105</ele>
        <time>2017-07-30T08:49:20.312Z</time>
      </trkpt>
      <trkpt lat="47.80526" lon="2.12971">
        <ele>103</ele>
        <time>2017-07-30T08:49:21.314Z</time>
      </trkpt>
      <trkpt lat="47.80532" lon="2.12975">
        <ele>103</ele>
        <time>2017-07-30T08:49:22.338Z</time>
      </trkpt>
      <trkpt lat="47.80532" lon="2.12975">
        <ele>103</ele>
        <time>2017-07-30T08:49:23.327Z</time>
      </trkpt>
      <trkpt lat="47.80538" lon="2.1299">
        <ele>103</ele>
        <time>2017-07-30T08:49:24.347Z</time>
      </trkpt>
      <trkpt lat="47.80538" lon="2.1299">
        <ele>103</ele>
        <time>2017-07-30T08:49:25.318Z</time>
      </trkpt>
      <trkpt lat="47.80538" lon="2.13008">
        <ele>102</ele>
        <time>2017-07-30T08:49:26.324Z</time>
      </trkpt>
      <trkpt lat="47.80538" lon="2.13008">
        <ele>102</ele>
        <time>2017-07-30T08:49:27.313Z</time>
      </trkpt>
      <trkpt lat="47.80535" lon="2.13028">
        <ele>102</ele>
        <time>2017-07-30T08:49:28.319Z</time>
      </trkpt>
      <trkpt lat="47.80535" lon="2.13028">
        <ele>102</ele>
        <time>2017-07-30T08:49:29.312Z</time>
      </trkpt>
      <trkpt lat="47.80535" lon="2.13048">
        <ele>101</ele>
        <time>2017-07-30T08:49:30.314Z</time>
      </trkpt>
      <trkpt lat="47.80535" lon="2.13058">
        <ele>101</ele>
        <time>2017-07-30T08:49:31.317Z</time>
      </trkpt>
      <trkpt lat="47.80534" lon="2.13067">
        <ele>101</ele>
        <time>2017-07-30T08:49:32.313Z</time>
      </trkpt>
      <trkpt lat="47.80534" lon="2.13067">
        <ele>101</ele>
        <time>2017-07-30T08:49:33.313Z</time>
      </trkpt>
      <trkpt lat="47.80533" lon="2.13087">
        <ele>101</ele>
        <time>2017-07-30T08:49:34.320Z</time>
      </trkpt>
      <trkpt lat="47.80533" lon="2.13087">
        <ele>101</ele>
        <time>2017-07-30T08:49:35.312Z</time>
      </trkpt>
      <trkpt lat="47.80531" lon="2.13106">
        <ele>100</ele>
        <time>2017-07-30T08:49:36.317Z</time>
      </trkpt>
      <trkpt lat="47.80531" lon="2.13106">
        <ele>100</ele>
        <time>2017-07-30T08:49:37.312Z</time>
      </trkpt>
      <trkpt lat="47.8053" lon="2.13126">
        <ele>100</ele>
        <time>2017-07-30T08:49:38.314Z</time>
      </trkpt>
      <trkpt lat="47.8053" lon="2.13126">
        <ele>100</ele>
        <time>2017-07-30T08:49:39.313Z</time>
      </trkpt>
      <trkpt lat="47.8053" lon="2.13143">
        <ele>101</ele>
        <time>2017-07-30T08:49:40.317Z</time>
      </trkpt>
      <trkpt lat="47.8053" lon="2.13143">
        <ele>101</ele>
        <time>2017-07-30T08:49:41.312Z</time>
      </trkpt>
      <trkpt lat="47.8053" lon="2.13159">
        <ele>101</ele>
        <time>2017-07-30T08:49:42.315Z</time>
      </trkpt>
      <trkpt lat="47.80529" lon="2.13166">
        <ele>101</ele>
        <time>2017-07-30T08:49:43.324Z</time>
      </trkpt>
      <trkpt lat="47.80529" lon="2.13166">
        <ele>101</ele>
        <time>2017-07-30T08:49:44.312Z</time>
      </trkpt>
      <trkpt lat="47.80528" lon="2.13177">
        <ele>101</ele>
        <time>2017-07-30T08:49:45.316Z</time>
      </trkpt>
      <trkpt lat="47.80528" lon="2.13181">
        <ele>101</ele>
        <time>2017-07-30T08:49:46.319Z</time>
      </trkpt>
      <trkpt lat="47.80528" lon="2.13181">
        <ele>101</ele>
        <time>2017-07-30T08:49:47.311Z</time>
      </trkpt>
      <trkpt lat="47.80527" lon="2.13185">
        <ele>101</ele>
        <time>2017-07-30T08:49:48.319Z</time>
      </trkpt>
      <trkpt lat="47.80527" lon="2.13185">
        <ele>101</ele>
        <time>2017-07-30T08:49:49.313Z</time>
      </trkpt>
      <trkpt lat="47.80522" lon="2.13189">
        <ele>102</ele>
        <time>2017-07-30T08:49:50.318Z</time>
      </trkpt>
      <trkpt lat="47.80522" lon="2.13189">
        <ele>102</ele>
        <time>2017-07-30T08:49:51.329Z</time>
      </trkpt>
      <trkpt lat="47.80519" lon="2.13194">
        <ele>103</ele>
        <time>2017-07-30T08:49:52.335Z</time>
      </trkpt>
      <trkpt lat="47.80519" lon="2.13194">
        <ele>103</ele>
        <time>2017-07-30T08:49:53.344Z</time>
      </trkpt>
      <trkpt lat="47.80521" lon="2.13201">
        <ele>104</ele>
        <time>2017-07-30T08:49:54.350Z</time>
      </trkpt>
      <trkpt lat="47.80522" lon="2.13204">
        <ele>104</ele>
        <time>2017-07-30T08:49:55.320Z</time>
      </trkpt>
      <trkpt lat="47.80522" lon="2.13204">
        <ele>104</ele>
        <time>2017-07-30T08:49:56.314Z</time>
      </trkpt>
      <trkpt lat="47.80528" lon="2.13203">
        <ele>105</ele>
        <time>2017-07-30T08:49:57.322Z</time>
      </trkpt>
      <trkpt lat="47.80528" lon="2.13203">
        <ele>105</ele>
        <time>2017-07-30T08:49:58.314Z</time>
      </trkpt>
      <trkpt lat="47.80536" lon="2.13202">
        <ele>105</ele>
        <time>2017-07-30T08:49:59.334Z</time>
      </trkpt>
      <trkpt lat="47.80541" lon="2.13202">
        <ele>106</ele>
        <time>2017-07-30T08:50:00.325Z</time>
      </trkpt>
      <trkpt lat="47.80541" lon="2.13202">
        <ele>106</ele>
        <time>2017-07-30T08:50:01.327Z</time>
      </trkpt>
      <trkpt lat="47.80551" lon="2.132">
        <ele>106</ele>
        <time>2017-07-30T08:50:02.319Z</time>
      </trkpt>
      <trkpt lat="47.80551" lon="2.132">
        <ele>106</ele>
        <time>2017-07-30T08:50:03.313Z</time>
      </trkpt>
      <trkpt lat="47.80562" lon="2.13199">
        <ele>107</ele>
        <time>2017-07-30T08:50:04.317Z</time>
      </trkpt>
      <trkpt lat="47.80562" lon="2.13199">
        <ele>107</ele>
        <time>2017-07-30T08:50:05.312Z</time>
      </trkpt>
      <trkpt lat="47.80572" lon="2.13198">
        <ele>108</ele>
        <time>2017-07-30T08:50:06.318Z</time>
      </trkpt>
      <trkpt lat="47.80572" lon="2.13198">
        <ele>108</ele>
        <time>2017-07-30T08:50:07.313Z</time>
      </trkpt>
      <trkpt lat="47.80581" lon="2.13192">
        <ele>108</ele>
        <time>2017-07-30T08:50:08.315Z</time>
      </trkpt>
      <trkpt lat="47.80581" lon="2.13192">
        <ele>108</ele>
        <time>2017-07-30T08:50:09.313Z</time>
      </trkpt>
      <trkpt lat="47.8059" lon="2.13186">
        <ele>109</ele>
        <time>2017-07-30T08:50:10.319Z</time>
      </trkpt>
      <trkpt lat="47.8059" lon="2.13186">
        <ele>109</ele>
        <time>2017-07-30T08:50:11.322Z</time>
      </trkpt>
      <trkpt lat="47.80599" lon="2.13182">
        <ele>109</ele>
        <time>2017-07-30T08:50:12.315Z</time>
      </trkpt>
      <trkpt lat="47.80602" lon="2.13182">
        <ele>109</ele>
        <time>2017-07-30T08:50:13.320Z</time>
      </trkpt>
      <trkpt lat="47.80602" lon="2.13182">
        <ele>109</ele>
        <time>2017-07-30T08:50:14.312Z</time>
      </trkpt>
      <trkpt lat="47.80606" lon="2.13189">
        <ele>109</ele>
        <time>2017-07-30T08:50:15.314Z</time>
      </trkpt>
      <trkpt lat="47.80606" lon="2.13195">
        <ele>109</ele>
        <time>2017-07-30T08:50:16.317Z</time>
      </trkpt>
      <trkpt lat="47.80606" lon="2.13195">
        <ele>109</ele>
        <time>2017-07-30T08:50:17.311Z</time>
      </trkpt>
      <trkpt lat="47.80603" lon="2.13205">
        <ele>108</ele>
        <time>2017-07-30T08:50:18.316Z</time>
      </trkpt>
      <trkpt lat="47.80602" lon="2.13211">
        <ele>108</ele>
        <time>2017-07-30T08:50:19.316Z</time>
      </trkpt>
      <trkpt lat="47.80602" lon="2.13211">
        <ele>108</ele>
        <time>2017-07-30T08:50:20.313Z</time>
      </trkpt>
      <trkpt lat="47.80601" lon="2.13225">
        <ele>107</ele>
        <time>2017-07-30T08:50:21.340Z</time>
      </trkpt>
      <trkpt lat="47.806" lon="2.13232">
        <ele>107</ele>
        <time>2017-07-30T08:50:22.331Z</time>
      </trkpt>
      <trkpt lat="47.806" lon="2.13232">
        <ele>107</ele>
        <time>2017-07-30T08:50:23.336Z</time>
      </trkpt>
      <trkpt lat="47.80599" lon="2.13246">
        <ele>107</ele>
        <time>2017-07-30T08:50:24.328Z</time>
      </trkpt>
      <trkpt lat="47.80597" lon="2.13255">
        <ele>106</ele>
        <time>2017-07-30T08:50:25.324Z</time>
      </trkpt>
      <trkpt lat="47.80597" lon="2.13255">
        <ele>106</ele>
        <time>2017-07-30T08:50:26.314Z</time>
      </trkpt>
      <trkpt lat="47.80595" lon="2.1327">
        <ele>106</ele>
        <time>2017-07-30T08:50:27.318Z</time>
      </trkpt>
      <trkpt lat="47.80594" lon="2.13279">
        <ele>105</ele>
        <time>2017-07-30T08:50:28.321Z</time>
      </trkpt>
      <trkpt lat="47.80594" lon="2.13279">
        <ele>105</ele>
        <time>2017-07-30T08:50:29.317Z</time>
      </trkpt>
      <trkpt lat="47.80591" lon="2.13296">
        <ele>105</ele>
        <time>2017-07-30T08:50:30.312Z</time>
      </trkpt>
      <trkpt lat="47.80591" lon="2.13304">
        <ele>104</ele>
        <time>2017-07-30T08:50:31.315Z</time>
      </trkpt>
      <trkpt lat="47.80591" lon="2.13304">
        <ele>104</ele>
        <time>2017-07-30T08:50:32.313Z</time>
      </trkpt>
      <trkpt lat="47.80589" lon="2.13318">
        <ele>104</ele>
        <time>2017-07-30T08:50:33.316Z</time>
      </trkpt>
      <trkpt lat="47.80588" lon="2.13325">
        <ele>103</ele>
        <time>2017-07-30T08:50:34.319Z</time>
      </trkpt>
      <trkpt lat="47.80588" lon="2.13325">
        <ele>103</ele>
        <time>2017-07-30T08:50:35.312Z</time>
      </trkpt>
      <trkpt lat="47.80586" lon="2.1334">
        <ele>103</ele>
        <time>2017-07-30T08:50:36.318Z</time>
      </trkpt>
      <trkpt lat="47.80586" lon="2.1334">
        <ele>103</ele>
        <time>2017-07-30T08:50:37.312Z</time>
      </trkpt>
      <trkpt lat="47.80584" lon="2.13355">
        <ele>102</ele>
        <time>2017-07-30T08:50:38.315Z</time>
      </trkpt>
      <trkpt lat="47.80584" lon="2.13355">
        <ele>102</ele>
        <time>2017-07-30T08:50:39.313Z</time>
      </trkpt>
      <trkpt lat="47.80582" lon="2.13369">
        <ele>101</ele>
        <time>2017-07-30T08:50:40.321Z</time>
      </trkpt>
      <trkpt lat="47.80582" lon="2.13369">
        <ele>101</ele>
        <time>2017-07-30T08:50:41.323Z</time>
      </trkpt>
      <trkpt lat="47.80581" lon="2.13382">
        <ele>101</ele>
        <time>2017-07-30T08:50:42.319Z</time>
      </trkpt>
      <trkpt lat="47.80581" lon="2.13382">
        <ele>101</ele>
        <time>2017-07-30T08:50:43.323Z</time>
      </trkpt>
      <trkpt lat="47.80579" lon="2.13397">
        <ele>101</ele>
        <time>2017-07-30T08:50:44.319Z</time>
      </trkpt>
      <trkpt lat="47.80578" lon="2.13403">
        <ele>101</ele>
        <time>2017-07-30T08:50:45.321Z</time>
      </trkpt>
      <trkpt lat="47.80578" lon="2.13403">
        <ele>101</ele>
        <time>2017-07-30T08:50:46.333Z</time>
      </trkpt>
      <trkpt lat="47.80576" lon="2.13417">
        <ele>100</ele>
        <time>2017-07-30T08:50:47.334Z</time>
      </trkpt>
      <trkpt lat="47.80576" lon="2.13417">
        <ele>100</ele>
        <time>2017-07-30T08:50:48.316Z</time>
      </trkpt>
      <trkpt lat="47.80575" lon="2.13429">
        <ele>100</ele>
        <time>2017-07-30T08:50:49.317Z</time>
      </trkpt>
      <trkpt lat="47.80573" lon="2.13436">
        <ele>100</ele>
        <time>2017-07-30T08:50:50.320Z</time>
      </trkpt>
      <trkpt lat="47.80573" lon="2.13436">
        <ele>100</ele>
        <time>2017-07-30T08:50:51.329Z</time>
      </trkpt>
      <trkpt lat="47.80571" lon="2.13449">
        <ele>100</ele>
        <time>2017-07-30T08:50:52.329Z</time>
      </trkpt>
      <trkpt lat="47.80571" lon="2.13449">
        <ele>100</ele>
        <time>2017-07-30T08:50:53.318Z</time>
      </trkpt>
      <trkpt lat="47.80569" lon="2.13463">
        <ele>99</ele>
        <time>2017-07-30T08:50:54.318Z</time>
      </trkpt>
      <trkpt lat="47.80569" lon="2.13463">
        <ele>99</ele>
        <time>2017-07-30T08:50:55.313Z</time>
      </trkpt>
      <trkpt lat="47.80567" lon="2.13475">
        <ele>99</ele>
        <time>2017-07-30T08:50:56.314Z</time>
      </trkpt>
      <trkpt lat="47.80566" lon="2.13482">
        <ele>99</ele>
        <time>2017-07-30T08:50:57.316Z</time>
      </trkpt>
      <trkpt lat="47.80565" lon="2.13488">
        <ele>99</ele>
        <time>2017-07-30T08:50:58.317Z</time>
      </trkpt>
      <trkpt lat="47.80565" lon="2.13488">
        <ele>99</ele>
        <time>2017-07-30T08:50:59.313Z</time>
      </trkpt>
      <trkpt lat="47.80563" lon="2.13501">
        <ele>99</ele>
        <time>2017-07-30T08:51:00.313Z</time>
      </trkpt>
      <trkpt lat="47.80563" lon="2.13501">
        <ele>99</ele>
        <time>2017-07-30T08:51:01.313Z</time>
      </trkpt>
      <trkpt lat="47.80561" lon="2.13514">
        <ele>98</ele>
        <time>2017-07-30T08:51:02.312Z</time>
      </trkpt>
      <trkpt lat="47.80561" lon="2.13514">
        <ele>98</ele>
        <time>2017-07-30T08:51:03.313Z</time>
      </trkpt>
      <trkpt lat="47.80559" lon="2.13527">
        <ele>98</ele>
        <time>2017-07-30T08:51:04.316Z</time>
      </trkpt>
      <trkpt lat="47.80559" lon="2.13527">
        <ele>98</ele>
        <time>2017-07-30T08:51:05.312Z</time>
      </trkpt>
      <trkpt lat="47.80556" lon="2.13542">
        <ele>99</ele>
        <time>2017-07-30T08:51:06.316Z</time>
      </trkpt>
      <trkpt lat="47.80556" lon="2.13542">
        <ele>99</ele>
        <time>2017-07-30T08:51:07.312Z</time>
      </trkpt>
      <trkpt lat="47.80554" lon="2.13555">
        <ele>99</ele>
        <time>2017-07-30T08:51:08.312Z</time>
      </trkpt>
      <trkpt lat="47.80553" lon="2.13561">
        <ele>99</ele>
        <time>2017-07-30T08:51:09.314Z</time>
      </trkpt>
      <trkpt lat="47.80552" lon="2.13568">
        <ele>98</ele>
        <time>2017-07-30T08:51:10.317Z</time>
      </trkpt>
      <trkpt lat="47.80552" lon="2.13568">
        <ele>98</ele>
        <time>2017-07-30T08:51:11.313Z</time>
      </trkpt>
      <trkpt lat="47.8055" lon="2.13581">
        <ele>98</ele>
        <time>2017-07-30T08:51:12.316Z</time>
      </trkpt>
      <trkpt lat="47.8055" lon="2.13588">
        <ele>98</ele>
        <time>2017-07-30T08:51:13.314Z</time>
      </trkpt>
      <trkpt lat="47.80549" lon="2.13594">
        <ele>98</ele>
        <time>2017-07-30T08:51:14.317Z</time>
      </trkpt>
      <trkpt lat="47.80549" lon="2.13594">
        <ele>98</ele>
        <time>2017-07-30T08:51:15.313Z</time>
      </trkpt>
      <trkpt lat="47.80546" lon="2.13608">
        <ele>98</ele>
        <time>2017-07-30T08:51:16.347Z</time>
      </trkpt>
      <trkpt lat="47.80546" lon="2.13608">
        <ele>98</ele>
        <time>2017-07-30T08:51:17.312Z</time>
      </trkpt>
      <trkpt lat="47.80545" lon="2.13622">
        <ele>98</ele>
        <time>2017-07-30T08:51:18.316Z</time>
      </trkpt>
      <trkpt lat="47.80544" lon="2.13629">
        <ele>97</ele>
        <time>2017-07-30T08:51:19.315Z</time>
      </trkpt>
      <trkpt lat="47.80544" lon="2.13629">
        <ele>97</ele>
        <time>2017-07-30T08:51:20.312Z</time>
      </trkpt>
      <trkpt lat="47.80542" lon="2.13643">
        <ele>97</ele>
        <time>2017-07-30T08:51:21.336Z</time>
      </trkpt>
      <trkpt lat="47.80542" lon="2.13643">
        <ele>97</ele>
        <time>2017-07-30T08:51:22.325Z</time>
      </trkpt>
      <trkpt lat="47.8054" lon="2.13656">
        <ele>97</ele>
        <time>2017-07-30T08:51:23.317Z</time>
      </trkpt>
      <trkpt lat="47.8054" lon="2.13656">
        <ele>97</ele>
        <time>2017-07-30T08:51:24.333Z</time>
      </trkpt>
      <trkpt lat="47.80538" lon="2.13669">
        <ele>98</ele>
        <time>2017-07-30T08:51:25.314Z</time>
      </trkpt>
      <trkpt lat="47.80538" lon="2.13669">
        <ele>98</ele>
        <time>2017-07-30T08:51:26.312Z</time>
      </trkpt>
      <trkpt lat="47.80536" lon="2.13682">
        <ele>98</ele>
        <time>2017-07-30T08:51:27.314Z</time>
      </trkpt>
      <trkpt lat="47.80536" lon="2.13682">
        <ele>98</ele>
        <time>2017-07-30T08:51:28.315Z</time>
      </trkpt>
      <trkpt lat="47.80535" lon="2.13695">
        <ele>98</ele>
        <time>2017-07-30T08:51:29.316Z</time>
      </trkpt>
      <trkpt lat="47.80534" lon="2.13702">
        <ele>98</ele>
        <time>2017-07-30T08:51:30.319Z</time>
      </trkpt>
      <trkpt lat="47.80534" lon="2.13702">
        <ele>98</ele>
        <time>2017-07-30T08:51:31.313Z</time>
      </trkpt>
      <trkpt lat="47.80533" lon="2.13716">
        <ele>98</ele>
        <time>2017-07-30T08:51:32.321Z</time>
      </trkpt>
      <trkpt lat="47.80533" lon="2.13716">
        <ele>98</ele>
        <time>2017-07-30T08:51:33.312Z</time>
      </trkpt>
      <trkpt lat="47.80532" lon="2.13728">
        <ele>99</ele>
        <time>2017-07-30T08:51:34.322Z</time>
      </trkpt>
      <trkpt lat="47.80532" lon="2.13728">
        <ele>99</ele>
        <time>2017-07-30T08:51:35.313Z</time>
      </trkpt>
      <trkpt lat="47.80532" lon="2.13742">
        <ele>99</ele>
        <time>2017-07-30T08:51:36.318Z</time>
      </trkpt>
      <trkpt lat="47.80532" lon="2.13742">
        <ele>99</ele>
        <time>2017-07-30T08:51:37.349Z</time>
      </trkpt>
      <trkpt lat="47.80531" lon="2.13755">
        <ele>99</ele>
        <time>2017-07-30T08:51:38.317Z</time>
      </trkpt>
      <trkpt lat="47.8053" lon="2.13762">
        <ele>100</ele>
        <time>2017-07-30T08:51:39.320Z</time>
      </trkpt>
      <trkpt lat="47.8053" lon="2.13762">
        <ele>100</ele>
        <time>2017-07-30T08:51:40.314Z</time>
      </trkpt>
      <trkpt lat="47.8053" lon="2.13775">
        <ele>100</ele>
        <time>2017-07-30T08:51:41.320Z</time>
      </trkpt>
      <trkpt lat="47.8053" lon="2.13775">
        <ele>100</ele>
        <time>2017-07-30T08:51:42.316Z</time>
      </trkpt>
      <trkpt lat="47.80529" lon="2.13788">
        <ele>100</ele>
        <time>2017-07-30T08:51:43.323Z</time>
      </trkpt>
      <trkpt lat="47.80528" lon="2.13794">
        <ele>100</ele>
        <time>2017-07-30T08:51:44.318Z</time>
      </trkpt>
      <trkpt lat="47.80528" lon="2.13794">
        <ele>100</ele>
        <time>2017-07-30T08:51:45.314Z</time>
      </trkpt>
      <trkpt lat="47.80527" lon="2.13807">
        <ele>100</ele>
        <time>2017-07-30T08:51:46.317Z</time>
      </trkpt>
      <trkpt lat="47.80526" lon="2.13815">
        <ele>101</ele>
        <time>2017-07-30T08:51:47.313Z</time>
      </trkpt>
      <trkpt lat="47.80525" lon="2.13822">
        <ele>101</ele>
        <time>2017-07-30T08:51:48.316Z</time>
      </trkpt>
      <trkpt lat="47.80525" lon="2.13822">
        <ele>101</ele>
        <time>2017-07-30T08:51:49.312Z</time>
      </trkpt>
      <trkpt lat="47.80525" lon="2.13835">
        <ele>102</ele>
        <time>2017-07-30T08:51:50.316Z</time>
      </trkpt>
      <trkpt lat="47.80524" lon="2.13842">
        <ele>101</ele>
        <time>2017-07-30T08:51:51.333Z</time>
      </trkpt>
      <trkpt lat="47.80524" lon="2.13842">
        <ele>101</ele>
        <time>2017-07-30T08:51:52.322Z</time>
      </trkpt>
      <trkpt lat="47.80523" lon="2.13856">
        <ele>101</ele>
        <time>2017-07-30T08:51:53.314Z</time>
      </trkpt>
      <trkpt lat="47.80523" lon="2.13863">
        <ele>101</ele>
        <time>2017-07-30T08:51:54.313Z</time>
      </trkpt>
      <trkpt lat="47.80523" lon="2.13863">
        <ele>101</ele>
        <time>2017-07-30T08:51:55.313Z</time>
      </trkpt>
      <trkpt lat="47.80524" lon="2.13876">
        <ele>102</ele>
        <time>2017-07-30T08:51:56.314Z</time>
      </trkpt>
      <trkpt lat="47.80524" lon="2.13876">
        <ele>102</ele>
        <time>2017-07-30T08:51:57.314Z</time>
      </trkpt>
      <trkpt lat="47.80524" lon="2.13889">
        <ele>102</ele>
        <time>2017-07-30T08:51:58.316Z</time>
      </trkpt>
      <trkpt lat="47.80524" lon="2.13889">
        <ele>102</ele>
        <time>2017-07-30T08:51:59.313Z</time>
      </trkpt>
      <trkpt lat="47.80523" lon="2.13902">
        <ele>102</ele>
        <time>2017-07-30T08:52:00.316Z</time>
      </trkpt>
      <trkpt lat="47.80523" lon="2.13902">
        <ele>102</ele>
        <time>2017-07-30T08:52:01.312Z</time>
      </trkpt>
      <trkpt lat="47.80523" lon="2.13917">
        <ele>102</ele>
        <time>2017-07-30T08:52:02.312Z</time>
      </trkpt>
      <trkpt lat="47.80523" lon="2.13924">
        <ele>102</ele>
        <time>2017-07-30T08:52:03.314Z</time>
      </trkpt>
      <trkpt lat="47.80524" lon="2.13931">
        <ele>102</ele>
        <time>2017-07-30T08:52:04.320Z</time>
      </trkpt>
      <trkpt lat="47.80524" lon="2.13931">
        <ele>102</ele>
        <time>2017-07-30T08:52:05.312Z</time>
      </trkpt>
      <trkpt lat="47.80525" lon="2.13945">
        <ele>102</ele>
        <time>2017-07-30T08:52:06.317Z</time>
      </trkpt>
      <trkpt lat="47.80525" lon="2.13945">
        <ele>102</ele>
        <time>2017-07-30T08:52:07.313Z</time>
      </trkpt>
      <trkpt lat="47.80525" lon="2.1396">
        <ele>102</ele>
        <time>2017-07-30T08:52:08.314Z</time>
      </trkpt>
      <trkpt lat="47.80525" lon="2.1396">
        <ele>102</ele>
        <time>2017-07-30T08:52:09.314Z</time>
      </trkpt>
      <trkpt lat="47.80526" lon="2.13975">
        <ele>102</ele>
        <time>2017-07-30T08:52:10.317Z</time>
      </trkpt>
      <trkpt lat="47.80526" lon="2.13975">
        <ele>102</ele>
        <time>2017-07-30T08:52:11.313Z</time>
      </trkpt>
      <trkpt lat="47.80528" lon="2.1399">
        <ele>102</ele>
        <time>2017-07-30T08:52:12.317Z</time>
      </trkpt>
      <trkpt lat="47.80528" lon="2.13997">
        <ele>102</ele>
        <time>2017-07-30T08:52:13.314Z</time>
      </trkpt>
      <trkpt lat="47.80528" lon="2.13997">
        <ele>102</ele>
        <time>2017-07-30T08:52:14.312Z</time>
      </trkpt>
      <trkpt lat="47.80529" lon="2.14011">
        <ele>103</ele>
        <time>2017-07-30T08:52:15.318Z</time>
      </trkpt>
      <trkpt lat="47.8053" lon="2.14019">
        <ele>103</ele>
        <time>2017-07-30T08:52:16.338Z</time>
      </trkpt>
      <trkpt lat="47.8053" lon="2.14019">
        <ele>103</ele>
        <time>2017-07-30T08:52:17.326Z</time>
      </trkpt>
      <trkpt lat="47.80531" lon="2.14034">
        <ele>103</ele>
        <time>2017-07-30T08:52:18.330Z</time>
      </trkpt>
      <trkpt lat="47.80531" lon="2.14041">
        <ele>103</ele>
        <time>2017-07-30T08:52:19.319Z</time>
      </trkpt>
      <trkpt lat="47.80531" lon="2.14041">
        <ele>103</ele>
        <time>2017-07-30T08:52:20.316Z</time>
      </trkpt>
      <trkpt lat="47.80532" lon="2.14056">
        <ele>104</ele>
        <time>2017-07-30T08:52:21.335Z</time>
      </trkpt>
      <trkpt lat="47.80533" lon="2.14064">
        <ele>104</ele>
        <time>2017-07-30T08:52:22.325Z</time>
      </trkpt>
      <trkpt lat="47.80533" lon="2.14064">
        <ele>104</ele>
        <time>2017-07-30T08:52:23.314Z</time>
      </trkpt>
      <trkpt lat="47.80534" lon="2.14078">
        <ele>104</ele>
        <time>2017-07-30T08:52:24.335Z</time>
      </trkpt>
      <trkpt lat="47.80534" lon="2.14085">
        <ele>104</ele>
        <time>2017-07-30T08:52:25.346Z</time>
      </trkpt>
      <trkpt lat="47.80534" lon="2.14085">
        <ele>104</ele>
        <time>2017-07-30T08:52:26.312Z</time>
      </trkpt>
      <trkpt lat="47.80535" lon="2.14101">
        <ele>104</ele>
        <time>2017-07-30T08:52:27.318Z</time>
      </trkpt>
      <trkpt lat="47.80535" lon="2.14109">
        <ele>104</ele>
        <time>2017-07-30T08:52:28.322Z</time>
      </trkpt>
      <trkpt lat="47.80535" lon="2.14109">
        <ele>104</ele>
        <time>2017-07-30T08:52:29.313Z</time>
      </trkpt>
      <trkpt lat="47.80536" lon="2.14125">
        <ele>104</ele>
        <time>2017-07-30T08:52:30.316Z</time>
      </trkpt>
      <trkpt lat="47.80536" lon="2.14125">
        <ele>104</ele>
        <time>2017-07-30T08:52:31.313Z</time>
      </trkpt>
      <trkpt lat="47.80537" lon="2.1414">
        <ele>104</ele>
        <time>2017-07-30T08:52:32.328Z</time>
      </trkpt>
      <trkpt lat="47.80537" lon="2.1414">
        <ele>104</ele>
        <time>2017-07-30T08:52:33.317Z</time>
      </trkpt>
      <trkpt lat="47.80539" lon="2.14157">
        <ele>104</ele>
        <time>2017-07-30T08:52:34.316Z</time>
      </trkpt>
      <trkpt lat="47.80539" lon="2.14157">
        <ele>104</ele>
        <time>2017-07-30T08:52:35.313Z</time>
      </trkpt>
      <trkpt lat="47.80541" lon="2.14173">
        <ele>103</ele>
        <time>2017-07-30T08:52:36.315Z</time>
      </trkpt>
      <trkpt lat="47.80541" lon="2.14182">
        <ele>103</ele>
        <time>2017-07-30T08:52:37.317Z</time>
      </trkpt>
      <trkpt lat="47.80541" lon="2.14182">
        <ele>103</ele>
        <time>2017-07-30T08:52:38.312Z</time>
      </trkpt>
      <trkpt lat="47.80542" lon="2.14199">
        <ele>104</ele>
        <time>2017-07-30T08:52:39.313Z</time>
      </trkpt>
      <trkpt lat="47.80543" lon="2.14207">
        <ele>104</ele>
        <time>2017-07-30T08:52:40.317Z</time>
      </trkpt>
      <trkpt lat="47.80543" lon="2.14207">
        <ele>104</ele>
        <time>2017-07-30T08:52:41.312Z</time>
      </trkpt>
      <trkpt lat="47.80544" lon="2.14224">
        <ele>104</ele>
        <time>2017-07-30T08:52:42.312Z</time>
      </trkpt>
      <trkpt lat="47.80544" lon="2.14224">
        <ele>104</ele>
        <time>2017-07-30T08:52:43.330Z</time>
      </trkpt>
      <trkpt lat="47.80545" lon="2.14241">
        <ele>104</ele>
        <time>2017-07-30T08:52:44.327Z</time>
      </trkpt>
      <trkpt lat="47.80545" lon="2.14241">
        <ele>104</ele>
        <time>2017-07-30T08:52:45.316Z</time>
      </trkpt>
      <trkpt lat="47.80546" lon="2.14257">
        <ele>104</ele>
        <time>2017-07-30T08:52:46.318Z</time>
      </trkpt>
      <trkpt lat="47.80547" lon="2.14265">
        <ele>104</ele>
        <time>2017-07-30T08:52:47.338Z</time>
      </trkpt>
      <trkpt lat="47.80547" lon="2.14265">
        <ele>104</ele>
        <time>2017-07-30T08:52:48.344Z</time>
      </trkpt>
      <trkpt lat="47.80548" lon="2.14279">
        <ele>105</ele>
        <time>2017-07-30T08:52:49.312Z</time>
      </trkpt>
      <trkpt lat="47.80548" lon="2.14279">
        <ele>105</ele>
        <time>2017-07-30T08:52:50.318Z</time>
      </trkpt>
      <trkpt lat="47.80549" lon="2.14292">
        <ele>106</ele>
        <time>2017-07-30T08:52:51.331Z</time>
      </trkpt>
      <trkpt lat="47.80548" lon="2.14298">
        <ele>106</ele>
        <time>2017-07-30T08:52:52.324Z</time>
      </trkpt>
      <trkpt lat="47.80548" lon="2.14298">
        <ele>106</ele>
        <time>2017-07-30T08:52:53.312Z</time>
      </trkpt>
      <trkpt lat="47.80543" lon="2.14302">
        <ele>106</ele>
        <time>2017-07-30T08:52:54.316Z</time>
      </trkpt>
      <trkpt lat="47.80543" lon="2.14302">
        <ele>106</ele>
        <time>2017-07-30T08:52:55.312Z</time>
      </trkpt>
      <trkpt lat="47.80538" lon="2.14298">
        <ele>106</ele>
        <time>2017-07-30T08:52:56.334Z</time>
      </trkpt>
      <trkpt lat="47.80538" lon="2.14298">
        <ele>106</ele>
        <time>2017-07-30T08:52:57.322Z</time>
      </trkpt>
      <trkpt lat="47.80532" lon="2.14289">
        <ele>106</ele>
        <time>2017-07-30T08:52:58.322Z</time>
      </trkpt>
      <trkpt lat="47.80532" lon="2.14289">
        <ele>106</ele>
        <time>2017-07-30T08:52:59.312Z</time>
      </trkpt>
      <trkpt lat="47.80525" lon="2.14279">
        <ele>106</ele>
        <time>2017-07-30T08:53:00.320Z</time>
      </trkpt>
      <trkpt lat="47.8052" lon="2.14275">
        <ele>106</ele>
        <time>2017-07-30T08:53:01.332Z</time>
      </trkpt>
      <trkpt lat="47.8052" lon="2.14275">
        <ele>106</ele>
        <time>2017-07-30T08:53:02.321Z</time>
      </trkpt>
      <trkpt lat="47.80511" lon="2.14266">
        <ele>106</ele>
        <time>2017-07-30T08:53:03.321Z</time>
      </trkpt>
      <trkpt lat="47.80511" lon="2.14266">
        <ele>106</ele>
        <time>2017-07-30T08:53:04.317Z</time>
      </trkpt>
      <trkpt lat="47.80502" lon="2.14256">
        <ele>105</ele>
        <time>2017-07-30T08:53:05.318Z</time>
      </trkpt>
      <trkpt lat="47.80497" lon="2.14251">
        <ele>105</ele>
        <time>2017-07-30T08:53:06.334Z</time>
      </trkpt>
      <trkpt lat="47.80497" lon="2.14251">
        <ele>105</ele>
        <time>2017-07-30T08:53:07.322Z</time>
      </trkpt>
      <trkpt lat="47.80487" lon="2.14242">
        <ele>105</ele>
        <time>2017-07-30T08:53:08.343Z</time>
      </trkpt>
      <trkpt lat="47.80487" lon="2.14242">
        <ele>105</ele>
        <time>2017-07-30T08:53:09.319Z</time>
      </trkpt>
      <trkpt lat="47.80477" lon="2.14233">
        <ele>105</ele>
        <time>2017-07-30T08:53:10.347Z</time>
      </trkpt>
      <trkpt lat="47.80472" lon="2.14228">
        <ele>105</ele>
        <time>2017-07-30T08:53:11.329Z</time>
      </trkpt>
      <trkpt lat="47.80468" lon="2.14223">
        <ele>105</ele>
        <time>2017-07-30T08:53:12.319Z</time>
      </trkpt>
      <trkpt lat="47.80468" lon="2.14223">
        <ele>105</ele>
        <time>2017-07-30T08:53:13.324Z</time>
      </trkpt>
      <trkpt lat="47.80458" lon="2.14213">
        <ele>105</ele>
        <time>2017-07-30T08:53:14.318Z</time>
      </trkpt>
      <trkpt lat="47.80458" lon="2.14213">
        <ele>105</ele>
        <time>2017-07-30T08:53:15.314Z</time>
      </trkpt>
      <trkpt lat="47.80448" lon="2.14203">
        <ele>105</ele>
        <time>2017-07-30T08:53:16.317Z</time>
      </trkpt>
      <trkpt lat="47.80448" lon="2.14203">
        <ele>105</ele>
        <time>2017-07-30T08:53:17.313Z</time>
      </trkpt>
      <trkpt lat="47.80438" lon="2.14193">
        <ele>105</ele>
        <time>2017-07-30T08:53:18.316Z</time>
      </trkpt>
      <trkpt lat="47.80438" lon="2.14193">
        <ele>105</ele>
        <time>2017-07-30T08:53:19.346Z</time>
      </trkpt>
      <trkpt lat="47.80427" lon="2.14184">
        <ele>104</ele>
        <time>2017-07-30T08:53:20.342Z</time>
      </trkpt>
      <trkpt lat="47.80423" lon="2.1418">
        <ele>104</ele>
        <time>2017-07-30T08:53:21.332Z</time>
      </trkpt>
      <trkpt lat="47.80419" lon="2.14175">
        <ele>104</ele>
        <time>2017-07-30T08:53:22.329Z</time>
      </trkpt>
      <trkpt lat="47.80419" lon="2.14175">
        <ele>104</ele>
        <time>2017-07-30T08:53:23.317Z</time>
      </trkpt>
      <trkpt lat="47.8041" lon="2.14165">
        <ele>103</ele>
        <time>2017-07-30T08:53:24.314Z</time>
      </trkpt>
      <trkpt lat="47.80406" lon="2.14159">
        <ele>104</ele>
        <time>2017-07-30T08:53:25.322Z</time>
      </trkpt>
      <trkpt lat="47.80406" lon="2.14159">
        <ele>104</ele>
        <time>2017-07-30T08:53:26.329Z</time>
      </trkpt>
      <trkpt lat="47.80397" lon="2.14149">
        <ele>104</ele>
        <time>2017-07-30T08:53:27.335Z</time>
      </trkpt>
      <trkpt lat="47.80392" lon="2.14144">
        <ele>104</ele>
        <time>2017-07-30T08:53:28.325Z</time>
      </trkpt>
      <trkpt lat="47.80392" lon="2.14144">
        <ele>104</ele>
        <time>2017-07-30T08:53:29.335Z</time>
      </trkpt>
      <trkpt lat="47.80381" lon="2.14136">
        <ele>104</ele>
        <time>2017-07-30T08:53:30.326Z</time>
      </trkpt>
      <trkpt lat="47.80376" lon="2.14131">
        <ele>104</ele>
        <time>2017-07-30T08:53:31.316Z</time>
      </trkpt>
      <trkpt lat="47.80376" lon="2.14131">
        <ele>104</ele>
        <time>2017-07-30T08:53:32.313Z</time>
      </trkpt>
      <trkpt lat="47.80365" lon="2.14124">
        <ele>104</ele>
        <time>2017-07-30T08:53:33.316Z</time>
      </trkpt>
      <trkpt lat="47.80359" lon="2.1412">
        <ele>104</ele>
        <time>2017-07-30T08:53:34.314Z</time>
      </trkpt>
      <trkpt lat="47.80359" lon="2.1412">
        <ele>104</ele>
        <time>2017-07-30T08:53:35.313Z</time>
      </trkpt>
      <trkpt lat="47.80348" lon="2.14112">
        <ele>105</ele>
        <time>2017-07-30T08:53:36.317Z</time>
      </trkpt>
      <trkpt lat="47.80348" lon="2.14112">
        <ele>105</ele>
        <time>2017-07-30T08:53:37.313Z</time>
      </trkpt>
      <trkpt lat="47.80338" lon="2.14104">
        <ele>106</ele>
        <time>2017-07-30T08:53:38.317Z</time>
      </trkpt>
      <trkpt lat="47.80338" lon="2.14104">
        <ele>106</ele>
        <time>2017-07-30T08:53:39.314Z</time>
      </trkpt>
      <trkpt lat="47.80329" lon="2.14097">
        <ele>107</ele>
        <time>2017-07-30T08:53:40.318Z</time>
      </trkpt>
      <trkpt lat="47.80329" lon="2.14097">
        <ele>107</ele>
        <time>2017-07-30T08:53:41.333Z</time>
      </trkpt>
      <trkpt lat="47.80319" lon="2.14091">
        <ele>107</ele>
        <time>2017-07-30T08:53:42.317Z</time>
      </trkpt>
      <trkpt lat="47.80319" lon="2.14091">
        <ele>107</ele>
        <time>2017-07-30T08:53:43.326Z</time>
      </trkpt>
      <trkpt lat="47.80309" lon="2.14083">
        <ele>107</ele>
        <time>2017-07-30T08:53:44.317Z</time>
      </trkpt>
      <trkpt lat="47.80309" lon="2.14083">
        <ele>107</ele>
        <time>2017-07-30T08:53:45.314Z</time>
      </trkpt>
      <trkpt lat="47.80299" lon="2.14076">
        <ele>107</ele>
        <time>2017-07-30T08:53:46.317Z</time>
      </trkpt>
      <trkpt lat="47.80294" lon="2.14074">
        <ele>107</ele>
        <time>2017-07-30T08:53:47.320Z</time>
      </trkpt>
      <trkpt lat="47.80289" lon="2.14071">
        <ele>106</ele>
        <time>2017-07-30T08:53:48.330Z</time>
      </trkpt>
      <trkpt lat="47.80289" lon="2.14071">
        <ele>106</ele>
        <time>2017-07-30T08:53:49.323Z</time>
      </trkpt>
      <trkpt lat="47.80279" lon="2.14065">
        <ele>106</ele>
        <time>2017-07-30T08:53:50.318Z</time>
      </trkpt>
      <trkpt lat="47.80274" lon="2.14063">
        <ele>107</ele>
        <time>2017-07-30T08:53:51.333Z</time>
      </trkpt>
      <trkpt lat="47.80274" lon="2.14063">
        <ele>107</ele>
        <time>2017-07-30T08:53:52.322Z</time>
      </trkpt>
      <trkpt lat="47.80266" lon="2.14066">
        <ele>106</ele>
        <time>2017-07-30T08:53:53.319Z</time>
      </trkpt>
      <trkpt lat="47.80266" lon="2.14066">
        <ele>106</ele>
        <time>2017-07-30T08:53:54.313Z</time>
      </trkpt>
      <trkpt lat="47.80263" lon="2.14079">
        <ele>106</ele>
        <time>2017-07-30T08:53:55.318Z</time>
      </trkpt>
      <trkpt lat="47.80263" lon="2.14079">
        <ele>106</ele>
        <time>2017-07-30T08:53:56.319Z</time>
      </trkpt>
      <trkpt lat="47.80259" lon="2.14093">
        <ele>106</ele>
        <time>2017-07-30T08:53:57.322Z</time>
      </trkpt>
      <trkpt lat="47.80259" lon="2.14093">
        <ele>106</ele>
        <time>2017-07-30T08:53:58.314Z</time>
      </trkpt>
      <trkpt lat="47.80253" lon="2.14108">
        <ele>106</ele>
        <time>2017-07-30T08:53:59.321Z</time>
      </trkpt>
      <trkpt lat="47.80251" lon="2.14115">
        <ele>105</ele>
        <time>2017-07-30T08:54:00.318Z</time>
      </trkpt>
      <trkpt lat="47.80251" lon="2.14115">
        <ele>105</ele>
        <time>2017-07-30T08:54:01.313Z</time>
      </trkpt>
      <trkpt lat="47.80247" lon="2.14132">
        <ele>105</ele>
        <time>2017-07-30T08:54:02.313Z</time>
      </trkpt>
      <trkpt lat="47.80247" lon="2.14132">
        <ele>105</ele>
        <time>2017-07-30T08:54:03.314Z</time>
      </trkpt>
      <trkpt lat="47.80244" lon="2.1415">
        <ele>105</ele>
        <time>2017-07-30T08:54:04.316Z</time>
      </trkpt>
      <trkpt lat="47.80244" lon="2.1415">
        <ele>105</ele>
        <time>2017-07-30T08:54:05.313Z</time>
      </trkpt>
      <trkpt lat="47.80243" lon="2.14169">
        <ele>106</ele>
        <time>2017-07-30T08:54:06.316Z</time>
      </trkpt>
      <trkpt lat="47.80243" lon="2.14169">
        <ele>106</ele>
        <time>2017-07-30T08:54:07.313Z</time>
      </trkpt>
      <trkpt lat="47.80244" lon="2.14187">
        <ele>106</ele>
        <time>2017-07-30T08:54:08.317Z</time>
      </trkpt>
      <trkpt lat="47.80244" lon="2.14187">
        <ele>106</ele>
        <time>2017-07-30T08:54:09.313Z</time>
      </trkpt>
      <trkpt lat="47.80247" lon="2.14204">
        <ele>106</ele>
        <time>2017-07-30T08:54:10.317Z</time>
      </trkpt>
      <trkpt lat="47.80247" lon="2.14204">
        <ele>106</ele>
        <time>2017-07-30T08:54:11.314Z</time>
      </trkpt>
      <trkpt lat="47.80247" lon="2.14221">
        <ele>106</ele>
        <time>2017-07-30T08:54:12.317Z</time>
      </trkpt>
      <trkpt lat="47.80246" lon="2.14229">
        <ele>106</ele>
        <time>2017-07-30T08:54:13.316Z</time>
      </trkpt>
      <trkpt lat="47.80246" lon="2.14229">
        <ele>106</ele>
        <time>2017-07-30T08:54:14.313Z</time>
      </trkpt>
      <trkpt lat="47.80238" lon="2.1424">
        <ele>107</ele>
        <time>2017-07-30T08:54:15.316Z</time>
      </trkpt>
      <trkpt lat="47.80234" lon="2.14243">
        <ele>107</ele>
        <time>2017-07-30T08:54:16.317Z</time>
      </trkpt>
      <trkpt lat="47.80234" lon="2.14243">
        <ele>107</ele>
        <time>2017-07-30T08:54:17.313Z</time>
      </trkpt>
      <trkpt lat="47.80223" lon="2.14244">
        <ele>107</ele>
        <time>2017-07-30T08:54:18.317Z</time>
      </trkpt>
      <trkpt lat="47.80223" lon="2.14244">
        <ele>107</ele>
        <time>2017-07-30T08:54:19.316Z</time>
      </trkpt>
      <trkpt lat="47.80213" lon="2.14242">
        <ele>107</ele>
        <time>2017-07-30T08:54:20.317Z</time>
      </trkpt>
      <trkpt lat="47.80208" lon="2.14241">
        <ele>106</ele>
        <time>2017-07-30T08:54:21.318Z</time>
      </trkpt>
      <trkpt lat="47.80208" lon="2.14241">
        <ele>106</ele>
        <time>2017-07-30T08:54:22.313Z</time>
      </trkpt>
      <trkpt lat="47.802" lon="2.14242">
        <ele>106</ele>
        <time>2017-07-30T08:54:23.330Z</time>
      </trkpt>
      <trkpt lat="47.802" lon="2.14242">
        <ele>106</ele>
        <time>2017-07-30T08:54:24.317Z</time>
      </trkpt>
      <trkpt lat="47.80194" lon="2.14242">
        <ele>106</ele>
        <time>2017-07-30T08:54:25.314Z</time>
      </trkpt>
      <trkpt lat="47.80193" lon="2.14242">
        <ele>106</ele>
        <time>2017-07-30T08:54:26.319Z</time>
      </trkpt>
      <trkpt lat="47.80193" lon="2.14242">
        <ele>106</ele>
        <time>2017-07-30T08:54:27.314Z</time>
      </trkpt>
      <trkpt lat="47.80192" lon="2.14241">
        <ele>105</ele>
        <time>2017-07-30T08:54:28.318Z</time>
      </trkpt>
      <trkpt lat="47.80192" lon="2.14241">
        <ele>105</ele>
        <time>2017-07-30T08:54:29.322Z</time>
      </trkpt>
      <trkpt lat="47.80192" lon="2.14241">
        <ele>105</ele>
        <time>2017-07-30T08:54:30.313Z</time>
      </trkpt>
      <trkpt lat="47.80192" lon="2.14241">
        <ele>105</ele>
        <time>2017-07-30T08:54:31.318Z</time>
      </trkpt>
      <trkpt lat="47.80181" lon="2.14231">
        <ele>106</ele>
        <time>2017-07-30T08:54:32.316Z</time>
      </trkpt>
      <trkpt lat="47.80178" lon="2.14227">
        <ele>106</ele>
        <time>2017-07-30T08:54:33.321Z</time>
      </trkpt>
      <trkpt lat="47.80178" lon="2.14227">
        <ele>106</ele>
        <time>2017-07-30T08:54:34.317Z</time>
      </trkpt>
      <trkpt lat="47.80169" lon="2.14226">
        <ele>105</ele>
        <time>2017-07-30T08:54:35.314Z</time>
      </trkpt>
      <trkpt lat="47.80163" lon="2.14227">
        <ele>105</ele>
        <time>2017-07-30T08:54:36.322Z</time>
      </trkpt>
      <trkpt lat="47.80163" lon="2.14227">
        <ele>105</ele>
        <time>2017-07-30T08:54:37.350Z</time>
      </trkpt>
      <trkpt lat="47.80153" lon="2.14229">
        <ele>105</ele>
        <time>2017-07-30T08:54:38.326Z</time>
      </trkpt>
      <trkpt lat="47.80147" lon="2.1423">
        <ele>104</ele>
        <time>2017-07-30T08:54:39.315Z</time>
      </trkpt>
      <trkpt lat="47.80147" lon="2.1423">
        <ele>104</ele>
        <time>2017-07-30T08:54:40.324Z</time>
      </trkpt>
      <trkpt lat="47.80136" lon="2.14232">
        <ele>105</ele>
        <time>2017-07-30T08:54:41.315Z</time>
      </trkpt>
      <trkpt lat="47.80131" lon="2.14233">
        <ele>104</ele>
        <time>2017-07-30T08:54:42.316Z</time>
      </trkpt>
      <trkpt lat="47.80131" lon="2.14233">
        <ele>104</ele>
        <time>2017-07-30T08:54:43.349Z</time>
      </trkpt>
      <trkpt lat="47.80121" lon="2.14234">
        <ele>104</ele>
        <time>2017-07-30T08:54:44.315Z</time>
      </trkpt>
      <trkpt lat="47.80115" lon="2.14235">
        <ele>104</ele>
        <time>2017-07-30T08:54:45.322Z</time>
      </trkpt>
      <trkpt lat="47.80115" lon="2.14235">
        <ele>104</ele>
        <time>2017-07-30T08:54:46.317Z</time>
      </trkpt>
      <trkpt lat="47.80105" lon="2.14237">
        <ele>104</ele>
        <time>2017-07-30T08:54:47.315Z</time>
      </trkpt>
      <trkpt lat="47.80105" lon="2.14237">
        <ele>104</ele>
        <time>2017-07-30T08:54:48.323Z</time>
      </trkpt>
      <trkpt lat="47.80095" lon="2.14239">
        <ele>105</ele>
        <time>2017-07-30T08:54:49.314Z</time>
      </trkpt>
      <trkpt lat="47.80095" lon="2.14239">
        <ele>105</ele>
        <time>2017-07-30T08:54:50.347Z</time>
      </trkpt>
      <trkpt lat="47.80086" lon="2.14241">
        <ele>105</ele>
        <time>2017-07-30T08:54:51.311Z</time>
      </trkpt>
      <trkpt lat="47.80086" lon="2.14241">
        <ele>105</ele>
        <time>2017-07-30T08:54:52.347Z</time>
      </trkpt>
      <trkpt lat="47.80078" lon="2.14242">
        <ele>105</ele>
        <time>2017-07-30T08:54:53.349Z</time>
      </trkpt>
      <trkpt lat="47.80078" lon="2.14242">
        <ele>105</ele>
        <time>2017-07-30T08:54:54.348Z</time>
      </trkpt>
      <trkpt lat="47.80073" lon="2.14242">
        <ele>105</ele>
        <time>2017-07-30T08:54:55.315Z</time>
      </trkpt>
      <trkpt lat="47.80073" lon="2.14242">
        <ele>105</ele>
        <time>2017-07-30T08:54:56.353Z</time>
      </trkpt>
      <trkpt lat="47.80071" lon="2.14241">
        <ele>105</ele>
        <time>2017-07-30T08:54:57.351Z</time>
      </trkpt>
      <trkpt lat="47.80071" lon="2.1424">
        <ele>104</ele>
        <time>2017-07-30T08:54:58.331Z</time>
      </trkpt>
      <trkpt lat="47.80071" lon="2.1424">
        <ele>104</ele>
        <time>2017-07-30T08:54:59.319Z</time>
      </trkpt>
    </trkseg>
  </trk>
</gpx>